<?xml version='1.0' encoding='UTF-8'?><gpx version="1.1" creator="JPX - https://github.com/jenetics/jpx" xmlns="http://www.topografix.com/GPX/1/1"><trk><trkseg><trkpt lat="43.9762846" lon="12.481268"><ele>115.99999999999999</ele><time>2026-03-29T05:55:17.366Z</time></trkpt><trkpt lat="43.9763645" lon="12.4813074"><ele>116.0</ele><time>2026-03-29T05:56:12.401Z</time></trkpt><trkpt lat="43.9763304" lon="12.4812176"><ele>116.0</ele><time>2026-03-29T05:57:36.406Z</time></trkpt><trkpt lat="43.9762861" lon="12.4811308"><ele>116.0</ele><time>2026-03-29T05:57:40.399Z</time></trkpt><trkpt lat="43.9762764" lon="12.4810439"><ele>115.99999999999999</ele><time>2026-03-29T05:57:43.385Z</time></trkpt><trkpt lat="43.9763271" lon="12.4809644"><ele>116.0</ele><time>2026-03-29T05:57:48.409Z</time></trkpt><trkpt lat="43.9763944" lon="12.4809088"><ele>115.99999999999999</ele><time>2026-03-29T05:57:54.415Z</time></trkpt><trkpt lat="43.9764165" lon="12.480995"><ele>116.0</ele><time>2026-03-29T05:58:02.353Z</time></trkpt><trkpt lat="43.9763457" lon="12.481038"><ele>116.0</ele><time>2026-03-29T05:58:07.389Z</time></trkpt><trkpt lat="43.9762776" lon="12.4810827"><ele>116.0</ele><time>2026-03-29T05:58:11.415Z</time></trkpt><trkpt lat="43.9762729" lon="12.4811729"><ele>115.99999999999999</ele><time>2026-03-29T05:58:15.418Z</time></trkpt><trkpt lat="43.9762962" lon="12.4812874"><ele>116.0</ele><time>2026-03-29T05:58:19.406Z</time></trkpt><trkpt lat="43.9763419" lon="12.4813861"><ele>116.0</ele><time>2026-03-29T05:58:21.416Z</time></trkpt><trkpt lat="43.9764097" lon="12.4814903"><ele>116.0</ele><time>2026-03-29T05:58:23.408Z</time></trkpt><trkpt lat="43.9764849" lon="12.4815785"><ele>116.0</ele><time>2026-03-29T05:58:25.438Z</time></trkpt><trkpt lat="43.9765679" lon="12.4816856"><ele>116.0</ele><time>2026-03-29T05:58:27.423Z</time></trkpt><trkpt lat="43.9766647" lon="12.4817896"><ele>116.0</ele><time>2026-03-29T05:58:29.439Z</time></trkpt><trkpt lat="43.9767532" lon="12.481893"><ele>115.57142857142858</ele><time>2026-03-29T05:58:31.42Z</time></trkpt><trkpt lat="43.9768061" lon="12.4819504"><ele>115.14285714285714</ele><time>2026-03-29T05:58:32.427Z</time></trkpt><trkpt lat="43.976855" lon="12.4820269"><ele>114.71428571428572</ele><time>2026-03-29T05:58:33.422Z</time></trkpt><trkpt lat="43.9769036" lon="12.482116"><ele>114.28571428571429</ele><time>2026-03-29T05:58:34.423Z</time></trkpt><trkpt lat="43.9769546" lon="12.4821807"><ele>113.85714285714286</ele><time>2026-03-29T05:58:35.433Z</time></trkpt><trkpt lat="43.9770059" lon="12.4822539"><ele>113.42857142857143</ele><time>2026-03-29T05:58:36.423Z</time></trkpt><trkpt lat="43.977058" lon="12.4823274"><ele>113.0</ele><time>2026-03-29T05:58:37.404Z</time></trkpt><trkpt lat="43.9771046" lon="12.4823952"><ele>112.99999999999999</ele><time>2026-03-29T05:58:38.432Z</time></trkpt><trkpt lat="43.9771884" lon="12.4824947"><ele>113.0</ele><time>2026-03-29T05:58:40.404Z</time></trkpt><trkpt lat="43.9772225" lon="12.4825837"><ele>113.0</ele><time>2026-03-29T05:58:42.395Z</time></trkpt><trkpt lat="43.9771551" lon="12.4826806"><ele>113.0</ele><time>2026-03-29T05:58:44.419Z</time></trkpt><trkpt lat="43.9770841" lon="12.4827328"><ele>112.99999999999999</ele><time>2026-03-29T05:58:46.42Z</time></trkpt><trkpt lat="43.9770307" lon="12.482796"><ele>113.0</ele><time>2026-03-29T05:58:48.413Z</time></trkpt><trkpt lat="43.9769622" lon="12.4828863"><ele>112.66666666666666</ele><time>2026-03-29T05:58:51.424Z</time></trkpt><trkpt lat="43.9769148" lon="12.4829502"><ele>112.33333333333333</ele><time>2026-03-29T05:58:53.383Z</time></trkpt><trkpt lat="43.9768678" lon="12.4830205"><ele>112.0</ele><time>2026-03-29T05:58:55.393Z</time></trkpt><trkpt lat="43.9768237" lon="12.4830933"><ele>111.66666666666666</ele><time>2026-03-29T05:58:57.421Z</time></trkpt><trkpt lat="43.9768155" lon="12.4832082"><ele>111.33333333333333</ele><time>2026-03-29T05:59:00.432Z</time></trkpt><trkpt lat="43.9768463" lon="12.4833214"><ele>111.0</ele><time>2026-03-29T05:59:02.412Z</time></trkpt><trkpt lat="43.976916" lon="12.4834272"><ele>111.0</ele><time>2026-03-29T05:59:04.411Z</time></trkpt><trkpt lat="43.9769941" lon="12.4835415"><ele>111.0</ele><time>2026-03-29T05:59:06.413Z</time></trkpt><trkpt lat="43.977075" lon="12.4836518"><ele>111.0</ele><time>2026-03-29T05:59:08.409Z</time></trkpt><trkpt lat="43.9771247" lon="12.4837173"><ele>111.0</ele><time>2026-03-29T05:59:09.417Z</time></trkpt><trkpt lat="43.9771809" lon="12.4837596"><ele>111.0</ele><time>2026-03-29T05:59:10.431Z</time></trkpt><trkpt lat="43.9772868" lon="12.4838483"><ele>110.57142857142857</ele><time>2026-03-29T05:59:12.419Z</time></trkpt><trkpt lat="43.9773387" lon="12.4838989"><ele>110.14285714285715</ele><time>2026-03-29T05:59:13.413Z</time></trkpt><trkpt lat="43.9773928" lon="12.4839557"><ele>109.71428571428572</ele><time>2026-03-29T05:59:14.425Z</time></trkpt><trkpt lat="43.9774364" lon="12.4840223"><ele>109.28571428571428</ele><time>2026-03-29T05:59:15.41Z</time></trkpt><trkpt lat="43.9774982" lon="12.4840987"><ele>108.85714285714286</ele><time>2026-03-29T05:59:16.42Z</time></trkpt><trkpt lat="43.9775653" lon="12.4841691"><ele>108.42857142857143</ele><time>2026-03-29T05:59:17.43Z</time></trkpt><trkpt lat="43.9776267" lon="12.484241"><ele>108.0</ele><time>2026-03-29T05:59:18.428Z</time></trkpt><trkpt lat="43.9776874" lon="12.4843177"><ele>107.0</ele><time>2026-03-29T05:59:19.408Z</time></trkpt><trkpt lat="43.9777493" lon="12.4843917"><ele>106.00000000000001</ele><time>2026-03-29T05:59:20.396Z</time></trkpt><trkpt lat="43.9778249" lon="12.4844689"><ele>105.0</ele><time>2026-03-29T05:59:21.422Z</time></trkpt><trkpt lat="43.97792" lon="12.4845398"><ele>104.0</ele><time>2026-03-29T05:59:22.415Z</time></trkpt><trkpt lat="43.9780183" lon="12.4846076"><ele>103.0</ele><time>2026-03-29T05:59:23.414Z</time></trkpt><trkpt lat="43.9781225" lon="12.4846742"><ele>101.75</ele><time>2026-03-29T05:59:24.415Z</time></trkpt><trkpt lat="43.9782277" lon="12.4847493"><ele>100.5</ele><time>2026-03-29T05:59:25.423Z</time></trkpt><trkpt lat="43.9783121" lon="12.4848796"><ele>99.25</ele><time>2026-03-29T05:59:26.427Z</time></trkpt><trkpt lat="43.9783415" lon="12.4850308"><ele>98.0</ele><time>2026-03-29T05:59:27.429Z</time></trkpt><trkpt lat="43.978336" lon="12.485209"><ele>98.0</ele><time>2026-03-29T05:59:28.373Z</time></trkpt><trkpt lat="43.9783116" lon="12.4853804"><ele>98.0</ele><time>2026-03-29T05:59:29.417Z</time></trkpt><trkpt lat="43.9782866" lon="12.4855528"><ele>98.0</ele><time>2026-03-29T05:59:30.417Z</time></trkpt><trkpt lat="43.9782386" lon="12.4857156"><ele>98.0</ele><time>2026-03-29T05:59:31.421Z</time></trkpt><trkpt lat="43.9781717" lon="12.4858843"><ele>97.0</ele><time>2026-03-29T05:59:32.415Z</time></trkpt><trkpt lat="43.978108" lon="12.4860448"><ele>96.0</ele><time>2026-03-29T05:59:33.41Z</time></trkpt><trkpt lat="43.9780495" lon="12.4862033"><ele>95.0</ele><time>2026-03-29T05:59:34.379Z</time></trkpt><trkpt lat="43.9779881" lon="12.4863645"><ele>94.0</ele><time>2026-03-29T05:59:35.428Z</time></trkpt><trkpt lat="43.9779064" lon="12.4865155"><ele>92.5</ele><time>2026-03-29T05:59:36.429Z</time></trkpt><trkpt lat="43.9778443" lon="12.4866673"><ele>91.0</ele><time>2026-03-29T05:59:37.414Z</time></trkpt><trkpt lat="43.9777899" lon="12.4868273"><ele>89.5</ele><time>2026-03-29T05:59:38.429Z</time></trkpt><trkpt lat="43.9777338" lon="12.4869836"><ele>88.0</ele><time>2026-03-29T05:59:39.417Z</time></trkpt><trkpt lat="43.9776877" lon="12.487118"><ele>87.33333333333333</ele><time>2026-03-29T05:59:40.426Z</time></trkpt><trkpt lat="43.977642" lon="12.4872293"><ele>86.66666666666666</ele><time>2026-03-29T05:59:41.413Z</time></trkpt><trkpt lat="43.9776102" lon="12.4873132"><ele>86.0</ele><time>2026-03-29T05:59:42.414Z</time></trkpt><trkpt lat="43.9775363" lon="12.487368"><ele>85.33333333333333</ele><time>2026-03-29T05:59:47.364Z</time></trkpt><trkpt lat="43.9775075" lon="12.48745"><ele>84.66666666666667</ele><time>2026-03-29T05:59:49.353Z</time></trkpt><trkpt lat="43.977487" lon="12.4875763"><ele>84.0</ele><time>2026-03-29T05:59:51.345Z</time></trkpt><trkpt lat="43.9774685" lon="12.4876997"><ele>83.66666666666667</ele><time>2026-03-29T05:59:53.369Z</time></trkpt><trkpt lat="43.9774406" lon="12.4878566"><ele>83.33333333333333</ele><time>2026-03-29T05:59:55.369Z</time></trkpt><trkpt lat="43.9774349" lon="12.4879487"><ele>83.0</ele><time>2026-03-29T05:59:56.359Z</time></trkpt><trkpt lat="43.9774505" lon="12.4880371"><ele>82.66666666666666</ele><time>2026-03-29T05:59:57.391Z</time></trkpt><trkpt lat="43.9774834" lon="12.4881187"><ele>82.33333333333333</ele><time>2026-03-29T05:59:58.365Z</time></trkpt><trkpt lat="43.9775361" lon="12.4881851"><ele>82.0</ele><time>2026-03-29T05:59:59.361Z</time></trkpt><trkpt lat="43.9775956" lon="12.4882456"><ele>82.0</ele><time>2026-03-29T06:00:00.372Z</time></trkpt><trkpt lat="43.9776493" lon="12.4883057"><ele>82.0</ele><time>2026-03-29T06:00:01.364Z</time></trkpt><trkpt lat="43.9776966" lon="12.4883666"><ele>82.0</ele><time>2026-03-29T06:00:02.416Z</time></trkpt><trkpt lat="43.9777501" lon="12.4884273"><ele>82.0</ele><time>2026-03-29T06:00:03.417Z</time></trkpt><trkpt lat="43.9778389" lon="12.4885297"><ele>82.0</ele><time>2026-03-29T06:00:05.412Z</time></trkpt><trkpt lat="43.9779242" lon="12.4886386"><ele>82.0</ele><time>2026-03-29T06:00:07.424Z</time></trkpt><trkpt lat="43.978014" lon="12.4887218"><ele>81.8</ele><time>2026-03-29T06:00:09.433Z</time></trkpt><trkpt lat="43.9780972" lon="12.488789"><ele>81.6</ele><time>2026-03-29T06:00:11.423Z</time></trkpt><trkpt lat="43.9781733" lon="12.4888665"><ele>81.39999999999999</ele><time>2026-03-29T06:00:13.398Z</time></trkpt><trkpt lat="43.9782417" lon="12.4889392"><ele>81.19999999999999</ele><time>2026-03-29T06:00:15.415Z</time></trkpt><trkpt lat="43.9783063" lon="12.4890159"><ele>81.0</ele><time>2026-03-29T06:00:17.416Z</time></trkpt><trkpt lat="43.9783822" lon="12.4891028"><ele>81.0</ele><time>2026-03-29T06:00:19.415Z</time></trkpt><trkpt lat="43.9784587" lon="12.4891816"><ele>81.0</ele><time>2026-03-29T06:00:21.416Z</time></trkpt><trkpt lat="43.9785469" lon="12.4892832"><ele>81.0</ele><time>2026-03-29T06:00:23.395Z</time></trkpt><trkpt lat="43.9785989" lon="12.4893348"><ele>81.0</ele><time>2026-03-29T06:00:24.394Z</time></trkpt><trkpt lat="43.9786969" lon="12.4894332"><ele>81.0</ele><time>2026-03-29T06:00:26.38Z</time></trkpt><trkpt lat="43.9787943" lon="12.4895287"><ele>81.0</ele><time>2026-03-29T06:00:28.421Z</time></trkpt><trkpt lat="43.9788489" lon="12.4895747"><ele>81.0</ele><time>2026-03-29T06:00:29.403Z</time></trkpt><trkpt lat="43.9789134" lon="12.489621"><ele>81.0</ele><time>2026-03-29T06:00:30.418Z</time></trkpt><trkpt lat="43.9789958" lon="12.4896582"><ele>81.0</ele><time>2026-03-29T06:00:31.407Z</time></trkpt><trkpt lat="43.9790725" lon="12.4896888"><ele>81.0</ele><time>2026-03-29T06:00:32.425Z</time></trkpt><trkpt lat="43.9791573" lon="12.489734"><ele>81.0</ele><time>2026-03-29T06:00:33.415Z</time></trkpt><trkpt lat="43.9792275" lon="12.4897837"><ele>80.83333333333333</ele><time>2026-03-29T06:00:34.425Z</time></trkpt><trkpt lat="43.9793037" lon="12.4898249"><ele>80.66666666666667</ele><time>2026-03-29T06:00:35.417Z</time></trkpt><trkpt lat="43.9793735" lon="12.4898716"><ele>80.5</ele><time>2026-03-29T06:00:36.417Z</time></trkpt><trkpt lat="43.9794473" lon="12.4899113"><ele>80.33333333333334</ele><time>2026-03-29T06:00:37.414Z</time></trkpt><trkpt lat="43.9795271" lon="12.4899606"><ele>80.16666666666667</ele><time>2026-03-29T06:00:38.43Z</time></trkpt><trkpt lat="43.9796001" lon="12.4899943"><ele>80.0</ele><time>2026-03-29T06:00:39.421Z</time></trkpt><trkpt lat="43.9796707" lon="12.4900405"><ele>80.0</ele><time>2026-03-29T06:00:40.427Z</time></trkpt><trkpt lat="43.9797433" lon="12.4900922"><ele>80.0</ele><time>2026-03-29T06:00:41.417Z</time></trkpt><trkpt lat="43.9798101" lon="12.4901381"><ele>80.0</ele><time>2026-03-29T06:00:42.419Z</time></trkpt><trkpt lat="43.9798837" lon="12.4901821"><ele>80.0</ele><time>2026-03-29T06:00:43.42Z</time></trkpt><trkpt lat="43.9799482" lon="12.4902216"><ele>80.0</ele><time>2026-03-29T06:00:44.404Z</time></trkpt><trkpt lat="43.9800114" lon="12.4902566"><ele>80.0</ele><time>2026-03-29T06:00:45.415Z</time></trkpt><trkpt lat="43.9800762" lon="12.4902871"><ele>80.0</ele><time>2026-03-29T06:00:46.418Z</time></trkpt><trkpt lat="43.980135" lon="12.4903342"><ele>81.2</ele><time>2026-03-29T06:00:47.41Z</time></trkpt><trkpt lat="43.9801951" lon="12.4903843"><ele>82.4</ele><time>2026-03-29T06:00:48.391Z</time></trkpt><trkpt lat="43.9802512" lon="12.4904262"><ele>83.6</ele><time>2026-03-29T06:00:49.417Z</time></trkpt><trkpt lat="43.9803653" lon="12.4905171"><ele>84.8</ele><time>2026-03-29T06:00:51.416Z</time></trkpt><trkpt lat="43.9804238" lon="12.4905631"><ele>86.0</ele><time>2026-03-29T06:00:52.42Z</time></trkpt><trkpt lat="43.9805365" lon="12.4906451"><ele>85.5</ele><time>2026-03-29T06:00:54.413Z</time></trkpt><trkpt lat="43.9805931" lon="12.4906868"><ele>85.0</ele><time>2026-03-29T06:00:55.393Z</time></trkpt><trkpt lat="43.9806499" lon="12.490728"><ele>84.5</ele><time>2026-03-29T06:00:56.404Z</time></trkpt><trkpt lat="43.9807387" lon="12.4907967"><ele>84.0</ele><time>2026-03-29T06:00:58.41Z</time></trkpt><trkpt lat="43.9808288" lon="12.4908548"><ele>83.5</ele><time>2026-03-29T06:01:00.403Z</time></trkpt><trkpt lat="43.9809223" lon="12.4909073"><ele>83.0</ele><time>2026-03-29T06:01:02.408Z</time></trkpt><trkpt lat="43.9810163" lon="12.4909758"><ele>83.0</ele><time>2026-03-29T06:01:04.422Z</time></trkpt><trkpt lat="43.9811079" lon="12.4910605"><ele>83.0</ele><time>2026-03-29T06:01:06.421Z</time></trkpt><trkpt lat="43.9811922" lon="12.4911809"><ele>83.0</ele><time>2026-03-29T06:01:08.432Z</time></trkpt><trkpt lat="43.9812418" lon="12.4912588"><ele>83.0</ele><time>2026-03-29T06:01:09.409Z</time></trkpt><trkpt lat="43.9812995" lon="12.4913387"><ele>83.0</ele><time>2026-03-29T06:01:10.399Z</time></trkpt><trkpt lat="43.9813593" lon="12.4914168"><ele>81.0</ele><time>2026-03-29T06:01:11.363Z</time></trkpt><trkpt lat="43.9814299" lon="12.4915"><ele>79.0</ele><time>2026-03-29T06:01:12.413Z</time></trkpt><trkpt lat="43.9815011" lon="12.4915898"><ele>77.0</ele><time>2026-03-29T06:01:13.405Z</time></trkpt><trkpt lat="43.9815672" lon="12.4916886"><ele>75.0</ele><time>2026-03-29T06:01:14.393Z</time></trkpt><trkpt lat="43.9816143" lon="12.491822"><ele>73.0</ele><time>2026-03-29T06:01:15.412Z</time></trkpt><trkpt lat="43.9816406" lon="12.4919633"><ele>71.8</ele><time>2026-03-29T06:01:16.4Z</time></trkpt><trkpt lat="43.981675" lon="12.4921061"><ele>70.6</ele><time>2026-03-29T06:01:17.406Z</time></trkpt><trkpt lat="43.9817153" lon="12.4922352"><ele>69.4</ele><time>2026-03-29T06:01:18.425Z</time></trkpt><trkpt lat="43.981765" lon="12.4923536"><ele>68.2</ele><time>2026-03-29T06:01:19.417Z</time></trkpt><trkpt lat="43.9818117" lon="12.4924642"><ele>67.0</ele><time>2026-03-29T06:01:20.399Z</time></trkpt><trkpt lat="43.9818589" lon="12.4925634"><ele>66.8</ele><time>2026-03-29T06:01:21.382Z</time></trkpt><trkpt lat="43.9819018" lon="12.4926725"><ele>66.6</ele><time>2026-03-29T06:01:22.417Z</time></trkpt><trkpt lat="43.9819494" lon="12.4927791"><ele>66.39999999999999</ele><time>2026-03-29T06:01:23.395Z</time></trkpt><trkpt lat="43.9819923" lon="12.4928823"><ele>66.2</ele><time>2026-03-29T06:01:24.387Z</time></trkpt><trkpt lat="43.9820371" lon="12.4929979"><ele>66.0</ele><time>2026-03-29T06:01:25.394Z</time></trkpt><trkpt lat="43.982048" lon="12.4931317"><ele>65.5</ele><time>2026-03-29T06:01:26.426Z</time></trkpt><trkpt lat="43.9820163" lon="12.4932312"><ele>65.0</ele><time>2026-03-29T06:01:27.424Z</time></trkpt><trkpt lat="43.9819709" lon="12.4933245"><ele>64.5</ele><time>2026-03-29T06:01:28.413Z</time></trkpt><trkpt lat="43.98192" lon="12.4934104"><ele>64.0</ele><time>2026-03-29T06:01:29.423Z</time></trkpt><trkpt lat="43.9818712" lon="12.4935039"><ele>63.5</ele><time>2026-03-29T06:01:30.414Z</time></trkpt><trkpt lat="43.9818338" lon="12.4936005"><ele>63.0</ele><time>2026-03-29T06:01:31.366Z</time></trkpt><trkpt lat="43.9817956" lon="12.4936897"><ele>63.166666666666664</ele><time>2026-03-29T06:01:32.387Z</time></trkpt><trkpt lat="43.9817522" lon="12.4937688"><ele>63.33333333333333</ele><time>2026-03-29T06:01:33.411Z</time></trkpt><trkpt lat="43.9817075" lon="12.4938492"><ele>63.5</ele><time>2026-03-29T06:01:34.416Z</time></trkpt><trkpt lat="43.9816621" lon="12.4939153"><ele>63.666666666666664</ele><time>2026-03-29T06:01:35.403Z</time></trkpt><trkpt lat="43.9815857" lon="12.4940421"><ele>63.83333333333333</ele><time>2026-03-29T06:01:37.406Z</time></trkpt><trkpt lat="43.9815534" lon="12.4941178"><ele>64.0</ele><time>2026-03-29T06:01:38.404Z</time></trkpt><trkpt lat="43.9815189" lon="12.4941958"><ele>64.60000000000001</ele><time>2026-03-29T06:01:39.413Z</time></trkpt><trkpt lat="43.9814781" lon="12.4942796"><ele>65.2</ele><time>2026-03-29T06:01:40.397Z</time></trkpt><trkpt lat="43.9814085" lon="12.4944294"><ele>65.80000000000001</ele><time>2026-03-29T06:01:42.374Z</time></trkpt><trkpt lat="43.9813417" lon="12.4945744"><ele>66.4</ele><time>2026-03-29T06:01:44.395Z</time></trkpt><trkpt lat="43.9813061" lon="12.4946983"><ele>67.0</ele><time>2026-03-29T06:01:46.416Z</time></trkpt><trkpt lat="43.9812507" lon="12.4948191"><ele>67.0</ele><time>2026-03-29T06:01:48.424Z</time></trkpt><trkpt lat="43.9812129" lon="12.4949217"><ele>67.0</ele><time>2026-03-29T06:01:50.425Z</time></trkpt><trkpt lat="43.9811787" lon="12.4950216"><ele>67.0</ele><time>2026-03-29T06:01:53.41Z</time></trkpt><trkpt lat="43.9811636" lon="12.4951258"><ele>67.0</ele><time>2026-03-29T06:01:56.385Z</time></trkpt><trkpt lat="43.9811453" lon="12.4952308"><ele>67.0</ele><time>2026-03-29T06:01:59.403Z</time></trkpt><trkpt lat="43.9811266" lon="12.4953532"><ele>67.0</ele><time>2026-03-29T06:02:02.407Z</time></trkpt><trkpt lat="43.9811225" lon="12.4954888"><ele>67.0</ele><time>2026-03-29T06:02:05.39Z</time></trkpt><trkpt lat="43.9811117" lon="12.4955776"><ele>67.0</ele><time>2026-03-29T06:02:07.42Z</time></trkpt><trkpt lat="43.9811054" lon="12.4956708"><ele>67.0</ele><time>2026-03-29T06:02:09.408Z</time></trkpt><trkpt lat="43.9810916" lon="12.4957646"><ele>67.0</ele><time>2026-03-29T06:02:11.402Z</time></trkpt><trkpt lat="43.9810722" lon="12.4958853"><ele>67.0</ele><time>2026-03-29T06:02:14.408Z</time></trkpt><trkpt lat="43.9810578" lon="12.4960081"><ele>67.0</ele><time>2026-03-29T06:02:17.357Z</time></trkpt><trkpt lat="43.9810511" lon="12.4961007"><ele>67.0</ele><time>2026-03-29T06:02:19.435Z</time></trkpt><trkpt lat="43.9810645" lon="12.4962002"><ele>67.0</ele><time>2026-03-29T06:02:21.379Z</time></trkpt><trkpt lat="43.9811007" lon="12.4963213"><ele>67.0</ele><time>2026-03-29T06:02:23.344Z</time></trkpt><trkpt lat="43.9811546" lon="12.4964577"><ele>67.0</ele><time>2026-03-29T06:02:25.401Z</time></trkpt><trkpt lat="43.9811896" lon="12.4965364"><ele>67.0</ele><time>2026-03-29T06:02:26.379Z</time></trkpt><trkpt lat="43.9812178" lon="12.4966271"><ele>67.0</ele><time>2026-03-29T06:02:27.421Z</time></trkpt><trkpt lat="43.9812427" lon="12.4967108"><ele>67.0</ele><time>2026-03-29T06:02:28.391Z</time></trkpt><trkpt lat="43.9812635" lon="12.496799"><ele>67.0</ele><time>2026-03-29T06:02:29.391Z</time></trkpt><trkpt lat="43.9812921" lon="12.4968772"><ele>67.0</ele><time>2026-03-29T06:02:30.418Z</time></trkpt><trkpt lat="43.9813523" lon="12.4970383"><ele>67.0</ele><time>2026-03-29T06:02:32.379Z</time></trkpt><trkpt lat="43.9813852" lon="12.4971322"><ele>67.0</ele><time>2026-03-29T06:02:33.397Z</time></trkpt><trkpt lat="43.9814039" lon="12.4972222"><ele>67.0</ele><time>2026-03-29T06:02:34.408Z</time></trkpt><trkpt lat="43.9814495" lon="12.4973864"><ele>66.6</ele><time>2026-03-29T06:02:36.442Z</time></trkpt><trkpt lat="43.9815016" lon="12.4975341"><ele>66.2</ele><time>2026-03-29T06:02:38.423Z</time></trkpt><trkpt lat="43.9815698" lon="12.4976537"><ele>65.8</ele><time>2026-03-29T06:02:40.438Z</time></trkpt><trkpt lat="43.98166" lon="12.4977407"><ele>65.4</ele><time>2026-03-29T06:02:42.411Z</time></trkpt><trkpt lat="43.9817605" lon="12.4977894"><ele>65.0</ele><time>2026-03-29T06:02:44.417Z</time></trkpt><trkpt lat="43.9818649" lon="12.4978147"><ele>65.0</ele><time>2026-03-29T06:02:46.398Z</time></trkpt><trkpt lat="43.9819507" lon="12.497863"><ele>65.0</ele><time>2026-03-29T06:02:48.41Z</time></trkpt><trkpt lat="43.9820278" lon="12.4978852"><ele>65.0</ele><time>2026-03-29T06:02:50.394Z</time></trkpt><trkpt lat="43.9821005" lon="12.4979028"><ele>65.0</ele><time>2026-03-29T06:02:52.39Z</time></trkpt><trkpt lat="43.9821718" lon="12.4979143"><ele>65.0</ele><time>2026-03-29T06:02:54.419Z</time></trkpt><trkpt lat="43.9822427" lon="12.4979242"><ele>65.0</ele><time>2026-03-29T06:02:56.393Z</time></trkpt><trkpt lat="43.9823342" lon="12.4979493"><ele>66.83333333333334</ele><time>2026-03-29T06:02:59.381Z</time></trkpt><trkpt lat="43.982431" lon="12.4979713"><ele>68.66666666666667</ele><time>2026-03-29T06:03:02.403Z</time></trkpt><trkpt lat="43.9824999" lon="12.4979938"><ele>70.5</ele><time>2026-03-29T06:03:04.41Z</time></trkpt><trkpt lat="43.9825882" lon="12.4980283"><ele>72.33333333333333</ele><time>2026-03-29T06:03:07.422Z</time></trkpt><trkpt lat="43.9826497" lon="12.4980561"><ele>74.16666666666666</ele><time>2026-03-29T06:03:09.409Z</time></trkpt><trkpt lat="43.9827119" lon="12.4980815"><ele>76.0</ele><time>2026-03-29T06:03:11.371Z</time></trkpt><trkpt lat="43.982771" lon="12.4981168"><ele>76.0</ele><time>2026-03-29T06:03:13.403Z</time></trkpt><trkpt lat="43.982829" lon="12.4981658"><ele>76.0</ele><time>2026-03-29T06:03:15.394Z</time></trkpt><trkpt lat="43.9828763" lon="12.4982285"><ele>76.0</ele><time>2026-03-29T06:03:17.391Z</time></trkpt><trkpt lat="43.9829373" lon="12.4983187"><ele>76.0</ele><time>2026-03-29T06:03:20.414Z</time></trkpt><trkpt lat="43.9829889" lon="12.4983796"><ele>76.0</ele><time>2026-03-29T06:03:22.41Z</time></trkpt><trkpt lat="43.9830402" lon="12.4984327"><ele>76.0</ele><time>2026-03-29T06:03:24.413Z</time></trkpt><trkpt lat="43.9830898" lon="12.4984977"><ele>76.0</ele><time>2026-03-29T06:03:26.396Z</time></trkpt><trkpt lat="43.9831377" lon="12.4985657"><ele>76.0</ele><time>2026-03-29T06:03:28.419Z</time></trkpt><trkpt lat="43.9831899" lon="12.4986214"><ele>76.0</ele><time>2026-03-29T06:03:30.417Z</time></trkpt><trkpt lat="43.983259" lon="12.4987134"><ele>76.0</ele><time>2026-03-29T06:03:33.428Z</time></trkpt><trkpt lat="43.9833113" lon="12.4987694"><ele>76.0</ele><time>2026-03-29T06:03:35.412Z</time></trkpt><trkpt lat="43.9833588" lon="12.498829"><ele>76.0</ele><time>2026-03-29T06:03:37.39Z</time></trkpt><trkpt lat="43.9834092" lon="12.4988887"><ele>76.0</ele><time>2026-03-29T06:03:39.435Z</time></trkpt><trkpt lat="43.9834591" lon="12.4989534"><ele>76.0</ele><time>2026-03-29T06:03:41.414Z</time></trkpt><trkpt lat="43.9835124" lon="12.4990082"><ele>76.14285714285714</ele><time>2026-03-29T06:03:43.408Z</time></trkpt><trkpt lat="43.9835637" lon="12.4990715"><ele>76.28571428571429</ele><time>2026-03-29T06:03:45.412Z</time></trkpt><trkpt lat="43.9836105" lon="12.4991347"><ele>76.42857142857143</ele><time>2026-03-29T06:03:47.413Z</time></trkpt><trkpt lat="43.9836529" lon="12.4992044"><ele>76.57142857142857</ele><time>2026-03-29T06:03:49.42Z</time></trkpt><trkpt lat="43.9837047" lon="12.4992952"><ele>76.71428571428572</ele><time>2026-03-29T06:03:52.421Z</time></trkpt><trkpt lat="43.9837584" lon="12.499397"><ele>76.85714285714286</ele><time>2026-03-29T06:03:55.421Z</time></trkpt><trkpt lat="43.9837918" lon="12.4994735"><ele>77.0</ele><time>2026-03-29T06:03:57.414Z</time></trkpt><trkpt lat="43.9838366" lon="12.4995865"><ele>78.83333333333334</ele><time>2026-03-29T06:04:00.42Z</time></trkpt><trkpt lat="43.9838831" lon="12.499698"><ele>80.66666666666667</ele><time>2026-03-29T06:04:03.369Z</time></trkpt><trkpt lat="43.9839266" lon="12.4998006"><ele>82.5</ele><time>2026-03-29T06:04:06.436Z</time></trkpt><trkpt lat="43.9839694" lon="12.4998964"><ele>84.33333333333333</ele><time>2026-03-29T06:04:09.429Z</time></trkpt><trkpt lat="43.9840119" lon="12.4999992"><ele>86.16666666666666</ele><time>2026-03-29T06:04:12.369Z</time></trkpt><trkpt lat="43.9840563" lon="12.5000972"><ele>88.0</ele><time>2026-03-29T06:04:15.41Z</time></trkpt><trkpt lat="43.9840975" lon="12.5001864"><ele>88.0</ele><time>2026-03-29T06:04:18.405Z</time></trkpt><trkpt lat="43.9841352" lon="12.5002769"><ele>88.0</ele><time>2026-03-29T06:04:21.42Z</time></trkpt><trkpt lat="43.9841744" lon="12.5003719"><ele>88.0</ele><time>2026-03-29T06:04:24.375Z</time></trkpt><trkpt lat="43.9842042" lon="12.5004748"><ele>88.0</ele><time>2026-03-29T06:04:27.426Z</time></trkpt><trkpt lat="43.9842308" lon="12.5005704"><ele>88.0</ele><time>2026-03-29T06:04:30.428Z</time></trkpt><trkpt lat="43.9842388" lon="12.5006754"><ele>88.0</ele><time>2026-03-29T06:04:33.424Z</time></trkpt><trkpt lat="43.984259" lon="12.5007754"><ele>88.0</ele><time>2026-03-29T06:04:36.421Z</time></trkpt><trkpt lat="43.9842783" lon="12.5008815"><ele>88.0</ele><time>2026-03-29T06:04:39.418Z</time></trkpt><trkpt lat="43.9842911" lon="12.5009731"><ele>88.0</ele><time>2026-03-29T06:04:42.401Z</time></trkpt><trkpt lat="43.9842879" lon="12.5010652"><ele>88.0</ele><time>2026-03-29T06:04:45.411Z</time></trkpt><trkpt lat="43.9842876" lon="12.5011548"><ele>88.0</ele><time>2026-03-29T06:04:48.416Z</time></trkpt><trkpt lat="43.984276" lon="12.501241"><ele>88.0</ele><time>2026-03-29T06:04:51.439Z</time></trkpt><trkpt lat="43.9842637" lon="12.5013342"><ele>88.0</ele><time>2026-03-29T06:04:54.417Z</time></trkpt><trkpt lat="43.9842547" lon="12.5014433"><ele>88.0</ele><time>2026-03-29T06:04:58.415Z</time></trkpt><trkpt lat="43.9842315" lon="12.5015501"><ele>88.0</ele><time>2026-03-29T06:05:03.405Z</time></trkpt><trkpt lat="43.9842127" lon="12.5016367"><ele>88.0</ele><time>2026-03-29T06:05:06.396Z</time></trkpt><trkpt lat="43.984202" lon="12.5017308"><ele>88.0</ele><time>2026-03-29T06:05:09.403Z</time></trkpt><trkpt lat="43.9841907" lon="12.5018415"><ele>88.0</ele><time>2026-03-29T06:05:12.418Z</time></trkpt><trkpt lat="43.9841801" lon="12.5019568"><ele>88.0</ele><time>2026-03-29T06:05:15.42Z</time></trkpt><trkpt lat="43.9841775" lon="12.5020797"><ele>90.42857142857143</ele><time>2026-03-29T06:05:18.413Z</time></trkpt><trkpt lat="43.9841776" lon="12.5021956"><ele>92.85714285714286</ele><time>2026-03-29T06:05:21.401Z</time></trkpt><trkpt lat="43.9841712" lon="12.5022942"><ele>95.28571428571428</ele><time>2026-03-29T06:05:24.412Z</time></trkpt><trkpt lat="43.9841515" lon="12.5023884"><ele>97.71428571428572</ele><time>2026-03-29T06:05:27.41Z</time></trkpt><trkpt lat="43.9841195" lon="12.5024747"><ele>100.14285714285714</ele><time>2026-03-29T06:05:30.412Z</time></trkpt><trkpt lat="43.9840684" lon="12.5025505"><ele>102.57142857142857</ele><time>2026-03-29T06:05:34.418Z</time></trkpt><trkpt lat="43.9840001" lon="12.5025886"><ele>105.0</ele><time>2026-03-29T06:05:38.412Z</time></trkpt><trkpt lat="43.9839237" lon="12.5025953"><ele>105.0</ele><time>2026-03-29T06:05:42.393Z</time></trkpt><trkpt lat="43.983862" lon="12.5025699"><ele>105.0</ele><time>2026-03-29T06:05:45.413Z</time></trkpt><trkpt lat="43.9838098" lon="12.5025062"><ele>105.0</ele><time>2026-03-29T06:05:48.39Z</time></trkpt><trkpt lat="43.9837658" lon="12.5024344"><ele>105.0</ele><time>2026-03-29T06:05:51.42Z</time></trkpt><trkpt lat="43.9837197" lon="12.5023558"><ele>105.0</ele><time>2026-03-29T06:05:54.42Z</time></trkpt><trkpt lat="43.9836713" lon="12.502256"><ele>105.0</ele><time>2026-03-29T06:05:57.408Z</time></trkpt><trkpt lat="43.9836337" lon="12.5021513"><ele>105.0</ele><time>2026-03-29T06:06:00.427Z</time></trkpt><trkpt lat="43.9835879" lon="12.5020548"><ele>104.66666666666667</ele><time>2026-03-29T06:06:03.357Z</time></trkpt><trkpt lat="43.9835354" lon="12.5019616"><ele>104.33333333333334</ele><time>2026-03-29T06:06:06.431Z</time></trkpt><trkpt lat="43.98347" lon="12.5018704"><ele>104.0</ele><time>2026-03-29T06:06:09.424Z</time></trkpt><trkpt lat="43.9834197" lon="12.5018175"><ele>103.66666666666667</ele><time>2026-03-29T06:06:11.393Z</time></trkpt><trkpt lat="43.983363" lon="12.5017714"><ele>103.33333333333334</ele><time>2026-03-29T06:06:13.416Z</time></trkpt><trkpt lat="43.9832824" lon="12.5017203"><ele>103.0</ele><time>2026-03-29T06:06:16.426Z</time></trkpt><trkpt lat="43.9832227" lon="12.5016868"><ele>104.83333333333334</ele><time>2026-03-29T06:06:18.407Z</time></trkpt><trkpt lat="43.9831356" lon="12.5016269"><ele>106.66666666666667</ele><time>2026-03-29T06:06:21.432Z</time></trkpt><trkpt lat="43.9830697" lon="12.5015885"><ele>108.5</ele><time>2026-03-29T06:06:23.422Z</time></trkpt><trkpt lat="43.9829847" lon="12.5015248"><ele>110.33333333333334</ele><time>2026-03-29T06:06:26.421Z</time></trkpt><trkpt lat="43.9829067" lon="12.5014749"><ele>112.16666666666667</ele><time>2026-03-29T06:06:29.403Z</time></trkpt><trkpt lat="43.9828471" lon="12.5014409"><ele>114.0</ele><time>2026-03-29T06:06:31.397Z</time></trkpt><trkpt lat="43.9827615" lon="12.5013829"><ele>114.0</ele><time>2026-03-29T06:06:34.424Z</time></trkpt><trkpt lat="43.9826985" lon="12.5013488"><ele>113.99999999999999</ele><time>2026-03-29T06:06:36.439Z</time></trkpt><trkpt lat="43.9826114" lon="12.5012984"><ele>114.0</ele><time>2026-03-29T06:06:39.427Z</time></trkpt><trkpt lat="43.9825326" lon="12.5012447"><ele>114.0</ele><time>2026-03-29T06:06:42.419Z</time></trkpt><trkpt lat="43.9824719" lon="12.5012121"><ele>113.99999999999999</ele><time>2026-03-29T06:06:44.434Z</time></trkpt><trkpt lat="43.9824136" lon="12.5011766"><ele>114.0</ele><time>2026-03-29T06:06:46.399Z</time></trkpt><trkpt lat="43.9823501" lon="12.5011366"><ele>114.0</ele><time>2026-03-29T06:06:48.409Z</time></trkpt><trkpt lat="43.9822652" lon="12.5010903"><ele>114.14285714285714</ele><time>2026-03-29T06:06:51.441Z</time></trkpt><trkpt lat="43.9822037" lon="12.5010505"><ele>114.28571428571428</ele><time>2026-03-29T06:06:53.368Z</time></trkpt><trkpt lat="43.982117" lon="12.5010034"><ele>114.42857142857142</ele><time>2026-03-29T06:06:56.42Z</time></trkpt><trkpt lat="43.9820608" lon="12.5009631"><ele>114.57142857142856</ele><time>2026-03-29T06:06:58.423Z</time></trkpt><trkpt lat="43.9820004" lon="12.5009208"><ele>114.71428571428571</ele><time>2026-03-29T06:07:00.429Z</time></trkpt><trkpt lat="43.9819434" lon="12.5008776"><ele>114.85714285714283</ele><time>2026-03-29T06:07:02.443Z</time></trkpt><trkpt lat="43.9818598" lon="12.5008248"><ele>114.99999999999999</ele><time>2026-03-29T06:07:05.417Z</time></trkpt><trkpt lat="43.9817822" lon="12.5007841"><ele>114.99999999999999</ele><time>2026-03-29T06:07:08.386Z</time></trkpt><trkpt lat="43.981705" lon="12.5007416"><ele>115.0</ele><time>2026-03-29T06:07:11.42Z</time></trkpt><trkpt lat="43.9816442" lon="12.5007111"><ele>114.99999999999999</ele><time>2026-03-29T06:07:13.405Z</time></trkpt><trkpt lat="43.9815578" lon="12.500691"><ele>114.99999999999999</ele><time>2026-03-29T06:07:16.418Z</time></trkpt><trkpt lat="43.9814919" lon="12.5007079"><ele>115.0</ele><time>2026-03-29T06:07:18.398Z</time></trkpt><trkpt lat="43.9814286" lon="12.5007257"><ele>114.99999999999999</ele><time>2026-03-29T06:07:20.413Z</time></trkpt><trkpt lat="43.981367" lon="12.5007529"><ele>114.99999999999999</ele><time>2026-03-29T06:07:22.389Z</time></trkpt><trkpt lat="43.9813054" lon="12.5007939"><ele>116.66666666666667</ele><time>2026-03-29T06:07:25.401Z</time></trkpt><trkpt lat="43.9812413" lon="12.5008271"><ele>118.33333333333334</ele><time>2026-03-29T06:07:28.397Z</time></trkpt><trkpt lat="43.9811662" lon="12.5008722"><ele>120.0</ele><time>2026-03-29T06:07:31.406Z</time></trkpt><trkpt lat="43.9811122" lon="12.5009191"><ele>121.66666666666666</ele><time>2026-03-29T06:07:33.396Z</time></trkpt><trkpt lat="43.9810545" lon="12.5009735"><ele>123.33333333333333</ele><time>2026-03-29T06:07:35.399Z</time></trkpt><trkpt lat="43.9809791" lon="12.5010373"><ele>125.0</ele><time>2026-03-29T06:07:38.404Z</time></trkpt><trkpt lat="43.9809044" lon="12.5010988"><ele>125.0</ele><time>2026-03-29T06:07:41.363Z</time></trkpt><trkpt lat="43.9808526" lon="12.5011551"><ele>125.0</ele><time>2026-03-29T06:07:43.378Z</time></trkpt><trkpt lat="43.9808036" lon="12.5012176"><ele>125.0</ele><time>2026-03-29T06:07:45.399Z</time></trkpt><trkpt lat="43.9807496" lon="12.5012722"><ele>125.0</ele><time>2026-03-29T06:07:47.407Z</time></trkpt><trkpt lat="43.9806812" lon="12.5013616"><ele>125.0</ele><time>2026-03-29T06:07:50.409Z</time></trkpt><trkpt lat="43.9806295" lon="12.5014184"><ele>125.0</ele><time>2026-03-29T06:07:52.411Z</time></trkpt><trkpt lat="43.9805742" lon="12.5014685"><ele>125.0</ele><time>2026-03-29T06:07:54.42Z</time></trkpt><trkpt lat="43.9805207" lon="12.5015212"><ele>126.66666666666666</ele><time>2026-03-29T06:07:57.415Z</time></trkpt><trkpt lat="43.9804474" lon="12.5015299"><ele>128.33333333333331</ele><time>2026-03-29T06:08:45.408Z</time></trkpt><trkpt lat="43.9803795" lon="12.5015631"><ele>130.0</ele><time>2026-03-29T06:08:53.413Z</time></trkpt><trkpt lat="43.9803058" lon="12.5015362"><ele>131.66666666666666</ele><time>2026-03-29T06:08:56.401Z</time></trkpt><trkpt lat="43.9802066" lon="12.5015085"><ele>133.33333333333334</ele><time>2026-03-29T06:08:58.416Z</time></trkpt><trkpt lat="43.9801442" lon="12.5014835"><ele>135.0</ele><time>2026-03-29T06:08:59.405Z</time></trkpt><trkpt lat="43.9800748" lon="12.5014625"><ele>134.6</ele><time>2026-03-29T06:09:00.426Z</time></trkpt><trkpt lat="43.9799959" lon="12.5014366"><ele>134.2</ele><time>2026-03-29T06:09:01.381Z</time></trkpt><trkpt lat="43.9799143" lon="12.5014196"><ele>133.8</ele><time>2026-03-29T06:09:02.407Z</time></trkpt><trkpt lat="43.979819" lon="12.5014106"><ele>133.4</ele><time>2026-03-29T06:09:03.411Z</time></trkpt><trkpt lat="43.9797223" lon="12.5014144"><ele>133.0</ele><time>2026-03-29T06:09:04.355Z</time></trkpt><trkpt lat="43.9796174" lon="12.5014265"><ele>133.0</ele><time>2026-03-29T06:09:05.414Z</time></trkpt><trkpt lat="43.9795069" lon="12.5014555"><ele>133.0</ele><time>2026-03-29T06:09:06.403Z</time></trkpt><trkpt lat="43.9793968" lon="12.5014886"><ele>133.0</ele><time>2026-03-29T06:09:07.416Z</time></trkpt><trkpt lat="43.9792861" lon="12.5015316"><ele>133.0</ele><time>2026-03-29T06:09:08.416Z</time></trkpt><trkpt lat="43.9791698" lon="12.5015657"><ele>130.25</ele><time>2026-03-29T06:09:09.38Z</time></trkpt><trkpt lat="43.9790529" lon="12.5015927"><ele>127.5</ele><time>2026-03-29T06:09:10.415Z</time></trkpt><trkpt lat="43.9789361" lon="12.5016225"><ele>124.75</ele><time>2026-03-29T06:09:11.423Z</time></trkpt><trkpt lat="43.9788189" lon="12.5016436"><ele>122.0</ele><time>2026-03-29T06:09:12.405Z</time></trkpt><trkpt lat="43.9787038" lon="12.5016624"><ele>122.0</ele><time>2026-03-29T06:09:13.403Z</time></trkpt><trkpt lat="43.9785819" lon="12.5016777"><ele>122.0</ele><time>2026-03-29T06:09:14.408Z</time></trkpt><trkpt lat="43.978465" lon="12.501696"><ele>122.0</ele><time>2026-03-29T06:09:15.408Z</time></trkpt><trkpt lat="43.97834" lon="12.501713"><ele>122.0</ele><time>2026-03-29T06:09:16.423Z</time></trkpt><trkpt lat="43.9782205" lon="12.501738"><ele>119.0</ele><time>2026-03-29T06:09:17.423Z</time></trkpt><trkpt lat="43.9780965" lon="12.5017656"><ele>116.0</ele><time>2026-03-29T06:09:18.415Z</time></trkpt><trkpt lat="43.9779792" lon="12.501797"><ele>113.0</ele><time>2026-03-29T06:09:19.406Z</time></trkpt><trkpt lat="43.9778622" lon="12.5018205"><ele>110.0</ele><time>2026-03-29T06:09:20.414Z</time></trkpt><trkpt lat="43.9777471" lon="12.5018454"><ele>110.0</ele><time>2026-03-29T06:09:21.418Z</time></trkpt><trkpt lat="43.9776284" lon="12.5018655"><ele>110.0</ele><time>2026-03-29T06:09:22.418Z</time></trkpt><trkpt lat="43.9775185" lon="12.5018862"><ele>110.0</ele><time>2026-03-29T06:09:23.371Z</time></trkpt><trkpt lat="43.977412" lon="12.5019107"><ele>110.0</ele><time>2026-03-29T06:09:24.41Z</time></trkpt><trkpt lat="43.9773149" lon="12.5019465"><ele>110.0</ele><time>2026-03-29T06:09:25.415Z</time></trkpt><trkpt lat="43.97722" lon="12.5019885"><ele>109.49999999999999</ele><time>2026-03-29T06:09:26.346Z</time></trkpt><trkpt lat="43.9771451" lon="12.5020392"><ele>109.0</ele><time>2026-03-29T06:09:27.437Z</time></trkpt><trkpt lat="43.9770825" lon="12.5021032"><ele>108.5</ele><time>2026-03-29T06:09:28.413Z</time></trkpt><trkpt lat="43.9770226" lon="12.5021775"><ele>108.0</ele><time>2026-03-29T06:09:29.414Z</time></trkpt><trkpt lat="43.9769643" lon="12.502252"><ele>107.49999999999999</ele><time>2026-03-29T06:09:30.414Z</time></trkpt><trkpt lat="43.9769088" lon="12.5023222"><ele>107.0</ele><time>2026-03-29T06:09:31.392Z</time></trkpt><trkpt lat="43.9768541" lon="12.5023856"><ele>107.0</ele><time>2026-03-29T06:09:32.396Z</time></trkpt><trkpt lat="43.9768072" lon="12.5024452"><ele>106.99999999999999</ele><time>2026-03-29T06:09:33.426Z</time></trkpt><trkpt lat="43.9767176" lon="12.5025567"><ele>106.99999999999999</ele><time>2026-03-29T06:09:35.421Z</time></trkpt><trkpt lat="43.9766346" lon="12.5026383"><ele>107.0</ele><time>2026-03-29T06:09:37.429Z</time></trkpt><trkpt lat="43.9765637" lon="12.502724"><ele>107.0</ele><time>2026-03-29T06:09:39.425Z</time></trkpt><trkpt lat="43.9764928" lon="12.5028028"><ele>107.42857142857143</ele><time>2026-03-29T06:09:41.42Z</time></trkpt><trkpt lat="43.97642" lon="12.502872"><ele>107.85714285714286</ele><time>2026-03-29T06:09:43.408Z</time></trkpt><trkpt lat="43.9763568" lon="12.5029233"><ele>108.28571428571428</ele><time>2026-03-29T06:09:45.399Z</time></trkpt><trkpt lat="43.9762872" lon="12.5029661"><ele>108.71428571428572</ele><time>2026-03-29T06:09:47.404Z</time></trkpt><trkpt lat="43.9762211" lon="12.5029881"><ele>109.14285714285714</ele><time>2026-03-29T06:09:49.414Z</time></trkpt><trkpt lat="43.9761526" lon="12.5030052"><ele>109.57142857142857</ele><time>2026-03-29T06:09:51.406Z</time></trkpt><trkpt lat="43.976083" lon="12.5030063"><ele>110.0</ele><time>2026-03-29T06:09:53.425Z</time></trkpt><trkpt lat="43.9760169" lon="12.5029951"><ele>110.14285714285714</ele><time>2026-03-29T06:09:55.419Z</time></trkpt><trkpt lat="43.9759517" lon="12.5029757"><ele>110.28571428571428</ele><time>2026-03-29T06:09:57.417Z</time></trkpt><trkpt lat="43.9758854" lon="12.5029663"><ele>110.42857142857142</ele><time>2026-03-29T06:09:59.406Z</time></trkpt><trkpt lat="43.9758215" lon="12.5029561"><ele>110.57142857142857</ele><time>2026-03-29T06:10:01.428Z</time></trkpt><trkpt lat="43.9757579" lon="12.5029468"><ele>110.71428571428572</ele><time>2026-03-29T06:10:03.41Z</time></trkpt><trkpt lat="43.9756943" lon="12.5029356"><ele>110.85714285714285</ele><time>2026-03-29T06:10:05.432Z</time></trkpt><trkpt lat="43.9756285" lon="12.5029312"><ele>111.0</ele><time>2026-03-29T06:10:07.416Z</time></trkpt><trkpt lat="43.9755618" lon="12.5029171"><ele>111.0</ele><time>2026-03-29T06:10:09.422Z</time></trkpt><trkpt lat="43.9754944" lon="12.5029088"><ele>111.0</ele><time>2026-03-29T06:10:11.422Z</time></trkpt><trkpt lat="43.97543" lon="12.5028982"><ele>111.0</ele><time>2026-03-29T06:10:13.41Z</time></trkpt><trkpt lat="43.9753664" lon="12.5028882"><ele>111.0</ele><time>2026-03-29T06:10:15.427Z</time></trkpt><trkpt lat="43.9752997" lon="12.5028819"><ele>111.0</ele><time>2026-03-29T06:10:17.43Z</time></trkpt><trkpt lat="43.9752352" lon="12.5028766"><ele>111.0</ele><time>2026-03-29T06:10:19.414Z</time></trkpt><trkpt lat="43.9751688" lon="12.5028687"><ele>111.0</ele><time>2026-03-29T06:10:21.414Z</time></trkpt><trkpt lat="43.975101" lon="12.5028575"><ele>111.0</ele><time>2026-03-29T06:10:23.397Z</time></trkpt><trkpt lat="43.9750354" lon="12.502854"><ele>111.0</ele><time>2026-03-29T06:10:25.4Z</time></trkpt><trkpt lat="43.9749716" lon="12.5028513"><ele>111.0</ele><time>2026-03-29T06:10:27.41Z</time></trkpt><trkpt lat="43.9749088" lon="12.5028408"><ele>111.0</ele><time>2026-03-29T06:10:29.4Z</time></trkpt><trkpt lat="43.974826" lon="12.5028269"><ele>111.0</ele><time>2026-03-29T06:10:32.41Z</time></trkpt><trkpt lat="43.9747387" lon="12.5028176"><ele>111.0</ele><time>2026-03-29T06:10:35.411Z</time></trkpt><trkpt lat="43.9746698" lon="12.5028169"><ele>111.0</ele><time>2026-03-29T06:10:37.398Z</time></trkpt><trkpt lat="43.9746052" lon="12.5028131"><ele>112.0</ele><time>2026-03-29T06:10:39.416Z</time></trkpt><trkpt lat="43.9745378" lon="12.502809"><ele>113.0</ele><time>2026-03-29T06:10:41.423Z</time></trkpt><trkpt lat="43.9744706" lon="12.5028224"><ele>114.0</ele><time>2026-03-29T06:10:43.418Z</time></trkpt><trkpt lat="43.9744039" lon="12.5028302"><ele>115.0</ele><time>2026-03-29T06:10:45.402Z</time></trkpt><trkpt lat="43.9743364" lon="12.5028178"><ele>116.0</ele><time>2026-03-29T06:10:47.403Z</time></trkpt><trkpt lat="43.9742703" lon="12.5027994"><ele>117.0</ele><time>2026-03-29T06:10:49.413Z</time></trkpt><trkpt lat="43.9742079" lon="12.5027872"><ele>118.0</ele><time>2026-03-29T06:10:51.416Z</time></trkpt><trkpt lat="43.9741196" lon="12.5027858"><ele>119.16666666666667</ele><time>2026-03-29T06:10:54.409Z</time></trkpt><trkpt lat="43.9740391" lon="12.5028438"><ele>120.33333333333334</ele><time>2026-03-29T06:10:57.399Z</time></trkpt><trkpt lat="43.974012" lon="12.5029323"><ele>121.5</ele><time>2026-03-29T06:10:59.394Z</time></trkpt><trkpt lat="43.9740015" lon="12.5030203"><ele>122.66666666666666</ele><time>2026-03-29T06:11:01.407Z</time></trkpt><trkpt lat="43.9739969" lon="12.5031164"><ele>123.83333333333333</ele><time>2026-03-29T06:11:03.392Z</time></trkpt><trkpt lat="43.9739849" lon="12.503215"><ele>125.0</ele><time>2026-03-29T06:11:05.415Z</time></trkpt><trkpt lat="43.9739434" lon="12.5033337"><ele>125.99999999999999</ele><time>2026-03-29T06:11:08.415Z</time></trkpt><trkpt lat="43.9738933" lon="12.5034436"><ele>127.0</ele><time>2026-03-29T06:11:11.432Z</time></trkpt><trkpt lat="43.9738514" lon="12.5035585"><ele>128.0</ele><time>2026-03-29T06:11:14.403Z</time></trkpt><trkpt lat="43.9738447" lon="12.5036498"><ele>129.0</ele><time>2026-03-29T06:11:16.432Z</time></trkpt><trkpt lat="43.973851" lon="12.5037751"><ele>130.0</ele><time>2026-03-29T06:11:19.413Z</time></trkpt><trkpt lat="43.9738901" lon="12.50389"><ele>131.0</ele><time>2026-03-29T06:11:22.409Z</time></trkpt><trkpt lat="43.9739224" lon="12.5039797"><ele>131.71428571428572</ele><time>2026-03-29T06:11:24.427Z</time></trkpt><trkpt lat="43.9739664" lon="12.5040548"><ele>132.42857142857144</ele><time>2026-03-29T06:11:26.352Z</time></trkpt><trkpt lat="43.9740072" lon="12.5041335"><ele>133.14285714285714</ele><time>2026-03-29T06:11:28.426Z</time></trkpt><trkpt lat="43.9740536" lon="12.5042112"><ele>133.85714285714286</ele><time>2026-03-29T06:11:30.427Z</time></trkpt><trkpt lat="43.9740937" lon="12.5042898"><ele>134.57142857142856</ele><time>2026-03-29T06:11:32.408Z</time></trkpt><trkpt lat="43.9741271" lon="12.5043687"><ele>135.28571428571428</ele><time>2026-03-29T06:11:34.406Z</time></trkpt><trkpt lat="43.9741585" lon="12.5044472"><ele>136.0</ele><time>2026-03-29T06:11:36.422Z</time></trkpt><trkpt lat="43.9741864" lon="12.5045314"><ele>135.5</ele><time>2026-03-29T06:11:38.431Z</time></trkpt><trkpt lat="43.9742082" lon="12.5046183"><ele>135.0</ele><time>2026-03-29T06:11:40.422Z</time></trkpt><trkpt lat="43.9742148" lon="12.5047367"><ele>134.5</ele><time>2026-03-29T06:11:43.391Z</time></trkpt><trkpt lat="43.9742156" lon="12.5048659"><ele>134.0</ele><time>2026-03-29T06:11:46.385Z</time></trkpt><trkpt lat="43.9741991" lon="12.5049921"><ele>133.5</ele><time>2026-03-29T06:11:49.394Z</time></trkpt><trkpt lat="43.9741675" lon="12.5051063"><ele>133.0</ele><time>2026-03-29T06:11:52.445Z</time></trkpt><trkpt lat="43.9741297" lon="12.5052238"><ele>134.16666666666669</ele><time>2026-03-29T06:11:55.409Z</time></trkpt><trkpt lat="43.9740926" lon="12.5053104"><ele>135.33333333333334</ele><time>2026-03-29T06:11:57.414Z</time></trkpt><trkpt lat="43.974067" lon="12.5054"><ele>136.5</ele><time>2026-03-29T06:11:59.424Z</time></trkpt><trkpt lat="43.9740353" lon="12.5055072"><ele>137.66666666666666</ele><time>2026-03-29T06:12:01.429Z</time></trkpt><trkpt lat="43.9740031" lon="12.5056066"><ele>138.83333333333331</ele><time>2026-03-29T06:12:03.434Z</time></trkpt><trkpt lat="43.9739642" lon="12.5057171"><ele>140.0</ele><time>2026-03-29T06:12:05.409Z</time></trkpt><trkpt lat="43.9739411" lon="12.5058356"><ele>140.2</ele><time>2026-03-29T06:12:07.419Z</time></trkpt><trkpt lat="43.9739323" lon="12.5059634"><ele>140.4</ele><time>2026-03-29T06:12:09.415Z</time></trkpt><trkpt lat="43.9739451" lon="12.5060921"><ele>140.6</ele><time>2026-03-29T06:12:11.421Z</time></trkpt><trkpt lat="43.9739718" lon="12.5062113"><ele>140.8</ele><time>2026-03-29T06:12:13.408Z</time></trkpt><trkpt lat="43.9740241" lon="12.5063281"><ele>141.0</ele><time>2026-03-29T06:12:15.404Z</time></trkpt><trkpt lat="43.9740761" lon="12.5064377"><ele>141.8</ele><time>2026-03-29T06:12:17.423Z</time></trkpt><trkpt lat="43.9741334" lon="12.5065511"><ele>142.6</ele><time>2026-03-29T06:12:19.413Z</time></trkpt><trkpt lat="43.9741843" lon="12.5066574"><ele>143.4</ele><time>2026-03-29T06:12:21.393Z</time></trkpt><trkpt lat="43.9742466" lon="12.5067634"><ele>144.2</ele><time>2026-03-29T06:12:23.41Z</time></trkpt><trkpt lat="43.9743058" lon="12.5068649"><ele>145.0</ele><time>2026-03-29T06:12:25.382Z</time></trkpt><trkpt lat="43.9743581" lon="12.5069744"><ele>142.25</ele><time>2026-03-29T06:12:27.381Z</time></trkpt><trkpt lat="43.9744072" lon="12.5071182"><ele>139.5</ele><time>2026-03-29T06:12:29.418Z</time></trkpt><trkpt lat="43.9744344" lon="12.5072625"><ele>136.75</ele><time>2026-03-29T06:12:31.42Z</time></trkpt><trkpt lat="43.9744542" lon="12.5074182"><ele>134.0</ele><time>2026-03-29T06:12:33.424Z</time></trkpt><trkpt lat="43.9744372" lon="12.5075773"><ele>134.0</ele><time>2026-03-29T06:12:35.401Z</time></trkpt><trkpt lat="43.974427" lon="12.5076653"><ele>134.0</ele><time>2026-03-29T06:12:36.374Z</time></trkpt><trkpt lat="43.9744051" lon="12.5077481"><ele>134.0</ele><time>2026-03-29T06:12:37.407Z</time></trkpt><trkpt lat="43.9743843" lon="12.5078387"><ele>134.0</ele><time>2026-03-29T06:12:38.399Z</time></trkpt><trkpt lat="43.9743631" lon="12.5079284"><ele>134.0</ele><time>2026-03-29T06:12:39.422Z</time></trkpt><trkpt lat="43.9743306" lon="12.5080096"><ele>134.0</ele><time>2026-03-29T06:12:40.371Z</time></trkpt><trkpt lat="43.974294" lon="12.5080812"><ele>134.0</ele><time>2026-03-29T06:12:41.42Z</time></trkpt><trkpt lat="43.9742548" lon="12.5081507"><ele>135.6</ele><time>2026-03-29T06:12:42.427Z</time></trkpt><trkpt lat="43.9741751" lon="12.5082719"><ele>137.2</ele><time>2026-03-29T06:12:44.411Z</time></trkpt><trkpt lat="43.9740899" lon="12.5083782"><ele>138.79999999999998</ele><time>2026-03-29T06:12:46.432Z</time></trkpt><trkpt lat="43.9740078" lon="12.5084711"><ele>140.4</ele><time>2026-03-29T06:12:48.418Z</time></trkpt><trkpt lat="43.9739347" lon="12.5085436"><ele>142.0</ele><time>2026-03-29T06:12:50.379Z</time></trkpt><trkpt lat="43.9738843" lon="12.5086021"><ele>142.0</ele><time>2026-03-29T06:12:52.428Z</time></trkpt><trkpt lat="43.973818" lon="12.5086868"><ele>142.0</ele><time>2026-03-29T06:12:55.421Z</time></trkpt><trkpt lat="43.9737585" lon="12.5087556"><ele>142.0</ele><time>2026-03-29T06:12:58.432Z</time></trkpt><trkpt lat="43.9737014" lon="12.5088281"><ele>142.0</ele><time>2026-03-29T06:13:01.403Z</time></trkpt><trkpt lat="43.9736394" lon="12.5088977"><ele>142.0</ele><time>2026-03-29T06:13:04.379Z</time></trkpt><trkpt lat="43.9735792" lon="12.508968"><ele>142.0</ele><time>2026-03-29T06:13:07.415Z</time></trkpt><trkpt lat="43.973523" lon="12.5090539"><ele>142.28571428571428</ele><time>2026-03-29T06:13:10.412Z</time></trkpt><trkpt lat="43.9734696" lon="12.5091297"><ele>142.57142857142856</ele><time>2026-03-29T06:13:13.412Z</time></trkpt><trkpt lat="43.9734233" lon="12.5092038"><ele>142.85714285714286</ele><time>2026-03-29T06:13:16.414Z</time></trkpt><trkpt lat="43.9733734" lon="12.5092624"><ele>143.14285714285714</ele><time>2026-03-29T06:13:19.409Z</time></trkpt><trkpt lat="43.9733161" lon="12.5093212"><ele>143.42857142857144</ele><time>2026-03-29T06:13:22.421Z</time></trkpt><trkpt lat="43.9732667" lon="12.5093767"><ele>143.71428571428572</ele><time>2026-03-29T06:13:25.415Z</time></trkpt><trkpt lat="43.973202" lon="12.5094427"><ele>144.0</ele><time>2026-03-29T06:13:29.397Z</time></trkpt><trkpt lat="43.973142" lon="12.5095067"><ele>145.2857142857143</ele><time>2026-03-29T06:13:33.363Z</time></trkpt><trkpt lat="43.9730776" lon="12.509573"><ele>146.57142857142858</ele><time>2026-03-29T06:13:37.392Z</time></trkpt><trkpt lat="43.9730136" lon="12.5096397"><ele>147.85714285714286</ele><time>2026-03-29T06:13:41.449Z</time></trkpt><trkpt lat="43.9729597" lon="12.5096973"><ele>149.14285714285717</ele><time>2026-03-29T06:13:44.357Z</time></trkpt><trkpt lat="43.9729006" lon="12.5097674"><ele>150.42857142857144</ele><time>2026-03-29T06:13:48.351Z</time></trkpt><trkpt lat="43.9728447" lon="12.5098265"><ele>151.71428571428572</ele><time>2026-03-29T06:13:51.372Z</time></trkpt><trkpt lat="43.9727904" lon="12.5098884"><ele>153.0</ele><time>2026-03-29T06:13:54.413Z</time></trkpt><trkpt lat="43.9727396" lon="12.5099449"><ele>153.14285714285714</ele><time>2026-03-29T06:13:57.392Z</time></trkpt><trkpt lat="43.9726734" lon="12.5100023"><ele>153.28571428571428</ele><time>2026-03-29T06:14:01.42Z</time></trkpt><trkpt lat="43.9726034" lon="12.5100773"><ele>153.42857142857144</ele><time>2026-03-29T06:14:05.39Z</time></trkpt><trkpt lat="43.9725511" lon="12.5101319"><ele>153.57142857142856</ele><time>2026-03-29T06:14:08.435Z</time></trkpt><trkpt lat="43.9725032" lon="12.5101941"><ele>153.71428571428572</ele><time>2026-03-29T06:14:11.404Z</time></trkpt><trkpt lat="43.9724525" lon="12.5102572"><ele>153.85714285714286</ele><time>2026-03-29T06:14:14.419Z</time></trkpt><trkpt lat="43.9724084" lon="12.5103249"><ele>154.0</ele><time>2026-03-29T06:14:17.414Z</time></trkpt><trkpt lat="43.9723591" lon="12.5103905"><ele>156.16666666666669</ele><time>2026-03-29T06:14:20.403Z</time></trkpt><trkpt lat="43.9722998" lon="12.5104708"><ele>158.33333333333334</ele><time>2026-03-29T06:14:23.373Z</time></trkpt><trkpt lat="43.9722431" lon="12.5105589"><ele>160.5</ele><time>2026-03-29T06:14:26.425Z</time></trkpt><trkpt lat="43.9722027" lon="12.510627"><ele>162.66666666666666</ele><time>2026-03-29T06:14:28.373Z</time></trkpt><trkpt lat="43.9721646" lon="12.5107047"><ele>164.83333333333331</ele><time>2026-03-29T06:14:30.353Z</time></trkpt><trkpt lat="43.9721283" lon="12.5107933"><ele>167.0</ele><time>2026-03-29T06:14:32.407Z</time></trkpt><trkpt lat="43.9721091" lon="12.5108987"><ele>167.0</ele><time>2026-03-29T06:14:34.405Z</time></trkpt><trkpt lat="43.9721015" lon="12.5110066"><ele>167.0</ele><time>2026-03-29T06:14:36.436Z</time></trkpt><trkpt lat="43.9721004" lon="12.511115"><ele>167.0</ele><time>2026-03-29T06:14:38.413Z</time></trkpt><trkpt lat="43.9721013" lon="12.5112095"><ele>167.0</ele><time>2026-03-29T06:14:40.375Z</time></trkpt><trkpt lat="43.9721159" lon="12.511312"><ele>167.0</ele><time>2026-03-29T06:14:42.424Z</time></trkpt><trkpt lat="43.9721223" lon="12.5114204"><ele>167.0</ele><time>2026-03-29T06:14:44.372Z</time></trkpt><trkpt lat="43.9721428" lon="12.5115851"><ele>166.83333333333331</ele><time>2026-03-29T06:14:46.421Z</time></trkpt><trkpt lat="43.9721458" lon="12.5116829"><ele>166.66666666666666</ele><time>2026-03-29T06:14:47.375Z</time></trkpt><trkpt lat="43.9721582" lon="12.5117775"><ele>166.5</ele><time>2026-03-29T06:14:48.407Z</time></trkpt><trkpt lat="43.9721658" lon="12.5119446"><ele>166.33333333333334</ele><time>2026-03-29T06:14:50.418Z</time></trkpt><trkpt lat="43.9721483" lon="12.5120883"><ele>166.16666666666669</ele><time>2026-03-29T06:14:52.404Z</time></trkpt><trkpt lat="43.972136" lon="12.5121914"><ele>166.0</ele><time>2026-03-29T06:14:54.412Z</time></trkpt><trkpt lat="43.9721234" lon="12.5122811"><ele>166.0</ele><time>2026-03-29T06:14:56.409Z</time></trkpt><trkpt lat="43.9721072" lon="12.512391"><ele>166.0</ele><time>2026-03-29T06:14:59.416Z</time></trkpt><trkpt lat="43.9720928" lon="12.5125077"><ele>166.0</ele><time>2026-03-29T06:15:02.424Z</time></trkpt><trkpt lat="43.9720742" lon="12.5126284"><ele>166.0</ele><time>2026-03-29T06:15:05.407Z</time></trkpt><trkpt lat="43.9720529" lon="12.5127341"><ele>166.0</ele><time>2026-03-29T06:15:08.441Z</time></trkpt><trkpt lat="43.9720296" lon="12.5128324"><ele>166.0</ele><time>2026-03-29T06:15:11.391Z</time></trkpt><trkpt lat="43.9720024" lon="12.5129294"><ele>167.16666666666669</ele><time>2026-03-29T06:15:14.414Z</time></trkpt><trkpt lat="43.9719774" lon="12.513024"><ele>168.33333333333334</ele><time>2026-03-29T06:15:17.418Z</time></trkpt><trkpt lat="43.9719518" lon="12.51313"><ele>169.5</ele><time>2026-03-29T06:15:20.401Z</time></trkpt><trkpt lat="43.971923" lon="12.5132393"><ele>170.66666666666666</ele><time>2026-03-29T06:15:23.422Z</time></trkpt><trkpt lat="43.9718947" lon="12.5133393"><ele>171.83333333333331</ele><time>2026-03-29T06:15:26.417Z</time></trkpt><trkpt lat="43.9718449" lon="12.5134289"><ele>173.0</ele><time>2026-03-29T06:15:29.421Z</time></trkpt><trkpt lat="43.9717901" lon="12.5135013"><ele>173.0</ele><time>2026-03-29T06:15:31.438Z</time></trkpt><trkpt lat="43.9717206" lon="12.5135934"><ele>173.0</ele><time>2026-03-29T06:15:33.434Z</time></trkpt><trkpt lat="43.971659" lon="12.5136824"><ele>173.0</ele><time>2026-03-29T06:15:35.386Z</time></trkpt><trkpt lat="43.9715719" lon="12.5137707"><ele>173.0</ele><time>2026-03-29T06:15:37.39Z</time></trkpt><trkpt lat="43.9714816" lon="12.5138571"><ele>173.0</ele><time>2026-03-29T06:15:39.373Z</time></trkpt><trkpt lat="43.9713765" lon="12.5139207"><ele>172.83333333333331</ele><time>2026-03-29T06:15:41.409Z</time></trkpt><trkpt lat="43.9713074" lon="12.513898"><ele>172.66666666666666</ele><time>2026-03-29T06:15:42.393Z</time></trkpt><trkpt lat="43.9712092" lon="12.5138151"><ele>172.5</ele><time>2026-03-29T06:15:44.402Z</time></trkpt><trkpt lat="43.9711279" lon="12.5137576"><ele>172.33333333333334</ele><time>2026-03-29T06:15:46.409Z</time></trkpt><trkpt lat="43.9710622" lon="12.5137076"><ele>172.16666666666669</ele><time>2026-03-29T06:15:48.413Z</time></trkpt><trkpt lat="43.9709989" lon="12.5136654"><ele>172.0</ele><time>2026-03-29T06:15:50.421Z</time></trkpt><trkpt lat="43.9709389" lon="12.5136212"><ele>172.66666666666669</ele><time>2026-03-29T06:15:52.42Z</time></trkpt><trkpt lat="43.9708801" lon="12.5135833"><ele>173.33333333333334</ele><time>2026-03-29T06:15:54.416Z</time></trkpt><trkpt lat="43.9708015" lon="12.5135311"><ele>174.0</ele><time>2026-03-29T06:15:57.375Z</time></trkpt><trkpt lat="43.9707285" lon="12.513476"><ele>174.66666666666666</ele><time>2026-03-29T06:16:00.385Z</time></trkpt><trkpt lat="43.9706574" lon="12.5134305"><ele>175.33333333333331</ele><time>2026-03-29T06:16:03.404Z</time></trkpt><trkpt lat="43.9705813" lon="12.5133804"><ele>176.0</ele><time>2026-03-29T06:16:06.411Z</time></trkpt><trkpt lat="43.9705067" lon="12.5133272"><ele>176.5</ele><time>2026-03-29T06:16:09.421Z</time></trkpt><trkpt lat="43.9704338" lon="12.5132851"><ele>177.0</ele><time>2026-03-29T06:16:12.396Z</time></trkpt><trkpt lat="43.9703546" lon="12.51325"><ele>177.5</ele><time>2026-03-29T06:16:15.427Z</time></trkpt><trkpt lat="43.9702731" lon="12.513223"><ele>178.0</ele><time>2026-03-29T06:16:18.414Z</time></trkpt><trkpt lat="43.9701892" lon="12.513181"><ele>178.5</ele><time>2026-03-29T06:16:21.415Z</time></trkpt><trkpt lat="43.9701131" lon="12.5131386"><ele>179.0</ele><time>2026-03-29T06:16:24.421Z</time></trkpt><trkpt lat="43.9700374" lon="12.5130908"><ele>179.66666666666666</ele><time>2026-03-29T06:16:27.364Z</time></trkpt><trkpt lat="43.9699501" lon="12.5130496"><ele>180.33333333333331</ele><time>2026-03-29T06:16:30.412Z</time></trkpt><trkpt lat="43.9698685" lon="12.5129993"><ele>181.0</ele><time>2026-03-29T06:16:33.382Z</time></trkpt><trkpt lat="43.9697765" lon="12.5129661"><ele>181.66666666666666</ele><time>2026-03-29T06:16:36.423Z</time></trkpt><trkpt lat="43.9696961" lon="12.5129248"><ele>182.33333333333334</ele><time>2026-03-29T06:16:39.423Z</time></trkpt><trkpt lat="43.9696162" lon="12.5128767"><ele>183.0</ele><time>2026-03-29T06:16:42.414Z</time></trkpt><trkpt lat="43.9695276" lon="12.5128376"><ele>184.0</ele><time>2026-03-29T06:16:45.434Z</time></trkpt><trkpt lat="43.9694675" lon="12.5128091"><ele>185.0</ele><time>2026-03-29T06:16:47.409Z</time></trkpt><trkpt lat="43.9693878" lon="12.5127661"><ele>186.0</ele><time>2026-03-29T06:16:50.381Z</time></trkpt><trkpt lat="43.9693285" lon="12.5127314"><ele>187.0</ele><time>2026-03-29T06:16:52.434Z</time></trkpt><trkpt lat="43.9692448" lon="12.5126906"><ele>188.0</ele><time>2026-03-29T06:16:55.371Z</time></trkpt><trkpt lat="43.9691628" lon="12.5126408"><ele>189.0</ele><time>2026-03-29T06:16:58.392Z</time></trkpt><trkpt lat="43.9691018" lon="12.5126136"><ele>189.66666666666666</ele><time>2026-03-29T06:17:00.407Z</time></trkpt><trkpt lat="43.9690382" lon="12.5125917"><ele>190.33333333333331</ele><time>2026-03-29T06:17:02.423Z</time></trkpt><trkpt lat="43.9689779" lon="12.5125594"><ele>191.0</ele><time>2026-03-29T06:17:04.436Z</time></trkpt><trkpt lat="43.9688944" lon="12.5125229"><ele>191.66666666666666</ele><time>2026-03-29T06:17:07.419Z</time></trkpt><trkpt lat="43.9688105" lon="12.5124829"><ele>192.33333333333331</ele><time>2026-03-29T06:17:10.417Z</time></trkpt><trkpt lat="43.9687513" lon="12.5124518"><ele>193.0</ele><time>2026-03-29T06:17:12.423Z</time></trkpt><trkpt lat="43.9686588" lon="12.5124045"><ele>192.99999999999997</ele><time>2026-03-29T06:17:15.408Z</time></trkpt><trkpt lat="43.9685753" lon="12.5123605"><ele>193.0</ele><time>2026-03-29T06:17:18.419Z</time></trkpt><trkpt lat="43.968489" lon="12.5123145"><ele>193.0</ele><time>2026-03-29T06:17:21.408Z</time></trkpt><trkpt lat="43.9683963" lon="12.5122675"><ele>193.0</ele><time>2026-03-29T06:17:24.421Z</time></trkpt><trkpt lat="43.9683367" lon="12.5122392"><ele>192.99999999999997</ele><time>2026-03-29T06:17:26.419Z</time></trkpt><trkpt lat="43.9682492" lon="12.5121946"><ele>193.0</ele><time>2026-03-29T06:17:29.389Z</time></trkpt><trkpt lat="43.9681694" lon="12.5121394"><ele>193.2857142857143</ele><time>2026-03-29T06:17:32.417Z</time></trkpt><trkpt lat="43.9681055" lon="12.5120994"><ele>193.57142857142858</ele><time>2026-03-29T06:17:34.435Z</time></trkpt><trkpt lat="43.968047" lon="12.5120658"><ele>193.85714285714286</ele><time>2026-03-29T06:17:36.413Z</time></trkpt><trkpt lat="43.9679855" lon="12.5120349"><ele>194.14285714285717</ele><time>2026-03-29T06:17:38.419Z</time></trkpt><trkpt lat="43.9679221" lon="12.5120052"><ele>194.42857142857142</ele><time>2026-03-29T06:17:40.415Z</time></trkpt><trkpt lat="43.9678584" lon="12.5119741"><ele>194.71428571428572</ele><time>2026-03-29T06:17:42.421Z</time></trkpt><trkpt lat="43.9677935" lon="12.5119366"><ele>195.0</ele><time>2026-03-29T06:17:44.412Z</time></trkpt><trkpt lat="43.967728" lon="12.5119068"><ele>196.0</ele><time>2026-03-29T06:17:46.381Z</time></trkpt><trkpt lat="43.9676567" lon="12.5118798"><ele>197.0</ele><time>2026-03-29T06:17:48.413Z</time></trkpt><trkpt lat="43.967599" lon="12.5118408"><ele>198.0</ele><time>2026-03-29T06:17:50.424Z</time></trkpt><trkpt lat="43.9675372" lon="12.5118104"><ele>199.0</ele><time>2026-03-29T06:17:52.418Z</time></trkpt><trkpt lat="43.9674766" lon="12.511773"><ele>200.0</ele><time>2026-03-29T06:17:54.419Z</time></trkpt><trkpt lat="43.9673852" lon="12.5117319"><ele>201.0</ele><time>2026-03-29T06:17:57.37Z</time></trkpt><trkpt lat="43.9672961" lon="12.5117018"><ele>201.7142857142857</ele><time>2026-03-29T06:18:00.423Z</time></trkpt><trkpt lat="43.9672069" lon="12.5116708"><ele>202.42857142857144</ele><time>2026-03-29T06:18:03.423Z</time></trkpt><trkpt lat="43.9671452" lon="12.5116503"><ele>203.14285714285714</ele><time>2026-03-29T06:18:05.423Z</time></trkpt><trkpt lat="43.967079" lon="12.5116198"><ele>203.85714285714283</ele><time>2026-03-29T06:18:07.408Z</time></trkpt><trkpt lat="43.96702" lon="12.5115887"><ele>204.57142857142856</ele><time>2026-03-29T06:18:09.44Z</time></trkpt><trkpt lat="43.9669567" lon="12.511567"><ele>205.28571428571428</ele><time>2026-03-29T06:18:11.433Z</time></trkpt><trkpt lat="43.966868" lon="12.5115287"><ele>206.0</ele><time>2026-03-29T06:18:14.425Z</time></trkpt><trkpt lat="43.9667757" lon="12.5114971"><ele>206.42857142857142</ele><time>2026-03-29T06:18:17.408Z</time></trkpt><trkpt lat="43.9666857" lon="12.5114586"><ele>206.85714285714286</ele><time>2026-03-29T06:18:20.432Z</time></trkpt><trkpt lat="43.9666198" lon="12.5114361"><ele>207.28571428571428</ele><time>2026-03-29T06:18:22.421Z</time></trkpt><trkpt lat="43.9665514" lon="12.5114124"><ele>207.71428571428572</ele><time>2026-03-29T06:18:24.406Z</time></trkpt><trkpt lat="43.9664853" lon="12.5113883"><ele>208.14285714285714</ele><time>2026-03-29T06:18:26.454Z</time></trkpt><trkpt lat="43.9664213" lon="12.5113584"><ele>208.57142857142856</ele><time>2026-03-29T06:18:28.402Z</time></trkpt><trkpt lat="43.9663584" lon="12.511334"><ele>209.0</ele><time>2026-03-29T06:18:30.415Z</time></trkpt><trkpt lat="43.9662935" lon="12.5113113"><ele>209.0</ele><time>2026-03-29T06:18:32.388Z</time></trkpt><trkpt lat="43.966232" lon="12.5112843"><ele>209.0</ele><time>2026-03-29T06:18:34.412Z</time></trkpt><trkpt lat="43.966167" lon="12.5112562"><ele>209.0</ele><time>2026-03-29T06:18:36.44Z</time></trkpt><trkpt lat="43.9661044" lon="12.5112384"><ele>209.0</ele><time>2026-03-29T06:18:38.42Z</time></trkpt><trkpt lat="43.9660357" lon="12.5112121"><ele>209.0</ele><time>2026-03-29T06:18:40.367Z</time></trkpt><trkpt lat="43.9659634" lon="12.5111822"><ele>209.0</ele><time>2026-03-29T06:18:42.414Z</time></trkpt><trkpt lat="43.9658925" lon="12.5111598"><ele>209.0</ele><time>2026-03-29T06:18:44.394Z</time></trkpt><trkpt lat="43.965826" lon="12.511134"><ele>209.85714285714286</ele><time>2026-03-29T06:18:46.419Z</time></trkpt><trkpt lat="43.9657607" lon="12.5111079"><ele>210.71428571428572</ele><time>2026-03-29T06:18:48.421Z</time></trkpt><trkpt lat="43.9656896" lon="12.5110833"><ele>211.57142857142856</ele><time>2026-03-29T06:18:50.434Z</time></trkpt><trkpt lat="43.9656204" lon="12.5110585"><ele>212.42857142857144</ele><time>2026-03-29T06:18:52.414Z</time></trkpt><trkpt lat="43.9655517" lon="12.5110316"><ele>213.2857142857143</ele><time>2026-03-29T06:18:54.43Z</time></trkpt><trkpt lat="43.9654633" lon="12.5109963"><ele>214.14285714285714</ele><time>2026-03-29T06:18:57.407Z</time></trkpt><trkpt lat="43.9654003" lon="12.5109682"><ele>215.0</ele><time>2026-03-29T06:18:59.415Z</time></trkpt><trkpt lat="43.9653357" lon="12.5109421"><ele>215.0</ele><time>2026-03-29T06:19:01.408Z</time></trkpt><trkpt lat="43.9652689" lon="12.510909"><ele>215.0</ele><time>2026-03-29T06:19:03.405Z</time></trkpt><trkpt lat="43.9652078" lon="12.5108846"><ele>215.0</ele><time>2026-03-29T06:19:05.426Z</time></trkpt><trkpt lat="43.9651462" lon="12.5108591"><ele>215.0</ele><time>2026-03-29T06:19:07.446Z</time></trkpt><trkpt lat="43.9650805" lon="12.510835"><ele>215.0</ele><time>2026-03-29T06:19:09.408Z</time></trkpt><trkpt lat="43.9650189" lon="12.5107997"><ele>215.0</ele><time>2026-03-29T06:19:11.434Z</time></trkpt><trkpt lat="43.964952" lon="12.5107677"><ele>215.0</ele><time>2026-03-29T06:19:13.401Z</time></trkpt><trkpt lat="43.9648838" lon="12.5107353"><ele>215.7142857142857</ele><time>2026-03-29T06:19:15.445Z</time></trkpt><trkpt lat="43.9648202" lon="12.5107099"><ele>216.42857142857144</ele><time>2026-03-29T06:19:17.441Z</time></trkpt><trkpt lat="43.9647573" lon="12.5106852"><ele>217.14285714285714</ele><time>2026-03-29T06:19:19.421Z</time></trkpt><trkpt lat="43.964692" lon="12.5106614"><ele>217.85714285714283</ele><time>2026-03-29T06:19:21.425Z</time></trkpt><trkpt lat="43.9646281" lon="12.510636"><ele>218.57142857142856</ele><time>2026-03-29T06:19:23.372Z</time></trkpt><trkpt lat="43.964544" lon="12.5106038"><ele>219.28571428571428</ele><time>2026-03-29T06:19:26.428Z</time></trkpt><trkpt lat="43.9644649" lon="12.5105739"><ele>220.0</ele><time>2026-03-29T06:19:29.374Z</time></trkpt><trkpt lat="43.9643823" lon="12.5105457"><ele>219.99999999999997</ele><time>2026-03-29T06:19:32.42Z</time></trkpt><trkpt lat="43.9642957" lon="12.5105036"><ele>220.0</ele><time>2026-03-29T06:19:35.423Z</time></trkpt><trkpt lat="43.9642308" lon="12.5104748"><ele>220.0</ele><time>2026-03-29T06:19:37.434Z</time></trkpt><trkpt lat="43.9641659" lon="12.510452"><ele>220.0</ele><time>2026-03-29T06:19:39.385Z</time></trkpt><trkpt lat="43.9640995" lon="12.5104271"><ele>220.0</ele><time>2026-03-29T06:19:41.458Z</time></trkpt><trkpt lat="43.9640347" lon="12.5104038"><ele>219.99999999999997</ele><time>2026-03-29T06:19:43.428Z</time></trkpt><trkpt lat="43.9639653" lon="12.51038"><ele>220.0</ele><time>2026-03-29T06:19:45.445Z</time></trkpt><trkpt lat="43.9639012" lon="12.51036"><ele>221.0</ele><time>2026-03-29T06:19:47.41Z</time></trkpt><trkpt lat="43.9638335" lon="12.5103401"><ele>222.0</ele><time>2026-03-29T06:19:49.387Z</time></trkpt><trkpt lat="43.9637694" lon="12.5103146"><ele>223.0</ele><time>2026-03-29T06:19:51.382Z</time></trkpt><trkpt lat="43.9637004" lon="12.5102891"><ele>224.0</ele><time>2026-03-29T06:19:53.431Z</time></trkpt><trkpt lat="43.9636338" lon="12.5102678"><ele>225.00000000000003</ele><time>2026-03-29T06:19:55.396Z</time></trkpt><trkpt lat="43.9635618" lon="12.5102382"><ele>226.0</ele><time>2026-03-29T06:19:57.443Z</time></trkpt><trkpt lat="43.963498" lon="12.5102104"><ele>227.0</ele><time>2026-03-29T06:19:59.421Z</time></trkpt><trkpt lat="43.9634263" lon="12.5101916"><ele>227.2857142857143</ele><time>2026-03-29T06:20:01.431Z</time></trkpt><trkpt lat="43.96336" lon="12.5101691"><ele>227.5714285714286</ele><time>2026-03-29T06:20:03.383Z</time></trkpt><trkpt lat="43.9632992" lon="12.5101375"><ele>227.85714285714286</ele><time>2026-03-29T06:20:05.393Z</time></trkpt><trkpt lat="43.9632327" lon="12.5101119"><ele>228.14285714285717</ele><time>2026-03-29T06:20:07.454Z</time></trkpt><trkpt lat="43.9631613" lon="12.5100848"><ele>228.42857142857144</ele><time>2026-03-29T06:20:09.432Z</time></trkpt><trkpt lat="43.9630904" lon="12.5100566"><ele>228.71428571428572</ele><time>2026-03-29T06:20:11.406Z</time></trkpt><trkpt lat="43.9630245" lon="12.5100314"><ele>229.0</ele><time>2026-03-29T06:20:13.416Z</time></trkpt><trkpt lat="43.9629579" lon="12.510027"><ele>228.99999999999997</ele><time>2026-03-29T06:20:15.412Z</time></trkpt><trkpt lat="43.9628939" lon="12.5100276"><ele>229.0</ele><time>2026-03-29T06:20:17.409Z</time></trkpt><trkpt lat="43.9628215" lon="12.5100411"><ele>229.0</ele><time>2026-03-29T06:20:19.44Z</time></trkpt><trkpt lat="43.9627549" lon="12.5100969"><ele>229.0</ele><time>2026-03-29T06:20:21.376Z</time></trkpt><trkpt lat="43.9626664" lon="12.5101456"><ele>228.99999999999997</ele><time>2026-03-29T06:20:23.404Z</time></trkpt><trkpt lat="43.9625845" lon="12.5102151"><ele>229.0</ele><time>2026-03-29T06:20:25.417Z</time></trkpt><trkpt lat="43.9625015" lon="12.5102841"><ele>229.6</ele><time>2026-03-29T06:20:27.413Z</time></trkpt><trkpt lat="43.9624075" lon="12.5103575"><ele>230.2</ele><time>2026-03-29T06:20:29.405Z</time></trkpt><trkpt lat="43.9623154" lon="12.5104298"><ele>230.79999999999998</ele><time>2026-03-29T06:20:31.424Z</time></trkpt><trkpt lat="43.9622283" lon="12.5105133"><ele>231.39999999999998</ele><time>2026-03-29T06:20:33.427Z</time></trkpt><trkpt lat="43.9621354" lon="12.5105941"><ele>232.0</ele><time>2026-03-29T06:20:35.406Z</time></trkpt><trkpt lat="43.9620449" lon="12.5106729"><ele>231.83333333333331</ele><time>2026-03-29T06:20:37.432Z</time></trkpt><trkpt lat="43.9619443" lon="12.510763"><ele>231.66666666666666</ele><time>2026-03-29T06:20:39.415Z</time></trkpt><trkpt lat="43.961892" lon="12.5108123"><ele>231.5</ele><time>2026-03-29T06:20:40.428Z</time></trkpt><trkpt lat="43.9618409" lon="12.5108694"><ele>231.33333333333331</ele><time>2026-03-29T06:20:41.414Z</time></trkpt><trkpt lat="43.9617473" lon="12.5109826"><ele>231.16666666666666</ele><time>2026-03-29T06:20:43.397Z</time></trkpt><trkpt lat="43.9616926" lon="12.5110314"><ele>231.0</ele><time>2026-03-29T06:20:44.434Z</time></trkpt><trkpt lat="43.9615864" lon="12.5111265"><ele>229.33333333333334</ele><time>2026-03-29T06:20:46.409Z</time></trkpt><trkpt lat="43.9614833" lon="12.5112429"><ele>227.66666666666669</ele><time>2026-03-29T06:20:48.436Z</time></trkpt><trkpt lat="43.9614239" lon="12.5112947"><ele>226.0</ele><time>2026-03-29T06:20:49.421Z</time></trkpt><trkpt lat="43.9613652" lon="12.5113515"><ele>224.33333333333334</ele><time>2026-03-29T06:20:50.423Z</time></trkpt><trkpt lat="43.9613053" lon="12.5114143"><ele>222.66666666666669</ele><time>2026-03-29T06:20:51.418Z</time></trkpt><trkpt lat="43.9612431" lon="12.5114754"><ele>221.0</ele><time>2026-03-29T06:20:52.417Z</time></trkpt><trkpt lat="43.9611887" lon="12.5115358"><ele>221.00000000000003</ele><time>2026-03-29T06:20:53.399Z</time></trkpt><trkpt lat="43.9611328" lon="12.5116032"><ele>221.0</ele><time>2026-03-29T06:20:54.409Z</time></trkpt><trkpt lat="43.9610731" lon="12.5116659"><ele>221.0</ele><time>2026-03-29T06:20:55.389Z</time></trkpt><trkpt lat="43.9610103" lon="12.5117234"><ele>221.0</ele><time>2026-03-29T06:20:56.412Z</time></trkpt><trkpt lat="43.9609501" lon="12.5117849"><ele>221.0</ele><time>2026-03-29T06:20:57.438Z</time></trkpt><trkpt lat="43.9608938" lon="12.5118508"><ele>221.00000000000003</ele><time>2026-03-29T06:20:58.437Z</time></trkpt><trkpt lat="43.9608329" lon="12.511912"><ele>221.0</ele><time>2026-03-29T06:20:59.418Z</time></trkpt><trkpt lat="43.9607703" lon="12.5119711"><ele>221.42857142857144</ele><time>2026-03-29T06:21:00.41Z</time></trkpt><trkpt lat="43.9607162" lon="12.5120381"><ele>221.85714285714286</ele><time>2026-03-29T06:21:01.422Z</time></trkpt><trkpt lat="43.9606648" lon="12.5121046"><ele>222.28571428571428</ele><time>2026-03-29T06:21:02.362Z</time></trkpt><trkpt lat="43.9606208" lon="12.5121814"><ele>222.71428571428572</ele><time>2026-03-29T06:21:03.418Z</time></trkpt><trkpt lat="43.9605865" lon="12.5122604"><ele>223.14285714285714</ele><time>2026-03-29T06:21:04.441Z</time></trkpt><trkpt lat="43.9605546" lon="12.5123441"><ele>223.57142857142858</ele><time>2026-03-29T06:21:05.409Z</time></trkpt><trkpt lat="43.9605209" lon="12.5124317"><ele>224.0</ele><time>2026-03-29T06:21:06.418Z</time></trkpt><trkpt lat="43.9604887" lon="12.5125586"><ele>224.00000000000003</ele><time>2026-03-29T06:21:08.4Z</time></trkpt><trkpt lat="43.9605598" lon="12.5124953"><ele>224.0</ele><time>2026-03-29T06:21:12.377Z</time></trkpt><trkpt lat="43.9606061" lon="12.5123793"><ele>224.0</ele><time>2026-03-29T06:21:15.409Z</time></trkpt><trkpt lat="43.9606474" lon="12.5122835"><ele>224.0</ele><time>2026-03-29T06:21:18.424Z</time></trkpt><trkpt lat="43.9606733" lon="12.5122001"><ele>224.00000000000003</ele><time>2026-03-29T06:21:22.41Z</time></trkpt><trkpt lat="43.96061" lon="12.5122089"><ele>224.0</ele><time>2026-03-29T06:21:33.451Z</time></trkpt><trkpt lat="43.9605724" lon="12.5122993"><ele>224.0</ele><time>2026-03-29T06:22:03.418Z</time></trkpt><trkpt lat="43.9605275" lon="12.5124125"><ele>223.99999999999997</ele><time>2026-03-29T06:22:05.418Z</time></trkpt><trkpt lat="43.9604883" lon="12.5125327"><ele>223.99999999999997</ele><time>2026-03-29T06:22:07.414Z</time></trkpt><trkpt lat="43.9604449" lon="12.5126631"><ele>224.0</ele><time>2026-03-29T06:22:09.415Z</time></trkpt><trkpt lat="43.9603855" lon="12.5127956"><ele>224.0</ele><time>2026-03-29T06:22:11.405Z</time></trkpt><trkpt lat="43.9603315" lon="12.5129492"><ele>223.39999999999998</ele><time>2026-03-29T06:22:13.424Z</time></trkpt><trkpt lat="43.9603038" lon="12.5130301"><ele>222.79999999999998</ele><time>2026-03-29T06:22:14.411Z</time></trkpt><trkpt lat="43.9602736" lon="12.5131093"><ele>222.20000000000002</ele><time>2026-03-29T06:22:15.405Z</time></trkpt><trkpt lat="43.9602207" lon="12.5132598"><ele>221.60000000000002</ele><time>2026-03-29T06:22:17.397Z</time></trkpt><trkpt lat="43.9601693" lon="12.5134261"><ele>221.0</ele><time>2026-03-29T06:22:19.399Z</time></trkpt><trkpt lat="43.9601102" lon="12.5135899"><ele>221.00000000000003</ele><time>2026-03-29T06:22:21.411Z</time></trkpt><trkpt lat="43.960082" lon="12.5136764"><ele>221.0</ele><time>2026-03-29T06:22:22.415Z</time></trkpt><trkpt lat="43.9600304" lon="12.513855"><ele>221.0</ele><time>2026-03-29T06:22:24.43Z</time></trkpt><trkpt lat="43.9600066" lon="12.5139444"><ele>221.0</ele><time>2026-03-29T06:22:25.409Z</time></trkpt><trkpt lat="43.9599751" lon="12.5140333"><ele>221.00000000000003</ele><time>2026-03-29T06:22:26.391Z</time></trkpt><trkpt lat="43.9599586" lon="12.5141232"><ele>221.0</ele><time>2026-03-29T06:22:27.407Z</time></trkpt><trkpt lat="43.9599447" lon="12.5142153"><ele>221.16666666666669</ele><time>2026-03-29T06:22:28.431Z</time></trkpt><trkpt lat="43.959931" lon="12.5143078"><ele>221.33333333333334</ele><time>2026-03-29T06:22:29.427Z</time></trkpt><trkpt lat="43.9599217" lon="12.5144099"><ele>221.5</ele><time>2026-03-29T06:22:30.425Z</time></trkpt><trkpt lat="43.9599178" lon="12.514514"><ele>221.66666666666669</ele><time>2026-03-29T06:22:31.423Z</time></trkpt><trkpt lat="43.9599132" lon="12.5146226"><ele>221.83333333333334</ele><time>2026-03-29T06:22:32.4Z</time></trkpt><trkpt lat="43.9599097" lon="12.5147385"><ele>222.0</ele><time>2026-03-29T06:22:33.384Z</time></trkpt><trkpt lat="43.9599014" lon="12.5148574"><ele>222.0</ele><time>2026-03-29T06:22:34.418Z</time></trkpt><trkpt lat="43.9598942" lon="12.5149663"><ele>222.0</ele><time>2026-03-29T06:22:35.427Z</time></trkpt><trkpt lat="43.959881" lon="12.5150776"><ele>222.0</ele><time>2026-03-29T06:22:36.427Z</time></trkpt><trkpt lat="43.9598655" lon="12.5152001"><ele>222.0</ele><time>2026-03-29T06:22:37.429Z</time></trkpt><trkpt lat="43.9598494" lon="12.5153148"><ele>222.0</ele><time>2026-03-29T06:22:38.428Z</time></trkpt><trkpt lat="43.9598318" lon="12.5154311"><ele>222.0</ele><time>2026-03-29T06:22:39.431Z</time></trkpt><trkpt lat="43.9598089" lon="12.5155494"><ele>221.5</ele><time>2026-03-29T06:22:40.42Z</time></trkpt><trkpt lat="43.9597875" lon="12.5156629"><ele>221.0</ele><time>2026-03-29T06:22:41.42Z</time></trkpt><trkpt lat="43.9597676" lon="12.5157773"><ele>220.5</ele><time>2026-03-29T06:22:42.443Z</time></trkpt><trkpt lat="43.9597442" lon="12.5158832"><ele>220.0</ele><time>2026-03-29T06:22:43.438Z</time></trkpt><trkpt lat="43.9597211" lon="12.5159903"><ele>219.5</ele><time>2026-03-29T06:22:44.432Z</time></trkpt><trkpt lat="43.9596976" lon="12.5160951"><ele>219.0</ele><time>2026-03-29T06:22:45.425Z</time></trkpt><trkpt lat="43.9596743" lon="12.5162001"><ele>218.57142857142858</ele><time>2026-03-29T06:22:46.456Z</time></trkpt><trkpt lat="43.9596551" lon="12.5162998"><ele>218.14285714285714</ele><time>2026-03-29T06:22:47.381Z</time></trkpt><trkpt lat="43.9596303" lon="12.5163969"><ele>217.71428571428572</ele><time>2026-03-29T06:22:48.411Z</time></trkpt><trkpt lat="43.9596052" lon="12.5164909"><ele>217.28571428571428</ele><time>2026-03-29T06:22:49.426Z</time></trkpt><trkpt lat="43.9595806" lon="12.5165841"><ele>216.85714285714283</ele><time>2026-03-29T06:22:50.44Z</time></trkpt><trkpt lat="43.9595567" lon="12.5166787"><ele>216.42857142857142</ele><time>2026-03-29T06:22:51.427Z</time></trkpt><trkpt lat="43.9595322" lon="12.5167642"><ele>216.0</ele><time>2026-03-29T06:22:52.425Z</time></trkpt><trkpt lat="43.9595126" lon="12.5168557"><ele>216.0</ele><time>2026-03-29T06:22:53.425Z</time></trkpt><trkpt lat="43.9594941" lon="12.5169548"><ele>216.0</ele><time>2026-03-29T06:22:54.447Z</time></trkpt><trkpt lat="43.9594713" lon="12.5170541"><ele>216.0</ele><time>2026-03-29T06:22:55.429Z</time></trkpt><trkpt lat="43.9594487" lon="12.5171465"><ele>216.0</ele><time>2026-03-29T06:22:56.43Z</time></trkpt><trkpt lat="43.9594244" lon="12.5172486"><ele>216.0</ele><time>2026-03-29T06:22:57.425Z</time></trkpt><trkpt lat="43.9594044" lon="12.5173491"><ele>216.0</ele><time>2026-03-29T06:22:58.423Z</time></trkpt><trkpt lat="43.9593835" lon="12.5174532"><ele>216.0</ele><time>2026-03-29T06:22:59.372Z</time></trkpt><trkpt lat="43.959363" lon="12.5175474"><ele>216.66666666666666</ele><time>2026-03-29T06:23:00.429Z</time></trkpt><trkpt lat="43.9593441" lon="12.5176351"><ele>217.33333333333331</ele><time>2026-03-29T06:23:01.456Z</time></trkpt><trkpt lat="43.9593128" lon="12.5178255"><ele>218.0</ele><time>2026-03-29T06:23:03.393Z</time></trkpt><trkpt lat="43.9592894" lon="12.5179229"><ele>218.66666666666666</ele><time>2026-03-29T06:23:04.418Z</time></trkpt><trkpt lat="43.9592509" lon="12.5180149"><ele>219.33333333333331</ele><time>2026-03-29T06:23:05.413Z</time></trkpt><trkpt lat="43.9592155" lon="12.5181015"><ele>220.0</ele><time>2026-03-29T06:23:06.431Z</time></trkpt><trkpt lat="43.9591825" lon="12.5181812"><ele>219.99999999999997</ele><time>2026-03-29T06:23:07.423Z</time></trkpt><trkpt lat="43.9591442" lon="12.5182723"><ele>220.0</ele><time>2026-03-29T06:23:08.402Z</time></trkpt><trkpt lat="43.9590965" lon="12.5183559"><ele>220.0</ele><time>2026-03-29T06:23:09.419Z</time></trkpt><trkpt lat="43.9590417" lon="12.5184335"><ele>220.0</ele><time>2026-03-29T06:23:10.416Z</time></trkpt><trkpt lat="43.9589843" lon="12.5185135"><ele>219.99999999999997</ele><time>2026-03-29T06:23:11.415Z</time></trkpt><trkpt lat="43.9589391" lon="12.5185979"><ele>220.0</ele><time>2026-03-29T06:23:12.393Z</time></trkpt><trkpt lat="43.9588823" lon="12.5186761"><ele>218.83333333333331</ele><time>2026-03-29T06:23:13.39Z</time></trkpt><trkpt lat="43.958821" lon="12.5187552"><ele>217.66666666666666</ele><time>2026-03-29T06:23:14.388Z</time></trkpt><trkpt lat="43.9587592" lon="12.5188344"><ele>216.5</ele><time>2026-03-29T06:23:15.416Z</time></trkpt><trkpt lat="43.9587032" lon="12.5189165"><ele>215.33333333333331</ele><time>2026-03-29T06:23:16.427Z</time></trkpt><trkpt lat="43.9586472" lon="12.5189986"><ele>214.16666666666666</ele><time>2026-03-29T06:23:17.434Z</time></trkpt><trkpt lat="43.9585943" lon="12.5190872"><ele>213.0</ele><time>2026-03-29T06:23:18.391Z</time></trkpt><trkpt lat="43.9585339" lon="12.5191674"><ele>213.0</ele><time>2026-03-29T06:23:19.41Z</time></trkpt><trkpt lat="43.9584772" lon="12.5192441"><ele>213.0</ele><time>2026-03-29T06:23:20.433Z</time></trkpt><trkpt lat="43.9584178" lon="12.5193262"><ele>213.0</ele><time>2026-03-29T06:23:21.398Z</time></trkpt><trkpt lat="43.9583657" lon="12.5194149"><ele>213.0</ele><time>2026-03-29T06:23:22.416Z</time></trkpt><trkpt lat="43.9583127" lon="12.5195061"><ele>213.0</ele><time>2026-03-29T06:23:23.418Z</time></trkpt><trkpt lat="43.9582594" lon="12.519592"><ele>213.0</ele><time>2026-03-29T06:23:24.426Z</time></trkpt><trkpt lat="43.9582011" lon="12.5196752"><ele>213.0</ele><time>2026-03-29T06:23:25.406Z</time></trkpt><trkpt lat="43.9581379" lon="12.5197561"><ele>213.0</ele><time>2026-03-29T06:23:26.42Z</time></trkpt><trkpt lat="43.9580821" lon="12.5198509"><ele>213.0</ele><time>2026-03-29T06:23:27.401Z</time></trkpt><trkpt lat="43.9580263" lon="12.5199441"><ele>213.0</ele><time>2026-03-29T06:23:28.415Z</time></trkpt><trkpt lat="43.9579722" lon="12.5200306"><ele>213.0</ele><time>2026-03-29T06:23:29.367Z</time></trkpt><trkpt lat="43.9579142" lon="12.5201116"><ele>213.0</ele><time>2026-03-29T06:23:30.413Z</time></trkpt><trkpt lat="43.9578571" lon="12.5201913"><ele>213.0</ele><time>2026-03-29T06:23:31.433Z</time></trkpt><trkpt lat="43.9577985" lon="12.5202744"><ele>213.0</ele><time>2026-03-29T06:23:32.434Z</time></trkpt><trkpt lat="43.9577355" lon="12.5203501"><ele>213.0</ele><time>2026-03-29T06:23:33.404Z</time></trkpt><trkpt lat="43.9576767" lon="12.5204325"><ele>213.0</ele><time>2026-03-29T06:23:34.388Z</time></trkpt><trkpt lat="43.9576127" lon="12.5205166"><ele>213.0</ele><time>2026-03-29T06:23:35.385Z</time></trkpt><trkpt lat="43.9575567" lon="12.5205917"><ele>213.0</ele><time>2026-03-29T06:23:36.402Z</time></trkpt><trkpt lat="43.9574972" lon="12.520669"><ele>213.16666666666666</ele><time>2026-03-29T06:23:37.423Z</time></trkpt><trkpt lat="43.95744" lon="12.5207467"><ele>213.33333333333331</ele><time>2026-03-29T06:23:38.381Z</time></trkpt><trkpt lat="43.9573852" lon="12.5208247"><ele>213.5</ele><time>2026-03-29T06:23:39.442Z</time></trkpt><trkpt lat="43.9573285" lon="12.5209049"><ele>213.66666666666666</ele><time>2026-03-29T06:23:40.426Z</time></trkpt><trkpt lat="43.9572693" lon="12.5209885"><ele>213.83333333333331</ele><time>2026-03-29T06:23:41.411Z</time></trkpt><trkpt lat="43.9572147" lon="12.5210722"><ele>214.0</ele><time>2026-03-29T06:23:42.422Z</time></trkpt><trkpt lat="43.9571604" lon="12.5211653"><ele>213.33333333333331</ele><time>2026-03-29T06:23:43.412Z</time></trkpt><trkpt lat="43.9571066" lon="12.5212478"><ele>212.66666666666666</ele><time>2026-03-29T06:23:44.412Z</time></trkpt><trkpt lat="43.9570523" lon="12.5213326"><ele>212.0</ele><time>2026-03-29T06:23:45.435Z</time></trkpt><trkpt lat="43.956999" lon="12.5214195"><ele>211.33333333333331</ele><time>2026-03-29T06:23:46.428Z</time></trkpt><trkpt lat="43.9569415" lon="12.5214983"><ele>210.66666666666666</ele><time>2026-03-29T06:23:47.426Z</time></trkpt><trkpt lat="43.9568842" lon="12.5215837"><ele>210.0</ele><time>2026-03-29T06:23:48.392Z</time></trkpt><trkpt lat="43.9568201" lon="12.5216671"><ele>210.0</ele><time>2026-03-29T06:23:49.364Z</time></trkpt><trkpt lat="43.9567633" lon="12.5217581"><ele>210.0</ele><time>2026-03-29T06:23:50.451Z</time></trkpt><trkpt lat="43.9567087" lon="12.5218437"><ele>210.0</ele><time>2026-03-29T06:23:51.422Z</time></trkpt><trkpt lat="43.9566521" lon="12.5219313"><ele>210.0</ele><time>2026-03-29T06:23:52.397Z</time></trkpt><trkpt lat="43.9565976" lon="12.5220262"><ele>210.0</ele><time>2026-03-29T06:23:53.429Z</time></trkpt><trkpt lat="43.9565369" lon="12.5221216"><ele>210.0</ele><time>2026-03-29T06:23:54.424Z</time></trkpt><trkpt lat="43.9564814" lon="12.5222105"><ele>210.5</ele><time>2026-03-29T06:23:55.441Z</time></trkpt><trkpt lat="43.9564255" lon="12.522304"><ele>211.0</ele><time>2026-03-29T06:23:56.429Z</time></trkpt><trkpt lat="43.956368" lon="12.5223949"><ele>211.5</ele><time>2026-03-29T06:23:57.428Z</time></trkpt><trkpt lat="43.9563088" lon="12.5224848"><ele>212.0</ele><time>2026-03-29T06:23:58.415Z</time></trkpt><trkpt lat="43.9562581" lon="12.5225787"><ele>212.5</ele><time>2026-03-29T06:23:59.409Z</time></trkpt><trkpt lat="43.9562044" lon="12.5226739"><ele>213.0</ele><time>2026-03-29T06:24:00.418Z</time></trkpt><trkpt lat="43.9561495" lon="12.5227723"><ele>213.0</ele><time>2026-03-29T06:24:01.414Z</time></trkpt><trkpt lat="43.9560929" lon="12.5228591"><ele>213.0</ele><time>2026-03-29T06:24:02.422Z</time></trkpt><trkpt lat="43.9560378" lon="12.5229394"><ele>213.0</ele><time>2026-03-29T06:24:03.385Z</time></trkpt><trkpt lat="43.9559755" lon="12.5230158"><ele>213.0</ele><time>2026-03-29T06:24:04.437Z</time></trkpt><trkpt lat="43.9559151" lon="12.5230871"><ele>213.0</ele><time>2026-03-29T06:24:05.426Z</time></trkpt><trkpt lat="43.9558447" lon="12.5231346"><ele>213.0</ele><time>2026-03-29T06:24:06.398Z</time></trkpt><trkpt lat="43.9557664" lon="12.5231643"><ele>212.0</ele><time>2026-03-29T06:24:07.445Z</time></trkpt><trkpt lat="43.9556885" lon="12.5231828"><ele>211.0</ele><time>2026-03-29T06:24:08.37Z</time></trkpt><trkpt lat="43.9556074" lon="12.5232046"><ele>210.0</ele><time>2026-03-29T06:24:09.414Z</time></trkpt><trkpt lat="43.9555233" lon="12.5232266"><ele>209.0</ele><time>2026-03-29T06:24:10.391Z</time></trkpt><trkpt lat="43.9554448" lon="12.5232458"><ele>208.0</ele><time>2026-03-29T06:24:11.389Z</time></trkpt><trkpt lat="43.9553635" lon="12.5232759"><ele>207.0</ele><time>2026-03-29T06:24:12.415Z</time></trkpt><trkpt lat="43.9552803" lon="12.5232988"><ele>207.0</ele><time>2026-03-29T06:24:13.43Z</time></trkpt><trkpt lat="43.9551974" lon="12.5233198"><ele>207.0</ele><time>2026-03-29T06:24:14.406Z</time></trkpt><trkpt lat="43.9551221" lon="12.5233383"><ele>207.0</ele><time>2026-03-29T06:24:15.423Z</time></trkpt><trkpt lat="43.9550387" lon="12.5233603"><ele>207.0</ele><time>2026-03-29T06:24:16.442Z</time></trkpt><trkpt lat="43.9549531" lon="12.5233976"><ele>207.0</ele><time>2026-03-29T06:24:17.43Z</time></trkpt><trkpt lat="43.9548627" lon="12.5234377"><ele>207.0</ele><time>2026-03-29T06:24:18.417Z</time></trkpt><trkpt lat="43.9547742" lon="12.5234795"><ele>206.39999999999998</ele><time>2026-03-29T06:24:19.425Z</time></trkpt><trkpt lat="43.9546834" lon="12.5235267"><ele>205.79999999999998</ele><time>2026-03-29T06:24:20.442Z</time></trkpt><trkpt lat="43.9545911" lon="12.5235726"><ele>205.2</ele><time>2026-03-29T06:24:21.436Z</time></trkpt><trkpt lat="43.9544988" lon="12.5236233"><ele>204.6</ele><time>2026-03-29T06:24:22.435Z</time></trkpt><trkpt lat="43.9544107" lon="12.5236763"><ele>204.0</ele><time>2026-03-29T06:24:23.435Z</time></trkpt><trkpt lat="43.954322" lon="12.5237385"><ele>202.39999999999998</ele><time>2026-03-29T06:24:24.45Z</time></trkpt><trkpt lat="43.9542358" lon="12.5238012"><ele>200.8</ele><time>2026-03-29T06:24:25.39Z</time></trkpt><trkpt lat="43.9541415" lon="12.5238568"><ele>199.2</ele><time>2026-03-29T06:24:26.427Z</time></trkpt><trkpt lat="43.9540515" lon="12.5239147"><ele>197.60000000000002</ele><time>2026-03-29T06:24:27.422Z</time></trkpt><trkpt lat="43.9539673" lon="12.5239731"><ele>196.0</ele><time>2026-03-29T06:24:28.449Z</time></trkpt><trkpt lat="43.9538768" lon="12.5240328"><ele>196.0</ele><time>2026-03-29T06:24:29.359Z</time></trkpt><trkpt lat="43.9537838" lon="12.5240952"><ele>196.0</ele><time>2026-03-29T06:24:30.44Z</time></trkpt><trkpt lat="43.9536911" lon="12.5241549"><ele>196.0</ele><time>2026-03-29T06:24:31.448Z</time></trkpt><trkpt lat="43.9535931" lon="12.5242258"><ele>196.0</ele><time>2026-03-29T06:24:32.376Z</time></trkpt><trkpt lat="43.953489" lon="12.5243033"><ele>196.0</ele><time>2026-03-29T06:24:33.419Z</time></trkpt><trkpt lat="43.9533878" lon="12.5243722"><ele>194.75</ele><time>2026-03-29T06:24:34.429Z</time></trkpt><trkpt lat="43.9532808" lon="12.5244483"><ele>193.5</ele><time>2026-03-29T06:24:35.403Z</time></trkpt><trkpt lat="43.9531649" lon="12.524525"><ele>192.25</ele><time>2026-03-29T06:24:36.427Z</time></trkpt><trkpt lat="43.9530431" lon="12.5245999"><ele>191.0</ele><time>2026-03-29T06:24:37.43Z</time></trkpt><trkpt lat="43.9529333" lon="12.5246845"><ele>189.75</ele><time>2026-03-29T06:24:38.417Z</time></trkpt><trkpt lat="43.9528401" lon="12.5247937"><ele>188.5</ele><time>2026-03-29T06:24:39.412Z</time></trkpt><trkpt lat="43.9527503" lon="12.5249247"><ele>187.25</ele><time>2026-03-29T06:24:40.436Z</time></trkpt><trkpt lat="43.9526784" lon="12.525072"><ele>186.0</ele><time>2026-03-29T06:24:41.411Z</time></trkpt><trkpt lat="43.9526087" lon="12.5252347"><ele>186.0</ele><time>2026-03-29T06:24:42.449Z</time></trkpt><trkpt lat="43.9525455" lon="12.5253881"><ele>186.0</ele><time>2026-03-29T06:24:43.405Z</time></trkpt><trkpt lat="43.9524771" lon="12.5255529"><ele>186.0</ele><time>2026-03-29T06:24:44.423Z</time></trkpt><trkpt lat="43.9523973" lon="12.5256996"><ele>186.0</ele><time>2026-03-29T06:24:45.44Z</time></trkpt><trkpt lat="43.9523093" lon="12.5258288"><ele>184.25</ele><time>2026-03-29T06:24:46.423Z</time></trkpt><trkpt lat="43.9522084" lon="12.5259352"><ele>182.5</ele><time>2026-03-29T06:24:47.406Z</time></trkpt><trkpt lat="43.9521034" lon="12.526021"><ele>180.75</ele><time>2026-03-29T06:24:48.41Z</time></trkpt><trkpt lat="43.9519938" lon="12.5260991"><ele>179.0</ele><time>2026-03-29T06:24:49.435Z</time></trkpt><trkpt lat="43.9518992" lon="12.526175"><ele>177.79999999999998</ele><time>2026-03-29T06:24:50.437Z</time></trkpt><trkpt lat="43.9517948" lon="12.5262527"><ele>176.6</ele><time>2026-03-29T06:24:51.433Z</time></trkpt><trkpt lat="43.9516984" lon="12.5263184"><ele>175.4</ele><time>2026-03-29T06:24:52.412Z</time></trkpt><trkpt lat="43.9515972" lon="12.526382"><ele>174.2</ele><time>2026-03-29T06:24:53.417Z</time></trkpt><trkpt lat="43.9514931" lon="12.5264393"><ele>173.0</ele><time>2026-03-29T06:24:54.41Z</time></trkpt><trkpt lat="43.9513993" lon="12.5264994"><ele>173.0</ele><time>2026-03-29T06:24:55.422Z</time></trkpt><trkpt lat="43.9513003" lon="12.5265609"><ele>173.0</ele><time>2026-03-29T06:24:56.414Z</time></trkpt><trkpt lat="43.951205" lon="12.5266277"><ele>173.0</ele><time>2026-03-29T06:24:57.421Z</time></trkpt><trkpt lat="43.9511051" lon="12.5266906"><ele>173.0</ele><time>2026-03-29T06:24:58.44Z</time></trkpt><trkpt lat="43.9510014" lon="12.5267558"><ele>173.0</ele><time>2026-03-29T06:24:59.435Z</time></trkpt><trkpt lat="43.9508981" lon="12.5268161"><ele>171.4</ele><time>2026-03-29T06:25:00.415Z</time></trkpt><trkpt lat="43.9508015" lon="12.5268881"><ele>169.8</ele><time>2026-03-29T06:25:01.427Z</time></trkpt><trkpt lat="43.9507095" lon="12.526956"><ele>168.2</ele><time>2026-03-29T06:25:02.42Z</time></trkpt><trkpt lat="43.9506072" lon="12.527029"><ele>166.6</ele><time>2026-03-29T06:25:03.351Z</time></trkpt><trkpt lat="43.9505102" lon="12.5271021"><ele>165.0</ele><time>2026-03-29T06:25:04.412Z</time></trkpt><trkpt lat="43.9504112" lon="12.52718"><ele>164.0</ele><time>2026-03-29T06:25:05.424Z</time></trkpt><trkpt lat="43.9503115" lon="12.527253"><ele>163.0</ele><time>2026-03-29T06:25:06.413Z</time></trkpt><trkpt lat="43.9502031" lon="12.527329"><ele>162.0</ele><time>2026-03-29T06:25:07.417Z</time></trkpt><trkpt lat="43.9500955" lon="12.5274076"><ele>161.0</ele><time>2026-03-29T06:25:08.403Z</time></trkpt><trkpt lat="43.9499887" lon="12.5274873"><ele>160.5</ele><time>2026-03-29T06:25:09.418Z</time></trkpt><trkpt lat="43.9498736" lon="12.5275658"><ele>160.0</ele><time>2026-03-29T06:25:10.419Z</time></trkpt><trkpt lat="43.9497595" lon="12.5276481"><ele>159.5</ele><time>2026-03-29T06:25:11.41Z</time></trkpt><trkpt lat="43.9496484" lon="12.5277284"><ele>159.0</ele><time>2026-03-29T06:25:12.433Z</time></trkpt><trkpt lat="43.9495378" lon="12.5278149"><ele>157.5</ele><time>2026-03-29T06:25:13.423Z</time></trkpt><trkpt lat="43.9494179" lon="12.5278941"><ele>156.0</ele><time>2026-03-29T06:25:14.436Z</time></trkpt><trkpt lat="43.9493032" lon="12.5279751"><ele>154.5</ele><time>2026-03-29T06:25:15.416Z</time></trkpt><trkpt lat="43.9491934" lon="12.5280517"><ele>153.0</ele><time>2026-03-29T06:25:16.401Z</time></trkpt><trkpt lat="43.9490818" lon="12.5281378"><ele>153.0</ele><time>2026-03-29T06:25:17.4Z</time></trkpt><trkpt lat="43.9489835" lon="12.5282202"><ele>153.0</ele><time>2026-03-29T06:25:18.425Z</time></trkpt><trkpt lat="43.9488792" lon="12.5283008"><ele>153.0</ele><time>2026-03-29T06:25:19.414Z</time></trkpt><trkpt lat="43.9487744" lon="12.5283799"><ele>153.0</ele><time>2026-03-29T06:25:20.411Z</time></trkpt><trkpt lat="43.9486773" lon="12.5284501"><ele>153.0</ele><time>2026-03-29T06:25:21.415Z</time></trkpt><trkpt lat="43.9485786" lon="12.5285154"><ele>153.0</ele><time>2026-03-29T06:25:22.428Z</time></trkpt><trkpt lat="43.948475" lon="12.528563"><ele>153.0</ele><time>2026-03-29T06:25:23.418Z</time></trkpt><trkpt lat="43.9483667" lon="12.528603"><ele>153.0</ele><time>2026-03-29T06:25:24.433Z</time></trkpt><trkpt lat="43.9482545" lon="12.5286353"><ele>153.0</ele><time>2026-03-29T06:25:25.42Z</time></trkpt><trkpt lat="43.9481349" lon="12.5286476"><ele>151.75</ele><time>2026-03-29T06:25:26.427Z</time></trkpt><trkpt lat="43.9480174" lon="12.528626"><ele>150.5</ele><time>2026-03-29T06:25:27.43Z</time></trkpt><trkpt lat="43.9479016" lon="12.5285655"><ele>149.25</ele><time>2026-03-29T06:25:28.417Z</time></trkpt><trkpt lat="43.9477847" lon="12.5284795"><ele>148.0</ele><time>2026-03-29T06:25:29.378Z</time></trkpt><trkpt lat="43.9476811" lon="12.5283807"><ele>148.0</ele><time>2026-03-29T06:25:30.397Z</time></trkpt><trkpt lat="43.9475818" lon="12.5282671"><ele>148.0</ele><time>2026-03-29T06:25:31.421Z</time></trkpt><trkpt lat="43.9474915" lon="12.5281383"><ele>148.0</ele><time>2026-03-29T06:25:32.41Z</time></trkpt><trkpt lat="43.947403" lon="12.5280068"><ele>148.0</ele><time>2026-03-29T06:25:33.423Z</time></trkpt><trkpt lat="43.9473214" lon="12.5278784"><ele>145.5</ele><time>2026-03-29T06:25:34.428Z</time></trkpt><trkpt lat="43.9472306" lon="12.5277416"><ele>143.0</ele><time>2026-03-29T06:25:35.424Z</time></trkpt><trkpt lat="43.9471475" lon="12.5275834"><ele>140.5</ele><time>2026-03-29T06:25:36.418Z</time></trkpt><trkpt lat="43.9470879" lon="12.5274217"><ele>138.0</ele><time>2026-03-29T06:25:37.426Z</time></trkpt><trkpt lat="43.9470424" lon="12.5272598"><ele>138.0</ele><time>2026-03-29T06:25:38.426Z</time></trkpt><trkpt lat="43.9470375" lon="12.5270928"><ele>138.0</ele><time>2026-03-29T06:25:39.414Z</time></trkpt><trkpt lat="43.9470531" lon="12.5269263"><ele>138.0</ele><time>2026-03-29T06:25:40.413Z</time></trkpt><trkpt lat="43.9470937" lon="12.526754"><ele>138.0</ele><time>2026-03-29T06:25:41.405Z</time></trkpt><trkpt lat="43.9471667" lon="12.5266167"><ele>136.4</ele><time>2026-03-29T06:25:42.425Z</time></trkpt><trkpt lat="43.9472601" lon="12.5265057"><ele>134.8</ele><time>2026-03-29T06:25:43.443Z</time></trkpt><trkpt lat="43.947337" lon="12.5264145"><ele>133.2</ele><time>2026-03-29T06:25:44.421Z</time></trkpt><trkpt lat="43.9473842" lon="12.5263434"><ele>131.6</ele><time>2026-03-29T06:25:45.431Z</time></trkpt><trkpt lat="43.9473077" lon="12.5261912"><ele>130.0</ele><time>2026-03-29T06:25:47.415Z</time></trkpt><trkpt lat="43.947228" lon="12.526157"><ele>126.6</ele><time>2026-03-29T06:25:48.428Z</time></trkpt><trkpt lat="43.9471305" lon="12.5261455"><ele>123.2</ele><time>2026-03-29T06:25:49.429Z</time></trkpt><trkpt lat="43.947032" lon="12.5261407"><ele>119.80000000000001</ele><time>2026-03-29T06:25:50.391Z</time></trkpt><trkpt lat="43.946923" lon="12.526125"><ele>116.4</ele><time>2026-03-29T06:25:51.418Z</time></trkpt><trkpt lat="43.9468067" lon="12.5261129"><ele>113.0</ele><time>2026-03-29T06:25:52.411Z</time></trkpt><trkpt lat="43.9466824" lon="12.5260889"><ele>110.5</ele><time>2026-03-29T06:25:53.414Z</time></trkpt><trkpt lat="43.9465487" lon="12.5260712"><ele>108.0</ele><time>2026-03-29T06:25:54.412Z</time></trkpt><trkpt lat="43.9464147" lon="12.5260741"><ele>105.5</ele><time>2026-03-29T06:25:55.401Z</time></trkpt><trkpt lat="43.9462688" lon="12.526093"><ele>103.0</ele><time>2026-03-29T06:25:56.421Z</time></trkpt><trkpt lat="43.9461264" lon="12.5261304"><ele>103.0</ele><time>2026-03-29T06:25:57.4Z</time></trkpt><trkpt lat="43.9459919" lon="12.5261817"><ele>103.0</ele><time>2026-03-29T06:25:58.419Z</time></trkpt><trkpt lat="43.9458694" lon="12.5262411"><ele>103.0</ele><time>2026-03-29T06:25:59.432Z</time></trkpt><trkpt lat="43.9457524" lon="12.5262984"><ele>103.0</ele><time>2026-03-29T06:26:00.42Z</time></trkpt><trkpt lat="43.9456443" lon="12.5263515"><ele>102.16666666666667</ele><time>2026-03-29T06:26:01.415Z</time></trkpt><trkpt lat="43.9455594" lon="12.5264026"><ele>101.33333333333334</ele><time>2026-03-29T06:26:02.434Z</time></trkpt><trkpt lat="43.9454817" lon="12.5264229"><ele>100.5</ele><time>2026-03-29T06:26:03.436Z</time></trkpt><trkpt lat="43.9454049" lon="12.5264039"><ele>99.66666666666666</ele><time>2026-03-29T06:26:04.434Z</time></trkpt><trkpt lat="43.9453387" lon="12.5263521"><ele>98.83333333333333</ele><time>2026-03-29T06:26:05.414Z</time></trkpt><trkpt lat="43.9452794" lon="12.5262892"><ele>98.0</ele><time>2026-03-29T06:26:06.423Z</time></trkpt><trkpt lat="43.9452353" lon="12.5262261"><ele>98.0</ele><time>2026-03-29T06:26:07.424Z</time></trkpt><trkpt lat="43.9451478" lon="12.526115"><ele>98.0</ele><time>2026-03-29T06:26:09.422Z</time></trkpt><trkpt lat="43.9450921" lon="12.5260723"><ele>98.0</ele><time>2026-03-29T06:26:10.439Z</time></trkpt><trkpt lat="43.944988" lon="12.5260609"><ele>98.0</ele><time>2026-03-29T06:26:12.419Z</time></trkpt><trkpt lat="43.944866" lon="12.5260937"><ele>98.0</ele><time>2026-03-29T06:26:14.427Z</time></trkpt><trkpt lat="43.9447585" lon="12.5260711"><ele>97.66666666666666</ele><time>2026-03-29T06:26:16.4Z</time></trkpt><trkpt lat="43.944637" lon="12.5260221"><ele>97.33333333333333</ele><time>2026-03-29T06:26:18.442Z</time></trkpt><trkpt lat="43.9445708" lon="12.5260453"><ele>97.0</ele><time>2026-03-29T06:26:19.369Z</time></trkpt><trkpt lat="43.9444927" lon="12.5260868"><ele>96.66666666666666</ele><time>2026-03-29T06:26:20.415Z</time></trkpt><trkpt lat="43.9444289" lon="12.5261406"><ele>96.33333333333333</ele><time>2026-03-29T06:26:21.379Z</time></trkpt><trkpt lat="43.9443701" lon="12.5261923"><ele>96.0</ele><time>2026-03-29T06:26:22.367Z</time></trkpt><trkpt lat="43.9443125" lon="12.5262445"><ele>95.66666666666667</ele><time>2026-03-29T06:26:23.423Z</time></trkpt><trkpt lat="43.9442596" lon="12.5262925"><ele>95.33333333333333</ele><time>2026-03-29T06:26:24.432Z</time></trkpt><trkpt lat="43.9441601" lon="12.5263615"><ele>95.0</ele><time>2026-03-29T06:26:26.423Z</time></trkpt><trkpt lat="43.9440739" lon="12.5264359"><ele>94.66666666666666</ele><time>2026-03-29T06:26:28.423Z</time></trkpt><trkpt lat="43.9439997" lon="12.5264969"><ele>94.33333333333333</ele><time>2026-03-29T06:26:30.436Z</time></trkpt><trkpt lat="43.9439393" lon="12.5265726"><ele>94.0</ele><time>2026-03-29T06:26:32.427Z</time></trkpt><trkpt lat="43.9438843" lon="12.5266507"><ele>94.0</ele><time>2026-03-29T06:26:34.424Z</time></trkpt><trkpt lat="43.9438335" lon="12.5267404"><ele>94.0</ele><time>2026-03-29T06:26:36.431Z</time></trkpt><trkpt lat="43.9437925" lon="12.5268098"><ele>94.0</ele><time>2026-03-29T06:26:38.437Z</time></trkpt><trkpt lat="43.9437231" lon="12.526886"><ele>94.0</ele><time>2026-03-29T06:26:41.382Z</time></trkpt><trkpt lat="43.9436445" lon="12.5269377"><ele>94.0</ele><time>2026-03-29T06:26:44.432Z</time></trkpt><trkpt lat="43.943558" lon="12.5269733"><ele>94.0</ele><time>2026-03-29T06:26:47.429Z</time></trkpt><trkpt lat="43.9434778" lon="12.5269917"><ele>94.0</ele><time>2026-03-29T06:26:50.417Z</time></trkpt><trkpt lat="43.9433938" lon="12.5270184"><ele>94.0</ele><time>2026-03-29T06:26:53.417Z</time></trkpt><trkpt lat="43.9433119" lon="12.5270344"><ele>94.0</ele><time>2026-03-29T06:26:56.428Z</time></trkpt><trkpt lat="43.9432293" lon="12.5270611"><ele>94.0</ele><time>2026-03-29T06:26:59.437Z</time></trkpt><trkpt lat="43.9431528" lon="12.5270854"><ele>94.0</ele><time>2026-03-29T06:27:02.424Z</time></trkpt><trkpt lat="43.9430734" lon="12.527108"><ele>94.0</ele><time>2026-03-29T06:27:05.407Z</time></trkpt><trkpt lat="43.9429899" lon="12.527136"><ele>94.66666666666666</ele><time>2026-03-29T06:27:08.415Z</time></trkpt><trkpt lat="43.9429046" lon="12.5271624"><ele>95.33333333333333</ele><time>2026-03-29T06:27:11.437Z</time></trkpt><trkpt lat="43.9428291" lon="12.527187"><ele>96.0</ele><time>2026-03-29T06:27:14.427Z</time></trkpt><trkpt lat="43.9427484" lon="12.5272099"><ele>96.66666666666666</ele><time>2026-03-29T06:27:17.418Z</time></trkpt><trkpt lat="43.9426655" lon="12.5272273"><ele>97.33333333333333</ele><time>2026-03-29T06:27:20.404Z</time></trkpt><trkpt lat="43.9425935" lon="12.5272473"><ele>98.0</ele><time>2026-03-29T06:27:23.407Z</time></trkpt><trkpt lat="43.9425134" lon="12.5272742"><ele>99.66666666666666</ele><time>2026-03-29T06:27:26.428Z</time></trkpt><trkpt lat="43.9424339" lon="12.5272953"><ele>101.33333333333333</ele><time>2026-03-29T06:27:29.41Z</time></trkpt><trkpt lat="43.9423546" lon="12.527317"><ele>103.0</ele><time>2026-03-29T06:27:32.395Z</time></trkpt><trkpt lat="43.9422754" lon="12.5273486"><ele>104.66666666666666</ele><time>2026-03-29T06:27:35.416Z</time></trkpt><trkpt lat="43.9421976" lon="12.5273811"><ele>106.33333333333333</ele><time>2026-03-29T06:27:39.41Z</time></trkpt><trkpt lat="43.9421212" lon="12.5274238"><ele>108.0</ele><time>2026-03-29T06:27:43.408Z</time></trkpt><trkpt lat="43.94206" lon="12.5274626"><ele>108.0</ele><time>2026-03-29T06:27:47.395Z</time></trkpt><trkpt lat="43.9420049" lon="12.5275147"><ele>108.0</ele><time>2026-03-29T06:27:52.417Z</time></trkpt><trkpt lat="43.9419464" lon="12.5275717"><ele>108.0</ele><time>2026-03-29T06:27:56.432Z</time></trkpt><trkpt lat="43.9418935" lon="12.5276214"><ele>108.0</ele><time>2026-03-29T06:28:01.413Z</time></trkpt><trkpt lat="43.9418302" lon="12.5276677"><ele>108.0</ele><time>2026-03-29T06:28:06.406Z</time></trkpt><trkpt lat="43.9417669" lon="12.5276636"><ele>108.0</ele><time>2026-03-29T06:28:11.407Z</time></trkpt><trkpt lat="43.9417079" lon="12.5276061"><ele>108.0</ele><time>2026-03-29T06:28:16.417Z</time></trkpt><trkpt lat="43.9416741" lon="12.5275205"><ele>110.14285714285714</ele><time>2026-03-29T06:28:21.417Z</time></trkpt><trkpt lat="43.9416306" lon="12.5274391"><ele>112.28571428571428</ele><time>2026-03-29T06:28:26.428Z</time></trkpt><trkpt lat="43.9415929" lon="12.527367"><ele>114.42857142857144</ele><time>2026-03-29T06:28:30.433Z</time></trkpt><trkpt lat="43.9415439" lon="12.5272961"><ele>116.57142857142858</ele><time>2026-03-29T06:28:35.409Z</time></trkpt><trkpt lat="43.9414902" lon="12.5272498"><ele>118.71428571428572</ele><time>2026-03-29T06:28:39.432Z</time></trkpt><trkpt lat="43.9414217" lon="12.5272792"><ele>120.85714285714288</ele><time>2026-03-29T06:28:42.435Z</time></trkpt><trkpt lat="43.9413489" lon="12.527327"><ele>123.00000000000001</ele><time>2026-03-29T06:28:45.426Z</time></trkpt><trkpt lat="43.9412793" lon="12.5273868"><ele>123.00000000000001</ele><time>2026-03-29T06:28:48.43Z</time></trkpt><trkpt lat="43.9412139" lon="12.5274434"><ele>123.0</ele><time>2026-03-29T06:28:51.418Z</time></trkpt><trkpt lat="43.9411583" lon="12.5274992"><ele>123.00000000000001</ele><time>2026-03-29T06:28:53.432Z</time></trkpt><trkpt lat="43.9410983" lon="12.5275554"><ele>123.00000000000001</ele><time>2026-03-29T06:28:55.409Z</time></trkpt><trkpt lat="43.9410402" lon="12.5276071"><ele>123.0</ele><time>2026-03-29T06:28:57.412Z</time></trkpt><trkpt lat="43.9409607" lon="12.527668"><ele>123.00000000000001</ele><time>2026-03-29T06:29:00.392Z</time></trkpt><trkpt lat="43.9409024" lon="12.5277162"><ele>123.00000000000001</ele><time>2026-03-29T06:29:02.429Z</time></trkpt><trkpt lat="43.9408306" lon="12.5277465"><ele>123.57142857142858</ele><time>2026-03-29T06:29:04.421Z</time></trkpt><trkpt lat="43.9407668" lon="12.5277757"><ele>124.14285714285714</ele><time>2026-03-29T06:29:06.425Z</time></trkpt><trkpt lat="43.9406965" lon="12.5277845"><ele>124.71428571428572</ele><time>2026-03-29T06:29:08.371Z</time></trkpt><trkpt lat="43.9406273" lon="12.5277843"><ele>125.28571428571429</ele><time>2026-03-29T06:29:10.438Z</time></trkpt><trkpt lat="43.940561" lon="12.5277705"><ele>125.85714285714286</ele><time>2026-03-29T06:29:12.377Z</time></trkpt><trkpt lat="43.9404937" lon="12.5277614"><ele>126.42857142857143</ele><time>2026-03-29T06:29:14.423Z</time></trkpt><trkpt lat="43.9404277" lon="12.5277462"><ele>127.0</ele><time>2026-03-29T06:29:16.417Z</time></trkpt><trkpt lat="43.9403359" lon="12.527732"><ele>127.00000000000001</ele><time>2026-03-29T06:29:19.396Z</time></trkpt><trkpt lat="43.9402707" lon="12.5277289"><ele>127.0</ele><time>2026-03-29T06:29:21.398Z</time></trkpt><trkpt lat="43.9401809" lon="12.5277298"><ele>127.0</ele><time>2026-03-29T06:29:24.413Z</time></trkpt><trkpt lat="43.9400925" lon="12.5277399"><ele>127.0</ele><time>2026-03-29T06:29:27.431Z</time></trkpt><trkpt lat="43.9400073" lon="12.527771"><ele>127.00000000000001</ele><time>2026-03-29T06:29:30.39Z</time></trkpt><trkpt lat="43.9399195" lon="12.5278114"><ele>127.0</ele><time>2026-03-29T06:29:33.426Z</time></trkpt><trkpt lat="43.9398362" lon="12.5278473"><ele>127.83333333333334</ele><time>2026-03-29T06:29:36.421Z</time></trkpt><trkpt lat="43.9397528" lon="12.52789"><ele>128.66666666666669</ele><time>2026-03-29T06:29:39.411Z</time></trkpt><trkpt lat="43.9396752" lon="12.5279159"><ele>129.5</ele><time>2026-03-29T06:29:42.435Z</time></trkpt><trkpt lat="43.9395987" lon="12.5279556"><ele>130.33333333333334</ele><time>2026-03-29T06:29:45.429Z</time></trkpt><trkpt lat="43.9395268" lon="12.5279941"><ele>131.16666666666666</ele><time>2026-03-29T06:29:48.423Z</time></trkpt><trkpt lat="43.9394456" lon="12.528041"><ele>132.0</ele><time>2026-03-29T06:29:51.416Z</time></trkpt><trkpt lat="43.9393659" lon="12.5280879"><ele>132.0</ele><time>2026-03-29T06:29:54.438Z</time></trkpt><trkpt lat="43.9392872" lon="12.5281286"><ele>132.0</ele><time>2026-03-29T06:29:57.409Z</time></trkpt><trkpt lat="43.9392087" lon="12.5281793"><ele>132.0</ele><time>2026-03-29T06:30:00.437Z</time></trkpt><trkpt lat="43.9391348" lon="12.5282406"><ele>132.0</ele><time>2026-03-29T06:30:03.416Z</time></trkpt><trkpt lat="43.9390671" lon="12.5282778"><ele>132.0</ele><time>2026-03-29T06:30:06.404Z</time></trkpt><trkpt lat="43.9389983" lon="12.5283335"><ele>132.0</ele><time>2026-03-29T06:30:09.419Z</time></trkpt><trkpt lat="43.9389387" lon="12.5283743"><ele>133.14285714285714</ele><time>2026-03-29T06:30:12.374Z</time></trkpt><trkpt lat="43.9388786" lon="12.528429"><ele>134.28571428571428</ele><time>2026-03-29T06:30:16.412Z</time></trkpt><trkpt lat="43.938817" lon="12.5284571"><ele>135.42857142857144</ele><time>2026-03-29T06:30:19.421Z</time></trkpt><trkpt lat="43.9387479" lon="12.5285039"><ele>136.57142857142856</ele><time>2026-03-29T06:30:22.405Z</time></trkpt><trkpt lat="43.9386752" lon="12.5285465"><ele>137.71428571428572</ele><time>2026-03-29T06:30:25.429Z</time></trkpt><trkpt lat="43.9386121" lon="12.5285878"><ele>138.85714285714286</ele><time>2026-03-29T06:30:28.358Z</time></trkpt><trkpt lat="43.9385416" lon="12.5286344"><ele>140.0</ele><time>2026-03-29T06:30:31.406Z</time></trkpt><trkpt lat="43.9384786" lon="12.5286916"><ele>139.85714285714286</ele><time>2026-03-29T06:30:34.434Z</time></trkpt><trkpt lat="43.938419" lon="12.528755"><ele>139.71428571428572</ele><time>2026-03-29T06:30:37.419Z</time></trkpt><trkpt lat="43.9383618" lon="12.5288208"><ele>139.57142857142856</ele><time>2026-03-29T06:30:40.431Z</time></trkpt><trkpt lat="43.9383061" lon="12.5288912"><ele>139.42857142857144</ele><time>2026-03-29T06:30:43.405Z</time></trkpt><trkpt lat="43.9382447" lon="12.5289446"><ele>139.28571428571428</ele><time>2026-03-29T06:30:46.428Z</time></trkpt><trkpt lat="43.9381887" lon="12.5290032"><ele>139.14285714285714</ele><time>2026-03-29T06:30:49.395Z</time></trkpt><trkpt lat="43.9381199" lon="12.5290555"><ele>139.0</ele><time>2026-03-29T06:30:52.464Z</time></trkpt><trkpt lat="43.9380546" lon="12.529114"><ele>140.16666666666669</ele><time>2026-03-29T06:30:55.419Z</time></trkpt><trkpt lat="43.9379877" lon="12.5291731"><ele>141.33333333333334</ele><time>2026-03-29T06:30:58.413Z</time></trkpt><trkpt lat="43.9379195" lon="12.5292366"><ele>142.5</ele><time>2026-03-29T06:31:01.406Z</time></trkpt><trkpt lat="43.9378526" lon="12.5293203"><ele>143.66666666666666</ele><time>2026-03-29T06:31:04.418Z</time></trkpt><trkpt lat="43.937781" lon="12.5294153"><ele>144.83333333333331</ele><time>2026-03-29T06:31:07.41Z</time></trkpt><trkpt lat="43.9377304" lon="12.529482"><ele>146.0</ele><time>2026-03-29T06:31:09.419Z</time></trkpt><trkpt lat="43.9376864" lon="12.5295461"><ele>146.0</ele><time>2026-03-29T06:31:11.432Z</time></trkpt><trkpt lat="43.9376428" lon="12.5296183"><ele>146.0</ele><time>2026-03-29T06:31:13.414Z</time></trkpt><trkpt lat="43.937583" lon="12.5296999"><ele>146.0</ele><time>2026-03-29T06:31:16.446Z</time></trkpt><trkpt lat="43.9375177" lon="12.5297744"><ele>146.0</ele><time>2026-03-29T06:31:19.363Z</time></trkpt><trkpt lat="43.9374543" lon="12.5298634"><ele>146.0</ele><time>2026-03-29T06:31:22.405Z</time></trkpt><trkpt lat="43.9373925" lon="12.5299384"><ele>146.0</ele><time>2026-03-29T06:31:25.422Z</time></trkpt><trkpt lat="43.9373331" lon="12.5300164"><ele>147.5</ele><time>2026-03-29T06:31:28.43Z</time></trkpt><trkpt lat="43.9372663" lon="12.5301062"><ele>149.0</ele><time>2026-03-29T06:31:31.367Z</time></trkpt><trkpt lat="43.9372218" lon="12.5301682"><ele>150.5</ele><time>2026-03-29T06:31:33.412Z</time></trkpt><trkpt lat="43.9371639" lon="12.5302666"><ele>152.0</ele><time>2026-03-29T06:31:36.423Z</time></trkpt><trkpt lat="43.9371115" lon="12.5303444"><ele>153.5</ele><time>2026-03-29T06:31:39.437Z</time></trkpt><trkpt lat="43.9370562" lon="12.5304227"><ele>155.0</ele><time>2026-03-29T06:31:42.41Z</time></trkpt><trkpt lat="43.9370006" lon="12.5305063"><ele>155.2</ele><time>2026-03-29T06:31:45.433Z</time></trkpt><trkpt lat="43.9369406" lon="12.5306043"><ele>155.4</ele><time>2026-03-29T06:31:48.413Z</time></trkpt><trkpt lat="43.9368915" lon="12.5306763"><ele>155.6</ele><time>2026-03-29T06:31:50.398Z</time></trkpt><trkpt lat="43.9368308" lon="12.5307854"><ele>155.8</ele><time>2026-03-29T06:31:52.431Z</time></trkpt><trkpt lat="43.936771" lon="12.5308816"><ele>156.0</ele><time>2026-03-29T06:31:54.438Z</time></trkpt><trkpt lat="43.9366943" lon="12.5309591"><ele>155.6</ele><time>2026-03-29T06:31:56.426Z</time></trkpt><trkpt lat="43.9366218" lon="12.5310464"><ele>155.2</ele><time>2026-03-29T06:31:58.421Z</time></trkpt><trkpt lat="43.9365447" lon="12.5311332"><ele>154.8</ele><time>2026-03-29T06:32:00.423Z</time></trkpt><trkpt lat="43.9364587" lon="12.531236"><ele>154.4</ele><time>2026-03-29T06:32:02.438Z</time></trkpt><trkpt lat="43.9363636" lon="12.5313427"><ele>154.0</ele><time>2026-03-29T06:32:04.43Z</time></trkpt><trkpt lat="43.9363117" lon="12.531406"><ele>154.0</ele><time>2026-03-29T06:32:05.413Z</time></trkpt><trkpt lat="43.936251" lon="12.5314692"><ele>154.0</ele><time>2026-03-29T06:32:06.409Z</time></trkpt><trkpt lat="43.9361897" lon="12.5315464"><ele>154.0</ele><time>2026-03-29T06:32:07.419Z</time></trkpt><trkpt lat="43.9361274" lon="12.5316271"><ele>154.0</ele><time>2026-03-29T06:32:08.41Z</time></trkpt><trkpt lat="43.9360641" lon="12.5317091"><ele>154.0</ele><time>2026-03-29T06:32:09.417Z</time></trkpt><trkpt lat="43.9360025" lon="12.5318077"><ele>154.0</ele><time>2026-03-29T06:32:10.417Z</time></trkpt><trkpt lat="43.9359378" lon="12.5319182"><ele>154.8</ele><time>2026-03-29T06:32:11.396Z</time></trkpt><trkpt lat="43.935878" lon="12.5320504"><ele>155.60000000000002</ele><time>2026-03-29T06:32:12.406Z</time></trkpt><trkpt lat="43.9358149" lon="12.5321666"><ele>156.4</ele><time>2026-03-29T06:32:13.404Z</time></trkpt><trkpt lat="43.9357514" lon="12.532293"><ele>157.20000000000002</ele><time>2026-03-29T06:32:14.429Z</time></trkpt><trkpt lat="43.9356898" lon="12.5324073"><ele>158.0</ele><time>2026-03-29T06:32:15.378Z</time></trkpt><trkpt lat="43.9356252" lon="12.532519"><ele>156.33333333333331</ele><time>2026-03-29T06:32:16.405Z</time></trkpt><trkpt lat="43.9355643" lon="12.5326128"><ele>154.66666666666666</ele><time>2026-03-29T06:32:17.407Z</time></trkpt><trkpt lat="43.935503" lon="12.5327139"><ele>153.0</ele><time>2026-03-29T06:32:18.383Z</time></trkpt><trkpt lat="43.9354394" lon="12.532803"><ele>151.33333333333334</ele><time>2026-03-29T06:32:19.396Z</time></trkpt><trkpt lat="43.9353752" lon="12.5328772"><ele>149.66666666666669</ele><time>2026-03-29T06:32:20.419Z</time></trkpt><trkpt lat="43.9353123" lon="12.5329399"><ele>148.0</ele><time>2026-03-29T06:32:21.396Z</time></trkpt><trkpt lat="43.9352498" lon="12.5329986"><ele>147.66666666666669</ele><time>2026-03-29T06:32:22.409Z</time></trkpt><trkpt lat="43.935179" lon="12.5330584"><ele>147.33333333333334</ele><time>2026-03-29T06:32:23.428Z</time></trkpt><trkpt lat="43.9351165" lon="12.5331199"><ele>147.0</ele><time>2026-03-29T06:32:24.414Z</time></trkpt><trkpt lat="43.9350532" lon="12.5331878"><ele>146.66666666666666</ele><time>2026-03-29T06:32:25.415Z</time></trkpt><trkpt lat="43.9349901" lon="12.5332602"><ele>146.33333333333331</ele><time>2026-03-29T06:32:26.416Z</time></trkpt><trkpt lat="43.9349287" lon="12.5333221"><ele>146.0</ele><time>2026-03-29T06:32:27.431Z</time></trkpt><trkpt lat="43.9348695" lon="12.5333801"><ele>146.0</ele><time>2026-03-29T06:32:28.432Z</time></trkpt><trkpt lat="43.9348059" lon="12.5334376"><ele>146.0</ele><time>2026-03-29T06:32:29.412Z</time></trkpt><trkpt lat="43.9347383" lon="12.5334757"><ele>146.0</ele><time>2026-03-29T06:32:30.43Z</time></trkpt><trkpt lat="43.9346728" lon="12.5335069"><ele>146.0</ele><time>2026-03-29T06:32:31.412Z</time></trkpt><trkpt lat="43.934604" lon="12.5335207"><ele>146.0</ele><time>2026-03-29T06:32:32.431Z</time></trkpt><trkpt lat="43.9345351" lon="12.5335218"><ele>146.0</ele><time>2026-03-29T06:32:33.454Z</time></trkpt><trkpt lat="43.9344133" lon="12.5335059"><ele>146.0</ele><time>2026-03-29T06:32:35.35Z</time></trkpt><trkpt lat="43.9342929" lon="12.5334862"><ele>146.0</ele><time>2026-03-29T06:32:37.44Z</time></trkpt><trkpt lat="43.9341855" lon="12.5334695"><ele>146.0</ele><time>2026-03-29T06:32:39.434Z</time></trkpt><trkpt lat="43.9340812" lon="12.5334726"><ele>146.0</ele><time>2026-03-29T06:32:41.438Z</time></trkpt><trkpt lat="43.933993" lon="12.5334892"><ele>146.0</ele><time>2026-03-29T06:32:43.439Z</time></trkpt><trkpt lat="43.933892" lon="12.5335218"><ele>146.0</ele><time>2026-03-29T06:32:45.404Z</time></trkpt><trkpt lat="43.9337845" lon="12.5335726"><ele>146.0</ele><time>2026-03-29T06:32:47.429Z</time></trkpt><trkpt lat="43.9336671" lon="12.5336339"><ele>146.0</ele><time>2026-03-29T06:32:49.432Z</time></trkpt><trkpt lat="43.9336062" lon="12.5336745"><ele>146.0</ele><time>2026-03-29T06:32:50.437Z</time></trkpt><trkpt lat="43.9335441" lon="12.5337164"><ele>146.0</ele><time>2026-03-29T06:32:51.434Z</time></trkpt><trkpt lat="43.9334775" lon="12.5337566"><ele>146.0</ele><time>2026-03-29T06:32:52.431Z</time></trkpt><trkpt lat="43.9334162" lon="12.5337886"><ele>146.28571428571428</ele><time>2026-03-29T06:32:53.424Z</time></trkpt><trkpt lat="43.9333485" lon="12.5338302"><ele>146.57142857142858</ele><time>2026-03-29T06:32:54.43Z</time></trkpt><trkpt lat="43.9332878" lon="12.5338779"><ele>146.85714285714286</ele><time>2026-03-29T06:32:55.418Z</time></trkpt><trkpt lat="43.9332227" lon="12.5339297"><ele>147.14285714285714</ele><time>2026-03-29T06:32:56.426Z</time></trkpt><trkpt lat="43.9331642" lon="12.5339781"><ele>147.42857142857142</ele><time>2026-03-29T06:32:57.433Z</time></trkpt><trkpt lat="43.9331051" lon="12.5340377"><ele>147.71428571428572</ele><time>2026-03-29T06:32:58.427Z</time></trkpt><trkpt lat="43.9330553" lon="12.5340914"><ele>148.0</ele><time>2026-03-29T06:32:59.415Z</time></trkpt><trkpt lat="43.9330019" lon="12.5341505"><ele>148.0</ele><time>2026-03-29T06:33:00.429Z</time></trkpt><trkpt lat="43.9329521" lon="12.5342123"><ele>148.0</ele><time>2026-03-29T06:33:01.428Z</time></trkpt><trkpt lat="43.9329118" lon="12.5342819"><ele>148.0</ele><time>2026-03-29T06:33:02.415Z</time></trkpt><trkpt lat="43.9328752" lon="12.5343549"><ele>148.0</ele><time>2026-03-29T06:33:03.375Z</time></trkpt><trkpt lat="43.9328414" lon="12.534431"><ele>148.0</ele><time>2026-03-29T06:33:04.404Z</time></trkpt><trkpt lat="43.9328078" lon="12.5345115"><ele>148.0</ele><time>2026-03-29T06:33:05.416Z</time></trkpt><trkpt lat="43.9327774" lon="12.5345982"><ele>148.0</ele><time>2026-03-29T06:33:06.421Z</time></trkpt><trkpt lat="43.9327536" lon="12.5346907"><ele>146.6</ele><time>2026-03-29T06:33:07.433Z</time></trkpt><trkpt lat="43.932739" lon="12.534798"><ele>145.20000000000002</ele><time>2026-03-29T06:33:08.431Z</time></trkpt><trkpt lat="43.932734" lon="12.5349057"><ele>143.8</ele><time>2026-03-29T06:33:09.406Z</time></trkpt><trkpt lat="43.9327418" lon="12.5350244"><ele>142.4</ele><time>2026-03-29T06:33:10.427Z</time></trkpt><trkpt lat="43.9327823" lon="12.5351553"><ele>141.0</ele><time>2026-03-29T06:33:11.413Z</time></trkpt><trkpt lat="43.9328497" lon="12.5352892"><ele>140.0</ele><time>2026-03-29T06:33:12.421Z</time></trkpt><trkpt lat="43.9329268" lon="12.5354128"><ele>139.0</ele><time>2026-03-29T06:33:13.376Z</time></trkpt><trkpt lat="43.933002" lon="12.5355239"><ele>138.0</ele><time>2026-03-29T06:33:14.409Z</time></trkpt><trkpt lat="43.9330746" lon="12.5356332"><ele>137.0</ele><time>2026-03-29T06:33:15.419Z</time></trkpt><trkpt lat="43.9331326" lon="12.5357551"><ele>136.0</ele><time>2026-03-29T06:33:16.419Z</time></trkpt><trkpt lat="43.9331754" lon="12.5358988"><ele>136.0</ele><time>2026-03-29T06:33:17.398Z</time></trkpt><trkpt lat="43.9331961" lon="12.5360341"><ele>136.0</ele><time>2026-03-29T06:33:18.439Z</time></trkpt><trkpt lat="43.9332159" lon="12.5361604"><ele>136.0</ele><time>2026-03-29T06:33:19.382Z</time></trkpt><trkpt lat="43.9332228" lon="12.5362538"><ele>136.0</ele><time>2026-03-29T06:33:20.412Z</time></trkpt><trkpt lat="43.9331838" lon="12.5363356"><ele>136.0</ele><time>2026-03-29T06:33:22.401Z</time></trkpt><trkpt lat="43.9331077" lon="12.5362943"><ele>136.0</ele><time>2026-03-29T06:33:26.376Z</time></trkpt><trkpt lat="43.9330389" lon="12.5362647"><ele>138.0</ele><time>2026-03-29T06:33:29.406Z</time></trkpt><trkpt lat="43.9329596" lon="12.5362613"><ele>140.0</ele><time>2026-03-29T06:33:33.411Z</time></trkpt><trkpt lat="43.9328825" lon="12.5362853"><ele>142.0</ele><time>2026-03-29T06:33:37.41Z</time></trkpt><trkpt lat="43.9328088" lon="12.5363084"><ele>144.0</ele><time>2026-03-29T06:33:41.409Z</time></trkpt><trkpt lat="43.9327455" lon="12.5363472"><ele>146.0</ele><time>2026-03-29T06:33:45.402Z</time></trkpt><trkpt lat="43.9326846" lon="12.536416"><ele>148.0</ele><time>2026-03-29T06:33:50.396Z</time></trkpt><trkpt lat="43.9326224" lon="12.5364824"><ele>148.0</ele><time>2026-03-29T06:33:56.407Z</time></trkpt><trkpt lat="43.9325607" lon="12.5365373"><ele>148.0</ele><time>2026-03-29T06:34:01.379Z</time></trkpt><trkpt lat="43.932506" lon="12.5366045"><ele>148.0</ele><time>2026-03-29T06:34:05.417Z</time></trkpt><trkpt lat="43.9324457" lon="12.5366514"><ele>148.0</ele><time>2026-03-29T06:34:09.402Z</time></trkpt><trkpt lat="43.9323879" lon="12.5366987"><ele>148.0</ele><time>2026-03-29T06:34:13.401Z</time></trkpt><trkpt lat="43.9323222" lon="12.5367085"><ele>148.0</ele><time>2026-03-29T06:34:17.401Z</time></trkpt><trkpt lat="43.9322539" lon="12.536725"><ele>148.0</ele><time>2026-03-29T06:34:22.404Z</time></trkpt><trkpt lat="43.9321882" lon="12.5367391"><ele>149.0</ele><time>2026-03-29T06:34:27.39Z</time></trkpt><trkpt lat="43.9321188" lon="12.5367543"><ele>150.0</ele><time>2026-03-29T06:34:32.409Z</time></trkpt><trkpt lat="43.9320548" lon="12.536759"><ele>151.0</ele><time>2026-03-29T06:34:36.417Z</time></trkpt><trkpt lat="43.9319795" lon="12.5367815"><ele>152.0</ele><time>2026-03-29T06:34:41.395Z</time></trkpt><trkpt lat="43.9319151" lon="12.5368438"><ele>153.0</ele><time>2026-03-29T06:34:46.422Z</time></trkpt><trkpt lat="43.9318577" lon="12.5368967"><ele>154.0</ele><time>2026-03-29T06:34:50.423Z</time></trkpt><trkpt lat="43.9317969" lon="12.5369548"><ele>155.0</ele><time>2026-03-29T06:34:54.394Z</time></trkpt><trkpt lat="43.931739" lon="12.5370059"><ele>157.71428571428572</ele><time>2026-03-29T06:34:58.405Z</time></trkpt><trkpt lat="43.9316893" lon="12.5370886"><ele>160.42857142857142</ele><time>2026-03-29T06:35:03.398Z</time></trkpt><trkpt lat="43.9317019" lon="12.537194"><ele>163.14285714285714</ele><time>2026-03-29T06:35:07.407Z</time></trkpt><trkpt lat="43.9317435" lon="12.5372618"><ele>165.85714285714286</ele><time>2026-03-29T06:35:11.407Z</time></trkpt><trkpt lat="43.9318027" lon="12.5372924"><ele>168.57142857142858</ele><time>2026-03-29T06:35:16.405Z</time></trkpt><trkpt lat="43.9318738" lon="12.5373037"><ele>171.28571428571428</ele><time>2026-03-29T06:35:21.407Z</time></trkpt><trkpt lat="43.9319359" lon="12.5373231"><ele>174.0</ele><time>2026-03-29T06:35:25.4Z</time></trkpt><trkpt lat="43.9320026" lon="12.5373166"><ele>174.57142857142856</ele><time>2026-03-29T06:35:29.409Z</time></trkpt><trkpt lat="43.9320799" lon="12.5373145"><ele>175.14285714285714</ele><time>2026-03-29T06:35:34.412Z</time></trkpt><trkpt lat="43.9321484" lon="12.5373077"><ele>175.71428571428572</ele><time>2026-03-29T06:35:39.403Z</time></trkpt><trkpt lat="43.9322118" lon="12.5373191"><ele>176.28571428571428</ele><time>2026-03-29T06:35:43.402Z</time></trkpt><trkpt lat="43.9322895" lon="12.5373212"><ele>176.85714285714286</ele><time>2026-03-29T06:35:47.415Z</time></trkpt><trkpt lat="43.9323615" lon="12.5373164"><ele>177.42857142857142</ele><time>2026-03-29T06:35:51.419Z</time></trkpt><trkpt lat="43.9324364" lon="12.5373066"><ele>178.0</ele><time>2026-03-29T06:35:55.411Z</time></trkpt><trkpt lat="43.9325016" lon="12.5372998"><ele>177.99999999999997</ele><time>2026-03-29T06:35:58.379Z</time></trkpt><trkpt lat="43.9325755" lon="12.5373021"><ele>178.0</ele><time>2026-03-29T06:36:03.385Z</time></trkpt><trkpt lat="43.9326455" lon="12.5373329"><ele>178.0</ele><time>2026-03-29T06:36:08.421Z</time></trkpt><trkpt lat="43.932621" lon="12.5374168"><ele>178.0</ele><time>2026-03-29T06:36:14.404Z</time></trkpt><trkpt lat="43.9325543" lon="12.5374644"><ele>178.0</ele><time>2026-03-29T06:36:20.382Z</time></trkpt><trkpt lat="43.9324964" lon="12.5375045"><ele>177.99999999999997</ele><time>2026-03-29T06:36:24.422Z</time></trkpt><trkpt lat="43.9324401" lon="12.5375519"><ele>178.0</ele><time>2026-03-29T06:36:28.42Z</time></trkpt><trkpt lat="43.9323816" lon="12.5376093"><ele>177.99999999999997</ele><time>2026-03-29T06:36:32.387Z</time></trkpt><trkpt lat="43.932322" lon="12.5376658"><ele>178.0</ele><time>2026-03-29T06:36:36.415Z</time></trkpt><trkpt lat="43.9322607" lon="12.5377249"><ele>178.0</ele><time>2026-03-29T06:36:41.416Z</time></trkpt><trkpt lat="43.9322023" lon="12.5377854"><ele>178.0</ele><time>2026-03-29T06:36:46.403Z</time></trkpt><trkpt lat="43.9321499" lon="12.5378506"><ele>178.0</ele><time>2026-03-29T06:36:51.411Z</time></trkpt><trkpt lat="43.9320865" lon="12.5379094"><ele>177.99999999999997</ele><time>2026-03-29T06:36:56.421Z</time></trkpt><trkpt lat="43.9320306" lon="12.5379781"><ele>178.0</ele><time>2026-03-29T06:37:01.417Z</time></trkpt><trkpt lat="43.9319826" lon="12.5380531"><ele>180.99999999999997</ele><time>2026-03-29T06:37:06.413Z</time></trkpt><trkpt lat="43.9319492" lon="12.5381595"><ele>184.0</ele><time>2026-03-29T06:37:10.407Z</time></trkpt><trkpt lat="43.9319269" lon="12.538262"><ele>187.0</ele><time>2026-03-29T06:37:15.417Z</time></trkpt><trkpt lat="43.9319089" lon="12.5383527"><ele>190.0</ele><time>2026-03-29T06:37:19.39Z</time></trkpt><trkpt lat="43.9318994" lon="12.538445"><ele>193.0</ele><time>2026-03-29T06:37:23.425Z</time></trkpt><trkpt lat="43.9319015" lon="12.5385412"><ele>195.99999999999997</ele><time>2026-03-29T06:37:28.406Z</time></trkpt><trkpt lat="43.9318921" lon="12.538638"><ele>199.0</ele><time>2026-03-29T06:37:32.405Z</time></trkpt><trkpt lat="43.9318798" lon="12.5387453"><ele>200.57142857142856</ele><time>2026-03-29T06:37:37.398Z</time></trkpt><trkpt lat="43.9318706" lon="12.538834"><ele>202.14285714285714</ele><time>2026-03-29T06:37:41.391Z</time></trkpt><trkpt lat="43.9318597" lon="12.5389432"><ele>203.71428571428572</ele><time>2026-03-29T06:37:45.365Z</time></trkpt><trkpt lat="43.9318388" lon="12.5390303"><ele>205.28571428571428</ele><time>2026-03-29T06:37:49.392Z</time></trkpt><trkpt lat="43.9318005" lon="12.5391151"><ele>206.85714285714286</ele><time>2026-03-29T06:37:54.424Z</time></trkpt><trkpt lat="43.931758" lon="12.5392051"><ele>208.42857142857142</ele><time>2026-03-29T06:37:59.401Z</time></trkpt><trkpt lat="43.931717" lon="12.5392789"><ele>210.0</ele><time>2026-03-29T06:38:03.412Z</time></trkpt><trkpt lat="43.9316622" lon="12.5393324"><ele>210.0</ele><time>2026-03-29T06:38:08.412Z</time></trkpt><trkpt lat="43.9315952" lon="12.5393875"><ele>210.0</ele><time>2026-03-29T06:38:13.407Z</time></trkpt><trkpt lat="43.9315464" lon="12.5394728"><ele>210.0</ele><time>2026-03-29T06:38:18.406Z</time></trkpt><trkpt lat="43.9315108" lon="12.539569"><ele>210.0</ele><time>2026-03-29T06:38:22.413Z</time></trkpt><trkpt lat="43.9314629" lon="12.5396539"><ele>210.0</ele><time>2026-03-29T06:38:26.426Z</time></trkpt><trkpt lat="43.9314299" lon="12.5397405"><ele>210.0</ele><time>2026-03-29T06:38:30.422Z</time></trkpt><trkpt lat="43.9314045" lon="12.539829"><ele>211.71428571428572</ele><time>2026-03-29T06:38:34.408Z</time></trkpt><trkpt lat="43.9313816" lon="12.5399161"><ele>213.42857142857144</ele><time>2026-03-29T06:38:38.429Z</time></trkpt><trkpt lat="43.9313739" lon="12.5400077"><ele>215.14285714285714</ele><time>2026-03-29T06:38:41.419Z</time></trkpt><trkpt lat="43.9313591" lon="12.5401219"><ele>216.85714285714286</ele><time>2026-03-29T06:38:45.383Z</time></trkpt><trkpt lat="43.9313467" lon="12.540213"><ele>218.57142857142858</ele><time>2026-03-29T06:38:48.427Z</time></trkpt><trkpt lat="43.9313211" lon="12.5403137"><ele>220.28571428571428</ele><time>2026-03-29T06:38:52.401Z</time></trkpt><trkpt lat="43.9312989" lon="12.5404144"><ele>222.0</ele><time>2026-03-29T06:38:56.41Z</time></trkpt><trkpt lat="43.9312864" lon="12.5405182"><ele>223.42857142857142</ele><time>2026-03-29T06:39:00.43Z</time></trkpt><trkpt lat="43.9312716" lon="12.5406116"><ele>224.8571428571429</ele><time>2026-03-29T06:39:04.434Z</time></trkpt><trkpt lat="43.9312557" lon="12.5407083"><ele>226.2857142857143</ele><time>2026-03-29T06:39:08.412Z</time></trkpt><trkpt lat="43.9312478" lon="12.5408045"><ele>227.71428571428572</ele><time>2026-03-29T06:39:12.407Z</time></trkpt><trkpt lat="43.9312359" lon="12.5408927"><ele>229.14285714285717</ele><time>2026-03-29T06:39:16.429Z</time></trkpt><trkpt lat="43.9312181" lon="12.5409913"><ele>230.5714285714286</ele><time>2026-03-29T06:39:21.399Z</time></trkpt><trkpt lat="43.9312117" lon="12.5410883"><ele>232.00000000000003</ele><time>2026-03-29T06:39:25.402Z</time></trkpt><trkpt lat="43.9312109" lon="12.5411779"><ele>232.8571428571429</ele><time>2026-03-29T06:39:29.408Z</time></trkpt><trkpt lat="43.9311944" lon="12.5412862"><ele>233.71428571428572</ele><time>2026-03-29T06:39:34.427Z</time></trkpt><trkpt lat="43.9311926" lon="12.541374"><ele>234.57142857142858</ele><time>2026-03-29T06:39:38.424Z</time></trkpt><trkpt lat="43.9311901" lon="12.5414655"><ele>235.42857142857144</ele><time>2026-03-29T06:39:42.431Z</time></trkpt><trkpt lat="43.9311929" lon="12.5415573"><ele>236.28571428571428</ele><time>2026-03-29T06:39:46.404Z</time></trkpt><trkpt lat="43.9312305" lon="12.5416502"><ele>237.14285714285714</ele><time>2026-03-29T06:39:51.424Z</time></trkpt><trkpt lat="43.9312727" lon="12.5417493"><ele>238.0</ele><time>2026-03-29T06:39:56.408Z</time></trkpt><trkpt lat="43.9313169" lon="12.5418205"><ele>238.0</ele><time>2026-03-29T06:40:00.435Z</time></trkpt><trkpt lat="43.9313752" lon="12.5418891"><ele>238.0</ele><time>2026-03-29T06:40:05.419Z</time></trkpt><trkpt lat="43.9313095" lon="12.5419125"><ele>238.0</ele><time>2026-03-29T06:40:12.378Z</time></trkpt><trkpt lat="43.9312417" lon="12.5419051"><ele>238.0</ele><time>2026-03-29T06:40:15.444Z</time></trkpt><trkpt lat="43.9311721" lon="12.541868"><ele>238.0</ele><time>2026-03-29T06:40:19.393Z</time></trkpt><trkpt lat="43.9311052" lon="12.5418152"><ele>238.0</ele><time>2026-03-29T06:40:23.442Z</time></trkpt><trkpt lat="43.9310415" lon="12.5417441"><ele>238.0</ele><time>2026-03-29T06:40:27.432Z</time></trkpt><trkpt lat="43.9309919" lon="12.5416751"><ele>238.0</ele><time>2026-03-29T06:40:30.44Z</time></trkpt><trkpt lat="43.9309423" lon="12.541606"><ele>238.0</ele><time>2026-03-29T06:40:33.418Z</time></trkpt><trkpt lat="43.9308986" lon="12.5415417"><ele>238.0</ele><time>2026-03-29T06:40:36.415Z</time></trkpt><trkpt lat="43.9308344" lon="12.5414738"><ele>238.0</ele><time>2026-03-29T06:40:40.392Z</time></trkpt><trkpt lat="43.9307742" lon="12.5414013"><ele>238.0</ele><time>2026-03-29T06:40:44.417Z</time></trkpt><trkpt lat="43.9307081" lon="12.5413336"><ele>238.0</ele><time>2026-03-29T06:40:48.413Z</time></trkpt><trkpt lat="43.9306563" lon="12.5412755"><ele>238.0</ele><time>2026-03-29T06:40:51.412Z</time></trkpt><trkpt lat="43.9306002" lon="12.541228"><ele>237.49999999999997</ele><time>2026-03-29T06:40:54.439Z</time></trkpt><trkpt lat="43.9305293" lon="12.5411929"><ele>237.0</ele><time>2026-03-29T06:40:57.387Z</time></trkpt><trkpt lat="43.9304571" lon="12.5411618"><ele>236.5</ele><time>2026-03-29T06:41:00.383Z</time></trkpt><trkpt lat="43.9303907" lon="12.5411384"><ele>236.0</ele><time>2026-03-29T06:41:03.42Z</time></trkpt><trkpt lat="43.9303074" lon="12.5411233"><ele>235.49999999999997</ele><time>2026-03-29T06:41:07.422Z</time></trkpt><trkpt lat="43.9302412" lon="12.5411304"><ele>235.0</ele><time>2026-03-29T06:41:10.417Z</time></trkpt><trkpt lat="43.9300826" lon="12.54117"><ele>236.28571428571428</ele><time>2026-03-29T06:41:13.071Z</time></trkpt><trkpt lat="43.930011" lon="12.54118"><ele>237.57142857142856</ele><time>2026-03-29T06:41:16.089Z</time></trkpt><trkpt lat="43.9299325" lon="12.5411937"><ele>238.85714285714283</ele><time>2026-03-29T06:41:20.109Z</time></trkpt><trkpt lat="43.9298637" lon="12.5412302"><ele>240.1428571428571</ele><time>2026-03-29T06:41:23.071Z</time></trkpt><trkpt lat="43.9297992" lon="12.5412427"><ele>241.42857142857142</ele><time>2026-03-29T06:41:26.143Z</time></trkpt><trkpt lat="43.9297214" lon="12.5412677"><ele>242.71428571428567</ele><time>2026-03-29T06:41:30.121Z</time></trkpt><trkpt lat="43.929651" lon="12.5413009"><ele>243.99999999999997</ele><time>2026-03-29T06:41:33.067Z</time></trkpt><trkpt lat="43.9295692" lon="12.5413211"><ele>244.83333333333331</ele><time>2026-03-29T06:41:37.062Z</time></trkpt><trkpt lat="43.9294974" lon="12.5413365"><ele>245.66666666666666</ele><time>2026-03-29T06:41:40.082Z</time></trkpt><trkpt lat="43.9294046" lon="12.5413584"><ele>246.5</ele><time>2026-03-29T06:41:43.073Z</time></trkpt><trkpt lat="43.9293368" lon="12.5413751"><ele>247.33333333333331</ele><time>2026-03-29T06:41:45.074Z</time></trkpt><trkpt lat="43.9292665" lon="12.5413945"><ele>248.16666666666666</ele><time>2026-03-29T06:41:47.147Z</time></trkpt><trkpt lat="43.9291835" lon="12.5414271"><ele>249.0</ele><time>2026-03-29T06:41:50.108Z</time></trkpt><trkpt lat="43.9291027" lon="12.5414763"><ele>249.0</ele><time>2026-03-29T06:41:53.125Z</time></trkpt><trkpt lat="43.929018" lon="12.5415271"><ele>249.0</ele><time>2026-03-29T06:41:56.117Z</time></trkpt><trkpt lat="43.928952" lon="12.5415928"><ele>249.0</ele><time>2026-03-29T06:41:59.084Z</time></trkpt><trkpt lat="43.9288962" lon="12.5416437"><ele>249.0</ele><time>2026-03-29T06:42:01.089Z</time></trkpt><trkpt lat="43.9288389" lon="12.5417157"><ele>249.0</ele><time>2026-03-29T06:42:04.124Z</time></trkpt><trkpt lat="43.9287779" lon="12.5417808"><ele>249.0</ele><time>2026-03-29T06:42:07.13Z</time></trkpt><trkpt lat="43.9287138" lon="12.5418341"><ele>249.0</ele><time>2026-03-29T06:42:10.089Z</time></trkpt><trkpt lat="43.9286573" lon="12.5418967"><ele>249.0</ele><time>2026-03-29T06:42:13.106Z</time></trkpt><trkpt lat="43.9286019" lon="12.5419476"><ele>249.0</ele><time>2026-03-29T06:42:16.08Z</time></trkpt><trkpt lat="43.9285312" lon="12.5419948"><ele>249.0</ele><time>2026-03-29T06:42:20.12Z</time></trkpt><trkpt lat="43.9284582" lon="12.5420237"><ele>249.0</ele><time>2026-03-29T06:42:24.16Z</time></trkpt><trkpt lat="43.9283858" lon="12.5420657"><ele>249.0</ele><time>2026-03-29T06:42:28.147Z</time></trkpt><trkpt lat="43.9283091" lon="12.5420891"><ele>250.5</ele><time>2026-03-29T06:42:32.106Z</time></trkpt><trkpt lat="43.9282356" lon="12.5421094"><ele>252.0</ele><time>2026-03-29T06:42:36.143Z</time></trkpt><trkpt lat="43.9281617" lon="12.5421367"><ele>253.5</ele><time>2026-03-29T06:42:40.141Z</time></trkpt><trkpt lat="43.9280814" lon="12.5421549"><ele>255.0</ele><time>2026-03-29T06:42:44.149Z</time></trkpt><trkpt lat="43.9280016" lon="12.5421684"><ele>256.5</ele><time>2026-03-29T06:42:48.145Z</time></trkpt><trkpt lat="43.9279389" lon="12.5421924"><ele>258.0</ele><time>2026-03-29T06:42:51.151Z</time></trkpt><trkpt lat="43.9278636" lon="12.5422063"><ele>257.99999999999994</ele><time>2026-03-29T06:42:55.131Z</time></trkpt><trkpt lat="43.9277883" lon="12.5422228"><ele>258.0</ele><time>2026-03-29T06:42:59.128Z</time></trkpt><trkpt lat="43.9277154" lon="12.5422545"><ele>258.0</ele><time>2026-03-29T06:43:03.145Z</time></trkpt><trkpt lat="43.9276443" lon="12.5422824"><ele>258.0</ele><time>2026-03-29T06:43:07.149Z</time></trkpt><trkpt lat="43.9275793" lon="12.5423121"><ele>258.0</ele><time>2026-03-29T06:43:11.139Z</time></trkpt><trkpt lat="43.9275143" lon="12.542354"><ele>257.99999999999994</ele><time>2026-03-29T06:43:15.141Z</time></trkpt><trkpt lat="43.9274469" lon="12.5424043"><ele>258.0</ele><time>2026-03-29T06:43:19.152Z</time></trkpt><trkpt lat="43.9273852" lon="12.5424654"><ele>258.71428571428567</ele><time>2026-03-29T06:43:23.151Z</time></trkpt><trkpt lat="43.9273221" lon="12.5425289"><ele>259.42857142857144</ele><time>2026-03-29T06:43:27.143Z</time></trkpt><trkpt lat="43.9272567" lon="12.5425895"><ele>260.1428571428571</ele><time>2026-03-29T06:43:31.094Z</time></trkpt><trkpt lat="43.9272065" lon="12.542651"><ele>260.85714285714283</ele><time>2026-03-29T06:43:34.144Z</time></trkpt><trkpt lat="43.9271557" lon="12.5427122"><ele>261.57142857142856</ele><time>2026-03-29T06:43:37.141Z</time></trkpt><trkpt lat="43.927097" lon="12.5427765"><ele>262.2857142857143</ele><time>2026-03-29T06:43:40.148Z</time></trkpt><trkpt lat="43.9270424" lon="12.5428501"><ele>263.0</ele><time>2026-03-29T06:43:43.148Z</time></trkpt><trkpt lat="43.9269837" lon="12.542924"><ele>263.0</ele><time>2026-03-29T06:43:46.133Z</time></trkpt><trkpt lat="43.9269144" lon="12.5429912"><ele>263.0</ele><time>2026-03-29T06:43:49.094Z</time></trkpt><trkpt lat="43.9268612" lon="12.5430442"><ele>263.0</ele><time>2026-03-29T06:43:51.102Z</time></trkpt><trkpt lat="43.9268056" lon="12.5431018"><ele>263.0</ele><time>2026-03-29T06:43:53.148Z</time></trkpt><trkpt lat="43.9267494" lon="12.5431457"><ele>263.0</ele><time>2026-03-29T06:43:55.145Z</time></trkpt><trkpt lat="43.9266908" lon="12.543189"><ele>263.0</ele><time>2026-03-29T06:43:57.15Z</time></trkpt><trkpt lat="43.9266255" lon="12.5432244"><ele>263.0</ele><time>2026-03-29T06:43:59.107Z</time></trkpt><trkpt lat="43.9265617" lon="12.5432567"><ele>265.6666666666667</ele><time>2026-03-29T06:44:01.16Z</time></trkpt><trkpt lat="43.9264826" lon="12.5432998"><ele>268.33333333333337</ele><time>2026-03-29T06:44:04.152Z</time></trkpt><trkpt lat="43.9264196" lon="12.5433173"><ele>271.0</ele><time>2026-03-29T06:44:06.149Z</time></trkpt><trkpt lat="43.9263278" lon="12.54335"><ele>273.6666666666667</ele><time>2026-03-29T06:44:09.151Z</time></trkpt><trkpt lat="43.9262541" lon="12.543367"><ele>276.3333333333333</ele><time>2026-03-29T06:44:11.131Z</time></trkpt><trkpt lat="43.9261767" lon="12.5433823"><ele>279.0</ele><time>2026-03-29T06:44:13.15Z</time></trkpt><trkpt lat="43.9260954" lon="12.5433933"><ele>279.0</ele><time>2026-03-29T06:44:15.133Z</time></trkpt><trkpt lat="43.9260142" lon="12.5434189"><ele>279.0</ele><time>2026-03-29T06:44:17.134Z</time></trkpt><trkpt lat="43.9259373" lon="12.543432"><ele>279.0</ele><time>2026-03-29T06:44:19.123Z</time></trkpt><trkpt lat="43.9258526" lon="12.5434401"><ele>279.0</ele><time>2026-03-29T06:44:21.135Z</time></trkpt><trkpt lat="43.9257641" lon="12.5434433"><ele>279.0</ele><time>2026-03-29T06:44:23.138Z</time></trkpt><trkpt lat="43.9256761" lon="12.543443"><ele>279.0</ele><time>2026-03-29T06:44:25.138Z</time></trkpt><trkpt lat="43.9255813" lon="12.5434346"><ele>279.4</ele><time>2026-03-29T06:44:27.124Z</time></trkpt><trkpt lat="43.9254784" lon="12.5434261"><ele>279.79999999999995</ele><time>2026-03-29T06:44:29.136Z</time></trkpt><trkpt lat="43.9253855" lon="12.5434037"><ele>280.20000000000005</ele><time>2026-03-29T06:44:31.072Z</time></trkpt><trkpt lat="43.925287" lon="12.5433691"><ele>280.6</ele><time>2026-03-29T06:44:33.116Z</time></trkpt><trkpt lat="43.9251926" lon="12.5433252"><ele>281.0</ele><time>2026-03-29T06:44:35.143Z</time></trkpt><trkpt lat="43.9251136" lon="12.543267"><ele>281.0</ele><time>2026-03-29T06:44:37.138Z</time></trkpt><trkpt lat="43.9250506" lon="12.5432045"><ele>281.0</ele><time>2026-03-29T06:44:39.132Z</time></trkpt><trkpt lat="43.9249916" lon="12.5431466"><ele>281.0</ele><time>2026-03-29T06:44:41.148Z</time></trkpt><trkpt lat="43.9249225" lon="12.5430664"><ele>281.0</ele><time>2026-03-29T06:44:44.138Z</time></trkpt><trkpt lat="43.9248596" lon="12.542994"><ele>281.0</ele><time>2026-03-29T06:44:47.126Z</time></trkpt><trkpt lat="43.9248056" lon="12.5429283"><ele>281.0</ele><time>2026-03-29T06:44:50.072Z</time></trkpt><trkpt lat="43.9247438" lon="12.5428551"><ele>280.8571428571429</ele><time>2026-03-29T06:44:53.105Z</time></trkpt><trkpt lat="43.924684" lon="12.5427968"><ele>280.7142857142857</ele><time>2026-03-29T06:44:56.127Z</time></trkpt><trkpt lat="43.9246296" lon="12.542738"><ele>280.57142857142856</ele><time>2026-03-29T06:44:59.13Z</time></trkpt><trkpt lat="43.9245805" lon="12.5426774"><ele>280.42857142857144</ele><time>2026-03-29T06:45:02.113Z</time></trkpt><trkpt lat="43.9245325" lon="12.5426104"><ele>280.2857142857143</ele><time>2026-03-29T06:45:05.14Z</time></trkpt><trkpt lat="43.9244874" lon="12.5425457"><ele>280.14285714285717</ele><time>2026-03-29T06:45:08.138Z</time></trkpt><trkpt lat="43.924448" lon="12.5424745"><ele>280.0</ele><time>2026-03-29T06:45:11.122Z</time></trkpt><trkpt lat="43.9243997" lon="12.5424106"><ele>280.0</ele><time>2026-03-29T06:45:14.148Z</time></trkpt><trkpt lat="43.9243363" lon="12.5423332"><ele>280.0</ele><time>2026-03-29T06:45:18.114Z</time></trkpt><trkpt lat="43.9242851" lon="12.542249"><ele>280.0</ele><time>2026-03-29T06:45:22.127Z</time></trkpt><trkpt lat="43.924231" lon="12.542173"><ele>280.0</ele><time>2026-03-29T06:45:26.135Z</time></trkpt><trkpt lat="43.9241756" lon="12.542095"><ele>280.0</ele><time>2026-03-29T06:45:30.136Z</time></trkpt><trkpt lat="43.9241326" lon="12.5420305"><ele>280.0</ele><time>2026-03-29T06:45:33.102Z</time></trkpt><trkpt lat="43.9240834" lon="12.5419418"><ele>282.16666666666663</ele><time>2026-03-29T06:45:37.113Z</time></trkpt><trkpt lat="43.924029" lon="12.5418486"><ele>284.3333333333333</ele><time>2026-03-29T06:45:41.135Z</time></trkpt><trkpt lat="43.9239783" lon="12.5417845"><ele>286.5</ele><time>2026-03-29T06:45:44.148Z</time></trkpt><trkpt lat="43.9239205" lon="12.5417169"><ele>288.6666666666667</ele><time>2026-03-29T06:45:48.146Z</time></trkpt><trkpt lat="43.9238679" lon="12.5416417"><ele>290.83333333333337</ele><time>2026-03-29T06:45:52.154Z</time></trkpt><trkpt lat="43.9238138" lon="12.5415626"><ele>293.0</ele><time>2026-03-29T06:45:56.131Z</time></trkpt><trkpt lat="43.9237488" lon="12.5414945"><ele>292.99999999999994</ele><time>2026-03-29T06:46:00.085Z</time></trkpt><trkpt lat="43.9236935" lon="12.5414142"><ele>293.0</ele><time>2026-03-29T06:46:04.146Z</time></trkpt><trkpt lat="43.9236409" lon="12.5413377"><ele>293.0</ele><time>2026-03-29T06:46:08.079Z</time></trkpt><trkpt lat="43.9235904" lon="12.5412712"><ele>293.0</ele><time>2026-03-29T06:46:12.137Z</time></trkpt><trkpt lat="43.9235452" lon="12.541198"><ele>293.0</ele><time>2026-03-29T06:46:16.114Z</time></trkpt><trkpt lat="43.9234965" lon="12.5411187"><ele>292.99999999999994</ele><time>2026-03-29T06:46:20.13Z</time></trkpt><trkpt lat="43.9234572" lon="12.5410448"><ele>293.0</ele><time>2026-03-29T06:46:24.135Z</time></trkpt><trkpt lat="43.9234024" lon="12.5409727"><ele>295.85714285714283</ele><time>2026-03-29T06:46:29.118Z</time></trkpt><trkpt lat="43.9233578" lon="12.5408989"><ele>298.7142857142857</ele><time>2026-03-29T06:46:33.144Z</time></trkpt><trkpt lat="43.9233084" lon="12.5408403"><ele>301.57142857142856</ele><time>2026-03-29T06:46:37.138Z</time></trkpt><trkpt lat="43.9232576" lon="12.5407792"><ele>304.42857142857144</ele><time>2026-03-29T06:46:41.147Z</time></trkpt><trkpt lat="43.9231914" lon="12.5407238"><ele>307.2857142857143</ele><time>2026-03-29T06:46:45.14Z</time></trkpt><trkpt lat="43.9231309" lon="12.5406957"><ele>310.1428571428571</ele><time>2026-03-29T06:46:48.109Z</time></trkpt><trkpt lat="43.9230674" lon="12.5406526"><ele>313.0</ele><time>2026-03-29T06:46:52.135Z</time></trkpt><trkpt lat="43.923003" lon="12.5405931"><ele>313.0</ele><time>2026-03-29T06:46:56.136Z</time></trkpt><trkpt lat="43.9229353" lon="12.5405439"><ele>313.0</ele><time>2026-03-29T06:47:00.063Z</time></trkpt><trkpt lat="43.9228601" lon="12.5405057"><ele>313.0</ele><time>2026-03-29T06:47:04.124Z</time></trkpt><trkpt lat="43.9228017" lon="12.5404575"><ele>313.0</ele><time>2026-03-29T06:47:08.117Z</time></trkpt><trkpt lat="43.9227448" lon="12.5404165"><ele>313.0</ele><time>2026-03-29T06:47:12.125Z</time></trkpt><trkpt lat="43.9226815" lon="12.5404292"><ele>313.0</ele><time>2026-03-29T06:47:15.137Z</time></trkpt><trkpt lat="43.9226204" lon="12.5404688"><ele>313.0</ele><time>2026-03-29T06:47:18.136Z</time></trkpt><trkpt lat="43.9225691" lon="12.5405213"><ele>313.0</ele><time>2026-03-29T06:47:21.113Z</time></trkpt><trkpt lat="43.9225167" lon="12.5405959"><ele>313.0</ele><time>2026-03-29T06:47:25.145Z</time></trkpt><trkpt lat="43.9224815" lon="12.5406693"><ele>313.0</ele><time>2026-03-29T06:47:28.115Z</time></trkpt><trkpt lat="43.9224684" lon="12.5407737"><ele>313.0</ele><time>2026-03-29T06:47:32.148Z</time></trkpt><trkpt lat="43.9224719" lon="12.5408805"><ele>313.0</ele><time>2026-03-29T06:47:36.132Z</time></trkpt><trkpt lat="43.9225052" lon="12.5409837"><ele>313.0</ele><time>2026-03-29T06:47:40.129Z</time></trkpt><trkpt lat="43.9225658" lon="12.5410698"><ele>313.0</ele><time>2026-03-29T06:47:44.139Z</time></trkpt><trkpt lat="43.9226183" lon="12.5411333"><ele>313.0</ele><time>2026-03-29T06:47:47.112Z</time></trkpt><trkpt lat="43.9226714" lon="12.5411861"><ele>313.0</ele><time>2026-03-29T06:47:50.086Z</time></trkpt><trkpt lat="43.9227394" lon="12.54125"><ele>313.0</ele><time>2026-03-29T06:47:54.118Z</time></trkpt><trkpt lat="43.9227899" lon="12.5413049"><ele>313.0</ele><time>2026-03-29T06:47:57.098Z</time></trkpt><trkpt lat="43.9228425" lon="12.5413639"><ele>313.0</ele><time>2026-03-29T06:48:00.147Z</time></trkpt><trkpt lat="43.9228824" lon="12.5414351"><ele>313.0</ele><time>2026-03-29T06:48:03.132Z</time></trkpt><trkpt lat="43.9229117" lon="12.5415139"><ele>313.2857142857143</ele><time>2026-03-29T06:48:06.144Z</time></trkpt><trkpt lat="43.9229385" lon="12.5416003"><ele>313.57142857142856</ele><time>2026-03-29T06:48:09.139Z</time></trkpt><trkpt lat="43.9229464" lon="12.5417133"><ele>313.8571428571429</ele><time>2026-03-29T06:48:12.1Z</time></trkpt><trkpt lat="43.9229444" lon="12.541811"><ele>314.1428571428571</ele><time>2026-03-29T06:48:15.137Z</time></trkpt><trkpt lat="43.9229382" lon="12.5419156"><ele>314.42857142857144</ele><time>2026-03-29T06:48:18.137Z</time></trkpt><trkpt lat="43.922917" lon="12.5420207"><ele>314.7142857142857</ele><time>2026-03-29T06:48:21.124Z</time></trkpt><trkpt lat="43.9228881" lon="12.5421081"><ele>315.0</ele><time>2026-03-29T06:48:24.077Z</time></trkpt><trkpt lat="43.9228518" lon="12.5421944"><ele>315.0</ele><time>2026-03-29T06:48:27.137Z</time></trkpt><trkpt lat="43.9228086" lon="12.5422697"><ele>315.0</ele><time>2026-03-29T06:48:30.143Z</time></trkpt><trkpt lat="43.922764" lon="12.5423364"><ele>315.0</ele><time>2026-03-29T06:48:33.129Z</time></trkpt><trkpt lat="43.9227169" lon="12.5423976"><ele>315.0</ele><time>2026-03-29T06:48:36.141Z</time></trkpt><trkpt lat="43.9226628" lon="12.5424736"><ele>315.0</ele><time>2026-03-29T06:48:40.127Z</time></trkpt><trkpt lat="43.92261" lon="12.5425432"><ele>315.0</ele><time>2026-03-29T06:48:43.13Z</time></trkpt><trkpt lat="43.922562" lon="12.5426249"><ele>315.0</ele><time>2026-03-29T06:48:47.134Z</time></trkpt><trkpt lat="43.9225067" lon="12.5427075"><ele>317.2857142857143</ele><time>2026-03-29T06:48:51.136Z</time></trkpt><trkpt lat="43.9224607" lon="12.5427783"><ele>319.57142857142856</ele><time>2026-03-29T06:48:54.139Z</time></trkpt><trkpt lat="43.9224007" lon="12.5428497"><ele>321.8571428571429</ele><time>2026-03-29T06:48:58.113Z</time></trkpt><trkpt lat="43.9223479" lon="12.5429149"><ele>324.1428571428571</ele><time>2026-03-29T06:49:01.124Z</time></trkpt><trkpt lat="43.9222828" lon="12.542963"><ele>326.42857142857144</ele><time>2026-03-29T06:49:05.135Z</time></trkpt><trkpt lat="43.922208" lon="12.5430153"><ele>328.7142857142857</ele><time>2026-03-29T06:49:09.125Z</time></trkpt><trkpt lat="43.9221401" lon="12.5430361"><ele>331.0</ele><time>2026-03-29T06:49:12.118Z</time></trkpt><trkpt lat="43.9220638" lon="12.5430578"><ele>331.0</ele><time>2026-03-29T06:49:16.116Z</time></trkpt><trkpt lat="43.921989" lon="12.5430726"><ele>331.0</ele><time>2026-03-29T06:49:20.115Z</time></trkpt><trkpt lat="43.9219148" lon="12.5430758"><ele>331.0</ele><time>2026-03-29T06:49:25.133Z</time></trkpt><trkpt lat="43.921847" lon="12.5430882"><ele>331.0</ele><time>2026-03-29T06:49:30.125Z</time></trkpt><trkpt lat="43.9217806" lon="12.5430917"><ele>331.0</ele><time>2026-03-29T06:49:34.125Z</time></trkpt><trkpt lat="43.9217044" lon="12.5430852"><ele>331.0</ele><time>2026-03-29T06:49:38.126Z</time></trkpt><trkpt lat="43.9216217" lon="12.5430909"><ele>331.0</ele><time>2026-03-29T06:49:42.096Z</time></trkpt><trkpt lat="43.9215503" lon="12.543093"><ele>333.66666666666663</ele><time>2026-03-29T06:49:46.125Z</time></trkpt><trkpt lat="43.9214837" lon="12.5430786"><ele>336.3333333333333</ele><time>2026-03-29T06:49:49.129Z</time></trkpt><trkpt lat="43.9214111" lon="12.5430796"><ele>339.0</ele><time>2026-03-29T06:49:52.123Z</time></trkpt><trkpt lat="43.9213368" lon="12.5430688"><ele>341.6666666666667</ele><time>2026-03-29T06:49:55.119Z</time></trkpt><trkpt lat="43.9212593" lon="12.5430727"><ele>344.33333333333337</ele><time>2026-03-29T06:49:58.123Z</time></trkpt><trkpt lat="43.9211797" lon="12.5430901"><ele>347.0</ele><time>2026-03-29T06:50:01.144Z</time></trkpt><trkpt lat="43.9211033" lon="12.5431246"><ele>347.0</ele><time>2026-03-29T06:50:05.099Z</time></trkpt><trkpt lat="43.9210437" lon="12.5431559"><ele>347.0</ele><time>2026-03-29T06:50:08.135Z</time></trkpt><trkpt lat="43.9209808" lon="12.5432086"><ele>347.0</ele><time>2026-03-29T06:50:11.126Z</time></trkpt><trkpt lat="43.920916" lon="12.5432843"><ele>347.0</ele><time>2026-03-29T06:50:14.121Z</time></trkpt><trkpt lat="43.9208623" lon="12.5433561"><ele>347.0</ele><time>2026-03-29T06:50:17.139Z</time></trkpt><trkpt lat="43.9208158" lon="12.5434515"><ele>347.0</ele><time>2026-03-29T06:50:20.139Z</time></trkpt><trkpt lat="43.9207786" lon="12.5435551"><ele>347.83333333333337</ele><time>2026-03-29T06:50:23.122Z</time></trkpt><trkpt lat="43.9207428" lon="12.5436671"><ele>348.6666666666667</ele><time>2026-03-29T06:50:26.138Z</time></trkpt><trkpt lat="43.9207044" lon="12.5437665"><ele>349.5</ele><time>2026-03-29T06:50:29.075Z</time></trkpt><trkpt lat="43.9206403" lon="12.5438053"><ele>350.3333333333333</ele><time>2026-03-29T06:50:32.149Z</time></trkpt><trkpt lat="43.9205878" lon="12.5438783"><ele>351.16666666666663</ele><time>2026-03-29T06:50:35.138Z</time></trkpt><trkpt lat="43.9205321" lon="12.543939"><ele>352.0</ele><time>2026-03-29T06:50:38.133Z</time></trkpt><trkpt lat="43.9204658" lon="12.543998"><ele>352.0</ele><time>2026-03-29T06:50:41.134Z</time></trkpt><trkpt lat="43.9204044" lon="12.5440523"><ele>352.0</ele><time>2026-03-29T06:50:44.141Z</time></trkpt><trkpt lat="43.9203483" lon="12.5441129"><ele>352.0</ele><time>2026-03-29T06:50:47.138Z</time></trkpt><trkpt lat="43.9202894" lon="12.5441869"><ele>352.0</ele><time>2026-03-29T06:50:50.118Z</time></trkpt><trkpt lat="43.9202338" lon="12.544244"><ele>352.0</ele><time>2026-03-29T06:50:53.135Z</time></trkpt><trkpt lat="43.9201739" lon="12.5442991"><ele>352.0</ele><time>2026-03-29T06:50:56.13Z</time></trkpt><trkpt lat="43.9201191" lon="12.5443598"><ele>352.0</ele><time>2026-03-29T06:50:59.135Z</time></trkpt><trkpt lat="43.9200645" lon="12.5444228"><ele>353.42857142857144</ele><time>2026-03-29T06:51:02.131Z</time></trkpt><trkpt lat="43.9200103" lon="12.5444914"><ele>354.85714285714283</ele><time>2026-03-29T06:51:05.127Z</time></trkpt><trkpt lat="43.9199526" lon="12.5445626"><ele>356.2857142857143</ele><time>2026-03-29T06:51:08.096Z</time></trkpt><trkpt lat="43.9198997" lon="12.5446188"><ele>357.7142857142857</ele><time>2026-03-29T06:51:11.17Z</time></trkpt><trkpt lat="43.9198336" lon="12.5446876"><ele>359.1428571428571</ele><time>2026-03-29T06:51:15.13Z</time></trkpt><trkpt lat="43.919786" lon="12.5447597"><ele>360.57142857142856</ele><time>2026-03-29T06:51:18.131Z</time></trkpt><trkpt lat="43.9197325" lon="12.5448109"><ele>362.0</ele><time>2026-03-29T06:51:21.125Z</time></trkpt><trkpt lat="43.919665" lon="12.5448103"><ele>362.0</ele><time>2026-03-29T06:51:24.142Z</time></trkpt><trkpt lat="43.919616" lon="12.544753"><ele>362.0</ele><time>2026-03-29T06:51:27.118Z</time></trkpt><trkpt lat="43.9196099" lon="12.5446471"><ele>362.0</ele><time>2026-03-29T06:51:31.068Z</time></trkpt><trkpt lat="43.9196145" lon="12.5445359"><ele>362.0</ele><time>2026-03-29T06:51:34.118Z</time></trkpt><trkpt lat="43.9196206" lon="12.54442"><ele>362.0</ele><time>2026-03-29T06:51:37.123Z</time></trkpt><trkpt lat="43.9196239" lon="12.5442953"><ele>362.0</ele><time>2026-03-29T06:51:40.121Z</time></trkpt><trkpt lat="43.9196203" lon="12.5441622"><ele>363.0</ele><time>2026-03-29T06:51:43.124Z</time></trkpt><trkpt lat="43.9196185" lon="12.5440696"><ele>364.0</ele><time>2026-03-29T06:51:45.125Z</time></trkpt><trkpt lat="43.9196235" lon="12.5439541"><ele>365.0</ele><time>2026-03-29T06:51:47.143Z</time></trkpt><trkpt lat="43.9196171" lon="12.5437934"><ele>366.0</ele><time>2026-03-29T06:51:49.132Z</time></trkpt><trkpt lat="43.9196182" lon="12.5436493"><ele>367.0</ele><time>2026-03-29T06:51:51.106Z</time></trkpt><trkpt lat="43.9196051" lon="12.5434782"><ele>367.57142857142856</ele><time>2026-03-29T06:51:53.129Z</time></trkpt><trkpt lat="43.9196003" lon="12.5433864"><ele>368.14285714285717</ele><time>2026-03-29T06:51:54.124Z</time></trkpt><trkpt lat="43.9195995" lon="12.5432873"><ele>368.7142857142857</ele><time>2026-03-29T06:51:55.115Z</time></trkpt><trkpt lat="43.9196026" lon="12.5431906"><ele>369.2857142857143</ele><time>2026-03-29T06:51:56.112Z</time></trkpt><trkpt lat="43.9196051" lon="12.5430961"><ele>369.8571428571429</ele><time>2026-03-29T06:51:57.081Z</time></trkpt><trkpt lat="43.9196051" lon="12.5430006"><ele>370.42857142857144</ele><time>2026-03-29T06:51:58.111Z</time></trkpt><trkpt lat="43.9196075" lon="12.5429054"><ele>371.0</ele><time>2026-03-29T06:51:59.132Z</time></trkpt><trkpt lat="43.9196036" lon="12.542818"><ele>371.0</ele><time>2026-03-29T06:52:00.139Z</time></trkpt><trkpt lat="43.9195835" lon="12.5426499"><ele>371.0</ele><time>2026-03-29T06:52:02.112Z</time></trkpt><trkpt lat="43.9195341" lon="12.5424869"><ele>371.0</ele><time>2026-03-29T06:52:04.108Z</time></trkpt><trkpt lat="43.9195106" lon="12.5424036"><ele>371.0</ele><time>2026-03-29T06:52:05.131Z</time></trkpt><trkpt lat="43.9194876" lon="12.5423167"><ele>371.0</ele><time>2026-03-29T06:52:06.138Z</time></trkpt><trkpt lat="43.9194282" lon="12.5421621"><ele>371.0</ele><time>2026-03-29T06:52:08.101Z</time></trkpt><trkpt lat="43.9193986" lon="12.5420845"><ele>371.0</ele><time>2026-03-29T06:52:09.129Z</time></trkpt><trkpt lat="43.9193485" lon="12.5419456"><ele>371.0</ele><time>2026-03-29T06:52:11.11Z</time></trkpt><trkpt lat="43.9193079" lon="12.5418117"><ele>371.0</ele><time>2026-03-29T06:52:13.123Z</time></trkpt><trkpt lat="43.919282" lon="12.5416824"><ele>371.0</ele><time>2026-03-29T06:52:15.12Z</time></trkpt><trkpt lat="43.91924" lon="12.5415862"><ele>370.83333333333337</ele><time>2026-03-29T06:52:17.12Z</time></trkpt><trkpt lat="43.9191765" lon="12.5415045"><ele>370.6666666666667</ele><time>2026-03-29T06:52:19.126Z</time></trkpt><trkpt lat="43.9191302" lon="12.5414189"><ele>370.5</ele><time>2026-03-29T06:52:21.115Z</time></trkpt><trkpt lat="43.9190735" lon="12.541321"><ele>370.3333333333333</ele><time>2026-03-29T06:52:24.11Z</time></trkpt><trkpt lat="43.9190045" lon="12.5412398"><ele>370.16666666666663</ele><time>2026-03-29T06:52:27.132Z</time></trkpt><trkpt lat="43.9189542" lon="12.5411853"><ele>370.0</ele><time>2026-03-29T06:52:29.122Z</time></trkpt><trkpt lat="43.9189055" lon="12.5411231"><ele>370.3333333333333</ele><time>2026-03-29T06:52:31.118Z</time></trkpt><trkpt lat="43.9188577" lon="12.5410662"><ele>370.66666666666663</ele><time>2026-03-29T06:52:33.102Z</time></trkpt><trkpt lat="43.9188177" lon="12.5409891"><ele>371.0</ele><time>2026-03-29T06:52:35.143Z</time></trkpt><trkpt lat="43.9187589" lon="12.5409208"><ele>371.3333333333333</ele><time>2026-03-29T06:52:38.097Z</time></trkpt><trkpt lat="43.9186979" lon="12.5408238"><ele>371.6666666666667</ele><time>2026-03-29T06:52:41.119Z</time></trkpt><trkpt lat="43.9186395" lon="12.5407289"><ele>372.0</ele><time>2026-03-29T06:52:44.134Z</time></trkpt><trkpt lat="43.9185798" lon="12.5406563"><ele>372.0</ele><time>2026-03-29T06:52:47.128Z</time></trkpt><trkpt lat="43.9185521" lon="12.540557"><ele>372.0</ele><time>2026-03-29T06:52:50.122Z</time></trkpt><trkpt lat="43.9185579" lon="12.5404233"><ele>372.0</ele><time>2026-03-29T06:52:53.11Z</time></trkpt><trkpt lat="43.9185676" lon="12.5403212"><ele>372.0</ele><time>2026-03-29T06:52:55.122Z</time></trkpt><trkpt lat="43.9185758" lon="12.5402192"><ele>372.0</ele><time>2026-03-29T06:52:57.131Z</time></trkpt><trkpt lat="43.9185889" lon="12.5401127"><ele>372.0</ele><time>2026-03-29T06:52:59.129Z</time></trkpt><trkpt lat="43.9185967" lon="12.5400172"><ele>371.8571428571429</ele><time>2026-03-29T06:53:01.118Z</time></trkpt><trkpt lat="43.9185982" lon="12.539928"><ele>371.7142857142857</ele><time>2026-03-29T06:53:03.134Z</time></trkpt><trkpt lat="43.9186026" lon="12.5398264"><ele>371.57142857142856</ele><time>2026-03-29T06:53:05.141Z</time></trkpt><trkpt lat="43.9186102" lon="12.5397256"><ele>371.42857142857144</ele><time>2026-03-29T06:53:07.167Z</time></trkpt><trkpt lat="43.9186107" lon="12.5396343"><ele>371.2857142857143</ele><time>2026-03-29T06:53:09.143Z</time></trkpt><trkpt lat="43.9186287" lon="12.5395038"><ele>371.14285714285717</ele><time>2026-03-29T06:53:12.12Z</time></trkpt><trkpt lat="43.9186425" lon="12.5394071"><ele>371.0</ele><time>2026-03-29T06:53:14.133Z</time></trkpt><trkpt lat="43.9186478" lon="12.5393111"><ele>370.14285714285717</ele><time>2026-03-29T06:53:16.098Z</time></trkpt><trkpt lat="43.9186511" lon="12.5392095"><ele>369.2857142857143</ele><time>2026-03-29T06:53:18.138Z</time></trkpt><trkpt lat="43.918652" lon="12.539103"><ele>368.42857142857144</ele><time>2026-03-29T06:53:20.137Z</time></trkpt><trkpt lat="43.9186454" lon="12.5390021"><ele>367.57142857142856</ele><time>2026-03-29T06:53:22.136Z</time></trkpt><trkpt lat="43.9186332" lon="12.5388987"><ele>366.7142857142857</ele><time>2026-03-29T06:53:24.138Z</time></trkpt><trkpt lat="43.9186204" lon="12.5388013"><ele>365.8571428571429</ele><time>2026-03-29T06:53:26.138Z</time></trkpt><trkpt lat="43.918611" lon="12.538702"><ele>365.0</ele><time>2026-03-29T06:53:28.096Z</time></trkpt><trkpt lat="43.9185945" lon="12.5385802"><ele>365.0</ele><time>2026-03-29T06:53:31.127Z</time></trkpt><trkpt lat="43.9186055" lon="12.5384576"><ele>365.0</ele><time>2026-03-29T06:53:34.104Z</time></trkpt><trkpt lat="43.9186241" lon="12.5383691"><ele>365.0</ele><time>2026-03-29T06:53:36.139Z</time></trkpt><trkpt lat="43.9186401" lon="12.5382635"><ele>365.0</ele><time>2026-03-29T06:53:38.133Z</time></trkpt><trkpt lat="43.9186618" lon="12.5381682"><ele>365.0</ele><time>2026-03-29T06:53:40.139Z</time></trkpt><trkpt lat="43.9186891" lon="12.5380573"><ele>365.0</ele><time>2026-03-29T06:53:42.128Z</time></trkpt><trkpt lat="43.9187134" lon="12.5379425"><ele>366.4</ele><time>2026-03-29T06:53:44.138Z</time></trkpt><trkpt lat="43.9187448" lon="12.5378239"><ele>367.8</ele><time>2026-03-29T06:53:46.139Z</time></trkpt><trkpt lat="43.9187852" lon="12.537697"><ele>369.20000000000005</ele><time>2026-03-29T06:53:48.135Z</time></trkpt><trkpt lat="43.9188265" lon="12.5375719"><ele>370.6</ele><time>2026-03-29T06:53:50.132Z</time></trkpt><trkpt lat="43.9188727" lon="12.5374261"><ele>372.0</ele><time>2026-03-29T06:53:52.099Z</time></trkpt><trkpt lat="43.9189191" lon="12.5372813"><ele>372.0</ele><time>2026-03-29T06:53:54.144Z</time></trkpt><trkpt lat="43.9189655" lon="12.5371242"><ele>372.0</ele><time>2026-03-29T06:53:56.138Z</time></trkpt><trkpt lat="43.9189891" lon="12.5370371"><ele>372.0</ele><time>2026-03-29T06:53:57.125Z</time></trkpt><trkpt lat="43.9190204" lon="12.5369553"><ele>372.0</ele><time>2026-03-29T06:53:58.145Z</time></trkpt><trkpt lat="43.919042" lon="12.5368671"><ele>372.0</ele><time>2026-03-29T06:53:59.144Z</time></trkpt><trkpt lat="43.9190631" lon="12.5367746"><ele>372.0</ele><time>2026-03-29T06:54:00.137Z</time></trkpt><trkpt lat="43.9190815" lon="12.5366822"><ele>373.3333333333333</ele><time>2026-03-29T06:54:01.146Z</time></trkpt><trkpt lat="43.9191004" lon="12.5365672"><ele>374.6666666666667</ele><time>2026-03-29T06:54:02.136Z</time></trkpt><trkpt lat="43.9191202" lon="12.5364501"><ele>376.0</ele><time>2026-03-29T06:54:03.148Z</time></trkpt><trkpt lat="43.9191422" lon="12.5363299"><ele>377.33333333333337</ele><time>2026-03-29T06:54:04.155Z</time></trkpt><trkpt lat="43.9191658" lon="12.5362066"><ele>378.6666666666667</ele><time>2026-03-29T06:54:05.149Z</time></trkpt><trkpt lat="43.9191965" lon="12.5360959"><ele>380.0</ele><time>2026-03-29T06:54:06.138Z</time></trkpt><trkpt lat="43.9192292" lon="12.5359953"><ele>377.1666666666667</ele><time>2026-03-29T06:54:07.107Z</time></trkpt><trkpt lat="43.9192742" lon="12.5359092"><ele>374.33333333333337</ele><time>2026-03-29T06:54:08.111Z</time></trkpt><trkpt lat="43.9193217" lon="12.5358169"><ele>371.5</ele><time>2026-03-29T06:54:09.131Z</time></trkpt><trkpt lat="43.9193842" lon="12.5357278"><ele>368.6666666666667</ele><time>2026-03-29T06:54:10.122Z</time></trkpt><trkpt lat="43.9194522" lon="12.5356586"><ele>365.8333333333333</ele><time>2026-03-29T06:54:11.101Z</time></trkpt><trkpt lat="43.9195189" lon="12.535599"><ele>363.0</ele><time>2026-03-29T06:54:12.09Z</time></trkpt><trkpt lat="43.9195897" lon="12.5355481"><ele>363.0</ele><time>2026-03-29T06:54:13.112Z</time></trkpt><trkpt lat="43.9196616" lon="12.5355024"><ele>363.0</ele><time>2026-03-29T06:54:14.129Z</time></trkpt><trkpt lat="43.9197316" lon="12.5354466"><ele>363.0</ele><time>2026-03-29T06:54:15.138Z</time></trkpt><trkpt lat="43.9197986" lon="12.5353864"><ele>363.0</ele><time>2026-03-29T06:54:16.154Z</time></trkpt><trkpt lat="43.9198612" lon="12.5353207"><ele>363.0</ele><time>2026-03-29T06:54:17.114Z</time></trkpt><trkpt lat="43.9199186" lon="12.5352416"><ele>363.0</ele><time>2026-03-29T06:54:18.094Z</time></trkpt><trkpt lat="43.9199748" lon="12.5351598"><ele>363.0</ele><time>2026-03-29T06:54:19.121Z</time></trkpt><trkpt lat="43.9200223" lon="12.5350758"><ele>363.0</ele><time>2026-03-29T06:54:20.131Z</time></trkpt><trkpt lat="43.9200767" lon="12.5349919"><ele>363.0</ele><time>2026-03-29T06:54:21.125Z</time></trkpt><trkpt lat="43.9201367" lon="12.5349057"><ele>363.0</ele><time>2026-03-29T06:54:22.12Z</time></trkpt><trkpt lat="43.9201993" lon="12.5348268"><ele>363.0</ele><time>2026-03-29T06:54:23.135Z</time></trkpt><trkpt lat="43.920265" lon="12.5347585"><ele>363.0</ele><time>2026-03-29T06:54:24.101Z</time></trkpt><trkpt lat="43.9203372" lon="12.5346948"><ele>363.0</ele><time>2026-03-29T06:54:25.122Z</time></trkpt><trkpt lat="43.920411" lon="12.5346454"><ele>363.0</ele><time>2026-03-29T06:54:26.129Z</time></trkpt><trkpt lat="43.9204825" lon="12.5346034"><ele>363.0</ele><time>2026-03-29T06:54:27.079Z</time></trkpt><trkpt lat="43.9205545" lon="12.5345601"><ele>363.0</ele><time>2026-03-29T06:54:28.106Z</time></trkpt><trkpt lat="43.9206271" lon="12.5345123"><ele>363.0</ele><time>2026-03-29T06:54:29.112Z</time></trkpt><trkpt lat="43.9207006" lon="12.5344599"><ele>363.0</ele><time>2026-03-29T06:54:30.125Z</time></trkpt><trkpt lat="43.9207638" lon="12.5344062"><ele>361.99999999999994</ele><time>2026-03-29T06:54:31.126Z</time></trkpt><trkpt lat="43.9208251" lon="12.5343397"><ele>361.0</ele><time>2026-03-29T06:54:32.122Z</time></trkpt><trkpt lat="43.920877" lon="12.5342774"><ele>360.0</ele><time>2026-03-29T06:54:33.13Z</time></trkpt><trkpt lat="43.9209196" lon="12.5342101"><ele>359.0</ele><time>2026-03-29T06:54:34.11Z</time></trkpt><trkpt lat="43.9209585" lon="12.5341274"><ele>358.0</ele><time>2026-03-29T06:54:35.12Z</time></trkpt><trkpt lat="43.920986" lon="12.5340481"><ele>356.99999999999994</ele><time>2026-03-29T06:54:36.096Z</time></trkpt><trkpt lat="43.9210119" lon="12.5339653"><ele>356.0</ele><time>2026-03-29T06:54:37.119Z</time></trkpt><trkpt lat="43.9210303" lon="12.5338812"><ele>356.0</ele><time>2026-03-29T06:54:38.113Z</time></trkpt><trkpt lat="43.9210592" lon="12.5337254"><ele>356.0</ele><time>2026-03-29T06:54:40.133Z</time></trkpt><trkpt lat="43.9210819" lon="12.533576"><ele>356.0</ele><time>2026-03-29T06:54:42.139Z</time></trkpt><trkpt lat="43.9210941" lon="12.533448"><ele>356.0</ele><time>2026-03-29T06:54:44.129Z</time></trkpt><trkpt lat="43.9211051" lon="12.533329"><ele>356.0</ele><time>2026-03-29T06:54:46.132Z</time></trkpt><trkpt lat="43.9211274" lon="12.5332201"><ele>356.6</ele><time>2026-03-29T06:54:48.136Z</time></trkpt><trkpt lat="43.9211523" lon="12.5331003"><ele>357.20000000000005</ele><time>2026-03-29T06:54:50.139Z</time></trkpt><trkpt lat="43.9211835" lon="12.5329834"><ele>357.79999999999995</ele><time>2026-03-29T06:54:52.138Z</time></trkpt><trkpt lat="43.9212331" lon="12.5328714"><ele>358.4</ele><time>2026-03-29T06:54:54.134Z</time></trkpt><trkpt lat="43.921281" lon="12.5327619"><ele>359.0</ele><time>2026-03-29T06:54:56.121Z</time></trkpt><trkpt lat="43.9213409" lon="12.5326584"><ele>361.0</ele><time>2026-03-29T06:54:58.138Z</time></trkpt><trkpt lat="43.9213922" lon="12.5325643"><ele>363.0</ele><time>2026-03-29T06:55:00.145Z</time></trkpt><trkpt lat="43.9214405" lon="12.532471"><ele>365.0</ele><time>2026-03-29T06:55:02.145Z</time></trkpt><trkpt lat="43.9214868" lon="12.5323789"><ele>367.0</ele><time>2026-03-29T06:55:04.108Z</time></trkpt><trkpt lat="43.92153" lon="12.5322959"><ele>369.0</ele><time>2026-03-29T06:55:06.128Z</time></trkpt><trkpt lat="43.921583" lon="12.5321874"><ele>371.0</ele><time>2026-03-29T06:55:09.093Z</time></trkpt><trkpt lat="43.9216394" lon="12.5320828"><ele>372.6666666666667</ele><time>2026-03-29T06:55:12.133Z</time></trkpt><trkpt lat="43.9216835" lon="12.5319657"><ele>374.33333333333337</ele><time>2026-03-29T06:55:15.1Z</time></trkpt><trkpt lat="43.9217134" lon="12.5318706"><ele>376.0</ele><time>2026-03-29T06:55:17.114Z</time></trkpt><trkpt lat="43.9217357" lon="12.5317888"><ele>377.6666666666667</ele><time>2026-03-29T06:55:19.127Z</time></trkpt><trkpt lat="43.921755" lon="12.5316828"><ele>379.3333333333333</ele><time>2026-03-29T06:55:22.118Z</time></trkpt><trkpt lat="43.9217661" lon="12.5315866"><ele>381.0</ele><time>2026-03-29T06:55:24.147Z</time></trkpt><trkpt lat="43.9217735" lon="12.5314529"><ele>381.6666666666667</ele><time>2026-03-29T06:55:27.122Z</time></trkpt><trkpt lat="43.9217744" lon="12.5313216"><ele>382.33333333333337</ele><time>2026-03-29T06:55:30.116Z</time></trkpt><trkpt lat="43.921766" lon="12.5312324"><ele>383.0</ele><time>2026-03-29T06:55:32.086Z</time></trkpt><trkpt lat="43.9217494" lon="12.5311078"><ele>383.6666666666667</ele><time>2026-03-29T06:55:35.138Z</time></trkpt><trkpt lat="43.9217247" lon="12.5310118"><ele>384.33333333333337</ele><time>2026-03-29T06:55:38.076Z</time></trkpt><trkpt lat="43.9217044" lon="12.5309074"><ele>385.0</ele><time>2026-03-29T06:55:41.14Z</time></trkpt><trkpt lat="43.921681" lon="12.5308067"><ele>385.00000000000006</ele><time>2026-03-29T06:55:44.109Z</time></trkpt><trkpt lat="43.9216309" lon="12.5307167"><ele>385.0</ele><time>2026-03-29T06:55:47.132Z</time></trkpt><trkpt lat="43.9215871" lon="12.5306318"><ele>385.0</ele><time>2026-03-29T06:55:50.136Z</time></trkpt><trkpt lat="43.9215416" lon="12.5305524"><ele>385.0</ele><time>2026-03-29T06:55:53.068Z</time></trkpt><trkpt lat="43.9214941" lon="12.5304671"><ele>385.00000000000006</ele><time>2026-03-29T06:55:56.106Z</time></trkpt><trkpt lat="43.9214517" lon="12.5303718"><ele>385.0</ele><time>2026-03-29T06:55:59.151Z</time></trkpt><trkpt lat="43.9214177" lon="12.5302695"><ele>383.6666666666667</ele><time>2026-03-29T06:56:02.121Z</time></trkpt><trkpt lat="43.9213947" lon="12.5301654"><ele>382.33333333333337</ele><time>2026-03-29T06:56:05.12Z</time></trkpt><trkpt lat="43.9213666" lon="12.530064"><ele>381.0</ele><time>2026-03-29T06:56:08.132Z</time></trkpt><trkpt lat="43.9213335" lon="12.5299623"><ele>379.6666666666667</ele><time>2026-03-29T06:56:11.115Z</time></trkpt><trkpt lat="43.9213006" lon="12.5298693"><ele>378.33333333333337</ele><time>2026-03-29T06:56:14.118Z</time></trkpt><trkpt lat="43.9212741" lon="12.5297525"><ele>377.0</ele><time>2026-03-29T06:56:17.103Z</time></trkpt><trkpt lat="43.9212302" lon="12.5296439"><ele>376.6666666666667</ele><time>2026-03-29T06:56:20.126Z</time></trkpt><trkpt lat="43.9211959" lon="12.5295226"><ele>376.33333333333337</ele><time>2026-03-29T06:56:23.126Z</time></trkpt><trkpt lat="43.9211668" lon="12.5294434"><ele>376.0</ele><time>2026-03-29T06:56:25.124Z</time></trkpt><trkpt lat="43.9211449" lon="12.52935"><ele>375.6666666666667</ele><time>2026-03-29T06:56:27.136Z</time></trkpt><trkpt lat="43.9211263" lon="12.529258"><ele>375.3333333333333</ele><time>2026-03-29T06:56:29.137Z</time></trkpt><trkpt lat="43.9211084" lon="12.5291397"><ele>375.0</ele><time>2026-03-29T06:56:31.117Z</time></trkpt><trkpt lat="43.9210949" lon="12.5290096"><ele>375.0</ele><time>2026-03-29T06:56:33.114Z</time></trkpt><trkpt lat="43.9210946" lon="12.5288948"><ele>375.0</ele><time>2026-03-29T06:56:35.105Z</time></trkpt><trkpt lat="43.9211029" lon="12.5287721"><ele>375.0</ele><time>2026-03-29T06:56:37.124Z</time></trkpt><trkpt lat="43.9211205" lon="12.5286545"><ele>375.0</ele><time>2026-03-29T06:56:39.13Z</time></trkpt><trkpt lat="43.9211401" lon="12.5285424"><ele>375.0</ele><time>2026-03-29T06:56:41.142Z</time></trkpt><trkpt lat="43.9211699" lon="12.5284174"><ele>375.0</ele><time>2026-03-29T06:56:43.11Z</time></trkpt><trkpt lat="43.921198" lon="12.5282965"><ele>376.0</ele><time>2026-03-29T06:56:45.128Z</time></trkpt><trkpt lat="43.9212257" lon="12.5281744"><ele>377.0</ele><time>2026-03-29T06:56:47.124Z</time></trkpt><trkpt lat="43.9212504" lon="12.5280588"><ele>378.0</ele><time>2026-03-29T06:56:49.109Z</time></trkpt><trkpt lat="43.9212726" lon="12.527941"><ele>379.0</ele><time>2026-03-29T06:56:51.126Z</time></trkpt><trkpt lat="43.9213071" lon="12.5278156"><ele>380.0</ele><time>2026-03-29T06:56:53.122Z</time></trkpt><trkpt lat="43.9213473" lon="12.5276978"><ele>382.4</ele><time>2026-03-29T06:56:55.136Z</time></trkpt><trkpt lat="43.9214007" lon="12.527591"><ele>384.8</ele><time>2026-03-29T06:56:57.137Z</time></trkpt><trkpt lat="43.9214586" lon="12.5274798"><ele>387.20000000000005</ele><time>2026-03-29T06:56:59.11Z</time></trkpt><trkpt lat="43.9215252" lon="12.5273844"><ele>389.6</ele><time>2026-03-29T06:57:01.127Z</time></trkpt><trkpt lat="43.9216086" lon="12.527294"><ele>392.0</ele><time>2026-03-29T06:57:03.111Z</time></trkpt><trkpt lat="43.921695" lon="12.5272354"><ele>391.66666666666663</ele><time>2026-03-29T06:57:05.122Z</time></trkpt><trkpt lat="43.9217909" lon="12.527202"><ele>391.3333333333333</ele><time>2026-03-29T06:57:07.122Z</time></trkpt><trkpt lat="43.9218736" lon="12.5271931"><ele>391.0</ele><time>2026-03-29T06:57:09.131Z</time></trkpt><trkpt lat="43.921958" lon="12.5271657"><ele>390.66666666666663</ele><time>2026-03-29T06:57:11.125Z</time></trkpt><trkpt lat="43.9220367" lon="12.5271611"><ele>390.3333333333333</ele><time>2026-03-29T06:57:13.115Z</time></trkpt><trkpt lat="43.9221126" lon="12.5271047"><ele>390.0</ele><time>2026-03-29T06:57:15.113Z</time></trkpt><trkpt lat="43.9221827" lon="12.527014"><ele>390.0</ele><time>2026-03-29T06:57:17.128Z</time></trkpt><trkpt lat="43.9222467" lon="12.5269131"><ele>390.0</ele><time>2026-03-29T06:57:19.088Z</time></trkpt><trkpt lat="43.9223103" lon="12.5267964"><ele>390.0</ele><time>2026-03-29T06:57:21.141Z</time></trkpt><trkpt lat="43.9223621" lon="12.5266693"><ele>390.0</ele><time>2026-03-29T06:57:23.134Z</time></trkpt><trkpt lat="43.9224035" lon="12.526519"><ele>390.0</ele><time>2026-03-29T06:57:25.128Z</time></trkpt><trkpt lat="43.9224308" lon="12.5263648"><ele>392.0</ele><time>2026-03-29T06:57:27.116Z</time></trkpt><trkpt lat="43.9224527" lon="12.5262065"><ele>394.0</ele><time>2026-03-29T06:57:29.129Z</time></trkpt><trkpt lat="43.9224874" lon="12.5260518"><ele>396.0</ele><time>2026-03-29T06:57:31.11Z</time></trkpt><trkpt lat="43.9225415" lon="12.5259065"><ele>398.0</ele><time>2026-03-29T06:57:33.107Z</time></trkpt><trkpt lat="43.9225688" lon="12.5258239"><ele>400.0</ele><time>2026-03-29T06:57:34.124Z</time></trkpt><trkpt lat="43.9226128" lon="12.5256631"><ele>399.00000000000006</ele><time>2026-03-29T06:57:36.117Z</time></trkpt><trkpt lat="43.9226583" lon="12.5255084"><ele>398.0</ele><time>2026-03-29T06:57:38.125Z</time></trkpt><trkpt lat="43.9226897" lon="12.5254305"><ele>397.0</ele><time>2026-03-29T06:57:39.13Z</time></trkpt><trkpt lat="43.9227202" lon="12.5253509"><ele>396.0</ele><time>2026-03-29T06:57:40.13Z</time></trkpt><trkpt lat="43.9228054" lon="12.5252169"><ele>395.00000000000006</ele><time>2026-03-29T06:57:42.124Z</time></trkpt><trkpt lat="43.922862" lon="12.5251739"><ele>394.0</ele><time>2026-03-29T06:57:43.116Z</time></trkpt><trkpt lat="43.9229838" lon="12.5251361"><ele>394.0</ele><time>2026-03-29T06:57:45.097Z</time></trkpt><trkpt lat="43.9230495" lon="12.5251269"><ele>394.0</ele><time>2026-03-29T06:57:46.111Z</time></trkpt><trkpt lat="43.923113" lon="12.5251181"><ele>394.0</ele><time>2026-03-29T06:57:47.124Z</time></trkpt><trkpt lat="43.9231771" lon="12.5250993"><ele>394.0</ele><time>2026-03-29T06:57:48.122Z</time></trkpt><trkpt lat="43.9232407" lon="12.5250866"><ele>394.0</ele><time>2026-03-29T06:57:49.121Z</time></trkpt><trkpt lat="43.9233014" lon="12.5250622"><ele>394.0</ele><time>2026-03-29T06:57:50.139Z</time></trkpt><trkpt lat="43.9233621" lon="12.5250194"><ele>394.0</ele><time>2026-03-29T06:57:51.085Z</time></trkpt><trkpt lat="43.9234255" lon="12.5249747"><ele>390.1666666666667</ele><time>2026-03-29T06:57:52.111Z</time></trkpt><trkpt lat="43.9234792" lon="12.5249216"><ele>386.33333333333337</ele><time>2026-03-29T06:57:53.113Z</time></trkpt><trkpt lat="43.9235434" lon="12.5248754"><ele>382.5</ele><time>2026-03-29T06:57:54.121Z</time></trkpt><trkpt lat="43.9236143" lon="12.5248046"><ele>378.6666666666667</ele><time>2026-03-29T06:57:55.117Z</time></trkpt><trkpt lat="43.9236783" lon="12.5247368"><ele>374.83333333333337</ele><time>2026-03-29T06:57:56.124Z</time></trkpt><trkpt lat="43.9237366" lon="12.5246681"><ele>371.0</ele><time>2026-03-29T06:57:57.126Z</time></trkpt><trkpt lat="43.9237897" lon="12.5245839"><ele>372.5</ele><time>2026-03-29T06:57:58.127Z</time></trkpt><trkpt lat="43.9238358" lon="12.5244921"><ele>374.0</ele><time>2026-03-29T06:57:59.097Z</time></trkpt><trkpt lat="43.9238758" lon="12.5243856"><ele>375.5</ele><time>2026-03-29T06:58:00.109Z</time></trkpt><trkpt lat="43.9239014" lon="12.5242778"><ele>377.0</ele><time>2026-03-29T06:58:01.113Z</time></trkpt><trkpt lat="43.9239158" lon="12.5241681"><ele>378.5</ele><time>2026-03-29T06:58:02.126Z</time></trkpt><trkpt lat="43.9239189" lon="12.52406"><ele>380.0</ele><time>2026-03-29T06:58:03.13Z</time></trkpt><trkpt lat="43.9239229" lon="12.5239382"><ele>380.0</ele><time>2026-03-29T06:58:04.136Z</time></trkpt><trkpt lat="43.9239182" lon="12.5238181"><ele>380.0</ele><time>2026-03-29T06:58:05.091Z</time></trkpt><trkpt lat="43.9238988" lon="12.5237169"><ele>380.0</ele><time>2026-03-29T06:58:06.087Z</time></trkpt><trkpt lat="43.9238708" lon="12.5236085"><ele>380.0</ele><time>2026-03-29T06:58:07.087Z</time></trkpt><trkpt lat="43.9238422" lon="12.5235081"><ele>380.0</ele><time>2026-03-29T06:58:08.079Z</time></trkpt><trkpt lat="43.9238125" lon="12.5234107"><ele>380.0</ele><time>2026-03-29T06:58:09.107Z</time></trkpt><trkpt lat="43.9237784" lon="12.5232998"><ele>379.4</ele><time>2026-03-29T06:58:10.091Z</time></trkpt><trkpt lat="43.923747" lon="12.5231782"><ele>378.8</ele><time>2026-03-29T06:58:11.111Z</time></trkpt><trkpt lat="43.923726" lon="12.5230521"><ele>378.20000000000005</ele><time>2026-03-29T06:58:12.127Z</time></trkpt><trkpt lat="43.9237025" lon="12.5229248"><ele>377.6</ele><time>2026-03-29T06:58:13.12Z</time></trkpt><trkpt lat="43.9236731" lon="12.5228069"><ele>377.0</ele><time>2026-03-29T06:58:14.135Z</time></trkpt><trkpt lat="43.9236334" lon="12.5227021"><ele>376.6666666666667</ele><time>2026-03-29T06:58:15.133Z</time></trkpt><trkpt lat="43.9235895" lon="12.522607"><ele>376.33333333333337</ele><time>2026-03-29T06:58:16.092Z</time></trkpt><trkpt lat="43.9235459" lon="12.5225287"><ele>376.0</ele><time>2026-03-29T06:58:17.119Z</time></trkpt><trkpt lat="43.9234975" lon="12.5224668"><ele>375.6666666666667</ele><time>2026-03-29T06:58:18.123Z</time></trkpt><trkpt lat="43.9234279" lon="12.5223914"><ele>375.3333333333333</ele><time>2026-03-29T06:58:20.126Z</time></trkpt><trkpt lat="43.9233655" lon="12.5223267"><ele>375.0</ele><time>2026-03-29T06:58:23.096Z</time></trkpt><trkpt lat="43.9233076" lon="12.5222445"><ele>376.8571428571429</ele><time>2026-03-29T06:58:27.127Z</time></trkpt><trkpt lat="43.9232547" lon="12.5221685"><ele>378.71428571428567</ele><time>2026-03-29T06:58:31.107Z</time></trkpt><trkpt lat="43.9232052" lon="12.5221105"><ele>380.57142857142856</ele><time>2026-03-29T06:58:34.134Z</time></trkpt><trkpt lat="43.9231564" lon="12.522055"><ele>382.42857142857144</ele><time>2026-03-29T06:58:37.126Z</time></trkpt><trkpt lat="43.9230974" lon="12.5219913"><ele>384.28571428571433</ele><time>2026-03-29T06:58:40.139Z</time></trkpt><trkpt lat="43.9230351" lon="12.5219375"><ele>386.1428571428571</ele><time>2026-03-29T06:58:43.111Z</time></trkpt><trkpt lat="43.9229645" lon="12.5218945"><ele>388.0</ele><time>2026-03-29T06:58:46.12Z</time></trkpt><trkpt lat="43.9228999" lon="12.5218596"><ele>388.0</ele><time>2026-03-29T06:58:49.126Z</time></trkpt><trkpt lat="43.9228315" lon="12.5218204"><ele>388.0</ele><time>2026-03-29T06:58:52.118Z</time></trkpt><trkpt lat="43.922761" lon="12.52178"><ele>388.0</ele><time>2026-03-29T06:58:55.141Z</time></trkpt><trkpt lat="43.9226928" lon="12.5217406"><ele>388.0</ele><time>2026-03-29T06:58:58.138Z</time></trkpt><trkpt lat="43.9226336" lon="12.5216917"><ele>388.0</ele><time>2026-03-29T06:59:01.107Z</time></trkpt><trkpt lat="43.9225627" lon="12.5216454"><ele>388.0</ele><time>2026-03-29T06:59:04.151Z</time></trkpt><trkpt lat="43.922497" lon="12.52162"><ele>388.0</ele><time>2026-03-29T06:59:07.08Z</time></trkpt><trkpt lat="43.9224376" lon="12.5215842"><ele>389.1666666666667</ele><time>2026-03-29T06:59:10.118Z</time></trkpt><trkpt lat="43.9223733" lon="12.5215416"><ele>390.33333333333337</ele><time>2026-03-29T06:59:13.123Z</time></trkpt><trkpt lat="43.9223167" lon="12.5214835"><ele>391.5</ele><time>2026-03-29T06:59:16.112Z</time></trkpt><trkpt lat="43.9222476" lon="12.5214175"><ele>392.66666666666663</ele><time>2026-03-29T06:59:19.124Z</time></trkpt><trkpt lat="43.9222072" lon="12.5212946"><ele>393.8333333333333</ele><time>2026-03-29T06:59:22.129Z</time></trkpt><trkpt lat="43.9221866" lon="12.5212043"><ele>395.0</ele><time>2026-03-29T06:59:24.127Z</time></trkpt><trkpt lat="43.922172" lon="12.5211088"><ele>395.0</ele><time>2026-03-29T06:59:26.125Z</time></trkpt><trkpt lat="43.9221647" lon="12.5210175"><ele>395.0</ele><time>2026-03-29T06:59:28.081Z</time></trkpt><trkpt lat="43.92215" lon="12.5209171"><ele>395.0</ele><time>2026-03-29T06:59:30.081Z</time></trkpt><trkpt lat="43.9221362" lon="12.5208143"><ele>395.0</ele><time>2026-03-29T06:59:32.131Z</time></trkpt><trkpt lat="43.9221133" lon="12.5207207"><ele>395.0</ele><time>2026-03-29T06:59:34.12Z</time></trkpt><trkpt lat="43.9220722" lon="12.5206468"><ele>395.0</ele><time>2026-03-29T06:59:36.132Z</time></trkpt><trkpt lat="43.9219987" lon="12.5205886"><ele>395.0</ele><time>2026-03-29T06:59:39.117Z</time></trkpt><trkpt lat="43.9219355" lon="12.5205748"><ele>394.99999999999994</ele><time>2026-03-29T06:59:41.108Z</time></trkpt><trkpt lat="43.9218679" lon="12.5205735"><ele>395.0</ele><time>2026-03-29T06:59:44.125Z</time></trkpt><trkpt lat="43.9217934" lon="12.5205863"><ele>395.0</ele><time>2026-03-29T06:59:47.116Z</time></trkpt><trkpt lat="43.9216891" lon="12.5206023"><ele>395.0</ele><time>2026-03-29T06:59:49.124Z</time></trkpt><trkpt lat="43.9215775" lon="12.520639"><ele>394.99999999999994</ele><time>2026-03-29T06:59:51.108Z</time></trkpt><trkpt lat="43.9215143" lon="12.5206572"><ele>395.0</ele><time>2026-03-29T06:59:52.132Z</time></trkpt><trkpt lat="43.9214432" lon="12.520674"><ele>396.8</ele><time>2026-03-29T06:59:53.124Z</time></trkpt><trkpt lat="43.9213655" lon="12.5206942"><ele>398.6</ele><time>2026-03-29T06:59:54.129Z</time></trkpt><trkpt lat="43.9212812" lon="12.5207178"><ele>400.4</ele><time>2026-03-29T06:59:55.115Z</time></trkpt><trkpt lat="43.9211908" lon="12.5207524"><ele>402.2</ele><time>2026-03-29T06:59:56.146Z</time></trkpt><trkpt lat="43.9210892" lon="12.5207964"><ele>404.0</ele><time>2026-03-29T06:59:57.131Z</time></trkpt><trkpt lat="43.9209906" lon="12.5208508"><ele>401.0</ele><time>2026-03-29T06:59:58.12Z</time></trkpt><trkpt lat="43.9208883" lon="12.5209122"><ele>398.0</ele><time>2026-03-29T06:59:59.139Z</time></trkpt><trkpt lat="43.9207863" lon="12.5209724"><ele>395.0</ele><time>2026-03-29T07:00:00.132Z</time></trkpt><trkpt lat="43.9206782" lon="12.5210356"><ele>392.0</ele><time>2026-03-29T07:00:01.092Z</time></trkpt><trkpt lat="43.9205706" lon="12.521102"><ele>392.0</ele><time>2026-03-29T07:00:02.101Z</time></trkpt><trkpt lat="43.9204535" lon="12.5211626"><ele>392.0</ele><time>2026-03-29T07:00:03.132Z</time></trkpt><trkpt lat="43.920339" lon="12.5212302"><ele>392.0</ele><time>2026-03-29T07:00:04.125Z</time></trkpt><trkpt lat="43.9202269" lon="12.5212952"><ele>392.0</ele><time>2026-03-29T07:00:05.145Z</time></trkpt><trkpt lat="43.9201193" lon="12.5213567"><ele>392.20000000000005</ele><time>2026-03-29T07:00:06.124Z</time></trkpt><trkpt lat="43.9200182" lon="12.5213992"><ele>392.4</ele><time>2026-03-29T07:00:07.125Z</time></trkpt><trkpt lat="43.9199144" lon="12.5214251"><ele>392.6</ele><time>2026-03-29T07:00:08.129Z</time></trkpt><trkpt lat="43.9198164" lon="12.5214611"><ele>392.79999999999995</ele><time>2026-03-29T07:00:09.123Z</time></trkpt><trkpt lat="43.919723" lon="12.5214999"><ele>393.0</ele><time>2026-03-29T07:00:10.124Z</time></trkpt><trkpt lat="43.9196314" lon="12.5215419"><ele>393.0</ele><time>2026-03-29T07:00:11.14Z</time></trkpt><trkpt lat="43.9195408" lon="12.5215842"><ele>393.0</ele><time>2026-03-29T07:00:12.104Z</time></trkpt><trkpt lat="43.9194364" lon="12.5216039"><ele>393.0</ele><time>2026-03-29T07:00:13.123Z</time></trkpt><trkpt lat="43.9193313" lon="12.5215645"><ele>393.0</ele><time>2026-03-29T07:00:14.12Z</time></trkpt><trkpt lat="43.9192199" lon="12.5215"><ele>393.0</ele><time>2026-03-29T07:00:15.125Z</time></trkpt><trkpt lat="43.9191237" lon="12.5213759"><ele>389.25</ele><time>2026-03-29T07:00:16.114Z</time></trkpt><trkpt lat="43.9190285" lon="12.521257"><ele>385.5</ele><time>2026-03-29T07:00:17.137Z</time></trkpt><trkpt lat="43.9189382" lon="12.5211345"><ele>381.75</ele><time>2026-03-29T07:00:18.121Z</time></trkpt><trkpt lat="43.9188492" lon="12.5210132"><ele>378.0</ele><time>2026-03-29T07:00:19.091Z</time></trkpt><trkpt lat="43.9187541" lon="12.520905"><ele>375.5</ele><time>2026-03-29T07:00:20.094Z</time></trkpt><trkpt lat="43.9186562" lon="12.5207921"><ele>373.0</ele><time>2026-03-29T07:00:21.112Z</time></trkpt><trkpt lat="43.9185544" lon="12.5206751"><ele>370.5</ele><time>2026-03-29T07:00:22.119Z</time></trkpt><trkpt lat="43.9184551" lon="12.5205581"><ele>368.0</ele><time>2026-03-29T07:00:23.123Z</time></trkpt><trkpt lat="43.9183573" lon="12.5204325"><ele>365.0</ele><time>2026-03-29T07:00:24.122Z</time></trkpt><trkpt lat="43.9182678" lon="12.5202953"><ele>362.0</ele><time>2026-03-29T07:00:25.117Z</time></trkpt><trkpt lat="43.9181964" lon="12.5201558"><ele>359.0</ele><time>2026-03-29T07:00:26.12Z</time></trkpt><trkpt lat="43.9181283" lon="12.5200293"><ele>356.0</ele><time>2026-03-29T07:00:27.116Z</time></trkpt><trkpt lat="43.9180309" lon="12.5199706"><ele>356.0</ele><time>2026-03-29T07:00:28.128Z</time></trkpt><trkpt lat="43.9179359" lon="12.5199497"><ele>356.0</ele><time>2026-03-29T07:00:29.13Z</time></trkpt><trkpt lat="43.9178339" lon="12.519968"><ele>356.0</ele><time>2026-03-29T07:00:30.147Z</time></trkpt><trkpt lat="43.9177112" lon="12.5200142"><ele>356.0</ele><time>2026-03-29T07:00:31.122Z</time></trkpt><trkpt lat="43.9176161" lon="12.520081"><ele>356.0</ele><time>2026-03-29T07:00:32.124Z</time></trkpt><trkpt lat="43.9175304" lon="12.520147"><ele>354.4</ele><time>2026-03-29T07:00:33.128Z</time></trkpt><trkpt lat="43.9174345" lon="12.5202187"><ele>352.8</ele><time>2026-03-29T07:00:34.088Z</time></trkpt><trkpt lat="43.9173434" lon="12.5203127"><ele>351.2</ele><time>2026-03-29T07:00:35.141Z</time></trkpt><trkpt lat="43.9172648" lon="12.5204081"><ele>349.59999999999997</ele><time>2026-03-29T07:00:36.139Z</time></trkpt><trkpt lat="43.9172043" lon="12.5204748"><ele>348.0</ele><time>2026-03-29T07:00:37.131Z</time></trkpt><trkpt lat="43.9171263" lon="12.5204837"><ele>348.0</ele><time>2026-03-29T07:00:38.129Z</time></trkpt><trkpt lat="43.9170417" lon="12.520434"><ele>348.0</ele><time>2026-03-29T07:00:39.108Z</time></trkpt><trkpt lat="43.9169779" lon="12.5203426"><ele>348.0</ele><time>2026-03-29T07:00:40.108Z</time></trkpt><trkpt lat="43.9169376" lon="12.5202175"><ele>348.0</ele><time>2026-03-29T07:00:41.139Z</time></trkpt><trkpt lat="43.91691" lon="12.5200996"><ele>348.0</ele><time>2026-03-29T07:00:42.118Z</time></trkpt><trkpt lat="43.9168743" lon="12.5199716"><ele>348.0</ele><time>2026-03-29T07:00:43.118Z</time></trkpt><trkpt lat="43.9168383" lon="12.5198349"><ele>348.0</ele><time>2026-03-29T07:00:44.125Z</time></trkpt><trkpt lat="43.9168037" lon="12.5196889"><ele>348.0</ele><time>2026-03-29T07:00:45.117Z</time></trkpt><trkpt lat="43.916778" lon="12.5195371"><ele>348.0</ele><time>2026-03-29T07:00:46.106Z</time></trkpt><trkpt lat="43.9167529" lon="12.5193764"><ele>348.0</ele><time>2026-03-29T07:00:47.117Z</time></trkpt><trkpt lat="43.9167189" lon="12.5192093"><ele>342.75</ele><time>2026-03-29T07:00:48.134Z</time></trkpt><trkpt lat="43.9166697" lon="12.5190553"><ele>337.5</ele><time>2026-03-29T07:00:49.128Z</time></trkpt><trkpt lat="43.9165995" lon="12.5189159"><ele>332.25</ele><time>2026-03-29T07:00:50.12Z</time></trkpt><trkpt lat="43.9165273" lon="12.5187665"><ele>327.0</ele><time>2026-03-29T07:00:51.121Z</time></trkpt><trkpt lat="43.9164519" lon="12.5186181"><ele>325.0</ele><time>2026-03-29T07:00:52.123Z</time></trkpt><trkpt lat="43.9163766" lon="12.5184811"><ele>323.0</ele><time>2026-03-29T07:00:53.135Z</time></trkpt><trkpt lat="43.9163148" lon="12.5183501"><ele>321.0</ele><time>2026-03-29T07:00:54.131Z</time></trkpt><trkpt lat="43.9162483" lon="12.5182326"><ele>319.0</ele><time>2026-03-29T07:00:55.135Z</time></trkpt><trkpt lat="43.9161842" lon="12.5181483"><ele>317.0</ele><time>2026-03-29T07:00:56.126Z</time></trkpt><trkpt lat="43.916112" lon="12.5180821"><ele>317.0</ele><time>2026-03-29T07:00:57.079Z</time></trkpt><trkpt lat="43.9160484" lon="12.5180265"><ele>317.0</ele><time>2026-03-29T07:00:58.136Z</time></trkpt><trkpt lat="43.9159774" lon="12.5179807"><ele>317.0</ele><time>2026-03-29T07:00:59.086Z</time></trkpt><trkpt lat="43.9159085" lon="12.5179406"><ele>317.0</ele><time>2026-03-29T07:01:00.114Z</time></trkpt><trkpt lat="43.9158462" lon="12.5179065"><ele>317.0</ele><time>2026-03-29T07:01:01.111Z</time></trkpt><trkpt lat="43.9157329" lon="12.5178357"><ele>317.0</ele><time>2026-03-29T07:01:03.114Z</time></trkpt><trkpt lat="43.9156364" lon="12.5177799"><ele>317.6</ele><time>2026-03-29T07:01:05.137Z</time></trkpt><trkpt lat="43.9155321" lon="12.5177287"><ele>318.2</ele><time>2026-03-29T07:01:07.131Z</time></trkpt><trkpt lat="43.9154428" lon="12.5176666"><ele>318.8</ele><time>2026-03-29T07:01:09.105Z</time></trkpt><trkpt lat="43.9153644" lon="12.5176125"><ele>319.4</ele><time>2026-03-29T07:01:11.114Z</time></trkpt><trkpt lat="43.91529" lon="12.5175538"><ele>320.0</ele><time>2026-03-29T07:01:13.11Z</time></trkpt><trkpt lat="43.9152161" lon="12.5175001"><ele>320.0</ele><time>2026-03-29T07:01:15.142Z</time></trkpt><trkpt lat="43.9151576" lon="12.517426"><ele>320.0</ele><time>2026-03-29T07:01:17.069Z</time></trkpt><trkpt lat="43.9151028" lon="12.5173308"><ele>320.0</ele><time>2026-03-29T07:01:19.147Z</time></trkpt><trkpt lat="43.9150599" lon="12.5172561"><ele>320.0</ele><time>2026-03-29T07:01:21.128Z</time></trkpt><trkpt lat="43.9150037" lon="12.5171745"><ele>320.0</ele><time>2026-03-29T07:01:23.075Z</time></trkpt><trkpt lat="43.9149469" lon="12.5171016"><ele>320.0</ele><time>2026-03-29T07:01:25.125Z</time></trkpt><trkpt lat="43.9148817" lon="12.5170685"><ele>320.33333333333337</ele><time>2026-03-29T07:01:27.101Z</time></trkpt><trkpt lat="43.914803" lon="12.5170431"><ele>320.6666666666667</ele><time>2026-03-29T07:01:29.121Z</time></trkpt><trkpt lat="43.9147192" lon="12.517053"><ele>321.0</ele><time>2026-03-29T07:01:31.122Z</time></trkpt><trkpt lat="43.9146427" lon="12.5170798"><ele>321.3333333333333</ele><time>2026-03-29T07:01:33.144Z</time></trkpt><trkpt lat="43.9145553" lon="12.5171438"><ele>321.66666666666663</ele><time>2026-03-29T07:01:35.148Z</time></trkpt><trkpt lat="43.9144642" lon="12.5172086"><ele>322.0</ele><time>2026-03-29T07:01:37.13Z</time></trkpt><trkpt lat="43.9143702" lon="12.5172764"><ele>322.85714285714283</ele><time>2026-03-29T07:01:39.142Z</time></trkpt><trkpt lat="43.9142938" lon="12.5173158"><ele>323.7142857142857</ele><time>2026-03-29T07:01:41.122Z</time></trkpt><trkpt lat="43.914223" lon="12.5173476"><ele>324.57142857142856</ele><time>2026-03-29T07:01:43.11Z</time></trkpt><trkpt lat="43.9141645" lon="12.5173818"><ele>325.42857142857144</ele><time>2026-03-29T07:01:45.119Z</time></trkpt><trkpt lat="43.9140938" lon="12.5174412"><ele>326.2857142857143</ele><time>2026-03-29T07:01:48.145Z</time></trkpt><trkpt lat="43.9140348" lon="12.5174866"><ele>327.1428571428571</ele><time>2026-03-29T07:01:51.129Z</time></trkpt><trkpt lat="43.913982" lon="12.5175387"><ele>328.0</ele><time>2026-03-29T07:01:54.143Z</time></trkpt><trkpt lat="43.9139273" lon="12.5175993"><ele>328.57142857142856</ele><time>2026-03-29T07:01:57.117Z</time></trkpt><trkpt lat="43.9138804" lon="12.5176591"><ele>329.1428571428571</ele><time>2026-03-29T07:02:00.142Z</time></trkpt><trkpt lat="43.9138188" lon="12.5177292"><ele>329.71428571428567</ele><time>2026-03-29T07:02:04.13Z</time></trkpt><trkpt lat="43.9137721" lon="12.517795"><ele>330.2857142857143</ele><time>2026-03-29T07:02:07.136Z</time></trkpt><trkpt lat="43.9137028" lon="12.517846"><ele>330.8571428571429</ele><time>2026-03-29T07:02:11.121Z</time></trkpt><trkpt lat="43.9136344" lon="12.5179071"><ele>331.4285714285714</ele><time>2026-03-29T07:02:15.138Z</time></trkpt><trkpt lat="43.913569" lon="12.5179621"><ele>332.0</ele><time>2026-03-29T07:02:19.095Z</time></trkpt><trkpt lat="43.9134977" lon="12.518009"><ele>332.0</ele><time>2026-03-29T07:02:23.101Z</time></trkpt><trkpt lat="43.9134394" lon="12.5180479"><ele>332.0</ele><time>2026-03-29T07:02:26.119Z</time></trkpt><trkpt lat="43.9133697" lon="12.5180867"><ele>332.0</ele><time>2026-03-29T07:02:30.132Z</time></trkpt><trkpt lat="43.9132942" lon="12.5181021"><ele>332.0</ele><time>2026-03-29T07:02:34.131Z</time></trkpt><trkpt lat="43.9132243" lon="12.5181213"><ele>332.0</ele><time>2026-03-29T07:02:38.135Z</time></trkpt><trkpt lat="43.9131521" lon="12.5181457"><ele>332.0</ele><time>2026-03-29T07:02:42.136Z</time></trkpt><trkpt lat="43.9130861" lon="12.5181595"><ele>332.0</ele><time>2026-03-29T07:02:46.12Z</time></trkpt><trkpt lat="43.9130085" lon="12.5181702"><ele>333.83333333333337</ele><time>2026-03-29T07:02:50.143Z</time></trkpt><trkpt lat="43.9129345" lon="12.5181861"><ele>335.6666666666667</ele><time>2026-03-29T07:02:54.141Z</time></trkpt><trkpt lat="43.9128581" lon="12.5181983"><ele>337.5</ele><time>2026-03-29T07:02:58.123Z</time></trkpt><trkpt lat="43.9127924" lon="12.5182008"><ele>339.3333333333333</ele><time>2026-03-29T07:03:01.135Z</time></trkpt><trkpt lat="43.9127149" lon="12.5181965"><ele>341.16666666666663</ele><time>2026-03-29T07:03:04.135Z</time></trkpt><trkpt lat="43.9126297" lon="12.5182016"><ele>343.0</ele><time>2026-03-29T07:03:07.139Z</time></trkpt><trkpt lat="43.912551" lon="12.5181944"><ele>343.3333333333333</ele><time>2026-03-29T07:03:09.102Z</time></trkpt><trkpt lat="43.9124569" lon="12.5181839"><ele>343.66666666666663</ele><time>2026-03-29T07:03:11.13Z</time></trkpt><trkpt lat="43.9123723" lon="12.5181651"><ele>344.0</ele><time>2026-03-29T07:03:13.096Z</time></trkpt><trkpt lat="43.9122827" lon="12.5181555"><ele>344.3333333333333</ele><time>2026-03-29T07:03:15.123Z</time></trkpt><trkpt lat="43.9121914" lon="12.5181295"><ele>344.6666666666667</ele><time>2026-03-29T07:03:17.125Z</time></trkpt><trkpt lat="43.9121173" lon="12.5181065"><ele>345.0</ele><time>2026-03-29T07:03:19.123Z</time></trkpt><trkpt lat="43.9120436" lon="12.5180732"><ele>345.0</ele><time>2026-03-29T07:03:22.121Z</time></trkpt><trkpt lat="43.9119757" lon="12.5180432"><ele>345.0</ele><time>2026-03-29T07:03:25.126Z</time></trkpt><trkpt lat="43.9119146" lon="12.5180084"><ele>345.0</ele><time>2026-03-29T07:03:28.143Z</time></trkpt><trkpt lat="43.9118503" lon="12.5179641"><ele>345.0</ele><time>2026-03-29T07:03:31.149Z</time></trkpt><trkpt lat="43.9117773" lon="12.5179212"><ele>345.0</ele><time>2026-03-29T07:03:34.061Z</time></trkpt><trkpt lat="43.9117206" lon="12.5178711"><ele>345.0</ele><time>2026-03-29T07:03:36.124Z</time></trkpt><trkpt lat="43.911653" lon="12.5177876"><ele>345.0</ele><time>2026-03-29T07:03:38.122Z</time></trkpt><trkpt lat="43.9115832" lon="12.5176913"><ele>346.4</ele><time>2026-03-29T07:03:40.132Z</time></trkpt><trkpt lat="43.9115141" lon="12.517564"><ele>347.8</ele><time>2026-03-29T07:03:42.127Z</time></trkpt><trkpt lat="43.9114796" lon="12.517488"><ele>349.20000000000005</ele><time>2026-03-29T07:03:43.134Z</time></trkpt><trkpt lat="43.9114343" lon="12.5173162"><ele>350.6</ele><time>2026-03-29T07:03:45.12Z</time></trkpt><trkpt lat="43.9114155" lon="12.5172138"><ele>352.0</ele><time>2026-03-29T07:03:46.08Z</time></trkpt><trkpt lat="43.9114038" lon="12.5171012"><ele>351.0</ele><time>2026-03-29T07:03:47.116Z</time></trkpt><trkpt lat="43.911392" lon="12.5169871"><ele>350.0</ele><time>2026-03-29T07:03:48.131Z</time></trkpt><trkpt lat="43.9113791" lon="12.5168777"><ele>349.0</ele><time>2026-03-29T07:03:49.125Z</time></trkpt><trkpt lat="43.9113525" lon="12.5167622"><ele>348.0</ele><time>2026-03-29T07:03:50.101Z</time></trkpt><trkpt lat="43.9113104" lon="12.5166632"><ele>347.0</ele><time>2026-03-29T07:03:51.123Z</time></trkpt><trkpt lat="43.9112379" lon="12.5165996"><ele>346.0</ele><time>2026-03-29T07:03:52.118Z</time></trkpt><trkpt lat="43.9111633" lon="12.5165666"><ele>346.0</ele><time>2026-03-29T07:03:53.119Z</time></trkpt><trkpt lat="43.9110652" lon="12.5165315"><ele>346.0</ele><time>2026-03-29T07:03:54.121Z</time></trkpt><trkpt lat="43.9109757" lon="12.5164886"><ele>346.0</ele><time>2026-03-29T07:03:55.114Z</time></trkpt><trkpt lat="43.9108952" lon="12.5164296"><ele>346.0</ele><time>2026-03-29T07:03:56.118Z</time></trkpt><trkpt lat="43.9108255" lon="12.516361"><ele>346.0</ele><time>2026-03-29T07:03:57.123Z</time></trkpt><trkpt lat="43.9107554" lon="12.5162859"><ele>345.66666666666663</ele><time>2026-03-29T07:03:58.12Z</time></trkpt><trkpt lat="43.9106952" lon="12.5162001"><ele>345.3333333333333</ele><time>2026-03-29T07:03:59.134Z</time></trkpt><trkpt lat="43.9106339" lon="12.5161168"><ele>345.0</ele><time>2026-03-29T07:04:00.139Z</time></trkpt><trkpt lat="43.9105793" lon="12.5160322"><ele>344.6666666666667</ele><time>2026-03-29T07:04:01.13Z</time></trkpt><trkpt lat="43.9105315" lon="12.5159239"><ele>344.33333333333337</ele><time>2026-03-29T07:04:02.126Z</time></trkpt><trkpt lat="43.9104953" lon="12.5157977"><ele>344.0</ele><time>2026-03-29T07:04:03.141Z</time></trkpt><trkpt lat="43.9104716" lon="12.5156653"><ele>344.0</ele><time>2026-03-29T07:04:04.131Z</time></trkpt><trkpt lat="43.910459" lon="12.5155319"><ele>344.0</ele><time>2026-03-29T07:04:05.121Z</time></trkpt><trkpt lat="43.9104515" lon="12.5153834"><ele>344.0</ele><time>2026-03-29T07:04:06.087Z</time></trkpt><trkpt lat="43.9104455" lon="12.515241"><ele>344.0</ele><time>2026-03-29T07:04:07.093Z</time></trkpt><trkpt lat="43.9104402" lon="12.5150932"><ele>344.0</ele><time>2026-03-29T07:04:08.124Z</time></trkpt><trkpt lat="43.9104387" lon="12.5149485"><ele>342.4</ele><time>2026-03-29T07:04:09.118Z</time></trkpt><trkpt lat="43.9104397" lon="12.5148099"><ele>340.79999999999995</ele><time>2026-03-29T07:04:10.128Z</time></trkpt><trkpt lat="43.9104305" lon="12.514669"><ele>339.20000000000005</ele><time>2026-03-29T07:04:11.127Z</time></trkpt><trkpt lat="43.9104131" lon="12.5145341"><ele>337.6</ele><time>2026-03-29T07:04:12.125Z</time></trkpt><trkpt lat="43.9103875" lon="12.5144035"><ele>336.0</ele><time>2026-03-29T07:04:13.089Z</time></trkpt><trkpt lat="43.9103518" lon="12.5142788"><ele>336.3333333333333</ele><time>2026-03-29T07:04:14.078Z</time></trkpt><trkpt lat="43.910309" lon="12.5141678"><ele>336.6666666666667</ele><time>2026-03-29T07:04:15.075Z</time></trkpt><trkpt lat="43.910259" lon="12.5140641"><ele>337.0</ele><time>2026-03-29T07:04:16.055Z</time></trkpt><trkpt lat="43.9102119" lon="12.5139661"><ele>337.33333333333337</ele><time>2026-03-29T07:04:17.106Z</time></trkpt><trkpt lat="43.9101627" lon="12.5138777"><ele>337.6666666666667</ele><time>2026-03-29T07:04:18.06Z</time></trkpt><trkpt lat="43.9101137" lon="12.5137935"><ele>338.0</ele><time>2026-03-29T07:04:19.168Z</time></trkpt><trkpt lat="43.9100298" lon="12.5136222"><ele>338.0</ele><time>2026-03-29T07:04:21.06Z</time></trkpt><trkpt lat="43.9099937" lon="12.5135416"><ele>338.0</ele><time>2026-03-29T07:04:22.085Z</time></trkpt><trkpt lat="43.9099262" lon="12.5134135"><ele>338.0</ele><time>2026-03-29T07:04:24.083Z</time></trkpt><trkpt lat="43.9098526" lon="12.5133117"><ele>338.0</ele><time>2026-03-29T07:04:26.062Z</time></trkpt><trkpt lat="43.9097887" lon="12.5132286"><ele>338.0</ele><time>2026-03-29T07:04:28.082Z</time></trkpt><trkpt lat="43.9097329" lon="12.5131605"><ele>338.0</ele><time>2026-03-29T07:04:30.069Z</time></trkpt><trkpt lat="43.9096766" lon="12.5131082"><ele>338.0</ele><time>2026-03-29T07:04:32.081Z</time></trkpt><trkpt lat="43.9095986" lon="12.5130423"><ele>338.0</ele><time>2026-03-29T07:04:35.082Z</time></trkpt><trkpt lat="43.9095383" lon="12.5130028"><ele>338.0</ele><time>2026-03-29T07:04:37.083Z</time></trkpt><trkpt lat="43.9094583" lon="12.5129526"><ele>338.0</ele><time>2026-03-29T07:04:40.083Z</time></trkpt><trkpt lat="43.909375" lon="12.5129122"><ele>338.0</ele><time>2026-03-29T07:04:43.107Z</time></trkpt><trkpt lat="43.909302" lon="12.5128559"><ele>338.0</ele><time>2026-03-29T07:04:47.119Z</time></trkpt><trkpt lat="43.9092398" lon="12.512806"><ele>340.0</ele><time>2026-03-29T07:04:50.122Z</time></trkpt><trkpt lat="43.9091875" lon="12.5127486"><ele>342.0</ele><time>2026-03-29T07:04:53.118Z</time></trkpt><trkpt lat="43.9091357" lon="12.5126893"><ele>344.0</ele><time>2026-03-29T07:04:56.125Z</time></trkpt><trkpt lat="43.9090769" lon="12.5126351"><ele>346.0</ele><time>2026-03-29T07:04:59.12Z</time></trkpt><trkpt lat="43.9090263" lon="12.5125567"><ele>348.0</ele><time>2026-03-29T07:05:02.111Z</time></trkpt><trkpt lat="43.9089697" lon="12.5124941"><ele>350.0</ele><time>2026-03-29T07:05:05.127Z</time></trkpt><trkpt lat="43.9089026" lon="12.5124191"><ele>352.0</ele><time>2026-03-29T07:05:08.107Z</time></trkpt><trkpt lat="43.9088563" lon="12.5123269"><ele>352.0</ele><time>2026-03-29T07:05:11.145Z</time></trkpt><trkpt lat="43.9088196" lon="12.5122361"><ele>352.0</ele><time>2026-03-29T07:05:14.12Z</time></trkpt><trkpt lat="43.9087783" lon="12.5121483"><ele>352.0</ele><time>2026-03-29T07:05:17.12Z</time></trkpt><trkpt lat="43.9087481" lon="12.5120489"><ele>352.0</ele><time>2026-03-29T07:05:20.132Z</time></trkpt><trkpt lat="43.9087206" lon="12.5119443"><ele>352.0</ele><time>2026-03-29T07:05:23.128Z</time></trkpt><trkpt lat="43.9087058" lon="12.5118418"><ele>352.0</ele><time>2026-03-29T07:05:26.11Z</time></trkpt><trkpt lat="43.9087114" lon="12.5117379"><ele>353.3333333333333</ele><time>2026-03-29T07:05:29.122Z</time></trkpt><trkpt lat="43.9087327" lon="12.5116364"><ele>354.66666666666663</ele><time>2026-03-29T07:05:32.098Z</time></trkpt><trkpt lat="43.9087722" lon="12.5115279"><ele>356.0</ele><time>2026-03-29T07:05:35.076Z</time></trkpt><trkpt lat="43.9088032" lon="12.5114241"><ele>357.3333333333333</ele><time>2026-03-29T07:05:38.095Z</time></trkpt><trkpt lat="43.9088352" lon="12.5113186"><ele>358.6666666666667</ele><time>2026-03-29T07:05:41.128Z</time></trkpt><trkpt lat="43.9088609" lon="12.5112337"><ele>360.0</ele><time>2026-03-29T07:05:43.11Z</time></trkpt><trkpt lat="43.9088897" lon="12.5111524"><ele>360.1666666666667</ele><time>2026-03-29T07:05:45.101Z</time></trkpt><trkpt lat="43.9089259" lon="12.511062"><ele>360.3333333333333</ele><time>2026-03-29T07:05:47.115Z</time></trkpt><trkpt lat="43.9089606" lon="12.5109745"><ele>360.5</ele><time>2026-03-29T07:05:49.115Z</time></trkpt><trkpt lat="43.9089868" lon="12.5108683"><ele>360.66666666666663</ele><time>2026-03-29T07:05:51.132Z</time></trkpt><trkpt lat="43.9089862" lon="12.5107448"><ele>360.8333333333333</ele><time>2026-03-29T07:05:53.126Z</time></trkpt><trkpt lat="43.9089861" lon="12.5106054"><ele>361.0</ele><time>2026-03-29T07:05:55.122Z</time></trkpt><trkpt lat="43.9089676" lon="12.5104539"><ele>360.6</ele><time>2026-03-29T07:05:57.122Z</time></trkpt><trkpt lat="43.9089285" lon="12.5103267"><ele>360.20000000000005</ele><time>2026-03-29T07:05:59.104Z</time></trkpt><trkpt lat="43.9088921" lon="12.5102034"><ele>359.79999999999995</ele><time>2026-03-29T07:06:01.121Z</time></trkpt><trkpt lat="43.9088498" lon="12.5100694"><ele>359.4</ele><time>2026-03-29T07:06:03.117Z</time></trkpt><trkpt lat="43.9088099" lon="12.5099326"><ele>359.0</ele><time>2026-03-29T07:06:05.136Z</time></trkpt><trkpt lat="43.9087688" lon="12.5098038"><ele>359.0</ele><time>2026-03-29T07:06:07.114Z</time></trkpt><trkpt lat="43.9087256" lon="12.5096679"><ele>359.0</ele><time>2026-03-29T07:06:09.125Z</time></trkpt><trkpt lat="43.9086813" lon="12.5095332"><ele>359.0</ele><time>2026-03-29T07:06:11.135Z</time></trkpt><trkpt lat="43.9086275" lon="12.5094048"><ele>359.0</ele><time>2026-03-29T07:06:13.079Z</time></trkpt><trkpt lat="43.9085752" lon="12.5093024"><ele>359.0</ele><time>2026-03-29T07:06:15.111Z</time></trkpt><trkpt lat="43.9085176" lon="12.5092181"><ele>359.33333333333337</ele><time>2026-03-29T07:06:17.124Z</time></trkpt><trkpt lat="43.9084471" lon="12.5091537"><ele>359.6666666666667</ele><time>2026-03-29T07:06:19.125Z</time></trkpt><trkpt lat="43.9083925" lon="12.5090867"><ele>360.0</ele><time>2026-03-29T07:06:21.125Z</time></trkpt><trkpt lat="43.9083195" lon="12.5090166"><ele>360.3333333333333</ele><time>2026-03-29T07:06:23.145Z</time></trkpt><trkpt lat="43.9082419" lon="12.5089257"><ele>360.66666666666663</ele><time>2026-03-29T07:06:25.141Z</time></trkpt><trkpt lat="43.9081686" lon="12.5088402"><ele>361.0</ele><time>2026-03-29T07:06:27.097Z</time></trkpt><trkpt lat="43.9080835" lon="12.5087501"><ele>363.4</ele><time>2026-03-29T07:06:29.139Z</time></trkpt><trkpt lat="43.9080103" lon="12.5086667"><ele>365.8</ele><time>2026-03-29T07:06:31.132Z</time></trkpt><trkpt lat="43.907927" lon="12.5085792"><ele>368.2</ele><time>2026-03-29T07:06:33.137Z</time></trkpt><trkpt lat="43.9078463" lon="12.5084752"><ele>370.59999999999997</ele><time>2026-03-29T07:06:35.128Z</time></trkpt><trkpt lat="43.9077742" lon="12.5083952"><ele>373.0</ele><time>2026-03-29T07:06:37.13Z</time></trkpt><trkpt lat="43.9076931" lon="12.5083035"><ele>373.0</ele><time>2026-03-29T07:06:39.126Z</time></trkpt><trkpt lat="43.9076216" lon="12.5082324"><ele>373.0</ele><time>2026-03-29T07:06:41.137Z</time></trkpt><trkpt lat="43.9075541" lon="12.5081562"><ele>373.0</ele><time>2026-03-29T07:06:43.11Z</time></trkpt><trkpt lat="43.9074921" lon="12.5080813"><ele>373.0</ele><time>2026-03-29T07:06:45.118Z</time></trkpt><trkpt lat="43.9074316" lon="12.5080099"><ele>373.0</ele><time>2026-03-29T07:06:47.136Z</time></trkpt><trkpt lat="43.9073725" lon="12.5079357"><ele>373.0</ele><time>2026-03-29T07:06:49.125Z</time></trkpt><trkpt lat="43.9073097" lon="12.5078779"><ele>373.66666666666663</ele><time>2026-03-29T07:06:51.114Z</time></trkpt><trkpt lat="43.907244" lon="12.5078102"><ele>374.3333333333333</ele><time>2026-03-29T07:06:53.103Z</time></trkpt><trkpt lat="43.9071611" lon="12.5077389"><ele>375.0</ele><time>2026-03-29T07:06:55.08Z</time></trkpt><trkpt lat="43.9070556" lon="12.5076704"><ele>375.6666666666667</ele><time>2026-03-29T07:06:57.118Z</time></trkpt><trkpt lat="43.9069913" lon="12.5076401"><ele>376.33333333333337</ele><time>2026-03-29T07:06:58.118Z</time></trkpt><trkpt lat="43.9069216" lon="12.5076131"><ele>377.0</ele><time>2026-03-29T07:06:59.086Z</time></trkpt><trkpt lat="43.9068468" lon="12.5075952"><ele>377.0</ele><time>2026-03-29T07:07:00.117Z</time></trkpt><trkpt lat="43.9067667" lon="12.5075715"><ele>377.0</ele><time>2026-03-29T07:07:01.12Z</time></trkpt><trkpt lat="43.9066832" lon="12.5075488"><ele>377.0</ele><time>2026-03-29T07:07:02.116Z</time></trkpt><trkpt lat="43.9065946" lon="12.5075322"><ele>377.0</ele><time>2026-03-29T07:07:03.132Z</time></trkpt><trkpt lat="43.9065035" lon="12.5075164"><ele>377.0</ele><time>2026-03-29T07:07:04.114Z</time></trkpt><trkpt lat="43.9064133" lon="12.5074888"><ele>377.0</ele><time>2026-03-29T07:07:05.12Z</time></trkpt><trkpt lat="43.9063275" lon="12.5074395"><ele>378.8</ele><time>2026-03-29T07:07:06.088Z</time></trkpt><trkpt lat="43.9062428" lon="12.5073737"><ele>380.6</ele><time>2026-03-29T07:07:07.109Z</time></trkpt><trkpt lat="43.9061741" lon="12.5073032"><ele>382.40000000000003</ele><time>2026-03-29T07:07:08.116Z</time></trkpt><trkpt lat="43.9060992" lon="12.5072291"><ele>384.20000000000005</ele><time>2026-03-29T07:07:09.127Z</time></trkpt><trkpt lat="43.9060304" lon="12.5071495"><ele>386.0</ele><time>2026-03-29T07:07:10.116Z</time></trkpt><trkpt lat="43.9059569" lon="12.5070714"><ele>381.20000000000005</ele><time>2026-03-29T07:07:11.128Z</time></trkpt><trkpt lat="43.9058765" lon="12.5069769"><ele>376.40000000000003</ele><time>2026-03-29T07:07:12.125Z</time></trkpt><trkpt lat="43.9058009" lon="12.5068894"><ele>371.6</ele><time>2026-03-29T07:07:13.108Z</time></trkpt><trkpt lat="43.9057239" lon="12.5068137"><ele>366.8</ele><time>2026-03-29T07:07:14.127Z</time></trkpt><trkpt lat="43.9056303" lon="12.5067728"><ele>362.0</ele><time>2026-03-29T07:07:15.098Z</time></trkpt><trkpt lat="43.9055455" lon="12.5067624"><ele>362.0</ele><time>2026-03-29T07:07:16.089Z</time></trkpt><trkpt lat="43.9054647" lon="12.5067483"><ele>362.0</ele><time>2026-03-29T07:07:17.122Z</time></trkpt><trkpt lat="43.9053971" lon="12.5066896"><ele>362.0</ele><time>2026-03-29T07:07:18.104Z</time></trkpt><trkpt lat="43.90536" lon="12.5066033"><ele>362.0</ele><time>2026-03-29T07:07:19.101Z</time></trkpt><trkpt lat="43.9053522" lon="12.5065087"><ele>362.0</ele><time>2026-03-29T07:07:20.121Z</time></trkpt><trkpt lat="43.9054003" lon="12.5063469"><ele>362.0</ele><time>2026-03-29T07:07:22.115Z</time></trkpt><trkpt lat="43.9054512" lon="12.5061874"><ele>362.42857142857144</ele><time>2026-03-29T07:07:24.12Z</time></trkpt><trkpt lat="43.9054786" lon="12.5060711"><ele>362.85714285714283</ele><time>2026-03-29T07:07:26.115Z</time></trkpt><trkpt lat="43.9055049" lon="12.5059704"><ele>363.28571428571433</ele><time>2026-03-29T07:07:28.123Z</time></trkpt><trkpt lat="43.9055293" lon="12.5058775"><ele>363.7142857142857</ele><time>2026-03-29T07:07:30.132Z</time></trkpt><trkpt lat="43.9055548" lon="12.5057836"><ele>364.14285714285717</ele><time>2026-03-29T07:07:32.11Z</time></trkpt><trkpt lat="43.9055869" lon="12.5056954"><ele>364.5714285714286</ele><time>2026-03-29T07:07:34.126Z</time></trkpt><trkpt lat="43.905604" lon="12.5056101"><ele>365.0</ele><time>2026-03-29T07:07:36.12Z</time></trkpt><trkpt lat="43.9056322" lon="12.5054885"><ele>362.8</ele><time>2026-03-29T07:07:39.116Z</time></trkpt><trkpt lat="43.9056797" lon="12.5053633"><ele>360.6</ele><time>2026-03-29T07:07:41.131Z</time></trkpt><trkpt lat="43.9057356" lon="12.5052218"><ele>358.4</ele><time>2026-03-29T07:07:43.146Z</time></trkpt><trkpt lat="43.9058035" lon="12.5050928"><ele>356.2</ele><time>2026-03-29T07:07:45.111Z</time></trkpt><trkpt lat="43.9058719" lon="12.5049641"><ele>354.0</ele><time>2026-03-29T07:07:47.105Z</time></trkpt><trkpt lat="43.9059431" lon="12.5048372"><ele>357.3333333333333</ele><time>2026-03-29T07:07:49.111Z</time></trkpt><trkpt lat="43.9060012" lon="12.5046962"><ele>360.6666666666667</ele><time>2026-03-29T07:07:51.126Z</time></trkpt><trkpt lat="43.9060366" lon="12.5046228"><ele>364.0</ele><time>2026-03-29T07:07:52.111Z</time></trkpt><trkpt lat="43.9060645" lon="12.5045403"><ele>367.33333333333337</ele><time>2026-03-29T07:07:53.11Z</time></trkpt><trkpt lat="43.9060892" lon="12.5044599"><ele>370.6666666666667</ele><time>2026-03-29T07:07:54.111Z</time></trkpt><trkpt lat="43.9061216" lon="12.504304"><ele>374.0</ele><time>2026-03-29T07:07:56.119Z</time></trkpt><trkpt lat="43.9061445" lon="12.5041659"><ele>374.0</ele><time>2026-03-29T07:07:58.117Z</time></trkpt><trkpt lat="43.9061709" lon="12.5040265"><ele>374.0</ele><time>2026-03-29T07:08:00.121Z</time></trkpt><trkpt lat="43.9062013" lon="12.5039258"><ele>374.0</ele><time>2026-03-29T07:08:02.118Z</time></trkpt><trkpt lat="43.9062149" lon="12.503829"><ele>374.0</ele><time>2026-03-29T07:08:04.132Z</time></trkpt><trkpt lat="43.9062335" lon="12.503735"><ele>374.0</ele><time>2026-03-29T07:08:06.124Z</time></trkpt><trkpt lat="43.9062585" lon="12.5036507"><ele>374.0</ele><time>2026-03-29T07:08:08.121Z</time></trkpt><trkpt lat="43.9062801" lon="12.5035257"><ele>373.1666666666667</ele><time>2026-03-29T07:08:11.088Z</time></trkpt><trkpt lat="43.9063048" lon="12.5034068"><ele>372.33333333333337</ele><time>2026-03-29T07:08:14.115Z</time></trkpt><trkpt lat="43.9063111" lon="12.5033193"><ele>371.5</ele><time>2026-03-29T07:08:16.132Z</time></trkpt><trkpt lat="43.9063189" lon="12.5032305"><ele>370.6666666666667</ele><time>2026-03-29T07:08:18.116Z</time></trkpt><trkpt lat="43.9063288" lon="12.5031019"><ele>369.8333333333333</ele><time>2026-03-29T07:08:21.118Z</time></trkpt><trkpt lat="43.9063297" lon="12.5029793"><ele>369.0</ele><time>2026-03-29T07:08:24.148Z</time></trkpt><trkpt lat="43.9063362" lon="12.5028665"><ele>369.0</ele><time>2026-03-29T07:08:27.124Z</time></trkpt><trkpt lat="43.9063396" lon="12.5027649"><ele>369.0</ele><time>2026-03-29T07:08:30.13Z</time></trkpt><trkpt lat="43.9063389" lon="12.5026526"><ele>369.0</ele><time>2026-03-29T07:08:34.104Z</time></trkpt><trkpt lat="43.9063405" lon="12.5025648"><ele>369.0</ele><time>2026-03-29T07:08:37.13Z</time></trkpt><trkpt lat="43.90635" lon="12.5024692"><ele>369.0</ele><time>2026-03-29T07:08:41.129Z</time></trkpt><trkpt lat="43.906369" lon="12.5023858"><ele>369.0</ele><time>2026-03-29T07:08:44.125Z</time></trkpt><trkpt lat="43.9064018" lon="12.5022834"><ele>369.0</ele><time>2026-03-29T07:08:48.142Z</time></trkpt><trkpt lat="43.9064291" lon="12.5021805"><ele>369.0</ele><time>2026-03-29T07:08:52.138Z</time></trkpt><trkpt lat="43.9064669" lon="12.5020941"><ele>369.0</ele><time>2026-03-29T07:08:56.134Z</time></trkpt><trkpt lat="43.9065025" lon="12.5020184"><ele>369.0</ele><time>2026-03-29T07:08:59.105Z</time></trkpt><trkpt lat="43.9065298" lon="12.5019361"><ele>369.0</ele><time>2026-03-29T07:09:02.137Z</time></trkpt><trkpt lat="43.9065626" lon="12.5018589"><ele>369.0</ele><time>2026-03-29T07:09:05.109Z</time></trkpt><trkpt lat="43.9065946" lon="12.5017824"><ele>369.0</ele><time>2026-03-29T07:09:08.128Z</time></trkpt><trkpt lat="43.9066007" lon="12.5016911"><ele>369.0</ele><time>2026-03-29T07:09:11.132Z</time></trkpt><trkpt lat="43.9065881" lon="12.5015937"><ele>369.2857142857143</ele><time>2026-03-29T07:09:14.087Z</time></trkpt><trkpt lat="43.9065557" lon="12.501501"><ele>369.57142857142856</ele><time>2026-03-29T07:09:17.137Z</time></trkpt><trkpt lat="43.9065177" lon="12.5014036"><ele>369.8571428571429</ele><time>2026-03-29T07:09:20.135Z</time></trkpt><trkpt lat="43.9064761" lon="12.501322"><ele>370.1428571428571</ele><time>2026-03-29T07:09:23.122Z</time></trkpt><trkpt lat="43.9064372" lon="12.5012479"><ele>370.42857142857144</ele><time>2026-03-29T07:09:26.144Z</time></trkpt><trkpt lat="43.9063917" lon="12.5011643"><ele>370.7142857142857</ele><time>2026-03-29T07:09:29.141Z</time></trkpt><trkpt lat="43.9063489" lon="12.5010869"><ele>371.0</ele><time>2026-03-29T07:09:32.125Z</time></trkpt><trkpt lat="43.9063025" lon="12.5010064"><ele>371.14285714285717</ele><time>2026-03-29T07:09:35.089Z</time></trkpt><trkpt lat="43.9062561" lon="12.5009224"><ele>371.2857142857143</ele><time>2026-03-29T07:09:38.075Z</time></trkpt><trkpt lat="43.9062096" lon="12.5008457"><ele>371.42857142857144</ele><time>2026-03-29T07:09:41.092Z</time></trkpt><trkpt lat="43.9061704" lon="12.5007723"><ele>371.57142857142856</ele><time>2026-03-29T07:09:44.095Z</time></trkpt><trkpt lat="43.90614" lon="12.5006866"><ele>371.7142857142857</ele><time>2026-03-29T07:09:47.11Z</time></trkpt><trkpt lat="43.9061009" lon="12.5006154"><ele>371.8571428571429</ele><time>2026-03-29T07:09:50.069Z</time></trkpt><trkpt lat="43.9060559" lon="12.5005432"><ele>372.0</ele><time>2026-03-29T07:09:53.07Z</time></trkpt><trkpt lat="43.9060156" lon="12.5004509"><ele>373.42857142857144</ele><time>2026-03-29T07:09:57.063Z</time></trkpt><trkpt lat="43.905986" lon="12.5003565"><ele>374.8571428571429</ele><time>2026-03-29T07:10:02.143Z</time></trkpt><trkpt lat="43.9059417" lon="12.5002677"><ele>376.28571428571433</ele><time>2026-03-29T07:10:06.128Z</time></trkpt><trkpt lat="43.9058918" lon="12.5002076"><ele>377.7142857142857</ele><time>2026-03-29T07:10:09.13Z</time></trkpt><trkpt lat="43.9058246" lon="12.5001638"><ele>379.1428571428571</ele><time>2026-03-29T07:10:12.15Z</time></trkpt><trkpt lat="43.9057639" lon="12.5001266"><ele>380.5714285714286</ele><time>2026-03-29T07:10:15.078Z</time></trkpt><trkpt lat="43.9056909" lon="12.5000931"><ele>382.0</ele><time>2026-03-29T07:10:18.142Z</time></trkpt><trkpt lat="43.9056153" lon="12.5000552"><ele>382.16666666666663</ele><time>2026-03-29T07:10:21.081Z</time></trkpt><trkpt lat="43.9055295" lon="12.5000313"><ele>382.3333333333333</ele><time>2026-03-29T07:10:24.134Z</time></trkpt><trkpt lat="43.9054547" lon="12.5000249"><ele>382.5</ele><time>2026-03-29T07:10:26.138Z</time></trkpt><trkpt lat="43.9053697" lon="12.5000167"><ele>382.6666666666667</ele><time>2026-03-29T07:10:28.144Z</time></trkpt><trkpt lat="43.9052846" lon="12.5000292"><ele>382.83333333333337</ele><time>2026-03-29T07:10:30.124Z</time></trkpt><trkpt lat="43.9051963" lon="12.5000376"><ele>383.0</ele><time>2026-03-29T07:10:32.138Z</time></trkpt><trkpt lat="43.9051017" lon="12.5000586"><ele>382.83333333333337</ele><time>2026-03-29T07:10:34.135Z</time></trkpt><trkpt lat="43.9050107" lon="12.5000773"><ele>382.6666666666667</ele><time>2026-03-29T07:10:36.141Z</time></trkpt><trkpt lat="43.9049198" lon="12.500091"><ele>382.5</ele><time>2026-03-29T07:10:38.131Z</time></trkpt><trkpt lat="43.9048312" lon="12.5001169"><ele>382.3333333333333</ele><time>2026-03-29T07:10:40.108Z</time></trkpt><trkpt lat="43.9047493" lon="12.5001373"><ele>382.16666666666663</ele><time>2026-03-29T07:10:42.093Z</time></trkpt><trkpt lat="43.9046612" lon="12.5001655"><ele>382.0</ele><time>2026-03-29T07:10:44.078Z</time></trkpt><trkpt lat="43.9045653" lon="12.5001922"><ele>382.0</ele><time>2026-03-29T07:10:46.097Z</time></trkpt><trkpt lat="43.9044756" lon="12.5002231"><ele>382.0</ele><time>2026-03-29T07:10:48.131Z</time></trkpt><trkpt lat="43.9043743" lon="12.5002545"><ele>382.0</ele><time>2026-03-29T07:10:50.146Z</time></trkpt><trkpt lat="43.9042767" lon="12.5002624"><ele>382.0</ele><time>2026-03-29T07:10:52.104Z</time></trkpt><trkpt lat="43.9041844" lon="12.500274"><ele>382.0</ele><time>2026-03-29T07:10:54.12Z</time></trkpt><trkpt lat="43.9040812" lon="12.5002842"><ele>381.40000000000003</ele><time>2026-03-29T07:10:56.133Z</time></trkpt><trkpt lat="43.9039803" lon="12.5002878"><ele>380.8</ele><time>2026-03-29T07:10:58.135Z</time></trkpt><trkpt lat="43.9038854" lon="12.500297"><ele>380.2</ele><time>2026-03-29T07:11:00.127Z</time></trkpt><trkpt lat="43.9037804" lon="12.5003076"><ele>379.6</ele><time>2026-03-29T07:11:02.149Z</time></trkpt><trkpt lat="43.9036668" lon="12.5003127"><ele>379.0</ele><time>2026-03-29T07:11:04.133Z</time></trkpt><trkpt lat="43.903566" lon="12.500308"><ele>379.0</ele><time>2026-03-29T07:11:06.147Z</time></trkpt><trkpt lat="43.9034568" lon="12.5003185"><ele>379.0</ele><time>2026-03-29T07:11:08.153Z</time></trkpt><trkpt lat="43.9033566" lon="12.5003185"><ele>379.0</ele><time>2026-03-29T07:11:10.129Z</time></trkpt><trkpt lat="43.9032556" lon="12.5003178"><ele>379.0</ele><time>2026-03-29T07:11:12.135Z</time></trkpt><trkpt lat="43.9031528" lon="12.5003218"><ele>379.0</ele><time>2026-03-29T07:11:14.128Z</time></trkpt><trkpt lat="43.9030501" lon="12.5003214"><ele>378.79999999999995</ele><time>2026-03-29T07:11:16.122Z</time></trkpt><trkpt lat="43.9029479" lon="12.5003211"><ele>378.59999999999997</ele><time>2026-03-29T07:11:18.131Z</time></trkpt><trkpt lat="43.9028509" lon="12.500322"><ele>378.4</ele><time>2026-03-29T07:11:20.139Z</time></trkpt><trkpt lat="43.9027511" lon="12.5003167"><ele>378.2</ele><time>2026-03-29T07:11:22.077Z</time></trkpt><trkpt lat="43.9026533" lon="12.500289"><ele>378.0</ele><time>2026-03-29T07:11:24.151Z</time></trkpt><trkpt lat="43.9025652" lon="12.5002432"><ele>378.5</ele><time>2026-03-29T07:11:26.128Z</time></trkpt><trkpt lat="43.9024739" lon="12.5002077"><ele>379.0</ele><time>2026-03-29T07:11:28.127Z</time></trkpt><trkpt lat="43.9023998" lon="12.5001638"><ele>379.5</ele><time>2026-03-29T07:11:30.121Z</time></trkpt><trkpt lat="43.902322" lon="12.5001148"><ele>380.0</ele><time>2026-03-29T07:11:32.099Z</time></trkpt><trkpt lat="43.9022379" lon="12.5000808"><ele>380.5</ele><time>2026-03-29T07:11:34.136Z</time></trkpt><trkpt lat="43.9021589" lon="12.5000307"><ele>381.0</ele><time>2026-03-29T07:11:36.084Z</time></trkpt><trkpt lat="43.9020823" lon="12.4999835"><ele>381.0</ele><time>2026-03-29T07:11:38.133Z</time></trkpt><trkpt lat="43.9019971" lon="12.4999348"><ele>381.0</ele><time>2026-03-29T07:11:40.119Z</time></trkpt><trkpt lat="43.901908" lon="12.4998815"><ele>381.0</ele><time>2026-03-29T07:11:42.137Z</time></trkpt><trkpt lat="43.9018179" lon="12.4998334"><ele>381.0</ele><time>2026-03-29T07:11:44.133Z</time></trkpt><trkpt lat="43.9017147" lon="12.4997787"><ele>381.0</ele><time>2026-03-29T07:11:46.126Z</time></trkpt><trkpt lat="43.9016142" lon="12.4997137"><ele>380.8</ele><time>2026-03-29T07:11:48.144Z</time></trkpt><trkpt lat="43.9015168" lon="12.4996493"><ele>380.6</ele><time>2026-03-29T07:11:50.093Z</time></trkpt><trkpt lat="43.9014163" lon="12.4995854"><ele>380.4</ele><time>2026-03-29T07:11:52.136Z</time></trkpt><trkpt lat="43.9013215" lon="12.4995146"><ele>380.2</ele><time>2026-03-29T07:11:54.138Z</time></trkpt><trkpt lat="43.9012378" lon="12.4994517"><ele>380.0</ele><time>2026-03-29T07:11:56.148Z</time></trkpt><trkpt lat="43.9011612" lon="12.4993887"><ele>380.0</ele><time>2026-03-29T07:11:58.136Z</time></trkpt><trkpt lat="43.9010825" lon="12.4993192"><ele>380.0</ele><time>2026-03-29T07:12:00.138Z</time></trkpt><trkpt lat="43.9010058" lon="12.499259"><ele>380.0</ele><time>2026-03-29T07:12:02.106Z</time></trkpt><trkpt lat="43.9009333" lon="12.4992071"><ele>380.0</ele><time>2026-03-29T07:12:04.15Z</time></trkpt><trkpt lat="43.9008722" lon="12.4991583"><ele>380.0</ele><time>2026-03-29T07:12:06.156Z</time></trkpt><trkpt lat="43.9007967" lon="12.4990876"><ele>380.0</ele><time>2026-03-29T07:12:09.102Z</time></trkpt><trkpt lat="43.9007201" lon="12.4990249"><ele>381.0</ele><time>2026-03-29T07:12:12.084Z</time></trkpt><trkpt lat="43.9006499" lon="12.4989564"><ele>382.0</ele><time>2026-03-29T07:12:15.118Z</time></trkpt><trkpt lat="43.9005761" lon="12.4988973"><ele>383.0</ele><time>2026-03-29T07:12:18.122Z</time></trkpt><trkpt lat="43.9005057" lon="12.4988256"><ele>384.0</ele><time>2026-03-29T07:12:21.128Z</time></trkpt><trkpt lat="43.9004491" lon="12.4987541"><ele>384.99999999999994</ele><time>2026-03-29T07:12:24.148Z</time></trkpt><trkpt lat="43.9003924" lon="12.498671"><ele>386.0</ele><time>2026-03-29T07:12:27.068Z</time></trkpt><trkpt lat="43.9003277" lon="12.4985965"><ele>386.14285714285717</ele><time>2026-03-29T07:12:30.072Z</time></trkpt><trkpt lat="43.9002765" lon="12.4985175"><ele>386.2857142857143</ele><time>2026-03-29T07:12:33.075Z</time></trkpt><trkpt lat="43.9002153" lon="12.4984521"><ele>386.42857142857144</ele><time>2026-03-29T07:12:36.072Z</time></trkpt><trkpt lat="43.9001664" lon="12.4983919"><ele>386.57142857142856</ele><time>2026-03-29T07:12:39.075Z</time></trkpt><trkpt lat="43.9001098" lon="12.4983474"><ele>386.7142857142857</ele><time>2026-03-29T07:12:42.096Z</time></trkpt><trkpt lat="43.9000445" lon="12.4982716"><ele>386.8571428571429</ele><time>2026-03-29T07:12:46.122Z</time></trkpt><trkpt lat="43.8999871" lon="12.4982319"><ele>387.0</ele><time>2026-03-29T07:12:49.099Z</time></trkpt><trkpt lat="43.8999267" lon="12.4981766"><ele>388.2857142857143</ele><time>2026-03-29T07:12:53.073Z</time></trkpt><trkpt lat="43.8998423" lon="12.4981421"><ele>389.57142857142856</ele><time>2026-03-29T07:12:57.095Z</time></trkpt><trkpt lat="43.8997755" lon="12.4981445"><ele>390.8571428571429</ele><time>2026-03-29T07:13:00.084Z</time></trkpt><trkpt lat="43.8997086" lon="12.4981617"><ele>392.1428571428571</ele><time>2026-03-29T07:13:03.066Z</time></trkpt><trkpt lat="43.8996304" lon="12.4981829"><ele>393.4285714285714</ele><time>2026-03-29T07:13:07.078Z</time></trkpt><trkpt lat="43.8995678" lon="12.4982056"><ele>394.7142857142857</ele><time>2026-03-29T07:13:10.097Z</time></trkpt><trkpt lat="43.8995075" lon="12.4982364"><ele>396.0</ele><time>2026-03-29T07:13:13.095Z</time></trkpt><trkpt lat="43.8994357" lon="12.4982572"><ele>396.0</ele><time>2026-03-29T07:13:16.123Z</time></trkpt><trkpt lat="43.8993725" lon="12.4982866"><ele>396.0</ele><time>2026-03-29T07:13:19.079Z</time></trkpt><trkpt lat="43.8992996" lon="12.4983243"><ele>396.0</ele><time>2026-03-29T07:13:23.092Z</time></trkpt><trkpt lat="43.8992403" lon="12.4983593"><ele>396.0</ele><time>2026-03-29T07:13:26.107Z</time></trkpt><trkpt lat="43.8991748" lon="12.4983862"><ele>396.0</ele><time>2026-03-29T07:13:29.101Z</time></trkpt><trkpt lat="43.8991119" lon="12.4983915"><ele>396.0</ele><time>2026-03-29T07:13:32.085Z</time></trkpt><trkpt lat="43.8990337" lon="12.4983615"><ele>396.0</ele><time>2026-03-29T07:13:36.111Z</time></trkpt><trkpt lat="43.8989759" lon="12.4982949"><ele>396.8571428571429</ele><time>2026-03-29T07:13:40.102Z</time></trkpt><trkpt lat="43.8989188" lon="12.4982487"><ele>397.71428571428567</ele><time>2026-03-29T07:13:43.075Z</time></trkpt><trkpt lat="43.8988726" lon="12.4981826"><ele>398.57142857142856</ele><time>2026-03-29T07:13:46.108Z</time></trkpt><trkpt lat="43.8988191" lon="12.4980973"><ele>399.42857142857144</ele><time>2026-03-29T07:13:50.1Z</time></trkpt><trkpt lat="43.8987875" lon="12.4980217"><ele>400.28571428571433</ele><time>2026-03-29T07:13:53.092Z</time></trkpt><trkpt lat="43.8987367" lon="12.4979511"><ele>401.1428571428571</ele><time>2026-03-29T07:13:56.082Z</time></trkpt><trkpt lat="43.8986766" lon="12.4978874"><ele>402.0</ele><time>2026-03-29T07:13:59.109Z</time></trkpt><trkpt lat="43.8986052" lon="12.4978231"><ele>402.4285714285714</ele><time>2026-03-29T07:14:02.073Z</time></trkpt><trkpt lat="43.8985404" lon="12.4977653"><ele>402.8571428571429</ele><time>2026-03-29T07:14:05.1Z</time></trkpt><trkpt lat="43.8984684" lon="12.4976994"><ele>403.2857142857143</ele><time>2026-03-29T07:14:08.085Z</time></trkpt><trkpt lat="43.898414" lon="12.4976366"><ele>403.71428571428567</ele><time>2026-03-29T07:14:11.125Z</time></trkpt><trkpt lat="43.8983605" lon="12.497571"><ele>404.1428571428571</ele><time>2026-03-29T07:14:14.068Z</time></trkpt><trkpt lat="43.898319" lon="12.4975051"><ele>404.57142857142856</ele><time>2026-03-29T07:14:17.109Z</time></trkpt><trkpt lat="43.8982802" lon="12.4974073"><ele>405.0</ele><time>2026-03-29T07:14:21.136Z</time></trkpt><trkpt lat="43.8982593" lon="12.4973076"><ele>406.2857142857143</ele><time>2026-03-29T07:14:25.124Z</time></trkpt><trkpt lat="43.8982351" lon="12.4972108"><ele>407.57142857142856</ele><time>2026-03-29T07:14:29.127Z</time></trkpt><trkpt lat="43.8982099" lon="12.4971055"><ele>408.8571428571429</ele><time>2026-03-29T07:14:33.102Z</time></trkpt><trkpt lat="43.8981815" lon="12.4970194"><ele>410.1428571428571</ele><time>2026-03-29T07:14:36.128Z</time></trkpt><trkpt lat="43.8981609" lon="12.4969254"><ele>411.42857142857144</ele><time>2026-03-29T07:14:39.123Z</time></trkpt><trkpt lat="43.8981348" lon="12.4968446"><ele>412.7142857142857</ele><time>2026-03-29T07:14:42.101Z</time></trkpt><trkpt lat="43.8980964" lon="12.496741"><ele>414.0</ele><time>2026-03-29T07:14:46.107Z</time></trkpt><trkpt lat="43.8980578" lon="12.49667"><ele>415.6666666666667</ele><time>2026-03-29T07:14:49.13Z</time></trkpt><trkpt lat="43.8980166" lon="12.4965701"><ele>417.33333333333337</ele><time>2026-03-29T07:14:53.071Z</time></trkpt><trkpt lat="43.8979758" lon="12.4965003"><ele>419.0</ele><time>2026-03-29T07:14:56.139Z</time></trkpt><trkpt lat="43.8979182" lon="12.4964303"><ele>420.6666666666667</ele><time>2026-03-29T07:14:59.093Z</time></trkpt><trkpt lat="43.8978467" lon="12.4963696"><ele>422.33333333333337</ele><time>2026-03-29T07:15:02.066Z</time></trkpt><trkpt lat="43.8977808" lon="12.4963146"><ele>424.0</ele><time>2026-03-29T07:15:05.073Z</time></trkpt><trkpt lat="43.8977167" lon="12.496264"><ele>424.00000000000006</ele><time>2026-03-29T07:15:08.064Z</time></trkpt><trkpt lat="43.8976454" lon="12.4962097"><ele>424.0</ele><time>2026-03-29T07:15:11.071Z</time></trkpt><trkpt lat="43.8975899" lon="12.4961617"><ele>424.0</ele><time>2026-03-29T07:15:14.126Z</time></trkpt><trkpt lat="43.8975276" lon="12.4961083"><ele>424.0</ele><time>2026-03-29T07:15:17.109Z</time></trkpt><trkpt lat="43.8974609" lon="12.4960636"><ele>424.00000000000006</ele><time>2026-03-29T07:15:20.127Z</time></trkpt><trkpt lat="43.8973927" lon="12.4960203"><ele>424.0</ele><time>2026-03-29T07:15:23.123Z</time></trkpt><trkpt lat="43.8973179" lon="12.495979"><ele>424.00000000000006</ele><time>2026-03-29T07:15:26.135Z</time></trkpt><trkpt lat="43.8972417" lon="12.4959464"><ele>424.0</ele><time>2026-03-29T07:15:29.097Z</time></trkpt><trkpt lat="43.897166" lon="12.4959123"><ele>424.0</ele><time>2026-03-29T07:15:32.126Z</time></trkpt><trkpt lat="43.8970956" lon="12.4958754"><ele>424.0</ele><time>2026-03-29T07:15:35.125Z</time></trkpt><trkpt lat="43.897025" lon="12.4958463"><ele>424.00000000000006</ele><time>2026-03-29T07:15:38.14Z</time></trkpt><trkpt lat="43.8969468" lon="12.4958213"><ele>424.0</ele><time>2026-03-29T07:15:41.142Z</time></trkpt><trkpt lat="43.8968673" lon="12.4957897"><ele>424.00000000000006</ele><time>2026-03-29T07:15:44.123Z</time></trkpt><trkpt lat="43.8967891" lon="12.4957506"><ele>424.0</ele><time>2026-03-29T07:15:47.129Z</time></trkpt><trkpt lat="43.8967157" lon="12.495721"><ele>424.0</ele><time>2026-03-29T07:15:50.135Z</time></trkpt><trkpt lat="43.8966348" lon="12.495678"><ele>424.0</ele><time>2026-03-29T07:15:53.088Z</time></trkpt><trkpt lat="43.8965498" lon="12.4956386"><ele>424.00000000000006</ele><time>2026-03-29T07:15:56.069Z</time></trkpt><trkpt lat="43.8964731" lon="12.4955988"><ele>424.0</ele><time>2026-03-29T07:15:59.083Z</time></trkpt><trkpt lat="43.8963883" lon="12.4955778"><ele>424.00000000000006</ele><time>2026-03-29T07:16:02.075Z</time></trkpt><trkpt lat="43.8963144" lon="12.4955533"><ele>424.0</ele><time>2026-03-29T07:16:05.082Z</time></trkpt><trkpt lat="43.8962409" lon="12.4955201"><ele>424.0</ele><time>2026-03-29T07:16:08.08Z</time></trkpt><trkpt lat="43.8961697" lon="12.4954662"><ele>424.0</ele><time>2026-03-29T07:16:11.113Z</time></trkpt><trkpt lat="43.8960982" lon="12.4954048"><ele>424.00000000000006</ele><time>2026-03-29T07:16:15.133Z</time></trkpt><trkpt lat="43.8960369" lon="12.4953587"><ele>424.0</ele><time>2026-03-29T07:16:18.134Z</time></trkpt><trkpt lat="43.8959613" lon="12.4952823"><ele>425.7142857142857</ele><time>2026-03-29T07:16:21.102Z</time></trkpt><trkpt lat="43.8959038" lon="12.4952196"><ele>427.4285714285714</ele><time>2026-03-29T07:16:24.122Z</time></trkpt><trkpt lat="43.8958495" lon="12.4951476"><ele>429.1428571428571</ele><time>2026-03-29T07:16:27.121Z</time></trkpt><trkpt lat="43.8957994" lon="12.4950836"><ele>430.8571428571429</ele><time>2026-03-29T07:16:30.094Z</time></trkpt><trkpt lat="43.8957529" lon="12.4950227"><ele>432.57142857142856</ele><time>2026-03-29T07:16:33.12Z</time></trkpt><trkpt lat="43.8957023" lon="12.4949588"><ele>434.2857142857143</ele><time>2026-03-29T07:16:36.127Z</time></trkpt><trkpt lat="43.8956478" lon="12.4948807"><ele>436.0</ele><time>2026-03-29T07:16:39.104Z</time></trkpt><trkpt lat="43.8955987" lon="12.4948033"><ele>436.0</ele><time>2026-03-29T07:16:42.095Z</time></trkpt><trkpt lat="43.8955507" lon="12.4947271"><ele>436.0</ele><time>2026-03-29T07:16:45.12Z</time></trkpt><trkpt lat="43.8955079" lon="12.4946425"><ele>436.0</ele><time>2026-03-29T07:16:48.077Z</time></trkpt><trkpt lat="43.895458" lon="12.4945714"><ele>436.0</ele><time>2026-03-29T07:16:51.071Z</time></trkpt><trkpt lat="43.8954014" lon="12.4945068"><ele>436.0</ele><time>2026-03-29T07:16:54.102Z</time></trkpt><trkpt lat="43.8953541" lon="12.4944448"><ele>436.0</ele><time>2026-03-29T07:16:57.067Z</time></trkpt><trkpt lat="43.8952986" lon="12.4943713"><ele>436.0</ele><time>2026-03-29T07:17:00.067Z</time></trkpt><trkpt lat="43.8952416" lon="12.4943115"><ele>435.57142857142856</ele><time>2026-03-29T07:17:03.083Z</time></trkpt><trkpt lat="43.8951807" lon="12.4942517"><ele>435.14285714285717</ele><time>2026-03-29T07:17:06.07Z</time></trkpt><trkpt lat="43.8951223" lon="12.4941928"><ele>434.71428571428567</ele><time>2026-03-29T07:17:09.095Z</time></trkpt><trkpt lat="43.895065" lon="12.4941128"><ele>434.2857142857143</ele><time>2026-03-29T07:17:13.108Z</time></trkpt><trkpt lat="43.8950316" lon="12.4940302"><ele>433.85714285714283</ele><time>2026-03-29T07:17:16.076Z</time></trkpt><trkpt lat="43.8950091" lon="12.493941"><ele>433.4285714285714</ele><time>2026-03-29T07:17:19.129Z</time></trkpt><trkpt lat="43.8950047" lon="12.4938479"><ele>433.0</ele><time>2026-03-29T07:17:22.125Z</time></trkpt><trkpt lat="43.8949963" lon="12.4937375"><ele>436.1666666666667</ele><time>2026-03-29T07:17:26.106Z</time></trkpt><trkpt lat="43.8950044" lon="12.4936473"><ele>439.33333333333337</ele><time>2026-03-29T07:17:29.077Z</time></trkpt><trkpt lat="43.8950006" lon="12.4935459"><ele>442.5</ele><time>2026-03-29T07:17:32.085Z</time></trkpt><trkpt lat="43.8949957" lon="12.4934433"><ele>445.66666666666663</ele><time>2026-03-29T07:17:35.105Z</time></trkpt><trkpt lat="43.8949899" lon="12.4933233"><ele>448.8333333333333</ele><time>2026-03-29T07:17:39.112Z</time></trkpt><trkpt lat="43.8949731" lon="12.4932235"><ele>452.0</ele><time>2026-03-29T07:17:42.126Z</time></trkpt><trkpt lat="43.894944" lon="12.4931194"><ele>451.99999999999994</ele><time>2026-03-29T07:17:45.117Z</time></trkpt><trkpt lat="43.8948895" lon="12.4930345"><ele>452.0</ele><time>2026-03-29T07:17:48.121Z</time></trkpt><trkpt lat="43.8948313" lon="12.4929493"><ele>452.0</ele><time>2026-03-29T07:17:51.106Z</time></trkpt><trkpt lat="43.894783" lon="12.4928551"><ele>452.0</ele><time>2026-03-29T07:17:54.065Z</time></trkpt><trkpt lat="43.8947399" lon="12.4927601"><ele>451.99999999999994</ele><time>2026-03-29T07:17:57.099Z</time></trkpt><trkpt lat="43.8946829" lon="12.4926614"><ele>452.0</ele><time>2026-03-29T07:18:00.101Z</time></trkpt><trkpt lat="43.8946599" lon="12.492567"><ele>451.99999999999994</ele><time>2026-03-29T07:18:03.125Z</time></trkpt><trkpt lat="43.8946466" lon="12.4924626"><ele>452.0</ele><time>2026-03-29T07:18:06.13Z</time></trkpt><trkpt lat="43.8946239" lon="12.4923653"><ele>452.0</ele><time>2026-03-29T07:18:09.091Z</time></trkpt><trkpt lat="43.8946153" lon="12.4922476"><ele>452.0</ele><time>2026-03-29T07:18:12.106Z</time></trkpt><trkpt lat="43.8946051" lon="12.4921469"><ele>451.99999999999994</ele><time>2026-03-29T07:18:15.122Z</time></trkpt><trkpt lat="43.8946199" lon="12.4920428"><ele>452.0</ele><time>2026-03-29T07:18:18.131Z</time></trkpt><trkpt lat="43.8946281" lon="12.491937"><ele>452.49999999999994</ele><time>2026-03-29T07:18:21.065Z</time></trkpt><trkpt lat="43.8946306" lon="12.4918147"><ele>453.0</ele><time>2026-03-29T07:18:25.062Z</time></trkpt><trkpt lat="43.8946271" lon="12.4916987"><ele>453.5</ele><time>2026-03-29T07:18:28.083Z</time></trkpt><trkpt lat="43.8946236" lon="12.4916013"><ele>454.0</ele><time>2026-03-29T07:18:31.113Z</time></trkpt><trkpt lat="43.8946046" lon="12.4915012"><ele>454.49999999999994</ele><time>2026-03-29T07:18:34.089Z</time></trkpt><trkpt lat="43.894575" lon="12.491409"><ele>455.0</ele><time>2026-03-29T07:18:37.076Z</time></trkpt><trkpt lat="43.8945517" lon="12.4913086"><ele>454.99999999999994</ele><time>2026-03-29T07:18:40.117Z</time></trkpt><trkpt lat="43.8945225" lon="12.4912122"><ele>455.0</ele><time>2026-03-29T07:18:43.108Z</time></trkpt><trkpt lat="43.8944855" lon="12.4911171"><ele>455.0</ele><time>2026-03-29T07:18:46.081Z</time></trkpt><trkpt lat="43.8944381" lon="12.4910255"><ele>455.0</ele><time>2026-03-29T07:18:49.129Z</time></trkpt><trkpt lat="43.8944001" lon="12.4909292"><ele>454.99999999999994</ele><time>2026-03-29T07:18:52.097Z</time></trkpt><trkpt lat="43.8943623" lon="12.4908387"><ele>455.0</ele><time>2026-03-29T07:18:55.106Z</time></trkpt><trkpt lat="43.894324" lon="12.4907536"><ele>455.0</ele><time>2026-03-29T07:18:58.137Z</time></trkpt><trkpt lat="43.894272" lon="12.4906626"><ele>455.0</ele><time>2026-03-29T07:19:02.11Z</time></trkpt><trkpt lat="43.894224" lon="12.4906009"><ele>455.0</ele><time>2026-03-29T07:19:05.113Z</time></trkpt><trkpt lat="43.8941524" lon="12.4905793"><ele>455.0</ele><time>2026-03-29T07:19:08.125Z</time></trkpt><trkpt lat="43.8940826" lon="12.4905794"><ele>455.0</ele><time>2026-03-29T07:19:11.108Z</time></trkpt><trkpt lat="43.8940181" lon="12.490601"><ele>455.0</ele><time>2026-03-29T07:19:14.121Z</time></trkpt><trkpt lat="43.8939727" lon="12.4906631"><ele>455.0</ele><time>2026-03-29T07:19:17.114Z</time></trkpt><trkpt lat="43.8939362" lon="12.4907353"><ele>457.7142857142857</ele><time>2026-03-29T07:19:20.12Z</time></trkpt><trkpt lat="43.8939316" lon="12.4908269"><ele>460.42857142857144</ele><time>2026-03-29T07:19:24.121Z</time></trkpt><trkpt lat="43.8939401" lon="12.490918"><ele>463.1428571428571</ele><time>2026-03-29T07:19:27.11Z</time></trkpt><trkpt lat="43.8939373" lon="12.4910323"><ele>465.85714285714283</ele><time>2026-03-29T07:19:31.099Z</time></trkpt><trkpt lat="43.8939414" lon="12.4911223"><ele>468.57142857142856</ele><time>2026-03-29T07:19:34.121Z</time></trkpt><trkpt lat="43.8939458" lon="12.4912216"><ele>471.2857142857142</ele><time>2026-03-29T07:19:37.121Z</time></trkpt><trkpt lat="43.8939408" lon="12.4913216"><ele>473.99999999999994</ele><time>2026-03-29T07:19:40.109Z</time></trkpt><trkpt lat="43.8939281" lon="12.4914261"><ele>473.99999999999994</ele><time>2026-03-29T07:19:44.07Z</time></trkpt><trkpt lat="43.8938868" lon="12.4915137"><ele>474.0</ele><time>2026-03-29T07:19:47.134Z</time></trkpt><trkpt lat="43.893845" lon="12.4915909"><ele>473.99999999999994</ele><time>2026-03-29T07:19:50.079Z</time></trkpt><trkpt lat="43.8938101" lon="12.4916661"><ele>473.99999999999994</ele><time>2026-03-29T07:19:53.119Z</time></trkpt><trkpt lat="43.8937559" lon="12.4917479"><ele>474.0</ele><time>2026-03-29T07:19:57.067Z</time></trkpt><trkpt lat="43.8937083" lon="12.4918091"><ele>473.99999999999994</ele><time>2026-03-29T07:20:00.125Z</time></trkpt><trkpt lat="43.8936613" lon="12.4918729"><ele>473.99999999999994</ele><time>2026-03-29T07:20:03.109Z</time></trkpt><trkpt lat="43.8936036" lon="12.4919573"><ele>473.99999999999994</ele><time>2026-03-29T07:20:07.118Z</time></trkpt><trkpt lat="43.8935539" lon="12.4920347"><ele>474.0</ele><time>2026-03-29T07:20:10.124Z</time></trkpt><trkpt lat="43.8935121" lon="12.4921191"><ele>473.99999999999994</ele><time>2026-03-29T07:20:13.065Z</time></trkpt><trkpt lat="43.8934693" lon="12.4921951"><ele>473.99999999999994</ele><time>2026-03-29T07:20:16.114Z</time></trkpt><trkpt lat="43.8934186" lon="12.4922613"><ele>474.0</ele><time>2026-03-29T07:20:19.116Z</time></trkpt><trkpt lat="43.8933683" lon="12.4923407"><ele>473.99999999999994</ele><time>2026-03-29T07:20:22.08Z</time></trkpt><trkpt lat="43.8933206" lon="12.4924062"><ele>473.99999999999994</ele><time>2026-03-29T07:20:25.105Z</time></trkpt><trkpt lat="43.8932608" lon="12.4924815"><ele>476.1428571428571</ele><time>2026-03-29T07:20:28.117Z</time></trkpt><trkpt lat="43.893196" lon="12.4925529"><ele>478.2857142857143</ele><time>2026-03-29T07:20:31.117Z</time></trkpt><trkpt lat="43.8931397" lon="12.4926076"><ele>480.42857142857144</ele><time>2026-03-29T07:20:34.121Z</time></trkpt><trkpt lat="43.8930853" lon="12.4926539"><ele>482.57142857142856</ele><time>2026-03-29T07:20:37.131Z</time></trkpt><trkpt lat="43.893025" lon="12.4926914"><ele>484.7142857142858</ele><time>2026-03-29T07:20:40.119Z</time></trkpt><trkpt lat="43.8929579" lon="12.4927327"><ele>486.8571428571429</ele><time>2026-03-29T07:20:43.117Z</time></trkpt><trkpt lat="43.8929022" lon="12.4927813"><ele>489.0</ele><time>2026-03-29T07:20:46.122Z</time></trkpt><trkpt lat="43.8928424" lon="12.4928333"><ele>489.0</ele><time>2026-03-29T07:20:49.142Z</time></trkpt><trkpt lat="43.8927751" lon="12.4928826"><ele>489.0</ele><time>2026-03-29T07:20:52.111Z</time></trkpt><trkpt lat="43.8927022" lon="12.4929301"><ele>489.0</ele><time>2026-03-29T07:20:55.126Z</time></trkpt><trkpt lat="43.8926367" lon="12.4930036"><ele>489.0</ele><time>2026-03-29T07:20:58.13Z</time></trkpt><trkpt lat="43.8925736" lon="12.4930544"><ele>489.0</ele><time>2026-03-29T07:21:01.132Z</time></trkpt><trkpt lat="43.8925078" lon="12.4930889"><ele>489.0</ele><time>2026-03-29T07:21:04.093Z</time></trkpt><trkpt lat="43.8924372" lon="12.4931192"><ele>490.0</ele><time>2026-03-29T07:21:07.111Z</time></trkpt><trkpt lat="43.8923527" lon="12.4931396"><ele>491.0</ele><time>2026-03-29T07:21:10.125Z</time></trkpt><trkpt lat="43.8922636" lon="12.493167"><ele>492.0</ele><time>2026-03-29T07:21:13.11Z</time></trkpt><trkpt lat="43.8921676" lon="12.4931861"><ele>493.0</ele><time>2026-03-29T07:21:16.112Z</time></trkpt><trkpt lat="43.8920816" lon="12.4932158"><ele>494.0</ele><time>2026-03-29T07:21:19.128Z</time></trkpt><trkpt lat="43.8920202" lon="12.493254"><ele>495.0</ele><time>2026-03-29T07:21:21.108Z</time></trkpt><trkpt lat="43.8919284" lon="12.4932983"><ele>495.0</ele><time>2026-03-29T07:21:24.099Z</time></trkpt><trkpt lat="43.8918717" lon="12.4933425"><ele>495.0</ele><time>2026-03-29T07:21:26.065Z</time></trkpt><trkpt lat="43.8917887" lon="12.493394"><ele>495.0</ele><time>2026-03-29T07:21:29.071Z</time></trkpt><trkpt lat="43.8917058" lon="12.4934572"><ele>495.0</ele><time>2026-03-29T07:21:32.066Z</time></trkpt><trkpt lat="43.8916396" lon="12.4935113"><ele>495.0</ele><time>2026-03-29T07:21:34.096Z</time></trkpt><trkpt lat="43.891579" lon="12.4935602"><ele>495.0</ele><time>2026-03-29T07:21:36.087Z</time></trkpt><trkpt lat="43.891517" lon="12.4935855"><ele>496.3333333333333</ele><time>2026-03-29T07:21:38.076Z</time></trkpt><trkpt lat="43.8914384" lon="12.4936041"><ele>497.66666666666663</ele><time>2026-03-29T07:21:41.113Z</time></trkpt><trkpt lat="43.8913651" lon="12.4936147"><ele>499.0</ele><time>2026-03-29T07:21:44.13Z</time></trkpt><trkpt lat="43.8912849" lon="12.4936351"><ele>500.3333333333333</ele><time>2026-03-29T07:21:48.112Z</time></trkpt><trkpt lat="43.8912188" lon="12.493659"><ele>501.66666666666663</ele><time>2026-03-29T07:21:51.13Z</time></trkpt><trkpt lat="43.8911361" lon="12.4936904"><ele>503.0</ele><time>2026-03-29T07:21:55.11Z</time></trkpt><trkpt lat="43.8910648" lon="12.4937168"><ele>503.0</ele><time>2026-03-29T07:21:58.112Z</time></trkpt><trkpt lat="43.8910047" lon="12.4937497"><ele>503.00000000000006</ele><time>2026-03-29T07:22:01.11Z</time></trkpt><trkpt lat="43.8909344" lon="12.4937793"><ele>503.0</ele><time>2026-03-29T07:22:04.102Z</time></trkpt><trkpt lat="43.8908626" lon="12.4938093"><ele>503.0</ele><time>2026-03-29T07:22:07.087Z</time></trkpt><trkpt lat="43.8907823" lon="12.4938414"><ele>503.00000000000006</ele><time>2026-03-29T07:22:11.129Z</time></trkpt><trkpt lat="43.8907174" lon="12.4938717"><ele>503.0</ele><time>2026-03-29T07:22:14.111Z</time></trkpt><trkpt lat="43.8906531" lon="12.493893"><ele>503.0</ele><time>2026-03-29T07:22:17.126Z</time></trkpt><trkpt lat="43.8905891" lon="12.4939177"><ele>503.28571428571433</ele><time>2026-03-29T07:22:20.138Z</time></trkpt><trkpt lat="43.890511" lon="12.4939493"><ele>503.5714285714286</ele><time>2026-03-29T07:22:24.121Z</time></trkpt><trkpt lat="43.8904263" lon="12.4939665"><ele>503.8571428571429</ele><time>2026-03-29T07:22:28.131Z</time></trkpt><trkpt lat="43.8903604" lon="12.4939783"><ele>504.1428571428571</ele><time>2026-03-29T07:22:31.132Z</time></trkpt><trkpt lat="43.8902947" lon="12.4939904"><ele>504.4285714285714</ele><time>2026-03-29T07:22:34.125Z</time></trkpt><trkpt lat="43.8902312" lon="12.4939844"><ele>504.71428571428567</ele><time>2026-03-29T07:22:37.125Z</time></trkpt><trkpt lat="43.8901579" lon="12.4939705"><ele>505.0</ele><time>2026-03-29T07:22:41.129Z</time></trkpt><trkpt lat="43.8900927" lon="12.4939153"><ele>506.0</ele><time>2026-03-29T07:22:45.125Z</time></trkpt><trkpt lat="43.8900407" lon="12.4938636"><ele>506.99999999999994</ele><time>2026-03-29T07:22:48.142Z</time></trkpt><trkpt lat="43.8900058" lon="12.4937681"><ele>508.0</ele><time>2026-03-29T07:22:52.109Z</time></trkpt><trkpt lat="43.8899857" lon="12.4936798"><ele>509.0</ele><time>2026-03-29T07:22:55.125Z</time></trkpt><trkpt lat="43.8899728" lon="12.4935932"><ele>509.99999999999994</ele><time>2026-03-29T07:22:58.127Z</time></trkpt><trkpt lat="43.8899534" lon="12.4935014"><ele>511.0</ele><time>2026-03-29T07:23:01.125Z</time></trkpt><trkpt lat="43.8899365" lon="12.4934123"><ele>512.0</ele><time>2026-03-29T07:23:04.143Z</time></trkpt><trkpt lat="43.8899135" lon="12.4933155"><ele>513.0</ele><time>2026-03-29T07:23:08.131Z</time></trkpt><trkpt lat="43.8899019" lon="12.4932183"><ele>514.0</ele><time>2026-03-29T07:23:12.118Z</time></trkpt><trkpt lat="43.8898823" lon="12.4931095"><ele>515.0</ele><time>2026-03-29T07:23:16.126Z</time></trkpt><trkpt lat="43.8898691" lon="12.4930227"><ele>516.0</ele><time>2026-03-29T07:23:19.119Z</time></trkpt><trkpt lat="43.8898534" lon="12.4929331"><ele>517.0</ele><time>2026-03-29T07:23:23.141Z</time></trkpt><trkpt lat="43.8898531" lon="12.4928341"><ele>518.0</ele><time>2026-03-29T07:23:27.066Z</time></trkpt><trkpt lat="43.8898537" lon="12.4927456"><ele>519.0</ele><time>2026-03-29T07:23:31.072Z</time></trkpt><trkpt lat="43.8898577" lon="12.4926534"><ele>520.2857142857142</ele><time>2026-03-29T07:23:35.121Z</time></trkpt><trkpt lat="43.8898628" lon="12.4925649"><ele>521.5714285714286</ele><time>2026-03-29T07:23:39.115Z</time></trkpt><trkpt lat="43.8898927" lon="12.4924856"><ele>522.8571428571429</ele><time>2026-03-29T07:23:42.12Z</time></trkpt><trkpt lat="43.8899209" lon="12.4924032"><ele>524.1428571428571</ele><time>2026-03-29T07:23:45.117Z</time></trkpt><trkpt lat="43.8899639" lon="12.4923251"><ele>525.4285714285714</ele><time>2026-03-29T07:23:49.122Z</time></trkpt><trkpt lat="43.8900093" lon="12.4922598"><ele>526.7142857142857</ele><time>2026-03-29T07:23:53.149Z</time></trkpt><trkpt lat="43.890051" lon="12.4921904"><ele>528.0</ele><time>2026-03-29T07:23:56.133Z</time></trkpt><trkpt lat="43.8901095" lon="12.4921027"><ele>530.0</ele><time>2026-03-29T07:24:00.12Z</time></trkpt><trkpt lat="43.8901495" lon="12.4920297"><ele>532.0</ele><time>2026-03-29T07:24:03.069Z</time></trkpt><trkpt lat="43.8902013" lon="12.4919388"><ele>534.0</ele><time>2026-03-29T07:24:07.131Z</time></trkpt><trkpt lat="43.890248" lon="12.4918671"><ele>536.0</ele><time>2026-03-29T07:24:11.109Z</time></trkpt><trkpt lat="43.890293" lon="12.4917994"><ele>538.0</ele><time>2026-03-29T07:24:14.116Z</time></trkpt><trkpt lat="43.890343" lon="12.4917111"><ele>540.0</ele><time>2026-03-29T07:24:18.133Z</time></trkpt><trkpt lat="43.8903797" lon="12.4916324"><ele>542.0</ele><time>2026-03-29T07:24:21.128Z</time></trkpt><trkpt lat="43.8904076" lon="12.4915505"><ele>542.0</ele><time>2026-03-29T07:24:24.137Z</time></trkpt><trkpt lat="43.8904229" lon="12.491446"><ele>542.0</ele><time>2026-03-29T07:24:28.08Z</time></trkpt><trkpt lat="43.8904423" lon="12.4913528"><ele>542.0</ele><time>2026-03-29T07:24:31.121Z</time></trkpt><trkpt lat="43.8904501" lon="12.491255"><ele>542.0</ele><time>2026-03-29T07:24:34.119Z</time></trkpt><trkpt lat="43.8904397" lon="12.4911646"><ele>542.0</ele><time>2026-03-29T07:24:37.124Z</time></trkpt><trkpt lat="43.8904266" lon="12.4910716"><ele>542.0</ele><time>2026-03-29T07:24:40.125Z</time></trkpt><trkpt lat="43.8904086" lon="12.4909658"><ele>542.0</ele><time>2026-03-29T07:24:44.127Z</time></trkpt><trkpt lat="43.8903794" lon="12.4908687"><ele>543.3333333333333</ele><time>2026-03-29T07:24:47.103Z</time></trkpt><trkpt lat="43.8903444" lon="12.4907637"><ele>544.6666666666666</ele><time>2026-03-29T07:24:50.133Z</time></trkpt><trkpt lat="43.8902874" lon="12.4906758"><ele>546.0</ele><time>2026-03-29T07:24:53.104Z</time></trkpt><trkpt lat="43.8902405" lon="12.4906012"><ele>547.3333333333334</ele><time>2026-03-29T07:24:56.1Z</time></trkpt><trkpt lat="43.8901989" lon="12.4905153"><ele>548.6666666666667</ele><time>2026-03-29T07:24:59.128Z</time></trkpt><trkpt lat="43.890145" lon="12.4904207"><ele>550.0</ele><time>2026-03-29T07:25:03.11Z</time></trkpt><trkpt lat="43.8901013" lon="12.4903514"><ele>549.8333333333334</ele><time>2026-03-29T07:25:06.127Z</time></trkpt><trkpt lat="43.8900458" lon="12.490265"><ele>549.6666666666667</ele><time>2026-03-29T07:25:10.13Z</time></trkpt><trkpt lat="43.8899965" lon="12.490182"><ele>549.5</ele><time>2026-03-29T07:25:13.1Z</time></trkpt><trkpt lat="43.8899473" lon="12.4900856"><ele>549.3333333333334</ele><time>2026-03-29T07:25:16.124Z</time></trkpt><trkpt lat="43.8899153" lon="12.489982"><ele>549.1666666666666</ele><time>2026-03-29T07:25:19.123Z</time></trkpt><trkpt lat="43.8898758" lon="12.4898669"><ele>549.0</ele><time>2026-03-29T07:25:22.139Z</time></trkpt><trkpt lat="43.8898532" lon="12.4897845"><ele>549.0</ele><time>2026-03-29T07:25:24.136Z</time></trkpt><trkpt lat="43.8898193" lon="12.4896902"><ele>549.0</ele><time>2026-03-29T07:25:26.156Z</time></trkpt><trkpt lat="43.8897793" lon="12.4895648"><ele>549.0</ele><time>2026-03-29T07:25:28.11Z</time></trkpt><trkpt lat="43.8897305" lon="12.4894477"><ele>549.0</ele><time>2026-03-29T07:25:30.082Z</time></trkpt><trkpt lat="43.8897007" lon="12.4893345"><ele>549.0</ele><time>2026-03-29T07:25:32.127Z</time></trkpt><trkpt lat="43.8896786" lon="12.4892431"><ele>549.0</ele><time>2026-03-29T07:25:34.133Z</time></trkpt><trkpt lat="43.8896562" lon="12.4891569"><ele>549.6666666666666</ele><time>2026-03-29T07:25:36.126Z</time></trkpt><trkpt lat="43.8896163" lon="12.4890422"><ele>550.3333333333334</ele><time>2026-03-29T07:25:39.138Z</time></trkpt><trkpt lat="43.889592" lon="12.4889611"><ele>551.0</ele><time>2026-03-29T07:25:41.134Z</time></trkpt><trkpt lat="43.8895735" lon="12.4888727"><ele>551.6666666666667</ele><time>2026-03-29T07:25:43.129Z</time></trkpt><trkpt lat="43.8895539" lon="12.4887646"><ele>552.3333333333334</ele><time>2026-03-29T07:25:45.123Z</time></trkpt><trkpt lat="43.8895347" lon="12.4886549"><ele>553.0</ele><time>2026-03-29T07:25:47.13Z</time></trkpt><trkpt lat="43.8895298" lon="12.4885451"><ele>553.1666666666667</ele><time>2026-03-29T07:25:49.126Z</time></trkpt><trkpt lat="43.8895384" lon="12.4884399"><ele>553.3333333333334</ele><time>2026-03-29T07:25:51.145Z</time></trkpt><trkpt lat="43.8895559" lon="12.4883436"><ele>553.5</ele><time>2026-03-29T07:25:53.134Z</time></trkpt><trkpt lat="43.8895792" lon="12.4882508"><ele>553.6666666666666</ele><time>2026-03-29T07:25:55.129Z</time></trkpt><trkpt lat="43.8895968" lon="12.4881451"><ele>553.8333333333333</ele><time>2026-03-29T07:25:57.126Z</time></trkpt><trkpt lat="43.8896188" lon="12.4880366"><ele>554.0</ele><time>2026-03-29T07:25:59.143Z</time></trkpt><trkpt lat="43.8896389" lon="12.4879366"><ele>553.3333333333333</ele><time>2026-03-29T07:26:01.143Z</time></trkpt><trkpt lat="43.8896586" lon="12.4878161"><ele>552.6666666666666</ele><time>2026-03-29T07:26:03.13Z</time></trkpt><trkpt lat="43.8896896" lon="12.4877043"><ele>552.0</ele><time>2026-03-29T07:26:05.125Z</time></trkpt><trkpt lat="43.8897187" lon="12.4875938"><ele>551.3333333333334</ele><time>2026-03-29T07:26:07.08Z</time></trkpt><trkpt lat="43.8897422" lon="12.4874817"><ele>550.6666666666667</ele><time>2026-03-29T07:26:09.124Z</time></trkpt><trkpt lat="43.8897679" lon="12.487362"><ele>550.0</ele><time>2026-03-29T07:26:11.093Z</time></trkpt><trkpt lat="43.8897973" lon="12.4872479"><ele>550.0</ele><time>2026-03-29T07:26:13.133Z</time></trkpt><trkpt lat="43.8898316" lon="12.4871329"><ele>550.0</ele><time>2026-03-29T07:26:15.136Z</time></trkpt><trkpt lat="43.8898587" lon="12.4870292"><ele>550.0</ele><time>2026-03-29T07:26:17.146Z</time></trkpt><trkpt lat="43.8898784" lon="12.4869193"><ele>550.0</ele><time>2026-03-29T07:26:19.121Z</time></trkpt><trkpt lat="43.8899115" lon="12.4868108"><ele>550.0</ele><time>2026-03-29T07:26:21.13Z</time></trkpt><trkpt lat="43.8899341" lon="12.4866918"><ele>550.0</ele><time>2026-03-29T07:26:23.124Z</time></trkpt><trkpt lat="43.8899609" lon="12.4865865"><ele>550.0</ele><time>2026-03-29T07:26:25.132Z</time></trkpt><trkpt lat="43.889979" lon="12.4864798"><ele>550.0</ele><time>2026-03-29T07:26:27.146Z</time></trkpt><trkpt lat="43.8899987" lon="12.4863867"><ele>550.0</ele><time>2026-03-29T07:26:29.124Z</time></trkpt><trkpt lat="43.8900239" lon="12.4862968"><ele>550.0</ele><time>2026-03-29T07:26:31.136Z</time></trkpt><trkpt lat="43.890055" lon="12.4861835"><ele>550.0</ele><time>2026-03-29T07:26:33.135Z</time></trkpt><trkpt lat="43.8900746" lon="12.4860681"><ele>550.0</ele><time>2026-03-29T07:26:35.139Z</time></trkpt><trkpt lat="43.8901061" lon="12.4859689"><ele>550.0</ele><time>2026-03-29T07:26:37.125Z</time></trkpt><trkpt lat="43.8901324" lon="12.4858858"><ele>550.0</ele><time>2026-03-29T07:26:39.087Z</time></trkpt><trkpt lat="43.8901654" lon="12.4857925"><ele>550.0</ele><time>2026-03-29T07:26:41.141Z</time></trkpt><trkpt lat="43.890193" lon="12.485707"><ele>550.0</ele><time>2026-03-29T07:26:43.123Z</time></trkpt><trkpt lat="43.8902169" lon="12.4856231"><ele>550.0</ele><time>2026-03-29T07:26:45.128Z</time></trkpt><trkpt lat="43.8902387" lon="12.4855393"><ele>550.0</ele><time>2026-03-29T07:26:47.084Z</time></trkpt><trkpt lat="43.8902605" lon="12.4854171"><ele>550.0</ele><time>2026-03-29T07:26:50.144Z</time></trkpt><trkpt lat="43.8902759" lon="12.4853307"><ele>550.3333333333334</ele><time>2026-03-29T07:26:52.118Z</time></trkpt><trkpt lat="43.8902924" lon="12.4852008"><ele>550.6666666666667</ele><time>2026-03-29T07:26:55.134Z</time></trkpt><trkpt lat="43.8902989" lon="12.4851029"><ele>551.0</ele><time>2026-03-29T07:26:57.127Z</time></trkpt><trkpt lat="43.8902881" lon="12.485"><ele>551.3333333333334</ele><time>2026-03-29T07:26:59.134Z</time></trkpt><trkpt lat="43.8902827" lon="12.4849055"><ele>551.6666666666666</ele><time>2026-03-29T07:27:01.109Z</time></trkpt><trkpt lat="43.8902664" lon="12.4848117"><ele>552.0</ele><time>2026-03-29T07:27:03.128Z</time></trkpt><trkpt lat="43.890248" lon="12.4847112"><ele>552.0</ele><time>2026-03-29T07:27:05.137Z</time></trkpt><trkpt lat="43.8902286" lon="12.4845965"><ele>552.0</ele><time>2026-03-29T07:27:07.125Z</time></trkpt><trkpt lat="43.8902172" lon="12.4845049"><ele>552.0</ele><time>2026-03-29T07:27:09.117Z</time></trkpt><trkpt lat="43.8901875" lon="12.4843931"><ele>552.0</ele><time>2026-03-29T07:27:11.112Z</time></trkpt><trkpt lat="43.8901559" lon="12.4842658"><ele>552.0</ele><time>2026-03-29T07:27:13.121Z</time></trkpt><trkpt lat="43.8901309" lon="12.4841436"><ele>552.0</ele><time>2026-03-29T07:27:15.124Z</time></trkpt><trkpt lat="43.8901058" lon="12.4840216"><ele>552.0</ele><time>2026-03-29T07:27:17.132Z</time></trkpt><trkpt lat="43.8900988" lon="12.4839026"><ele>552.0</ele><time>2026-03-29T07:27:19.128Z</time></trkpt><trkpt lat="43.8900697" lon="12.4837966"><ele>552.0</ele><time>2026-03-29T07:27:21.124Z</time></trkpt><trkpt lat="43.8900552" lon="12.483691"><ele>552.0</ele><time>2026-03-29T07:27:23.127Z</time></trkpt><trkpt lat="43.8900447" lon="12.4835844"><ele>552.0</ele><time>2026-03-29T07:27:25.122Z</time></trkpt><trkpt lat="43.8900413" lon="12.4834885"><ele>552.0</ele><time>2026-03-29T07:27:27.106Z</time></trkpt><trkpt lat="43.8900328" lon="12.4833854"><ele>552.6666666666666</ele><time>2026-03-29T07:27:29.128Z</time></trkpt><trkpt lat="43.8900192" lon="12.4832802"><ele>553.3333333333334</ele><time>2026-03-29T07:27:31.137Z</time></trkpt><trkpt lat="43.8900064" lon="12.4831631"><ele>554.0</ele><time>2026-03-29T07:27:33.119Z</time></trkpt><trkpt lat="43.8900005" lon="12.4830396"><ele>554.6666666666667</ele><time>2026-03-29T07:27:35.123Z</time></trkpt><trkpt lat="43.8899913" lon="12.4829305"><ele>555.3333333333334</ele><time>2026-03-29T07:27:37.126Z</time></trkpt><trkpt lat="43.8900031" lon="12.4828168"><ele>556.0</ele><time>2026-03-29T07:27:39.13Z</time></trkpt><trkpt lat="43.8900214" lon="12.4827148"><ele>556.0</ele><time>2026-03-29T07:27:41.136Z</time></trkpt><trkpt lat="43.8900305" lon="12.482597"><ele>556.0</ele><time>2026-03-29T07:27:43.136Z</time></trkpt><trkpt lat="43.8900406" lon="12.4824876"><ele>556.0</ele><time>2026-03-29T07:27:45.125Z</time></trkpt><trkpt lat="43.890052" lon="12.4823983"><ele>556.0</ele><time>2026-03-29T07:27:47.125Z</time></trkpt><trkpt lat="43.8900704" lon="12.4822968"><ele>556.0</ele><time>2026-03-29T07:27:49.136Z</time></trkpt><trkpt lat="43.8900769" lon="12.4821904"><ele>556.0</ele><time>2026-03-29T07:27:51.117Z</time></trkpt><trkpt lat="43.8900965" lon="12.4820767"><ele>556.3333333333334</ele><time>2026-03-29T07:27:53.125Z</time></trkpt><trkpt lat="43.8901168" lon="12.4819694"><ele>556.6666666666667</ele><time>2026-03-29T07:27:55.13Z</time></trkpt><trkpt lat="43.8901153" lon="12.4818493"><ele>557.0</ele><time>2026-03-29T07:27:57.131Z</time></trkpt><trkpt lat="43.8901101" lon="12.4817395"><ele>557.3333333333334</ele><time>2026-03-29T07:27:59.124Z</time></trkpt><trkpt lat="43.8901167" lon="12.4816284"><ele>557.6666666666666</ele><time>2026-03-29T07:28:01.148Z</time></trkpt><trkpt lat="43.8901266" lon="12.4815139"><ele>558.0</ele><time>2026-03-29T07:28:03.136Z</time></trkpt><trkpt lat="43.8901389" lon="12.4814082"><ele>558.0</ele><time>2026-03-29T07:28:05.135Z</time></trkpt><trkpt lat="43.8901488" lon="12.4812774"><ele>558.0</ele><time>2026-03-29T07:28:07.122Z</time></trkpt><trkpt lat="43.8901402" lon="12.4811379"><ele>558.0</ele><time>2026-03-29T07:28:09.135Z</time></trkpt><trkpt lat="43.8901398" lon="12.4810064"><ele>558.0</ele><time>2026-03-29T07:28:11.146Z</time></trkpt><trkpt lat="43.8901441" lon="12.4808851"><ele>558.0</ele><time>2026-03-29T07:28:13.128Z</time></trkpt><trkpt lat="43.8901465" lon="12.4807648"><ele>557.1999999999999</ele><time>2026-03-29T07:28:15.145Z</time></trkpt><trkpt lat="43.8901408" lon="12.4806355"><ele>556.4</ele><time>2026-03-29T07:28:17.132Z</time></trkpt><trkpt lat="43.8901551" lon="12.4805084"><ele>555.5999999999999</ele><time>2026-03-29T07:28:19.138Z</time></trkpt><trkpt lat="43.8901583" lon="12.4803813"><ele>554.8</ele><time>2026-03-29T07:28:21.122Z</time></trkpt><trkpt lat="43.8901495" lon="12.4802506"><ele>554.0</ele><time>2026-03-29T07:28:23.137Z</time></trkpt><trkpt lat="43.8901404" lon="12.4801306"><ele>554.4</ele><time>2026-03-29T07:28:25.137Z</time></trkpt><trkpt lat="43.8901332" lon="12.4799886"><ele>554.8</ele><time>2026-03-29T07:28:27.124Z</time></trkpt><trkpt lat="43.890131" lon="12.4798336"><ele>555.2</ele><time>2026-03-29T07:28:29.119Z</time></trkpt><trkpt lat="43.8901124" lon="12.4796803"><ele>555.6</ele><time>2026-03-29T07:28:31.113Z</time></trkpt><trkpt lat="43.8900941" lon="12.4795124"><ele>556.0</ele><time>2026-03-29T07:28:33.108Z</time></trkpt><trkpt lat="43.890076" lon="12.4793519"><ele>556.0</ele><time>2026-03-29T07:28:35.142Z</time></trkpt><trkpt lat="43.8900618" lon="12.4792652"><ele>556.0</ele><time>2026-03-29T07:28:36.141Z</time></trkpt><trkpt lat="43.890045" lon="12.4790914"><ele>556.0</ele><time>2026-03-29T07:28:38.115Z</time></trkpt><trkpt lat="43.8900349" lon="12.4790017"><ele>556.0</ele><time>2026-03-29T07:28:39.133Z</time></trkpt><trkpt lat="43.8900238" lon="12.478915"><ele>556.0</ele><time>2026-03-29T07:28:40.135Z</time></trkpt><trkpt lat="43.8900118" lon="12.4788168"><ele>556.0</ele><time>2026-03-29T07:28:41.125Z</time></trkpt><trkpt lat="43.8900028" lon="12.478721"><ele>555.4285714285714</ele><time>2026-03-29T07:28:42.107Z</time></trkpt><trkpt lat="43.8899886" lon="12.4786309"><ele>554.8571428571429</ele><time>2026-03-29T07:28:43.136Z</time></trkpt><trkpt lat="43.8899749" lon="12.478544"><ele>554.2857142857143</ele><time>2026-03-29T07:28:44.139Z</time></trkpt><trkpt lat="43.8899625" lon="12.4784552"><ele>553.7142857142858</ele><time>2026-03-29T07:28:45.114Z</time></trkpt><trkpt lat="43.8899496" lon="12.47836"><ele>553.1428571428572</ele><time>2026-03-29T07:28:46.119Z</time></trkpt><trkpt lat="43.8899362" lon="12.478267"><ele>552.5714285714286</ele><time>2026-03-29T07:28:47.122Z</time></trkpt><trkpt lat="43.8899219" lon="12.4781756"><ele>552.0</ele><time>2026-03-29T07:28:48.136Z</time></trkpt><trkpt lat="43.88991" lon="12.4780875"><ele>552.2</ele><time>2026-03-29T07:28:49.11Z</time></trkpt><trkpt lat="43.889879" lon="12.4779142"><ele>552.4000000000001</ele><time>2026-03-29T07:28:51.135Z</time></trkpt><trkpt lat="43.8898629" lon="12.4778257"><ele>552.5999999999999</ele><time>2026-03-29T07:28:52.126Z</time></trkpt><trkpt lat="43.889849" lon="12.4777389"><ele>552.8</ele><time>2026-03-29T07:28:53.113Z</time></trkpt><trkpt lat="43.8898236" lon="12.4775682"><ele>553.0</ele><time>2026-03-29T07:28:55.116Z</time></trkpt><trkpt lat="43.8898124" lon="12.4774751"><ele>553.0</ele><time>2026-03-29T07:28:56.113Z</time></trkpt><trkpt lat="43.8898017" lon="12.4773757"><ele>553.0</ele><time>2026-03-29T07:28:57.111Z</time></trkpt><trkpt lat="43.8897876" lon="12.477284"><ele>553.0</ele><time>2026-03-29T07:28:58.13Z</time></trkpt><trkpt lat="43.8897748" lon="12.4771944"><ele>553.0</ele><time>2026-03-29T07:28:59.07Z</time></trkpt><trkpt lat="43.8897655" lon="12.4770924"><ele>553.0</ele><time>2026-03-29T07:29:00.101Z</time></trkpt><trkpt lat="43.8897616" lon="12.4769976"><ele>553.0</ele><time>2026-03-29T07:29:01.123Z</time></trkpt><trkpt lat="43.8897707" lon="12.4769023"><ele>553.0</ele><time>2026-03-29T07:29:02.131Z</time></trkpt><trkpt lat="43.8897834" lon="12.4768135"><ele>553.0</ele><time>2026-03-29T07:29:03.123Z</time></trkpt><trkpt lat="43.8898278" lon="12.4766412"><ele>553.0</ele><time>2026-03-29T07:29:05.114Z</time></trkpt><trkpt lat="43.8898469" lon="12.4765495"><ele>553.0</ele><time>2026-03-29T07:29:06.128Z</time></trkpt><trkpt lat="43.8898758" lon="12.4764575"><ele>553.0</ele><time>2026-03-29T07:29:07.098Z</time></trkpt><trkpt lat="43.8899025" lon="12.4763749"><ele>553.0</ele><time>2026-03-29T07:29:08.133Z</time></trkpt><trkpt lat="43.8899297" lon="12.476293"><ele>553.0</ele><time>2026-03-29T07:29:09.133Z</time></trkpt><trkpt lat="43.8899518" lon="12.476209"><ele>553.0</ele><time>2026-03-29T07:29:10.13Z</time></trkpt><trkpt lat="43.889994" lon="12.4760434"><ele>553.0</ele><time>2026-03-29T07:29:12.14Z</time></trkpt><trkpt lat="43.890018" lon="12.4759537"><ele>553.0</ele><time>2026-03-29T07:29:13.118Z</time></trkpt><trkpt lat="43.8900449" lon="12.4758696"><ele>553.0</ele><time>2026-03-29T07:29:14.13Z</time></trkpt><trkpt lat="43.8901042" lon="12.4757143"><ele>553.0</ele><time>2026-03-29T07:29:16.152Z</time></trkpt><trkpt lat="43.8901327" lon="12.4756323"><ele>550.75</ele><time>2026-03-29T07:29:17.116Z</time></trkpt><trkpt lat="43.8901734" lon="12.475468"><ele>548.5</ele><time>2026-03-29T07:29:19.145Z</time></trkpt><trkpt lat="43.8902232" lon="12.4753168"><ele>546.25</ele><time>2026-03-29T07:29:21.148Z</time></trkpt><trkpt lat="43.8902549" lon="12.4751555"><ele>544.0</ele><time>2026-03-29T07:29:23.119Z</time></trkpt><trkpt lat="43.8902597" lon="12.4750062"><ele>544.0</ele><time>2026-03-29T07:29:25.132Z</time></trkpt><trkpt lat="43.8901747" lon="12.4749047"><ele>544.0</ele><time>2026-03-29T07:29:27.112Z</time></trkpt><trkpt lat="43.890106" lon="12.4749022"><ele>544.0</ele><time>2026-03-29T07:29:28.137Z</time></trkpt><trkpt lat="43.890046" lon="12.4749395"><ele>544.0</ele><time>2026-03-29T07:29:29.125Z</time></trkpt><trkpt lat="43.8899856" lon="12.4750031"><ele>544.0</ele><time>2026-03-29T07:29:30.133Z</time></trkpt><trkpt lat="43.8899336" lon="12.4750674"><ele>544.0</ele><time>2026-03-29T07:29:31.127Z</time></trkpt><trkpt lat="43.8898821" lon="12.4751406"><ele>545.3333333333334</ele><time>2026-03-29T07:29:32.141Z</time></trkpt><trkpt lat="43.8898267" lon="12.475214"><ele>546.6666666666667</ele><time>2026-03-29T07:29:33.161Z</time></trkpt><trkpt lat="43.8897698" lon="12.4752858"><ele>548.0</ele><time>2026-03-29T07:29:34.129Z</time></trkpt><trkpt lat="43.8897184" lon="12.475356"><ele>549.3333333333334</ele><time>2026-03-29T07:29:35.126Z</time></trkpt><trkpt lat="43.8896599" lon="12.4753917"><ele>550.6666666666666</ele><time>2026-03-29T07:29:36.151Z</time></trkpt><trkpt lat="43.8895694" lon="12.4752853"><ele>552.0</ele><time>2026-03-29T07:29:38.139Z</time></trkpt><trkpt lat="43.8895538" lon="12.4751751"><ele>552.0</ele><time>2026-03-29T07:29:39.133Z</time></trkpt><trkpt lat="43.8895468" lon="12.4750773"><ele>552.0</ele><time>2026-03-29T07:29:40.082Z</time></trkpt><trkpt lat="43.8895573" lon="12.4749797"><ele>552.0</ele><time>2026-03-29T07:29:41.127Z</time></trkpt><trkpt lat="43.8895573" lon="12.4748818"><ele>552.0</ele><time>2026-03-29T07:29:42.118Z</time></trkpt><trkpt lat="43.8895578" lon="12.4747925"><ele>552.0</ele><time>2026-03-29T07:29:43.125Z</time></trkpt><trkpt lat="43.8895568" lon="12.4747031"><ele>552.0</ele><time>2026-03-29T07:29:44.123Z</time></trkpt><trkpt lat="43.8895595" lon="12.4746038"><ele>552.0</ele><time>2026-03-29T07:29:45.118Z</time></trkpt><trkpt lat="43.8895653" lon="12.474507"><ele>552.0</ele><time>2026-03-29T07:29:46.118Z</time></trkpt><trkpt lat="43.8895622" lon="12.4744074"><ele>552.0</ele><time>2026-03-29T07:29:47.133Z</time></trkpt><trkpt lat="43.8895651" lon="12.4743166"><ele>552.0</ele><time>2026-03-29T07:29:48.122Z</time></trkpt><trkpt lat="43.8895692" lon="12.4742256"><ele>552.0</ele><time>2026-03-29T07:29:49.132Z</time></trkpt><trkpt lat="43.8895788" lon="12.4741301"><ele>552.0</ele><time>2026-03-29T07:29:50.129Z</time></trkpt><trkpt lat="43.8895839" lon="12.4740338"><ele>552.0</ele><time>2026-03-29T07:29:51.15Z</time></trkpt><trkpt lat="43.8895912" lon="12.4739407"><ele>552.0</ele><time>2026-03-29T07:29:52.142Z</time></trkpt><trkpt lat="43.8895939" lon="12.473839"><ele>552.5714285714286</ele><time>2026-03-29T07:29:53.13Z</time></trkpt><trkpt lat="43.8896" lon="12.4737417"><ele>553.1428571428572</ele><time>2026-03-29T07:29:54.116Z</time></trkpt><trkpt lat="43.8896049" lon="12.4736435"><ele>553.7142857142858</ele><time>2026-03-29T07:29:55.13Z</time></trkpt><trkpt lat="43.8896083" lon="12.4735534"><ele>554.2857142857143</ele><time>2026-03-29T07:29:56.122Z</time></trkpt><trkpt lat="43.8896088" lon="12.4734528"><ele>554.8571428571429</ele><time>2026-03-29T07:29:57.116Z</time></trkpt><trkpt lat="43.8895998" lon="12.4733597"><ele>555.4285714285714</ele><time>2026-03-29T07:29:58.105Z</time></trkpt><trkpt lat="43.8895801" lon="12.4732616"><ele>556.0</ele><time>2026-03-29T07:29:59.096Z</time></trkpt><trkpt lat="43.8895578" lon="12.4731617"><ele>556.0</ele><time>2026-03-29T07:30:00.13Z</time></trkpt><trkpt lat="43.8895314" lon="12.4730662"><ele>556.0</ele><time>2026-03-29T07:30:01.126Z</time></trkpt><trkpt lat="43.8895005" lon="12.4729707"><ele>556.0</ele><time>2026-03-29T07:30:02.079Z</time></trkpt><trkpt lat="43.8894689" lon="12.472884"><ele>556.0</ele><time>2026-03-29T07:30:03.082Z</time></trkpt><trkpt lat="43.8894425" lon="12.4727984"><ele>556.0</ele><time>2026-03-29T07:30:04.131Z</time></trkpt><trkpt lat="43.8894178" lon="12.4727059"><ele>556.0</ele><time>2026-03-29T07:30:05.125Z</time></trkpt><trkpt lat="43.8893969" lon="12.4726116"><ele>556.0</ele><time>2026-03-29T07:30:06.128Z</time></trkpt><trkpt lat="43.8893672" lon="12.4725085"><ele>556.1666666666667</ele><time>2026-03-29T07:30:07.124Z</time></trkpt><trkpt lat="43.8893266" lon="12.4724217"><ele>556.3333333333334</ele><time>2026-03-29T07:30:08.116Z</time></trkpt><trkpt lat="43.88928" lon="12.4723317"><ele>556.5</ele><time>2026-03-29T07:30:09.127Z</time></trkpt><trkpt lat="43.889214" lon="12.4722856"><ele>556.6666666666666</ele><time>2026-03-29T07:30:10.127Z</time></trkpt><trkpt lat="43.8891366" lon="12.4722671"><ele>556.8333333333333</ele><time>2026-03-29T07:30:11.122Z</time></trkpt><trkpt lat="43.8890615" lon="12.4722899"><ele>557.0</ele><time>2026-03-29T07:30:12.114Z</time></trkpt><trkpt lat="43.8889786" lon="12.4723308"><ele>555.4285714285714</ele><time>2026-03-29T07:30:13.118Z</time></trkpt><trkpt lat="43.8889122" lon="12.4723943"><ele>553.8571428571429</ele><time>2026-03-29T07:30:14.118Z</time></trkpt><trkpt lat="43.8888451" lon="12.472451"><ele>552.2857142857142</ele><time>2026-03-29T07:30:15.123Z</time></trkpt><trkpt lat="43.8887771" lon="12.4725089"><ele>550.7142857142858</ele><time>2026-03-29T07:30:16.134Z</time></trkpt><trkpt lat="43.8887146" lon="12.4725598"><ele>549.1428571428571</ele><time>2026-03-29T07:30:17.115Z</time></trkpt><trkpt lat="43.8886582" lon="12.4726028"><ele>547.5714285714286</ele><time>2026-03-29T07:30:18.102Z</time></trkpt><trkpt lat="43.8885927" lon="12.4726466"><ele>546.0</ele><time>2026-03-29T07:30:19.128Z</time></trkpt><trkpt lat="43.8885205" lon="12.4726853"><ele>546.0</ele><time>2026-03-29T07:30:20.116Z</time></trkpt><trkpt lat="43.8884474" lon="12.4727206"><ele>546.0</ele><time>2026-03-29T07:30:21.087Z</time></trkpt><trkpt lat="43.8883761" lon="12.4727562"><ele>546.0</ele><time>2026-03-29T07:30:22.128Z</time></trkpt><trkpt lat="43.8883052" lon="12.472791"><ele>546.0</ele><time>2026-03-29T07:30:23.123Z</time></trkpt><trkpt lat="43.8882336" lon="12.472817"><ele>546.0</ele><time>2026-03-29T07:30:24.125Z</time></trkpt><trkpt lat="43.8881607" lon="12.4728281"><ele>546.0</ele><time>2026-03-29T07:30:25.127Z</time></trkpt><trkpt lat="43.8880799" lon="12.4728328"><ele>546.2857142857143</ele><time>2026-03-29T07:30:26.133Z</time></trkpt><trkpt lat="43.8879999" lon="12.4728183"><ele>546.5714285714286</ele><time>2026-03-29T07:30:27.121Z</time></trkpt><trkpt lat="43.8879248" lon="12.4727837"><ele>546.8571428571429</ele><time>2026-03-29T07:30:28.101Z</time></trkpt><trkpt lat="43.8878606" lon="12.4727468"><ele>547.1428571428571</ele><time>2026-03-29T07:30:29.126Z</time></trkpt><trkpt lat="43.8878073" lon="12.4726952"><ele>547.4285714285714</ele><time>2026-03-29T07:30:30.115Z</time></trkpt><trkpt lat="43.8877574" lon="12.4726347"><ele>547.7142857142858</ele><time>2026-03-29T07:30:31.116Z</time></trkpt><trkpt lat="43.8877167" lon="12.4725493"><ele>548.0</ele><time>2026-03-29T07:30:32.121Z</time></trkpt><trkpt lat="43.8876896" lon="12.4724572"><ele>548.0</ele><time>2026-03-29T07:30:33.11Z</time></trkpt><trkpt lat="43.8876812" lon="12.4723576"><ele>548.0</ele><time>2026-03-29T07:30:34.111Z</time></trkpt><trkpt lat="43.8876751" lon="12.4722681"><ele>548.0</ele><time>2026-03-29T07:30:35.151Z</time></trkpt><trkpt lat="43.8876726" lon="12.4721787"><ele>548.0</ele><time>2026-03-29T07:30:36.128Z</time></trkpt><trkpt lat="43.8876631" lon="12.4720075"><ele>548.0</ele><time>2026-03-29T07:30:38.125Z</time></trkpt><trkpt lat="43.8876492" lon="12.471916"><ele>548.0</ele><time>2026-03-29T07:30:39.078Z</time></trkpt><trkpt lat="43.8876234" lon="12.4717561"><ele>547.3333333333333</ele><time>2026-03-29T07:30:41.124Z</time></trkpt><trkpt lat="43.8875656" lon="12.4716241"><ele>546.6666666666666</ele><time>2026-03-29T07:30:43.117Z</time></trkpt><trkpt lat="43.887521" lon="12.4715521"><ele>546.0</ele><time>2026-03-29T07:30:44.116Z</time></trkpt><trkpt lat="43.8874731" lon="12.4714856"><ele>545.3333333333334</ele><time>2026-03-29T07:30:45.125Z</time></trkpt><trkpt lat="43.8874274" lon="12.4714246"><ele>544.6666666666667</ele><time>2026-03-29T07:30:46.121Z</time></trkpt><trkpt lat="43.8873672" lon="12.4713617"><ele>544.0</ele><time>2026-03-29T07:30:47.125Z</time></trkpt><trkpt lat="43.8873064" lon="12.4712962"><ele>544.8333333333334</ele><time>2026-03-29T07:30:48.106Z</time></trkpt><trkpt lat="43.8872537" lon="12.4712299"><ele>545.6666666666667</ele><time>2026-03-29T07:30:49.125Z</time></trkpt><trkpt lat="43.8872037" lon="12.4711595"><ele>546.5</ele><time>2026-03-29T07:30:50.11Z</time></trkpt><trkpt lat="43.887149" lon="12.4710936"><ele>547.3333333333334</ele><time>2026-03-29T07:30:51.126Z</time></trkpt><trkpt lat="43.887097" lon="12.4710234"><ele>548.1666666666666</ele><time>2026-03-29T07:30:52.128Z</time></trkpt><trkpt lat="43.8870622" lon="12.4709456"><ele>549.0</ele><time>2026-03-29T07:30:53.121Z</time></trkpt><trkpt lat="43.8870215" lon="12.4707893"><ele>549.0</ele><time>2026-03-29T07:30:55.125Z</time></trkpt><trkpt lat="43.8870601" lon="12.470644"><ele>549.0</ele><time>2026-03-29T07:30:57.129Z</time></trkpt><trkpt lat="43.8871373" lon="12.4705544"><ele>549.0</ele><time>2026-03-29T07:30:59.137Z</time></trkpt><trkpt lat="43.8872092" lon="12.4704529"><ele>549.0</ele><time>2026-03-29T07:31:01.127Z</time></trkpt><trkpt lat="43.8872587" lon="12.4703299"><ele>549.0</ele><time>2026-03-29T07:31:03.112Z</time></trkpt><trkpt lat="43.8872598" lon="12.4701945"><ele>549.25</ele><time>2026-03-29T07:31:05.134Z</time></trkpt><trkpt lat="43.8871983" lon="12.4700547"><ele>549.5</ele><time>2026-03-29T07:31:07.122Z</time></trkpt><trkpt lat="43.8871068" lon="12.4699667"><ele>549.75</ele><time>2026-03-29T07:31:09.131Z</time></trkpt><trkpt lat="43.8870132" lon="12.4698813"><ele>550.0</ele><time>2026-03-29T07:31:11.116Z</time></trkpt><trkpt lat="43.886908" lon="12.4698129"><ele>550.0</ele><time>2026-03-29T07:31:13.138Z</time></trkpt><trkpt lat="43.886842" lon="12.4697886"><ele>550.0</ele><time>2026-03-29T07:31:14.122Z</time></trkpt><trkpt lat="43.8867765" lon="12.4697677"><ele>550.0</ele><time>2026-03-29T07:31:15.138Z</time></trkpt><trkpt lat="43.8867089" lon="12.469755"><ele>550.0</ele><time>2026-03-29T07:31:16.099Z</time></trkpt><trkpt lat="43.8866328" lon="12.4697555"><ele>550.0</ele><time>2026-03-29T07:31:17.131Z</time></trkpt><trkpt lat="43.8865584" lon="12.4697779"><ele>550.0</ele><time>2026-03-29T07:31:18.11Z</time></trkpt><trkpt lat="43.8864834" lon="12.469804"><ele>550.0</ele><time>2026-03-29T07:31:19.119Z</time></trkpt><trkpt lat="43.8864035" lon="12.4698167"><ele>549.2</ele><time>2026-03-29T07:31:20.12Z</time></trkpt><trkpt lat="43.8863232" lon="12.4698201"><ele>548.4</ele><time>2026-03-29T07:31:21.116Z</time></trkpt><trkpt lat="43.88624" lon="12.4698009"><ele>547.6</ele><time>2026-03-29T07:31:22.143Z</time></trkpt><trkpt lat="43.8861458" lon="12.4697484"><ele>546.8</ele><time>2026-03-29T07:31:23.129Z</time></trkpt><trkpt lat="43.8860709" lon="12.4696663"><ele>546.0</ele><time>2026-03-29T07:31:24.089Z</time></trkpt><trkpt lat="43.8860082" lon="12.4695807"><ele>546.0</ele><time>2026-03-29T07:31:25.119Z</time></trkpt><trkpt lat="43.885949" lon="12.4694844"><ele>546.0</ele><time>2026-03-29T07:31:26.112Z</time></trkpt><trkpt lat="43.8858959" lon="12.4693874"><ele>546.0</ele><time>2026-03-29T07:31:27.128Z</time></trkpt><trkpt lat="43.8858688" lon="12.4692746"><ele>546.0</ele><time>2026-03-29T07:31:28.117Z</time></trkpt><trkpt lat="43.885872" lon="12.4691517"><ele>546.0</ele><time>2026-03-29T07:31:29.123Z</time></trkpt><trkpt lat="43.8859037" lon="12.4690286"><ele>546.0</ele><time>2026-03-29T07:31:30.116Z</time></trkpt><trkpt lat="43.8859569" lon="12.4689294"><ele>546.0</ele><time>2026-03-29T07:31:31.114Z</time></trkpt><trkpt lat="43.886014" lon="12.4688378"><ele>546.0</ele><time>2026-03-29T07:31:32.117Z</time></trkpt><trkpt lat="43.8860617" lon="12.4687535"><ele>546.0</ele><time>2026-03-29T07:31:33.09Z</time></trkpt><trkpt lat="43.8860963" lon="12.4686575"><ele>546.0</ele><time>2026-03-29T07:31:34.124Z</time></trkpt><trkpt lat="43.8861133" lon="12.4685733"><ele>546.0</ele><time>2026-03-29T07:31:35.114Z</time></trkpt><trkpt lat="43.8861302" lon="12.4684707"><ele>546.0</ele><time>2026-03-29T07:31:36.102Z</time></trkpt><trkpt lat="43.8861328" lon="12.4683798"><ele>546.0</ele><time>2026-03-29T07:31:37.13Z</time></trkpt><trkpt lat="43.8861194" lon="12.4682822"><ele>545.7142857142857</ele><time>2026-03-29T07:31:38.138Z</time></trkpt><trkpt lat="43.886099" lon="12.4681948"><ele>545.4285714285714</ele><time>2026-03-29T07:31:39.123Z</time></trkpt><trkpt lat="43.8860709" lon="12.4681044"><ele>545.1428571428571</ele><time>2026-03-29T07:31:40.087Z</time></trkpt><trkpt lat="43.8860372" lon="12.4680142"><ele>544.8571428571429</ele><time>2026-03-29T07:31:41.118Z</time></trkpt><trkpt lat="43.8859956" lon="12.4679293"><ele>544.5714285714286</ele><time>2026-03-29T07:31:42.127Z</time></trkpt><trkpt lat="43.8859595" lon="12.4678478"><ele>544.2857142857142</ele><time>2026-03-29T07:31:43.139Z</time></trkpt><trkpt lat="43.8859242" lon="12.4677754"><ele>544.0</ele><time>2026-03-29T07:31:44.119Z</time></trkpt><trkpt lat="43.8858776" lon="12.4676982"><ele>542.6666666666667</ele><time>2026-03-29T07:31:45.129Z</time></trkpt><trkpt lat="43.8858328" lon="12.4676257"><ele>541.3333333333334</ele><time>2026-03-29T07:31:46.123Z</time></trkpt><trkpt lat="43.8857888" lon="12.467546"><ele>540.0</ele><time>2026-03-29T07:31:47.128Z</time></trkpt><trkpt lat="43.8857424" lon="12.4674622"><ele>538.6666666666666</ele><time>2026-03-29T07:31:48.109Z</time></trkpt><trkpt lat="43.885683" lon="12.467387"><ele>537.3333333333333</ele><time>2026-03-29T07:31:49.124Z</time></trkpt><trkpt lat="43.8856095" lon="12.467318"><ele>536.0</ele><time>2026-03-29T07:31:50.128Z</time></trkpt><trkpt lat="43.8855234" lon="12.4672929"><ele>536.0</ele><time>2026-03-29T07:31:51.111Z</time></trkpt><trkpt lat="43.8854346" lon="12.4672807"><ele>536.0</ele><time>2026-03-29T07:31:52.111Z</time></trkpt><trkpt lat="43.8853476" lon="12.4672727"><ele>536.0</ele><time>2026-03-29T07:31:53.126Z</time></trkpt><trkpt lat="43.8852579" lon="12.4672711"><ele>536.0</ele><time>2026-03-29T07:31:54.126Z</time></trkpt><trkpt lat="43.8851625" lon="12.4672851"><ele>536.0</ele><time>2026-03-29T07:31:55.117Z</time></trkpt><trkpt lat="43.8850677" lon="12.4672946"><ele>534.4</ele><time>2026-03-29T07:31:56.135Z</time></trkpt><trkpt lat="43.884966" lon="12.4673144"><ele>532.8</ele><time>2026-03-29T07:31:57.097Z</time></trkpt><trkpt lat="43.8848644" lon="12.4673444"><ele>531.1999999999999</ele><time>2026-03-29T07:31:58.123Z</time></trkpt><trkpt lat="43.8847657" lon="12.4673892"><ele>529.6</ele><time>2026-03-29T07:31:59.087Z</time></trkpt><trkpt lat="43.8846644" lon="12.4674399"><ele>528.0</ele><time>2026-03-29T07:32:00.127Z</time></trkpt><trkpt lat="43.8845655" lon="12.4674992"><ele>528.0</ele><time>2026-03-29T07:32:01.067Z</time></trkpt><trkpt lat="43.8844694" lon="12.4675562"><ele>528.0</ele><time>2026-03-29T07:32:02.141Z</time></trkpt><trkpt lat="43.8843595" lon="12.4676159"><ele>528.0</ele><time>2026-03-29T07:32:03.126Z</time></trkpt><trkpt lat="43.8842455" lon="12.4676651"><ele>528.0</ele><time>2026-03-29T07:32:04.124Z</time></trkpt><trkpt lat="43.8841177" lon="12.4676867"><ele>526.5</ele><time>2026-03-29T07:32:05.129Z</time></trkpt><trkpt lat="43.8839996" lon="12.4676791"><ele>525.0</ele><time>2026-03-29T07:32:06.105Z</time></trkpt><trkpt lat="43.8838712" lon="12.4676558"><ele>523.5</ele><time>2026-03-29T07:32:07.113Z</time></trkpt><trkpt lat="43.8837463" lon="12.4676278"><ele>522.0</ele><time>2026-03-29T07:32:08.141Z</time></trkpt><trkpt lat="43.8836257" lon="12.4675866"><ele>522.0</ele><time>2026-03-29T07:32:09.099Z</time></trkpt><trkpt lat="43.8835139" lon="12.467542"><ele>522.0</ele><time>2026-03-29T07:32:10.087Z</time></trkpt><trkpt lat="43.8834056" lon="12.467487"><ele>522.0</ele><time>2026-03-29T07:32:11.121Z</time></trkpt><trkpt lat="43.8833109" lon="12.4674071"><ele>522.0</ele><time>2026-03-29T07:32:12.149Z</time></trkpt><trkpt lat="43.8832391" lon="12.4673043"><ele>522.0</ele><time>2026-03-29T07:32:13.114Z</time></trkpt><trkpt lat="43.8831971" lon="12.4671757"><ele>520.0</ele><time>2026-03-29T07:32:14.116Z</time></trkpt><trkpt lat="43.8831974" lon="12.4670441"><ele>518.0</ele><time>2026-03-29T07:32:15.115Z</time></trkpt><trkpt lat="43.8832322" lon="12.4669245"><ele>516.0</ele><time>2026-03-29T07:32:16.134Z</time></trkpt><trkpt lat="43.8832802" lon="12.4668134"><ele>514.0</ele><time>2026-03-29T07:32:17.102Z</time></trkpt><trkpt lat="43.8833282" lon="12.4666902"><ele>512.0</ele><time>2026-03-29T07:32:18.107Z</time></trkpt><trkpt lat="43.8833445" lon="12.4665644"><ele>512.0</ele><time>2026-03-29T07:32:19.128Z</time></trkpt><trkpt lat="43.8833505" lon="12.4664365"><ele>512.0</ele><time>2026-03-29T07:32:20.139Z</time></trkpt><trkpt lat="43.8833569" lon="12.4663029"><ele>512.0</ele><time>2026-03-29T07:32:21.141Z</time></trkpt><trkpt lat="43.883362" lon="12.466167"><ele>512.0</ele><time>2026-03-29T07:32:22.124Z</time></trkpt><trkpt lat="43.8833685" lon="12.4660297"><ele>512.0</ele><time>2026-03-29T07:32:23.128Z</time></trkpt><trkpt lat="43.883377" lon="12.4658999"><ele>512.1666666666666</ele><time>2026-03-29T07:32:24.12Z</time></trkpt><trkpt lat="43.8833739" lon="12.4657709"><ele>512.3333333333333</ele><time>2026-03-29T07:32:25.117Z</time></trkpt><trkpt lat="43.8833793" lon="12.4656521"><ele>512.5</ele><time>2026-03-29T07:32:26.127Z</time></trkpt><trkpt lat="43.8833805" lon="12.4655398"><ele>512.6666666666666</ele><time>2026-03-29T07:32:27.069Z</time></trkpt><trkpt lat="43.8833847" lon="12.4654193"><ele>512.8333333333334</ele><time>2026-03-29T07:32:28.095Z</time></trkpt><trkpt lat="43.8833996" lon="12.4653208"><ele>513.0</ele><time>2026-03-29T07:32:29.122Z</time></trkpt><trkpt lat="43.8834118" lon="12.4652299"><ele>513.0</ele><time>2026-03-29T07:32:30.114Z</time></trkpt><trkpt lat="43.8833952" lon="12.4650519"><ele>513.0</ele><time>2026-03-29T07:32:32.1Z</time></trkpt><trkpt lat="43.8833663" lon="12.4649725"><ele>513.0</ele><time>2026-03-29T07:32:33.105Z</time></trkpt><trkpt lat="43.8832718" lon="12.4648725"><ele>513.0</ele><time>2026-03-29T07:32:35.142Z</time></trkpt><trkpt lat="43.8832033" lon="12.4648471"><ele>513.0</ele><time>2026-03-29T07:32:36.106Z</time></trkpt><trkpt lat="43.8831396" lon="12.4648306"><ele>513.0</ele><time>2026-03-29T07:32:37.106Z</time></trkpt><trkpt lat="43.8830125" lon="12.4648277"><ele>513.0</ele><time>2026-03-29T07:32:39.12Z</time></trkpt><trkpt lat="43.8829459" lon="12.4648292"><ele>513.0</ele><time>2026-03-29T07:32:40.126Z</time></trkpt><trkpt lat="43.8828708" lon="12.4648384"><ele>513.0</ele><time>2026-03-29T07:32:41.116Z</time></trkpt><trkpt lat="43.8827939" lon="12.4648556"><ele>513.0</ele><time>2026-03-29T07:32:42.125Z</time></trkpt><trkpt lat="43.8827071" lon="12.4648662"><ele>513.0</ele><time>2026-03-29T07:32:43.127Z</time></trkpt><trkpt lat="43.8826218" lon="12.4648745"><ele>513.0</ele><time>2026-03-29T07:32:44.135Z</time></trkpt><trkpt lat="43.882526" lon="12.4648699"><ele>511.0</ele><time>2026-03-29T07:32:45.111Z</time></trkpt><trkpt lat="43.8824333" lon="12.4648454"><ele>508.99999999999994</ele><time>2026-03-29T07:32:46.118Z</time></trkpt><trkpt lat="43.8823404" lon="12.464821"><ele>506.99999999999994</ele><time>2026-03-29T07:32:47.13Z</time></trkpt><trkpt lat="43.8822541" lon="12.4647886"><ele>505.0</ele><time>2026-03-29T07:32:48.133Z</time></trkpt><trkpt lat="43.8821702" lon="12.4647515"><ele>503.0</ele><time>2026-03-29T07:32:49.138Z</time></trkpt><trkpt lat="43.8820808" lon="12.4646898"><ele>501.59999999999997</ele><time>2026-03-29T07:32:50.118Z</time></trkpt><trkpt lat="43.8819995" lon="12.4646112"><ele>500.19999999999993</ele><time>2026-03-29T07:32:51.129Z</time></trkpt><trkpt lat="43.8819194" lon="12.4645252"><ele>498.8</ele><time>2026-03-29T07:32:52.142Z</time></trkpt><trkpt lat="43.8818263" lon="12.464436"><ele>497.4</ele><time>2026-03-29T07:32:53.131Z</time></trkpt><trkpt lat="43.8817356" lon="12.4643457"><ele>496.0</ele><time>2026-03-29T07:32:54.135Z</time></trkpt><trkpt lat="43.8816404" lon="12.4642535"><ele>496.0</ele><time>2026-03-29T07:32:55.12Z</time></trkpt><trkpt lat="43.881558" lon="12.4641571"><ele>496.0</ele><time>2026-03-29T07:32:56.134Z</time></trkpt><trkpt lat="43.8814789" lon="12.4640519"><ele>496.0</ele><time>2026-03-29T07:32:57.13Z</time></trkpt><trkpt lat="43.8813991" lon="12.4639455"><ele>496.0</ele><time>2026-03-29T07:32:58.137Z</time></trkpt><trkpt lat="43.881322" lon="12.4638271"><ele>496.0</ele><time>2026-03-29T07:32:59.13Z</time></trkpt><trkpt lat="43.8812342" lon="12.4637148"><ele>497.20000000000005</ele><time>2026-03-29T07:33:00.119Z</time></trkpt><trkpt lat="43.8811599" lon="12.4636153"><ele>498.40000000000003</ele><time>2026-03-29T07:33:01.13Z</time></trkpt><trkpt lat="43.8810885" lon="12.4635082"><ele>499.6</ele><time>2026-03-29T07:33:02.121Z</time></trkpt><trkpt lat="43.8810272" lon="12.4633895"><ele>500.8</ele><time>2026-03-29T07:33:03.103Z</time></trkpt><trkpt lat="43.8809766" lon="12.4632607"><ele>502.0</ele><time>2026-03-29T07:33:04.099Z</time></trkpt><trkpt lat="43.8809353" lon="12.4631447"><ele>501.00000000000006</ele><time>2026-03-29T07:33:05.124Z</time></trkpt><trkpt lat="43.8809108" lon="12.4630292"><ele>500.0</ele><time>2026-03-29T07:33:06.135Z</time></trkpt><trkpt lat="43.8808912" lon="12.4629122"><ele>499.0</ele><time>2026-03-29T07:33:07.128Z</time></trkpt><trkpt lat="43.8808608" lon="12.4627987"><ele>498.0</ele><time>2026-03-29T07:33:08.134Z</time></trkpt><trkpt lat="43.8808306" lon="12.4626971"><ele>497.00000000000006</ele><time>2026-03-29T07:33:09.121Z</time></trkpt><trkpt lat="43.8807905" lon="12.4626049"><ele>496.0</ele><time>2026-03-29T07:33:10.118Z</time></trkpt><trkpt lat="43.8807534" lon="12.4625228"><ele>496.00000000000006</ele><time>2026-03-29T07:33:11.121Z</time></trkpt><trkpt lat="43.8807203" lon="12.4624468"><ele>496.0</ele><time>2026-03-29T07:33:12.131Z</time></trkpt><trkpt lat="43.8806529" lon="12.4623195"><ele>496.0</ele><time>2026-03-29T07:33:14.126Z</time></trkpt><trkpt lat="43.8805966" lon="12.4622166"><ele>496.0</ele><time>2026-03-29T07:33:16.125Z</time></trkpt><trkpt lat="43.8805568" lon="12.4621447"><ele>496.00000000000006</ele><time>2026-03-29T07:33:18.107Z</time></trkpt><trkpt lat="43.8805031" lon="12.4620452"><ele>496.0</ele><time>2026-03-29T07:33:21.131Z</time></trkpt><trkpt lat="43.8804642" lon="12.4619564"><ele>496.7142857142857</ele><time>2026-03-29T07:33:24.123Z</time></trkpt><trkpt lat="43.8804272" lon="12.4618761"><ele>497.42857142857144</ele><time>2026-03-29T07:33:27.131Z</time></trkpt><trkpt lat="43.8803749" lon="12.4617799"><ele>498.14285714285717</ele><time>2026-03-29T07:33:30.121Z</time></trkpt><trkpt lat="43.880323" lon="12.4616936"><ele>498.8571428571429</ele><time>2026-03-29T07:33:33.099Z</time></trkpt><trkpt lat="43.8802972" lon="12.4616134"><ele>499.57142857142856</ele><time>2026-03-29T07:33:36.12Z</time></trkpt><trkpt lat="43.8802641" lon="12.4615323"><ele>500.28571428571433</ele><time>2026-03-29T07:33:39.122Z</time></trkpt><trkpt lat="43.8802232" lon="12.4614659"><ele>501.0</ele><time>2026-03-29T07:33:42.114Z</time></trkpt><trkpt lat="43.880159" lon="12.4614296"><ele>501.3333333333333</ele><time>2026-03-29T07:33:45.107Z</time></trkpt><trkpt lat="43.8800816" lon="12.4614111"><ele>501.66666666666663</ele><time>2026-03-29T07:33:48.113Z</time></trkpt><trkpt lat="43.8799988" lon="12.4614305"><ele>502.0</ele><time>2026-03-29T07:33:51.114Z</time></trkpt><trkpt lat="43.8799337" lon="12.4614636"><ele>502.3333333333333</ele><time>2026-03-29T07:33:53.132Z</time></trkpt><trkpt lat="43.8798603" lon="12.4614966"><ele>502.66666666666663</ele><time>2026-03-29T07:33:55.148Z</time></trkpt><trkpt lat="43.8797858" lon="12.4615354"><ele>503.0</ele><time>2026-03-29T07:33:57.117Z</time></trkpt><trkpt lat="43.8797185" lon="12.4615663"><ele>503.0</ele><time>2026-03-29T07:33:59.13Z</time></trkpt><trkpt lat="43.8796464" lon="12.4616008"><ele>503.00000000000006</ele><time>2026-03-29T07:34:01.121Z</time></trkpt><trkpt lat="43.8795853" lon="12.4616332"><ele>503.0</ele><time>2026-03-29T07:34:03.107Z</time></trkpt><trkpt lat="43.8795238" lon="12.4616682"><ele>503.0</ele><time>2026-03-29T07:34:06.13Z</time></trkpt><trkpt lat="43.8794527" lon="12.4617024"><ele>503.00000000000006</ele><time>2026-03-29T07:34:10.053Z</time></trkpt><trkpt lat="43.8793925" lon="12.461751"><ele>503.0</ele><time>2026-03-29T07:34:14.1Z</time></trkpt><trkpt lat="43.8793417" lon="12.4618196"><ele>503.0</ele><time>2026-03-29T07:34:18.066Z</time></trkpt><trkpt lat="43.879272" lon="12.461891"><ele>503.14285714285717</ele><time>2026-03-29T07:34:22.064Z</time></trkpt><trkpt lat="43.8792133" lon="12.4619395"><ele>503.28571428571433</ele><time>2026-03-29T07:34:25.052Z</time></trkpt><trkpt lat="43.8791543" lon="12.4620072"><ele>503.42857142857144</ele><time>2026-03-29T07:34:29.133Z</time></trkpt><trkpt lat="43.8790992" lon="12.4620823"><ele>503.57142857142856</ele><time>2026-03-29T07:34:33.117Z</time></trkpt><trkpt lat="43.879052" lon="12.4621409"><ele>503.7142857142857</ele><time>2026-03-29T07:34:35.126Z</time></trkpt><trkpt lat="43.8789924" lon="12.4622281"><ele>503.8571428571429</ele><time>2026-03-29T07:34:38.104Z</time></trkpt><trkpt lat="43.8789484" lon="12.4622907"><ele>504.0</ele><time>2026-03-29T07:34:41.069Z</time></trkpt><trkpt lat="43.8789035" lon="12.4623527"><ele>504.0</ele><time>2026-03-29T07:34:44.118Z</time></trkpt><trkpt lat="43.87886" lon="12.4624182"><ele>504.0</ele><time>2026-03-29T07:34:47.126Z</time></trkpt><trkpt lat="43.8788137" lon="12.4624869"><ele>504.0</ele><time>2026-03-29T07:34:50.136Z</time></trkpt><trkpt lat="43.8787698" lon="12.4625645"><ele>504.0</ele><time>2026-03-29T07:34:53.097Z</time></trkpt><trkpt lat="43.8787319" lon="12.4626466"><ele>504.0</ele><time>2026-03-29T07:34:56.145Z</time></trkpt><trkpt lat="43.8786871" lon="12.462747"><ele>504.0</ele><time>2026-03-29T07:34:59.094Z</time></trkpt><trkpt lat="43.8786474" lon="12.4628223"><ele>504.0</ele><time>2026-03-29T07:35:02.089Z</time></trkpt><trkpt lat="43.8786087" lon="12.4629006"><ele>502.5</ele><time>2026-03-29T07:35:05.117Z</time></trkpt><trkpt lat="43.8785579" lon="12.4629828"><ele>501.0</ele><time>2026-03-29T07:35:09.107Z</time></trkpt><trkpt lat="43.8785019" lon="12.4630547"><ele>499.5</ele><time>2026-03-29T07:35:13.112Z</time></trkpt><trkpt lat="43.8784462" lon="12.4631346"><ele>498.0</ele><time>2026-03-29T07:35:17.13Z</time></trkpt><trkpt lat="43.8783785" lon="12.4631993"><ele>496.5</ele><time>2026-03-29T07:35:21.104Z</time></trkpt><trkpt lat="43.8783107" lon="12.4632527"><ele>495.0</ele><time>2026-03-29T07:35:24.137Z</time></trkpt><trkpt lat="43.8782292" lon="12.4632833"><ele>497.99999999999994</ele><time>2026-03-29T07:35:28.119Z</time></trkpt><trkpt lat="43.8781475" lon="12.463291"><ele>501.0</ele><time>2026-03-29T07:35:32.13Z</time></trkpt><trkpt lat="43.8780765" lon="12.4632613"><ele>503.99999999999994</ele><time>2026-03-29T07:35:36.107Z</time></trkpt><trkpt lat="43.8780298" lon="12.4631877"><ele>506.99999999999994</ele><time>2026-03-29T07:35:39.126Z</time></trkpt><trkpt lat="43.8780068" lon="12.4630751"><ele>510.0</ele><time>2026-03-29T07:35:43.141Z</time></trkpt><trkpt lat="43.878011" lon="12.4629799"><ele>512.9999999999999</ele><time>2026-03-29T07:35:46.137Z</time></trkpt><trkpt lat="43.8780172" lon="12.462888"><ele>516.0</ele><time>2026-03-29T07:35:49.124Z</time></trkpt><trkpt lat="43.8780064" lon="12.4627819"><ele>517.1428571428571</ele><time>2026-03-29T07:35:53.12Z</time></trkpt><trkpt lat="43.8779725" lon="12.4626896"><ele>518.2857142857142</ele><time>2026-03-29T07:35:57.138Z</time></trkpt><trkpt lat="43.8779085" lon="12.4626198"><ele>519.4285714285714</ele><time>2026-03-29T07:36:01.133Z</time></trkpt><trkpt lat="43.8778357" lon="12.4625658"><ele>520.5714285714286</ele><time>2026-03-29T07:36:05.1Z</time></trkpt><trkpt lat="43.8777757" lon="12.4625362"><ele>521.7142857142858</ele><time>2026-03-29T07:36:08.087Z</time></trkpt><trkpt lat="43.8777148" lon="12.4625063"><ele>522.8571428571429</ele><time>2026-03-29T07:36:11.132Z</time></trkpt><trkpt lat="43.8776467" lon="12.4624724"><ele>524.0</ele><time>2026-03-29T07:36:14.093Z</time></trkpt><trkpt lat="43.8775697" lon="12.4624338"><ele>525.0</ele><time>2026-03-29T07:36:17.092Z</time></trkpt><trkpt lat="43.8774974" lon="12.462403"><ele>526.0</ele><time>2026-03-29T07:36:20.139Z</time></trkpt><trkpt lat="43.8774254" lon="12.462373"><ele>527.0</ele><time>2026-03-29T07:36:23.132Z</time></trkpt><trkpt lat="43.8773543" lon="12.4623429"><ele>528.0</ele><time>2026-03-29T07:36:26.127Z</time></trkpt><trkpt lat="43.8772852" lon="12.462313"><ele>529.0</ele><time>2026-03-29T07:36:29.124Z</time></trkpt><trkpt lat="43.8772185" lon="12.4622676"><ele>530.0</ele><time>2026-03-29T07:36:32.126Z</time></trkpt><trkpt lat="43.8771508" lon="12.462231"><ele>531.0</ele><time>2026-03-29T07:36:35.138Z</time></trkpt><trkpt lat="43.8770769" lon="12.4621973"><ele>531.0</ele><time>2026-03-29T07:36:38.141Z</time></trkpt><trkpt lat="43.876996" lon="12.4621637"><ele>531.0</ele><time>2026-03-29T07:36:41.123Z</time></trkpt><trkpt lat="43.8769151" lon="12.4621214"><ele>531.0</ele><time>2026-03-29T07:36:44.137Z</time></trkpt><trkpt lat="43.8768439" lon="12.4620784"><ele>531.0</ele><time>2026-03-29T07:36:47.131Z</time></trkpt><trkpt lat="43.8767725" lon="12.4620544"><ele>531.0</ele><time>2026-03-29T07:36:50.104Z</time></trkpt><trkpt lat="43.8767114" lon="12.4620278"><ele>531.0</ele><time>2026-03-29T07:36:53.117Z</time></trkpt><trkpt lat="43.8766521" lon="12.4619965"><ele>531.0</ele><time>2026-03-29T07:36:56.104Z</time></trkpt><trkpt lat="43.8765951" lon="12.4619564"><ele>533.5714285714286</ele><time>2026-03-29T07:36:59.123Z</time></trkpt><trkpt lat="43.8765281" lon="12.4619265"><ele>536.1428571428572</ele><time>2026-03-29T07:37:02.15Z</time></trkpt><trkpt lat="43.8764595" lon="12.4618969"><ele>538.7142857142858</ele><time>2026-03-29T07:37:05.123Z</time></trkpt><trkpt lat="43.8763952" lon="12.4618566"><ele>541.2857142857143</ele><time>2026-03-29T07:37:08.128Z</time></trkpt><trkpt lat="43.8763211" lon="12.4618121"><ele>543.8571428571429</ele><time>2026-03-29T07:37:11.11Z</time></trkpt><trkpt lat="43.8762454" lon="12.4617673"><ele>546.4285714285714</ele><time>2026-03-29T07:37:14.107Z</time></trkpt><trkpt lat="43.8761805" lon="12.4617259"><ele>549.0</ele><time>2026-03-29T07:37:17.119Z</time></trkpt><trkpt lat="43.8761099" lon="12.4616985"><ele>549.0</ele><time>2026-03-29T07:37:20.117Z</time></trkpt><trkpt lat="43.876042" lon="12.4616696"><ele>549.0</ele><time>2026-03-29T07:37:23.118Z</time></trkpt><trkpt lat="43.8759658" lon="12.4616577"><ele>549.0</ele><time>2026-03-29T07:37:26.092Z</time></trkpt><trkpt lat="43.8758919" lon="12.4616546"><ele>549.0</ele><time>2026-03-29T07:37:29.113Z</time></trkpt><trkpt lat="43.8758136" lon="12.4616783"><ele>549.0</ele><time>2026-03-29T07:37:32.08Z</time></trkpt><trkpt lat="43.8757309" lon="12.4617387"><ele>549.0</ele><time>2026-03-29T07:37:35.12Z</time></trkpt><trkpt lat="43.8756593" lon="12.4618128"><ele>548.8</ele><time>2026-03-29T07:37:38.103Z</time></trkpt><trkpt lat="43.8756015" lon="12.4618996"><ele>548.5999999999999</ele><time>2026-03-29T07:37:41.124Z</time></trkpt><trkpt lat="43.875569" lon="12.4620252"><ele>548.4</ele><time>2026-03-29T07:37:44.123Z</time></trkpt><trkpt lat="43.8755647" lon="12.4621298"><ele>548.1999999999999</ele><time>2026-03-29T07:37:46.124Z</time></trkpt><trkpt lat="43.8755696" lon="12.4622774"><ele>548.0</ele><time>2026-03-29T07:37:48.13Z</time></trkpt><trkpt lat="43.8755995" lon="12.4624275"><ele>548.0</ele><time>2026-03-29T07:37:50.126Z</time></trkpt><trkpt lat="43.8756302" lon="12.4625653"><ele>548.0</ele><time>2026-03-29T07:37:52.128Z</time></trkpt><trkpt lat="43.8756689" lon="12.4627219"><ele>548.0</ele><time>2026-03-29T07:37:54.134Z</time></trkpt><trkpt lat="43.8756962" lon="12.4628922"><ele>548.0</ele><time>2026-03-29T07:37:56.124Z</time></trkpt><trkpt lat="43.8757036" lon="12.4629829"><ele>548.0</ele><time>2026-03-29T07:37:57.095Z</time></trkpt><trkpt lat="43.8756944" lon="12.4630854"><ele>546.8571428571429</ele><time>2026-03-29T07:37:58.132Z</time></trkpt><trkpt lat="43.8756588" lon="12.4631771"><ele>545.7142857142858</ele><time>2026-03-29T07:37:59.107Z</time></trkpt><trkpt lat="43.8756096" lon="12.4632458"><ele>544.5714285714286</ele><time>2026-03-29T07:38:00.076Z</time></trkpt><trkpt lat="43.8755611" lon="12.4633171"><ele>543.4285714285714</ele><time>2026-03-29T07:38:01.121Z</time></trkpt><trkpt lat="43.8755039" lon="12.4633851"><ele>542.2857142857142</ele><time>2026-03-29T07:38:02.121Z</time></trkpt><trkpt lat="43.8754522" lon="12.4634511"><ele>541.1428571428571</ele><time>2026-03-29T07:38:03.123Z</time></trkpt><trkpt lat="43.8753951" lon="12.4635179"><ele>540.0</ele><time>2026-03-29T07:38:04.127Z</time></trkpt><trkpt lat="43.8753376" lon="12.4635819"><ele>540.0</ele><time>2026-03-29T07:38:05.121Z</time></trkpt><trkpt lat="43.8752853" lon="12.4636484"><ele>540.0</ele><time>2026-03-29T07:38:06.114Z</time></trkpt><trkpt lat="43.8752317" lon="12.4637123"><ele>540.0</ele><time>2026-03-29T07:38:07.122Z</time></trkpt><trkpt lat="43.8751656" lon="12.4637632"><ele>540.0</ele><time>2026-03-29T07:38:08.136Z</time></trkpt><trkpt lat="43.875096" lon="12.463792"><ele>540.0</ele><time>2026-03-29T07:38:09.127Z</time></trkpt><trkpt lat="43.8750281" lon="12.4637988"><ele>540.0</ele><time>2026-03-29T07:38:10.105Z</time></trkpt><trkpt lat="43.8749529" lon="12.4637949"><ele>540.0</ele><time>2026-03-29T07:38:11.12Z</time></trkpt><trkpt lat="43.8748769" lon="12.4637937"><ele>540.0</ele><time>2026-03-29T07:38:12.141Z</time></trkpt><trkpt lat="43.8748104" lon="12.4637959"><ele>540.0</ele><time>2026-03-29T07:38:13.117Z</time></trkpt><trkpt lat="43.8747442" lon="12.4638114"><ele>540.0</ele><time>2026-03-29T07:38:14.119Z</time></trkpt><trkpt lat="43.8746805" lon="12.4638356"><ele>540.0</ele><time>2026-03-29T07:38:15.107Z</time></trkpt><trkpt lat="43.8746218" lon="12.4638739"><ele>540.0</ele><time>2026-03-29T07:38:16.145Z</time></trkpt><trkpt lat="43.8745661" lon="12.4639185"><ele>540.0</ele><time>2026-03-29T07:38:17.125Z</time></trkpt><trkpt lat="43.8744695" lon="12.4640112"><ele>540.0</ele><time>2026-03-29T07:38:19.124Z</time></trkpt><trkpt lat="43.874387" lon="12.4641212"><ele>540.0</ele><time>2026-03-29T07:38:21.083Z</time></trkpt><trkpt lat="43.8743327" lon="12.4642567"><ele>540.0</ele><time>2026-03-29T07:38:23.141Z</time></trkpt><trkpt lat="43.874302" lon="12.4644073"><ele>540.0</ele><time>2026-03-29T07:38:25.131Z</time></trkpt><trkpt lat="43.8742881" lon="12.4645544"><ele>540.0</ele><time>2026-03-29T07:38:27.127Z</time></trkpt><trkpt lat="43.8742775" lon="12.4647093"><ele>540.0</ele><time>2026-03-29T07:38:29.122Z</time></trkpt><trkpt lat="43.8742602" lon="12.4648736"><ele>541.6</ele><time>2026-03-29T07:38:31.135Z</time></trkpt><trkpt lat="43.8742503" lon="12.4649638"><ele>543.2</ele><time>2026-03-29T07:38:32.13Z</time></trkpt><trkpt lat="43.8742363" lon="12.4651211"><ele>544.8</ele><time>2026-03-29T07:38:34.149Z</time></trkpt><trkpt lat="43.8742191" lon="12.4652901"><ele>546.4</ele><time>2026-03-29T07:38:36.123Z</time></trkpt><trkpt lat="43.874216" lon="12.4654602"><ele>548.0</ele><time>2026-03-29T07:38:38.117Z</time></trkpt><trkpt lat="43.8742185" lon="12.4656213"><ele>548.0</ele><time>2026-03-29T07:38:40.14Z</time></trkpt><trkpt lat="43.8742309" lon="12.4657894"><ele>548.0</ele><time>2026-03-29T07:38:42.127Z</time></trkpt><trkpt lat="43.8742491" lon="12.4659479"><ele>548.0</ele><time>2026-03-29T07:38:44.129Z</time></trkpt><trkpt lat="43.8742555" lon="12.4661257"><ele>548.0</ele><time>2026-03-29T07:38:46.138Z</time></trkpt><trkpt lat="43.8742388" lon="12.4662823"><ele>546.6</ele><time>2026-03-29T07:38:48.134Z</time></trkpt><trkpt lat="43.8741942" lon="12.4664437"><ele>545.1999999999999</ele><time>2026-03-29T07:38:50.12Z</time></trkpt><trkpt lat="43.874134" lon="12.4665993"><ele>543.8</ele><time>2026-03-29T07:38:52.121Z</time></trkpt><trkpt lat="43.8740832" lon="12.466671"><ele>542.4</ele><time>2026-03-29T07:38:53.125Z</time></trkpt><trkpt lat="43.874033" lon="12.4667363"><ele>541.0</ele><time>2026-03-29T07:38:54.12Z</time></trkpt><trkpt lat="43.8739751" lon="12.466789"><ele>541.0</ele><time>2026-03-29T07:38:55.123Z</time></trkpt><trkpt lat="43.8739142" lon="12.4668313"><ele>541.0</ele><time>2026-03-29T07:38:56.129Z</time></trkpt><trkpt lat="43.8738412" lon="12.4668673"><ele>541.0</ele><time>2026-03-29T07:38:57.13Z</time></trkpt><trkpt lat="43.8737652" lon="12.4668979"><ele>541.0</ele><time>2026-03-29T07:38:58.136Z</time></trkpt><trkpt lat="43.8736961" lon="12.4669399"><ele>541.0</ele><time>2026-03-29T07:38:59.14Z</time></trkpt><trkpt lat="43.8736183" lon="12.4669884"><ele>541.0</ele><time>2026-03-29T07:39:00.141Z</time></trkpt><trkpt lat="43.8735404" lon="12.4670375"><ele>541.0</ele><time>2026-03-29T07:39:01.12Z</time></trkpt><trkpt lat="43.8734617" lon="12.4670819"><ele>541.0</ele><time>2026-03-29T07:39:02.066Z</time></trkpt><trkpt lat="43.8733899" lon="12.467131"><ele>541.0</ele><time>2026-03-29T07:39:03.129Z</time></trkpt><trkpt lat="43.8733179" lon="12.467182"><ele>541.0</ele><time>2026-03-29T07:39:04.137Z</time></trkpt><trkpt lat="43.8732492" lon="12.4672322"><ele>541.0</ele><time>2026-03-29T07:39:05.062Z</time></trkpt><trkpt lat="43.8731836" lon="12.4672831"><ele>541.0</ele><time>2026-03-29T07:39:06.059Z</time></trkpt><trkpt lat="43.8731164" lon="12.4673388"><ele>540.0</ele><time>2026-03-29T07:39:07.084Z</time></trkpt><trkpt lat="43.8730448" lon="12.4673997"><ele>539.0</ele><time>2026-03-29T07:39:08.126Z</time></trkpt><trkpt lat="43.8729747" lon="12.4674603"><ele>538.0</ele><time>2026-03-29T07:39:09.112Z</time></trkpt><trkpt lat="43.872907" lon="12.4675205"><ele>537.0</ele><time>2026-03-29T07:39:10.096Z</time></trkpt><trkpt lat="43.8728355" lon="12.4675739"><ele>536.0</ele><time>2026-03-29T07:39:11.062Z</time></trkpt><trkpt lat="43.872761" lon="12.4675919"><ele>535.0</ele><time>2026-03-29T07:39:12.104Z</time></trkpt><trkpt lat="43.8726916" lon="12.4675955"><ele>535.0</ele><time>2026-03-29T07:39:13.092Z</time></trkpt><trkpt lat="43.8726251" lon="12.4675903"><ele>535.0</ele><time>2026-03-29T07:39:14.126Z</time></trkpt><trkpt lat="43.8725308" lon="12.4675667"><ele>535.0</ele><time>2026-03-29T07:39:16.136Z</time></trkpt><trkpt lat="43.8724672" lon="12.467544"><ele>535.0</ele><time>2026-03-29T07:39:18.123Z</time></trkpt><trkpt lat="43.8723905" lon="12.4675262"><ele>535.0</ele><time>2026-03-29T07:39:21.131Z</time></trkpt><trkpt lat="43.8723121" lon="12.4675045"><ele>535.0</ele><time>2026-03-29T07:39:25.138Z</time></trkpt><trkpt lat="43.8722487" lon="12.467471"><ele>536.5</ele><time>2026-03-29T07:39:28.133Z</time></trkpt><trkpt lat="43.8721789" lon="12.4674304"><ele>538.0</ele><time>2026-03-29T07:39:31.133Z</time></trkpt><trkpt lat="43.8720916" lon="12.4673802"><ele>539.5</ele><time>2026-03-29T07:39:34.113Z</time></trkpt><trkpt lat="43.8720057" lon="12.4673232"><ele>541.0</ele><time>2026-03-29T07:39:37.137Z</time></trkpt><trkpt lat="43.8719408" lon="12.4672824"><ele>542.5</ele><time>2026-03-29T07:39:39.152Z</time></trkpt><trkpt lat="43.8718755" lon="12.4672341"><ele>544.0</ele><time>2026-03-29T07:39:41.137Z</time></trkpt><trkpt lat="43.8718108" lon="12.467189"><ele>543.0</ele><time>2026-03-29T07:39:43.14Z</time></trkpt><trkpt lat="43.8717389" lon="12.4671377"><ele>542.0</ele><time>2026-03-29T07:39:45.098Z</time></trkpt><trkpt lat="43.8716597" lon="12.4670891"><ele>541.0</ele><time>2026-03-29T07:39:47.12Z</time></trkpt><trkpt lat="43.8715787" lon="12.4670393"><ele>540.0</ele><time>2026-03-29T07:39:49.086Z</time></trkpt><trkpt lat="43.871492" lon="12.4669943"><ele>539.0</ele><time>2026-03-29T07:39:51.122Z</time></trkpt><trkpt lat="43.8714064" lon="12.4669647"><ele>538.0</ele><time>2026-03-29T07:39:53.132Z</time></trkpt><trkpt lat="43.8713154" lon="12.4669558"><ele>540.1666666666667</ele><time>2026-03-29T07:39:55.13Z</time></trkpt><trkpt lat="43.8712298" lon="12.466942"><ele>542.3333333333334</ele><time>2026-03-29T07:39:57.134Z</time></trkpt><trkpt lat="43.8711577" lon="12.4669234"><ele>544.5</ele><time>2026-03-29T07:39:59.108Z</time></trkpt><trkpt lat="43.8710774" lon="12.4668855"><ele>546.6666666666666</ele><time>2026-03-29T07:40:02.149Z</time></trkpt><trkpt lat="43.8710065" lon="12.4668537"><ele>548.8333333333333</ele><time>2026-03-29T07:40:05.157Z</time></trkpt><trkpt lat="43.8709425" lon="12.4668089"><ele>551.0</ele><time>2026-03-29T07:40:08.095Z</time></trkpt><trkpt lat="43.8708983" lon="12.4667378"><ele>550.9999999999999</ele><time>2026-03-29T07:40:11.11Z</time></trkpt><trkpt lat="43.870903" lon="12.4666317"><ele>551.0</ele><time>2026-03-29T07:40:16.12Z</time></trkpt><trkpt lat="43.8709441" lon="12.4665489"><ele>551.0</ele><time>2026-03-29T07:40:20.132Z</time></trkpt><trkpt lat="43.8709945" lon="12.4664823"><ele>551.0</ele><time>2026-03-29T07:40:24.146Z</time></trkpt><trkpt lat="43.8710351" lon="12.4664069"><ele>551.0</ele><time>2026-03-29T07:40:28.14Z</time></trkpt><trkpt lat="43.8710837" lon="12.4663304"><ele>550.9999999999999</ele><time>2026-03-29T07:40:32.146Z</time></trkpt><trkpt lat="43.8711393" lon="12.4662628"><ele>551.0</ele><time>2026-03-29T07:40:36.131Z</time></trkpt><trkpt lat="43.8712039" lon="12.4662096"><ele>553.2857142857142</ele><time>2026-03-29T07:40:41.078Z</time></trkpt><trkpt lat="43.8712504" lon="12.4661385"><ele>555.5714285714286</ele><time>2026-03-29T07:40:45.116Z</time></trkpt><trkpt lat="43.8713024" lon="12.4660657"><ele>557.8571428571429</ele><time>2026-03-29T07:40:50.133Z</time></trkpt><trkpt lat="43.8713528" lon="12.4660032"><ele>560.1428571428571</ele><time>2026-03-29T07:40:55.124Z</time></trkpt><trkpt lat="43.8714013" lon="12.4659427"><ele>562.4285714285714</ele><time>2026-03-29T07:41:00.123Z</time></trkpt><trkpt lat="43.8714554" lon="12.4658776"><ele>564.7142857142857</ele><time>2026-03-29T07:41:06.112Z</time></trkpt><trkpt lat="43.8714969" lon="12.4657904"><ele>567.0</ele><time>2026-03-29T07:41:12.139Z</time></trkpt><trkpt lat="43.8715452" lon="12.4657131"><ele>567.0</ele><time>2026-03-29T07:41:17.127Z</time></trkpt><trkpt lat="43.8716023" lon="12.4656391"><ele>567.0</ele><time>2026-03-29T07:41:24.109Z</time></trkpt><trkpt lat="43.8716456" lon="12.4655723"><ele>567.0</ele><time>2026-03-29T07:41:29.117Z</time></trkpt><trkpt lat="43.8716998" lon="12.4655247"><ele>567.0</ele><time>2026-03-29T07:41:34.134Z</time></trkpt><trkpt lat="43.8717485" lon="12.4654667"><ele>567.0</ele><time>2026-03-29T07:41:39.123Z</time></trkpt><trkpt lat="43.8718124" lon="12.4654102"><ele>567.0</ele><time>2026-03-29T07:41:45.123Z</time></trkpt><trkpt lat="43.8718767" lon="12.4653558"><ele>567.0</ele><time>2026-03-29T07:41:51.118Z</time></trkpt><trkpt lat="43.8719358" lon="12.4653085"><ele>567.6666666666666</ele><time>2026-03-29T07:41:55.12Z</time></trkpt><trkpt lat="43.8719952" lon="12.4652779"><ele>568.3333333333334</ele><time>2026-03-29T07:41:59.119Z</time></trkpt><trkpt lat="43.8720465" lon="12.4651957"><ele>569.0</ele><time>2026-03-29T07:42:04.115Z</time></trkpt><trkpt lat="43.8720654" lon="12.4650984"><ele>569.6666666666667</ele><time>2026-03-29T07:42:07.129Z</time></trkpt><trkpt lat="43.8720633" lon="12.4649971"><ele>570.3333333333334</ele><time>2026-03-29T07:42:10.136Z</time></trkpt><trkpt lat="43.8720395" lon="12.4648733"><ele>571.0</ele><time>2026-03-29T07:42:13.117Z</time></trkpt><trkpt lat="43.872028" lon="12.4647753"><ele>571.0</ele><time>2026-03-29T07:42:15.125Z</time></trkpt><trkpt lat="43.8720032" lon="12.4646732"><ele>571.0</ele><time>2026-03-29T07:42:17.125Z</time></trkpt><trkpt lat="43.8719864" lon="12.4645713"><ele>571.0</ele><time>2026-03-29T07:42:20.122Z</time></trkpt><trkpt lat="43.8719667" lon="12.4644814"><ele>571.0</ele><time>2026-03-29T07:42:23.14Z</time></trkpt><trkpt lat="43.8719507" lon="12.46437"><ele>571.0</ele><time>2026-03-29T07:42:27.117Z</time></trkpt><trkpt lat="43.8719564" lon="12.4642759"><ele>571.0</ele><time>2026-03-29T07:42:30.128Z</time></trkpt><trkpt lat="43.8719714" lon="12.4641872"><ele>571.0</ele><time>2026-03-29T07:42:33.13Z</time></trkpt><trkpt lat="43.8719861" lon="12.4640837"><ele>571.0</ele><time>2026-03-29T07:42:36.122Z</time></trkpt><trkpt lat="43.8720032" lon="12.4639728"><ele>571.0</ele><time>2026-03-29T07:42:39.151Z</time></trkpt><trkpt lat="43.8719634" lon="12.4638764"><ele>571.0</ele><time>2026-03-29T07:42:42.122Z</time></trkpt><trkpt lat="43.8718979" lon="12.4638161"><ele>571.0</ele><time>2026-03-29T07:42:45.12Z</time></trkpt><trkpt lat="43.8718399" lon="12.463761"><ele>571.0</ele><time>2026-03-29T07:42:48.124Z</time></trkpt><trkpt lat="43.8717673" lon="12.4636999"><ele>571.0</ele><time>2026-03-29T07:42:51.121Z</time></trkpt><trkpt lat="43.8717175" lon="12.4636407"><ele>572.8333333333334</ele><time>2026-03-29T07:42:53.134Z</time></trkpt><trkpt lat="43.8716749" lon="12.4635506"><ele>574.6666666666667</ele><time>2026-03-29T07:42:55.134Z</time></trkpt><trkpt lat="43.8716284" lon="12.4634516"><ele>576.5</ele><time>2026-03-29T07:42:57.128Z</time></trkpt><trkpt lat="43.8715753" lon="12.4633609"><ele>578.3333333333334</ele><time>2026-03-29T07:42:59.129Z</time></trkpt><trkpt lat="43.8715339" lon="12.4632774"><ele>580.1666666666666</ele><time>2026-03-29T07:43:01.12Z</time></trkpt><trkpt lat="43.8714876" lon="12.4632064"><ele>582.0</ele><time>2026-03-29T07:43:03.111Z</time></trkpt><trkpt lat="43.8714141" lon="12.463128"><ele>582.0</ele><time>2026-03-29T07:43:06.131Z</time></trkpt><trkpt lat="43.8713551" lon="12.4630478"><ele>582.0</ele><time>2026-03-29T07:43:09.145Z</time></trkpt><trkpt lat="43.8713048" lon="12.4629545"><ele>582.0</ele><time>2026-03-29T07:43:12.143Z</time></trkpt><trkpt lat="43.8712705" lon="12.4628747"><ele>582.0</ele><time>2026-03-29T07:43:15.093Z</time></trkpt><trkpt lat="43.8712357" lon="12.4627886"><ele>582.0</ele><time>2026-03-29T07:43:18.1Z</time></trkpt><trkpt lat="43.8712153" lon="12.4626955"><ele>582.0</ele><time>2026-03-29T07:43:21.13Z</time></trkpt><trkpt lat="43.8712085" lon="12.4626041"><ele>582.0</ele><time>2026-03-29T07:43:24.12Z</time></trkpt><trkpt lat="43.8711937" lon="12.4624966"><ele>583.5714285714286</ele><time>2026-03-29T07:43:28.13Z</time></trkpt><trkpt lat="43.8711742" lon="12.4623948"><ele>585.1428571428571</ele><time>2026-03-29T07:43:32.119Z</time></trkpt><trkpt lat="43.8711501" lon="12.462297"><ele>586.7142857142857</ele><time>2026-03-29T07:43:35.136Z</time></trkpt><trkpt lat="43.8711386" lon="12.4621877"><ele>588.2857142857142</ele><time>2026-03-29T07:43:38.133Z</time></trkpt><trkpt lat="43.8711289" lon="12.4620808"><ele>589.8571428571429</ele><time>2026-03-29T07:43:41.142Z</time></trkpt><trkpt lat="43.8711205" lon="12.4619835"><ele>591.4285714285713</ele><time>2026-03-29T07:43:44.103Z</time></trkpt><trkpt lat="43.8711238" lon="12.4618851"><ele>593.0</ele><time>2026-03-29T07:43:48.086Z</time></trkpt><trkpt lat="43.8711003" lon="12.4617963"><ele>593.7142857142857</ele><time>2026-03-29T07:43:52.12Z</time></trkpt><trkpt lat="43.871049" lon="12.4617166"><ele>594.4285714285714</ele><time>2026-03-29T07:43:56.122Z</time></trkpt><trkpt lat="43.8709797" lon="12.4616551"><ele>595.1428571428571</ele><time>2026-03-29T07:44:00.12Z</time></trkpt><trkpt lat="43.8709197" lon="12.4616199"><ele>595.8571428571429</ele><time>2026-03-29T07:44:03.118Z</time></trkpt><trkpt lat="43.8708518" lon="12.4615823"><ele>596.5714285714286</ele><time>2026-03-29T07:44:07.123Z</time></trkpt><trkpt lat="43.8707801" lon="12.4615642"><ele>597.2857142857142</ele><time>2026-03-29T07:44:11.119Z</time></trkpt><trkpt lat="43.8707102" lon="12.4615563"><ele>598.0</ele><time>2026-03-29T07:44:16.124Z</time></trkpt><trkpt lat="43.8706308" lon="12.4615466"><ele>598.0</ele><time>2026-03-29T07:44:21.128Z</time></trkpt><trkpt lat="43.8705553" lon="12.4615344"><ele>598.0</ele><time>2026-03-29T07:44:26.083Z</time></trkpt><trkpt lat="43.8704852" lon="12.461537"><ele>598.0</ele><time>2026-03-29T07:44:31.119Z</time></trkpt><trkpt lat="43.8704167" lon="12.4615438"><ele>598.0</ele><time>2026-03-29T07:44:36.134Z</time></trkpt><trkpt lat="43.8703427" lon="12.4615679"><ele>598.0</ele><time>2026-03-29T07:44:42.126Z</time></trkpt><trkpt lat="43.8702899" lon="12.4616231"><ele>598.0</ele><time>2026-03-29T07:44:47.11Z</time></trkpt><trkpt lat="43.8702359" lon="12.4616686"><ele>598.0</ele><time>2026-03-29T07:44:50.109Z</time></trkpt><trkpt lat="43.8701783" lon="12.4617107"><ele>598.0</ele><time>2026-03-29T07:44:54.119Z</time></trkpt><trkpt lat="43.8701143" lon="12.4617627"><ele>598.0</ele><time>2026-03-29T07:44:59.118Z</time></trkpt><trkpt lat="43.870056" lon="12.4618105"><ele>598.0</ele><time>2026-03-29T07:45:03.12Z</time></trkpt><trkpt lat="43.8699987" lon="12.4618474"><ele>598.0</ele><time>2026-03-29T07:45:07.126Z</time></trkpt><trkpt lat="43.8699258" lon="12.4618748"><ele>598.0</ele><time>2026-03-29T07:45:12.139Z</time></trkpt><trkpt lat="43.8698646" lon="12.4618975"><ele>598.0</ele><time>2026-03-29T07:45:16.08Z</time></trkpt><trkpt lat="43.8698004" lon="12.4619279"><ele>598.0</ele><time>2026-03-29T07:45:20.122Z</time></trkpt><trkpt lat="43.86972" lon="12.4619625"><ele>599.7142857142857</ele><time>2026-03-29T07:45:25.134Z</time></trkpt><trkpt lat="43.8697625" lon="12.4618828"><ele>601.4285714285714</ele><time>2026-03-29T07:45:40.147Z</time></trkpt><trkpt lat="43.8698089" lon="12.4618154"><ele>603.1428571428571</ele><time>2026-03-29T07:45:45.124Z</time></trkpt><trkpt lat="43.8698466" lon="12.4617285"><ele>604.8571428571429</ele><time>2026-03-29T07:45:50.125Z</time></trkpt><trkpt lat="43.8698793" lon="12.4616392"><ele>606.5714285714286</ele><time>2026-03-29T07:45:55.134Z</time></trkpt><trkpt lat="43.8698912" lon="12.4615448"><ele>608.2857142857143</ele><time>2026-03-29T07:45:58.135Z</time></trkpt><trkpt lat="43.8698814" lon="12.4614454"><ele>610.0</ele><time>2026-03-29T07:46:01.134Z</time></trkpt><trkpt lat="43.8698796" lon="12.4613347"><ele>611.6666666666667</ele><time>2026-03-29T07:46:04.143Z</time></trkpt><trkpt lat="43.8698694" lon="12.4612169"><ele>613.3333333333334</ele><time>2026-03-29T07:46:07.144Z</time></trkpt><trkpt lat="43.8698619" lon="12.4611053"><ele>615.0</ele><time>2026-03-29T07:46:10.131Z</time></trkpt><trkpt lat="43.869842" lon="12.4609997"><ele>616.6666666666666</ele><time>2026-03-29T07:46:13.121Z</time></trkpt><trkpt lat="43.8698162" lon="12.4609098"><ele>618.3333333333333</ele><time>2026-03-29T07:46:16.119Z</time></trkpt><trkpt lat="43.8697936" lon="12.4607991"><ele>620.0</ele><time>2026-03-29T07:46:20.104Z</time></trkpt><trkpt lat="43.8697652" lon="12.4607121"><ele>620.0</ele><time>2026-03-29T07:46:23.095Z</time></trkpt><trkpt lat="43.8697346" lon="12.4606298"><ele>620.0</ele><time>2026-03-29T07:46:26.119Z</time></trkpt><trkpt lat="43.8696951" lon="12.4605303"><ele>620.0</ele><time>2026-03-29T07:46:30.129Z</time></trkpt><trkpt lat="43.8696562" lon="12.4604492"><ele>620.0</ele><time>2026-03-29T07:46:33.14Z</time></trkpt><trkpt lat="43.8696088" lon="12.4603622"><ele>620.0</ele><time>2026-03-29T07:46:36.093Z</time></trkpt><trkpt lat="43.8695666" lon="12.4602777"><ele>620.0</ele><time>2026-03-29T07:46:39.155Z</time></trkpt><trkpt lat="43.8695193" lon="12.4601998"><ele>620.0</ele><time>2026-03-29T07:46:43.106Z</time></trkpt><trkpt lat="43.8694722" lon="12.4601209"><ele>621.7142857142858</ele><time>2026-03-29T07:46:47.086Z</time></trkpt><trkpt lat="43.8694378" lon="12.4600371"><ele>623.4285714285714</ele><time>2026-03-29T07:46:51.123Z</time></trkpt><trkpt lat="43.8693787" lon="12.4599766"><ele>625.1428571428571</ele><time>2026-03-29T07:46:55.106Z</time></trkpt><trkpt lat="43.8693348" lon="12.4598986"><ele>626.8571428571429</ele><time>2026-03-29T07:47:00.125Z</time></trkpt><trkpt lat="43.8692768" lon="12.4598235"><ele>628.5714285714286</ele><time>2026-03-29T07:47:05.115Z</time></trkpt><trkpt lat="43.8692259" lon="12.4597588"><ele>630.2857142857143</ele><time>2026-03-29T07:47:10.101Z</time></trkpt><trkpt lat="43.869186" lon="12.4596869"><ele>632.0</ele><time>2026-03-29T07:47:15.13Z</time></trkpt><trkpt lat="43.8691408" lon="12.45961"><ele>635.3333333333333</ele><time>2026-03-29T07:47:20.131Z</time></trkpt><trkpt lat="43.8690882" lon="12.4595229"><ele>638.6666666666666</ele><time>2026-03-29T07:47:25.129Z</time></trkpt><trkpt lat="43.8690407" lon="12.459437"><ele>642.0</ele><time>2026-03-29T07:47:29.134Z</time></trkpt><trkpt lat="43.8689957" lon="12.4593455"><ele>645.3333333333334</ele><time>2026-03-29T07:47:32.127Z</time></trkpt><trkpt lat="43.8689459" lon="12.459258"><ele>648.6666666666667</ele><time>2026-03-29T07:47:35.139Z</time></trkpt><trkpt lat="43.868916" lon="12.4591695"><ele>652.0</ele><time>2026-03-29T07:47:38.081Z</time></trkpt><trkpt lat="43.8688809" lon="12.4590734"><ele>652.0</ele><time>2026-03-29T07:47:41.12Z</time></trkpt><trkpt lat="43.8688471" lon="12.4589668"><ele>652.0</ele><time>2026-03-29T07:47:44.101Z</time></trkpt><trkpt lat="43.8688117" lon="12.4588675"><ele>652.0</ele><time>2026-03-29T07:47:47.137Z</time></trkpt><trkpt lat="43.8687621" lon="12.4587626"><ele>652.0</ele><time>2026-03-29T07:47:50.144Z</time></trkpt><trkpt lat="43.8687307" lon="12.458683"><ele>652.0</ele><time>2026-03-29T07:47:53.142Z</time></trkpt><trkpt lat="43.8686776" lon="12.4585956"><ele>652.0</ele><time>2026-03-29T07:47:57.115Z</time></trkpt><trkpt lat="43.8686353" lon="12.4585258"><ele>651.5714285714286</ele><time>2026-03-29T07:48:01.088Z</time></trkpt><trkpt lat="43.8685941" lon="12.4584421"><ele>651.1428571428571</ele><time>2026-03-29T07:48:05.099Z</time></trkpt><trkpt lat="43.8685426" lon="12.4583681"><ele>650.7142857142857</ele><time>2026-03-29T07:48:09.112Z</time></trkpt><trkpt lat="43.8684934" lon="12.4582997"><ele>650.2857142857142</ele><time>2026-03-29T07:48:13.097Z</time></trkpt><trkpt lat="43.8684455" lon="12.4582337"><ele>649.8571428571429</ele><time>2026-03-29T07:48:17.097Z</time></trkpt><trkpt lat="43.8684013" lon="12.4581527"><ele>649.4285714285713</ele><time>2026-03-29T07:48:21.11Z</time></trkpt><trkpt lat="43.8683622" lon="12.4580531"><ele>649.0</ele><time>2026-03-29T07:48:25.135Z</time></trkpt><trkpt lat="43.868309" lon="12.4579915"><ele>649.9999999999999</ele><time>2026-03-29T07:48:29.112Z</time></trkpt><trkpt lat="43.8682626" lon="12.457929"><ele>651.0</ele><time>2026-03-29T07:48:32.124Z</time></trkpt><trkpt lat="43.8682273" lon="12.4578517"><ele>652.0</ele><time>2026-03-29T07:48:36.138Z</time></trkpt><trkpt lat="43.8681935" lon="12.457771"><ele>653.0</ele><time>2026-03-29T07:48:40.132Z</time></trkpt><trkpt lat="43.8681531" lon="12.457697"><ele>654.0</ele><time>2026-03-29T07:48:44.132Z</time></trkpt><trkpt lat="43.8681137" lon="12.4576125"><ele>654.9999999999999</ele><time>2026-03-29T07:48:48.13Z</time></trkpt><trkpt lat="43.8680643" lon="12.4575366"><ele>656.0</ele><time>2026-03-29T07:48:53.125Z</time></trkpt><trkpt lat="43.8680276" lon="12.457451"><ele>655.9999999999999</ele><time>2026-03-29T07:48:58.11Z</time></trkpt><trkpt lat="43.8680055" lon="12.457365"><ele>656.0</ele><time>2026-03-29T07:49:03.126Z</time></trkpt><trkpt lat="43.8679718" lon="12.4572827"><ele>656.0</ele><time>2026-03-29T07:49:08.139Z</time></trkpt><trkpt lat="43.8679397" lon="12.4572069"><ele>656.0</ele><time>2026-03-29T07:49:12.138Z</time></trkpt><trkpt lat="43.867912" lon="12.4571281"><ele>656.0</ele><time>2026-03-29T07:49:16.126Z</time></trkpt><trkpt lat="43.867892" lon="12.4570448"><ele>655.9999999999999</ele><time>2026-03-29T07:49:21.059Z</time></trkpt><trkpt lat="43.8678845" lon="12.4569428"><ele>656.0</ele><time>2026-03-29T07:49:27.095Z</time></trkpt><trkpt lat="43.8679169" lon="12.4568481"><ele>658.5</ele><time>2026-03-29T07:49:34.1Z</time></trkpt><trkpt lat="43.8679612" lon="12.4567698"><ele>661.0</ele><time>2026-03-29T07:49:39.116Z</time></trkpt><trkpt lat="43.8680244" lon="12.4567215"><ele>663.5</ele><time>2026-03-29T07:49:45.12Z</time></trkpt><trkpt lat="43.8680989" lon="12.4566962"><ele>666.0</ele><time>2026-03-29T07:49:49.091Z</time></trkpt><trkpt lat="43.8681707" lon="12.456689"><ele>668.5</ele><time>2026-03-29T07:49:52.135Z</time></trkpt><trkpt lat="43.8682515" lon="12.4566754"><ele>671.0</ele><time>2026-03-29T07:49:55.122Z</time></trkpt><trkpt lat="43.868333" lon="12.4566854"><ele>671.0</ele><time>2026-03-29T07:49:58.085Z</time></trkpt><trkpt lat="43.868417" lon="12.4567144"><ele>671.0</ele><time>2026-03-29T07:50:01.1Z</time></trkpt><trkpt lat="43.8685035" lon="12.4567565"><ele>671.0</ele><time>2026-03-29T07:50:04.121Z</time></trkpt><trkpt lat="43.8685774" lon="12.4568025"><ele>671.0</ele><time>2026-03-29T07:50:07.117Z</time></trkpt><trkpt lat="43.8686343" lon="12.4568593"><ele>671.0</ele><time>2026-03-29T07:50:10.14Z</time></trkpt><trkpt lat="43.8686964" lon="12.4569021"><ele>671.0</ele><time>2026-03-29T07:50:13.125Z</time></trkpt><trkpt lat="43.8687615" lon="12.456949"><ele>671.1666666666666</ele><time>2026-03-29T07:50:16.118Z</time></trkpt><trkpt lat="43.8688257" lon="12.4570103"><ele>671.3333333333333</ele><time>2026-03-29T07:50:19.119Z</time></trkpt><trkpt lat="43.8688927" lon="12.4570734"><ele>671.5</ele><time>2026-03-29T07:50:23.108Z</time></trkpt><trkpt lat="43.8689467" lon="12.457142"><ele>671.6666666666666</ele><time>2026-03-29T07:50:27.107Z</time></trkpt><trkpt lat="43.8689985" lon="12.4572272"><ele>671.8333333333334</ele><time>2026-03-29T07:50:31.117Z</time></trkpt><trkpt lat="43.8690609" lon="12.4572919"><ele>672.0</ele><time>2026-03-29T07:50:35.122Z</time></trkpt><trkpt lat="43.8691228" lon="12.4573558"><ele>672.0</ele><time>2026-03-29T07:50:39.139Z</time></trkpt><trkpt lat="43.8691761" lon="12.4574162"><ele>672.0</ele><time>2026-03-29T07:50:43.141Z</time></trkpt><trkpt lat="43.8692258" lon="12.4574776"><ele>672.0</ele><time>2026-03-29T07:50:47.125Z</time></trkpt><trkpt lat="43.8692819" lon="12.4575371"><ele>672.0</ele><time>2026-03-29T07:50:51.122Z</time></trkpt><trkpt lat="43.8693407" lon="12.45758"><ele>672.0</ele><time>2026-03-29T07:50:55.13Z</time></trkpt><trkpt lat="43.8694136" lon="12.4576018"><ele>672.0</ele><time>2026-03-29T07:51:00.111Z</time></trkpt><trkpt lat="43.8694744" lon="12.4575497"><ele>672.0</ele><time>2026-03-29T07:51:05.133Z</time></trkpt><trkpt lat="43.8695196" lon="12.4574799"><ele>674.2857142857143</ele><time>2026-03-29T07:51:09.121Z</time></trkpt><trkpt lat="43.8695526" lon="12.4573981"><ele>676.5714285714286</ele><time>2026-03-29T07:51:13.12Z</time></trkpt><trkpt lat="43.8695764" lon="12.457312"><ele>678.8571428571429</ele><time>2026-03-29T07:51:17.127Z</time></trkpt><trkpt lat="43.869597" lon="12.4572175"><ele>681.1428571428571</ele><time>2026-03-29T07:51:21.096Z</time></trkpt><trkpt lat="43.8696185" lon="12.4571261"><ele>683.4285714285714</ele><time>2026-03-29T07:51:25.11Z</time></trkpt><trkpt lat="43.8696642" lon="12.4570487"><ele>685.7142857142858</ele><time>2026-03-29T07:51:29.119Z</time></trkpt><trkpt lat="43.8697332" lon="12.4570157"><ele>688.0</ele><time>2026-03-29T07:51:33.109Z</time></trkpt><trkpt lat="43.8698017" lon="12.4570483"><ele>688.0000000000001</ele><time>2026-03-29T07:51:37.118Z</time></trkpt><trkpt lat="43.8698441" lon="12.4571176"><ele>688.0</ele><time>2026-03-29T07:51:40.12Z</time></trkpt><trkpt lat="43.8698745" lon="12.457195"><ele>688.0</ele><time>2026-03-29T07:51:43.108Z</time></trkpt><trkpt lat="43.8699006" lon="12.4572889"><ele>688.0</ele><time>2026-03-29T07:51:47.12Z</time></trkpt><trkpt lat="43.8699406" lon="12.457378"><ele>688.0</ele><time>2026-03-29T07:51:51.112Z</time></trkpt><trkpt lat="43.8699869" lon="12.4574605"><ele>688.0000000000001</ele><time>2026-03-29T07:51:56.129Z</time></trkpt><trkpt lat="43.8700142" lon="12.4575427"><ele>688.0</ele><time>2026-03-29T07:52:01.11Z</time></trkpt><trkpt lat="43.87006" lon="12.4576188"><ele>688.1666666666667</ele><time>2026-03-29T07:52:06.128Z</time></trkpt><trkpt lat="43.8701034" lon="12.4576934"><ele>688.3333333333334</ele><time>2026-03-29T07:52:11.114Z</time></trkpt><trkpt lat="43.8701651" lon="12.4577643"><ele>688.5</ele><time>2026-03-29T07:52:17.085Z</time></trkpt><trkpt lat="43.8702333" lon="12.4578128"><ele>688.6666666666666</ele><time>2026-03-29T07:52:22.103Z</time></trkpt><trkpt lat="43.8703003" lon="12.4578529"><ele>688.8333333333333</ele><time>2026-03-29T07:52:27.101Z</time></trkpt><trkpt lat="43.8703816" lon="12.4578488"><ele>689.0</ele><time>2026-03-29T07:52:32.102Z</time></trkpt><trkpt lat="43.8704558" lon="12.4578146"><ele>690.2857142857142</ele><time>2026-03-29T07:52:37.093Z</time></trkpt><trkpt lat="43.8705146" lon="12.4577781"><ele>691.5714285714286</ele><time>2026-03-29T07:52:40.124Z</time></trkpt><trkpt lat="43.8705829" lon="12.4577374"><ele>692.8571428571429</ele><time>2026-03-29T07:52:45.099Z</time></trkpt><trkpt lat="43.8706489" lon="12.4576854"><ele>694.1428571428571</ele><time>2026-03-29T07:52:50.095Z</time></trkpt><trkpt lat="43.8707232" lon="12.4576586"><ele>695.4285714285714</ele><time>2026-03-29T07:52:54.124Z</time></trkpt><trkpt lat="43.8708016" lon="12.45764"><ele>696.7142857142857</ele><time>2026-03-29T07:52:58.125Z</time></trkpt><trkpt lat="43.8708664" lon="12.4576292"><ele>698.0</ele><time>2026-03-29T07:53:02.09Z</time></trkpt><trkpt lat="43.8709436" lon="12.4576215"><ele>700.2857142857142</ele><time>2026-03-29T07:53:06.114Z</time></trkpt><trkpt lat="43.8710239" lon="12.4576308"><ele>702.5714285714286</ele><time>2026-03-29T07:53:10.14Z</time></trkpt><trkpt lat="43.8710967" lon="12.457633"><ele>704.8571428571429</ele><time>2026-03-29T07:53:14.12Z</time></trkpt><trkpt lat="43.8711662" lon="12.4576408"><ele>707.1428571428571</ele><time>2026-03-29T07:53:18.124Z</time></trkpt><trkpt lat="43.8712443" lon="12.457662"><ele>709.4285714285714</ele><time>2026-03-29T07:53:23.11Z</time></trkpt><trkpt lat="43.8713147" lon="12.4577011"><ele>711.7142857142857</ele><time>2026-03-29T07:53:28.125Z</time></trkpt><trkpt lat="43.8713792" lon="12.4577261"><ele>714.0</ele><time>2026-03-29T07:53:32.124Z</time></trkpt><trkpt lat="43.8714422" lon="12.4577386"><ele>714.0</ele><time>2026-03-29T07:53:36.125Z</time></trkpt><trkpt lat="43.8715077" lon="12.4577553"><ele>714.0</ele><time>2026-03-29T07:53:40.074Z</time></trkpt><trkpt lat="43.8715821" lon="12.457758"><ele>714.0</ele><time>2026-03-29T07:53:44.132Z</time></trkpt><trkpt lat="43.871648" lon="12.4577441"><ele>714.0</ele><time>2026-03-29T07:53:48.122Z</time></trkpt><trkpt lat="43.8717237" lon="12.4577194"><ele>714.0</ele><time>2026-03-29T07:53:52.121Z</time></trkpt><trkpt lat="43.8717933" lon="12.4576913"><ele>714.0</ele><time>2026-03-29T07:53:56.119Z</time></trkpt><trkpt lat="43.8718468" lon="12.4576409"><ele>714.0</ele><time>2026-03-29T07:54:00.122Z</time></trkpt><trkpt lat="43.8718945" lon="12.4575639"><ele>713.7142857142857</ele><time>2026-03-29T07:54:04.105Z</time></trkpt><trkpt lat="43.8719329" lon="12.4574768"><ele>713.4285714285714</ele><time>2026-03-29T07:54:09.127Z</time></trkpt><trkpt lat="43.8719852" lon="12.4574011"><ele>713.1428571428571</ele><time>2026-03-29T07:54:14.127Z</time></trkpt><trkpt lat="43.8720201" lon="12.4573245"><ele>712.8571428571429</ele><time>2026-03-29T07:54:18.11Z</time></trkpt><trkpt lat="43.8720529" lon="12.4572386"><ele>712.5714285714286</ele><time>2026-03-29T07:54:22.094Z</time></trkpt><trkpt lat="43.8720672" lon="12.4571408"><ele>712.2857142857142</ele><time>2026-03-29T07:54:28.085Z</time></trkpt><trkpt lat="43.8721059" lon="12.45705"><ele>712.0</ele><time>2026-03-29T07:54:32.061Z</time></trkpt><trkpt lat="43.8721195" lon="12.4569537"><ele>715.4285714285713</ele><time>2026-03-29T07:54:37.054Z</time></trkpt><trkpt lat="43.8721396" lon="12.4568587"><ele>718.8571428571429</ele><time>2026-03-29T07:54:41.084Z</time></trkpt><trkpt lat="43.8721752" lon="12.4567726"><ele>722.2857142857142</ele><time>2026-03-29T07:54:45.061Z</time></trkpt><trkpt lat="43.8721894" lon="12.4566734"><ele>725.7142857142857</ele><time>2026-03-29T07:54:50.082Z</time></trkpt><trkpt lat="43.8722109" lon="12.4565817"><ele>729.1428571428571</ele><time>2026-03-29T07:54:54.078Z</time></trkpt><trkpt lat="43.8722269" lon="12.456482"><ele>732.5714285714286</ele><time>2026-03-29T07:54:59.075Z</time></trkpt><trkpt lat="43.872228" lon="12.4563701"><ele>736.0</ele><time>2026-03-29T07:55:03.088Z</time></trkpt><trkpt lat="43.8722328" lon="12.4562642"><ele>737.0</ele><time>2026-03-29T07:55:07.086Z</time></trkpt><trkpt lat="43.872224" lon="12.4561758"><ele>738.0</ele><time>2026-03-29T07:55:10.054Z</time></trkpt><trkpt lat="43.8722115" lon="12.4560648"><ele>739.0</ele><time>2026-03-29T07:55:14.117Z</time></trkpt><trkpt lat="43.8722086" lon="12.4559619"><ele>740.0</ele><time>2026-03-29T07:55:18.12Z</time></trkpt><trkpt lat="43.8722017" lon="12.4558669"><ele>741.0</ele><time>2026-03-29T07:55:22.114Z</time></trkpt><trkpt lat="43.8721862" lon="12.4557721"><ele>742.0</ele><time>2026-03-29T07:55:26.125Z</time></trkpt><trkpt lat="43.8721697" lon="12.4556759"><ele>743.0</ele><time>2026-03-29T07:55:30.119Z</time></trkpt><trkpt lat="43.8721495" lon="12.4555652"><ele>743.0</ele><time>2026-03-29T07:55:34.119Z</time></trkpt><trkpt lat="43.8721186" lon="12.4554584"><ele>743.0</ele><time>2026-03-29T07:55:38.1Z</time></trkpt><trkpt lat="43.8721124" lon="12.4553635"><ele>743.0</ele><time>2026-03-29T07:55:41.122Z</time></trkpt><trkpt lat="43.8720956" lon="12.4552525"><ele>743.0</ele><time>2026-03-29T07:55:45.135Z</time></trkpt><trkpt lat="43.8720886" lon="12.4551537"><ele>743.0</ele><time>2026-03-29T07:55:48.097Z</time></trkpt><trkpt lat="43.8720699" lon="12.4550656"><ele>743.0</ele><time>2026-03-29T07:55:51.102Z</time></trkpt><trkpt lat="43.8720519" lon="12.4549809"><ele>743.0</ele><time>2026-03-29T07:55:54.135Z</time></trkpt><trkpt lat="43.872033" lon="12.4548905"><ele>742.8333333333333</ele><time>2026-03-29T07:55:57.127Z</time></trkpt><trkpt lat="43.8720163" lon="12.4547993"><ele>742.6666666666666</ele><time>2026-03-29T07:56:00.135Z</time></trkpt><trkpt lat="43.8720115" lon="12.4546903"><ele>742.5</ele><time>2026-03-29T07:56:03.121Z</time></trkpt><trkpt lat="43.871991" lon="12.4545949"><ele>742.3333333333334</ele><time>2026-03-29T07:56:05.133Z</time></trkpt><trkpt lat="43.8719666" lon="12.4544901"><ele>742.1666666666667</ele><time>2026-03-29T07:56:07.126Z</time></trkpt><trkpt lat="43.8719418" lon="12.4543656"><ele>742.0</ele><time>2026-03-29T07:56:09.148Z</time></trkpt><trkpt lat="43.8719104" lon="12.4542442"><ele>741.0</ele><time>2026-03-29T07:56:11.146Z</time></trkpt><trkpt lat="43.8718866" lon="12.4541076"><ele>740.0</ele><time>2026-03-29T07:56:13.133Z</time></trkpt><trkpt lat="43.8718558" lon="12.453966"><ele>739.0</ele><time>2026-03-29T07:56:15.142Z</time></trkpt><trkpt lat="43.8718342" lon="12.4538272"><ele>738.0</ele><time>2026-03-29T07:56:17.119Z</time></trkpt><trkpt lat="43.8717995" lon="12.4536876"><ele>737.0</ele><time>2026-03-29T07:56:19.133Z</time></trkpt><trkpt lat="43.8717597" lon="12.4535397"><ele>737.0</ele><time>2026-03-29T07:56:21.112Z</time></trkpt><trkpt lat="43.8717218" lon="12.4533979"><ele>737.0</ele><time>2026-03-29T07:56:23.125Z</time></trkpt><trkpt lat="43.8716784" lon="12.4532655"><ele>737.0</ele><time>2026-03-29T07:56:25.131Z</time></trkpt><trkpt lat="43.8716323" lon="12.4531397"><ele>737.0</ele><time>2026-03-29T07:56:27.139Z</time></trkpt><trkpt lat="43.8715799" lon="12.4530357"><ele>737.0</ele><time>2026-03-29T07:56:29.135Z</time></trkpt><trkpt lat="43.8715339" lon="12.4529459"><ele>737.0</ele><time>2026-03-29T07:56:31.138Z</time></trkpt><trkpt lat="43.8714992" lon="12.4528563"><ele>737.0</ele><time>2026-03-29T07:56:33.139Z</time></trkpt><trkpt lat="43.8714581" lon="12.4527767"><ele>737.0</ele><time>2026-03-29T07:56:35.13Z</time></trkpt><trkpt lat="43.8714177" lon="12.4526813"><ele>737.0</ele><time>2026-03-29T07:56:37.109Z</time></trkpt><trkpt lat="43.8713646" lon="12.452584"><ele>737.0</ele><time>2026-03-29T07:56:39.147Z</time></trkpt><trkpt lat="43.8713039" lon="12.4524811"><ele>737.0</ele><time>2026-03-29T07:56:41.134Z</time></trkpt><trkpt lat="43.8712528" lon="12.4523734"><ele>737.0</ele><time>2026-03-29T07:56:43.134Z</time></trkpt><trkpt lat="43.8711816" lon="12.4522579"><ele>737.0</ele><time>2026-03-29T07:56:45.114Z</time></trkpt><trkpt lat="43.8711001" lon="12.452143"><ele>737.0</ele><time>2026-03-29T07:56:47.109Z</time></trkpt><trkpt lat="43.8710126" lon="12.4520331"><ele>737.0</ele><time>2026-03-29T07:56:49.108Z</time></trkpt><trkpt lat="43.8709203" lon="12.4519076"><ele>736.5</ele><time>2026-03-29T07:56:51.121Z</time></trkpt><trkpt lat="43.8708717" lon="12.4518468"><ele>736.0</ele><time>2026-03-29T07:56:52.143Z</time></trkpt><trkpt lat="43.8708212" lon="12.4517782"><ele>735.5</ele><time>2026-03-29T07:56:53.121Z</time></trkpt><trkpt lat="43.8707697" lon="12.4517159"><ele>735.0</ele><time>2026-03-29T07:56:54.133Z</time></trkpt><trkpt lat="43.8707177" lon="12.4516555"><ele>734.5</ele><time>2026-03-29T07:56:55.126Z</time></trkpt><trkpt lat="43.8706717" lon="12.4515909"><ele>734.0</ele><time>2026-03-29T07:56:56.147Z</time></trkpt><trkpt lat="43.8705812" lon="12.4514783"><ele>734.0</ele><time>2026-03-29T07:56:58.102Z</time></trkpt><trkpt lat="43.8704958" lon="12.4513705"><ele>734.0</ele><time>2026-03-29T07:57:00.125Z</time></trkpt><trkpt lat="43.870421" lon="12.4512605"><ele>734.0</ele><time>2026-03-29T07:57:02.143Z</time></trkpt><trkpt lat="43.8703488" lon="12.4511552"><ele>734.0</ele><time>2026-03-29T07:57:04.129Z</time></trkpt><trkpt lat="43.8702861" lon="12.4510519"><ele>734.0</ele><time>2026-03-29T07:57:06.129Z</time></trkpt><trkpt lat="43.8702345" lon="12.4509565"><ele>734.1666666666666</ele><time>2026-03-29T07:57:08.126Z</time></trkpt><trkpt lat="43.8701774" lon="12.4508622"><ele>734.3333333333333</ele><time>2026-03-29T07:57:11.136Z</time></trkpt><trkpt lat="43.8701285" lon="12.4507799"><ele>734.5</ele><time>2026-03-29T07:57:14.134Z</time></trkpt><trkpt lat="43.8700856" lon="12.4506884"><ele>734.6666666666666</ele><time>2026-03-29T07:57:17.134Z</time></trkpt><trkpt lat="43.8700369" lon="12.450606"><ele>734.8333333333334</ele><time>2026-03-29T07:57:20.166Z</time></trkpt><trkpt lat="43.8699872" lon="12.4505164"><ele>735.0</ele><time>2026-03-29T07:57:23.138Z</time></trkpt><trkpt lat="43.8699426" lon="12.4504336"><ele>736.1428571428571</ele><time>2026-03-29T07:57:26.107Z</time></trkpt><trkpt lat="43.8698948" lon="12.4503586"><ele>737.2857142857142</ele><time>2026-03-29T07:57:29.121Z</time></trkpt><trkpt lat="43.8698501" lon="12.4502754"><ele>738.4285714285714</ele><time>2026-03-29T07:57:32.12Z</time></trkpt><trkpt lat="43.8698116" lon="12.4501934"><ele>739.5714285714286</ele><time>2026-03-29T07:57:35.128Z</time></trkpt><trkpt lat="43.8697713" lon="12.4501202"><ele>740.7142857142857</ele><time>2026-03-29T07:57:38.079Z</time></trkpt><trkpt lat="43.8697267" lon="12.4500471"><ele>741.8571428571429</ele><time>2026-03-29T07:57:41.14Z</time></trkpt><trkpt lat="43.8696878" lon="12.4499728"><ele>743.0</ele><time>2026-03-29T07:57:44.119Z</time></trkpt><trkpt lat="43.8696476" lon="12.4499029"><ele>743.0</ele><time>2026-03-29T07:57:47.11Z</time></trkpt><trkpt lat="43.8696008" lon="12.4498254"><ele>743.0</ele><time>2026-03-29T07:57:50.137Z</time></trkpt><trkpt lat="43.8695618" lon="12.4497456"><ele>743.0</ele><time>2026-03-29T07:57:53.13Z</time></trkpt><trkpt lat="43.8695198" lon="12.4496681"><ele>743.0</ele><time>2026-03-29T07:57:56.141Z</time></trkpt><trkpt lat="43.8694885" lon="12.4495896"><ele>743.0</ele><time>2026-03-29T07:57:59.141Z</time></trkpt><trkpt lat="43.8694579" lon="12.4495109"><ele>743.0</ele><time>2026-03-29T07:58:02.109Z</time></trkpt><trkpt lat="43.8694378" lon="12.4494215"><ele>743.0</ele><time>2026-03-29T07:58:06.129Z</time></trkpt><trkpt lat="43.8694292" lon="12.449325"><ele>744.1428571428572</ele><time>2026-03-29T07:58:10.132Z</time></trkpt><trkpt lat="43.8694372" lon="12.4492347"><ele>745.2857142857142</ele><time>2026-03-29T07:58:14.129Z</time></trkpt><trkpt lat="43.8694598" lon="12.4491346"><ele>746.4285714285714</ele><time>2026-03-29T07:58:18.144Z</time></trkpt><trkpt lat="43.8694832" lon="12.4490468"><ele>747.5714285714287</ele><time>2026-03-29T07:58:22.131Z</time></trkpt><trkpt lat="43.8695113" lon="12.4489644"><ele>748.7142857142858</ele><time>2026-03-29T07:58:26.118Z</time></trkpt><trkpt lat="43.8695367" lon="12.448866"><ele>749.8571428571429</ele><time>2026-03-29T07:58:31.089Z</time></trkpt><trkpt lat="43.8695565" lon="12.448775"><ele>751.0</ele><time>2026-03-29T07:58:35.091Z</time></trkpt><trkpt lat="43.8695705" lon="12.4486889"><ele>751.8333333333334</ele><time>2026-03-29T07:58:39.122Z</time></trkpt><trkpt lat="43.8695908" lon="12.4486031"><ele>752.6666666666667</ele><time>2026-03-29T07:58:43.118Z</time></trkpt><trkpt lat="43.8696095" lon="12.4484991"><ele>753.5</ele><time>2026-03-29T07:58:47.126Z</time></trkpt><trkpt lat="43.8696203" lon="12.4483873"><ele>754.3333333333334</ele><time>2026-03-29T07:58:51.117Z</time></trkpt><trkpt lat="43.8696388" lon="12.4482894"><ele>755.1666666666666</ele><time>2026-03-29T07:58:55.132Z</time></trkpt><trkpt lat="43.8696539" lon="12.4481819"><ele>756.0</ele><time>2026-03-29T07:58:59.134Z</time></trkpt><trkpt lat="43.8696564" lon="12.4480732"><ele>756.0</ele><time>2026-03-29T07:59:03.067Z</time></trkpt><trkpt lat="43.8696665" lon="12.447961"><ele>756.0</ele><time>2026-03-29T07:59:07.127Z</time></trkpt><trkpt lat="43.8696756" lon="12.447859"><ele>756.0</ele><time>2026-03-29T07:59:10.1Z</time></trkpt><trkpt lat="43.8696924" lon="12.44777"><ele>756.0</ele><time>2026-03-29T07:59:13.097Z</time></trkpt><trkpt lat="43.8696948" lon="12.447666"><ele>756.0</ele><time>2026-03-29T07:59:16.095Z</time></trkpt><trkpt lat="43.8697053" lon="12.4475593"><ele>756.0</ele><time>2026-03-29T07:59:19.139Z</time></trkpt><trkpt lat="43.8697209" lon="12.4474662"><ele>756.0</ele><time>2026-03-29T07:59:22.119Z</time></trkpt><trkpt lat="43.8697266" lon="12.447371"><ele>756.5714285714286</ele><time>2026-03-29T07:59:25.133Z</time></trkpt><trkpt lat="43.8697334" lon="12.4472675"><ele>757.1428571428571</ele><time>2026-03-29T07:59:28.126Z</time></trkpt><trkpt lat="43.8697427" lon="12.4471724"><ele>757.7142857142858</ele><time>2026-03-29T07:59:31.113Z</time></trkpt><trkpt lat="43.8697617" lon="12.4470753"><ele>758.2857142857142</ele><time>2026-03-29T07:59:34.137Z</time></trkpt><trkpt lat="43.8697971" lon="12.4469933"><ele>758.8571428571429</ele><time>2026-03-29T07:59:37.1Z</time></trkpt><trkpt lat="43.8698422" lon="12.4469316"><ele>759.4285714285714</ele><time>2026-03-29T07:59:40.121Z</time></trkpt><trkpt lat="43.8698967" lon="12.4468528"><ele>760.0</ele><time>2026-03-29T07:59:44.135Z</time></trkpt><trkpt lat="43.8699348" lon="12.4467804"><ele>761.0</ele><time>2026-03-29T07:59:47.079Z</time></trkpt><trkpt lat="43.8699619" lon="12.4466919"><ele>762.0</ele><time>2026-03-29T07:59:50.094Z</time></trkpt><trkpt lat="43.8699881" lon="12.4466003"><ele>763.0</ele><time>2026-03-29T07:59:53.096Z</time></trkpt><trkpt lat="43.8700083" lon="12.4465116"><ele>764.0</ele><time>2026-03-29T07:59:56.131Z</time></trkpt><trkpt lat="43.8700289" lon="12.4463983"><ele>765.0</ele><time>2026-03-29T08:00:00.124Z</time></trkpt><trkpt lat="43.8700582" lon="12.4463079"><ele>766.0</ele><time>2026-03-29T08:00:03.138Z</time></trkpt><trkpt lat="43.8700795" lon="12.4462112"><ele>767.0</ele><time>2026-03-29T08:00:06.109Z</time></trkpt><trkpt lat="43.870097" lon="12.4461226"><ele>766.7142857142858</ele><time>2026-03-29T08:00:09.118Z</time></trkpt><trkpt lat="43.8701166" lon="12.4460268"><ele>766.4285714285714</ele><time>2026-03-29T08:00:12.119Z</time></trkpt><trkpt lat="43.8701335" lon="12.4459055"><ele>766.1428571428571</ele><time>2026-03-29T08:00:16.119Z</time></trkpt><trkpt lat="43.870151" lon="12.4458152"><ele>765.8571428571429</ele><time>2026-03-29T08:00:19.14Z</time></trkpt><trkpt lat="43.8701793" lon="12.4457277"><ele>765.5714285714286</ele><time>2026-03-29T08:00:22.127Z</time></trkpt><trkpt lat="43.8701965" lon="12.4456229"><ele>765.2857142857143</ele><time>2026-03-29T08:00:26.094Z</time></trkpt><trkpt lat="43.8702264" lon="12.4455323"><ele>765.0</ele><time>2026-03-29T08:00:29.118Z</time></trkpt><trkpt lat="43.8702692" lon="12.4454316"><ele>766.7142857142858</ele><time>2026-03-29T08:00:33.089Z</time></trkpt><trkpt lat="43.8703089" lon="12.4453613"><ele>768.4285714285714</ele><time>2026-03-29T08:00:36.11Z</time></trkpt><trkpt lat="43.8703704" lon="12.4452729"><ele>770.1428571428571</ele><time>2026-03-29T08:00:40.128Z</time></trkpt><trkpt lat="43.870419" lon="12.4452052"><ele>771.8571428571429</ele><time>2026-03-29T08:00:43.139Z</time></trkpt><trkpt lat="43.8704756" lon="12.4451533"><ele>773.5714285714286</ele><time>2026-03-29T08:00:46.13Z</time></trkpt><trkpt lat="43.8705326" lon="12.4451072"><ele>775.2857142857143</ele><time>2026-03-29T08:00:49.13Z</time></trkpt><trkpt lat="43.8705962" lon="12.4450435"><ele>777.0</ele><time>2026-03-29T08:00:53.119Z</time></trkpt><trkpt lat="43.8706618" lon="12.4449788"><ele>777.0</ele><time>2026-03-29T08:00:57.129Z</time></trkpt><trkpt lat="43.8707206" lon="12.4449198"><ele>777.0</ele><time>2026-03-29T08:01:00.137Z</time></trkpt><trkpt lat="43.8707907" lon="12.44484"><ele>777.0</ele><time>2026-03-29T08:01:04.135Z</time></trkpt><trkpt lat="43.8708456" lon="12.4447949"><ele>777.0</ele><time>2026-03-29T08:01:07.12Z</time></trkpt><trkpt lat="43.8709154" lon="12.4447346"><ele>777.0</ele><time>2026-03-29T08:01:11.127Z</time></trkpt><trkpt lat="43.8709744" lon="12.4446533"><ele>777.0</ele><time>2026-03-29T08:01:15.122Z</time></trkpt><trkpt lat="43.8710302" lon="12.4445782"><ele>779.1428571428571</ele><time>2026-03-29T08:01:19.107Z</time></trkpt><trkpt lat="43.871086" lon="12.4444969"><ele>781.2857142857142</ele><time>2026-03-29T08:01:23.125Z</time></trkpt><trkpt lat="43.8711346" lon="12.4444082"><ele>783.4285714285714</ele><time>2026-03-29T08:01:27.101Z</time></trkpt><trkpt lat="43.8711731" lon="12.44433"><ele>785.5714285714286</ele><time>2026-03-29T08:01:30.118Z</time></trkpt><trkpt lat="43.8712066" lon="12.4442346"><ele>787.7142857142857</ele><time>2026-03-29T08:01:34.126Z</time></trkpt><trkpt lat="43.8712458" lon="12.4441609"><ele>789.8571428571429</ele><time>2026-03-29T08:01:37.115Z</time></trkpt><trkpt lat="43.8712921" lon="12.4440982"><ele>792.0</ele><time>2026-03-29T08:01:40.124Z</time></trkpt><trkpt lat="43.8713556" lon="12.4440367"><ele>792.0</ele><time>2026-03-29T08:01:44.13Z</time></trkpt><trkpt lat="43.8714169" lon="12.4439987"><ele>792.0</ele><time>2026-03-29T08:01:48.128Z</time></trkpt><trkpt lat="43.8714803" lon="12.4439983"><ele>792.0</ele><time>2026-03-29T08:01:52.125Z</time></trkpt><trkpt lat="43.8715458" lon="12.44398"><ele>792.0</ele><time>2026-03-29T08:01:56.11Z</time></trkpt><trkpt lat="43.8716195" lon="12.4439586"><ele>792.0</ele><time>2026-03-29T08:02:00.115Z</time></trkpt><trkpt lat="43.871686" lon="12.4439444"><ele>792.0</ele><time>2026-03-29T08:02:04.117Z</time></trkpt><trkpt lat="43.8717486" lon="12.4439585"><ele>792.0</ele><time>2026-03-29T08:02:08.117Z</time></trkpt><trkpt lat="43.8718228" lon="12.4439535"><ele>790.7142857142858</ele><time>2026-03-29T08:02:12.125Z</time></trkpt><trkpt lat="43.8718937" lon="12.4439257"><ele>789.4285714285713</ele><time>2026-03-29T08:02:16.117Z</time></trkpt><trkpt lat="43.8719612" lon="12.4439037"><ele>788.1428571428571</ele><time>2026-03-29T08:02:19.129Z</time></trkpt><trkpt lat="43.872048" lon="12.4438811"><ele>786.8571428571429</ele><time>2026-03-29T08:02:22.114Z</time></trkpt><trkpt lat="43.8721142" lon="12.4438691"><ele>785.5714285714287</ele><time>2026-03-29T08:02:24.136Z</time></trkpt><trkpt lat="43.8721874" lon="12.4438548"><ele>784.2857142857142</ele><time>2026-03-29T08:02:26.126Z</time></trkpt><trkpt lat="43.8722578" lon="12.4438352"><ele>783.0</ele><time>2026-03-29T08:02:28.065Z</time></trkpt><trkpt lat="43.8723236" lon="12.4438168"><ele>783.0</ele><time>2026-03-29T08:02:30.121Z</time></trkpt><trkpt lat="43.8723952" lon="12.4438052"><ele>783.0</ele><time>2026-03-29T08:02:32.126Z</time></trkpt><trkpt lat="43.8724725" lon="12.4437733"><ele>783.0</ele><time>2026-03-29T08:02:34.124Z</time></trkpt><trkpt lat="43.8725523" lon="12.4437442"><ele>783.0</ele><time>2026-03-29T08:02:36.122Z</time></trkpt><trkpt lat="43.8726418" lon="12.4436987"><ele>783.0</ele><time>2026-03-29T08:02:38.115Z</time></trkpt><trkpt lat="43.8727182" lon="12.4436196"><ele>783.0</ele><time>2026-03-29T08:02:40.126Z</time></trkpt><trkpt lat="43.8727781" lon="12.4435333"><ele>785.2</ele><time>2026-03-29T08:02:42.127Z</time></trkpt><trkpt lat="43.8728348" lon="12.4434435"><ele>787.4</ele><time>2026-03-29T08:02:44.119Z</time></trkpt><trkpt lat="43.8729044" lon="12.4433513"><ele>789.6</ele><time>2026-03-29T08:02:46.126Z</time></trkpt><trkpt lat="43.8729903" lon="12.4432787"><ele>791.8000000000001</ele><time>2026-03-29T08:02:48.146Z</time></trkpt><trkpt lat="43.8730855" lon="12.4432523"><ele>794.0</ele><time>2026-03-29T08:02:50.115Z</time></trkpt><trkpt lat="43.873186" lon="12.4432649"><ele>794.0</ele><time>2026-03-29T08:02:52.118Z</time></trkpt><trkpt lat="43.8732828" lon="12.4432933"><ele>794.0</ele><time>2026-03-29T08:02:54.109Z</time></trkpt><trkpt lat="43.8733716" lon="12.4432786"><ele>794.0</ele><time>2026-03-29T08:02:56.123Z</time></trkpt><trkpt lat="43.8734631" lon="12.4432565"><ele>794.0</ele><time>2026-03-29T08:02:58.125Z</time></trkpt><trkpt lat="43.8735575" lon="12.4432191"><ele>794.0</ele><time>2026-03-29T08:03:00.12Z</time></trkpt><trkpt lat="43.8736329" lon="12.443191"><ele>794.0000000000001</ele><time>2026-03-29T08:03:02.123Z</time></trkpt><trkpt lat="43.8737014" lon="12.4431524"><ele>794.0</ele><time>2026-03-29T08:03:04.134Z</time></trkpt><trkpt lat="43.873772" lon="12.4431057"><ele>794.0</ele><time>2026-03-29T08:03:06.12Z</time></trkpt><trkpt lat="43.8738331" lon="12.4430657"><ele>794.0</ele><time>2026-03-29T08:03:08.149Z</time></trkpt><trkpt lat="43.8739108" lon="12.4430034"><ele>794.0000000000001</ele><time>2026-03-29T08:03:11.111Z</time></trkpt><trkpt lat="43.873954" lon="12.4429091"><ele>794.0</ele><time>2026-03-29T08:03:14.113Z</time></trkpt><trkpt lat="43.8739789" lon="12.4427991"><ele>794.0000000000001</ele><time>2026-03-29T08:03:17.114Z</time></trkpt><trkpt lat="43.8739832" lon="12.4427095"><ele>794.0</ele><time>2026-03-29T08:03:19.12Z</time></trkpt><trkpt lat="43.8739724" lon="12.4426026"><ele>794.0</ele><time>2026-03-29T08:03:21.104Z</time></trkpt><trkpt lat="43.8739315" lon="12.4424685"><ele>794.0</ele><time>2026-03-29T08:03:23.129Z</time></trkpt><trkpt lat="43.8738945" lon="12.442347"><ele>794.0000000000001</ele><time>2026-03-29T08:03:25.13Z</time></trkpt><trkpt lat="43.8738613" lon="12.4422126"><ele>794.0</ele><time>2026-03-29T08:03:27.11Z</time></trkpt><trkpt lat="43.8738286" lon="12.4420914"><ele>792.0</ele><time>2026-03-29T08:03:29.084Z</time></trkpt><trkpt lat="43.873802" lon="12.4419577"><ele>790.0</ele><time>2026-03-29T08:03:31.112Z</time></trkpt><trkpt lat="43.8737637" lon="12.4418241"><ele>788.0</ele><time>2026-03-29T08:03:33.115Z</time></trkpt><trkpt lat="43.8737345" lon="12.4416853"><ele>786.0</ele><time>2026-03-29T08:03:35.107Z</time></trkpt><trkpt lat="43.8736858" lon="12.4415466"><ele>784.0</ele><time>2026-03-29T08:03:37.131Z</time></trkpt><trkpt lat="43.8736335" lon="12.4413981"><ele>784.0</ele><time>2026-03-29T08:03:39.121Z</time></trkpt><trkpt lat="43.8736024" lon="12.4413206"><ele>784.0</ele><time>2026-03-29T08:03:40.146Z</time></trkpt><trkpt lat="43.8735736" lon="12.4412294"><ele>784.0</ele><time>2026-03-29T08:03:41.114Z</time></trkpt><trkpt lat="43.8735493" lon="12.4411353"><ele>784.0</ele><time>2026-03-29T08:03:42.137Z</time></trkpt><trkpt lat="43.8735311" lon="12.4410285"><ele>784.0</ele><time>2026-03-29T08:03:43.111Z</time></trkpt><trkpt lat="43.8735216" lon="12.4409216"><ele>784.0</ele><time>2026-03-29T08:03:44.089Z</time></trkpt><trkpt lat="43.8735217" lon="12.4408137"><ele>784.0</ele><time>2026-03-29T08:03:45.089Z</time></trkpt><trkpt lat="43.8735244" lon="12.4407017"><ele>783.1666666666666</ele><time>2026-03-29T08:03:46.131Z</time></trkpt><trkpt lat="43.8735269" lon="12.4405979"><ele>782.3333333333333</ele><time>2026-03-29T08:03:47.118Z</time></trkpt><trkpt lat="43.8735372" lon="12.4404919"><ele>781.5</ele><time>2026-03-29T08:03:48.132Z</time></trkpt><trkpt lat="43.8735465" lon="12.4403865"><ele>780.6666666666667</ele><time>2026-03-29T08:03:49.118Z</time></trkpt><trkpt lat="43.8735572" lon="12.4402772"><ele>779.8333333333334</ele><time>2026-03-29T08:03:50.126Z</time></trkpt><trkpt lat="43.8735707" lon="12.4401893"><ele>779.0</ele><time>2026-03-29T08:03:51.133Z</time></trkpt><trkpt lat="43.8735866" lon="12.4400814"><ele>778.5000000000001</ele><time>2026-03-29T08:03:52.136Z</time></trkpt><trkpt lat="43.8736025" lon="12.4399723"><ele>778.0</ele><time>2026-03-29T08:03:53.101Z</time></trkpt><trkpt lat="43.8736238" lon="12.4398625"><ele>777.5</ele><time>2026-03-29T08:03:54.135Z</time></trkpt><trkpt lat="43.8736375" lon="12.4397422"><ele>777.0</ele><time>2026-03-29T08:03:55.132Z</time></trkpt><trkpt lat="43.8736499" lon="12.4396086"><ele>776.5000000000001</ele><time>2026-03-29T08:03:56.123Z</time></trkpt><trkpt lat="43.8736623" lon="12.4394721"><ele>776.0</ele><time>2026-03-29T08:03:57.121Z</time></trkpt><trkpt lat="43.8736709" lon="12.4393222"><ele>774.5</ele><time>2026-03-29T08:03:58.121Z</time></trkpt><trkpt lat="43.8736816" lon="12.4391644"><ele>773.0</ele><time>2026-03-29T08:03:59.113Z</time></trkpt><trkpt lat="43.8737022" lon="12.4389985"><ele>771.5</ele><time>2026-03-29T08:04:00.112Z</time></trkpt><trkpt lat="43.8737142" lon="12.4388287"><ele>770.0</ele><time>2026-03-29T08:04:01.141Z</time></trkpt><trkpt lat="43.8737349" lon="12.4386497"><ele>769.75</ele><time>2026-03-29T08:04:02.117Z</time></trkpt><trkpt lat="43.8737544" lon="12.4384669"><ele>769.5</ele><time>2026-03-29T08:04:03.119Z</time></trkpt><trkpt lat="43.8737691" lon="12.4382885"><ele>769.25</ele><time>2026-03-29T08:04:04.133Z</time></trkpt><trkpt lat="43.8737753" lon="12.4381137"><ele>769.0</ele><time>2026-03-29T08:04:05.101Z</time></trkpt><trkpt lat="43.8737583" lon="12.4379419"><ele>768.8000000000001</ele><time>2026-03-29T08:04:06.129Z</time></trkpt><trkpt lat="43.8737185" lon="12.4377812"><ele>768.6</ele><time>2026-03-29T08:04:07.12Z</time></trkpt><trkpt lat="43.8736762" lon="12.4376415"><ele>768.4</ele><time>2026-03-29T08:04:08.16Z</time></trkpt><trkpt lat="43.8736335" lon="12.4375034"><ele>768.2</ele><time>2026-03-29T08:04:09.132Z</time></trkpt><trkpt lat="43.8735899" lon="12.4373722"><ele>768.0</ele><time>2026-03-29T08:04:10.141Z</time></trkpt><trkpt lat="43.8735397" lon="12.437242"><ele>768.8</ele><time>2026-03-29T08:04:11.116Z</time></trkpt><trkpt lat="43.8734861" lon="12.437115"><ele>769.5999999999999</ele><time>2026-03-29T08:04:12.132Z</time></trkpt><trkpt lat="43.8734329" lon="12.4369887"><ele>770.4000000000001</ele><time>2026-03-29T08:04:13.134Z</time></trkpt><trkpt lat="43.8733781" lon="12.4368733"><ele>771.2</ele><time>2026-03-29T08:04:14.137Z</time></trkpt><trkpt lat="43.8733317" lon="12.4367498"><ele>772.0</ele><time>2026-03-29T08:04:15.143Z</time></trkpt><trkpt lat="43.8732982" lon="12.4366228"><ele>772.0</ele><time>2026-03-29T08:04:16.12Z</time></trkpt><trkpt lat="43.8732713" lon="12.4364976"><ele>772.0</ele><time>2026-03-29T08:04:17.134Z</time></trkpt><trkpt lat="43.8732585" lon="12.436373"><ele>772.0</ele><time>2026-03-29T08:04:18.114Z</time></trkpt><trkpt lat="43.8732491" lon="12.4362522"><ele>772.0</ele><time>2026-03-29T08:04:19.116Z</time></trkpt><trkpt lat="43.8732467" lon="12.4361311"><ele>772.0</ele><time>2026-03-29T08:04:20.129Z</time></trkpt><trkpt lat="43.8732489" lon="12.4359997"><ele>772.3333333333333</ele><time>2026-03-29T08:04:21.118Z</time></trkpt><trkpt lat="43.8732524" lon="12.4358726"><ele>772.6666666666666</ele><time>2026-03-29T08:04:22.138Z</time></trkpt><trkpt lat="43.8732608" lon="12.4357534"><ele>773.0</ele><time>2026-03-29T08:04:23.114Z</time></trkpt><trkpt lat="43.8732778" lon="12.4356268"><ele>773.3333333333333</ele><time>2026-03-29T08:04:24.116Z</time></trkpt><trkpt lat="43.8732967" lon="12.4355082"><ele>773.6666666666666</ele><time>2026-03-29T08:04:25.121Z</time></trkpt><trkpt lat="43.8733205" lon="12.435401"><ele>774.0</ele><time>2026-03-29T08:04:26.108Z</time></trkpt><trkpt lat="43.8733461" lon="12.4352956"><ele>774.0</ele><time>2026-03-29T08:04:27.123Z</time></trkpt><trkpt lat="43.8733728" lon="12.4351952"><ele>774.0</ele><time>2026-03-29T08:04:28.109Z</time></trkpt><trkpt lat="43.8734021" lon="12.435107"><ele>774.0</ele><time>2026-03-29T08:04:29.111Z</time></trkpt><trkpt lat="43.8734289" lon="12.4350263"><ele>774.0</ele><time>2026-03-29T08:04:30.108Z</time></trkpt><trkpt lat="43.8734798" lon="12.4348959"><ele>774.0</ele><time>2026-03-29T08:04:32.111Z</time></trkpt><trkpt lat="43.8735422" lon="12.4347844"><ele>774.0</ele><time>2026-03-29T08:04:34.126Z</time></trkpt><trkpt lat="43.8736034" lon="12.43466"><ele>770.0</ele><time>2026-03-29T08:04:36.137Z</time></trkpt><trkpt lat="43.8736554" lon="12.434498"><ele>766.0</ele><time>2026-03-29T08:04:38.135Z</time></trkpt><trkpt lat="43.8736878" lon="12.4343995"><ele>762.0</ele><time>2026-03-29T08:04:39.133Z</time></trkpt><trkpt lat="43.8737174" lon="12.4342964"><ele>758.0</ele><time>2026-03-29T08:04:40.126Z</time></trkpt><trkpt lat="43.873751" lon="12.4341855"><ele>754.0</ele><time>2026-03-29T08:04:41.14Z</time></trkpt><trkpt lat="43.8737877" lon="12.434082"><ele>754.0</ele><time>2026-03-29T08:04:42.126Z</time></trkpt><trkpt lat="43.8738329" lon="12.4339682"><ele>754.0</ele><time>2026-03-29T08:04:43.125Z</time></trkpt><trkpt lat="43.873876" lon="12.4338603"><ele>754.0</ele><time>2026-03-29T08:04:44.127Z</time></trkpt><trkpt lat="43.873927" lon="12.4337559"><ele>754.0</ele><time>2026-03-29T08:04:45.126Z</time></trkpt><trkpt lat="43.8739738" lon="12.4336516"><ele>754.0</ele><time>2026-03-29T08:04:46.128Z</time></trkpt><trkpt lat="43.8740292" lon="12.4335605"><ele>754.0</ele><time>2026-03-29T08:04:47.134Z</time></trkpt><trkpt lat="43.8740856" lon="12.4334631"><ele>754.8333333333334</ele><time>2026-03-29T08:04:48.13Z</time></trkpt><trkpt lat="43.8741495" lon="12.4333654"><ele>755.6666666666667</ele><time>2026-03-29T08:04:49.14Z</time></trkpt><trkpt lat="43.8742164" lon="12.4332732"><ele>756.5</ele><time>2026-03-29T08:04:50.127Z</time></trkpt><trkpt lat="43.8742909" lon="12.4331921"><ele>757.3333333333334</ele><time>2026-03-29T08:04:51.143Z</time></trkpt><trkpt lat="43.8743596" lon="12.4331192"><ele>758.1666666666666</ele><time>2026-03-29T08:04:52.155Z</time></trkpt><trkpt lat="43.8744105" lon="12.4330501"><ele>759.0</ele><time>2026-03-29T08:04:53.128Z</time></trkpt><trkpt lat="43.8744423" lon="12.4329517"><ele>755.3333333333334</ele><time>2026-03-29T08:04:54.129Z</time></trkpt><trkpt lat="43.8744392" lon="12.4328378"><ele>751.6666666666666</ele><time>2026-03-29T08:04:55.13Z</time></trkpt><trkpt lat="43.8744392" lon="12.4327042"><ele>748.0</ele><time>2026-03-29T08:04:56.137Z</time></trkpt><trkpt lat="43.8744246" lon="12.4325844"><ele>744.3333333333333</ele><time>2026-03-29T08:04:57.125Z</time></trkpt><trkpt lat="43.8744" lon="12.4324705"><ele>740.6666666666666</ele><time>2026-03-29T08:04:58.082Z</time></trkpt><trkpt lat="43.8743551" lon="12.4323663"><ele>737.0</ele><time>2026-03-29T08:04:59.136Z</time></trkpt><trkpt lat="43.874293" lon="12.4322824"><ele>740.6</ele><time>2026-03-29T08:05:00.13Z</time></trkpt><trkpt lat="43.8742177" lon="12.4322376"><ele>744.2</ele><time>2026-03-29T08:05:01.124Z</time></trkpt><trkpt lat="43.8741306" lon="12.4322165"><ele>747.8</ele><time>2026-03-29T08:05:02.1Z</time></trkpt><trkpt lat="43.8740399" lon="12.4322018"><ele>751.4</ele><time>2026-03-29T08:05:03.143Z</time></trkpt><trkpt lat="43.8739401" lon="12.4321891"><ele>755.0</ele><time>2026-03-29T08:05:04.117Z</time></trkpt><trkpt lat="43.8738366" lon="12.4321876"><ele>755.0</ele><time>2026-03-29T08:05:05.112Z</time></trkpt><trkpt lat="43.8737345" lon="12.4322161"><ele>755.0</ele><time>2026-03-29T08:05:06.118Z</time></trkpt><trkpt lat="43.8736379" lon="12.4322636"><ele>755.0</ele><time>2026-03-29T08:05:07.127Z</time></trkpt><trkpt lat="43.873539" lon="12.4323075"><ele>755.0</ele><time>2026-03-29T08:05:08.134Z</time></trkpt><trkpt lat="43.8734363" lon="12.4323501"><ele>755.0</ele><time>2026-03-29T08:05:09.128Z</time></trkpt><trkpt lat="43.87334" lon="12.4323923"><ele>754.0</ele><time>2026-03-29T08:05:10.099Z</time></trkpt><trkpt lat="43.8732403" lon="12.4324425"><ele>753.0</ele><time>2026-03-29T08:05:11.079Z</time></trkpt><trkpt lat="43.8731431" lon="12.4324846"><ele>752.0</ele><time>2026-03-29T08:05:12.127Z</time></trkpt><trkpt lat="43.8730469" lon="12.4325093"><ele>751.0</ele><time>2026-03-29T08:05:13.108Z</time></trkpt><trkpt lat="43.8729563" lon="12.4325324"><ele>750.0</ele><time>2026-03-29T08:05:14.125Z</time></trkpt><trkpt lat="43.8728731" lon="12.432533"><ele>750.0</ele><time>2026-03-29T08:05:15.149Z</time></trkpt><trkpt lat="43.872793" lon="12.4325031"><ele>750.0</ele><time>2026-03-29T08:05:16.102Z</time></trkpt><trkpt lat="43.872717" lon="12.4324623"><ele>750.0</ele><time>2026-03-29T08:05:17.134Z</time></trkpt><trkpt lat="43.8726401" lon="12.4324203"><ele>750.0</ele><time>2026-03-29T08:05:18.121Z</time></trkpt><trkpt lat="43.8725586" lon="12.4323748"><ele>750.0</ele><time>2026-03-29T08:05:19.109Z</time></trkpt><trkpt lat="43.8724765" lon="12.4323271"><ele>750.0</ele><time>2026-03-29T08:05:20.125Z</time></trkpt><trkpt lat="43.8723915" lon="12.4323002"><ele>750.1666666666666</ele><time>2026-03-29T08:05:21.121Z</time></trkpt><trkpt lat="43.8723055" lon="12.4322869"><ele>750.3333333333334</ele><time>2026-03-29T08:05:22.126Z</time></trkpt><trkpt lat="43.8722178" lon="12.4322871"><ele>750.5</ele><time>2026-03-29T08:05:23.139Z</time></trkpt><trkpt lat="43.8721334" lon="12.432285"><ele>750.6666666666667</ele><time>2026-03-29T08:05:24.122Z</time></trkpt><trkpt lat="43.8720491" lon="12.4322823"><ele>750.8333333333334</ele><time>2026-03-29T08:05:25.116Z</time></trkpt><trkpt lat="43.8719683" lon="12.4322617"><ele>751.0</ele><time>2026-03-29T08:05:26.124Z</time></trkpt><trkpt lat="43.8718882" lon="12.4322182"><ele>751.0</ele><time>2026-03-29T08:05:27.105Z</time></trkpt><trkpt lat="43.8717989" lon="12.4321717"><ele>751.0</ele><time>2026-03-29T08:05:28.102Z</time></trkpt><trkpt lat="43.8716985" lon="12.4321218"><ele>751.0</ele><time>2026-03-29T08:05:29.109Z</time></trkpt><trkpt lat="43.8716142" lon="12.4320514"><ele>751.0</ele><time>2026-03-29T08:05:30.1Z</time></trkpt><trkpt lat="43.8715549" lon="12.4319514"><ele>751.0</ele><time>2026-03-29T08:05:31.135Z</time></trkpt><trkpt lat="43.8715196" lon="12.4318006"><ele>747.8</ele><time>2026-03-29T08:05:32.07Z</time></trkpt><trkpt lat="43.8714952" lon="12.4316574"><ele>744.5999999999999</ele><time>2026-03-29T08:05:33.106Z</time></trkpt><trkpt lat="43.8714894" lon="12.4315053"><ele>741.4</ele><time>2026-03-29T08:05:34.107Z</time></trkpt><trkpt lat="43.8714956" lon="12.4313587"><ele>738.2</ele><time>2026-03-29T08:05:35.061Z</time></trkpt><trkpt lat="43.8714983" lon="12.4312125"><ele>735.0</ele><time>2026-03-29T08:05:36.087Z</time></trkpt><trkpt lat="43.8714841" lon="12.431077"><ele>733.4</ele><time>2026-03-29T08:05:37.114Z</time></trkpt><trkpt lat="43.8714287" lon="12.4309469"><ele>731.8</ele><time>2026-03-29T08:05:38.114Z</time></trkpt><trkpt lat="43.8713584" lon="12.4308227"><ele>730.2</ele><time>2026-03-29T08:05:39.122Z</time></trkpt><trkpt lat="43.8712858" lon="12.4307045"><ele>728.6</ele><time>2026-03-29T08:05:40.092Z</time></trkpt><trkpt lat="43.8712252" lon="12.4305777"><ele>727.0</ele><time>2026-03-29T08:05:41.127Z</time></trkpt><trkpt lat="43.8711666" lon="12.4304618"><ele>726.5</ele><time>2026-03-29T08:05:42.135Z</time></trkpt><trkpt lat="43.8711134" lon="12.4303433"><ele>726.0</ele><time>2026-03-29T08:05:43.137Z</time></trkpt><trkpt lat="43.8710906" lon="12.430225"><ele>725.5</ele><time>2026-03-29T08:05:44.132Z</time></trkpt><trkpt lat="43.8710928" lon="12.4301065"><ele>725.0</ele><time>2026-03-29T08:05:45.148Z</time></trkpt><trkpt lat="43.8711024" lon="12.4299912"><ele>724.5</ele><time>2026-03-29T08:05:46.127Z</time></trkpt><trkpt lat="43.8711245" lon="12.4298765"><ele>724.0</ele><time>2026-03-29T08:05:47.098Z</time></trkpt><trkpt lat="43.8711522" lon="12.4297623"><ele>724.0</ele><time>2026-03-29T08:05:48.113Z</time></trkpt><trkpt lat="43.8711749" lon="12.4296565"><ele>724.0</ele><time>2026-03-29T08:05:49.118Z</time></trkpt><trkpt lat="43.8711944" lon="12.429558"><ele>724.0</ele><time>2026-03-29T08:05:50.122Z</time></trkpt><trkpt lat="43.8712179" lon="12.4294469"><ele>724.0</ele><time>2026-03-29T08:05:51.111Z</time></trkpt><trkpt lat="43.8712398" lon="12.4293341"><ele>724.0</ele><time>2026-03-29T08:05:52.143Z</time></trkpt><trkpt lat="43.8712606" lon="12.4292302"><ele>724.0</ele><time>2026-03-29T08:05:53.133Z</time></trkpt><trkpt lat="43.8712679" lon="12.4291088"><ele>722.8000000000001</ele><time>2026-03-29T08:05:54.128Z</time></trkpt><trkpt lat="43.8712539" lon="12.4289657"><ele>721.6</ele><time>2026-03-29T08:05:55.097Z</time></trkpt><trkpt lat="43.8712336" lon="12.4288361"><ele>720.4</ele><time>2026-03-29T08:05:56.144Z</time></trkpt><trkpt lat="43.8711954" lon="12.4287054"><ele>719.2</ele><time>2026-03-29T08:05:57.13Z</time></trkpt><trkpt lat="43.8711623" lon="12.4285799"><ele>718.0</ele><time>2026-03-29T08:05:58.12Z</time></trkpt><trkpt lat="43.8711291" lon="12.4284575"><ele>716.3333333333334</ele><time>2026-03-29T08:05:59.11Z</time></trkpt><trkpt lat="43.8711142" lon="12.4283378"><ele>714.6666666666667</ele><time>2026-03-29T08:06:00.141Z</time></trkpt><trkpt lat="43.8711087" lon="12.4282467"><ele>713.0</ele><time>2026-03-29T08:06:01.121Z</time></trkpt><trkpt lat="43.8711666" lon="12.428211"><ele>711.3333333333334</ele><time>2026-03-29T08:06:03.117Z</time></trkpt><trkpt lat="43.8712114" lon="12.4282813"><ele>709.6666666666666</ele><time>2026-03-29T08:06:04.075Z</time></trkpt><trkpt lat="43.8712593" lon="12.4283701"><ele>708.0</ele><time>2026-03-29T08:06:05.12Z</time></trkpt><trkpt lat="43.8713189" lon="12.4284745"><ele>708.0</ele><time>2026-03-29T08:06:06.073Z</time></trkpt><trkpt lat="43.8714" lon="12.4285578"><ele>708.0</ele><time>2026-03-29T08:06:07.102Z</time></trkpt><trkpt lat="43.8714864" lon="12.4286144"><ele>708.0</ele><time>2026-03-29T08:06:08.118Z</time></trkpt><trkpt lat="43.8715759" lon="12.4286583"><ele>708.0</ele><time>2026-03-29T08:06:09.123Z</time></trkpt><trkpt lat="43.8716678" lon="12.4286703"><ele>708.0</ele><time>2026-03-29T08:06:10.111Z</time></trkpt><trkpt lat="43.8717547" lon="12.4286495"><ele>705.4</ele><time>2026-03-29T08:06:11.114Z</time></trkpt><trkpt lat="43.8718441" lon="12.4285663"><ele>702.8</ele><time>2026-03-29T08:06:12.137Z</time></trkpt><trkpt lat="43.8719401" lon="12.4284828"><ele>700.2</ele><time>2026-03-29T08:06:13.114Z</time></trkpt><trkpt lat="43.8720289" lon="12.42838"><ele>697.6</ele><time>2026-03-29T08:06:14.104Z</time></trkpt><trkpt lat="43.8721211" lon="12.4282909"><ele>695.0</ele><time>2026-03-29T08:06:15.111Z</time></trkpt><trkpt lat="43.8722222" lon="12.4282115"><ele>695.0</ele><time>2026-03-29T08:06:16.128Z</time></trkpt><trkpt lat="43.8723229" lon="12.4281281"><ele>695.0</ele><time>2026-03-29T08:06:17.143Z</time></trkpt><trkpt lat="43.8724292" lon="12.428041"><ele>695.0</ele><time>2026-03-29T08:06:18.133Z</time></trkpt><trkpt lat="43.8725448" lon="12.4279596"><ele>695.0</ele><time>2026-03-29T08:06:19.132Z</time></trkpt><trkpt lat="43.8726612" lon="12.4278852"><ele>690.0</ele><time>2026-03-29T08:06:20.082Z</time></trkpt><trkpt lat="43.8727842" lon="12.427817"><ele>685.0</ele><time>2026-03-29T08:06:21.086Z</time></trkpt><trkpt lat="43.87291" lon="12.4277374"><ele>680.0</ele><time>2026-03-29T08:06:22.139Z</time></trkpt><trkpt lat="43.8730504" lon="12.4277031"><ele>675.0</ele><time>2026-03-29T08:06:23.114Z</time></trkpt><trkpt lat="43.8731982" lon="12.4276753"><ele>675.0</ele><time>2026-03-29T08:06:24.139Z</time></trkpt><trkpt lat="43.8733413" lon="12.427655"><ele>675.0</ele><time>2026-03-29T08:06:25.132Z</time></trkpt><trkpt lat="43.8734875" lon="12.4276445"><ele>675.0</ele><time>2026-03-29T08:06:26.119Z</time></trkpt><trkpt lat="43.8736344" lon="12.4276453"><ele>675.0</ele><time>2026-03-29T08:06:27.125Z</time></trkpt><trkpt lat="43.8737685" lon="12.4276533"><ele>673.5</ele><time>2026-03-29T08:06:28.116Z</time></trkpt><trkpt lat="43.8738911" lon="12.4276848"><ele>672.0</ele><time>2026-03-29T08:06:29.101Z</time></trkpt><trkpt lat="43.8739991" lon="12.4277444"><ele>670.5</ele><time>2026-03-29T08:06:30.11Z</time></trkpt><trkpt lat="43.8741022" lon="12.4278218"><ele>669.0</ele><time>2026-03-29T08:06:31.117Z</time></trkpt><trkpt lat="43.8741934" lon="12.4278961"><ele>667.4000000000001</ele><time>2026-03-29T08:06:32.079Z</time></trkpt><trkpt lat="43.8742927" lon="12.4279321"><ele>665.8</ele><time>2026-03-29T08:06:33.102Z</time></trkpt><trkpt lat="43.8743892" lon="12.4279388"><ele>664.2</ele><time>2026-03-29T08:06:34.115Z</time></trkpt><trkpt lat="43.8744861" lon="12.4279061"><ele>662.5999999999999</ele><time>2026-03-29T08:06:35.12Z</time></trkpt><trkpt lat="43.874582" lon="12.4278538"><ele>661.0</ele><time>2026-03-29T08:06:36.127Z</time></trkpt><trkpt lat="43.874676" lon="12.4278047"><ele>661.0</ele><time>2026-03-29T08:06:37.13Z</time></trkpt><trkpt lat="43.8747637" lon="12.4277472"><ele>661.0</ele><time>2026-03-29T08:06:38.113Z</time></trkpt><trkpt lat="43.8748656" lon="12.4277074"><ele>661.0</ele><time>2026-03-29T08:06:39.11Z</time></trkpt><trkpt lat="43.8749713" lon="12.427685"><ele>661.0</ele><time>2026-03-29T08:06:40.126Z</time></trkpt><trkpt lat="43.8750788" lon="12.42767"><ele>661.0</ele><time>2026-03-29T08:06:41.118Z</time></trkpt><trkpt lat="43.8751816" lon="12.4276617"><ele>660.8</ele><time>2026-03-29T08:06:42.115Z</time></trkpt><trkpt lat="43.8752927" lon="12.4276395"><ele>660.5999999999999</ele><time>2026-03-29T08:06:43.126Z</time></trkpt><trkpt lat="43.8754098" lon="12.4276281"><ele>660.4</ele><time>2026-03-29T08:06:44.113Z</time></trkpt><trkpt lat="43.8755225" lon="12.427606"><ele>660.2</ele><time>2026-03-29T08:06:45.126Z</time></trkpt><trkpt lat="43.8756227" lon="12.4276027"><ele>660.0</ele><time>2026-03-29T08:06:46.121Z</time></trkpt><trkpt lat="43.8757231" lon="12.4276146"><ele>660.0</ele><time>2026-03-29T08:06:47.128Z</time></trkpt><trkpt lat="43.8758153" lon="12.4276487"><ele>660.0</ele><time>2026-03-29T08:06:48.118Z</time></trkpt><trkpt lat="43.875887" lon="12.4277116"><ele>660.0</ele><time>2026-03-29T08:06:49.105Z</time></trkpt><trkpt lat="43.8759381" lon="12.4278096"><ele>660.0</ele><time>2026-03-29T08:06:50.119Z</time></trkpt><trkpt lat="43.8759769" lon="12.4278946"><ele>660.0</ele><time>2026-03-29T08:06:51.135Z</time></trkpt><trkpt lat="43.8759891" lon="12.4279998"><ele>660.0</ele><time>2026-03-29T08:06:52.098Z</time></trkpt><trkpt lat="43.8760052" lon="12.4280902"><ele>659.6</ele><time>2026-03-29T08:06:53.12Z</time></trkpt><trkpt lat="43.8760104" lon="12.4281811"><ele>659.2</ele><time>2026-03-29T08:06:54.108Z</time></trkpt><trkpt lat="43.8760164" lon="12.4282704"><ele>658.8</ele><time>2026-03-29T08:06:55.124Z</time></trkpt><trkpt lat="43.8760349" lon="12.4284289"><ele>658.4</ele><time>2026-03-29T08:06:57.127Z</time></trkpt><trkpt lat="43.87606" lon="12.4285783"><ele>658.0</ele><time>2026-03-29T08:06:59.117Z</time></trkpt><trkpt lat="43.8760833" lon="12.4287118"><ele>659.5999999999999</ele><time>2026-03-29T08:07:01.132Z</time></trkpt><trkpt lat="43.8760942" lon="12.4288432"><ele>661.1999999999999</ele><time>2026-03-29T08:07:03.132Z</time></trkpt><trkpt lat="43.8761087" lon="12.4289493"><ele>662.8</ele><time>2026-03-29T08:07:05.121Z</time></trkpt><trkpt lat="43.8761377" lon="12.4290662"><ele>664.4</ele><time>2026-03-29T08:07:07.078Z</time></trkpt><trkpt lat="43.8761788" lon="12.4291858"><ele>666.0</ele><time>2026-03-29T08:07:09.07Z</time></trkpt><trkpt lat="43.8762385" lon="12.4293086"><ele>666.0</ele><time>2026-03-29T08:07:11.084Z</time></trkpt><trkpt lat="43.8763133" lon="12.4294135"><ele>666.0</ele><time>2026-03-29T08:07:13.069Z</time></trkpt><trkpt lat="43.8763939" lon="12.4295205"><ele>666.0</ele><time>2026-03-29T08:07:15.125Z</time></trkpt><trkpt lat="43.8764811" lon="12.429623"><ele>666.0</ele><time>2026-03-29T08:07:17.082Z</time></trkpt><trkpt lat="43.8765607" lon="12.4297206"><ele>666.0</ele><time>2026-03-29T08:07:19.133Z</time></trkpt><trkpt lat="43.876665" lon="12.4297877"><ele>666.1666666666666</ele><time>2026-03-29T08:07:21.131Z</time></trkpt><trkpt lat="43.8767438" lon="12.4297958"><ele>666.3333333333334</ele><time>2026-03-29T08:07:22.131Z</time></trkpt><trkpt lat="43.8768082" lon="12.42976"><ele>666.5</ele><time>2026-03-29T08:07:23.116Z</time></trkpt><trkpt lat="43.8768792" lon="12.4296939"><ele>666.6666666666667</ele><time>2026-03-29T08:07:24.124Z</time></trkpt><trkpt lat="43.8769271" lon="12.4296276"><ele>666.8333333333334</ele><time>2026-03-29T08:07:25.108Z</time></trkpt><trkpt lat="43.876974" lon="12.4295501"><ele>667.0</ele><time>2026-03-29T08:07:26.14Z</time></trkpt><trkpt lat="43.8770193" lon="12.4294603"><ele>666.0</ele><time>2026-03-29T08:07:27.127Z</time></trkpt><trkpt lat="43.8770602" lon="12.4293717"><ele>665.0</ele><time>2026-03-29T08:07:28.132Z</time></trkpt><trkpt lat="43.8771021" lon="12.429278"><ele>664.0</ele><time>2026-03-29T08:07:29.122Z</time></trkpt><trkpt lat="43.8771521" lon="12.4291922"><ele>663.0</ele><time>2026-03-29T08:07:30.124Z</time></trkpt><trkpt lat="43.8772126" lon="12.4291044"><ele>662.0</ele><time>2026-03-29T08:07:31.126Z</time></trkpt><trkpt lat="43.8772796" lon="12.4290332"><ele>661.0</ele><time>2026-03-29T08:07:32.13Z</time></trkpt><trkpt lat="43.877362" lon="12.4289549"><ele>661.0</ele><time>2026-03-29T08:07:33.122Z</time></trkpt><trkpt lat="43.8774493" lon="12.4288779"><ele>661.0</ele><time>2026-03-29T08:07:34.139Z</time></trkpt><trkpt lat="43.877543" lon="12.4287986"><ele>661.0</ele><time>2026-03-29T08:07:35.11Z</time></trkpt><trkpt lat="43.8776345" lon="12.4287166"><ele>661.0</ele><time>2026-03-29T08:07:36.148Z</time></trkpt><trkpt lat="43.8777401" lon="12.428639"><ele>661.0</ele><time>2026-03-29T08:07:37.128Z</time></trkpt><trkpt lat="43.8778431" lon="12.428557"><ele>656.75</ele><time>2026-03-29T08:07:38.085Z</time></trkpt><trkpt lat="43.8779501" lon="12.4284743"><ele>652.5</ele><time>2026-03-29T08:07:39.097Z</time></trkpt><trkpt lat="43.8780637" lon="12.4283913"><ele>648.25</ele><time>2026-03-29T08:07:40.107Z</time></trkpt><trkpt lat="43.8781816" lon="12.4283082"><ele>644.0</ele><time>2026-03-29T08:07:41.153Z</time></trkpt><trkpt lat="43.8782944" lon="12.428222"><ele>644.0</ele><time>2026-03-29T08:07:42.123Z</time></trkpt><trkpt lat="43.8784055" lon="12.4281399"><ele>644.0</ele><time>2026-03-29T08:07:43.121Z</time></trkpt><trkpt lat="43.8785235" lon="12.4280569"><ele>644.0</ele><time>2026-03-29T08:07:44.12Z</time></trkpt><trkpt lat="43.878638" lon="12.4279774"><ele>644.0</ele><time>2026-03-29T08:07:45.129Z</time></trkpt><trkpt lat="43.8787395" lon="12.427912"><ele>644.0</ele><time>2026-03-29T08:07:46.121Z</time></trkpt><trkpt lat="43.878841" lon="12.4278293"><ele>644.0</ele><time>2026-03-29T08:07:47.143Z</time></trkpt><trkpt lat="43.8789391" lon="12.4277348"><ele>644.0</ele><time>2026-03-29T08:07:48.133Z</time></trkpt><trkpt lat="43.879029" lon="12.4276271"><ele>644.0</ele><time>2026-03-29T08:07:49.146Z</time></trkpt><trkpt lat="43.8791005" lon="12.4275127"><ele>644.0</ele><time>2026-03-29T08:07:50.142Z</time></trkpt><trkpt lat="43.8791685" lon="12.4273968"><ele>644.0</ele><time>2026-03-29T08:07:51.146Z</time></trkpt><trkpt lat="43.8792251" lon="12.4272821"><ele>644.0</ele><time>2026-03-29T08:07:52.133Z</time></trkpt><trkpt lat="43.8792825" lon="12.4271635"><ele>644.0</ele><time>2026-03-29T08:07:53.128Z</time></trkpt><trkpt lat="43.8793424" lon="12.4270472"><ele>644.0</ele><time>2026-03-29T08:07:54.128Z</time></trkpt><trkpt lat="43.879403" lon="12.4269398"><ele>642.6</ele><time>2026-03-29T08:07:55.137Z</time></trkpt><trkpt lat="43.879463" lon="12.4268273"><ele>641.2</ele><time>2026-03-29T08:07:56.143Z</time></trkpt><trkpt lat="43.8795243" lon="12.4267182"><ele>639.8000000000001</ele><time>2026-03-29T08:07:57.131Z</time></trkpt><trkpt lat="43.8795835" lon="12.4266025"><ele>638.4000000000001</ele><time>2026-03-29T08:07:58.129Z</time></trkpt><trkpt lat="43.8796283" lon="12.4264838"><ele>637.0</ele><time>2026-03-29T08:07:59.117Z</time></trkpt><trkpt lat="43.8796545" lon="12.4263522"><ele>637.0</ele><time>2026-03-29T08:08:00.144Z</time></trkpt><trkpt lat="43.8796632" lon="12.4262227"><ele>637.0</ele><time>2026-03-29T08:08:01.134Z</time></trkpt><trkpt lat="43.8796639" lon="12.4260829"><ele>637.0</ele><time>2026-03-29T08:08:02.111Z</time></trkpt><trkpt lat="43.8796587" lon="12.4259481"><ele>637.0</ele><time>2026-03-29T08:08:03.114Z</time></trkpt><trkpt lat="43.8796523" lon="12.4258071"><ele>637.0</ele><time>2026-03-29T08:08:04.132Z</time></trkpt><trkpt lat="43.8796477" lon="12.4256701"><ele>637.0</ele><time>2026-03-29T08:08:05.134Z</time></trkpt><trkpt lat="43.879644" lon="12.4255439"><ele>637.0</ele><time>2026-03-29T08:08:06.127Z</time></trkpt><trkpt lat="43.8796654" lon="12.4254128"><ele>637.0</ele><time>2026-03-29T08:08:07.133Z</time></trkpt><trkpt lat="43.8797039" lon="12.4252862"><ele>637.0</ele><time>2026-03-29T08:08:08.121Z</time></trkpt><trkpt lat="43.8797687" lon="12.4251841"><ele>637.0</ele><time>2026-03-29T08:08:09.098Z</time></trkpt><trkpt lat="43.8798472" lon="12.4250974"><ele>637.2</ele><time>2026-03-29T08:08:10.115Z</time></trkpt><trkpt lat="43.8799394" lon="12.4250352"><ele>637.4000000000001</ele><time>2026-03-29T08:08:11.113Z</time></trkpt><trkpt lat="43.8800274" lon="12.4249831"><ele>637.5999999999999</ele><time>2026-03-29T08:08:12.111Z</time></trkpt><trkpt lat="43.8801181" lon="12.424937"><ele>637.8</ele><time>2026-03-29T08:08:13.111Z</time></trkpt><trkpt lat="43.8802103" lon="12.4248911"><ele>638.0</ele><time>2026-03-29T08:08:14.111Z</time></trkpt><trkpt lat="43.8803032" lon="12.4248466"><ele>636.4</ele><time>2026-03-29T08:08:15.136Z</time></trkpt><trkpt lat="43.8803934" lon="12.4247949"><ele>634.8</ele><time>2026-03-29T08:08:16.129Z</time></trkpt><trkpt lat="43.8804807" lon="12.4247398"><ele>633.2</ele><time>2026-03-29T08:08:17.138Z</time></trkpt><trkpt lat="43.8805759" lon="12.4246941"><ele>631.6</ele><time>2026-03-29T08:08:18.139Z</time></trkpt><trkpt lat="43.8806674" lon="12.4246382"><ele>630.0</ele><time>2026-03-29T08:08:19.084Z</time></trkpt><trkpt lat="43.8807649" lon="12.4245909"><ele>630.0</ele><time>2026-03-29T08:08:20.141Z</time></trkpt><trkpt lat="43.8808605" lon="12.4245427"><ele>630.0</ele><time>2026-03-29T08:08:21.126Z</time></trkpt><trkpt lat="43.8809557" lon="12.4244947"><ele>630.0</ele><time>2026-03-29T08:08:22.145Z</time></trkpt><trkpt lat="43.8810578" lon="12.4244494"><ele>630.0</ele><time>2026-03-29T08:08:23.121Z</time></trkpt><trkpt lat="43.8811563" lon="12.4244024"><ele>630.0</ele><time>2026-03-29T08:08:24.137Z</time></trkpt><trkpt lat="43.8812557" lon="12.4243553"><ele>628.2</ele><time>2026-03-29T08:08:25.137Z</time></trkpt><trkpt lat="43.8813577" lon="12.4243062"><ele>626.4</ele><time>2026-03-29T08:08:26.138Z</time></trkpt><trkpt lat="43.881461" lon="12.4242496"><ele>624.6</ele><time>2026-03-29T08:08:27.122Z</time></trkpt><trkpt lat="43.8815677" lon="12.424203"><ele>622.8</ele><time>2026-03-29T08:08:28.13Z</time></trkpt><trkpt lat="43.8816739" lon="12.4241517"><ele>621.0</ele><time>2026-03-29T08:08:29.128Z</time></trkpt><trkpt lat="43.8817838" lon="12.4240891"><ele>617.5</ele><time>2026-03-29T08:08:30.125Z</time></trkpt><trkpt lat="43.8818935" lon="12.4240322"><ele>614.0</ele><time>2026-03-29T08:08:31.121Z</time></trkpt><trkpt lat="43.8820108" lon="12.4239744"><ele>610.5</ele><time>2026-03-29T08:08:32.103Z</time></trkpt><trkpt lat="43.8821255" lon="12.4239129"><ele>607.0</ele><time>2026-03-29T08:08:33.127Z</time></trkpt><trkpt lat="43.8822421" lon="12.4238404"><ele>606.75</ele><time>2026-03-29T08:08:34.134Z</time></trkpt><trkpt lat="43.8823585" lon="12.4237651"><ele>606.5</ele><time>2026-03-29T08:08:35.122Z</time></trkpt><trkpt lat="43.8824794" lon="12.4236785"><ele>606.25</ele><time>2026-03-29T08:08:36.133Z</time></trkpt><trkpt lat="43.8825953" lon="12.4235788"><ele>606.0</ele><time>2026-03-29T08:08:37.139Z</time></trkpt><trkpt lat="43.8827092" lon="12.4234602"><ele>601.5</ele><time>2026-03-29T08:08:38.134Z</time></trkpt><trkpt lat="43.8828129" lon="12.4233205"><ele>597.0</ele><time>2026-03-29T08:08:39.118Z</time></trkpt><trkpt lat="43.8829088" lon="12.4231709"><ele>592.5</ele><time>2026-03-29T08:08:40.129Z</time></trkpt><trkpt lat="43.8830066" lon="12.4230143"><ele>588.0</ele><time>2026-03-29T08:08:41.127Z</time></trkpt><trkpt lat="43.8831272" lon="12.4228776"><ele>586.6666666666666</ele><time>2026-03-29T08:08:42.072Z</time></trkpt><trkpt lat="43.8832602" lon="12.4227596"><ele>585.3333333333333</ele><time>2026-03-29T08:08:43.12Z</time></trkpt><trkpt lat="43.8834065" lon="12.4226635"><ele>584.0</ele><time>2026-03-29T08:08:44.121Z</time></trkpt><trkpt lat="43.8835511" lon="12.4225894"><ele>581.6666666666666</ele><time>2026-03-29T08:08:45.125Z</time></trkpt><trkpt lat="43.8837055" lon="12.4225395"><ele>579.3333333333334</ele><time>2026-03-29T08:08:46.142Z</time></trkpt><trkpt lat="43.8838556" lon="12.4225034"><ele>577.0</ele><time>2026-03-29T08:08:47.142Z</time></trkpt><trkpt lat="43.8840023" lon="12.4224614"><ele>577.0</ele><time>2026-03-29T08:08:48.133Z</time></trkpt><trkpt lat="43.8841489" lon="12.4224204"><ele>577.0</ele><time>2026-03-29T08:08:49.138Z</time></trkpt><trkpt lat="43.8842849" lon="12.4223814"><ele>577.0</ele><time>2026-03-29T08:08:50.133Z</time></trkpt><trkpt lat="43.8844245" lon="12.4223505"><ele>577.0</ele><time>2026-03-29T08:08:51.14Z</time></trkpt><trkpt lat="43.8845604" lon="12.4223326"><ele>575.5</ele><time>2026-03-29T08:08:52.142Z</time></trkpt><trkpt lat="43.8846957" lon="12.4223304"><ele>574.0</ele><time>2026-03-29T08:08:53.132Z</time></trkpt><trkpt lat="43.8848255" lon="12.4223268"><ele>572.5</ele><time>2026-03-29T08:08:54.136Z</time></trkpt><trkpt lat="43.8849524" lon="12.4223143"><ele>571.0</ele><time>2026-03-29T08:08:55.15Z</time></trkpt><trkpt lat="43.8850798" lon="12.4222881"><ele>570.0</ele><time>2026-03-29T08:08:56.129Z</time></trkpt><trkpt lat="43.8852049" lon="12.4222572"><ele>569.0</ele><time>2026-03-29T08:08:57.14Z</time></trkpt><trkpt lat="43.885327" lon="12.4222159"><ele>568.0</ele><time>2026-03-29T08:08:58.142Z</time></trkpt><trkpt lat="43.8854505" lon="12.422179"><ele>567.0</ele><time>2026-03-29T08:08:59.129Z</time></trkpt><trkpt lat="43.885573" lon="12.4221451"><ele>567.0</ele><time>2026-03-29T08:09:00.142Z</time></trkpt><trkpt lat="43.8856931" lon="12.4221047"><ele>567.0</ele><time>2026-03-29T08:09:01.137Z</time></trkpt><trkpt lat="43.8858112" lon="12.4220683"><ele>567.0</ele><time>2026-03-29T08:09:02.132Z</time></trkpt><trkpt lat="43.8859304" lon="12.42203"><ele>567.0</ele><time>2026-03-29T08:09:03.123Z</time></trkpt><trkpt lat="43.8860557" lon="12.421996"><ele>564.5</ele><time>2026-03-29T08:09:04.142Z</time></trkpt><trkpt lat="43.8861826" lon="12.4219555"><ele>562.0</ele><time>2026-03-29T08:09:05.129Z</time></trkpt><trkpt lat="43.886306" lon="12.4219165"><ele>559.5</ele><time>2026-03-29T08:09:06.09Z</time></trkpt><trkpt lat="43.8864326" lon="12.4218756"><ele>557.0</ele><time>2026-03-29T08:09:07.121Z</time></trkpt><trkpt lat="43.8865593" lon="12.4218357"><ele>557.0</ele><time>2026-03-29T08:09:08.131Z</time></trkpt><trkpt lat="43.8866862" lon="12.4217984"><ele>557.0</ele><time>2026-03-29T08:09:09.129Z</time></trkpt><trkpt lat="43.8868128" lon="12.4217642"><ele>557.0</ele><time>2026-03-29T08:09:10.113Z</time></trkpt><trkpt lat="43.8869374" lon="12.4217271"><ele>557.0</ele><time>2026-03-29T08:09:11.11Z</time></trkpt><trkpt lat="43.8870681" lon="12.4216871"><ele>556.0</ele><time>2026-03-29T08:09:12.123Z</time></trkpt><trkpt lat="43.8871904" lon="12.4216573"><ele>555.0</ele><time>2026-03-29T08:09:13.106Z</time></trkpt><trkpt lat="43.8873076" lon="12.4216248"><ele>554.0</ele><time>2026-03-29T08:09:14.15Z</time></trkpt><trkpt lat="43.8874183" lon="12.421593"><ele>553.0</ele><time>2026-03-29T08:09:15.106Z</time></trkpt><trkpt lat="43.8875311" lon="12.4215637"><ele>553.8</ele><time>2026-03-29T08:09:16.132Z</time></trkpt><trkpt lat="43.8876414" lon="12.4215318"><ele>554.5999999999999</ele><time>2026-03-29T08:09:17.127Z</time></trkpt><trkpt lat="43.88775" lon="12.4214938"><ele>555.4000000000001</ele><time>2026-03-29T08:09:18.131Z</time></trkpt><trkpt lat="43.8878559" lon="12.4214564"><ele>556.2</ele><time>2026-03-29T08:09:19.147Z</time></trkpt><trkpt lat="43.88795" lon="12.4214149"><ele>557.0</ele><time>2026-03-29T08:09:20.143Z</time></trkpt><trkpt lat="43.888045" lon="12.4213822"><ele>557.0</ele><time>2026-03-29T08:09:21.132Z</time></trkpt><trkpt lat="43.8881408" lon="12.4213622"><ele>557.0</ele><time>2026-03-29T08:09:22.12Z</time></trkpt><trkpt lat="43.8882338" lon="12.4213423"><ele>557.0</ele><time>2026-03-29T08:09:23.144Z</time></trkpt><trkpt lat="43.8883209" lon="12.4213104"><ele>557.0</ele><time>2026-03-29T08:09:24.132Z</time></trkpt><trkpt lat="43.8884125" lon="12.421283"><ele>557.0</ele><time>2026-03-29T08:09:25.12Z</time></trkpt><trkpt lat="43.8885026" lon="12.4212626"><ele>556.0</ele><time>2026-03-29T08:09:26.134Z</time></trkpt><trkpt lat="43.8885911" lon="12.421238"><ele>555.0</ele><time>2026-03-29T08:09:27.126Z</time></trkpt><trkpt lat="43.8886773" lon="12.4212185"><ele>554.0</ele><time>2026-03-29T08:09:28.12Z</time></trkpt><trkpt lat="43.8887624" lon="12.4211873"><ele>553.0</ele><time>2026-03-29T08:09:29.135Z</time></trkpt><trkpt lat="43.8888494" lon="12.4211597"><ele>552.0</ele><time>2026-03-29T08:09:30.137Z</time></trkpt><trkpt lat="43.8889376" lon="12.4211398"><ele>551.0</ele><time>2026-03-29T08:09:31.126Z</time></trkpt><trkpt lat="43.8890186" lon="12.4211124"><ele>551.0</ele><time>2026-03-29T08:09:32.149Z</time></trkpt><trkpt lat="43.8891022" lon="12.4210801"><ele>551.0</ele><time>2026-03-29T08:09:33.133Z</time></trkpt><trkpt lat="43.8891843" lon="12.4210615"><ele>551.0</ele><time>2026-03-29T08:09:34.105Z</time></trkpt><trkpt lat="43.8892657" lon="12.4210371"><ele>551.0</ele><time>2026-03-29T08:09:35.134Z</time></trkpt><trkpt lat="43.8893428" lon="12.4210069"><ele>551.0</ele><time>2026-03-29T08:09:36.132Z</time></trkpt><trkpt lat="43.8894258" lon="12.4209716"><ele>551.0</ele><time>2026-03-29T08:09:37.138Z</time></trkpt><trkpt lat="43.8895013" lon="12.4209455"><ele>550.6666666666666</ele><time>2026-03-29T08:09:38.121Z</time></trkpt><trkpt lat="43.8895819" lon="12.4209086"><ele>550.3333333333333</ele><time>2026-03-29T08:09:39.143Z</time></trkpt><trkpt lat="43.8896572" lon="12.4208574"><ele>550.0</ele><time>2026-03-29T08:09:40.148Z</time></trkpt><trkpt lat="43.8897269" lon="12.4207937"><ele>549.6666666666666</ele><time>2026-03-29T08:09:41.092Z</time></trkpt><trkpt lat="43.8898051" lon="12.4207228"><ele>549.3333333333334</ele><time>2026-03-29T08:09:42.127Z</time></trkpt><trkpt lat="43.889879" lon="12.4206557"><ele>549.0</ele><time>2026-03-29T08:09:43.075Z</time></trkpt><trkpt lat="43.8899551" lon="12.4205835"><ele>549.0</ele><time>2026-03-29T08:09:44.116Z</time></trkpt><trkpt lat="43.8900268" lon="12.4205106"><ele>549.0</ele><time>2026-03-29T08:09:45.112Z</time></trkpt><trkpt lat="43.8901028" lon="12.4204402"><ele>549.0</ele><time>2026-03-29T08:09:46.134Z</time></trkpt><trkpt lat="43.8901792" lon="12.420362"><ele>549.0</ele><time>2026-03-29T08:09:47.112Z</time></trkpt><trkpt lat="43.8902589" lon="12.4202819"><ele>549.0</ele><time>2026-03-29T08:09:48.126Z</time></trkpt><trkpt lat="43.8903404" lon="12.420201"><ele>547.8</ele><time>2026-03-29T08:09:49.124Z</time></trkpt><trkpt lat="43.8904252" lon="12.4201188"><ele>546.5999999999999</ele><time>2026-03-29T08:09:50.124Z</time></trkpt><trkpt lat="43.8905062" lon="12.4200342"><ele>545.4</ele><time>2026-03-29T08:09:51.127Z</time></trkpt><trkpt lat="43.8905853" lon="12.4199553"><ele>544.1999999999999</ele><time>2026-03-29T08:09:52.139Z</time></trkpt><trkpt lat="43.8906645" lon="12.4198817"><ele>543.0</ele><time>2026-03-29T08:09:53.061Z</time></trkpt><trkpt lat="43.8907429" lon="12.4198126"><ele>543.0</ele><time>2026-03-29T08:09:54.101Z</time></trkpt><trkpt lat="43.8908182" lon="12.4197421"><ele>543.0</ele><time>2026-03-29T08:09:55.11Z</time></trkpt><trkpt lat="43.8908942" lon="12.4196668"><ele>543.0</ele><time>2026-03-29T08:09:56.065Z</time></trkpt><trkpt lat="43.890971" lon="12.4195988"><ele>543.0</ele><time>2026-03-29T08:09:57.128Z</time></trkpt><trkpt lat="43.8910434" lon="12.4195294"><ele>543.0</ele><time>2026-03-29T08:09:58.102Z</time></trkpt><trkpt lat="43.8911134" lon="12.41946"><ele>543.0</ele><time>2026-03-29T08:09:59.071Z</time></trkpt><trkpt lat="43.8911851" lon="12.4193885"><ele>543.5</ele><time>2026-03-29T08:10:00.076Z</time></trkpt><trkpt lat="43.8912572" lon="12.4193179"><ele>544.0</ele><time>2026-03-29T08:10:01.057Z</time></trkpt><trkpt lat="43.8913259" lon="12.4192386"><ele>544.5</ele><time>2026-03-29T08:10:02.069Z</time></trkpt><trkpt lat="43.8913954" lon="12.4191677"><ele>545.0</ele><time>2026-03-29T08:10:03.073Z</time></trkpt><trkpt lat="43.8914612" lon="12.419092"><ele>545.5</ele><time>2026-03-29T08:10:04.065Z</time></trkpt><trkpt lat="43.891521" lon="12.4190391"><ele>546.0</ele><time>2026-03-29T08:10:05.104Z</time></trkpt><trkpt lat="43.8915826" lon="12.4189814"><ele>546.0</ele><time>2026-03-29T08:10:06.091Z</time></trkpt><trkpt lat="43.8916441" lon="12.4189214"><ele>546.0</ele><time>2026-03-29T08:10:07.101Z</time></trkpt><trkpt lat="43.8917058" lon="12.4188644"><ele>546.0</ele><time>2026-03-29T08:10:08.071Z</time></trkpt><trkpt lat="43.891765" lon="12.418799"><ele>546.0</ele><time>2026-03-29T08:10:09.108Z</time></trkpt><trkpt lat="43.8918282" lon="12.4187426"><ele>546.0</ele><time>2026-03-29T08:10:10.132Z</time></trkpt><trkpt lat="43.8918912" lon="12.4186833"><ele>546.0</ele><time>2026-03-29T08:10:11.102Z</time></trkpt><trkpt lat="43.8919426" lon="12.4186278"><ele>546.0</ele><time>2026-03-29T08:10:12.093Z</time></trkpt><trkpt lat="43.8920014" lon="12.4185765"><ele>546.25</ele><time>2026-03-29T08:10:13.082Z</time></trkpt><trkpt lat="43.8921046" lon="12.4184861"><ele>546.5</ele><time>2026-03-29T08:10:15.09Z</time></trkpt><trkpt lat="43.8921957" lon="12.4183883"><ele>546.75</ele><time>2026-03-29T08:10:17.115Z</time></trkpt><trkpt lat="43.8923026" lon="12.4183319"><ele>547.0</ele><time>2026-03-29T08:10:19.126Z</time></trkpt><trkpt lat="43.8924129" lon="12.4182888"><ele>547.0</ele><time>2026-03-29T08:10:21.142Z</time></trkpt><trkpt lat="43.8924752" lon="12.4182709"><ele>547.0</ele><time>2026-03-29T08:10:22.133Z</time></trkpt><trkpt lat="43.8926006" lon="12.4182381"><ele>547.0</ele><time>2026-03-29T08:10:24.133Z</time></trkpt><trkpt lat="43.8926682" lon="12.4182275"><ele>547.0</ele><time>2026-03-29T08:10:25.144Z</time></trkpt><trkpt lat="43.8927423" lon="12.41822"><ele>547.0</ele><time>2026-03-29T08:10:26.101Z</time></trkpt><trkpt lat="43.8928175" lon="12.4182229"><ele>547.0</ele><time>2026-03-29T08:10:27.071Z</time></trkpt><trkpt lat="43.892897" lon="12.4182163"><ele>546.0</ele><time>2026-03-29T08:10:28.119Z</time></trkpt><trkpt lat="43.8929846" lon="12.4182177"><ele>545.0</ele><time>2026-03-29T08:10:29.133Z</time></trkpt><trkpt lat="43.8930787" lon="12.4182074"><ele>544.0</ele><time>2026-03-29T08:10:30.136Z</time></trkpt><trkpt lat="43.8931698" lon="12.4181898"><ele>543.0</ele><time>2026-03-29T08:10:31.144Z</time></trkpt><trkpt lat="43.8932566" lon="12.4181821"><ele>542.0</ele><time>2026-03-29T08:10:32.131Z</time></trkpt><trkpt lat="43.8933455" lon="12.4181596"><ele>542.6666666666666</ele><time>2026-03-29T08:10:33.108Z</time></trkpt><trkpt lat="43.8934341" lon="12.4181364"><ele>543.3333333333333</ele><time>2026-03-29T08:10:34.065Z</time></trkpt><trkpt lat="43.8935166" lon="12.4181084"><ele>544.0</ele><time>2026-03-29T08:10:35.095Z</time></trkpt><trkpt lat="43.8935953" lon="12.4180776"><ele>544.6666666666666</ele><time>2026-03-29T08:10:36.112Z</time></trkpt><trkpt lat="43.8936706" lon="12.4180482"><ele>545.3333333333334</ele><time>2026-03-29T08:10:37.107Z</time></trkpt><trkpt lat="43.8937486" lon="12.418023"><ele>546.0</ele><time>2026-03-29T08:10:38.114Z</time></trkpt><trkpt lat="43.893829" lon="12.4180133"><ele>546.0</ele><time>2026-03-29T08:10:39.097Z</time></trkpt><trkpt lat="43.8939089" lon="12.4179962"><ele>546.0</ele><time>2026-03-29T08:10:40.121Z</time></trkpt><trkpt lat="43.8939856" lon="12.4179891"><ele>546.0</ele><time>2026-03-29T08:10:41.143Z</time></trkpt><trkpt lat="43.894061" lon="12.4179877"><ele>546.0</ele><time>2026-03-29T08:10:42.13Z</time></trkpt><trkpt lat="43.8941282" lon="12.4179797"><ele>546.0</ele><time>2026-03-29T08:10:43.131Z</time></trkpt><trkpt lat="43.8941957" lon="12.4179733"><ele>546.0</ele><time>2026-03-29T08:10:44.104Z</time></trkpt><trkpt lat="43.8942701" lon="12.4179776"><ele>546.0</ele><time>2026-03-29T08:10:45.128Z</time></trkpt><trkpt lat="43.89435" lon="12.4179874"><ele>544.8333333333334</ele><time>2026-03-29T08:10:46.138Z</time></trkpt><trkpt lat="43.8944249" lon="12.4179961"><ele>543.6666666666666</ele><time>2026-03-29T08:10:47.123Z</time></trkpt><trkpt lat="43.894504" lon="12.4180038"><ele>542.5</ele><time>2026-03-29T08:10:48.128Z</time></trkpt><trkpt lat="43.8945859" lon="12.4180257"><ele>541.3333333333333</ele><time>2026-03-29T08:10:49.123Z</time></trkpt><trkpt lat="43.8946638" lon="12.4180546"><ele>540.1666666666666</ele><time>2026-03-29T08:10:50.143Z</time></trkpt><trkpt lat="43.8947347" lon="12.4180929"><ele>539.0</ele><time>2026-03-29T08:10:51.126Z</time></trkpt><trkpt lat="43.8947977" lon="12.4181363"><ele>539.0</ele><time>2026-03-29T08:10:52.113Z</time></trkpt><trkpt lat="43.8948628" lon="12.4181857"><ele>539.0</ele><time>2026-03-29T08:10:53.083Z</time></trkpt><trkpt lat="43.8949306" lon="12.4182312"><ele>539.0</ele><time>2026-03-29T08:10:54.127Z</time></trkpt><trkpt lat="43.8950119" lon="12.4182735"><ele>539.0</ele><time>2026-03-29T08:10:55.115Z</time></trkpt><trkpt lat="43.8950988" lon="12.4183194"><ele>539.0</ele><time>2026-03-29T08:10:56.117Z</time></trkpt><trkpt lat="43.8951885" lon="12.4183499"><ele>539.0</ele><time>2026-03-29T08:10:57.126Z</time></trkpt><trkpt lat="43.8952815" lon="12.418373"><ele>537.4</ele><time>2026-03-29T08:10:58.117Z</time></trkpt><trkpt lat="43.8953703" lon="12.4184019"><ele>535.8</ele><time>2026-03-29T08:10:59.088Z</time></trkpt><trkpt lat="43.8954621" lon="12.4184266"><ele>534.2</ele><time>2026-03-29T08:11:00.142Z</time></trkpt><trkpt lat="43.8955518" lon="12.4184448"><ele>532.6</ele><time>2026-03-29T08:11:01.118Z</time></trkpt><trkpt lat="43.8956353" lon="12.4184443"><ele>531.0</ele><time>2026-03-29T08:11:02.136Z</time></trkpt><trkpt lat="43.8957303" lon="12.4184241"><ele>531.0</ele><time>2026-03-29T08:11:03.117Z</time></trkpt><trkpt lat="43.8958317" lon="12.4184132"><ele>531.0</ele><time>2026-03-29T08:11:04.113Z</time></trkpt><trkpt lat="43.8959315" lon="12.4184219"><ele>531.0</ele><time>2026-03-29T08:11:05.126Z</time></trkpt><trkpt lat="43.8960307" lon="12.4184354"><ele>531.0</ele><time>2026-03-29T08:11:06.138Z</time></trkpt><trkpt lat="43.8961341" lon="12.4184438"><ele>531.0</ele><time>2026-03-29T08:11:07.137Z</time></trkpt><trkpt lat="43.8962402" lon="12.4184477"><ele>530.0</ele><time>2026-03-29T08:11:08.135Z</time></trkpt><trkpt lat="43.896353" lon="12.4184638"><ele>529.0</ele><time>2026-03-29T08:11:09.133Z</time></trkpt><trkpt lat="43.8964573" lon="12.4184842"><ele>528.0</ele><time>2026-03-29T08:11:10.116Z</time></trkpt><trkpt lat="43.8965684" lon="12.4184947"><ele>527.0</ele><time>2026-03-29T08:11:11.139Z</time></trkpt><trkpt lat="43.8966758" lon="12.4184806"><ele>526.0</ele><time>2026-03-29T08:11:12.142Z</time></trkpt><trkpt lat="43.8967764" lon="12.418449"><ele>525.4</ele><time>2026-03-29T08:11:13.126Z</time></trkpt><trkpt lat="43.8968738" lon="12.4184112"><ele>524.8</ele><time>2026-03-29T08:11:14.119Z</time></trkpt><trkpt lat="43.8969662" lon="12.418357"><ele>524.1999999999999</ele><time>2026-03-29T08:11:15.07Z</time></trkpt><trkpt lat="43.8970547" lon="12.4182998"><ele>523.6</ele><time>2026-03-29T08:11:16.092Z</time></trkpt><trkpt lat="43.8971453" lon="12.4182376"><ele>523.0</ele><time>2026-03-29T08:11:17.102Z</time></trkpt><trkpt lat="43.8972342" lon="12.418179"><ele>523.0</ele><time>2026-03-29T08:11:18.087Z</time></trkpt><trkpt lat="43.8973294" lon="12.4181296"><ele>523.0</ele><time>2026-03-29T08:11:19.125Z</time></trkpt><trkpt lat="43.8974193" lon="12.4180706"><ele>523.0</ele><time>2026-03-29T08:11:20.103Z</time></trkpt><trkpt lat="43.8975109" lon="12.418018"><ele>523.0</ele><time>2026-03-29T08:11:21.117Z</time></trkpt><trkpt lat="43.897605" lon="12.417959"><ele>523.0</ele><time>2026-03-29T08:11:22.121Z</time></trkpt><trkpt lat="43.8976951" lon="12.417902"><ele>521.6</ele><time>2026-03-29T08:11:23.109Z</time></trkpt><trkpt lat="43.8977872" lon="12.4178473"><ele>520.1999999999999</ele><time>2026-03-29T08:11:24.123Z</time></trkpt><trkpt lat="43.8978857" lon="12.4178021"><ele>518.8</ele><time>2026-03-29T08:11:25.126Z</time></trkpt><trkpt lat="43.8979793" lon="12.417759"><ele>517.4</ele><time>2026-03-29T08:11:26.105Z</time></trkpt><trkpt lat="43.8980711" lon="12.4177167"><ele>516.0</ele><time>2026-03-29T08:11:27.113Z</time></trkpt><trkpt lat="43.8981675" lon="12.4176737"><ele>516.0</ele><time>2026-03-29T08:11:28.084Z</time></trkpt><trkpt lat="43.8982618" lon="12.4176319"><ele>516.0</ele><time>2026-03-29T08:11:29.12Z</time></trkpt><trkpt lat="43.898353" lon="12.4175891"><ele>516.0</ele><time>2026-03-29T08:11:30.142Z</time></trkpt><trkpt lat="43.898438" lon="12.4175336"><ele>516.0</ele><time>2026-03-29T08:11:31.118Z</time></trkpt><trkpt lat="43.8985291" lon="12.4174612"><ele>516.0</ele><time>2026-03-29T08:11:32.124Z</time></trkpt><trkpt lat="43.8986095" lon="12.4173725"><ele>516.2</ele><time>2026-03-29T08:11:33.114Z</time></trkpt><trkpt lat="43.8986848" lon="12.4172791"><ele>516.4000000000001</ele><time>2026-03-29T08:11:34.15Z</time></trkpt><trkpt lat="43.8987576" lon="12.4171814"><ele>516.6</ele><time>2026-03-29T08:11:35.128Z</time></trkpt><trkpt lat="43.898831" lon="12.4170737"><ele>516.8000000000001</ele><time>2026-03-29T08:11:36.12Z</time></trkpt><trkpt lat="43.8989074" lon="12.4169725"><ele>517.0</ele><time>2026-03-29T08:11:37.136Z</time></trkpt><trkpt lat="43.8989916" lon="12.4168719"><ele>515.4</ele><time>2026-03-29T08:11:38.109Z</time></trkpt><trkpt lat="43.899082" lon="12.4167841"><ele>513.8000000000001</ele><time>2026-03-29T08:11:39.111Z</time></trkpt><trkpt lat="43.8991725" lon="12.4167066"><ele>512.2</ele><time>2026-03-29T08:11:40.118Z</time></trkpt><trkpt lat="43.8992718" lon="12.4166332"><ele>510.6</ele><time>2026-03-29T08:11:41.13Z</time></trkpt><trkpt lat="43.8993688" lon="12.4165629"><ele>509.0</ele><time>2026-03-29T08:11:42.128Z</time></trkpt><trkpt lat="43.8994582" lon="12.4164737"><ele>509.0</ele><time>2026-03-29T08:11:43.106Z</time></trkpt><trkpt lat="43.8995397" lon="12.4163792"><ele>509.0</ele><time>2026-03-29T08:11:44.124Z</time></trkpt><trkpt lat="43.8996147" lon="12.4162785"><ele>509.0</ele><time>2026-03-29T08:11:45.109Z</time></trkpt><trkpt lat="43.8996837" lon="12.4161684"><ele>509.0</ele><time>2026-03-29T08:11:46.112Z</time></trkpt><trkpt lat="43.8997479" lon="12.4160472"><ele>509.0</ele><time>2026-03-29T08:11:47.124Z</time></trkpt><trkpt lat="43.899802" lon="12.4159197"><ele>508.2</ele><time>2026-03-29T08:11:48.139Z</time></trkpt><trkpt lat="43.8998541" lon="12.415784"><ele>507.4</ele><time>2026-03-29T08:11:49.08Z</time></trkpt><trkpt lat="43.8998931" lon="12.415646"><ele>506.6</ele><time>2026-03-29T08:11:50.062Z</time></trkpt><trkpt lat="43.8999258" lon="12.4155118"><ele>505.8</ele><time>2026-03-29T08:11:51.12Z</time></trkpt><trkpt lat="43.8999444" lon="12.415372"><ele>505.0</ele><time>2026-03-29T08:11:52.117Z</time></trkpt><trkpt lat="43.8999397" lon="12.4152291"><ele>504.0</ele><time>2026-03-29T08:11:53.117Z</time></trkpt><trkpt lat="43.8999363" lon="12.4150838"><ele>503.0</ele><time>2026-03-29T08:11:54.125Z</time></trkpt><trkpt lat="43.8999215" lon="12.41495"><ele>502.0</ele><time>2026-03-29T08:11:55.166Z</time></trkpt><trkpt lat="43.8999025" lon="12.4148133"><ele>501.0</ele><time>2026-03-29T08:11:56.093Z</time></trkpt><trkpt lat="43.8998795" lon="12.4146701"><ele>500.0</ele><time>2026-03-29T08:11:57.075Z</time></trkpt><trkpt lat="43.8998608" lon="12.414536"><ele>499.0</ele><time>2026-03-29T08:11:58.13Z</time></trkpt><trkpt lat="43.899848" lon="12.4143997"><ele>498.0</ele><time>2026-03-29T08:11:59.132Z</time></trkpt><trkpt lat="43.8998416" lon="12.4142727"><ele>497.0</ele><time>2026-03-29T08:12:00.14Z</time></trkpt><trkpt lat="43.8998517" lon="12.4141485"><ele>496.0</ele><time>2026-03-29T08:12:01.111Z</time></trkpt><trkpt lat="43.8998874" lon="12.4140461"><ele>495.0</ele><time>2026-03-29T08:12:02.128Z</time></trkpt><trkpt lat="43.89995" lon="12.413958"><ele>495.0</ele><time>2026-03-29T08:12:03.129Z</time></trkpt><trkpt lat="43.9000319" lon="12.4139062"><ele>495.0</ele><time>2026-03-29T08:12:04.158Z</time></trkpt><trkpt lat="43.9001115" lon="12.4138765"><ele>495.0</ele><time>2026-03-29T08:12:05.117Z</time></trkpt><trkpt lat="43.9001931" lon="12.4138328"><ele>495.0</ele><time>2026-03-29T08:12:06.122Z</time></trkpt><trkpt lat="43.9002667" lon="12.4137727"><ele>495.0</ele><time>2026-03-29T08:12:07.141Z</time></trkpt><trkpt lat="43.9003268" lon="12.4137053"><ele>495.0</ele><time>2026-03-29T08:12:08.156Z</time></trkpt><trkpt lat="43.9003776" lon="12.4136372"><ele>494.5</ele><time>2026-03-29T08:12:09.143Z</time></trkpt><trkpt lat="43.9004319" lon="12.413572"><ele>494.0</ele><time>2026-03-29T08:12:10.145Z</time></trkpt><trkpt lat="43.9005428" lon="12.4135482"><ele>493.5</ele><time>2026-03-29T08:12:12.109Z</time></trkpt><trkpt lat="43.9006424" lon="12.4136367"><ele>493.0</ele><time>2026-03-29T08:12:14.112Z</time></trkpt><trkpt lat="43.9007067" lon="12.4136919"><ele>492.5</ele><time>2026-03-29T08:12:15.135Z</time></trkpt><trkpt lat="43.9007629" lon="12.4137439"><ele>492.0</ele><time>2026-03-29T08:12:16.112Z</time></trkpt><trkpt lat="43.9008278" lon="12.4137896"><ele>492.00000000000006</ele><time>2026-03-29T08:12:17.117Z</time></trkpt><trkpt lat="43.9008933" lon="12.4138304"><ele>492.0</ele><time>2026-03-29T08:12:18.133Z</time></trkpt><trkpt lat="43.9009558" lon="12.4138859"><ele>492.00000000000006</ele><time>2026-03-29T08:12:19.126Z</time></trkpt><trkpt lat="43.901027" lon="12.41393"><ele>492.00000000000006</ele><time>2026-03-29T08:12:20.129Z</time></trkpt><trkpt lat="43.9010942" lon="12.4139791"><ele>492.0</ele><time>2026-03-29T08:12:21.099Z</time></trkpt><trkpt lat="43.90116" lon="12.4140324"><ele>492.00000000000006</ele><time>2026-03-29T08:12:22.141Z</time></trkpt><trkpt lat="43.9012252" lon="12.4140788"><ele>492.00000000000006</ele><time>2026-03-29T08:12:23.113Z</time></trkpt><trkpt lat="43.9012983" lon="12.4141273"><ele>491.0</ele><time>2026-03-29T08:12:24.129Z</time></trkpt><trkpt lat="43.9013612" lon="12.414174"><ele>490.0</ele><time>2026-03-29T08:12:25.112Z</time></trkpt><trkpt lat="43.9014303" lon="12.4142173"><ele>489.0</ele><time>2026-03-29T08:12:26.104Z</time></trkpt><trkpt lat="43.9015033" lon="12.4142703"><ele>488.0</ele><time>2026-03-29T08:12:27.126Z</time></trkpt><trkpt lat="43.9015772" lon="12.4143239"><ele>487.0</ele><time>2026-03-29T08:12:28.124Z</time></trkpt><trkpt lat="43.9016531" lon="12.4143748"><ele>486.0</ele><time>2026-03-29T08:12:29.13Z</time></trkpt><trkpt lat="43.9017241" lon="12.414425"><ele>484.6666666666667</ele><time>2026-03-29T08:12:30.135Z</time></trkpt><trkpt lat="43.9017989" lon="12.4144823"><ele>483.33333333333337</ele><time>2026-03-29T08:12:31.13Z</time></trkpt><trkpt lat="43.9018744" lon="12.4145396"><ele>482.0</ele><time>2026-03-29T08:12:32.138Z</time></trkpt><trkpt lat="43.9019501" lon="12.4145955"><ele>480.6666666666667</ele><time>2026-03-29T08:12:33.114Z</time></trkpt><trkpt lat="43.9020272" lon="12.4146499"><ele>479.33333333333337</ele><time>2026-03-29T08:12:34.127Z</time></trkpt><trkpt lat="43.9021094" lon="12.4147089"><ele>478.0</ele><time>2026-03-29T08:12:35.142Z</time></trkpt><trkpt lat="43.9021921" lon="12.4147676"><ele>478.0</ele><time>2026-03-29T08:12:36.131Z</time></trkpt><trkpt lat="43.9022788" lon="12.4148282"><ele>477.99999999999994</ele><time>2026-03-29T08:12:37.088Z</time></trkpt><trkpt lat="43.9023568" lon="12.4148881"><ele>477.99999999999994</ele><time>2026-03-29T08:12:38.111Z</time></trkpt><trkpt lat="43.9024408" lon="12.4149502"><ele>478.0</ele><time>2026-03-29T08:12:39.065Z</time></trkpt><trkpt lat="43.9025241" lon="12.4150119"><ele>478.0</ele><time>2026-03-29T08:12:40.115Z</time></trkpt><trkpt lat="43.9026083" lon="12.4150783"><ele>475.79999999999995</ele><time>2026-03-29T08:12:41.129Z</time></trkpt><trkpt lat="43.9026843" lon="12.4151518"><ele>473.59999999999997</ele><time>2026-03-29T08:12:42.142Z</time></trkpt><trkpt lat="43.9027524" lon="12.4152373"><ele>471.40000000000003</ele><time>2026-03-29T08:12:43.14Z</time></trkpt><trkpt lat="43.9028076" lon="12.415342"><ele>469.20000000000005</ele><time>2026-03-29T08:12:44.161Z</time></trkpt><trkpt lat="43.9028427" lon="12.4154695"><ele>467.0</ele><time>2026-03-29T08:12:45.061Z</time></trkpt><trkpt lat="43.9028609" lon="12.4156077"><ele>466.8</ele><time>2026-03-29T08:12:46.141Z</time></trkpt><trkpt lat="43.9028614" lon="12.4157429"><ele>466.6</ele><time>2026-03-29T08:12:47.113Z</time></trkpt><trkpt lat="43.902851" lon="12.4158818"><ele>466.40000000000003</ele><time>2026-03-29T08:12:48.136Z</time></trkpt><trkpt lat="43.9028181" lon="12.416018"><ele>466.20000000000005</ele><time>2026-03-29T08:12:49.11Z</time></trkpt><trkpt lat="43.9027757" lon="12.4161485"><ele>466.0</ele><time>2026-03-29T08:12:50.126Z</time></trkpt><trkpt lat="43.9027261" lon="12.4162721"><ele>465.0</ele><time>2026-03-29T08:12:51.077Z</time></trkpt><trkpt lat="43.9026777" lon="12.416394"><ele>464.0</ele><time>2026-03-29T08:12:52.134Z</time></trkpt><trkpt lat="43.9026314" lon="12.4165139"><ele>463.0</ele><time>2026-03-29T08:12:53.133Z</time></trkpt><trkpt lat="43.9025987" lon="12.4166406"><ele>462.0</ele><time>2026-03-29T08:12:54.134Z</time></trkpt><trkpt lat="43.9025802" lon="12.4167777"><ele>461.0</ele><time>2026-03-29T08:12:55.113Z</time></trkpt><trkpt lat="43.9025825" lon="12.4169067"><ele>461.0</ele><time>2026-03-29T08:12:56.126Z</time></trkpt><trkpt lat="43.9026007" lon="12.4170401"><ele>461.0</ele><time>2026-03-29T08:12:57.141Z</time></trkpt><trkpt lat="43.9026275" lon="12.4171783"><ele>461.0</ele><time>2026-03-29T08:12:58.13Z</time></trkpt><trkpt lat="43.9026668" lon="12.4173069"><ele>461.0</ele><time>2026-03-29T08:12:59.126Z</time></trkpt><trkpt lat="43.9027062" lon="12.4174284"><ele>461.0</ele><time>2026-03-29T08:13:00.129Z</time></trkpt><trkpt lat="43.9027382" lon="12.4175567"><ele>460.8</ele><time>2026-03-29T08:13:01.137Z</time></trkpt><trkpt lat="43.9027735" lon="12.4176835"><ele>460.6</ele><time>2026-03-29T08:13:02.127Z</time></trkpt><trkpt lat="43.9028106" lon="12.4178131"><ele>460.4</ele><time>2026-03-29T08:13:03.118Z</time></trkpt><trkpt lat="43.9028481" lon="12.4179437"><ele>460.2</ele><time>2026-03-29T08:13:04.134Z</time></trkpt><trkpt lat="43.9028823" lon="12.4180695"><ele>460.0</ele><time>2026-03-29T08:13:05.13Z</time></trkpt><trkpt lat="43.9029213" lon="12.418202"><ele>460.6</ele><time>2026-03-29T08:13:06.134Z</time></trkpt><trkpt lat="43.9029547" lon="12.418332"><ele>461.2</ele><time>2026-03-29T08:13:07.108Z</time></trkpt><trkpt lat="43.9029873" lon="12.4184574"><ele>461.79999999999995</ele><time>2026-03-29T08:13:08.129Z</time></trkpt><trkpt lat="43.9030212" lon="12.4185843"><ele>462.4</ele><time>2026-03-29T08:13:09.127Z</time></trkpt><trkpt lat="43.9030582" lon="12.4187117"><ele>463.0</ele><time>2026-03-29T08:13:10.095Z</time></trkpt><trkpt lat="43.9030936" lon="12.4188387"><ele>463.4</ele><time>2026-03-29T08:13:11.125Z</time></trkpt><trkpt lat="43.9031209" lon="12.4189591"><ele>463.79999999999995</ele><time>2026-03-29T08:13:12.126Z</time></trkpt><trkpt lat="43.9031586" lon="12.4190861"><ele>464.2</ele><time>2026-03-29T08:13:13.125Z</time></trkpt><trkpt lat="43.9032035" lon="12.419198"><ele>464.6</ele><time>2026-03-29T08:13:14.109Z</time></trkpt><trkpt lat="43.903254" lon="12.4193053"><ele>465.0</ele><time>2026-03-29T08:13:15.111Z</time></trkpt><trkpt lat="43.903309" lon="12.4193947"><ele>465.0</ele><time>2026-03-29T08:13:16.128Z</time></trkpt><trkpt lat="43.9033744" lon="12.4194736"><ele>465.0</ele><time>2026-03-29T08:13:17.121Z</time></trkpt><trkpt lat="43.9034555" lon="12.4195467"><ele>465.0</ele><time>2026-03-29T08:13:18.104Z</time></trkpt><trkpt lat="43.903541" lon="12.4196169"><ele>465.0</ele><time>2026-03-29T08:13:19.123Z</time></trkpt><trkpt lat="43.9036233" lon="12.4196808"><ele>465.0</ele><time>2026-03-29T08:13:20.118Z</time></trkpt><trkpt lat="43.9037104" lon="12.4197428"><ele>464.2</ele><time>2026-03-29T08:13:21.111Z</time></trkpt><trkpt lat="43.9037974" lon="12.4198041"><ele>463.4</ele><time>2026-03-29T08:13:22.12Z</time></trkpt><trkpt lat="43.9038877" lon="12.4198476"><ele>462.6</ele><time>2026-03-29T08:13:23.117Z</time></trkpt><trkpt lat="43.9039713" lon="12.4198691"><ele>461.8</ele><time>2026-03-29T08:13:24.101Z</time></trkpt><trkpt lat="43.9040672" lon="12.4198811"><ele>461.0</ele><time>2026-03-29T08:13:25.126Z</time></trkpt><trkpt lat="43.9041769" lon="12.4198857"><ele>458.25</ele><time>2026-03-29T08:13:26.104Z</time></trkpt><trkpt lat="43.9042959" lon="12.4198846"><ele>455.5</ele><time>2026-03-29T08:13:27.126Z</time></trkpt><trkpt lat="43.9044243" lon="12.4198864"><ele>452.75</ele><time>2026-03-29T08:13:28.13Z</time></trkpt><trkpt lat="43.9045473" lon="12.4198852"><ele>450.0</ele><time>2026-03-29T08:13:29.116Z</time></trkpt><trkpt lat="43.9046769" lon="12.4198873"><ele>450.0</ele><time>2026-03-29T08:13:30.12Z</time></trkpt><trkpt lat="43.9048051" lon="12.4198585"><ele>450.0</ele><time>2026-03-29T08:13:31.12Z</time></trkpt><trkpt lat="43.9049296" lon="12.4198128"><ele>450.0</ele><time>2026-03-29T08:13:32.109Z</time></trkpt><trkpt lat="43.9050512" lon="12.4197538"><ele>450.0</ele><time>2026-03-29T08:13:33.129Z</time></trkpt><trkpt lat="43.9051782" lon="12.4196996"><ele>447.75</ele><time>2026-03-29T08:13:34.129Z</time></trkpt><trkpt lat="43.9053224" lon="12.4196808"><ele>445.5</ele><time>2026-03-29T08:13:35.136Z</time></trkpt><trkpt lat="43.905462" lon="12.4196907"><ele>443.25</ele><time>2026-03-29T08:13:36.13Z</time></trkpt><trkpt lat="43.9055964" lon="12.4197186"><ele>441.0</ele><time>2026-03-29T08:13:37.113Z</time></trkpt><trkpt lat="43.9057198" lon="12.419761"><ele>441.0</ele><time>2026-03-29T08:13:38.137Z</time></trkpt><trkpt lat="43.9058464" lon="12.4197989"><ele>441.0</ele><time>2026-03-29T08:13:39.144Z</time></trkpt><trkpt lat="43.905973" lon="12.4198312"><ele>441.0</ele><time>2026-03-29T08:13:40.133Z</time></trkpt><trkpt lat="43.9060979" lon="12.4198562"><ele>441.0</ele><time>2026-03-29T08:13:41.119Z</time></trkpt><trkpt lat="43.9062184" lon="12.4198886"><ele>437.75</ele><time>2026-03-29T08:13:42.12Z</time></trkpt><trkpt lat="43.9063424" lon="12.4198948"><ele>434.5</ele><time>2026-03-29T08:13:43.149Z</time></trkpt><trkpt lat="43.9064654" lon="12.4199051"><ele>431.25</ele><time>2026-03-29T08:13:44.144Z</time></trkpt><trkpt lat="43.9065839" lon="12.4199248"><ele>428.0</ele><time>2026-03-29T08:13:45.146Z</time></trkpt><trkpt lat="43.90671" lon="12.4199352"><ele>426.75</ele><time>2026-03-29T08:13:46.143Z</time></trkpt><trkpt lat="43.9068374" lon="12.4199558"><ele>425.5</ele><time>2026-03-29T08:13:47.127Z</time></trkpt><trkpt lat="43.906957" lon="12.4199885"><ele>424.25</ele><time>2026-03-29T08:13:48.104Z</time></trkpt><trkpt lat="43.9070764" lon="12.4200362"><ele>423.0</ele><time>2026-03-29T08:13:49.12Z</time></trkpt><trkpt lat="43.9071869" lon="12.420087"><ele>423.0</ele><time>2026-03-29T08:13:50.119Z</time></trkpt><trkpt lat="43.9072953" lon="12.4201372"><ele>423.0</ele><time>2026-03-29T08:13:51.127Z</time></trkpt><trkpt lat="43.9073904" lon="12.4202016"><ele>423.0</ele><time>2026-03-29T08:13:52.097Z</time></trkpt><trkpt lat="43.9074693" lon="12.4202426"><ele>423.0</ele><time>2026-03-29T08:13:53.111Z</time></trkpt><trkpt lat="43.907545" lon="12.4202303"><ele>423.0</ele><time>2026-03-29T08:13:54.137Z</time></trkpt><trkpt lat="43.9076386" lon="12.4202065"><ele>420.79999999999995</ele><time>2026-03-29T08:13:55.13Z</time></trkpt><trkpt lat="43.9077449" lon="12.4202002"><ele>418.6</ele><time>2026-03-29T08:13:56.121Z</time></trkpt><trkpt lat="43.9078515" lon="12.4202489"><ele>416.4</ele><time>2026-03-29T08:13:57.122Z</time></trkpt><trkpt lat="43.907943" lon="12.4203189"><ele>414.20000000000005</ele><time>2026-03-29T08:13:58.074Z</time></trkpt><trkpt lat="43.9080313" lon="12.4203882"><ele>412.0</ele><time>2026-03-29T08:13:59.125Z</time></trkpt><trkpt lat="43.9081234" lon="12.4204459"><ele>412.5</ele><time>2026-03-29T08:14:00.127Z</time></trkpt><trkpt lat="43.9082284" lon="12.4204924"><ele>413.0</ele><time>2026-03-29T08:14:01.109Z</time></trkpt><trkpt lat="43.9083387" lon="12.4205155"><ele>413.5</ele><time>2026-03-29T08:14:02.111Z</time></trkpt><trkpt lat="43.9084567" lon="12.420522"><ele>414.0</ele><time>2026-03-29T08:14:03.119Z</time></trkpt><trkpt lat="43.9085762" lon="12.4205183"><ele>414.0</ele><time>2026-03-29T08:14:04.118Z</time></trkpt><trkpt lat="43.9086925" lon="12.4205246"><ele>414.0</ele><time>2026-03-29T08:14:05.111Z</time></trkpt><trkpt lat="43.9088126" lon="12.4205497"><ele>414.0</ele><time>2026-03-29T08:14:06.121Z</time></trkpt><trkpt lat="43.9089158" lon="12.4206079"><ele>414.0</ele><time>2026-03-29T08:14:07.112Z</time></trkpt><trkpt lat="43.9090058" lon="12.420693"><ele>414.0</ele><time>2026-03-29T08:14:08.089Z</time></trkpt><trkpt lat="43.9090817" lon="12.420791"><ele>414.0</ele><time>2026-03-29T08:14:09.106Z</time></trkpt><trkpt lat="43.9091452" lon="12.4208926"><ele>414.0</ele><time>2026-03-29T08:14:10.121Z</time></trkpt><trkpt lat="43.9092154" lon="12.4209812"><ele>414.0</ele><time>2026-03-29T08:14:11.103Z</time></trkpt><trkpt lat="43.9092878" lon="12.4210588"><ele>414.0</ele><time>2026-03-29T08:14:12.11Z</time></trkpt><trkpt lat="43.909354" lon="12.4211184"><ele>414.14285714285717</ele><time>2026-03-29T08:14:13.107Z</time></trkpt><trkpt lat="43.9094247" lon="12.4211746"><ele>414.2857142857143</ele><time>2026-03-29T08:14:14.077Z</time></trkpt><trkpt lat="43.9094913" lon="12.4212199"><ele>414.42857142857144</ele><time>2026-03-29T08:14:15.131Z</time></trkpt><trkpt lat="43.9095565" lon="12.4212659"><ele>414.57142857142856</ele><time>2026-03-29T08:14:16.119Z</time></trkpt><trkpt lat="43.9096162" lon="12.421313"><ele>414.7142857142857</ele><time>2026-03-29T08:14:17.11Z</time></trkpt><trkpt lat="43.909675" lon="12.4213792"><ele>414.8571428571429</ele><time>2026-03-29T08:14:18.129Z</time></trkpt><trkpt lat="43.9097277" lon="12.4214453"><ele>415.0</ele><time>2026-03-29T08:14:19.122Z</time></trkpt><trkpt lat="43.9097744" lon="12.4215234"><ele>415.0</ele><time>2026-03-29T08:14:20.122Z</time></trkpt><trkpt lat="43.9098198" lon="12.421598"><ele>415.0</ele><time>2026-03-29T08:14:21.124Z</time></trkpt><trkpt lat="43.9098627" lon="12.4216718"><ele>415.0</ele><time>2026-03-29T08:14:22.123Z</time></trkpt><trkpt lat="43.9099029" lon="12.4217415"><ele>415.0</ele><time>2026-03-29T08:14:23.097Z</time></trkpt><trkpt lat="43.9099516" lon="12.4218079"><ele>415.0</ele><time>2026-03-29T08:14:24.128Z</time></trkpt><trkpt lat="43.9100075" lon="12.421871"><ele>415.0</ele><time>2026-03-29T08:14:25.115Z</time></trkpt><trkpt lat="43.9100678" lon="12.4219129"><ele>415.0</ele><time>2026-03-29T08:14:26.139Z</time></trkpt><trkpt lat="43.910179" lon="12.4219788"><ele>414.00000000000006</ele><time>2026-03-29T08:14:28.12Z</time></trkpt><trkpt lat="43.9102406" lon="12.4220025"><ele>413.0</ele><time>2026-03-29T08:14:29.119Z</time></trkpt><trkpt lat="43.9103022" lon="12.4220239"><ele>412.0</ele><time>2026-03-29T08:14:30.089Z</time></trkpt><trkpt lat="43.9103648" lon="12.422044"><ele>411.0</ele><time>2026-03-29T08:14:31.107Z</time></trkpt><trkpt lat="43.9104766" lon="12.4221009"><ele>410.00000000000006</ele><time>2026-03-29T08:14:33.087Z</time></trkpt><trkpt lat="43.9105379" lon="12.4221395"><ele>409.0</ele><time>2026-03-29T08:14:34.088Z</time></trkpt><trkpt lat="43.9106335" lon="12.4222425"><ele>409.0</ele><time>2026-03-29T08:14:36.114Z</time></trkpt><trkpt lat="43.9106879" lon="12.4223075"><ele>409.0</ele><time>2026-03-29T08:14:37.129Z</time></trkpt><trkpt lat="43.910739" lon="12.422391"><ele>409.0</ele><time>2026-03-29T08:14:38.127Z</time></trkpt><trkpt lat="43.9107855" lon="12.4225029"><ele>409.0</ele><time>2026-03-29T08:14:39.097Z</time></trkpt><trkpt lat="43.9108387" lon="12.4226252"><ele>409.0</ele><time>2026-03-29T08:14:40.133Z</time></trkpt><trkpt lat="43.9109013" lon="12.4227588"><ele>401.75</ele><time>2026-03-29T08:14:41.119Z</time></trkpt><trkpt lat="43.9109699" lon="12.4228956"><ele>394.5</ele><time>2026-03-29T08:14:42.08Z</time></trkpt><trkpt lat="43.9110461" lon="12.4230356"><ele>387.25</ele><time>2026-03-29T08:14:43.108Z</time></trkpt><trkpt lat="43.9111215" lon="12.4231829"><ele>380.0</ele><time>2026-03-29T08:14:44.13Z</time></trkpt><trkpt lat="43.9112019" lon="12.42334"><ele>380.0</ele><time>2026-03-29T08:14:45.106Z</time></trkpt><trkpt lat="43.9112753" lon="12.4234944"><ele>380.0</ele><time>2026-03-29T08:14:46.124Z</time></trkpt><trkpt lat="43.911357" lon="12.42365"><ele>380.0</ele><time>2026-03-29T08:14:47.092Z</time></trkpt><trkpt lat="43.911468" lon="12.4237924"><ele>380.0</ele><time>2026-03-29T08:14:48.145Z</time></trkpt><trkpt lat="43.9116014" lon="12.4239069"><ele>376.5</ele><time>2026-03-29T08:14:49.142Z</time></trkpt><trkpt lat="43.9117456" lon="12.4239659"><ele>373.0</ele><time>2026-03-29T08:14:50.062Z</time></trkpt><trkpt lat="43.9118863" lon="12.4239983"><ele>369.5</ele><time>2026-03-29T08:14:51.131Z</time></trkpt><trkpt lat="43.9120373" lon="12.4240421"><ele>366.0</ele><time>2026-03-29T08:14:52.143Z</time></trkpt><trkpt lat="43.9121966" lon="12.4240548"><ele>366.0</ele><time>2026-03-29T08:14:53.12Z</time></trkpt><trkpt lat="43.9123691" lon="12.4240533"><ele>366.0</ele><time>2026-03-29T08:14:54.126Z</time></trkpt><trkpt lat="43.9125437" lon="12.4240469"><ele>366.0</ele><time>2026-03-29T08:14:55.105Z</time></trkpt><trkpt lat="43.9127142" lon="12.424028"><ele>361.0</ele><time>2026-03-29T08:14:56.124Z</time></trkpt><trkpt lat="43.9128839" lon="12.4239774"><ele>356.0</ele><time>2026-03-29T08:14:57.116Z</time></trkpt><trkpt lat="43.9130582" lon="12.4239239"><ele>351.0</ele><time>2026-03-29T08:14:58.124Z</time></trkpt><trkpt lat="43.9132415" lon="12.4238752"><ele>347.0</ele><time>2026-03-29T08:14:59.123Z</time></trkpt><trkpt lat="43.9134258" lon="12.4238617"><ele>343.0</ele><time>2026-03-29T08:15:00.133Z</time></trkpt><trkpt lat="43.9136099" lon="12.4238784"><ele>339.0</ele><time>2026-03-29T08:15:01.136Z</time></trkpt><trkpt lat="43.9137941" lon="12.4239093"><ele>339.0</ele><time>2026-03-29T08:15:02.135Z</time></trkpt><trkpt lat="43.9139708" lon="12.4239404"><ele>339.0</ele><time>2026-03-29T08:15:03.132Z</time></trkpt><trkpt lat="43.9141542" lon="12.4239672"><ele>339.0</ele><time>2026-03-29T08:15:04.116Z</time></trkpt><trkpt lat="43.9143326" lon="12.423996"><ele>336.0</ele><time>2026-03-29T08:15:05.095Z</time></trkpt><trkpt lat="43.9145098" lon="12.4240037"><ele>333.0</ele><time>2026-03-29T08:15:06.138Z</time></trkpt><trkpt lat="43.9146786" lon="12.4239872"><ele>330.0</ele><time>2026-03-29T08:15:07.155Z</time></trkpt><trkpt lat="43.9148418" lon="12.4239621"><ele>330.0</ele><time>2026-03-29T08:15:08.137Z</time></trkpt><trkpt lat="43.9149988" lon="12.4239324"><ele>330.0</ele><time>2026-03-29T08:15:09.134Z</time></trkpt><trkpt lat="43.9151499" lon="12.4238895"><ele>330.0</ele><time>2026-03-29T08:15:10.097Z</time></trkpt><trkpt lat="43.9153008" lon="12.4238467"><ele>329.0</ele><time>2026-03-29T08:15:11.104Z</time></trkpt><trkpt lat="43.9154472" lon="12.4238091"><ele>328.0</ele><time>2026-03-29T08:15:12.121Z</time></trkpt><trkpt lat="43.9155937" lon="12.4237657"><ele>327.0</ele><time>2026-03-29T08:15:13.094Z</time></trkpt><trkpt lat="43.915737" lon="12.4237246"><ele>326.0</ele><time>2026-03-29T08:15:14.099Z</time></trkpt><trkpt lat="43.915873" lon="12.423698"><ele>326.0</ele><time>2026-03-29T08:15:15.102Z</time></trkpt><trkpt lat="43.9159993" lon="12.42368"><ele>326.0</ele><time>2026-03-29T08:15:16.134Z</time></trkpt><trkpt lat="43.9161149" lon="12.4236738"><ele>326.0</ele><time>2026-03-29T08:15:17.121Z</time></trkpt><trkpt lat="43.9162268" lon="12.423666"><ele>326.0</ele><time>2026-03-29T08:15:18.1Z</time></trkpt><trkpt lat="43.9163293" lon="12.4236507"><ele>326.0</ele><time>2026-03-29T08:15:19.133Z</time></trkpt><trkpt lat="43.9164269" lon="12.4236283"><ele>326.0</ele><time>2026-03-29T08:15:20.129Z</time></trkpt><trkpt lat="43.916519" lon="12.4235957"><ele>326.0</ele><time>2026-03-29T08:15:21.119Z</time></trkpt><trkpt lat="43.9166011" lon="12.4235545"><ele>326.0</ele><time>2026-03-29T08:15:22.127Z</time></trkpt><trkpt lat="43.916685" lon="12.4234915"><ele>326.0</ele><time>2026-03-29T08:15:23.121Z</time></trkpt><trkpt lat="43.9167654" lon="12.4234172"><ele>324.2</ele><time>2026-03-29T08:15:24.119Z</time></trkpt><trkpt lat="43.9168454" lon="12.4233451"><ele>322.40000000000003</ele><time>2026-03-29T08:15:25.127Z</time></trkpt><trkpt lat="43.9169269" lon="12.4232691"><ele>320.6</ele><time>2026-03-29T08:15:26.142Z</time></trkpt><trkpt lat="43.9170094" lon="12.4231905"><ele>318.8</ele><time>2026-03-29T08:15:27.138Z</time></trkpt><trkpt lat="43.9170928" lon="12.4231242"><ele>317.0</ele><time>2026-03-29T08:15:28.127Z</time></trkpt><trkpt lat="43.9171898" lon="12.4230819"><ele>317.0</ele><time>2026-03-29T08:15:29.151Z</time></trkpt><trkpt lat="43.9172869" lon="12.4230484"><ele>317.0</ele><time>2026-03-29T08:15:30.128Z</time></trkpt><trkpt lat="43.9173915" lon="12.4230217"><ele>317.0</ele><time>2026-03-29T08:15:31.119Z</time></trkpt><trkpt lat="43.9174938" lon="12.4230088"><ele>317.0</ele><time>2026-03-29T08:15:32.135Z</time></trkpt><trkpt lat="43.9175959" lon="12.4230191"><ele>317.0</ele><time>2026-03-29T08:15:33.134Z</time></trkpt><trkpt lat="43.9176961" lon="12.4230339"><ele>315.0</ele><time>2026-03-29T08:15:34.136Z</time></trkpt><trkpt lat="43.9177981" lon="12.423056"><ele>313.0</ele><time>2026-03-29T08:15:35.119Z</time></trkpt><trkpt lat="43.9179052" lon="12.42308"><ele>311.0</ele><time>2026-03-29T08:15:36.14Z</time></trkpt><trkpt lat="43.9180186" lon="12.4230794"><ele>309.0</ele><time>2026-03-29T08:15:37.124Z</time></trkpt><trkpt lat="43.9181361" lon="12.4230695"><ele>307.0</ele><time>2026-03-29T08:15:38.132Z</time></trkpt><trkpt lat="43.918252" lon="12.4230588"><ele>307.0</ele><time>2026-03-29T08:15:39.114Z</time></trkpt><trkpt lat="43.9183727" lon="12.4230604"><ele>307.0</ele><time>2026-03-29T08:15:40.136Z</time></trkpt><trkpt lat="43.9184877" lon="12.4230842"><ele>307.0</ele><time>2026-03-29T08:15:41.078Z</time></trkpt><trkpt lat="43.9186048" lon="12.4231247"><ele>307.0</ele><time>2026-03-29T08:15:42.125Z</time></trkpt><trkpt lat="43.9187085" lon="12.4231606"><ele>307.0</ele><time>2026-03-29T08:15:43.084Z</time></trkpt><trkpt lat="43.9188146" lon="12.4231912"><ele>307.0</ele><time>2026-03-29T08:15:44.086Z</time></trkpt><trkpt lat="43.9189154" lon="12.4232067"><ele>307.0</ele><time>2026-03-29T08:15:45.124Z</time></trkpt><trkpt lat="43.9190151" lon="12.4232115"><ele>307.0</ele><time>2026-03-29T08:15:46.126Z</time></trkpt><trkpt lat="43.9191143" lon="12.4231976"><ele>307.0</ele><time>2026-03-29T08:15:47.125Z</time></trkpt><trkpt lat="43.9192116" lon="12.4231751"><ele>306.5</ele><time>2026-03-29T08:15:48.113Z</time></trkpt><trkpt lat="43.9193014" lon="12.4231572"><ele>306.0</ele><time>2026-03-29T08:15:49.124Z</time></trkpt><trkpt lat="43.9193865" lon="12.4231361"><ele>305.5</ele><time>2026-03-29T08:15:50.13Z</time></trkpt><trkpt lat="43.9194746" lon="12.4231166"><ele>305.0</ele><time>2026-03-29T08:15:51.13Z</time></trkpt><trkpt lat="43.9195634" lon="12.4231017"><ele>304.5</ele><time>2026-03-29T08:15:52.124Z</time></trkpt><trkpt lat="43.9196502" lon="12.4230902"><ele>304.0</ele><time>2026-03-29T08:15:53.083Z</time></trkpt><trkpt lat="43.9197395" lon="12.4230765"><ele>304.0</ele><time>2026-03-29T08:15:54.135Z</time></trkpt><trkpt lat="43.9198329" lon="12.4230674"><ele>304.0</ele><time>2026-03-29T08:15:55.086Z</time></trkpt><trkpt lat="43.9199253" lon="12.4230713"><ele>304.0</ele><time>2026-03-29T08:15:56.115Z</time></trkpt><trkpt lat="43.9200196" lon="12.4230945"><ele>304.0</ele><time>2026-03-29T08:15:57.134Z</time></trkpt><trkpt lat="43.9201126" lon="12.4231541"><ele>304.0</ele><time>2026-03-29T08:15:58.111Z</time></trkpt><trkpt lat="43.9201918" lon="12.4232386"><ele>302.2</ele><time>2026-03-29T08:15:59.097Z</time></trkpt><trkpt lat="43.9202703" lon="12.4233295"><ele>300.4</ele><time>2026-03-29T08:16:00.103Z</time></trkpt><trkpt lat="43.920352" lon="12.4234181"><ele>298.6</ele><time>2026-03-29T08:16:01.112Z</time></trkpt><trkpt lat="43.9204372" lon="12.4234711"><ele>296.8</ele><time>2026-03-29T08:16:02.118Z</time></trkpt><trkpt lat="43.9205287" lon="12.4234617"><ele>295.0</ele><time>2026-03-29T08:16:03.12Z</time></trkpt><trkpt lat="43.9206067" lon="12.4233815"><ele>295.0</ele><time>2026-03-29T08:16:04.131Z</time></trkpt><trkpt lat="43.9206892" lon="12.4232706"><ele>295.0</ele><time>2026-03-29T08:16:05.126Z</time></trkpt><trkpt lat="43.9207638" lon="12.423158"><ele>295.0</ele><time>2026-03-29T08:16:06.137Z</time></trkpt><trkpt lat="43.9208413" lon="12.4230454"><ele>295.0</ele><time>2026-03-29T08:16:07.148Z</time></trkpt><trkpt lat="43.9209217" lon="12.4229569"><ele>295.0</ele><time>2026-03-29T08:16:08.108Z</time></trkpt><trkpt lat="43.9210001" lon="12.4228992"><ele>290.6</ele><time>2026-03-29T08:16:09.132Z</time></trkpt><trkpt lat="43.9210663" lon="12.422894"><ele>286.2</ele><time>2026-03-29T08:16:10.139Z</time></trkpt><trkpt lat="43.921138" lon="12.4229619"><ele>281.8</ele><time>2026-03-29T08:16:11.138Z</time></trkpt><trkpt lat="43.9211923" lon="12.42307"><ele>277.4</ele><time>2026-03-29T08:16:12.134Z</time></trkpt><trkpt lat="43.9212344" lon="12.4232084"><ele>273.0</ele><time>2026-03-29T08:16:13.113Z</time></trkpt><trkpt lat="43.9212794" lon="12.4233473"><ele>273.0</ele><time>2026-03-29T08:16:14.159Z</time></trkpt><trkpt lat="43.9213354" lon="12.4234897"><ele>273.0</ele><time>2026-03-29T08:16:15.125Z</time></trkpt><trkpt lat="43.9214042" lon="12.4236253"><ele>273.0</ele><time>2026-03-29T08:16:16.144Z</time></trkpt><trkpt lat="43.9214983" lon="12.4237521"><ele>273.0</ele><time>2026-03-29T08:16:17.12Z</time></trkpt><trkpt lat="43.9216191" lon="12.4238736"><ele>268.0</ele><time>2026-03-29T08:16:18.123Z</time></trkpt><trkpt lat="43.921751" lon="12.4239894"><ele>263.0</ele><time>2026-03-29T08:16:19.125Z</time></trkpt><trkpt lat="43.921878" lon="12.4240994"><ele>258.0</ele><time>2026-03-29T08:16:20.119Z</time></trkpt><trkpt lat="43.9219881" lon="12.4242013"><ele>253.0</ele><time>2026-03-29T08:16:21.122Z</time></trkpt><trkpt lat="43.9220981" lon="12.4242752"><ele>253.0</ele><time>2026-03-29T08:16:22.132Z</time></trkpt><trkpt lat="43.9222199" lon="12.4242996"><ele>253.0</ele><time>2026-03-29T08:16:23.138Z</time></trkpt><trkpt lat="43.9223468" lon="12.4242838"><ele>253.0</ele><time>2026-03-29T08:16:24.129Z</time></trkpt><trkpt lat="43.9224619" lon="12.4242189"><ele>253.0</ele><time>2026-03-29T08:16:25.118Z</time></trkpt><trkpt lat="43.9225509" lon="12.4241173"><ele>249.0</ele><time>2026-03-29T08:16:26.114Z</time></trkpt><trkpt lat="43.9226158" lon="12.4239853"><ele>245.0</ele><time>2026-03-29T08:16:27.108Z</time></trkpt><trkpt lat="43.9226552" lon="12.4238352"><ele>241.0</ele><time>2026-03-29T08:16:28.12Z</time></trkpt><trkpt lat="43.9226567" lon="12.4236673"><ele>237.0</ele><time>2026-03-29T08:16:29.122Z</time></trkpt><trkpt lat="43.9226432" lon="12.4234756"><ele>236.5</ele><time>2026-03-29T08:16:30.122Z</time></trkpt><trkpt lat="43.9226123" lon="12.4232965"><ele>236.0</ele><time>2026-03-29T08:16:31.113Z</time></trkpt><trkpt lat="43.9225796" lon="12.4231136"><ele>235.5</ele><time>2026-03-29T08:16:32.13Z</time></trkpt><trkpt lat="43.9225634" lon="12.4229206"><ele>235.0</ele><time>2026-03-29T08:16:33.144Z</time></trkpt><trkpt lat="43.9225632" lon="12.4227225"><ele>233.25</ele><time>2026-03-29T08:16:34.113Z</time></trkpt><trkpt lat="43.9225828" lon="12.4225211"><ele>231.5</ele><time>2026-03-29T08:16:35.13Z</time></trkpt><trkpt lat="43.9226191" lon="12.4223149"><ele>229.75</ele><time>2026-03-29T08:16:36.124Z</time></trkpt><trkpt lat="43.9226646" lon="12.4221315"><ele>228.0</ele><time>2026-03-29T08:16:37.14Z</time></trkpt><trkpt lat="43.9227252" lon="12.4219952"><ele>226.8</ele><time>2026-03-29T08:16:38.138Z</time></trkpt><trkpt lat="43.9228069" lon="12.4219107"><ele>225.60000000000002</ele><time>2026-03-29T08:16:39.133Z</time></trkpt><trkpt lat="43.9229182" lon="12.4218862"><ele>224.39999999999998</ele><time>2026-03-29T08:16:40.118Z</time></trkpt><trkpt lat="43.9230324" lon="12.4219165"><ele>223.2</ele><time>2026-03-29T08:16:41.151Z</time></trkpt><trkpt lat="43.9231372" lon="12.421989"><ele>222.0</ele><time>2026-03-29T08:16:42.128Z</time></trkpt><trkpt lat="43.9232428" lon="12.4221027"><ele>223.5</ele><time>2026-03-29T08:16:43.137Z</time></trkpt><trkpt lat="43.9233393" lon="12.4222108"><ele>225.0</ele><time>2026-03-29T08:16:44.079Z</time></trkpt><trkpt lat="43.923444" lon="12.4223061"><ele>226.5</ele><time>2026-03-29T08:16:45.129Z</time></trkpt><trkpt lat="43.9235393" lon="12.4224026"><ele>228.0</ele><time>2026-03-29T08:16:46.144Z</time></trkpt><trkpt lat="43.9236369" lon="12.4224962"><ele>225.2</ele><time>2026-03-29T08:16:47.111Z</time></trkpt><trkpt lat="43.9237289" lon="12.4225846"><ele>222.4</ele><time>2026-03-29T08:16:48.139Z</time></trkpt><trkpt lat="43.9238218" lon="12.4226412"><ele>219.59999999999997</ele><time>2026-03-29T08:16:49.124Z</time></trkpt><trkpt lat="43.9239253" lon="12.4226829"><ele>216.79999999999998</ele><time>2026-03-29T08:16:50.082Z</time></trkpt><trkpt lat="43.9240296" lon="12.4226749"><ele>214.0</ele><time>2026-03-29T08:16:51.141Z</time></trkpt><trkpt lat="43.9241352" lon="12.4226255"><ele>214.79999999999998</ele><time>2026-03-29T08:16:52.128Z</time></trkpt><trkpt lat="43.9242428" lon="12.4225728"><ele>215.59999999999997</ele><time>2026-03-29T08:16:53.094Z</time></trkpt><trkpt lat="43.9243407" lon="12.4225285"><ele>216.4</ele><time>2026-03-29T08:16:54.085Z</time></trkpt><trkpt lat="43.9244332" lon="12.4224884"><ele>217.2</ele><time>2026-03-29T08:16:55.12Z</time></trkpt><trkpt lat="43.924518" lon="12.4224511"><ele>218.0</ele><time>2026-03-29T08:16:56.11Z</time></trkpt><trkpt lat="43.9246028" lon="12.4224114"><ele>218.00000000000003</ele><time>2026-03-29T08:16:57.142Z</time></trkpt><trkpt lat="43.9246817" lon="12.4223596"><ele>218.0</ele><time>2026-03-29T08:16:58.131Z</time></trkpt><trkpt lat="43.9247491" lon="12.4222935"><ele>218.0</ele><time>2026-03-29T08:16:59.102Z</time></trkpt><trkpt lat="43.924808" lon="12.4222225"><ele>218.0</ele><time>2026-03-29T08:17:00.127Z</time></trkpt><trkpt lat="43.9248586" lon="12.4221469"><ele>218.00000000000003</ele><time>2026-03-29T08:17:01.129Z</time></trkpt><trkpt lat="43.9248941" lon="12.4220597"><ele>218.0</ele><time>2026-03-29T08:17:02.121Z</time></trkpt><trkpt lat="43.9249224" lon="12.4219668"><ele>217.8</ele><time>2026-03-29T08:17:03.126Z</time></trkpt><trkpt lat="43.9249433" lon="12.4218811"><ele>217.60000000000002</ele><time>2026-03-29T08:17:04.126Z</time></trkpt><trkpt lat="43.9249599" lon="12.4217944"><ele>217.39999999999998</ele><time>2026-03-29T08:17:05.102Z</time></trkpt><trkpt lat="43.9249957" lon="12.4216227"><ele>217.2</ele><time>2026-03-29T08:17:07.115Z</time></trkpt><trkpt lat="43.9250256" lon="12.4214665"><ele>217.0</ele><time>2026-03-29T08:17:09.1Z</time></trkpt><trkpt lat="43.925083" lon="12.4213367"><ele>218.33333333333331</ele><time>2026-03-29T08:17:11.088Z</time></trkpt><trkpt lat="43.9251798" lon="12.4213545"><ele>219.66666666666666</ele><time>2026-03-29T08:17:13.129Z</time></trkpt><trkpt lat="43.9252477" lon="12.4214355"><ele>221.0</ele><time>2026-03-29T08:17:15.122Z</time></trkpt><trkpt lat="43.9253238" lon="12.4214867"><ele>222.33333333333331</ele><time>2026-03-29T08:17:18.124Z</time></trkpt><trkpt lat="43.9253899" lon="12.4215257"><ele>223.66666666666666</ele><time>2026-03-29T08:17:21.134Z</time></trkpt><trkpt lat="43.9254546" lon="12.421547"><ele>225.0</ele><time>2026-03-29T08:17:24.131Z</time></trkpt><trkpt lat="43.925523" lon="12.4215615"><ele>225.00000000000003</ele><time>2026-03-29T08:17:27.112Z</time></trkpt><trkpt lat="43.925587" lon="12.4215888"><ele>225.0</ele><time>2026-03-29T08:17:30.109Z</time></trkpt><trkpt lat="43.9256486" lon="12.4216077"><ele>225.00000000000003</ele><time>2026-03-29T08:17:33.128Z</time></trkpt><trkpt lat="43.9257091" lon="12.4216339"><ele>225.00000000000003</ele><time>2026-03-29T08:17:36.143Z</time></trkpt><trkpt lat="43.9257746" lon="12.4216544"><ele>225.0</ele><time>2026-03-29T08:17:39.118Z</time></trkpt><trkpt lat="43.925847" lon="12.4216802"><ele>225.00000000000003</ele><time>2026-03-29T08:17:43.111Z</time></trkpt><trkpt lat="43.9259277" lon="12.4217027"><ele>225.00000000000003</ele><time>2026-03-29T08:17:47.098Z</time></trkpt><trkpt lat="43.9259962" lon="12.4217347"><ele>226.71428571428575</ele><time>2026-03-29T08:17:51.126Z</time></trkpt><trkpt lat="43.9260708" lon="12.4217611"><ele>228.42857142857144</ele><time>2026-03-29T08:17:55.135Z</time></trkpt><trkpt lat="43.9261452" lon="12.4217889"><ele>230.14285714285714</ele><time>2026-03-29T08:17:59.122Z</time></trkpt><trkpt lat="43.9262146" lon="12.4218239"><ele>231.85714285714286</ele><time>2026-03-29T08:18:03.125Z</time></trkpt><trkpt lat="43.9262826" lon="12.4218501"><ele>233.57142857142856</ele><time>2026-03-29T08:18:07.119Z</time></trkpt><trkpt lat="43.9263539" lon="12.4218676"><ele>235.28571428571425</ele><time>2026-03-29T08:18:11.129Z</time></trkpt><trkpt lat="43.9264208" lon="12.421901"><ele>236.99999999999997</ele><time>2026-03-29T08:18:15.133Z</time></trkpt><trkpt lat="43.9264856" lon="12.4219277"><ele>236.99999999999997</ele><time>2026-03-29T08:18:19.117Z</time></trkpt><trkpt lat="43.9265626" lon="12.4219461"><ele>237.0</ele><time>2026-03-29T08:18:23.134Z</time></trkpt><trkpt lat="43.9266297" lon="12.4219352"><ele>236.99999999999997</ele><time>2026-03-29T08:18:27.12Z</time></trkpt><trkpt lat="43.9266909" lon="12.4218856"><ele>236.99999999999997</ele><time>2026-03-29T08:18:31.148Z</time></trkpt><trkpt lat="43.9267317" lon="12.42179"><ele>237.0</ele><time>2026-03-29T08:18:35.119Z</time></trkpt><trkpt lat="43.926753" lon="12.4216985"><ele>236.99999999999997</ele><time>2026-03-29T08:18:39.108Z</time></trkpt><trkpt lat="43.9267763" lon="12.4215954"><ele>236.99999999999997</ele><time>2026-03-29T08:18:43.088Z</time></trkpt><trkpt lat="43.9267941" lon="12.4215058"><ele>238.1428571428571</ele><time>2026-03-29T08:18:46.087Z</time></trkpt><trkpt lat="43.9268144" lon="12.4214144"><ele>239.28571428571428</ele><time>2026-03-29T08:18:49.097Z</time></trkpt><trkpt lat="43.9268473" lon="12.4213246"><ele>240.42857142857142</ele><time>2026-03-29T08:18:52.126Z</time></trkpt><trkpt lat="43.9269147" lon="12.4212682"><ele>241.57142857142856</ele><time>2026-03-29T08:18:56.133Z</time></trkpt><trkpt lat="43.9269812" lon="12.4212566"><ele>242.71428571428572</ele><time>2026-03-29T08:18:59.133Z</time></trkpt><trkpt lat="43.9270443" lon="12.4212603"><ele>243.85714285714286</ele><time>2026-03-29T08:19:02.104Z</time></trkpt><trkpt lat="43.9271223" lon="12.4212822"><ele>245.0</ele><time>2026-03-29T08:19:06.124Z</time></trkpt><trkpt lat="43.9271874" lon="12.4213149"><ele>245.0</ele><time>2026-03-29T08:19:09.122Z</time></trkpt><trkpt lat="43.9272539" lon="12.4213406"><ele>245.0</ele><time>2026-03-29T08:19:12.126Z</time></trkpt><trkpt lat="43.9273155" lon="12.4213723"><ele>245.0</ele><time>2026-03-29T08:19:15.118Z</time></trkpt><trkpt lat="43.9273891" lon="12.4214179"><ele>245.0</ele><time>2026-03-29T08:19:19.134Z</time></trkpt><trkpt lat="43.9274437" lon="12.4214854"><ele>245.0</ele><time>2026-03-29T08:19:23.132Z</time></trkpt><trkpt lat="43.9274942" lon="12.4215643"><ele>245.0</ele><time>2026-03-29T08:19:27.13Z</time></trkpt><trkpt lat="43.9275354" lon="12.4216523"><ele>245.0</ele><time>2026-03-29T08:19:31.128Z</time></trkpt><trkpt lat="43.9275661" lon="12.421744"><ele>247.0</ele><time>2026-03-29T08:19:35.136Z</time></trkpt><trkpt lat="43.9276023" lon="12.421838"><ele>249.0</ele><time>2026-03-29T08:19:39.122Z</time></trkpt><trkpt lat="43.9276105" lon="12.4219322"><ele>251.0</ele><time>2026-03-29T08:19:43.146Z</time></trkpt><trkpt lat="43.9276235" lon="12.4220319"><ele>253.0</ele><time>2026-03-29T08:19:47.14Z</time></trkpt><trkpt lat="43.9276512" lon="12.4221346"><ele>255.0</ele><time>2026-03-29T08:19:51.078Z</time></trkpt><trkpt lat="43.9276792" lon="12.4222288"><ele>257.0</ele><time>2026-03-29T08:19:55.143Z</time></trkpt><trkpt lat="43.9277172" lon="12.4223013"><ele>259.0</ele><time>2026-03-29T08:19:58.123Z</time></trkpt><trkpt lat="43.9277634" lon="12.4223864"><ele>259.57142857142856</ele><time>2026-03-29T08:20:02.11Z</time></trkpt><trkpt lat="43.9278157" lon="12.4224478"><ele>260.1428571428571</ele><time>2026-03-29T08:20:06.119Z</time></trkpt><trkpt lat="43.9278928" lon="12.4224558"><ele>260.7142857142857</ele><time>2026-03-29T08:20:10.129Z</time></trkpt><trkpt lat="43.9279574" lon="12.4224458"><ele>261.2857142857143</ele><time>2026-03-29T08:20:14.128Z</time></trkpt><trkpt lat="43.9280273" lon="12.422422"><ele>261.85714285714283</ele><time>2026-03-29T08:20:18.127Z</time></trkpt><trkpt lat="43.9280477" lon="12.4225172"><ele>262.42857142857144</ele><time>2026-03-29T08:20:25.13Z</time></trkpt><trkpt lat="43.9279916" lon="12.4225793"><ele>263.0</ele><time>2026-03-29T08:20:29.126Z</time></trkpt><trkpt lat="43.9279335" lon="12.4226298"><ele>263.0</ele><time>2026-03-29T08:20:33.131Z</time></trkpt><trkpt lat="43.9278632" lon="12.4226474"><ele>263.0</ele><time>2026-03-29T08:20:37.121Z</time></trkpt><trkpt lat="43.9277906" lon="12.4226848"><ele>263.0</ele><time>2026-03-29T08:20:41.123Z</time></trkpt><trkpt lat="43.9277286" lon="12.4227477"><ele>263.0</ele><time>2026-03-29T08:20:45.149Z</time></trkpt><trkpt lat="43.9276777" lon="12.4228547"><ele>263.0</ele><time>2026-03-29T08:20:49.113Z</time></trkpt><trkpt lat="43.9276626" lon="12.422951"><ele>263.0</ele><time>2026-03-29T08:20:51.07Z</time></trkpt><trkpt lat="43.9276585" lon="12.4230848"><ele>264.2</ele><time>2026-03-29T08:20:53.115Z</time></trkpt><trkpt lat="43.9276509" lon="12.4232322"><ele>265.4</ele><time>2026-03-29T08:20:55.127Z</time></trkpt><trkpt lat="43.9276551" lon="12.4233986"><ele>266.59999999999997</ele><time>2026-03-29T08:20:57.136Z</time></trkpt><trkpt lat="43.9276723" lon="12.4235393"><ele>267.8</ele><time>2026-03-29T08:20:59.095Z</time></trkpt><trkpt lat="43.9276981" lon="12.4236663"><ele>269.0</ele><time>2026-03-29T08:21:01.123Z</time></trkpt><trkpt lat="43.9277115" lon="12.4237754"><ele>269.57142857142856</ele><time>2026-03-29T08:21:03.111Z</time></trkpt><trkpt lat="43.9277162" lon="12.4238769"><ele>270.14285714285717</ele><time>2026-03-29T08:21:05.127Z</time></trkpt><trkpt lat="43.9276917" lon="12.4239664"><ele>270.7142857142857</ele><time>2026-03-29T08:21:07.127Z</time></trkpt><trkpt lat="43.9276463" lon="12.4240395"><ele>271.2857142857143</ele><time>2026-03-29T08:21:09.101Z</time></trkpt><trkpt lat="43.9275849" lon="12.4240818"><ele>271.8571428571429</ele><time>2026-03-29T08:21:11.122Z</time></trkpt><trkpt lat="43.9275006" lon="12.4241004"><ele>272.42857142857144</ele><time>2026-03-29T08:21:14.131Z</time></trkpt><trkpt lat="43.9274355" lon="12.424121"><ele>273.0</ele><time>2026-03-29T08:21:18.105Z</time></trkpt><trkpt lat="43.9273648" lon="12.4241556"><ele>273.57142857142856</ele><time>2026-03-29T08:21:23.093Z</time></trkpt><trkpt lat="43.9272957" lon="12.4241766"><ele>274.1428571428571</ele><time>2026-03-29T08:21:28.116Z</time></trkpt><trkpt lat="43.9272428" lon="12.4242534"><ele>274.7142857142857</ele><time>2026-03-29T08:21:33.126Z</time></trkpt><trkpt lat="43.9272005" lon="12.4243405"><ele>275.2857142857143</ele><time>2026-03-29T08:21:37.131Z</time></trkpt><trkpt lat="43.9271828" lon="12.4244356"><ele>275.85714285714283</ele><time>2026-03-29T08:21:41.123Z</time></trkpt><trkpt lat="43.9271651" lon="12.4245247"><ele>276.42857142857144</ele><time>2026-03-29T08:21:45.088Z</time></trkpt><trkpt lat="43.9271372" lon="12.4246164"><ele>277.0</ele><time>2026-03-29T08:21:50.12Z</time></trkpt><trkpt lat="43.9271164" lon="12.4247015"><ele>277.0</ele><time>2026-03-29T08:21:55.135Z</time></trkpt><trkpt lat="43.9271004" lon="12.4247923"><ele>277.0</ele><time>2026-03-29T08:22:00.116Z</time></trkpt><trkpt lat="43.9270767" lon="12.4248882"><ele>277.0</ele><time>2026-03-29T08:22:06.126Z</time></trkpt><trkpt lat="43.9270511" lon="12.4249774"><ele>277.0</ele><time>2026-03-29T08:22:11.089Z</time></trkpt><trkpt lat="43.927016" lon="12.4250721"><ele>277.0</ele><time>2026-03-29T08:22:16.106Z</time></trkpt><trkpt lat="43.9269679" lon="12.4251469"><ele>277.0</ele><time>2026-03-29T08:22:21.076Z</time></trkpt><trkpt lat="43.926908" lon="12.4252034"><ele>277.0</ele><time>2026-03-29T08:22:26.117Z</time></trkpt><trkpt lat="43.9268431" lon="12.4252547"><ele>277.0</ele><time>2026-03-29T08:22:31.074Z</time></trkpt><trkpt lat="43.9267685" lon="12.4252881"><ele>277.0</ele><time>2026-03-29T08:22:36.119Z</time></trkpt><trkpt lat="43.9266955" lon="12.4253167"><ele>277.0</ele><time>2026-03-29T08:22:42.124Z</time></trkpt><trkpt lat="43.926626" lon="12.4253335"><ele>277.0</ele><time>2026-03-29T08:22:47.126Z</time></trkpt><trkpt lat="43.9265598" lon="12.4253576"><ele>277.0</ele><time>2026-03-29T08:22:53.134Z</time></trkpt><trkpt lat="43.9265145" lon="12.4254391"><ele>277.0</ele><time>2026-03-29T08:22:58.137Z</time></trkpt><trkpt lat="43.9265348" lon="12.4255334"><ele>277.0</ele><time>2026-03-29T08:23:02.113Z</time></trkpt><trkpt lat="43.9265944" lon="12.425565"><ele>277.57142857142856</ele><time>2026-03-29T08:23:07.073Z</time></trkpt><trkpt lat="43.9266605" lon="12.4255991"><ele>278.1428571428571</ele><time>2026-03-29T08:23:12.166Z</time></trkpt><trkpt lat="43.9267144" lon="12.4256484"><ele>278.7142857142857</ele><time>2026-03-29T08:23:17.132Z</time></trkpt><trkpt lat="43.9267757" lon="12.4257051"><ele>279.2857142857143</ele><time>2026-03-29T08:23:22.124Z</time></trkpt><trkpt lat="43.9268305" lon="12.4257629"><ele>279.8571428571429</ele><time>2026-03-29T08:23:27.127Z</time></trkpt><trkpt lat="43.926902" lon="12.4257954"><ele>280.42857142857144</ele><time>2026-03-29T08:23:32.119Z</time></trkpt><trkpt lat="43.9269719" lon="12.4258216"><ele>281.0</ele><time>2026-03-29T08:23:37.089Z</time></trkpt><trkpt lat="43.9270289" lon="12.4258643"><ele>283.14285714285717</ele><time>2026-03-29T08:23:42.131Z</time></trkpt><trkpt lat="43.927098" lon="12.4258769"><ele>285.2857142857143</ele><time>2026-03-29T08:23:48.122Z</time></trkpt><trkpt lat="43.9271685" lon="12.4258683"><ele>287.42857142857144</ele><time>2026-03-29T08:23:53.137Z</time></trkpt><trkpt lat="43.9272346" lon="12.4258829"><ele>289.57142857142856</ele><time>2026-03-29T08:23:58.142Z</time></trkpt><trkpt lat="43.9273063" lon="12.4258866"><ele>291.7142857142857</ele><time>2026-03-29T08:24:03.112Z</time></trkpt><trkpt lat="43.9273745" lon="12.4258868"><ele>293.8571428571429</ele><time>2026-03-29T08:24:08.103Z</time></trkpt><trkpt lat="43.927446" lon="12.4258991"><ele>296.0</ele><time>2026-03-29T08:24:14.115Z</time></trkpt><trkpt lat="43.9275087" lon="12.4259158"><ele>298.2857142857143</ele><time>2026-03-29T08:24:20.078Z</time></trkpt><trkpt lat="43.927572" lon="12.4259373"><ele>300.57142857142856</ele><time>2026-03-29T08:24:26.116Z</time></trkpt><trkpt lat="43.9276375" lon="12.4259498"><ele>302.8571428571429</ele><time>2026-03-29T08:24:32.09Z</time></trkpt><trkpt lat="43.927707" lon="12.4259736"><ele>305.1428571428571</ele><time>2026-03-29T08:24:38.123Z</time></trkpt><trkpt lat="43.9277686" lon="12.4259938"><ele>307.4285714285714</ele><time>2026-03-29T08:24:44.115Z</time></trkpt><trkpt lat="43.9278364" lon="12.4260036"><ele>309.7142857142857</ele><time>2026-03-29T08:24:51.114Z</time></trkpt><trkpt lat="43.9279022" lon="12.4259989"><ele>312.0</ele><time>2026-03-29T08:24:58.121Z</time></trkpt><trkpt lat="43.9279713" lon="12.4259923"><ele>312.0</ele><time>2026-03-29T08:25:04.065Z</time></trkpt><trkpt lat="43.9280325" lon="12.4260184"><ele>312.0</ele><time>2026-03-29T08:25:09.071Z</time></trkpt><trkpt lat="43.9281078" lon="12.4260262"><ele>312.0</ele><time>2026-03-29T08:25:16.085Z</time></trkpt><trkpt lat="43.9281752" lon="12.426013"><ele>312.0</ele><time>2026-03-29T08:25:21.08Z</time></trkpt><trkpt lat="43.928245" lon="12.4259816"><ele>312.0</ele><time>2026-03-29T08:25:24.092Z</time></trkpt><trkpt lat="43.9283019" lon="12.4259244"><ele>312.0</ele><time>2026-03-29T08:25:26.083Z</time></trkpt><trkpt lat="43.9283675" lon="12.4258614"><ele>312.0</ele><time>2026-03-29T08:25:30.091Z</time></trkpt><trkpt lat="43.9284329" lon="12.4258171"><ele>314.5714285714286</ele><time>2026-03-29T08:25:34.092Z</time></trkpt><trkpt lat="43.9285003" lon="12.425812"><ele>317.1428571428571</ele><time>2026-03-29T08:25:38.127Z</time></trkpt><trkpt lat="43.9285716" lon="12.4258405"><ele>319.7142857142857</ele><time>2026-03-29T08:25:43.124Z</time></trkpt><trkpt lat="43.9286256" lon="12.4258896"><ele>322.28571428571433</ele><time>2026-03-29T08:25:48.116Z</time></trkpt><trkpt lat="43.9286766" lon="12.4259562"><ele>324.8571428571429</ele><time>2026-03-29T08:25:53.141Z</time></trkpt><trkpt lat="43.928731" lon="12.4260223"><ele>327.42857142857144</ele><time>2026-03-29T08:25:59.132Z</time></trkpt><trkpt lat="43.9287614" lon="12.4261047"><ele>330.0</ele><time>2026-03-29T08:26:04.081Z</time></trkpt><trkpt lat="43.9288027" lon="12.4261798"><ele>330.00000000000006</ele><time>2026-03-29T08:26:09.137Z</time></trkpt><trkpt lat="43.92885" lon="12.4262604"><ele>330.0</ele><time>2026-03-29T08:26:14.123Z</time></trkpt><trkpt lat="43.9289008" lon="12.4263138"><ele>330.0</ele><time>2026-03-29T08:26:19.079Z</time></trkpt><trkpt lat="43.9289654" lon="12.42633"><ele>330.0</ele><time>2026-03-29T08:26:23.098Z</time></trkpt><trkpt lat="43.9290405" lon="12.4263216"><ele>330.0</ele><time>2026-03-29T08:26:27.122Z</time></trkpt><trkpt lat="43.9291067" lon="12.426314"><ele>330.00000000000006</ele><time>2026-03-29T08:26:32.132Z</time></trkpt><trkpt lat="43.9291741" lon="12.426308"><ele>330.0</ele><time>2026-03-29T08:26:38.099Z</time></trkpt><trkpt lat="43.9292435" lon="12.4263044"><ele>329.42857142857144</ele><time>2026-03-29T08:26:43.128Z</time></trkpt><trkpt lat="43.9293108" lon="12.4263229"><ele>328.8571428571429</ele><time>2026-03-29T08:26:48.128Z</time></trkpt><trkpt lat="43.9293816" lon="12.4263045"><ele>328.28571428571433</ele><time>2026-03-29T08:26:53.112Z</time></trkpt><trkpt lat="43.9294325" lon="12.4262463"><ele>327.7142857142857</ele><time>2026-03-29T08:26:57.08Z</time></trkpt><trkpt lat="43.9294841" lon="12.4261853"><ele>327.1428571428571</ele><time>2026-03-29T08:27:01.135Z</time></trkpt><trkpt lat="43.9295499" lon="12.4261441"><ele>326.5714285714286</ele><time>2026-03-29T08:27:06.118Z</time></trkpt><trkpt lat="43.9296213" lon="12.4261101"><ele>326.0</ele><time>2026-03-29T08:27:11.12Z</time></trkpt><trkpt lat="43.9296981" lon="12.4260826"><ele>328.42857142857144</ele><time>2026-03-29T08:27:15.125Z</time></trkpt><trkpt lat="43.9297603" lon="12.4260588"><ele>330.85714285714283</ele><time>2026-03-29T08:27:18.127Z</time></trkpt><trkpt lat="43.9298422" lon="12.4260263"><ele>333.2857142857143</ele><time>2026-03-29T08:27:22.136Z</time></trkpt><trkpt lat="43.9299177" lon="12.425997"><ele>335.7142857142857</ele><time>2026-03-29T08:27:26.09Z</time></trkpt><trkpt lat="43.9299904" lon="12.4259653"><ele>338.1428571428571</ele><time>2026-03-29T08:27:30.132Z</time></trkpt><trkpt lat="43.9300535" lon="12.425945"><ele>340.57142857142856</ele><time>2026-03-29T08:27:35.133Z</time></trkpt><trkpt lat="43.9301239" lon="12.4259259"><ele>343.0</ele><time>2026-03-29T08:27:40.114Z</time></trkpt><trkpt lat="43.9301838" lon="12.425896"><ele>344.2857142857143</ele><time>2026-03-29T08:27:44.103Z</time></trkpt><trkpt lat="43.9302436" lon="12.4258526"><ele>345.57142857142856</ele><time>2026-03-29T08:27:49.149Z</time></trkpt><trkpt lat="43.930314" lon="12.4258198"><ele>346.8571428571429</ele><time>2026-03-29T08:27:54.134Z</time></trkpt><trkpt lat="43.9303767" lon="12.4257977"><ele>348.1428571428571</ele><time>2026-03-29T08:27:59.131Z</time></trkpt><trkpt lat="43.93045" lon="12.4257724"><ele>349.42857142857144</ele><time>2026-03-29T08:28:04.12Z</time></trkpt><trkpt lat="43.9305186" lon="12.4257419"><ele>350.7142857142857</ele><time>2026-03-29T08:28:11.127Z</time></trkpt><trkpt lat="43.9305901" lon="12.4257169"><ele>352.0</ele><time>2026-03-29T08:28:16.136Z</time></trkpt><trkpt lat="43.9306519" lon="12.4256876"><ele>352.0</ele><time>2026-03-29T08:28:21.127Z</time></trkpt><trkpt lat="43.9307116" lon="12.4256583"><ele>352.0</ele><time>2026-03-29T08:28:25.107Z</time></trkpt><trkpt lat="43.9307849" lon="12.4256379"><ele>352.0</ele><time>2026-03-29T08:28:30.118Z</time></trkpt><trkpt lat="43.9308485" lon="12.4256108"><ele>352.0</ele><time>2026-03-29T08:28:34.127Z</time></trkpt><trkpt lat="43.9309162" lon="12.4256022"><ele>352.0</ele><time>2026-03-29T08:28:39.106Z</time></trkpt><trkpt lat="43.9309838" lon="12.4255654"><ele>352.0</ele><time>2026-03-29T08:28:44.125Z</time></trkpt><trkpt lat="43.9310496" lon="12.4255479"><ele>352.0</ele><time>2026-03-29T08:28:49.139Z</time></trkpt><trkpt lat="43.93112" lon="12.425506"><ele>353.0</ele><time>2026-03-29T08:28:54.127Z</time></trkpt><trkpt lat="43.9311834" lon="12.4254693"><ele>354.0</ele><time>2026-03-29T08:28:58.126Z</time></trkpt><trkpt lat="43.9312541" lon="12.4254628"><ele>355.0</ele><time>2026-03-29T08:29:03.121Z</time></trkpt><trkpt lat="43.9313289" lon="12.4254625"><ele>356.0</ele><time>2026-03-29T08:29:08.122Z</time></trkpt><trkpt lat="43.931399" lon="12.4255049"><ele>357.0</ele><time>2026-03-29T08:29:13.112Z</time></trkpt><trkpt lat="43.9314671" lon="12.4255579"><ele>358.0</ele><time>2026-03-29T08:29:17.123Z</time></trkpt><trkpt lat="43.9315279" lon="12.4256327"><ele>358.0</ele><time>2026-03-29T08:29:20.135Z</time></trkpt><trkpt lat="43.9315773" lon="12.4256959"><ele>358.0</ele><time>2026-03-29T08:29:22.13Z</time></trkpt><trkpt lat="43.9316394" lon="12.4257819"><ele>358.0</ele><time>2026-03-29T08:29:24.112Z</time></trkpt><trkpt lat="43.931703" lon="12.4258796"><ele>358.0</ele><time>2026-03-29T08:29:26.122Z</time></trkpt><trkpt lat="43.9317676" lon="12.425964"><ele>358.0</ele><time>2026-03-29T08:29:28.103Z</time></trkpt><trkpt lat="43.9318217" lon="12.4260655"><ele>358.0</ele><time>2026-03-29T08:29:30.142Z</time></trkpt><trkpt lat="43.9318479" lon="12.4261559"><ele>358.14285714285717</ele><time>2026-03-29T08:29:32.127Z</time></trkpt><trkpt lat="43.931865" lon="12.4262486"><ele>358.2857142857143</ele><time>2026-03-29T08:29:34.14Z</time></trkpt><trkpt lat="43.9318872" lon="12.4263429"><ele>358.42857142857144</ele><time>2026-03-29T08:29:36.119Z</time></trkpt><trkpt lat="43.9319095" lon="12.426448"><ele>358.57142857142856</ele><time>2026-03-29T08:29:38.117Z</time></trkpt><trkpt lat="43.9319248" lon="12.4265482"><ele>358.7142857142857</ele><time>2026-03-29T08:29:40.133Z</time></trkpt><trkpt lat="43.931953" lon="12.4266468"><ele>358.8571428571429</ele><time>2026-03-29T08:29:42.137Z</time></trkpt><trkpt lat="43.9319858" lon="12.4267438"><ele>359.0</ele><time>2026-03-29T08:29:44.083Z</time></trkpt><trkpt lat="43.9320369" lon="12.4268343"><ele>359.0</ele><time>2026-03-29T08:29:46.136Z</time></trkpt><trkpt lat="43.9321035" lon="12.4269143"><ele>359.0</ele><time>2026-03-29T08:29:48.139Z</time></trkpt><trkpt lat="43.9321947" lon="12.4269588"><ele>359.0</ele><time>2026-03-29T08:29:50.129Z</time></trkpt><trkpt lat="43.9322885" lon="12.427003"><ele>359.0</ele><time>2026-03-29T08:29:52.122Z</time></trkpt><trkpt lat="43.9323928" lon="12.4270397"><ele>359.0</ele><time>2026-03-29T08:29:54.125Z</time></trkpt><trkpt lat="43.9325044" lon="12.4270726"><ele>358.0</ele><time>2026-03-29T08:29:56.107Z</time></trkpt><trkpt lat="43.932621" lon="12.4271238"><ele>357.0</ele><time>2026-03-29T08:29:58.118Z</time></trkpt><trkpt lat="43.9327417" lon="12.4271592"><ele>356.0</ele><time>2026-03-29T08:30:00.122Z</time></trkpt><trkpt lat="43.9328586" lon="12.4271824"><ele>355.0</ele><time>2026-03-29T08:30:02.133Z</time></trkpt><trkpt lat="43.9329234" lon="12.4271909"><ele>354.0</ele><time>2026-03-29T08:30:03.131Z</time></trkpt><trkpt lat="43.9330463" lon="12.4271844"><ele>354.0</ele><time>2026-03-29T08:30:05.13Z</time></trkpt><trkpt lat="43.9331589" lon="12.4271691"><ele>354.0</ele><time>2026-03-29T08:30:07.13Z</time></trkpt><trkpt lat="43.9332697" lon="12.4271606"><ele>354.0</ele><time>2026-03-29T08:30:09.129Z</time></trkpt><trkpt lat="43.9333659" lon="12.4271378"><ele>354.0</ele><time>2026-03-29T08:30:11.113Z</time></trkpt><trkpt lat="43.9334612" lon="12.427115"><ele>354.0</ele><time>2026-03-29T08:30:13.115Z</time></trkpt><trkpt lat="43.933561" lon="12.4271108"><ele>355.2</ele><time>2026-03-29T08:30:15.116Z</time></trkpt><trkpt lat="43.9336646" lon="12.4271312"><ele>356.4</ele><time>2026-03-29T08:30:17.125Z</time></trkpt><trkpt lat="43.9337869" lon="12.4271593"><ele>357.6</ele><time>2026-03-29T08:30:19.121Z</time></trkpt><trkpt lat="43.9338488" lon="12.427178"><ele>358.8</ele><time>2026-03-29T08:30:20.144Z</time></trkpt><trkpt lat="43.9339507" lon="12.4272155"><ele>360.0</ele><time>2026-03-29T08:30:22.135Z</time></trkpt><trkpt lat="43.9340473" lon="12.4272608"><ele>360.0</ele><time>2026-03-29T08:30:24.128Z</time></trkpt><trkpt lat="43.9341318" lon="12.4272935"><ele>360.0</ele><time>2026-03-29T08:30:26.103Z</time></trkpt><trkpt lat="43.9342151" lon="12.4273271"><ele>360.0</ele><time>2026-03-29T08:30:28.139Z</time></trkpt><trkpt lat="43.9342912" lon="12.4273593"><ele>360.0</ele><time>2026-03-29T08:30:30.134Z</time></trkpt><trkpt lat="43.9343664" lon="12.4273876"><ele>360.0</ele><time>2026-03-29T08:30:32.121Z</time></trkpt><trkpt lat="43.934436" lon="12.4274292"><ele>360.0</ele><time>2026-03-29T08:30:34.137Z</time></trkpt><trkpt lat="43.9344995" lon="12.4274582"><ele>360.8333333333333</ele><time>2026-03-29T08:30:36.126Z</time></trkpt><trkpt lat="43.9345613" lon="12.4275141"><ele>361.6666666666667</ele><time>2026-03-29T08:30:38.114Z</time></trkpt><trkpt lat="43.9346074" lon="12.427621"><ele>362.5</ele><time>2026-03-29T08:30:41.113Z</time></trkpt><trkpt lat="43.9346259" lon="12.4277074"><ele>363.33333333333337</ele><time>2026-03-29T08:30:43.123Z</time></trkpt><trkpt lat="43.9346388" lon="12.4278326"><ele>364.1666666666667</ele><time>2026-03-29T08:30:46.139Z</time></trkpt><trkpt lat="43.9346508" lon="12.427949"><ele>365.0</ele><time>2026-03-29T08:30:49.136Z</time></trkpt><trkpt lat="43.9346609" lon="12.4280747"><ele>365.00000000000006</ele><time>2026-03-29T08:30:52.127Z</time></trkpt><trkpt lat="43.934673" lon="12.4281618"><ele>365.0</ele><time>2026-03-29T08:30:54.115Z</time></trkpt><trkpt lat="43.9346806" lon="12.428253"><ele>365.0</ele><time>2026-03-29T08:30:56.14Z</time></trkpt><trkpt lat="43.9346942" lon="12.428374"><ele>365.0</ele><time>2026-03-29T08:30:59.128Z</time></trkpt><trkpt lat="43.9347068" lon="12.4284782"><ele>365.0</ele><time>2026-03-29T08:31:02.144Z</time></trkpt><trkpt lat="43.934724" lon="12.4285721"><ele>365.00000000000006</ele><time>2026-03-29T08:31:05.145Z</time></trkpt><trkpt lat="43.934748" lon="12.4286671"><ele>365.0</ele><time>2026-03-29T08:31:08.139Z</time></trkpt><trkpt lat="43.9347697" lon="12.4287591"><ele>366.14285714285717</ele><time>2026-03-29T08:31:11.079Z</time></trkpt><trkpt lat="43.9348095" lon="12.4288415"><ele>367.2857142857143</ele><time>2026-03-29T08:31:14.117Z</time></trkpt><trkpt lat="43.9348471" lon="12.428916"><ele>368.42857142857144</ele><time>2026-03-29T08:31:17.123Z</time></trkpt><trkpt lat="43.9348935" lon="12.4289802"><ele>369.57142857142856</ele><time>2026-03-29T08:31:20.143Z</time></trkpt><trkpt lat="43.9349467" lon="12.4290428"><ele>370.7142857142857</ele><time>2026-03-29T08:31:24.147Z</time></trkpt><trkpt lat="43.9350002" lon="12.4290934"><ele>371.8571428571429</ele><time>2026-03-29T08:31:27.12Z</time></trkpt><trkpt lat="43.9350682" lon="12.4291238"><ele>373.0</ele><time>2026-03-29T08:31:31.102Z</time></trkpt><trkpt lat="43.9351286" lon="12.4291512"><ele>374.42857142857144</ele><time>2026-03-29T08:31:34.142Z</time></trkpt><trkpt lat="43.9351896" lon="12.4291783"><ele>375.8571428571429</ele><time>2026-03-29T08:31:37.136Z</time></trkpt><trkpt lat="43.9352601" lon="12.4291807"><ele>377.2857142857143</ele><time>2026-03-29T08:31:41.134Z</time></trkpt><trkpt lat="43.9353336" lon="12.4291839"><ele>378.7142857142857</ele><time>2026-03-29T08:31:45.136Z</time></trkpt><trkpt lat="43.9354156" lon="12.4291936"><ele>380.1428571428571</ele><time>2026-03-29T08:31:49.13Z</time></trkpt><trkpt lat="43.9354888" lon="12.4291958"><ele>381.57142857142856</ele><time>2026-03-29T08:31:53.131Z</time></trkpt><trkpt lat="43.9355668" lon="12.4292064"><ele>383.0</ele><time>2026-03-29T08:31:57.113Z</time></trkpt><trkpt lat="43.9356392" lon="12.4292215"><ele>383.0</ele><time>2026-03-29T08:32:01.117Z</time></trkpt><trkpt lat="43.9357152" lon="12.4292143"><ele>383.0</ele><time>2026-03-29T08:32:05.121Z</time></trkpt><trkpt lat="43.9357879" lon="12.4292205"><ele>383.0</ele><time>2026-03-29T08:32:09.12Z</time></trkpt><trkpt lat="43.935866" lon="12.4292417"><ele>383.0</ele><time>2026-03-29T08:32:13.134Z</time></trkpt><trkpt lat="43.9359424" lon="12.4292493"><ele>383.0</ele><time>2026-03-29T08:32:17.118Z</time></trkpt><trkpt lat="43.9360202" lon="12.4292706"><ele>383.0</ele><time>2026-03-29T08:32:21.121Z</time></trkpt><trkpt lat="43.9360874" lon="12.4292686"><ele>384.1428571428571</ele><time>2026-03-29T08:32:25.109Z</time></trkpt><trkpt lat="43.9361564" lon="12.4292709"><ele>385.2857142857143</ele><time>2026-03-29T08:32:29.129Z</time></trkpt><trkpt lat="43.9362243" lon="12.4292954"><ele>386.42857142857144</ele><time>2026-03-29T08:32:33.133Z</time></trkpt><trkpt lat="43.9362871" lon="12.4293292"><ele>387.57142857142856</ele><time>2026-03-29T08:32:37.126Z</time></trkpt><trkpt lat="43.9363233" lon="12.4294178"><ele>388.7142857142857</ele><time>2026-03-29T08:32:42.129Z</time></trkpt><trkpt lat="43.9363" lon="12.4295084"><ele>389.85714285714283</ele><time>2026-03-29T08:32:46.133Z</time></trkpt><trkpt lat="43.9362533" lon="12.429587"><ele>391.0</ele><time>2026-03-29T08:32:50.136Z</time></trkpt><trkpt lat="43.9362028" lon="12.4296603"><ele>391.71428571428567</ele><time>2026-03-29T08:32:54.143Z</time></trkpt><trkpt lat="43.9361477" lon="12.4297362"><ele>392.42857142857144</ele><time>2026-03-29T08:32:58.101Z</time></trkpt><trkpt lat="43.9360966" lon="12.4297955"><ele>393.1428571428571</ele><time>2026-03-29T08:33:01.111Z</time></trkpt><trkpt lat="43.9360523" lon="12.4298619"><ele>393.85714285714283</ele><time>2026-03-29T08:33:04.13Z</time></trkpt><trkpt lat="43.9360013" lon="12.4299149"><ele>394.57142857142856</ele><time>2026-03-29T08:33:07.128Z</time></trkpt><trkpt lat="43.9359342" lon="12.4299859"><ele>395.2857142857143</ele><time>2026-03-29T08:33:11.146Z</time></trkpt><trkpt lat="43.9358813" lon="12.4300389"><ele>396.0</ele><time>2026-03-29T08:33:14.098Z</time></trkpt><trkpt lat="43.9358322" lon="12.4300954"><ele>396.0</ele><time>2026-03-29T08:33:17.139Z</time></trkpt><trkpt lat="43.9357877" lon="12.4301589"><ele>396.0</ele><time>2026-03-29T08:33:20.139Z</time></trkpt><trkpt lat="43.935734" lon="12.4302244"><ele>396.0</ele><time>2026-03-29T08:33:23.135Z</time></trkpt><trkpt lat="43.9356676" lon="12.4302969"><ele>396.0</ele><time>2026-03-29T08:33:27.077Z</time></trkpt><trkpt lat="43.935615" lon="12.4303491"><ele>396.0</ele><time>2026-03-29T08:33:30.128Z</time></trkpt><trkpt lat="43.935563" lon="12.4304338"><ele>396.0</ele><time>2026-03-29T08:33:34.13Z</time></trkpt><trkpt lat="43.9355285" lon="12.4305124"><ele>396.0</ele><time>2026-03-29T08:33:37.135Z</time></trkpt><trkpt lat="43.9355038" lon="12.4306012"><ele>397.2857142857143</ele><time>2026-03-29T08:33:40.124Z</time></trkpt><trkpt lat="43.9354974" lon="12.4306945"><ele>398.57142857142856</ele><time>2026-03-29T08:33:43.116Z</time></trkpt><trkpt lat="43.9354912" lon="12.4307926"><ele>399.85714285714283</ele><time>2026-03-29T08:33:46.12Z</time></trkpt><trkpt lat="43.9354985" lon="12.4308881"><ele>401.1428571428571</ele><time>2026-03-29T08:33:49.139Z</time></trkpt><trkpt lat="43.9355232" lon="12.4309825"><ele>402.42857142857144</ele><time>2026-03-29T08:33:52.108Z</time></trkpt><trkpt lat="43.9355564" lon="12.4310688"><ele>403.71428571428567</ele><time>2026-03-29T08:33:55.134Z</time></trkpt><trkpt lat="43.9355989" lon="12.4311404"><ele>405.0</ele><time>2026-03-29T08:33:58.106Z</time></trkpt><trkpt lat="43.9356555" lon="12.4312064"><ele>404.99999999999994</ele><time>2026-03-29T08:34:01.137Z</time></trkpt><trkpt lat="43.9357096" lon="12.4312625"><ele>405.0</ele><time>2026-03-29T08:34:04.123Z</time></trkpt><trkpt lat="43.935772" lon="12.4313004"><ele>405.0</ele><time>2026-03-29T08:34:07.133Z</time></trkpt><trkpt lat="43.9358533" lon="12.4313396"><ele>405.0</ele><time>2026-03-29T08:34:11.147Z</time></trkpt><trkpt lat="43.9359174" lon="12.4313712"><ele>405.0</ele><time>2026-03-29T08:34:14.1Z</time></trkpt><trkpt lat="43.9359806" lon="12.4314"><ele>404.99999999999994</ele><time>2026-03-29T08:34:17.139Z</time></trkpt><trkpt lat="43.936044" lon="12.4314323"><ele>405.0</ele><time>2026-03-29T08:34:20.136Z</time></trkpt><trkpt lat="43.9361059" lon="12.4314685"><ele>406.71428571428567</ele><time>2026-03-29T08:34:23.134Z</time></trkpt><trkpt lat="43.9361699" lon="12.4314979"><ele>408.42857142857144</ele><time>2026-03-29T08:34:26.147Z</time></trkpt><trkpt lat="43.9362307" lon="12.4315389"><ele>410.1428571428571</ele><time>2026-03-29T08:34:29.138Z</time></trkpt><trkpt lat="43.9362912" lon="12.4315841"><ele>411.85714285714283</ele><time>2026-03-29T08:34:32.136Z</time></trkpt><trkpt lat="43.936348" lon="12.4316301"><ele>413.57142857142856</ele><time>2026-03-29T08:34:35.112Z</time></trkpt><trkpt lat="43.9364037" lon="12.4316826"><ele>415.2857142857143</ele><time>2026-03-29T08:34:38.157Z</time></trkpt><trkpt lat="43.9364549" lon="12.4317419"><ele>417.0</ele><time>2026-03-29T08:34:41.137Z</time></trkpt><trkpt lat="43.9365036" lon="12.4318075"><ele>417.0</ele><time>2026-03-29T08:34:44.136Z</time></trkpt><trkpt lat="43.9365556" lon="12.4318749"><ele>417.0</ele><time>2026-03-29T08:34:47.145Z</time></trkpt><trkpt lat="43.9366102" lon="12.4319369"><ele>417.0</ele><time>2026-03-29T08:34:50.138Z</time></trkpt><trkpt lat="43.9366569" lon="12.4320066"><ele>417.0</ele><time>2026-03-29T08:34:53.128Z</time></trkpt><trkpt lat="43.9367059" lon="12.4320641"><ele>417.0</ele><time>2026-03-29T08:34:56.136Z</time></trkpt><trkpt lat="43.9367674" lon="12.4321462"><ele>417.0</ele><time>2026-03-29T08:35:00.09Z</time></trkpt><trkpt lat="43.9368161" lon="12.4322161"><ele>417.0</ele><time>2026-03-29T08:35:03.13Z</time></trkpt><trkpt lat="43.9368688" lon="12.432285"><ele>418.2857142857143</ele><time>2026-03-29T08:35:06.14Z</time></trkpt><trkpt lat="43.9369147" lon="12.4323553"><ele>419.57142857142856</ele><time>2026-03-29T08:35:09.128Z</time></trkpt><trkpt lat="43.9369727" lon="12.4324332"><ele>420.85714285714283</ele><time>2026-03-29T08:35:13.122Z</time></trkpt><trkpt lat="43.9370288" lon="12.4325117"><ele>422.1428571428571</ele><time>2026-03-29T08:35:17.127Z</time></trkpt><trkpt lat="43.9370873" lon="12.4325844"><ele>423.42857142857144</ele><time>2026-03-29T08:35:21.14Z</time></trkpt><trkpt lat="43.9371329" lon="12.4326508"><ele>424.71428571428567</ele><time>2026-03-29T08:35:24.097Z</time></trkpt><trkpt lat="43.9371815" lon="12.4327199"><ele>426.0</ele><time>2026-03-29T08:35:27.121Z</time></trkpt><trkpt lat="43.9372321" lon="12.4327808"><ele>425.99999999999994</ele><time>2026-03-29T08:35:30.124Z</time></trkpt><trkpt lat="43.9372798" lon="12.4328501"><ele>426.0</ele><time>2026-03-29T08:35:33.123Z</time></trkpt><trkpt lat="43.9373273" lon="12.432922"><ele>426.0</ele><time>2026-03-29T08:35:36.114Z</time></trkpt><trkpt lat="43.9373749" lon="12.4329877"><ele>426.0</ele><time>2026-03-29T08:35:39.128Z</time></trkpt><trkpt lat="43.9374228" lon="12.4330651"><ele>426.0</ele><time>2026-03-29T08:35:42.115Z</time></trkpt><trkpt lat="43.9374881" lon="12.4331203"><ele>425.99999999999994</ele><time>2026-03-29T08:35:46.137Z</time></trkpt><trkpt lat="43.9375677" lon="12.4330684"><ele>426.0</ele><time>2026-03-29T08:35:51.117Z</time></trkpt><trkpt lat="43.9376152" lon="12.4329738"><ele>425.1666666666667</ele><time>2026-03-29T08:35:54.136Z</time></trkpt><trkpt lat="43.9376541" lon="12.4328554"><ele>424.33333333333337</ele><time>2026-03-29T08:35:57.133Z</time></trkpt><trkpt lat="43.9376823" lon="12.4327631"><ele>423.5</ele><time>2026-03-29T08:35:59.146Z</time></trkpt><trkpt lat="43.9377123" lon="12.4326578"><ele>422.6666666666667</ele><time>2026-03-29T08:36:01.136Z</time></trkpt><trkpt lat="43.9377401" lon="12.4325394"><ele>421.83333333333337</ele><time>2026-03-29T08:36:03.143Z</time></trkpt><trkpt lat="43.9377728" lon="12.4324242"><ele>421.0</ele><time>2026-03-29T08:36:05.098Z</time></trkpt><trkpt lat="43.9378128" lon="12.4323209"><ele>421.0</ele><time>2026-03-29T08:36:07.146Z</time></trkpt><trkpt lat="43.9378798" lon="12.4322211"><ele>421.0</ele><time>2026-03-29T08:36:09.132Z</time></trkpt><trkpt lat="43.9379586" lon="12.432141"><ele>421.0</ele><time>2026-03-29T08:36:11.137Z</time></trkpt><trkpt lat="43.9380394" lon="12.4320594"><ele>421.0</ele><time>2026-03-29T08:36:13.108Z</time></trkpt><trkpt lat="43.938116" lon="12.4319768"><ele>421.0</ele><time>2026-03-29T08:36:15.101Z</time></trkpt><trkpt lat="43.9381974" lon="12.4318988"><ele>422.4</ele><time>2026-03-29T08:36:17.139Z</time></trkpt><trkpt lat="43.9382771" lon="12.4318302"><ele>423.8</ele><time>2026-03-29T08:36:19.086Z</time></trkpt><trkpt lat="43.9383477" lon="12.4317547"><ele>425.19999999999993</ele><time>2026-03-29T08:36:21.12Z</time></trkpt><trkpt lat="43.9384221" lon="12.4316732"><ele>426.59999999999997</ele><time>2026-03-29T08:36:23.133Z</time></trkpt><trkpt lat="43.9384961" lon="12.4316004"><ele>428.0</ele><time>2026-03-29T08:36:25.128Z</time></trkpt><trkpt lat="43.9385735" lon="12.4315381"><ele>427.8333333333333</ele><time>2026-03-29T08:36:27.122Z</time></trkpt><trkpt lat="43.9386503" lon="12.4314651"><ele>427.66666666666663</ele><time>2026-03-29T08:36:29.133Z</time></trkpt><trkpt lat="43.9387212" lon="12.4313984"><ele>427.5</ele><time>2026-03-29T08:36:31.073Z</time></trkpt><trkpt lat="43.9387969" lon="12.43133"><ele>427.33333333333337</ele><time>2026-03-29T08:36:33.141Z</time></trkpt><trkpt lat="43.9388725" lon="12.43129"><ele>427.1666666666667</ele><time>2026-03-29T08:36:35.066Z</time></trkpt><trkpt lat="43.9389463" lon="12.4312451"><ele>427.0</ele><time>2026-03-29T08:36:37.065Z</time></trkpt><trkpt lat="43.9390285" lon="12.4311951"><ele>427.00000000000006</ele><time>2026-03-29T08:36:40.11Z</time></trkpt><trkpt lat="43.9390888" lon="12.4311558"><ele>427.0</ele><time>2026-03-29T08:36:42.08Z</time></trkpt><trkpt lat="43.9391472" lon="12.4311143"><ele>427.0</ele><time>2026-03-29T08:36:44.131Z</time></trkpt><trkpt lat="43.9392267" lon="12.4310556"><ele>427.0</ele><time>2026-03-29T08:36:47.146Z</time></trkpt><trkpt lat="43.9393051" lon="12.4310062"><ele>427.00000000000006</ele><time>2026-03-29T08:36:50.13Z</time></trkpt><trkpt lat="43.9393766" lon="12.4309568"><ele>427.0</ele><time>2026-03-29T08:36:53.131Z</time></trkpt><trkpt lat="43.9394585" lon="12.4309179"><ele>429.00000000000006</ele><time>2026-03-29T08:36:56.129Z</time></trkpt><trkpt lat="43.9395231" lon="12.4308916"><ele>431.0</ele><time>2026-03-29T08:36:58.119Z</time></trkpt><trkpt lat="43.9395857" lon="12.4308542"><ele>433.0</ele><time>2026-03-29T08:37:00.139Z</time></trkpt><trkpt lat="43.9396598" lon="12.4308199"><ele>435.0</ele><time>2026-03-29T08:37:03.113Z</time></trkpt><trkpt lat="43.9397398" lon="12.4307971"><ele>437.00000000000006</ele><time>2026-03-29T08:37:06.129Z</time></trkpt><trkpt lat="43.9398185" lon="12.430765"><ele>439.0</ele><time>2026-03-29T08:37:09.106Z</time></trkpt><trkpt lat="43.9399053" lon="12.4307428"><ele>439.00000000000006</ele><time>2026-03-29T08:37:12.132Z</time></trkpt><trkpt lat="43.9399952" lon="12.4306934"><ele>439.0</ele><time>2026-03-29T08:37:15.124Z</time></trkpt><trkpt lat="43.9400705" lon="12.430665"><ele>439.0</ele><time>2026-03-29T08:37:17.126Z</time></trkpt><trkpt lat="43.9401307" lon="12.430622"><ele>439.0</ele><time>2026-03-29T08:37:19.13Z</time></trkpt><trkpt lat="43.940199" lon="12.4305743"><ele>439.00000000000006</ele><time>2026-03-29T08:37:21.126Z</time></trkpt><trkpt lat="43.9402695" lon="12.4305244"><ele>439.0</ele><time>2026-03-29T08:37:23.121Z</time></trkpt><trkpt lat="43.9403289" lon="12.4304697"><ele>439.1428571428571</ele><time>2026-03-29T08:37:25.116Z</time></trkpt><trkpt lat="43.9403959" lon="12.4304186"><ele>439.2857142857143</ele><time>2026-03-29T08:37:27.12Z</time></trkpt><trkpt lat="43.9404579" lon="12.4303679"><ele>439.42857142857144</ele><time>2026-03-29T08:37:29.121Z</time></trkpt><trkpt lat="43.9405221" lon="12.4303155"><ele>439.57142857142856</ele><time>2026-03-29T08:37:31.133Z</time></trkpt><trkpt lat="43.9405885" lon="12.4302677"><ele>439.7142857142857</ele><time>2026-03-29T08:37:33.142Z</time></trkpt><trkpt lat="43.9406513" lon="12.4302236"><ele>439.85714285714283</ele><time>2026-03-29T08:37:35.115Z</time></trkpt><trkpt lat="43.9407178" lon="12.4301926"><ele>440.0</ele><time>2026-03-29T08:37:37.128Z</time></trkpt><trkpt lat="43.9407868" lon="12.4301546"><ele>439.99999999999994</ele><time>2026-03-29T08:37:40.094Z</time></trkpt><trkpt lat="43.9408571" lon="12.4301057"><ele>440.0</ele><time>2026-03-29T08:37:43.112Z</time></trkpt><trkpt lat="43.9409365" lon="12.4300628"><ele>440.0</ele><time>2026-03-29T08:37:46.123Z</time></trkpt><trkpt lat="43.9410025" lon="12.4300282"><ele>440.0</ele><time>2026-03-29T08:37:49.134Z</time></trkpt><trkpt lat="43.9410784" lon="12.4299813"><ele>439.99999999999994</ele><time>2026-03-29T08:37:52.146Z</time></trkpt><trkpt lat="43.9411548" lon="12.4299278"><ele>440.0</ele><time>2026-03-29T08:37:55.142Z</time></trkpt><trkpt lat="43.9412268" lon="12.4298737"><ele>440.99999999999994</ele><time>2026-03-29T08:37:58.144Z</time></trkpt><trkpt lat="43.941303" lon="12.4298206"><ele>442.0</ele><time>2026-03-29T08:38:01.159Z</time></trkpt><trkpt lat="43.9413639" lon="12.4297769"><ele>443.0</ele><time>2026-03-29T08:38:03.131Z</time></trkpt><trkpt lat="43.9414412" lon="12.4297209"><ele>444.0</ele><time>2026-03-29T08:38:06.122Z</time></trkpt><trkpt lat="43.9415138" lon="12.4296644"><ele>444.99999999999994</ele><time>2026-03-29T08:38:09.122Z</time></trkpt><trkpt lat="43.941596" lon="12.4295901"><ele>446.0</ele><time>2026-03-29T08:38:12.154Z</time></trkpt><trkpt lat="43.9416524" lon="12.4295302"><ele>446.0</ele><time>2026-03-29T08:38:14.141Z</time></trkpt><trkpt lat="43.9417039" lon="12.4294745"><ele>446.0</ele><time>2026-03-29T08:38:16.135Z</time></trkpt><trkpt lat="43.9417665" lon="12.4294073"><ele>446.0</ele><time>2026-03-29T08:38:18.121Z</time></trkpt><trkpt lat="43.941825" lon="12.429351"><ele>446.0</ele><time>2026-03-29T08:38:20.129Z</time></trkpt><trkpt lat="43.9418801" lon="12.4293075"><ele>446.0</ele><time>2026-03-29T08:38:22.131Z</time></trkpt><trkpt lat="43.9419471" lon="12.429263"><ele>446.0</ele><time>2026-03-29T08:38:25.123Z</time></trkpt><trkpt lat="43.942004" lon="12.4292113"><ele>446.0</ele><time>2026-03-29T08:38:29.136Z</time></trkpt><trkpt lat="43.9420459" lon="12.4291174"><ele>445.7142857142857</ele><time>2026-03-29T08:40:03.134Z</time></trkpt><trkpt lat="43.9421032" lon="12.4290697"><ele>445.42857142857144</ele><time>2026-03-29T08:40:09.136Z</time></trkpt><trkpt lat="43.9421562" lon="12.4290224"><ele>445.1428571428571</ele><time>2026-03-29T08:40:12.134Z</time></trkpt><trkpt lat="43.9422133" lon="12.428976"><ele>444.8571428571429</ele><time>2026-03-29T08:40:15.13Z</time></trkpt><trkpt lat="43.9422871" lon="12.4289343"><ele>444.5714285714286</ele><time>2026-03-29T08:40:19.136Z</time></trkpt><trkpt lat="43.9423426" lon="12.4288608"><ele>444.2857142857143</ele><time>2026-03-29T08:40:23.13Z</time></trkpt><trkpt lat="43.9423731" lon="12.4287516"><ele>444.0</ele><time>2026-03-29T08:40:26.129Z</time></trkpt><trkpt lat="43.9423852" lon="12.4285867"><ele>444.79999999999995</ele><time>2026-03-29T08:40:28.127Z</time></trkpt><trkpt lat="43.9423979" lon="12.4284984"><ele>445.59999999999997</ele><time>2026-03-29T08:40:29.144Z</time></trkpt><trkpt lat="43.9424618" lon="12.4283627"><ele>446.4</ele><time>2026-03-29T08:40:31.134Z</time></trkpt><trkpt lat="43.942542" lon="12.4282445"><ele>447.2</ele><time>2026-03-29T08:40:33.125Z</time></trkpt><trkpt lat="43.9425877" lon="12.4281209"><ele>448.0</ele><time>2026-03-29T08:40:35.112Z</time></trkpt><trkpt lat="43.9425386" lon="12.4280445"><ele>448.00000000000006</ele><time>2026-03-29T08:40:38.114Z</time></trkpt><trkpt lat="43.9424591" lon="12.4280539"><ele>448.0</ele><time>2026-03-29T08:40:40.116Z</time></trkpt><trkpt lat="43.9423462" lon="12.4280743"><ele>448.0</ele><time>2026-03-29T08:40:42.106Z</time></trkpt><trkpt lat="43.9422829" lon="12.4280904"><ele>448.0</ele><time>2026-03-29T08:40:43.131Z</time></trkpt><trkpt lat="43.9422141" lon="12.4281095"><ele>448.00000000000006</ele><time>2026-03-29T08:40:44.128Z</time></trkpt><trkpt lat="43.942153" lon="12.4281409"><ele>448.0</ele><time>2026-03-29T08:40:45.121Z</time></trkpt><trkpt lat="43.9420421" lon="12.4282062"><ele>448.0</ele><time>2026-03-29T08:40:47.14Z</time></trkpt><trkpt lat="43.9419545" lon="12.4283006"><ele>447.99999999999994</ele><time>2026-03-29T08:40:49.11Z</time></trkpt><trkpt lat="43.9418766" lon="12.4283944"><ele>447.99999999999994</ele><time>2026-03-29T08:40:51.129Z</time></trkpt><trkpt lat="43.9417888" lon="12.4284901"><ele>448.0</ele><time>2026-03-29T08:40:53.124Z</time></trkpt><trkpt lat="43.9417026" lon="12.4285869"><ele>448.0</ele><time>2026-03-29T08:40:55.107Z</time></trkpt><trkpt lat="43.9416276" lon="12.4286785"><ele>447.59999999999997</ele><time>2026-03-29T08:40:57.123Z</time></trkpt><trkpt lat="43.941552" lon="12.4287823"><ele>447.19999999999993</ele><time>2026-03-29T08:40:59.15Z</time></trkpt><trkpt lat="43.9415025" lon="12.4288388"><ele>446.8</ele><time>2026-03-29T08:41:00.126Z</time></trkpt><trkpt lat="43.9414299" lon="12.4289542"><ele>446.4</ele><time>2026-03-29T08:41:02.117Z</time></trkpt><trkpt lat="43.9413485" lon="12.4290007"><ele>446.0</ele><time>2026-03-29T08:41:04.146Z</time></trkpt><trkpt lat="43.9412497" lon="12.4289796"><ele>446.0</ele><time>2026-03-29T08:41:06.088Z</time></trkpt><trkpt lat="43.9412263" lon="12.4288843"><ele>446.0</ele><time>2026-03-29T08:41:10.105Z</time></trkpt><trkpt lat="43.9412658" lon="12.4287582"><ele>446.0</ele><time>2026-03-29T08:41:13.122Z</time></trkpt><trkpt lat="43.9413376" lon="12.4286005"><ele>446.0</ele><time>2026-03-29T08:41:15.127Z</time></trkpt><trkpt lat="43.9413764" lon="12.4285109"><ele>446.0</ele><time>2026-03-29T08:41:16.12Z</time></trkpt><trkpt lat="43.9414154" lon="12.428419"><ele>444.0</ele><time>2026-03-29T08:41:17.126Z</time></trkpt><trkpt lat="43.9414438" lon="12.4283232"><ele>442.0</ele><time>2026-03-29T08:41:18.127Z</time></trkpt><trkpt lat="43.9414796" lon="12.4282381"><ele>440.0</ele><time>2026-03-29T08:41:19.092Z</time></trkpt><trkpt lat="43.9415218" lon="12.4281582"><ele>438.0</ele><time>2026-03-29T08:41:20.12Z</time></trkpt><trkpt lat="43.9415587" lon="12.4280708"><ele>436.0</ele><time>2026-03-29T08:41:21.128Z</time></trkpt><trkpt lat="43.9415969" lon="12.4279827"><ele>434.0</ele><time>2026-03-29T08:41:22.061Z</time></trkpt><trkpt lat="43.941635" lon="12.4278855"><ele>432.0</ele><time>2026-03-29T08:41:23.058Z</time></trkpt><trkpt lat="43.9416543" lon="12.4277799"><ele>432.6666666666667</ele><time>2026-03-29T08:41:24.069Z</time></trkpt><trkpt lat="43.9416718" lon="12.4276588"><ele>433.33333333333337</ele><time>2026-03-29T08:41:25.062Z</time></trkpt><trkpt lat="43.9416974" lon="12.4275348"><ele>434.0</ele><time>2026-03-29T08:41:26.098Z</time></trkpt><trkpt lat="43.9417113" lon="12.4274089"><ele>434.6666666666667</ele><time>2026-03-29T08:41:27.069Z</time></trkpt><trkpt lat="43.9417446" lon="12.4272985"><ele>435.33333333333337</ele><time>2026-03-29T08:41:28.053Z</time></trkpt><trkpt lat="43.9417743" lon="12.4271945"><ele>436.0</ele><time>2026-03-29T08:41:29.073Z</time></trkpt><trkpt lat="43.9417977" lon="12.4270868"><ele>433.6666666666667</ele><time>2026-03-29T08:41:30.057Z</time></trkpt><trkpt lat="43.9418232" lon="12.4269896"><ele>431.33333333333337</ele><time>2026-03-29T08:41:31.066Z</time></trkpt><trkpt lat="43.9418555" lon="12.4268907"><ele>429.0</ele><time>2026-03-29T08:41:32.059Z</time></trkpt><trkpt lat="43.9418886" lon="12.4267998"><ele>426.66666666666663</ele><time>2026-03-29T08:41:33.057Z</time></trkpt><trkpt lat="43.9419262" lon="12.4267113"><ele>424.3333333333333</ele><time>2026-03-29T08:41:34.063Z</time></trkpt><trkpt lat="43.9419634" lon="12.4266356"><ele>422.0</ele><time>2026-03-29T08:41:35.053Z</time></trkpt><trkpt lat="43.9420332" lon="12.4264909"><ele>422.0</ele><time>2026-03-29T08:41:37.05Z</time></trkpt><trkpt lat="43.9420882" lon="12.4263523"><ele>422.0</ele><time>2026-03-29T08:41:39.059Z</time></trkpt><trkpt lat="43.9421344" lon="12.4262137"><ele>422.0</ele><time>2026-03-29T08:41:41.055Z</time></trkpt><trkpt lat="43.9421732" lon="12.4260759"><ele>422.0</ele><time>2026-03-29T08:41:43.06Z</time></trkpt><trkpt lat="43.9422121" lon="12.4259404"><ele>422.0</ele><time>2026-03-29T08:41:45.058Z</time></trkpt><trkpt lat="43.9422441" lon="12.4258268"><ele>420.66666666666663</ele><time>2026-03-29T08:41:47.056Z</time></trkpt><trkpt lat="43.9422789" lon="12.425715"><ele>419.3333333333333</ele><time>2026-03-29T08:41:49.075Z</time></trkpt><trkpt lat="43.9423104" lon="12.4256017"><ele>418.0</ele><time>2026-03-29T08:41:51.057Z</time></trkpt><trkpt lat="43.9423433" lon="12.4255023"><ele>416.66666666666663</ele><time>2026-03-29T08:41:53.053Z</time></trkpt><trkpt lat="43.9423796" lon="12.425418"><ele>415.3333333333333</ele><time>2026-03-29T08:41:55.057Z</time></trkpt><trkpt lat="43.9424127" lon="12.4253275"><ele>414.0</ele><time>2026-03-29T08:41:57.057Z</time></trkpt><trkpt lat="43.9424458" lon="12.425211"><ele>412.4</ele><time>2026-03-29T08:41:59.062Z</time></trkpt><trkpt lat="43.9424998" lon="12.425064"><ele>410.79999999999995</ele><time>2026-03-29T08:42:01.058Z</time></trkpt><trkpt lat="43.9425366" lon="12.424893"><ele>409.20000000000005</ele><time>2026-03-29T08:42:03.069Z</time></trkpt><trkpt lat="43.9425459" lon="12.4247982"><ele>407.6</ele><time>2026-03-29T08:42:04.059Z</time></trkpt><trkpt lat="43.9425518" lon="12.4247029"><ele>406.0</ele><time>2026-03-29T08:42:05.057Z</time></trkpt><trkpt lat="43.9425522" lon="12.4245461"><ele>409.33333333333337</ele><time>2026-03-29T08:42:07.06Z</time></trkpt><trkpt lat="43.942559" lon="12.4244416"><ele>412.6666666666667</ele><time>2026-03-29T08:42:09.068Z</time></trkpt><trkpt lat="43.9425704" lon="12.4243176"><ele>416.0</ele><time>2026-03-29T08:42:11.068Z</time></trkpt><trkpt lat="43.942561" lon="12.4241788"><ele>419.33333333333337</ele><time>2026-03-29T08:42:13.059Z</time></trkpt><trkpt lat="43.9425564" lon="12.4240284"><ele>422.6666666666667</ele><time>2026-03-29T08:42:15.059Z</time></trkpt><trkpt lat="43.9425708" lon="12.4239429"><ele>426.0</ele><time>2026-03-29T08:42:16.056Z</time></trkpt><trkpt lat="43.9425985" lon="12.4238486"><ele>424.4285714285714</ele><time>2026-03-29T08:42:17.074Z</time></trkpt><trkpt lat="43.9426225" lon="12.4237503"><ele>422.85714285714283</ele><time>2026-03-29T08:42:18.056Z</time></trkpt><trkpt lat="43.9426494" lon="12.4236484"><ele>421.2857142857143</ele><time>2026-03-29T08:42:19.056Z</time></trkpt><trkpt lat="43.9426824" lon="12.4235518"><ele>419.71428571428567</ele><time>2026-03-29T08:42:20.06Z</time></trkpt><trkpt lat="43.9427172" lon="12.4234635"><ele>418.14285714285717</ele><time>2026-03-29T08:42:21.055Z</time></trkpt><trkpt lat="43.9427462" lon="12.4233778"><ele>416.57142857142856</ele><time>2026-03-29T08:42:22.06Z</time></trkpt><trkpt lat="43.9427731" lon="12.4232871"><ele>415.0</ele><time>2026-03-29T08:42:23.111Z</time></trkpt><trkpt lat="43.9427971" lon="12.4231919"><ele>415.00000000000006</ele><time>2026-03-29T08:42:24.082Z</time></trkpt><trkpt lat="43.9428223" lon="12.4230883"><ele>415.0</ele><time>2026-03-29T08:42:25.057Z</time></trkpt><trkpt lat="43.9428407" lon="12.4229836"><ele>415.0</ele><time>2026-03-29T08:42:26.05Z</time></trkpt><trkpt lat="43.9428648" lon="12.4228818"><ele>415.0</ele><time>2026-03-29T08:42:27.056Z</time></trkpt><trkpt lat="43.9428859" lon="12.422779"><ele>415.00000000000006</ele><time>2026-03-29T08:42:28.055Z</time></trkpt><trkpt lat="43.9429114" lon="12.4226747"><ele>415.0</ele><time>2026-03-29T08:42:29.075Z</time></trkpt><trkpt lat="43.9429328" lon="12.4225673"><ele>412.83333333333337</ele><time>2026-03-29T08:42:30.072Z</time></trkpt><trkpt lat="43.9429607" lon="12.4224584"><ele>410.6666666666667</ele><time>2026-03-29T08:42:31.058Z</time></trkpt><trkpt lat="43.9429874" lon="12.4223458"><ele>408.5</ele><time>2026-03-29T08:42:32.056Z</time></trkpt><trkpt lat="43.9430169" lon="12.4222328"><ele>406.33333333333337</ele><time>2026-03-29T08:42:33.056Z</time></trkpt><trkpt lat="43.9430498" lon="12.4221277"><ele>404.1666666666667</ele><time>2026-03-29T08:42:34.055Z</time></trkpt><trkpt lat="43.9430873" lon="12.4220293"><ele>402.0</ele><time>2026-03-29T08:42:35.081Z</time></trkpt><trkpt lat="43.9431193" lon="12.421934"><ele>399.8333333333333</ele><time>2026-03-29T08:42:36.12Z</time></trkpt><trkpt lat="43.9431572" lon="12.4218414"><ele>397.66666666666663</ele><time>2026-03-29T08:42:37.104Z</time></trkpt><trkpt lat="43.9431977" lon="12.4217564"><ele>395.5</ele><time>2026-03-29T08:42:38.111Z</time></trkpt><trkpt lat="43.9432372" lon="12.4216758"><ele>393.3333333333333</ele><time>2026-03-29T08:42:39.057Z</time></trkpt><trkpt lat="43.9432726" lon="12.4215885"><ele>391.16666666666663</ele><time>2026-03-29T08:42:40.056Z</time></trkpt><trkpt lat="43.943309" lon="12.4215131"><ele>389.0</ele><time>2026-03-29T08:42:41.056Z</time></trkpt><trkpt lat="43.9433695" lon="12.4213779"><ele>386.0</ele><time>2026-03-29T08:42:43.085Z</time></trkpt><trkpt lat="43.9434114" lon="12.4212759"><ele>383.0</ele><time>2026-03-29T08:42:45.105Z</time></trkpt><trkpt lat="43.9434878" lon="12.4212084"><ele>380.0</ele><time>2026-03-29T08:42:48.083Z</time></trkpt><trkpt lat="43.9435956" lon="12.4212386"><ele>377.0</ele><time>2026-03-29T08:42:50.067Z</time></trkpt><trkpt lat="43.9437212" lon="12.4212732"><ele>374.0</ele><time>2026-03-29T08:42:52.121Z</time></trkpt><trkpt lat="43.9437828" lon="12.4212972"><ele>373.4</ele><time>2026-03-29T08:42:53.055Z</time></trkpt><trkpt lat="43.9438849" lon="12.4213581"><ele>372.79999999999995</ele><time>2026-03-29T08:42:55.054Z</time></trkpt><trkpt lat="43.9439564" lon="12.4213975"><ele>372.20000000000005</ele><time>2026-03-29T08:42:58.083Z</time></trkpt><trkpt lat="43.9440364" lon="12.4214144"><ele>371.6</ele><time>2026-03-29T08:43:01.055Z</time></trkpt><trkpt lat="43.944138" lon="12.4214568"><ele>371.0</ele><time>2026-03-29T08:43:03.078Z</time></trkpt><trkpt lat="43.9442722" lon="12.4214972"><ele>371.0</ele><time>2026-03-29T08:43:05.054Z</time></trkpt><trkpt lat="43.9443461" lon="12.4215171"><ele>371.0</ele><time>2026-03-29T08:43:06.056Z</time></trkpt><trkpt lat="43.9444241" lon="12.4215167"><ele>371.0</ele><time>2026-03-29T08:43:07.055Z</time></trkpt><trkpt lat="43.9445071" lon="12.4214948"><ele>371.0</ele><time>2026-03-29T08:43:08.081Z</time></trkpt><trkpt lat="43.9445894" lon="12.4214757"><ele>371.0</ele><time>2026-03-29T08:43:09.07Z</time></trkpt><trkpt lat="43.9446581" lon="12.4214632"><ele>371.0</ele><time>2026-03-29T08:43:10.082Z</time></trkpt><trkpt lat="43.9447369" lon="12.4214526"><ele>371.0</ele><time>2026-03-29T08:43:11.106Z</time></trkpt><trkpt lat="43.9448113" lon="12.4214435"><ele>371.0</ele><time>2026-03-29T08:43:12.054Z</time></trkpt><trkpt lat="43.9448811" lon="12.4214505"><ele>371.0</ele><time>2026-03-29T08:43:13.054Z</time></trkpt><trkpt lat="43.9449895" lon="12.4214847"><ele>371.0</ele><time>2026-03-29T08:43:15.082Z</time></trkpt><trkpt lat="43.9450432" lon="12.4216054"><ele>371.0</ele><time>2026-03-29T08:43:18.054Z</time></trkpt><trkpt lat="43.9451184" lon="12.421736"><ele>367.0</ele><time>2026-03-29T08:43:20.054Z</time></trkpt><trkpt lat="43.9451838" lon="12.4218238"><ele>363.0</ele><time>2026-03-29T08:43:22.087Z</time></trkpt><trkpt lat="43.9451848" lon="12.4219522"><ele>359.0</ele><time>2026-03-29T08:43:24.111Z</time></trkpt><trkpt lat="43.9451871" lon="12.4220766"><ele>355.0</ele><time>2026-03-29T08:43:26.057Z</time></trkpt><trkpt lat="43.9452178" lon="12.4221777"><ele>351.0</ele><time>2026-03-29T08:43:28.073Z</time></trkpt><trkpt lat="43.9452811" lon="12.4222571"><ele>347.0</ele><time>2026-03-29T08:43:30.051Z</time></trkpt><trkpt lat="43.9453564" lon="12.422333"><ele>347.0</ele><time>2026-03-29T08:43:32.047Z</time></trkpt><trkpt lat="43.9454123" lon="12.4223978"><ele>347.0</ele><time>2026-03-29T08:43:34.091Z</time></trkpt><trkpt lat="43.9455156" lon="12.4223912"><ele>347.0</ele><time>2026-03-29T08:43:36.055Z</time></trkpt><trkpt lat="43.9455797" lon="12.4223683"><ele>347.0</ele><time>2026-03-29T08:43:37.047Z</time></trkpt><trkpt lat="43.9456894" lon="12.4223077"><ele>347.0</ele><time>2026-03-29T08:43:39.074Z</time></trkpt><trkpt lat="43.9458056" lon="12.4222889"><ele>347.0</ele><time>2026-03-29T08:43:41.08Z</time></trkpt><trkpt lat="43.9458703" lon="12.4222945"><ele>347.0</ele><time>2026-03-29T08:43:42.05Z</time></trkpt><trkpt lat="43.9459982" lon="12.4223409"><ele>347.0</ele><time>2026-03-29T08:43:44.048Z</time></trkpt><trkpt lat="43.9460687" lon="12.4223856"><ele>347.0</ele><time>2026-03-29T08:43:45.07Z</time></trkpt><trkpt lat="43.9461442" lon="12.4224367"><ele>347.0</ele><time>2026-03-29T08:43:46.09Z</time></trkpt><trkpt lat="43.9462105" lon="12.4224832"><ele>347.0</ele><time>2026-03-29T08:43:47.096Z</time></trkpt><trkpt lat="43.9462781" lon="12.4225389"><ele>342.6666666666667</ele><time>2026-03-29T08:43:48.05Z</time></trkpt><trkpt lat="43.9463394" lon="12.4225956"><ele>338.33333333333337</ele><time>2026-03-29T08:43:49.05Z</time></trkpt><trkpt lat="43.946401" lon="12.4226572"><ele>334.0</ele><time>2026-03-29T08:43:50.068Z</time></trkpt><trkpt lat="43.9464664" lon="12.4227157"><ele>329.6666666666667</ele><time>2026-03-29T08:43:51.082Z</time></trkpt><trkpt lat="43.9465398" lon="12.4227899"><ele>325.3333333333333</ele><time>2026-03-29T08:43:52.108Z</time></trkpt><trkpt lat="43.9466207" lon="12.4228715"><ele>321.0</ele><time>2026-03-29T08:43:53.067Z</time></trkpt><trkpt lat="43.9467054" lon="12.4229481"><ele>319.1666666666667</ele><time>2026-03-29T08:43:54.057Z</time></trkpt><trkpt lat="43.9467803" lon="12.4230279"><ele>317.3333333333333</ele><time>2026-03-29T08:43:55.059Z</time></trkpt><trkpt lat="43.9468572" lon="12.423131"><ele>315.5</ele><time>2026-03-29T08:43:56.093Z</time></trkpt><trkpt lat="43.9469189" lon="12.4232445"><ele>313.66666666666663</ele><time>2026-03-29T08:43:57.098Z</time></trkpt><trkpt lat="43.9469267" lon="12.4233371"><ele>311.8333333333333</ele><time>2026-03-29T08:43:58.113Z</time></trkpt><trkpt lat="43.9469199" lon="12.4234262"><ele>310.0</ele><time>2026-03-29T08:43:59.056Z</time></trkpt><trkpt lat="43.9468841" lon="12.4235032"><ele>310.0</ele><time>2026-03-29T08:44:00.054Z</time></trkpt><trkpt lat="43.9468261" lon="12.4236544"><ele>310.0</ele><time>2026-03-29T08:44:02.094Z</time></trkpt><trkpt lat="43.9468286" lon="12.4238051"><ele>310.0</ele><time>2026-03-29T08:44:04.108Z</time></trkpt><trkpt lat="43.9468532" lon="12.4238876"><ele>310.0</ele><time>2026-03-29T08:44:05.058Z</time></trkpt><trkpt lat="43.9469" lon="12.4239498"><ele>310.0</ele><time>2026-03-29T08:44:06.055Z</time></trkpt><trkpt lat="43.9469699" lon="12.4240265"><ele>310.6</ele><time>2026-03-29T08:44:08.086Z</time></trkpt><trkpt lat="43.9469753" lon="12.4241585"><ele>311.2</ele><time>2026-03-29T08:44:11.055Z</time></trkpt><trkpt lat="43.9470287" lon="12.4242691"><ele>311.8</ele><time>2026-03-29T08:44:13.077Z</time></trkpt><trkpt lat="43.9471222" lon="12.4242764"><ele>312.4</ele><time>2026-03-29T08:44:15.12Z</time></trkpt><trkpt lat="43.9472193" lon="12.4242998"><ele>313.0</ele><time>2026-03-29T08:44:17.059Z</time></trkpt><trkpt lat="43.9472785" lon="12.424345"><ele>313.0</ele><time>2026-03-29T08:44:18.061Z</time></trkpt><trkpt lat="43.9473524" lon="12.4243743"><ele>313.0</ele><time>2026-03-29T08:44:19.084Z</time></trkpt><trkpt lat="43.9474439" lon="12.4243731"><ele>313.0</ele><time>2026-03-29T08:44:20.118Z</time></trkpt><trkpt lat="43.9475365" lon="12.4243398"><ele>313.0</ele><time>2026-03-29T08:44:21.13Z</time></trkpt><trkpt lat="43.947626" lon="12.4242876"><ele>313.0</ele><time>2026-03-29T08:44:22.056Z</time></trkpt><trkpt lat="43.9477241" lon="12.4242528"><ele>309.6</ele><time>2026-03-29T08:44:23.058Z</time></trkpt><trkpt lat="43.9478189" lon="12.4242452"><ele>306.20000000000005</ele><time>2026-03-29T08:44:24.061Z</time></trkpt><trkpt lat="43.9479232" lon="12.4242544"><ele>302.8</ele><time>2026-03-29T08:44:25.086Z</time></trkpt><trkpt lat="43.9480197" lon="12.4242797"><ele>299.40000000000003</ele><time>2026-03-29T08:44:26.115Z</time></trkpt><trkpt lat="43.9481126" lon="12.4242975"><ele>296.0</ele><time>2026-03-29T08:44:27.064Z</time></trkpt><trkpt lat="43.9482053" lon="12.4243038"><ele>296.0</ele><time>2026-03-29T08:44:28.065Z</time></trkpt><trkpt lat="43.9482924" lon="12.4243136"><ele>296.0</ele><time>2026-03-29T08:44:29.058Z</time></trkpt><trkpt lat="43.9483798" lon="12.4243261"><ele>296.0</ele><time>2026-03-29T08:44:30.075Z</time></trkpt><trkpt lat="43.9484609" lon="12.4243351"><ele>296.0</ele><time>2026-03-29T08:44:31.085Z</time></trkpt><trkpt lat="43.9485317" lon="12.4243329"><ele>296.0</ele><time>2026-03-29T08:44:32.059Z</time></trkpt><trkpt lat="43.948626" lon="12.4243693"><ele>296.0</ele><time>2026-03-29T08:44:34.057Z</time></trkpt><trkpt lat="43.9486642" lon="12.4244875"><ele>293.5</ele><time>2026-03-29T08:44:36.098Z</time></trkpt><trkpt lat="43.9486707" lon="12.4246249"><ele>291.0</ele><time>2026-03-29T08:44:38.056Z</time></trkpt><trkpt lat="43.9486455" lon="12.4247388"><ele>288.5</ele><time>2026-03-29T08:44:40.076Z</time></trkpt><trkpt lat="43.9485986" lon="12.424838"><ele>286.0</ele><time>2026-03-29T08:44:42.083Z</time></trkpt><trkpt lat="43.9485878" lon="12.4249285"><ele>283.5</ele><time>2026-03-29T08:44:44.056Z</time></trkpt><trkpt lat="43.948621" lon="12.4250408"><ele>281.0</ele><time>2026-03-29T08:44:46.106Z</time></trkpt><trkpt lat="43.9486872" lon="12.4251966"><ele>281.0</ele><time>2026-03-29T08:44:48.058Z</time></trkpt><trkpt lat="43.9487473" lon="12.425323"><ele>281.0</ele><time>2026-03-29T08:44:50.082Z</time></trkpt><trkpt lat="43.9488261" lon="12.4253639"><ele>281.0</ele><time>2026-03-29T08:44:53.065Z</time></trkpt><trkpt lat="43.9489648" lon="12.4253299"><ele>281.0</ele><time>2026-03-29T08:44:55.07Z</time></trkpt><trkpt lat="43.9490586" lon="12.4253327"><ele>281.0</ele><time>2026-03-29T08:44:56.06Z</time></trkpt><trkpt lat="43.9491362" lon="12.4253272"><ele>278.6666666666667</ele><time>2026-03-29T08:44:57.061Z</time></trkpt><trkpt lat="43.9492168" lon="12.4253646"><ele>276.33333333333337</ele><time>2026-03-29T08:44:58.058Z</time></trkpt><trkpt lat="43.9492811" lon="12.425438"><ele>274.0</ele><time>2026-03-29T08:44:59.057Z</time></trkpt><trkpt lat="43.9493315" lon="12.4255299"><ele>271.6666666666667</ele><time>2026-03-29T08:45:00.059Z</time></trkpt><trkpt lat="43.9493525" lon="12.4256367"><ele>269.3333333333333</ele><time>2026-03-29T08:45:01.056Z</time></trkpt><trkpt lat="43.949348" lon="12.4257577"><ele>267.0</ele><time>2026-03-29T08:45:02.055Z</time></trkpt><trkpt lat="43.9493317" lon="12.4258932"><ele>267.0</ele><time>2026-03-29T08:45:03.06Z</time></trkpt><trkpt lat="43.9493113" lon="12.4260249"><ele>267.0</ele><time>2026-03-29T08:45:04.065Z</time></trkpt><trkpt lat="43.9492847" lon="12.4261507"><ele>267.0</ele><time>2026-03-29T08:45:05.057Z</time></trkpt><trkpt lat="43.949254" lon="12.4262725"><ele>267.0</ele><time>2026-03-29T08:45:06.082Z</time></trkpt><trkpt lat="43.9492252" lon="12.4263922"><ele>267.0</ele><time>2026-03-29T08:45:07.086Z</time></trkpt><trkpt lat="43.9491981" lon="12.426503"><ele>268.3333333333333</ele><time>2026-03-29T08:45:08.063Z</time></trkpt><trkpt lat="43.9491737" lon="12.4266148"><ele>269.6666666666667</ele><time>2026-03-29T08:45:09.062Z</time></trkpt><trkpt lat="43.9491483" lon="12.426727"><ele>271.0</ele><time>2026-03-29T08:45:10.059Z</time></trkpt><trkpt lat="43.9491215" lon="12.4268237"><ele>272.33333333333337</ele><time>2026-03-29T08:45:11.072Z</time></trkpt><trkpt lat="43.9490964" lon="12.426921"><ele>273.6666666666667</ele><time>2026-03-29T08:45:12.109Z</time></trkpt><trkpt lat="43.949072" lon="12.4270258"><ele>275.0</ele><time>2026-03-29T08:45:13.117Z</time></trkpt><trkpt lat="43.949052" lon="12.4271199"><ele>275.1666666666667</ele><time>2026-03-29T08:45:14.069Z</time></trkpt><trkpt lat="43.9490414" lon="12.4272324"><ele>275.33333333333337</ele><time>2026-03-29T08:45:15.074Z</time></trkpt><trkpt lat="43.9490634" lon="12.427334"><ele>275.5</ele><time>2026-03-29T08:45:16.063Z</time></trkpt><trkpt lat="43.9491137" lon="12.4273966"><ele>275.6666666666667</ele><time>2026-03-29T08:45:17.086Z</time></trkpt><trkpt lat="43.9491748" lon="12.427442"><ele>275.8333333333333</ele><time>2026-03-29T08:45:18.113Z</time></trkpt><trkpt lat="43.9492378" lon="12.4275074"><ele>276.0</ele><time>2026-03-29T08:45:19.072Z</time></trkpt><trkpt lat="43.9493047" lon="12.4275847"><ele>273.8</ele><time>2026-03-29T08:45:20.069Z</time></trkpt><trkpt lat="43.949379" lon="12.427662"><ele>271.6</ele><time>2026-03-29T08:45:21.06Z</time></trkpt><trkpt lat="43.9494639" lon="12.4277352"><ele>269.4</ele><time>2026-03-29T08:45:22.08Z</time></trkpt><trkpt lat="43.9495465" lon="12.4277902"><ele>267.2</ele><time>2026-03-29T08:45:23.099Z</time></trkpt><trkpt lat="43.949636" lon="12.4278227"><ele>265.0</ele><time>2026-03-29T08:45:24.128Z</time></trkpt><trkpt lat="43.949728" lon="12.427791"><ele>265.0</ele><time>2026-03-29T08:45:25.062Z</time></trkpt><trkpt lat="43.9498056" lon="12.4277146"><ele>265.0</ele><time>2026-03-29T08:45:26.059Z</time></trkpt><trkpt lat="43.9498781" lon="12.4276299"><ele>265.0</ele><time>2026-03-29T08:45:27.081Z</time></trkpt><trkpt lat="43.9499408" lon="12.4275484"><ele>265.0</ele><time>2026-03-29T08:45:28.114Z</time></trkpt><trkpt lat="43.9500137" lon="12.4274857"><ele>265.0</ele><time>2026-03-29T08:45:29.107Z</time></trkpt><trkpt lat="43.9500909" lon="12.4274336"><ele>265.0</ele><time>2026-03-29T08:45:30.1Z</time></trkpt><trkpt lat="43.9501778" lon="12.4274043"><ele>264.6</ele><time>2026-03-29T08:45:31.06Z</time></trkpt><trkpt lat="43.9502735" lon="12.4273928"><ele>264.2</ele><time>2026-03-29T08:45:32.058Z</time></trkpt><trkpt lat="43.9503675" lon="12.4273916"><ele>263.8</ele><time>2026-03-29T08:45:33.081Z</time></trkpt><trkpt lat="43.9504689" lon="12.4273856"><ele>263.4</ele><time>2026-03-29T08:45:34.115Z</time></trkpt><trkpt lat="43.9505644" lon="12.427367"><ele>263.0</ele><time>2026-03-29T08:45:35.058Z</time></trkpt><trkpt lat="43.9506602" lon="12.4273515"><ele>263.0</ele><time>2026-03-29T08:45:36.058Z</time></trkpt><trkpt lat="43.9507626" lon="12.4273186"><ele>263.0</ele><time>2026-03-29T08:45:37.083Z</time></trkpt><trkpt lat="43.9508597" lon="12.4273004"><ele>263.0</ele><time>2026-03-29T08:45:38.109Z</time></trkpt><trkpt lat="43.950963" lon="12.4272908"><ele>263.0</ele><time>2026-03-29T08:45:39.072Z</time></trkpt><trkpt lat="43.9510662" lon="12.4272975"><ele>263.0</ele><time>2026-03-29T08:45:40.064Z</time></trkpt><trkpt lat="43.9511702" lon="12.4273119"><ele>261.25</ele><time>2026-03-29T08:45:41.082Z</time></trkpt><trkpt lat="43.9512787" lon="12.4273204"><ele>259.5</ele><time>2026-03-29T08:45:42.117Z</time></trkpt><trkpt lat="43.9513948" lon="12.4273147"><ele>257.75</ele><time>2026-03-29T08:45:43.072Z</time></trkpt><trkpt lat="43.9515123" lon="12.4273014"><ele>256.0</ele><time>2026-03-29T08:45:44.063Z</time></trkpt><trkpt lat="43.9516324" lon="12.4272873"><ele>255.4</ele><time>2026-03-29T08:45:45.084Z</time></trkpt><trkpt lat="43.9517449" lon="12.4272664"><ele>254.8</ele><time>2026-03-29T08:45:46.089Z</time></trkpt><trkpt lat="43.9518494" lon="12.4272142"><ele>254.20000000000002</ele><time>2026-03-29T08:45:47.116Z</time></trkpt><trkpt lat="43.9519389" lon="12.4271282"><ele>253.60000000000002</ele><time>2026-03-29T08:45:48.057Z</time></trkpt><trkpt lat="43.9520076" lon="12.4270187"><ele>253.0</ele><time>2026-03-29T08:45:49.064Z</time></trkpt><trkpt lat="43.9520525" lon="12.4269209"><ele>252.99999999999997</ele><time>2026-03-29T08:45:50.061Z</time></trkpt><trkpt lat="43.9520831" lon="12.4268249"><ele>253.0</ele><time>2026-03-29T08:45:51.111Z</time></trkpt><trkpt lat="43.9521034" lon="12.42672"><ele>253.0</ele><time>2026-03-29T08:45:52.092Z</time></trkpt><trkpt lat="43.9521318" lon="12.42661"><ele>253.0</ele><time>2026-03-29T08:45:53.073Z</time></trkpt><trkpt lat="43.9521629" lon="12.426511"><ele>252.99999999999997</ele><time>2026-03-29T08:45:54.075Z</time></trkpt><trkpt lat="43.9521818" lon="12.4263945"><ele>253.0</ele><time>2026-03-29T08:45:55.065Z</time></trkpt><trkpt lat="43.9521946" lon="12.4262685"><ele>250.2</ele><time>2026-03-29T08:45:56.119Z</time></trkpt><trkpt lat="43.9522011" lon="12.4261242"><ele>247.4</ele><time>2026-03-29T08:45:57.07Z</time></trkpt><trkpt lat="43.9522148" lon="12.4259683"><ele>244.59999999999997</ele><time>2026-03-29T08:45:58.073Z</time></trkpt><trkpt lat="43.9522228" lon="12.4258032"><ele>241.79999999999998</ele><time>2026-03-29T08:45:59.059Z</time></trkpt><trkpt lat="43.9522307" lon="12.4256477"><ele>239.0</ele><time>2026-03-29T08:46:00.077Z</time></trkpt><trkpt lat="43.9522378" lon="12.4254924"><ele>237.0</ele><time>2026-03-29T08:46:01.104Z</time></trkpt><trkpt lat="43.9522568" lon="12.4253447"><ele>234.99999999999997</ele><time>2026-03-29T08:46:02.064Z</time></trkpt><trkpt lat="43.9522661" lon="12.4252022"><ele>232.99999999999997</ele><time>2026-03-29T08:46:03.063Z</time></trkpt><trkpt lat="43.9522805" lon="12.4250619"><ele>231.0</ele><time>2026-03-29T08:46:04.056Z</time></trkpt><trkpt lat="43.9523044" lon="12.4249276"><ele>229.0</ele><time>2026-03-29T08:46:05.079Z</time></trkpt><trkpt lat="43.9523442" lon="12.4248051"><ele>229.0</ele><time>2026-03-29T08:46:06.108Z</time></trkpt><trkpt lat="43.9524001" lon="12.4246992"><ele>228.99999999999997</ele><time>2026-03-29T08:46:07.114Z</time></trkpt><trkpt lat="43.952484" lon="12.4246103"><ele>228.99999999999997</ele><time>2026-03-29T08:46:08.062Z</time></trkpt><trkpt lat="43.952579" lon="12.4245403"><ele>229.0</ele><time>2026-03-29T08:46:09.058Z</time></trkpt><trkpt lat="43.9526898" lon="12.4244788"><ele>229.0</ele><time>2026-03-29T08:46:10.058Z</time></trkpt><trkpt lat="43.9528059" lon="12.4244342"><ele>227.79999999999998</ele><time>2026-03-29T08:46:11.061Z</time></trkpt><trkpt lat="43.9529191" lon="12.4243915"><ele>226.59999999999997</ele><time>2026-03-29T08:46:12.073Z</time></trkpt><trkpt lat="43.9530246" lon="12.4243365"><ele>225.4</ele><time>2026-03-29T08:46:13.059Z</time></trkpt><trkpt lat="43.953108" lon="12.4242781"><ele>224.2</ele><time>2026-03-29T08:46:14.058Z</time></trkpt><trkpt lat="43.9531753" lon="12.4242196"><ele>223.0</ele><time>2026-03-29T08:46:15.097Z</time></trkpt><trkpt lat="43.953225" lon="12.4241569"><ele>223.0</ele><time>2026-03-29T08:46:16.091Z</time></trkpt><trkpt lat="43.9532689" lon="12.4240025"><ele>223.0</ele><time>2026-03-29T08:46:18.057Z</time></trkpt><trkpt lat="43.9532688" lon="12.4239083"><ele>223.0</ele><time>2026-03-29T08:46:19.063Z</time></trkpt><trkpt lat="43.9532619" lon="12.4237193"><ele>223.0</ele><time>2026-03-29T08:46:21.088Z</time></trkpt><trkpt lat="43.9532603" lon="12.4236183"><ele>223.0</ele><time>2026-03-29T08:46:22.063Z</time></trkpt><trkpt lat="43.9532605" lon="12.4235095"><ele>222.60000000000002</ele><time>2026-03-29T08:46:23.064Z</time></trkpt><trkpt lat="43.9532239" lon="12.4233977"><ele>222.20000000000002</ele><time>2026-03-29T08:46:24.08Z</time></trkpt><trkpt lat="43.9531561" lon="12.4233094"><ele>221.8</ele><time>2026-03-29T08:46:25.081Z</time></trkpt><trkpt lat="43.9530726" lon="12.4232326"><ele>221.4</ele><time>2026-03-29T08:46:26.11Z</time></trkpt><trkpt lat="43.9529874" lon="12.4231744"><ele>221.0</ele><time>2026-03-29T08:46:27.058Z</time></trkpt><trkpt lat="43.9529007" lon="12.4230981"><ele>221.00000000000003</ele><time>2026-03-29T08:46:28.059Z</time></trkpt><trkpt lat="43.952821" lon="12.4230194"><ele>221.0</ele><time>2026-03-29T08:46:29.061Z</time></trkpt><trkpt lat="43.9527446" lon="12.4229445"><ele>221.0</ele><time>2026-03-29T08:46:30.105Z</time></trkpt><trkpt lat="43.9526668" lon="12.4228712"><ele>221.0</ele><time>2026-03-29T08:46:31.108Z</time></trkpt><trkpt lat="43.9525869" lon="12.4228316"><ele>221.00000000000003</ele><time>2026-03-29T08:46:32.06Z</time></trkpt><trkpt lat="43.9525091" lon="12.422832"><ele>221.0</ele><time>2026-03-29T08:46:33.055Z</time></trkpt><trkpt lat="43.9524218" lon="12.4228446"><ele>219.00000000000003</ele><time>2026-03-29T08:46:34.081Z</time></trkpt><trkpt lat="43.9523299" lon="12.4228558"><ele>217.0</ele><time>2026-03-29T08:46:35.105Z</time></trkpt><trkpt lat="43.9522544" lon="12.4228487"><ele>215.0</ele><time>2026-03-29T08:46:36.104Z</time></trkpt><trkpt lat="43.9521854" lon="12.4228343"><ele>213.0</ele><time>2026-03-29T08:46:37.065Z</time></trkpt><trkpt lat="43.9521084" lon="12.4228062"><ele>211.00000000000003</ele><time>2026-03-29T08:46:38.06Z</time></trkpt><trkpt lat="43.9520266" lon="12.4227687"><ele>209.0</ele><time>2026-03-29T08:46:39.053Z</time></trkpt><trkpt lat="43.9519494" lon="12.4227221"><ele>209.00000000000003</ele><time>2026-03-29T08:46:40.108Z</time></trkpt><trkpt lat="43.951878" lon="12.4226687"><ele>209.0</ele><time>2026-03-29T08:46:41.109Z</time></trkpt><trkpt lat="43.9518051" lon="12.422616"><ele>209.0</ele><time>2026-03-29T08:46:42.064Z</time></trkpt><trkpt lat="43.9517343" lon="12.4225667"><ele>209.0</ele><time>2026-03-29T08:46:43.058Z</time></trkpt><trkpt lat="43.9516559" lon="12.4224913"><ele>209.00000000000003</ele><time>2026-03-29T08:46:44.071Z</time></trkpt><trkpt lat="43.9515878" lon="12.4224031"><ele>209.0</ele><time>2026-03-29T08:46:45.099Z</time></trkpt><trkpt lat="43.9515234" lon="12.4222985"><ele>207.0</ele><time>2026-03-29T08:46:46.073Z</time></trkpt><trkpt lat="43.9514692" lon="12.4221797"><ele>205.0</ele><time>2026-03-29T08:46:47.064Z</time></trkpt><trkpt lat="43.9514283" lon="12.4220453"><ele>203.0</ele><time>2026-03-29T08:46:48.054Z</time></trkpt><trkpt lat="43.951397" lon="12.4219015"><ele>201.0</ele><time>2026-03-29T08:46:49.102Z</time></trkpt><trkpt lat="43.9513767" lon="12.4217534"><ele>199.0</ele><time>2026-03-29T08:46:50.092Z</time></trkpt><trkpt lat="43.9513509" lon="12.4216171"><ele>197.79999999999998</ele><time>2026-03-29T08:46:51.067Z</time></trkpt><trkpt lat="43.9513164" lon="12.4214851"><ele>196.6</ele><time>2026-03-29T08:46:52.071Z</time></trkpt><trkpt lat="43.9512802" lon="12.4213497"><ele>195.4</ele><time>2026-03-29T08:46:53.084Z</time></trkpt><trkpt lat="43.951259" lon="12.4212099"><ele>194.2</ele><time>2026-03-29T08:46:54.103Z</time></trkpt><trkpt lat="43.9512562" lon="12.4210577"><ele>193.0</ele><time>2026-03-29T08:46:55.067Z</time></trkpt><trkpt lat="43.9512611" lon="12.4209085"><ele>192.4</ele><time>2026-03-29T08:46:56.055Z</time></trkpt><trkpt lat="43.9512755" lon="12.4207521"><ele>191.8</ele><time>2026-03-29T08:46:57.056Z</time></trkpt><trkpt lat="43.9512953" lon="12.4205947"><ele>191.2</ele><time>2026-03-29T08:46:58.073Z</time></trkpt><trkpt lat="43.9513264" lon="12.4204568"><ele>190.6</ele><time>2026-03-29T08:46:59.105Z</time></trkpt><trkpt lat="43.9513636" lon="12.4203189"><ele>190.0</ele><time>2026-03-29T08:47:00.057Z</time></trkpt><trkpt lat="43.9514242" lon="12.4201978"><ele>190.8</ele><time>2026-03-29T08:47:01.09Z</time></trkpt><trkpt lat="43.9514937" lon="12.4200947"><ele>191.6</ele><time>2026-03-29T08:47:02.135Z</time></trkpt><trkpt lat="43.9515711" lon="12.4200083"><ele>192.39999999999998</ele><time>2026-03-29T08:47:03.142Z</time></trkpt><trkpt lat="43.9516509" lon="12.4199244"><ele>193.2</ele><time>2026-03-29T08:47:04.116Z</time></trkpt><trkpt lat="43.9517329" lon="12.4198522"><ele>194.0</ele><time>2026-03-29T08:47:05.114Z</time></trkpt><trkpt lat="43.9518024" lon="12.4197724"><ele>194.0</ele><time>2026-03-29T08:47:06.136Z</time></trkpt><trkpt lat="43.9518712" lon="12.4196809"><ele>194.0</ele><time>2026-03-29T08:47:07.118Z</time></trkpt><trkpt lat="43.9519167" lon="12.4195669"><ele>194.0</ele><time>2026-03-29T08:47:08.117Z</time></trkpt><trkpt lat="43.9519491" lon="12.41944"><ele>194.0</ele><time>2026-03-29T08:47:09.107Z</time></trkpt><trkpt lat="43.9519772" lon="12.4193036"><ele>194.0</ele><time>2026-03-29T08:47:10.123Z</time></trkpt><trkpt lat="43.9519926" lon="12.4191584"><ele>192.0</ele><time>2026-03-29T08:47:11.116Z</time></trkpt><trkpt lat="43.9520193" lon="12.4190261"><ele>190.0</ele><time>2026-03-29T08:47:12.134Z</time></trkpt><trkpt lat="43.9520456" lon="12.4189005"><ele>188.0</ele><time>2026-03-29T08:47:13.137Z</time></trkpt><trkpt lat="43.9520798" lon="12.418781"><ele>186.0</ele><time>2026-03-29T08:47:14.125Z</time></trkpt><trkpt lat="43.9521164" lon="12.4186702"><ele>184.0</ele><time>2026-03-29T08:47:15.123Z</time></trkpt><trkpt lat="43.9521545" lon="12.4185671"><ele>183.33333333333334</ele><time>2026-03-29T08:47:16.128Z</time></trkpt><trkpt lat="43.9521923" lon="12.418467"><ele>182.66666666666669</ele><time>2026-03-29T08:47:17.137Z</time></trkpt><trkpt lat="43.9522199" lon="12.4183666"><ele>182.0</ele><time>2026-03-29T08:47:18.125Z</time></trkpt><trkpt lat="43.9522447" lon="12.4182746"><ele>181.33333333333334</ele><time>2026-03-29T08:47:19.123Z</time></trkpt><trkpt lat="43.9522777" lon="12.4181909"><ele>180.66666666666666</ele><time>2026-03-29T08:47:20.123Z</time></trkpt><trkpt lat="43.9523046" lon="12.4181039"><ele>180.0</ele><time>2026-03-29T08:47:21.102Z</time></trkpt><trkpt lat="43.952366" lon="12.4179476"><ele>180.33333333333334</ele><time>2026-03-29T08:47:23.087Z</time></trkpt><trkpt lat="43.9524031" lon="12.4178727"><ele>180.66666666666666</ele><time>2026-03-29T08:47:24.116Z</time></trkpt><trkpt lat="43.952437" lon="12.4177874"><ele>181.0</ele><time>2026-03-29T08:47:25.13Z</time></trkpt><trkpt lat="43.9524744" lon="12.4176937"><ele>181.33333333333331</ele><time>2026-03-29T08:47:26.126Z</time></trkpt><trkpt lat="43.9525103" lon="12.4175979"><ele>181.66666666666666</ele><time>2026-03-29T08:47:27.11Z</time></trkpt><trkpt lat="43.9525534" lon="12.4175077"><ele>182.0</ele><time>2026-03-29T08:47:28.115Z</time></trkpt><trkpt lat="43.9525993" lon="12.4174042"><ele>182.0</ele><time>2026-03-29T08:47:29.125Z</time></trkpt><trkpt lat="43.9526469" lon="12.4173031"><ele>182.0</ele><time>2026-03-29T08:47:30.132Z</time></trkpt><trkpt lat="43.9526976" lon="12.417198"><ele>182.0</ele><time>2026-03-29T08:47:31.145Z</time></trkpt><trkpt lat="43.9527552" lon="12.4170926"><ele>182.0</ele><time>2026-03-29T08:47:32.146Z</time></trkpt><trkpt lat="43.9528055" lon="12.4169774"><ele>182.0</ele><time>2026-03-29T08:47:33.107Z</time></trkpt><trkpt lat="43.9528509" lon="12.4168493"><ele>180.6</ele><time>2026-03-29T08:47:34.1Z</time></trkpt><trkpt lat="43.9528933" lon="12.4167115"><ele>179.2</ele><time>2026-03-29T08:47:35.127Z</time></trkpt><trkpt lat="43.9529293" lon="12.4165746"><ele>177.8</ele><time>2026-03-29T08:47:36.144Z</time></trkpt><trkpt lat="43.9529692" lon="12.4164523"><ele>176.4</ele><time>2026-03-29T08:47:37.116Z</time></trkpt><trkpt lat="43.9530232" lon="12.4163458"><ele>175.0</ele><time>2026-03-29T08:47:38.127Z</time></trkpt><trkpt lat="43.9530902" lon="12.4162553"><ele>173.83333333333334</ele><time>2026-03-29T08:47:39.126Z</time></trkpt><trkpt lat="43.9531615" lon="12.4161687"><ele>172.66666666666669</ele><time>2026-03-29T08:47:40.129Z</time></trkpt><trkpt lat="43.9532158" lon="12.416094"><ele>171.5</ele><time>2026-03-29T08:47:41.147Z</time></trkpt><trkpt lat="43.9532589" lon="12.4160085"><ele>170.33333333333334</ele><time>2026-03-29T08:47:42.139Z</time></trkpt><trkpt lat="43.9532748" lon="12.4159042"><ele>169.16666666666666</ele><time>2026-03-29T08:47:43.157Z</time></trkpt><trkpt lat="43.9532716" lon="12.4158031"><ele>168.0</ele><time>2026-03-29T08:47:44.13Z</time></trkpt><trkpt lat="43.9532487" lon="12.4156807"><ele>168.0</ele><time>2026-03-29T08:47:45.122Z</time></trkpt><trkpt lat="43.9532225" lon="12.4155595"><ele>168.0</ele><time>2026-03-29T08:47:46.11Z</time></trkpt><trkpt lat="43.9531898" lon="12.4154417"><ele>168.0</ele><time>2026-03-29T08:47:47.108Z</time></trkpt><trkpt lat="43.9531753" lon="12.415328"><ele>168.0</ele><time>2026-03-29T08:47:48.137Z</time></trkpt><trkpt lat="43.9531647" lon="12.4152093"><ele>168.0</ele><time>2026-03-29T08:47:49.105Z</time></trkpt><trkpt lat="43.9531603" lon="12.4150803"><ele>168.0</ele><time>2026-03-29T08:47:50.106Z</time></trkpt><trkpt lat="43.9531562" lon="12.4149526"><ele>167.0</ele><time>2026-03-29T08:47:51.112Z</time></trkpt><trkpt lat="43.9531641" lon="12.4148265"><ele>166.0</ele><time>2026-03-29T08:47:52.12Z</time></trkpt><trkpt lat="43.9531861" lon="12.4147046"><ele>165.0</ele><time>2026-03-29T08:47:53.138Z</time></trkpt><trkpt lat="43.9531997" lon="12.4145892"><ele>164.0</ele><time>2026-03-29T08:47:54.142Z</time></trkpt><trkpt lat="43.9532065" lon="12.4144671"><ele>163.0</ele><time>2026-03-29T08:47:55.133Z</time></trkpt><trkpt lat="43.9532243" lon="12.4143602"><ele>162.0</ele><time>2026-03-29T08:47:56.129Z</time></trkpt><trkpt lat="43.9532443" lon="12.4142568"><ele>161.66666666666666</ele><time>2026-03-29T08:47:57.147Z</time></trkpt><trkpt lat="43.9532399" lon="12.4141641"><ele>161.33333333333334</ele><time>2026-03-29T08:47:58.134Z</time></trkpt><trkpt lat="43.953193" lon="12.4140969"><ele>161.0</ele><time>2026-03-29T08:47:59.141Z</time></trkpt><trkpt lat="43.9531146" lon="12.4140516"><ele>160.66666666666669</ele><time>2026-03-29T08:48:00.125Z</time></trkpt><trkpt lat="43.9530315" lon="12.4140259"><ele>160.33333333333334</ele><time>2026-03-29T08:48:01.096Z</time></trkpt><trkpt lat="43.9529602" lon="12.4140028"><ele>160.0</ele><time>2026-03-29T08:48:02.143Z</time></trkpt><trkpt lat="43.9528875" lon="12.4139571"><ele>160.6</ele><time>2026-03-29T08:48:03.144Z</time></trkpt><trkpt lat="43.9528097" lon="12.4137991"><ele>161.2</ele><time>2026-03-29T08:48:05.12Z</time></trkpt><trkpt lat="43.952788" lon="12.413695"><ele>161.8</ele><time>2026-03-29T08:48:06.126Z</time></trkpt><trkpt lat="43.9527788" lon="12.4135823"><ele>162.4</ele><time>2026-03-29T08:48:07.116Z</time></trkpt><trkpt lat="43.9527838" lon="12.4134764"><ele>163.0</ele><time>2026-03-29T08:48:08.125Z</time></trkpt><trkpt lat="43.9527949" lon="12.4133681"><ele>163.0</ele><time>2026-03-29T08:48:09.103Z</time></trkpt><trkpt lat="43.9528008" lon="12.4132517"><ele>163.0</ele><time>2026-03-29T08:48:10.105Z</time></trkpt><trkpt lat="43.9528055" lon="12.4131428"><ele>163.0</ele><time>2026-03-29T08:48:11.115Z</time></trkpt><trkpt lat="43.9528131" lon="12.4130352"><ele>163.0</ele><time>2026-03-29T08:48:12.119Z</time></trkpt><trkpt lat="43.9528234" lon="12.4129331"><ele>163.0</ele><time>2026-03-29T08:48:13.119Z</time></trkpt><trkpt lat="43.9528181" lon="12.4128376"><ele>163.0</ele><time>2026-03-29T08:48:14.132Z</time></trkpt><trkpt lat="43.9528094" lon="12.4127321"><ele>162.83333333333334</ele><time>2026-03-29T08:48:15.134Z</time></trkpt><trkpt lat="43.9527996" lon="12.4126369"><ele>162.66666666666669</ele><time>2026-03-29T08:48:16.125Z</time></trkpt><trkpt lat="43.9527747" lon="12.4125411"><ele>162.5</ele><time>2026-03-29T08:48:17.145Z</time></trkpt><trkpt lat="43.9527454" lon="12.4124458"><ele>162.33333333333334</ele><time>2026-03-29T08:48:18.094Z</time></trkpt><trkpt lat="43.9526998" lon="12.4123535"><ele>162.16666666666666</ele><time>2026-03-29T08:48:19.132Z</time></trkpt><trkpt lat="43.9526617" lon="12.4122608"><ele>162.0</ele><time>2026-03-29T08:48:20.138Z</time></trkpt><trkpt lat="43.9526243" lon="12.41216"><ele>161.66666666666666</ele><time>2026-03-29T08:48:21.128Z</time></trkpt><trkpt lat="43.9525848" lon="12.4120598"><ele>161.33333333333334</ele><time>2026-03-29T08:48:22.133Z</time></trkpt><trkpt lat="43.9525468" lon="12.411953"><ele>161.0</ele><time>2026-03-29T08:48:23.13Z</time></trkpt><trkpt lat="43.9525172" lon="12.4118402"><ele>160.66666666666669</ele><time>2026-03-29T08:48:24.117Z</time></trkpt><trkpt lat="43.952499" lon="12.4117187"><ele>160.33333333333334</ele><time>2026-03-29T08:48:25.118Z</time></trkpt><trkpt lat="43.9524961" lon="12.4116002"><ele>160.0</ele><time>2026-03-29T08:48:26.125Z</time></trkpt><trkpt lat="43.9525227" lon="12.4114946"><ele>160.0</ele><time>2026-03-29T08:48:27.074Z</time></trkpt><trkpt lat="43.9525789" lon="12.4113996"><ele>160.0</ele><time>2026-03-29T08:48:28.086Z</time></trkpt><trkpt lat="43.9526466" lon="12.41131"><ele>160.0</ele><time>2026-03-29T08:48:29.127Z</time></trkpt><trkpt lat="43.9527172" lon="12.4112267"><ele>160.0</ele><time>2026-03-29T08:48:30.139Z</time></trkpt><trkpt lat="43.9527751" lon="12.4111487"><ele>160.0</ele><time>2026-03-29T08:48:31.121Z</time></trkpt><trkpt lat="43.952828" lon="12.4110719"><ele>160.0</ele><time>2026-03-29T08:48:32.121Z</time></trkpt><trkpt lat="43.9528837" lon="12.4109857"><ele>158.83333333333334</ele><time>2026-03-29T08:48:33.121Z</time></trkpt><trkpt lat="43.9529276" lon="12.4108949"><ele>157.66666666666669</ele><time>2026-03-29T08:48:34.128Z</time></trkpt><trkpt lat="43.9529692" lon="12.4108021"><ele>156.5</ele><time>2026-03-29T08:48:35.129Z</time></trkpt><trkpt lat="43.9530052" lon="12.4107078"><ele>155.33333333333334</ele><time>2026-03-29T08:48:36.138Z</time></trkpt><trkpt lat="43.9530511" lon="12.4106089"><ele>154.16666666666666</ele><time>2026-03-29T08:48:37.128Z</time></trkpt><trkpt lat="43.9530958" lon="12.4105021"><ele>153.0</ele><time>2026-03-29T08:48:38.127Z</time></trkpt><trkpt lat="43.9531496" lon="12.4104026"><ele>152.16666666666666</ele><time>2026-03-29T08:48:39.122Z</time></trkpt><trkpt lat="43.953194" lon="12.4103092"><ele>151.33333333333334</ele><time>2026-03-29T08:48:40.12Z</time></trkpt><trkpt lat="43.9532334" lon="12.4102147"><ele>150.5</ele><time>2026-03-29T08:48:41.126Z</time></trkpt><trkpt lat="43.9532663" lon="12.4101193"><ele>149.66666666666669</ele><time>2026-03-29T08:48:42.129Z</time></trkpt><trkpt lat="43.9532945" lon="12.4100201"><ele>148.83333333333334</ele><time>2026-03-29T08:48:43.116Z</time></trkpt><trkpt lat="43.9533148" lon="12.409912"><ele>148.0</ele><time>2026-03-29T08:48:44.118Z</time></trkpt><trkpt lat="43.9533194" lon="12.4098003"><ele>148.0</ele><time>2026-03-29T08:48:45.116Z</time></trkpt><trkpt lat="43.9533286" lon="12.4097034"><ele>148.0</ele><time>2026-03-29T08:48:46.118Z</time></trkpt><trkpt lat="43.9533394" lon="12.4095982"><ele>148.0</ele><time>2026-03-29T08:48:47.129Z</time></trkpt><trkpt lat="43.9533608" lon="12.4094841"><ele>148.0</ele><time>2026-03-29T08:48:48.113Z</time></trkpt><trkpt lat="43.953378" lon="12.4093751"><ele>148.0</ele><time>2026-03-29T08:48:49.119Z</time></trkpt><trkpt lat="43.9533904" lon="12.4092666"><ele>148.0</ele><time>2026-03-29T08:48:50.119Z</time></trkpt><trkpt lat="43.9534012" lon="12.4091534"><ele>148.33333333333334</ele><time>2026-03-29T08:48:51.094Z</time></trkpt><trkpt lat="43.9534145" lon="12.4090476"><ele>148.66666666666669</ele><time>2026-03-29T08:48:52.119Z</time></trkpt><trkpt lat="43.9534252" lon="12.4089438"><ele>149.0</ele><time>2026-03-29T08:48:53.091Z</time></trkpt><trkpt lat="43.9534365" lon="12.4088411"><ele>149.33333333333334</ele><time>2026-03-29T08:48:54.134Z</time></trkpt><trkpt lat="43.9534511" lon="12.4087355"><ele>149.66666666666666</ele><time>2026-03-29T08:48:55.129Z</time></trkpt><trkpt lat="43.9534637" lon="12.4086267"><ele>150.0</ele><time>2026-03-29T08:48:56.135Z</time></trkpt><trkpt lat="43.9534803" lon="12.4085188"><ele>149.99999999999997</ele><time>2026-03-29T08:48:57.139Z</time></trkpt><trkpt lat="43.9534999" lon="12.4084199"><ele>150.0</ele><time>2026-03-29T08:48:58.13Z</time></trkpt><trkpt lat="43.9535193" lon="12.4083146"><ele>150.0</ele><time>2026-03-29T08:48:59.104Z</time></trkpt><trkpt lat="43.953548" lon="12.4082152"><ele>150.0</ele><time>2026-03-29T08:49:00.136Z</time></trkpt><trkpt lat="43.9535735" lon="12.4081207"><ele>150.0</ele><time>2026-03-29T08:49:01.135Z</time></trkpt><trkpt lat="43.9536009" lon="12.4080276"><ele>149.99999999999997</ele><time>2026-03-29T08:49:02.133Z</time></trkpt><trkpt lat="43.9536293" lon="12.4079373"><ele>150.0</ele><time>2026-03-29T08:49:03.07Z</time></trkpt><trkpt lat="43.9536542" lon="12.4078425"><ele>148.99999999999997</ele><time>2026-03-29T08:49:04.09Z</time></trkpt><trkpt lat="43.9536818" lon="12.4077424"><ele>148.0</ele><time>2026-03-29T08:49:05.12Z</time></trkpt><trkpt lat="43.9537196" lon="12.4076486"><ele>147.0</ele><time>2026-03-29T08:49:06.117Z</time></trkpt><trkpt lat="43.9537576" lon="12.4075612"><ele>146.0</ele><time>2026-03-29T08:49:07.145Z</time></trkpt><trkpt lat="43.95381" lon="12.407484"><ele>145.0</ele><time>2026-03-29T08:49:08.139Z</time></trkpt><trkpt lat="43.9538568" lon="12.4074049"><ele>143.99999999999997</ele><time>2026-03-29T08:49:09.125Z</time></trkpt><trkpt lat="43.9538996" lon="12.4073284"><ele>143.0</ele><time>2026-03-29T08:49:10.127Z</time></trkpt><trkpt lat="43.9539434" lon="12.4072526"><ele>143.0</ele><time>2026-03-29T08:49:11.13Z</time></trkpt><trkpt lat="43.9539916" lon="12.4071741"><ele>143.0</ele><time>2026-03-29T08:49:12.142Z</time></trkpt><trkpt lat="43.9540411" lon="12.4070968"><ele>143.0</ele><time>2026-03-29T08:49:13.129Z</time></trkpt><trkpt lat="43.9540927" lon="12.4070206"><ele>143.0</ele><time>2026-03-29T08:49:14.076Z</time></trkpt><trkpt lat="43.9541356" lon="12.4069378"><ele>143.0</ele><time>2026-03-29T08:49:15.12Z</time></trkpt><trkpt lat="43.9541733" lon="12.4068441"><ele>143.0</ele><time>2026-03-29T08:49:16.128Z</time></trkpt><trkpt lat="43.9542118" lon="12.406754"><ele>142.42857142857142</ele><time>2026-03-29T08:49:17.14Z</time></trkpt><trkpt lat="43.9542481" lon="12.4066636"><ele>141.85714285714286</ele><time>2026-03-29T08:49:18.121Z</time></trkpt><trkpt lat="43.9542805" lon="12.4065723"><ele>141.28571428571428</ele><time>2026-03-29T08:49:19.145Z</time></trkpt><trkpt lat="43.9543186" lon="12.4064764"><ele>140.71428571428572</ele><time>2026-03-29T08:49:20.102Z</time></trkpt><trkpt lat="43.9543531" lon="12.4063851"><ele>140.14285714285714</ele><time>2026-03-29T08:49:21.137Z</time></trkpt><trkpt lat="43.9543845" lon="12.4062927"><ele>139.57142857142856</ele><time>2026-03-29T08:49:22.122Z</time></trkpt><trkpt lat="43.9544121" lon="12.4061965"><ele>139.0</ele><time>2026-03-29T08:49:23.13Z</time></trkpt><trkpt lat="43.9544403" lon="12.4061047"><ele>139.0</ele><time>2026-03-29T08:49:24.121Z</time></trkpt><trkpt lat="43.9544657" lon="12.4060129"><ele>139.0</ele><time>2026-03-29T08:49:25.122Z</time></trkpt><trkpt lat="43.9544886" lon="12.405909"><ele>139.0</ele><time>2026-03-29T08:49:26.121Z</time></trkpt><trkpt lat="43.9545125" lon="12.4058142"><ele>139.0</ele><time>2026-03-29T08:49:27.128Z</time></trkpt><trkpt lat="43.954537" lon="12.4057247"><ele>139.0</ele><time>2026-03-29T08:49:28.121Z</time></trkpt><trkpt lat="43.9545562" lon="12.4056285"><ele>139.0</ele><time>2026-03-29T08:49:29.112Z</time></trkpt><trkpt lat="43.9545829" lon="12.4055409"><ele>139.0</ele><time>2026-03-29T08:49:30.113Z</time></trkpt><trkpt lat="43.9546064" lon="12.4054584"><ele>139.0</ele><time>2026-03-29T08:49:31.12Z</time></trkpt><trkpt lat="43.9546804" lon="12.4053159"><ele>139.0</ele><time>2026-03-29T08:49:33.13Z</time></trkpt><trkpt lat="43.954741" lon="12.4052895"><ele>139.0</ele><time>2026-03-29T08:49:34.13Z</time></trkpt><trkpt lat="43.9548048" lon="12.4052954"><ele>139.0</ele><time>2026-03-29T08:49:35.13Z</time></trkpt><trkpt lat="43.9548724" lon="12.4052873"><ele>139.0</ele><time>2026-03-29T08:49:36.118Z</time></trkpt><trkpt lat="43.9549415" lon="12.405282"><ele>139.0</ele><time>2026-03-29T08:49:37.128Z</time></trkpt><trkpt lat="43.9550158" lon="12.4052747"><ele>138.33333333333334</ele><time>2026-03-29T08:49:38.126Z</time></trkpt><trkpt lat="43.9550926" lon="12.4052564"><ele>137.66666666666669</ele><time>2026-03-29T08:49:39.111Z</time></trkpt><trkpt lat="43.9551677" lon="12.4052423"><ele>137.0</ele><time>2026-03-29T08:49:40.125Z</time></trkpt><trkpt lat="43.9552405" lon="12.4052223"><ele>136.33333333333334</ele><time>2026-03-29T08:49:41.11Z</time></trkpt><trkpt lat="43.9553194" lon="12.4052123"><ele>135.66666666666666</ele><time>2026-03-29T08:49:42.151Z</time></trkpt><trkpt lat="43.955394" lon="12.4051994"><ele>135.0</ele><time>2026-03-29T08:49:43.144Z</time></trkpt><trkpt lat="43.9554694" lon="12.4051841"><ele>135.0</ele><time>2026-03-29T08:49:44.1Z</time></trkpt><trkpt lat="43.9555455" lon="12.4051729"><ele>135.0</ele><time>2026-03-29T08:49:45.111Z</time></trkpt><trkpt lat="43.955625" lon="12.4051586"><ele>135.0</ele><time>2026-03-29T08:49:46.122Z</time></trkpt><trkpt lat="43.9557047" lon="12.4051442"><ele>135.0</ele><time>2026-03-29T08:49:47.125Z</time></trkpt><trkpt lat="43.9557806" lon="12.4051304"><ele>135.0</ele><time>2026-03-29T08:49:48.126Z</time></trkpt><trkpt lat="43.9558558" lon="12.4051172"><ele>135.0</ele><time>2026-03-29T08:49:49.124Z</time></trkpt><trkpt lat="43.9559294" lon="12.4051023"><ele>134.66666666666666</ele><time>2026-03-29T08:49:50.12Z</time></trkpt><trkpt lat="43.9560073" lon="12.4050937"><ele>134.33333333333334</ele><time>2026-03-29T08:49:51.136Z</time></trkpt><trkpt lat="43.9560828" lon="12.4050805"><ele>134.0</ele><time>2026-03-29T08:49:52.125Z</time></trkpt><trkpt lat="43.9561583" lon="12.4050688"><ele>133.66666666666669</ele><time>2026-03-29T08:49:53.114Z</time></trkpt><trkpt lat="43.9562342" lon="12.4050585"><ele>133.33333333333334</ele><time>2026-03-29T08:49:54.114Z</time></trkpt><trkpt lat="43.9563096" lon="12.4050501"><ele>133.0</ele><time>2026-03-29T08:49:55.129Z</time></trkpt><trkpt lat="43.9563883" lon="12.4050424"><ele>133.0</ele><time>2026-03-29T08:49:56.111Z</time></trkpt><trkpt lat="43.956461" lon="12.4050303"><ele>133.0</ele><time>2026-03-29T08:49:57.096Z</time></trkpt><trkpt lat="43.9565384" lon="12.4050229"><ele>133.0</ele><time>2026-03-29T08:49:58.116Z</time></trkpt><trkpt lat="43.9566164" lon="12.4050099"><ele>133.0</ele><time>2026-03-29T08:49:59.118Z</time></trkpt><trkpt lat="43.9566898" lon="12.4050009"><ele>133.0</ele><time>2026-03-29T08:50:00.123Z</time></trkpt><trkpt lat="43.9567654" lon="12.4049902"><ele>133.0</ele><time>2026-03-29T08:50:01.091Z</time></trkpt><trkpt lat="43.9568434" lon="12.4049794"><ele>132.85714285714286</ele><time>2026-03-29T08:50:02.105Z</time></trkpt><trkpt lat="43.9569177" lon="12.4049697"><ele>132.71428571428572</ele><time>2026-03-29T08:50:03.112Z</time></trkpt><trkpt lat="43.9569903" lon="12.4049587"><ele>132.57142857142856</ele><time>2026-03-29T08:50:04.14Z</time></trkpt><trkpt lat="43.9570616" lon="12.4049525"><ele>132.42857142857144</ele><time>2026-03-29T08:50:05.118Z</time></trkpt><trkpt lat="43.9571389" lon="12.4049397"><ele>132.28571428571428</ele><time>2026-03-29T08:50:06.127Z</time></trkpt><trkpt lat="43.9572136" lon="12.4049248"><ele>132.14285714285714</ele><time>2026-03-29T08:50:07.131Z</time></trkpt><trkpt lat="43.9572835" lon="12.4049095"><ele>132.0</ele><time>2026-03-29T08:50:08.139Z</time></trkpt><trkpt lat="43.9573544" lon="12.4048938"><ele>132.0</ele><time>2026-03-29T08:50:09.142Z</time></trkpt><trkpt lat="43.9574268" lon="12.4048776"><ele>132.0</ele><time>2026-03-29T08:50:10.128Z</time></trkpt><trkpt lat="43.9575" lon="12.4048567"><ele>132.0</ele><time>2026-03-29T08:50:11.093Z</time></trkpt><trkpt lat="43.9575712" lon="12.4048391"><ele>132.0</ele><time>2026-03-29T08:50:12.11Z</time></trkpt><trkpt lat="43.9576377" lon="12.4048133"><ele>132.0</ele><time>2026-03-29T08:50:13.114Z</time></trkpt><trkpt lat="43.9577074" lon="12.4047894"><ele>132.0</ele><time>2026-03-29T08:50:14.113Z</time></trkpt><trkpt lat="43.9577734" lon="12.404757"><ele>132.0</ele><time>2026-03-29T08:50:15.12Z</time></trkpt><trkpt lat="43.9578431" lon="12.40472"><ele>132.0</ele><time>2026-03-29T08:50:16.128Z</time></trkpt><trkpt lat="43.9579082" lon="12.40468"><ele>132.0</ele><time>2026-03-29T08:50:17.131Z</time></trkpt><trkpt lat="43.9579758" lon="12.4046366"><ele>132.0</ele><time>2026-03-29T08:50:18.079Z</time></trkpt><trkpt lat="43.9580362" lon="12.4045942"><ele>132.0</ele><time>2026-03-29T08:50:19.136Z</time></trkpt><trkpt lat="43.9580991" lon="12.4045433"><ele>132.0</ele><time>2026-03-29T08:50:20.136Z</time></trkpt><trkpt lat="43.9581577" lon="12.4044874"><ele>132.0</ele><time>2026-03-29T08:50:21.136Z</time></trkpt><trkpt lat="43.9582156" lon="12.4044254"><ele>132.0</ele><time>2026-03-29T08:50:22.126Z</time></trkpt><trkpt lat="43.9582755" lon="12.4043778"><ele>132.0</ele><time>2026-03-29T08:50:23.115Z</time></trkpt><trkpt lat="43.9583253" lon="12.4043159"><ele>132.0</ele><time>2026-03-29T08:50:24.141Z</time></trkpt><trkpt lat="43.9583788" lon="12.4042487"><ele>132.0</ele><time>2026-03-29T08:50:25.124Z</time></trkpt><trkpt lat="43.9584304" lon="12.4041804"><ele>132.0</ele><time>2026-03-29T08:50:26.109Z</time></trkpt><trkpt lat="43.9584788" lon="12.4041114"><ele>132.0</ele><time>2026-03-29T08:50:27.123Z</time></trkpt><trkpt lat="43.9585256" lon="12.4040401"><ele>132.0</ele><time>2026-03-29T08:50:28.113Z</time></trkpt><trkpt lat="43.9585712" lon="12.4039698"><ele>132.0</ele><time>2026-03-29T08:50:29.136Z</time></trkpt><trkpt lat="43.9586126" lon="12.4039009"><ele>133.0</ele><time>2026-03-29T08:50:30.118Z</time></trkpt><trkpt lat="43.9586554" lon="12.4038354"><ele>134.0</ele><time>2026-03-29T08:50:31.1Z</time></trkpt><trkpt lat="43.9586955" lon="12.4037631"><ele>135.0</ele><time>2026-03-29T08:50:32.13Z</time></trkpt><trkpt lat="43.9587697" lon="12.4036364"><ele>136.0</ele><time>2026-03-29T08:50:34.083Z</time></trkpt><trkpt lat="43.958806" lon="12.4035625"><ele>137.0</ele><time>2026-03-29T08:50:35.106Z</time></trkpt><trkpt lat="43.9588409" lon="12.4034852"><ele>138.0</ele><time>2026-03-29T08:50:36.125Z</time></trkpt><trkpt lat="43.9588708" lon="12.4034076"><ele>139.0</ele><time>2026-03-29T08:50:37.149Z</time></trkpt><trkpt lat="43.9589281" lon="12.4032525"><ele>139.0</ele><time>2026-03-29T08:50:39.142Z</time></trkpt><trkpt lat="43.9589729" lon="12.4031026"><ele>139.0</ele><time>2026-03-29T08:50:41.149Z</time></trkpt><trkpt lat="43.9590162" lon="12.4029657"><ele>139.0</ele><time>2026-03-29T08:50:43.13Z</time></trkpt><trkpt lat="43.9590602" lon="12.4028279"><ele>139.0</ele><time>2026-03-29T08:50:45.12Z</time></trkpt><trkpt lat="43.9591066" lon="12.4027008"><ele>139.0</ele><time>2026-03-29T08:50:47.125Z</time></trkpt><trkpt lat="43.9591492" lon="12.4025686"><ele>138.8</ele><time>2026-03-29T08:50:49.132Z</time></trkpt><trkpt lat="43.9591887" lon="12.4024341"><ele>138.60000000000002</ele><time>2026-03-29T08:50:51.142Z</time></trkpt><trkpt lat="43.9592358" lon="12.4023024"><ele>138.4</ele><time>2026-03-29T08:50:53.123Z</time></trkpt><trkpt lat="43.9593008" lon="12.4021875"><ele>138.20000000000002</ele><time>2026-03-29T08:50:55.141Z</time></trkpt><trkpt lat="43.9593891" lon="12.4021161"><ele>138.0</ele><time>2026-03-29T08:50:57.132Z</time></trkpt><trkpt lat="43.959493" lon="12.4020928"><ele>138.0</ele><time>2026-03-29T08:50:59.1Z</time></trkpt><trkpt lat="43.9596009" lon="12.4021072"><ele>138.0</ele><time>2026-03-29T08:51:01.127Z</time></trkpt><trkpt lat="43.959701" lon="12.4021561"><ele>138.0</ele><time>2026-03-29T08:51:03.113Z</time></trkpt><trkpt lat="43.9598001" lon="12.4021892"><ele>138.0</ele><time>2026-03-29T08:51:05.139Z</time></trkpt><trkpt lat="43.9598947" lon="12.4022311"><ele>138.0</ele><time>2026-03-29T08:51:07.126Z</time></trkpt><trkpt lat="43.9600002" lon="12.4022555"><ele>138.4</ele><time>2026-03-29T08:51:09.121Z</time></trkpt><trkpt lat="43.9601163" lon="12.4022643"><ele>138.8</ele><time>2026-03-29T08:51:11.143Z</time></trkpt><trkpt lat="43.9602254" lon="12.4022623"><ele>139.2</ele><time>2026-03-29T08:51:13.135Z</time></trkpt><trkpt lat="43.9603357" lon="12.402235"><ele>139.6</ele><time>2026-03-29T08:51:15.153Z</time></trkpt><trkpt lat="43.9604446" lon="12.4022068"><ele>140.0</ele><time>2026-03-29T08:51:17.138Z</time></trkpt><trkpt lat="43.9605482" lon="12.402176"><ele>138.4</ele><time>2026-03-29T08:51:19.113Z</time></trkpt><trkpt lat="43.9606513" lon="12.4021389"><ele>136.8</ele><time>2026-03-29T08:51:21.151Z</time></trkpt><trkpt lat="43.96076" lon="12.4020975"><ele>135.2</ele><time>2026-03-29T08:51:23.136Z</time></trkpt><trkpt lat="43.9608544" lon="12.4020524"><ele>133.6</ele><time>2026-03-29T08:51:25.127Z</time></trkpt><trkpt lat="43.9609383" lon="12.402026"><ele>132.0</ele><time>2026-03-29T08:51:27.121Z</time></trkpt><trkpt lat="43.9609906" lon="12.4020994"><ele>132.85714285714286</ele><time>2026-03-29T08:51:30.138Z</time></trkpt><trkpt lat="43.9609871" lon="12.4022104"><ele>133.71428571428572</ele><time>2026-03-29T08:51:34.137Z</time></trkpt><trkpt lat="43.9609672" lon="12.4023078"><ele>134.57142857142858</ele><time>2026-03-29T08:51:38.131Z</time></trkpt><trkpt lat="43.9609533" lon="12.4024173"><ele>135.42857142857144</ele><time>2026-03-29T08:51:42.132Z</time></trkpt><trkpt lat="43.9609306" lon="12.4025223"><ele>136.2857142857143</ele><time>2026-03-29T08:51:46.141Z</time></trkpt><trkpt lat="43.9609259" lon="12.4026191"><ele>137.14285714285714</ele><time>2026-03-29T08:51:49.132Z</time></trkpt><trkpt lat="43.9609266" lon="12.4027132"><ele>138.0</ele><time>2026-03-29T08:51:52.133Z</time></trkpt><trkpt lat="43.9609297" lon="12.4028274"><ele>138.0</ele><time>2026-03-29T08:51:56.133Z</time></trkpt><trkpt lat="43.9609369" lon="12.4029233"><ele>138.0</ele><time>2026-03-29T08:52:00.121Z</time></trkpt><trkpt lat="43.9609402" lon="12.4030201"><ele>138.0</ele><time>2026-03-29T08:52:04.122Z</time></trkpt><trkpt lat="43.9609464" lon="12.4031269"><ele>138.0</ele><time>2026-03-29T08:52:09.091Z</time></trkpt><trkpt lat="43.9609343" lon="12.4032298"><ele>138.0</ele><time>2026-03-29T08:52:14.125Z</time></trkpt><trkpt lat="43.9609027" lon="12.4033242"><ele>138.0</ele><time>2026-03-29T08:52:18.122Z</time></trkpt><trkpt lat="43.9608751" lon="12.4034176"><ele>138.0</ele><time>2026-03-29T08:52:22.143Z</time></trkpt><trkpt lat="43.9608565" lon="12.4035106"><ele>139.42857142857144</ele><time>2026-03-29T08:52:26.137Z</time></trkpt><trkpt lat="43.9608534" lon="12.403609"><ele>140.85714285714286</ele><time>2026-03-29T08:52:30.139Z</time></trkpt><trkpt lat="43.9608481" lon="12.4036964"><ele>142.28571428571428</ele><time>2026-03-29T08:52:34.099Z</time></trkpt><trkpt lat="43.9608376" lon="12.4037924"><ele>143.71428571428572</ele><time>2026-03-29T08:52:39.091Z</time></trkpt><trkpt lat="43.9608768" lon="12.4039057"><ele>145.14285714285714</ele><time>2026-03-29T08:52:57.104Z</time></trkpt><trkpt lat="43.960872" lon="12.4040011"><ele>146.57142857142858</ele><time>2026-03-29T08:53:03.125Z</time></trkpt><trkpt lat="43.9608616" lon="12.4040944"><ele>148.0</ele><time>2026-03-29T08:53:07.114Z</time></trkpt><trkpt lat="43.9608571" lon="12.4041845"><ele>148.42857142857144</ele><time>2026-03-29T08:53:11.128Z</time></trkpt><trkpt lat="43.9608614" lon="12.404292"><ele>148.85714285714286</ele><time>2026-03-29T08:53:15.128Z</time></trkpt><trkpt lat="43.9608734" lon="12.4044143"><ele>149.28571428571428</ele><time>2026-03-29T08:53:20.106Z</time></trkpt><trkpt lat="43.9608788" lon="12.4045104"><ele>149.71428571428572</ele><time>2026-03-29T08:53:24.12Z</time></trkpt><trkpt lat="43.9608772" lon="12.4046073"><ele>150.14285714285714</ele><time>2026-03-29T08:53:28.117Z</time></trkpt><trkpt lat="43.9608647" lon="12.4046959"><ele>150.57142857142858</ele><time>2026-03-29T08:53:32.116Z</time></trkpt><trkpt lat="43.9608487" lon="12.4047926"><ele>151.0</ele><time>2026-03-29T08:53:36.138Z</time></trkpt><trkpt lat="43.9608401" lon="12.404884"><ele>152.57142857142858</ele><time>2026-03-29T08:53:41.12Z</time></trkpt><trkpt lat="43.9608412" lon="12.4049876"><ele>154.14285714285714</ele><time>2026-03-29T08:53:46.121Z</time></trkpt><trkpt lat="43.9608439" lon="12.4050793"><ele>155.71428571428572</ele><time>2026-03-29T08:53:50.13Z</time></trkpt><trkpt lat="43.9608457" lon="12.405172"><ele>157.28571428571428</ele><time>2026-03-29T08:53:54.132Z</time></trkpt><trkpt lat="43.9608375" lon="12.4052713"><ele>158.85714285714286</ele><time>2026-03-29T08:53:58.104Z</time></trkpt><trkpt lat="43.9608245" lon="12.4053725"><ele>160.42857142857144</ele><time>2026-03-29T08:54:02.148Z</time></trkpt><trkpt lat="43.9608171" lon="12.4054668"><ele>162.0</ele><time>2026-03-29T08:54:06.118Z</time></trkpt><trkpt lat="43.9608032" lon="12.4055775"><ele>162.71428571428572</ele><time>2026-03-29T08:54:11.152Z</time></trkpt><trkpt lat="43.9607897" lon="12.4056744"><ele>163.42857142857142</ele><time>2026-03-29T08:54:16.144Z</time></trkpt><trkpt lat="43.9607952" lon="12.4057715"><ele>164.14285714285714</ele><time>2026-03-29T08:54:20.12Z</time></trkpt><trkpt lat="43.9607979" lon="12.4058675"><ele>164.85714285714286</ele><time>2026-03-29T08:54:25.113Z</time></trkpt><trkpt lat="43.9607972" lon="12.4059829"><ele>165.57142857142858</ele><time>2026-03-29T08:54:31.139Z</time></trkpt><trkpt lat="43.9608043" lon="12.4060794"><ele>166.28571428571428</ele><time>2026-03-29T08:54:35.107Z</time></trkpt><trkpt lat="43.9608064" lon="12.4061716"><ele>167.0</ele><time>2026-03-29T08:54:38.136Z</time></trkpt><trkpt lat="43.9608043" lon="12.4062774"><ele>168.16666666666666</ele><time>2026-03-29T08:54:42.15Z</time></trkpt><trkpt lat="43.9607737" lon="12.406383"><ele>169.33333333333331</ele><time>2026-03-29T08:54:46.143Z</time></trkpt><trkpt lat="43.960737" lon="12.4064779"><ele>170.5</ele><time>2026-03-29T08:54:50.126Z</time></trkpt><trkpt lat="43.960694" lon="12.4065577"><ele>171.66666666666666</ele><time>2026-03-29T08:54:54.108Z</time></trkpt><trkpt lat="43.9606399" lon="12.4066359"><ele>172.83333333333334</ele><time>2026-03-29T08:54:59.152Z</time></trkpt><trkpt lat="43.960606" lon="12.4067175"><ele>174.0</ele><time>2026-03-29T08:55:03.131Z</time></trkpt><trkpt lat="43.9605906" lon="12.4068197"><ele>174.0</ele><time>2026-03-29T08:55:08.076Z</time></trkpt><trkpt lat="43.9605823" lon="12.4069269"><ele>174.0</ele><time>2026-03-29T08:55:12.121Z</time></trkpt><trkpt lat="43.9605969" lon="12.407019"><ele>174.0</ele><time>2026-03-29T08:55:16.128Z</time></trkpt><trkpt lat="43.9606071" lon="12.4071287"><ele>174.0</ele><time>2026-03-29T08:55:21.071Z</time></trkpt><trkpt lat="43.9606174" lon="12.4072201"><ele>174.0</ele><time>2026-03-29T08:55:25.138Z</time></trkpt><trkpt lat="43.9606394" lon="12.4073215"><ele>174.0</ele><time>2026-03-29T08:55:30.074Z</time></trkpt><trkpt lat="43.9606484" lon="12.4074109"><ele>174.0</ele><time>2026-03-29T08:55:35.121Z</time></trkpt><trkpt lat="43.9606627" lon="12.4075034"><ele>175.28571428571428</ele><time>2026-03-29T08:55:40.125Z</time></trkpt><trkpt lat="43.9606621" lon="12.407597"><ele>176.57142857142858</ele><time>2026-03-29T08:55:46.083Z</time></trkpt><trkpt lat="43.960658" lon="12.4076866"><ele>177.85714285714286</ele><time>2026-03-29T08:55:51.117Z</time></trkpt><trkpt lat="43.9606264" lon="12.4077681"><ele>179.14285714285714</ele><time>2026-03-29T08:55:58.141Z</time></trkpt><trkpt lat="43.9606294" lon="12.4078583"><ele>180.42857142857144</ele><time>2026-03-29T08:56:04.125Z</time></trkpt><trkpt lat="43.9606365" lon="12.407947"><ele>181.71428571428572</ele><time>2026-03-29T08:56:10.121Z</time></trkpt><trkpt lat="43.9606601" lon="12.4080432"><ele>183.0</ele><time>2026-03-29T08:56:15.118Z</time></trkpt><trkpt lat="43.9606977" lon="12.40813"><ele>184.0</ele><time>2026-03-29T08:56:19.13Z</time></trkpt><trkpt lat="43.9607312" lon="12.4082176"><ele>185.0</ele><time>2026-03-29T08:56:23.13Z</time></trkpt><trkpt lat="43.9607547" lon="12.4083034"><ele>186.0</ele><time>2026-03-29T08:56:27.117Z</time></trkpt><trkpt lat="43.9607882" lon="12.4083867"><ele>187.0</ele><time>2026-03-29T08:56:31.133Z</time></trkpt><trkpt lat="43.9608405" lon="12.4084562"><ele>188.0</ele><time>2026-03-29T08:56:36.123Z</time></trkpt><trkpt lat="43.9608864" lon="12.4085337"><ele>189.0</ele><time>2026-03-29T08:56:41.113Z</time></trkpt><trkpt lat="43.9609269" lon="12.4086178"><ele>190.0</ele><time>2026-03-29T08:56:47.133Z</time></trkpt><trkpt lat="43.9609535" lon="12.4087075"><ele>190.0</ele><time>2026-03-29T08:56:53.135Z</time></trkpt><trkpt lat="43.9609658" lon="12.4087943"><ele>190.0</ele><time>2026-03-29T08:56:58.15Z</time></trkpt><trkpt lat="43.9609692" lon="12.4088985"><ele>190.0</ele><time>2026-03-29T08:57:05.129Z</time></trkpt><trkpt lat="43.960959" lon="12.4089928"><ele>190.0</ele><time>2026-03-29T08:57:11.133Z</time></trkpt><trkpt lat="43.9609736" lon="12.4090892"><ele>190.0</ele><time>2026-03-29T08:57:17.12Z</time></trkpt><trkpt lat="43.9609854" lon="12.4091832"><ele>190.0</ele><time>2026-03-29T08:57:23.142Z</time></trkpt><trkpt lat="43.9610021" lon="12.4092679"><ele>190.0</ele><time>2026-03-29T08:57:28.131Z</time></trkpt><trkpt lat="43.961013" lon="12.40936"><ele>191.42857142857144</ele><time>2026-03-29T08:57:34.121Z</time></trkpt><trkpt lat="43.9610367" lon="12.4094414"><ele>192.85714285714286</ele><time>2026-03-29T08:57:39.117Z</time></trkpt><trkpt lat="43.9610443" lon="12.4095428"><ele>194.28571428571428</ele><time>2026-03-29T08:57:45.118Z</time></trkpt><trkpt lat="43.9610431" lon="12.4096418"><ele>195.71428571428572</ele><time>2026-03-29T08:57:50.127Z</time></trkpt><trkpt lat="43.9610463" lon="12.4097433"><ele>197.14285714285714</ele><time>2026-03-29T08:57:54.123Z</time></trkpt><trkpt lat="43.9610425" lon="12.4098357"><ele>198.57142857142858</ele><time>2026-03-29T08:57:59.081Z</time></trkpt><trkpt lat="43.9610363" lon="12.4099265"><ele>200.0</ele><time>2026-03-29T08:58:03.101Z</time></trkpt><trkpt lat="43.9610103" lon="12.4100189"><ele>200.42857142857144</ele><time>2026-03-29T08:58:08.138Z</time></trkpt><trkpt lat="43.960995" lon="12.4101095"><ele>200.85714285714286</ele><time>2026-03-29T08:58:12.117Z</time></trkpt><trkpt lat="43.960986" lon="12.4101976"><ele>201.28571428571428</ele><time>2026-03-29T08:58:16.121Z</time></trkpt><trkpt lat="43.9609776" lon="12.4102897"><ele>201.71428571428572</ele><time>2026-03-29T08:58:21.119Z</time></trkpt><trkpt lat="43.9609534" lon="12.4103867"><ele>202.14285714285714</ele><time>2026-03-29T08:58:27.118Z</time></trkpt><trkpt lat="43.960938" lon="12.4104837"><ele>202.57142857142858</ele><time>2026-03-29T08:58:32.073Z</time></trkpt><trkpt lat="43.9609502" lon="12.4105786"><ele>203.0</ele><time>2026-03-29T08:58:37.104Z</time></trkpt><trkpt lat="43.9609523" lon="12.4106729"><ele>203.42857142857142</ele><time>2026-03-29T08:58:42.124Z</time></trkpt><trkpt lat="43.9609523" lon="12.4107607"><ele>203.85714285714286</ele><time>2026-03-29T08:58:47.142Z</time></trkpt><trkpt lat="43.9609549" lon="12.4108594"><ele>204.28571428571428</ele><time>2026-03-29T08:58:51.108Z</time></trkpt><trkpt lat="43.9609652" lon="12.4109553"><ele>204.71428571428572</ele><time>2026-03-29T08:58:55.14Z</time></trkpt><trkpt lat="43.9609829" lon="12.4110556"><ele>205.14285714285714</ele><time>2026-03-29T08:59:00.126Z</time></trkpt><trkpt lat="43.9609722" lon="12.4111524"><ele>205.57142857142856</ele><time>2026-03-29T08:59:06.13Z</time></trkpt><trkpt lat="43.9609451" lon="12.4112486"><ele>206.0</ele><time>2026-03-29T08:59:11.133Z</time></trkpt><trkpt lat="43.9609013" lon="12.4113484"><ele>209.16666666666669</ele><time>2026-03-29T08:59:15.134Z</time></trkpt><trkpt lat="43.9608503" lon="12.4114395"><ele>212.33333333333334</ele><time>2026-03-29T08:59:18.127Z</time></trkpt><trkpt lat="43.9608155" lon="12.411556"><ele>215.5</ele><time>2026-03-29T08:59:21.116Z</time></trkpt><trkpt lat="43.9607946" lon="12.4116447"><ele>218.66666666666669</ele><time>2026-03-29T08:59:23.121Z</time></trkpt><trkpt lat="43.9607725" lon="12.4117314"><ele>221.83333333333334</ele><time>2026-03-29T08:59:25.131Z</time></trkpt><trkpt lat="43.9607488" lon="12.4118383"><ele>225.0</ele><time>2026-03-29T08:59:28.121Z</time></trkpt><trkpt lat="43.9607409" lon="12.4119391"><ele>225.0</ele><time>2026-03-29T08:59:31.123Z</time></trkpt><trkpt lat="43.9607402" lon="12.4120378"><ele>225.0</ele><time>2026-03-29T08:59:34.115Z</time></trkpt><trkpt lat="43.96074" lon="12.4121422"><ele>225.0</ele><time>2026-03-29T08:59:37.135Z</time></trkpt><trkpt lat="43.9607398" lon="12.4122502"><ele>225.0</ele><time>2026-03-29T08:59:40.125Z</time></trkpt><trkpt lat="43.9607506" lon="12.4123649"><ele>225.0</ele><time>2026-03-29T08:59:43.139Z</time></trkpt><trkpt lat="43.9607491" lon="12.4124841"><ele>225.0</ele><time>2026-03-29T08:59:46.14Z</time></trkpt><trkpt lat="43.9607372" lon="12.4126159"><ele>225.33333333333334</ele><time>2026-03-29T08:59:49.135Z</time></trkpt><trkpt lat="43.9607237" lon="12.4127415"><ele>225.66666666666669</ele><time>2026-03-29T08:59:52.117Z</time></trkpt><trkpt lat="43.9606951" lon="12.412858"><ele>226.0</ele><time>2026-03-29T08:59:55.125Z</time></trkpt><trkpt lat="43.9606538" lon="12.4129422"><ele>226.33333333333334</ele><time>2026-03-29T08:59:58.143Z</time></trkpt><trkpt lat="43.9606157" lon="12.4130261"><ele>226.66666666666669</ele><time>2026-03-29T09:00:02.121Z</time></trkpt><trkpt lat="43.9605936" lon="12.4131232"><ele>227.0</ele><time>2026-03-29T09:00:07.09Z</time></trkpt><trkpt lat="43.9605784" lon="12.4132107"><ele>227.42857142857144</ele><time>2026-03-29T09:00:11.114Z</time></trkpt><trkpt lat="43.9605483" lon="12.4133007"><ele>227.8571428571429</ele><time>2026-03-29T09:00:15.123Z</time></trkpt><trkpt lat="43.9605223" lon="12.4133897"><ele>228.28571428571428</ele><time>2026-03-29T09:00:19.109Z</time></trkpt><trkpt lat="43.960498" lon="12.4134893"><ele>228.71428571428572</ele><time>2026-03-29T09:00:24.13Z</time></trkpt><trkpt lat="43.9604803" lon="12.4135738"><ele>229.14285714285714</ele><time>2026-03-29T09:00:28.115Z</time></trkpt><trkpt lat="43.9604463" lon="12.4136512"><ele>229.57142857142856</ele><time>2026-03-29T09:00:32.136Z</time></trkpt><trkpt lat="43.9603994" lon="12.4137404"><ele>229.99999999999997</ele><time>2026-03-29T09:00:37.123Z</time></trkpt><trkpt lat="43.9603511" lon="12.4137991"><ele>230.85714285714283</ele><time>2026-03-29T09:00:42.124Z</time></trkpt><trkpt lat="43.9603249" lon="12.4138946"><ele>231.71428571428572</ele><time>2026-03-29T09:00:48.152Z</time></trkpt><trkpt lat="43.9603043" lon="12.4139836"><ele>232.57142857142856</ele><time>2026-03-29T09:00:53.127Z</time></trkpt><trkpt lat="43.9603068" lon="12.4140864"><ele>233.42857142857142</ele><time>2026-03-29T09:00:59.13Z</time></trkpt><trkpt lat="43.9603082" lon="12.4141786"><ele>234.28571428571428</ele><time>2026-03-29T09:01:05.141Z</time></trkpt><trkpt lat="43.9602827" lon="12.4142835"><ele>235.14285714285714</ele><time>2026-03-29T09:01:10.128Z</time></trkpt><trkpt lat="43.9602231" lon="12.4143549"><ele>236.0</ele><time>2026-03-29T09:01:15.124Z</time></trkpt><trkpt lat="43.9601742" lon="12.4144225"><ele>236.0</ele><time>2026-03-29T09:01:19.139Z</time></trkpt><trkpt lat="43.9601288" lon="12.4144973"><ele>236.0</ele><time>2026-03-29T09:01:25.134Z</time></trkpt><trkpt lat="43.9600837" lon="12.4145691"><ele>236.0</ele><time>2026-03-29T09:01:31.138Z</time></trkpt><trkpt lat="43.9600354" lon="12.4146328"><ele>236.0</ele><time>2026-03-29T09:01:35.12Z</time></trkpt><trkpt lat="43.9599883" lon="12.4147025"><ele>236.0</ele><time>2026-03-29T09:01:39.143Z</time></trkpt><trkpt lat="43.9599757" lon="12.414789"><ele>236.0</ele><time>2026-03-29T09:01:43.15Z</time></trkpt><trkpt lat="43.9599475" lon="12.4148779"><ele>236.0</ele><time>2026-03-29T09:01:48.134Z</time></trkpt><trkpt lat="43.9599354" lon="12.4149772"><ele>239.0</ele><time>2026-03-29T09:01:53.132Z</time></trkpt><trkpt lat="43.9599553" lon="12.4150749"><ele>242.0</ele><time>2026-03-29T09:01:58.094Z</time></trkpt><trkpt lat="43.9599666" lon="12.4151618"><ele>245.0</ele><time>2026-03-29T09:02:02.141Z</time></trkpt><trkpt lat="43.9599799" lon="12.415253"><ele>248.0</ele><time>2026-03-29T09:02:07.054Z</time></trkpt><trkpt lat="43.9599911" lon="12.4153454"><ele>251.0</ele><time>2026-03-29T09:02:13.101Z</time></trkpt><trkpt lat="43.9600106" lon="12.4154397"><ele>254.0</ele><time>2026-03-29T09:02:18.125Z</time></trkpt><trkpt lat="43.9600248" lon="12.4155265"><ele>257.0</ele><time>2026-03-29T09:02:24.124Z</time></trkpt><trkpt lat="43.9600468" lon="12.4156308"><ele>257.2857142857143</ele><time>2026-03-29T09:02:31.109Z</time></trkpt><trkpt lat="43.9600676" lon="12.4157186"><ele>257.57142857142856</ele><time>2026-03-29T09:02:35.125Z</time></trkpt><trkpt lat="43.9600871" lon="12.4158176"><ele>257.8571428571429</ele><time>2026-03-29T09:02:39.135Z</time></trkpt><trkpt lat="43.9601105" lon="12.4159195"><ele>258.1428571428571</ele><time>2026-03-29T09:02:44.138Z</time></trkpt><trkpt lat="43.9601183" lon="12.4160232"><ele>258.42857142857144</ele><time>2026-03-29T09:02:49.115Z</time></trkpt><trkpt lat="43.9601354" lon="12.4161259"><ele>258.7142857142857</ele><time>2026-03-29T09:02:54.126Z</time></trkpt><trkpt lat="43.9601667" lon="12.4162217"><ele>259.0</ele><time>2026-03-29T09:02:59.141Z</time></trkpt><trkpt lat="43.9601936" lon="12.4163091"><ele>260.0</ele><time>2026-03-29T09:03:04.145Z</time></trkpt><trkpt lat="43.960214" lon="12.4164013"><ele>261.0</ele><time>2026-03-29T09:03:09.154Z</time></trkpt><trkpt lat="43.9602115" lon="12.4164935"><ele>262.0</ele><time>2026-03-29T09:03:14.136Z</time></trkpt><trkpt lat="43.9601828" lon="12.4165773"><ele>263.0</ele><time>2026-03-29T09:03:19.13Z</time></trkpt><trkpt lat="43.9601589" lon="12.4166647"><ele>264.0</ele><time>2026-03-29T09:03:24.125Z</time></trkpt><trkpt lat="43.9601263" lon="12.4167458"><ele>265.0</ele><time>2026-03-29T09:03:29.071Z</time></trkpt><trkpt lat="43.9600833" lon="12.416826"><ele>266.0</ele><time>2026-03-29T09:03:34.128Z</time></trkpt><trkpt lat="43.9600451" lon="12.4169076"><ele>267.42857142857144</ele><time>2026-03-29T09:03:39.131Z</time></trkpt><trkpt lat="43.9600001" lon="12.4169865"><ele>268.8571428571429</ele><time>2026-03-29T09:03:44.127Z</time></trkpt><trkpt lat="43.9599668" lon="12.4170615"><ele>270.2857142857143</ele><time>2026-03-29T09:03:48.124Z</time></trkpt><trkpt lat="43.9599103" lon="12.4171322"><ele>271.7142857142857</ele><time>2026-03-29T09:03:53.125Z</time></trkpt><trkpt lat="43.9598584" lon="12.4171836"><ele>273.14285714285717</ele><time>2026-03-29T09:03:57.105Z</time></trkpt><trkpt lat="43.959801" lon="12.4172504"><ele>274.57142857142856</ele><time>2026-03-29T09:04:02.117Z</time></trkpt><trkpt lat="43.9597508" lon="12.4173129"><ele>276.0</ele><time>2026-03-29T09:04:07.135Z</time></trkpt><trkpt lat="43.9596879" lon="12.4173536"><ele>276.57142857142856</ele><time>2026-03-29T09:04:12.133Z</time></trkpt><trkpt lat="43.959634" lon="12.4174121"><ele>277.14285714285717</ele><time>2026-03-29T09:04:17.11Z</time></trkpt><trkpt lat="43.9595907" lon="12.4174801"><ele>277.7142857142857</ele><time>2026-03-29T09:04:21.129Z</time></trkpt><trkpt lat="43.9595548" lon="12.4175618"><ele>278.2857142857143</ele><time>2026-03-29T09:04:25.132Z</time></trkpt><trkpt lat="43.9595239" lon="12.4176595"><ele>278.8571428571429</ele><time>2026-03-29T09:04:29.127Z</time></trkpt><trkpt lat="43.9594969" lon="12.417757"><ele>279.42857142857144</ele><time>2026-03-29T09:04:33.126Z</time></trkpt><trkpt lat="43.9594667" lon="12.4178419"><ele>280.0</ele><time>2026-03-29T09:04:37.14Z</time></trkpt><trkpt lat="43.9594415" lon="12.4179231"><ele>280.0</ele><time>2026-03-29T09:04:41.132Z</time></trkpt><trkpt lat="43.9594003" lon="12.4180174"><ele>280.0</ele><time>2026-03-29T09:04:45.134Z</time></trkpt><trkpt lat="43.959347" lon="12.4180869"><ele>280.0</ele><time>2026-03-29T09:04:48.149Z</time></trkpt><trkpt lat="43.9592924" lon="12.4181536"><ele>280.0</ele><time>2026-03-29T09:04:51.125Z</time></trkpt><trkpt lat="43.9592399" lon="12.418238"><ele>280.0</ele><time>2026-03-29T09:04:54.082Z</time></trkpt><trkpt lat="43.9591827" lon="12.4183071"><ele>280.0</ele><time>2026-03-29T09:04:57.133Z</time></trkpt><trkpt lat="43.9591279" lon="12.4183611"><ele>280.0</ele><time>2026-03-29T09:05:00.142Z</time></trkpt><trkpt lat="43.9590625" lon="12.4184215"><ele>281.85714285714283</ele><time>2026-03-29T09:05:04.14Z</time></trkpt><trkpt lat="43.9589952" lon="12.4184491"><ele>283.7142857142857</ele><time>2026-03-29T09:05:08.152Z</time></trkpt><trkpt lat="43.9589307" lon="12.418476"><ele>285.57142857142856</ele><time>2026-03-29T09:05:12.15Z</time></trkpt><trkpt lat="43.9588604" lon="12.4184828"><ele>287.42857142857144</ele><time>2026-03-29T09:05:16.135Z</time></trkpt><trkpt lat="43.9587903" lon="12.4185007"><ele>289.2857142857143</ele><time>2026-03-29T09:05:20.138Z</time></trkpt><trkpt lat="43.9587206" lon="12.4185483"><ele>291.1428571428571</ele><time>2026-03-29T09:05:24.104Z</time></trkpt><trkpt lat="43.958663" lon="12.4185842"><ele>293.0</ele><time>2026-03-29T09:05:27.136Z</time></trkpt><trkpt lat="43.9585863" lon="12.4186152"><ele>292.99999999999994</ele><time>2026-03-29T09:05:31.154Z</time></trkpt><trkpt lat="43.9585037" lon="12.4186321"><ele>293.0</ele><time>2026-03-29T09:05:35.127Z</time></trkpt><trkpt lat="43.9584324" lon="12.4186489"><ele>293.0</ele><time>2026-03-29T09:05:39.135Z</time></trkpt><trkpt lat="43.9583584" lon="12.4186617"><ele>293.0</ele><time>2026-03-29T09:05:43.132Z</time></trkpt><trkpt lat="43.9582964" lon="12.4186867"><ele>293.0</ele><time>2026-03-29T09:05:46.14Z</time></trkpt><trkpt lat="43.9582358" lon="12.4187489"><ele>292.99999999999994</ele><time>2026-03-29T09:05:50.15Z</time></trkpt><trkpt lat="43.9581951" lon="12.4188237"><ele>293.0</ele><time>2026-03-29T09:05:53.169Z</time></trkpt><trkpt lat="43.9581625" lon="12.4189034"><ele>294.1666666666667</ele><time>2026-03-29T09:05:56.139Z</time></trkpt><trkpt lat="43.9581265" lon="12.4190029"><ele>295.33333333333337</ele><time>2026-03-29T09:05:59.13Z</time></trkpt><trkpt lat="43.958098" lon="12.4191112"><ele>296.5</ele><time>2026-03-29T09:06:02.142Z</time></trkpt><trkpt lat="43.9580607" lon="12.4192139"><ele>297.6666666666667</ele><time>2026-03-29T09:06:05.109Z</time></trkpt><trkpt lat="43.9580246" lon="12.4193335"><ele>298.8333333333333</ele><time>2026-03-29T09:06:08.139Z</time></trkpt><trkpt lat="43.9579912" lon="12.4194391"><ele>300.0</ele><time>2026-03-29T09:06:11.147Z</time></trkpt><trkpt lat="43.9579463" lon="12.4195428"><ele>300.0</ele><time>2026-03-29T09:06:14.111Z</time></trkpt><trkpt lat="43.9579173" lon="12.4196352"><ele>300.0</ele><time>2026-03-29T09:06:17.144Z</time></trkpt><trkpt lat="43.9578808" lon="12.4197179"><ele>300.0</ele><time>2026-03-29T09:06:20.126Z</time></trkpt><trkpt lat="43.9578428" lon="12.4198102"><ele>300.0</ele><time>2026-03-29T09:06:23.128Z</time></trkpt><trkpt lat="43.9578139" lon="12.4199251"><ele>300.0</ele><time>2026-03-29T09:06:26.134Z</time></trkpt><trkpt lat="43.9577892" lon="12.4200441"><ele>300.0</ele><time>2026-03-29T09:06:29.113Z</time></trkpt><trkpt lat="43.957772" lon="12.4201802"><ele>299.99999999999994</ele><time>2026-03-29T09:06:32.128Z</time></trkpt><trkpt lat="43.9577644" lon="12.4202785"><ele>300.0</ele><time>2026-03-29T09:06:34.1Z</time></trkpt><trkpt lat="43.95776" lon="12.4203737"><ele>300.0</ele><time>2026-03-29T09:06:36.133Z</time></trkpt><trkpt lat="43.9577585" lon="12.420476"><ele>300.0</ele><time>2026-03-29T09:06:38.172Z</time></trkpt><trkpt lat="43.9577618" lon="12.4205673"><ele>300.0</ele><time>2026-03-29T09:06:40.151Z</time></trkpt><trkpt lat="43.9577648" lon="12.4206602"><ele>299.99999999999994</ele><time>2026-03-29T09:06:42.117Z</time></trkpt><trkpt lat="43.9577611" lon="12.4207914"><ele>300.0</ele><time>2026-03-29T09:06:45.12Z</time></trkpt><trkpt lat="43.9577588" lon="12.4209144"><ele>300.5</ele><time>2026-03-29T09:06:48.15Z</time></trkpt><trkpt lat="43.9577445" lon="12.4210432"><ele>301.0</ele><time>2026-03-29T09:06:51.131Z</time></trkpt><trkpt lat="43.9577272" lon="12.4211462"><ele>301.5</ele><time>2026-03-29T09:06:54.161Z</time></trkpt><trkpt lat="43.9577055" lon="12.4212752"><ele>302.0</ele><time>2026-03-29T09:06:57.115Z</time></trkpt><trkpt lat="43.9577039" lon="12.4213691"><ele>302.5</ele><time>2026-03-29T09:06:59.125Z</time></trkpt><trkpt lat="43.9576953" lon="12.4214655"><ele>303.0</ele><time>2026-03-29T09:07:01.074Z</time></trkpt><trkpt lat="43.9576873" lon="12.4215585"><ele>303.0</ele><time>2026-03-29T09:07:03.14Z</time></trkpt><trkpt lat="43.9576762" lon="12.4216513"><ele>303.0</ele><time>2026-03-29T09:07:05.157Z</time></trkpt><trkpt lat="43.9576619" lon="12.4217421"><ele>303.0</ele><time>2026-03-29T09:07:07.132Z</time></trkpt><trkpt lat="43.9576512" lon="12.4218429"><ele>303.0</ele><time>2026-03-29T09:07:09.13Z</time></trkpt><trkpt lat="43.9576419" lon="12.4219474"><ele>303.0</ele><time>2026-03-29T09:07:11.13Z</time></trkpt><trkpt lat="43.9576248" lon="12.4220379"><ele>303.0</ele><time>2026-03-29T09:07:13.087Z</time></trkpt><trkpt lat="43.9576136" lon="12.4221377"><ele>303.0</ele><time>2026-03-29T09:07:15.127Z</time></trkpt><trkpt lat="43.9575984" lon="12.4222448"><ele>303.0</ele><time>2026-03-29T09:07:17.134Z</time></trkpt><trkpt lat="43.9575874" lon="12.4223554"><ele>303.0</ele><time>2026-03-29T09:07:19.137Z</time></trkpt><trkpt lat="43.9575834" lon="12.4224935"><ele>303.0</ele><time>2026-03-29T09:07:21.151Z</time></trkpt><trkpt lat="43.9575685" lon="12.4226635"><ele>303.0</ele><time>2026-03-29T09:07:23.142Z</time></trkpt><trkpt lat="43.9575474" lon="12.4228489"><ele>303.0</ele><time>2026-03-29T09:07:25.144Z</time></trkpt><trkpt lat="43.9575376" lon="12.4229478"><ele>303.7142857142857</ele><time>2026-03-29T09:07:26.131Z</time></trkpt><trkpt lat="43.9575266" lon="12.4230477"><ele>304.42857142857144</ele><time>2026-03-29T09:07:27.128Z</time></trkpt><trkpt lat="43.9575098" lon="12.4231488"><ele>305.1428571428571</ele><time>2026-03-29T09:07:28.137Z</time></trkpt><trkpt lat="43.9574898" lon="12.423254"><ele>305.8571428571429</ele><time>2026-03-29T09:07:29.128Z</time></trkpt><trkpt lat="43.9574725" lon="12.423357"><ele>306.57142857142856</ele><time>2026-03-29T09:07:30.127Z</time></trkpt><trkpt lat="43.957449" lon="12.4234513"><ele>307.2857142857143</ele><time>2026-03-29T09:07:31.141Z</time></trkpt><trkpt lat="43.9574309" lon="12.4235473"><ele>308.0</ele><time>2026-03-29T09:07:32.141Z</time></trkpt><trkpt lat="43.9574054" lon="12.4236488"><ele>308.0</ele><time>2026-03-29T09:07:33.133Z</time></trkpt><trkpt lat="43.9573801" lon="12.4237339"><ele>308.0</ele><time>2026-03-29T09:07:34.124Z</time></trkpt><trkpt lat="43.9573626" lon="12.4238224"><ele>308.0</ele><time>2026-03-29T09:07:35.147Z</time></trkpt><trkpt lat="43.9573432" lon="12.4239104"><ele>308.0</ele><time>2026-03-29T09:07:36.136Z</time></trkpt><trkpt lat="43.9573261" lon="12.4240002"><ele>308.0</ele><time>2026-03-29T09:07:37.129Z</time></trkpt><trkpt lat="43.9572952" lon="12.4241689"><ele>308.0</ele><time>2026-03-29T09:07:39.146Z</time></trkpt><trkpt lat="43.9572806" lon="12.4242544"><ele>307.8</ele><time>2026-03-29T09:07:40.122Z</time></trkpt><trkpt lat="43.9572514" lon="12.4244115"><ele>307.6</ele><time>2026-03-29T09:07:42.082Z</time></trkpt><trkpt lat="43.9572245" lon="12.4245496"><ele>307.4</ele><time>2026-03-29T09:07:44.134Z</time></trkpt><trkpt lat="43.9571916" lon="12.4246814"><ele>307.2</ele><time>2026-03-29T09:07:46.114Z</time></trkpt><trkpt lat="43.9571674" lon="12.424818"><ele>307.0</ele><time>2026-03-29T09:07:48.143Z</time></trkpt><trkpt lat="43.9571477" lon="12.424944"><ele>306.2</ele><time>2026-03-29T09:07:50.148Z</time></trkpt><trkpt lat="43.9571243" lon="12.4250779"><ele>305.4</ele><time>2026-03-29T09:07:52.127Z</time></trkpt><trkpt lat="43.957102" lon="12.4252113"><ele>304.6</ele><time>2026-03-29T09:07:54.167Z</time></trkpt><trkpt lat="43.9570826" lon="12.4253534"><ele>303.8</ele><time>2026-03-29T09:07:56.151Z</time></trkpt><trkpt lat="43.9570655" lon="12.4255022"><ele>303.0</ele><time>2026-03-29T09:07:58.123Z</time></trkpt><trkpt lat="43.9570421" lon="12.4256454"><ele>303.0</ele><time>2026-03-29T09:08:00.124Z</time></trkpt><trkpt lat="43.9570299" lon="12.4257855"><ele>303.0</ele><time>2026-03-29T09:08:02.129Z</time></trkpt><trkpt lat="43.9570234" lon="12.4259434"><ele>303.0</ele><time>2026-03-29T09:08:04.149Z</time></trkpt><trkpt lat="43.957034" lon="12.4261182"><ele>303.0</ele><time>2026-03-29T09:08:06.149Z</time></trkpt><trkpt lat="43.9570485" lon="12.4262042"><ele>303.0</ele><time>2026-03-29T09:08:07.148Z</time></trkpt><trkpt lat="43.957105" lon="12.4263465"><ele>304.1666666666667</ele><time>2026-03-29T09:08:09.157Z</time></trkpt><trkpt lat="43.9571705" lon="12.4264769"><ele>305.3333333333333</ele><time>2026-03-29T09:08:11.144Z</time></trkpt><trkpt lat="43.9572328" lon="12.4265937"><ele>306.5</ele><time>2026-03-29T09:08:13.149Z</time></trkpt><trkpt lat="43.9572812" lon="12.4266902"><ele>307.66666666666663</ele><time>2026-03-29T09:08:15.134Z</time></trkpt><trkpt lat="43.9573253" lon="12.4267672"><ele>308.8333333333333</ele><time>2026-03-29T09:08:17.162Z</time></trkpt><trkpt lat="43.9573662" lon="12.4268498"><ele>310.0</ele><time>2026-03-29T09:08:19.139Z</time></trkpt><trkpt lat="43.9574195" lon="12.4269429"><ele>310.0</ele><time>2026-03-29T09:08:22.134Z</time></trkpt><trkpt lat="43.9574774" lon="12.4270205"><ele>310.0</ele><time>2026-03-29T09:08:25.135Z</time></trkpt><trkpt lat="43.957548" lon="12.4270899"><ele>310.0</ele><time>2026-03-29T09:08:28.122Z</time></trkpt><trkpt lat="43.9576203" lon="12.4271143"><ele>310.0</ele><time>2026-03-29T09:08:31.129Z</time></trkpt><trkpt lat="43.9577012" lon="12.4271117"><ele>310.0</ele><time>2026-03-29T09:08:34.146Z</time></trkpt><trkpt lat="43.9577771" lon="12.4271016"><ele>310.0</ele><time>2026-03-29T09:08:37.135Z</time></trkpt><trkpt lat="43.9578578" lon="12.4270749"><ele>311.16666666666663</ele><time>2026-03-29T09:08:40.14Z</time></trkpt><trkpt lat="43.9579324" lon="12.4270422"><ele>312.3333333333333</ele><time>2026-03-29T09:08:43.137Z</time></trkpt><trkpt lat="43.9580019" lon="12.4269951"><ele>313.5</ele><time>2026-03-29T09:08:46.139Z</time></trkpt><trkpt lat="43.9580685" lon="12.4269552"><ele>314.6666666666667</ele><time>2026-03-29T09:08:49.148Z</time></trkpt><trkpt lat="43.9581421" lon="12.4269101"><ele>315.83333333333337</ele><time>2026-03-29T09:08:52.098Z</time></trkpt><trkpt lat="43.958209" lon="12.4268709"><ele>317.0</ele><time>2026-03-29T09:08:55.144Z</time></trkpt><trkpt lat="43.9582806" lon="12.4268192"><ele>317.0</ele><time>2026-03-29T09:08:58.137Z</time></trkpt><trkpt lat="43.9583552" lon="12.426785"><ele>317.0</ele><time>2026-03-29T09:09:01.141Z</time></trkpt><trkpt lat="43.958436" lon="12.426789"><ele>317.0</ele><time>2026-03-29T09:09:04.112Z</time></trkpt><trkpt lat="43.9584964" lon="12.4268482"><ele>317.0</ele><time>2026-03-29T09:09:07.124Z</time></trkpt><trkpt lat="43.9584842" lon="12.4269612"><ele>317.0</ele><time>2026-03-29T09:09:10.074Z</time></trkpt><trkpt lat="43.9584273" lon="12.4270412"><ele>317.0</ele><time>2026-03-29T09:09:13.141Z</time></trkpt><trkpt lat="43.9583573" lon="12.4270968"><ele>317.0</ele><time>2026-03-29T09:09:16.113Z</time></trkpt><trkpt lat="43.9582864" lon="12.4271369"><ele>317.0</ele><time>2026-03-29T09:09:19.145Z</time></trkpt><trkpt lat="43.9582279" lon="12.4271885"><ele>317.0</ele><time>2026-03-29T09:09:22.127Z</time></trkpt><trkpt lat="43.9581866" lon="12.4272737"><ele>317.0</ele><time>2026-03-29T09:09:25.127Z</time></trkpt><trkpt lat="43.9581891" lon="12.4273795"><ele>317.0</ele><time>2026-03-29T09:09:28.136Z</time></trkpt><trkpt lat="43.9582532" lon="12.4274491"><ele>317.0</ele><time>2026-03-29T09:09:31.122Z</time></trkpt><trkpt lat="43.9583257" lon="12.4274867"><ele>319.0</ele><time>2026-03-29T09:09:34.128Z</time></trkpt><trkpt lat="43.9584103" lon="12.4274737"><ele>321.0</ele><time>2026-03-29T09:09:37.112Z</time></trkpt><trkpt lat="43.9584965" lon="12.4274504"><ele>323.0</ele><time>2026-03-29T09:09:40.118Z</time></trkpt><trkpt lat="43.9585847" lon="12.4274101"><ele>325.0</ele><time>2026-03-29T09:09:43.14Z</time></trkpt><trkpt lat="43.9586689" lon="12.4273688"><ele>327.0</ele><time>2026-03-29T09:09:46.124Z</time></trkpt><trkpt lat="43.9587555" lon="12.4273486"><ele>329.0</ele><time>2026-03-29T09:09:49.137Z</time></trkpt><trkpt lat="43.9588196" lon="12.4273522"><ele>329.0</ele><time>2026-03-29T09:09:51.117Z</time></trkpt><trkpt lat="43.9589109" lon="12.4273524"><ele>329.0</ele><time>2026-03-29T09:09:54.1Z</time></trkpt><trkpt lat="43.9589731" lon="12.4273708"><ele>329.0</ele><time>2026-03-29T09:09:56.109Z</time></trkpt><trkpt lat="43.9590569" lon="12.4273861"><ele>329.0</ele><time>2026-03-29T09:09:59.13Z</time></trkpt><trkpt lat="43.9591222" lon="12.4274144"><ele>329.0</ele><time>2026-03-29T09:10:01.138Z</time></trkpt><trkpt lat="43.9592042" lon="12.4274604"><ele>329.0</ele><time>2026-03-29T09:10:04.126Z</time></trkpt><trkpt lat="43.9592721" lon="12.4275058"><ele>328.83333333333337</ele><time>2026-03-29T09:10:07.126Z</time></trkpt><trkpt lat="43.9593281" lon="12.4275677"><ele>328.6666666666667</ele><time>2026-03-29T09:10:10.12Z</time></trkpt><trkpt lat="43.9593764" lon="12.4276589"><ele>328.5</ele><time>2026-03-29T09:10:13.122Z</time></trkpt><trkpt lat="43.9594246" lon="12.4277666"><ele>328.3333333333333</ele><time>2026-03-29T09:10:16.127Z</time></trkpt><trkpt lat="43.9594677" lon="12.4278726"><ele>328.16666666666663</ele><time>2026-03-29T09:10:19.135Z</time></trkpt><trkpt lat="43.9594964" lon="12.4279508"><ele>328.0</ele><time>2026-03-29T09:10:21.107Z</time></trkpt><trkpt lat="43.9595325" lon="12.4280703"><ele>327.99999999999994</ele><time>2026-03-29T09:10:24.131Z</time></trkpt><trkpt lat="43.9595646" lon="12.4281833"><ele>328.0</ele><time>2026-03-29T09:10:27.123Z</time></trkpt><trkpt lat="43.9595902" lon="12.4282923"><ele>328.0</ele><time>2026-03-29T09:10:30.106Z</time></trkpt><trkpt lat="43.9596093" lon="12.4283758"><ele>328.0</ele><time>2026-03-29T09:10:32.135Z</time></trkpt><trkpt lat="43.9596288" lon="12.4284663"><ele>328.0</ele><time>2026-03-29T09:10:34.17Z</time></trkpt><trkpt lat="43.9596506" lon="12.4285532"><ele>327.99999999999994</ele><time>2026-03-29T09:10:36.133Z</time></trkpt><trkpt lat="43.9596742" lon="12.4286376"><ele>328.0</ele><time>2026-03-29T09:10:38.125Z</time></trkpt><trkpt lat="43.9596976" lon="12.4287552"><ele>329.2857142857143</ele><time>2026-03-29T09:10:41.134Z</time></trkpt><trkpt lat="43.9597274" lon="12.4288636"><ele>330.57142857142856</ele><time>2026-03-29T09:10:44.12Z</time></trkpt><trkpt lat="43.9597509" lon="12.4289857"><ele>331.8571428571429</ele><time>2026-03-29T09:10:47.138Z</time></trkpt><trkpt lat="43.9597766" lon="12.4290827"><ele>333.1428571428571</ele><time>2026-03-29T09:10:50.143Z</time></trkpt><trkpt lat="43.9597836" lon="12.4291736"><ele>334.42857142857144</ele><time>2026-03-29T09:10:53.099Z</time></trkpt><trkpt lat="43.9598009" lon="12.4292666"><ele>335.7142857142857</ele><time>2026-03-29T09:10:57.151Z</time></trkpt><trkpt lat="43.9598572" lon="12.4293127"><ele>337.0</ele><time>2026-03-29T09:11:00.133Z</time></trkpt><trkpt lat="43.9599417" lon="12.4293615"><ele>337.0</ele><time>2026-03-29T09:11:04.141Z</time></trkpt><trkpt lat="43.9600141" lon="12.4293928"><ele>337.0</ele><time>2026-03-29T09:11:07.091Z</time></trkpt><trkpt lat="43.9600913" lon="12.4294284"><ele>337.0</ele><time>2026-03-29T09:11:10.131Z</time></trkpt><trkpt lat="43.9601617" lon="12.4294572"><ele>337.0</ele><time>2026-03-29T09:11:13.132Z</time></trkpt><trkpt lat="43.9602318" lon="12.4294894"><ele>337.0</ele><time>2026-03-29T09:11:16.112Z</time></trkpt><trkpt lat="43.9603161" lon="12.4294722"><ele>337.0</ele><time>2026-03-29T09:11:20.122Z</time></trkpt><trkpt lat="43.9603819" lon="12.4294351"><ele>335.8571428571429</ele><time>2026-03-29T09:11:23.134Z</time></trkpt><trkpt lat="43.9604686" lon="12.4294202"><ele>334.7142857142857</ele><time>2026-03-29T09:11:26.123Z</time></trkpt><trkpt lat="43.9605466" lon="12.4294207"><ele>333.57142857142856</ele><time>2026-03-29T09:11:29.101Z</time></trkpt><trkpt lat="43.96048" lon="12.4294228"><ele>332.42857142857144</ele><time>2026-03-29T09:11:45.06Z</time></trkpt><trkpt lat="43.9604157" lon="12.4294294"><ele>331.2857142857143</ele><time>2026-03-29T09:11:48.055Z</time></trkpt><trkpt lat="43.9603462" lon="12.4294704"><ele>330.14285714285717</ele><time>2026-03-29T09:11:51.114Z</time></trkpt><trkpt lat="43.9602751" lon="12.4294979"><ele>329.0</ele><time>2026-03-29T09:11:54.085Z</time></trkpt><trkpt lat="43.9601978" lon="12.4294779"><ele>329.0</ele><time>2026-03-29T09:11:57.106Z</time></trkpt><trkpt lat="43.9601256" lon="12.4294249"><ele>329.0</ele><time>2026-03-29T09:12:00.078Z</time></trkpt><trkpt lat="43.9600636" lon="12.429388"><ele>329.0</ele><time>2026-03-29T09:12:02.125Z</time></trkpt><trkpt lat="43.9599908" lon="12.4293767"><ele>329.0</ele><time>2026-03-29T09:12:04.14Z</time></trkpt><trkpt lat="43.9599251" lon="12.429357"><ele>329.0</ele><time>2026-03-29T09:12:06.103Z</time></trkpt><trkpt lat="43.9598613" lon="12.4293409"><ele>329.0</ele><time>2026-03-29T09:12:08.137Z</time></trkpt><trkpt lat="43.9597751" lon="12.4293265"><ele>329.0</ele><time>2026-03-29T09:12:11.129Z</time></trkpt><trkpt lat="43.95971" lon="12.429329"><ele>330.33333333333337</ele><time>2026-03-29T09:12:13.116Z</time></trkpt><trkpt lat="43.9596307" lon="12.4293302"><ele>331.6666666666667</ele><time>2026-03-29T09:12:16.122Z</time></trkpt><trkpt lat="43.9595674" lon="12.429293"><ele>333.0</ele><time>2026-03-29T09:12:19.117Z</time></trkpt><trkpt lat="43.9595262" lon="12.4291989"><ele>334.3333333333333</ele><time>2026-03-29T09:12:22.117Z</time></trkpt><trkpt lat="43.9595005" lon="12.4290957"><ele>335.66666666666663</ele><time>2026-03-29T09:12:25.131Z</time></trkpt><trkpt lat="43.9594682" lon="12.4289967"><ele>337.0</ele><time>2026-03-29T09:12:28.109Z</time></trkpt><trkpt lat="43.9594212" lon="12.4288862"><ele>337.66666666666663</ele><time>2026-03-29T09:12:31.119Z</time></trkpt><trkpt lat="43.9593761" lon="12.4287759"><ele>338.3333333333333</ele><time>2026-03-29T09:12:34.133Z</time></trkpt><trkpt lat="43.959347" lon="12.4286957"><ele>339.0</ele><time>2026-03-29T09:12:36.109Z</time></trkpt><trkpt lat="43.9593161" lon="12.428618"><ele>339.6666666666667</ele><time>2026-03-29T09:12:38.118Z</time></trkpt><trkpt lat="43.9592778" lon="12.4285385"><ele>340.33333333333337</ele><time>2026-03-29T09:12:40.103Z</time></trkpt><trkpt lat="43.9592214" lon="12.4284346"><ele>341.0</ele><time>2026-03-29T09:12:43.11Z</time></trkpt><trkpt lat="43.9591655" lon="12.4283819"><ele>341.0</ele><time>2026-03-29T09:12:45.087Z</time></trkpt><trkpt lat="43.9590812" lon="12.4283335"><ele>341.0</ele><time>2026-03-29T09:12:48.091Z</time></trkpt><trkpt lat="43.9589998" lon="12.4283024"><ele>341.0</ele><time>2026-03-29T09:12:51.119Z</time></trkpt><trkpt lat="43.9589167" lon="12.4283216"><ele>341.0</ele><time>2026-03-29T09:12:54.143Z</time></trkpt><trkpt lat="43.9588427" lon="12.4283679"><ele>341.0</ele><time>2026-03-29T09:12:57.128Z</time></trkpt><trkpt lat="43.9587757" lon="12.4284552"><ele>341.0</ele><time>2026-03-29T09:13:00.139Z</time></trkpt><trkpt lat="43.9587519" lon="12.4285629"><ele>341.0</ele><time>2026-03-29T09:13:03.136Z</time></trkpt><trkpt lat="43.958765" lon="12.428677"><ele>341.0</ele><time>2026-03-29T09:13:06.109Z</time></trkpt><trkpt lat="43.9587963" lon="12.4287602"><ele>341.0</ele><time>2026-03-29T09:13:08.117Z</time></trkpt><trkpt lat="43.9588481" lon="12.4288643"><ele>341.0</ele><time>2026-03-29T09:13:11.141Z</time></trkpt><trkpt lat="43.9589102" lon="12.4289594"><ele>341.0</ele><time>2026-03-29T09:13:14.136Z</time></trkpt><trkpt lat="43.9589745" lon="12.4290473"><ele>341.0</ele><time>2026-03-29T09:13:17.14Z</time></trkpt><trkpt lat="43.9590203" lon="12.4291594"><ele>341.6666666666667</ele><time>2026-03-29T09:13:20.116Z</time></trkpt><trkpt lat="43.959058" lon="12.4292764"><ele>342.33333333333337</ele><time>2026-03-29T09:13:23.086Z</time></trkpt><trkpt lat="43.9590747" lon="12.4294008"><ele>343.0</ele><time>2026-03-29T09:13:26.098Z</time></trkpt><trkpt lat="43.9590761" lon="12.429521"><ele>343.6666666666667</ele><time>2026-03-29T09:13:29.127Z</time></trkpt><trkpt lat="43.9590776" lon="12.429615"><ele>344.3333333333333</ele><time>2026-03-29T09:13:32.135Z</time></trkpt><trkpt lat="43.9590696" lon="12.4297124"><ele>345.0</ele><time>2026-03-29T09:13:35.098Z</time></trkpt><trkpt lat="43.9590482" lon="12.429795"><ele>346.42857142857144</ele><time>2026-03-29T09:13:38.098Z</time></trkpt><trkpt lat="43.9590183" lon="12.4298758"><ele>347.85714285714283</ele><time>2026-03-29T09:13:41.134Z</time></trkpt><trkpt lat="43.9589935" lon="12.4299751"><ele>349.2857142857143</ele><time>2026-03-29T09:13:45.118Z</time></trkpt><trkpt lat="43.9590086" lon="12.4300764"><ele>350.7142857142857</ele><time>2026-03-29T09:13:49.142Z</time></trkpt><trkpt lat="43.9590529" lon="12.4301607"><ele>352.14285714285717</ele><time>2026-03-29T09:13:54.126Z</time></trkpt><trkpt lat="43.9590869" lon="12.4302439"><ele>353.57142857142856</ele><time>2026-03-29T09:13:59.124Z</time></trkpt><trkpt lat="43.9591222" lon="12.4303245"><ele>355.0</ele><time>2026-03-29T09:14:04.117Z</time></trkpt><trkpt lat="43.9591651" lon="12.4304121"><ele>355.42857142857144</ele><time>2026-03-29T09:14:09.138Z</time></trkpt><trkpt lat="43.9592044" lon="12.4304926"><ele>355.8571428571429</ele><time>2026-03-29T09:14:12.132Z</time></trkpt><trkpt lat="43.9592516" lon="12.4305619"><ele>356.28571428571433</ele><time>2026-03-29T09:14:15.127Z</time></trkpt><trkpt lat="43.9592937" lon="12.4306408"><ele>356.7142857142857</ele><time>2026-03-29T09:14:18.131Z</time></trkpt><trkpt lat="43.9593499" lon="12.4307274"><ele>357.14285714285717</ele><time>2026-03-29T09:14:21.141Z</time></trkpt><trkpt lat="43.9593987" lon="12.4308071"><ele>357.5714285714286</ele><time>2026-03-29T09:14:24.12Z</time></trkpt><trkpt lat="43.9594426" lon="12.4308996"><ele>358.0</ele><time>2026-03-29T09:14:28.104Z</time></trkpt><trkpt lat="43.9594796" lon="12.4309719"><ele>358.00000000000006</ele><time>2026-03-29T09:14:32.133Z</time></trkpt><trkpt lat="43.9594714" lon="12.4310648"><ele>358.0</ele><time>2026-03-29T09:14:39.12Z</time></trkpt><trkpt lat="43.9593974" lon="12.4311062"><ele>358.0</ele><time>2026-03-29T09:14:43.127Z</time></trkpt><trkpt lat="43.9593319" lon="12.4311475"><ele>358.0</ele><time>2026-03-29T09:14:47.143Z</time></trkpt><trkpt lat="43.9592699" lon="12.4311821"><ele>358.0</ele><time>2026-03-29T09:14:51.132Z</time></trkpt><trkpt lat="43.9592058" lon="12.4312242"><ele>358.00000000000006</ele><time>2026-03-29T09:14:55.146Z</time></trkpt><trkpt lat="43.9591372" lon="12.4312515"><ele>358.0</ele><time>2026-03-29T09:15:00.133Z</time></trkpt><trkpt lat="43.9590701" lon="12.4312921"><ele>360.00000000000006</ele><time>2026-03-29T09:15:05.134Z</time></trkpt><trkpt lat="43.9590044" lon="12.4313121"><ele>362.0</ele><time>2026-03-29T09:15:10.142Z</time></trkpt><trkpt lat="43.9589392" lon="12.4313497"><ele>364.0</ele><time>2026-03-29T09:15:14.133Z</time></trkpt><trkpt lat="43.9588704" lon="12.4313781"><ele>366.0</ele><time>2026-03-29T09:15:19.128Z</time></trkpt><trkpt lat="43.9588041" lon="12.4314172"><ele>368.0</ele><time>2026-03-29T09:15:24.118Z</time></trkpt><trkpt lat="43.9587466" lon="12.4314578"><ele>370.00000000000006</ele><time>2026-03-29T09:15:28.127Z</time></trkpt><trkpt lat="43.9586793" lon="12.4315002"><ele>372.0</ele><time>2026-03-29T09:15:32.133Z</time></trkpt><trkpt lat="43.9586388" lon="12.4315755"><ele>372.00000000000006</ele><time>2026-03-29T09:15:35.138Z</time></trkpt><trkpt lat="43.9585908" lon="12.4316442"><ele>372.0</ele><time>2026-03-29T09:15:38.123Z</time></trkpt><trkpt lat="43.9585428" lon="12.4317166"><ele>372.0</ele><time>2026-03-29T09:15:41.132Z</time></trkpt><trkpt lat="43.9584913" lon="12.4317842"><ele>372.0</ele><time>2026-03-29T09:15:44.132Z</time></trkpt><trkpt lat="43.9584489" lon="12.4318682"><ele>372.0</ele><time>2026-03-29T09:15:47.117Z</time></trkpt><trkpt lat="43.9584033" lon="12.4319417"><ele>372.00000000000006</ele><time>2026-03-29T09:15:50.147Z</time></trkpt><trkpt lat="43.9583581" lon="12.43202"><ele>372.0</ele><time>2026-03-29T09:15:53.124Z</time></trkpt><trkpt lat="43.9583166" lon="12.4320975"><ele>373.3333333333333</ele><time>2026-03-29T09:15:56.137Z</time></trkpt><trkpt lat="43.9582772" lon="12.4321711"><ele>374.6666666666667</ele><time>2026-03-29T09:15:59.143Z</time></trkpt><trkpt lat="43.9582778" lon="12.4322898"><ele>376.0</ele><time>2026-03-29T09:16:03.114Z</time></trkpt><trkpt lat="43.9582848" lon="12.4323978"><ele>377.33333333333337</ele><time>2026-03-29T09:16:07.146Z</time></trkpt><trkpt lat="43.9582807" lon="12.4325069"><ele>378.6666666666667</ele><time>2026-03-29T09:16:11.133Z</time></trkpt><trkpt lat="43.9582883" lon="12.4326107"><ele>380.0</ele><time>2026-03-29T09:16:15.127Z</time></trkpt><trkpt lat="43.9582979" lon="12.4327057"><ele>380.0</ele><time>2026-03-29T09:16:19.134Z</time></trkpt><trkpt lat="43.9583127" lon="12.4327994"><ele>380.0</ele><time>2026-03-29T09:16:23.148Z</time></trkpt><trkpt lat="43.9583329" lon="12.4328905"><ele>380.0</ele><time>2026-03-29T09:16:27.099Z</time></trkpt><trkpt lat="43.9583705" lon="12.4329918"><ele>380.0</ele><time>2026-03-29T09:16:32.141Z</time></trkpt><trkpt lat="43.9584064" lon="12.4330888"><ele>380.0</ele><time>2026-03-29T09:16:37.131Z</time></trkpt><trkpt lat="43.9584345" lon="12.433177"><ele>380.0</ele><time>2026-03-29T09:16:42.082Z</time></trkpt><trkpt lat="43.9584576" lon="12.4332596"><ele>380.0</ele><time>2026-03-29T09:16:46.124Z</time></trkpt><trkpt lat="43.9584881" lon="12.4333412"><ele>380.8571428571429</ele><time>2026-03-29T09:16:51.127Z</time></trkpt><trkpt lat="43.9585176" lon="12.433426"><ele>381.7142857142857</ele><time>2026-03-29T09:16:56.135Z</time></trkpt><trkpt lat="43.9585446" lon="12.4335119"><ele>382.57142857142856</ele><time>2026-03-29T09:17:01.119Z</time></trkpt><trkpt lat="43.9585702" lon="12.4335994"><ele>383.42857142857144</ele><time>2026-03-29T09:17:06.131Z</time></trkpt><trkpt lat="43.9586053" lon="12.4336795"><ele>384.2857142857143</ele><time>2026-03-29T09:17:11.126Z</time></trkpt><trkpt lat="43.9586434" lon="12.4337795"><ele>385.14285714285717</ele><time>2026-03-29T09:17:16.102Z</time></trkpt><trkpt lat="43.958673" lon="12.433878"><ele>386.0</ele><time>2026-03-29T09:17:21.162Z</time></trkpt><trkpt lat="43.9586947" lon="12.4339766"><ele>386.14285714285717</ele><time>2026-03-29T09:17:26.147Z</time></trkpt><trkpt lat="43.9586879" lon="12.434079"><ele>386.2857142857143</ele><time>2026-03-29T09:17:31.115Z</time></trkpt><trkpt lat="43.9586615" lon="12.4341612"><ele>386.42857142857144</ele><time>2026-03-29T09:17:35.133Z</time></trkpt><trkpt lat="43.9586276" lon="12.4342393"><ele>386.57142857142856</ele><time>2026-03-29T09:17:39.144Z</time></trkpt><trkpt lat="43.9585857" lon="12.4343127"><ele>386.7142857142857</ele><time>2026-03-29T09:17:43.135Z</time></trkpt><trkpt lat="43.9585418" lon="12.4343793"><ele>386.8571428571429</ele><time>2026-03-29T09:17:47.127Z</time></trkpt><trkpt lat="43.9584971" lon="12.4344493"><ele>387.0</ele><time>2026-03-29T09:17:51.126Z</time></trkpt><trkpt lat="43.9584412" lon="12.4345182"><ele>387.0</ele><time>2026-03-29T09:17:55.156Z</time></trkpt><trkpt lat="43.958379" lon="12.434575"><ele>387.0</ele><time>2026-03-29T09:17:59.136Z</time></trkpt><trkpt lat="43.9583301" lon="12.4346431"><ele>387.0</ele><time>2026-03-29T09:18:03.083Z</time></trkpt><trkpt lat="43.9582645" lon="12.4347133"><ele>387.0</ele><time>2026-03-29T09:18:07.138Z</time></trkpt><trkpt lat="43.9582023" lon="12.4347842"><ele>387.0</ele><time>2026-03-29T09:18:11.09Z</time></trkpt><trkpt lat="43.9581473" lon="12.4348465"><ele>387.0</ele><time>2026-03-29T09:18:14.147Z</time></trkpt><trkpt lat="43.9580777" lon="12.4349361"><ele>389.6</ele><time>2026-03-29T09:18:17.132Z</time></trkpt><trkpt lat="43.9580235" lon="12.4350067"><ele>392.20000000000005</ele><time>2026-03-29T09:18:19.124Z</time></trkpt><trkpt lat="43.957956" lon="12.4350849"><ele>394.8</ele><time>2026-03-29T09:18:21.13Z</time></trkpt><trkpt lat="43.9578775" lon="12.4351729"><ele>397.4</ele><time>2026-03-29T09:18:23.135Z</time></trkpt><trkpt lat="43.9577929" lon="12.4352698"><ele>400.0</ele><time>2026-03-29T09:18:25.141Z</time></trkpt><trkpt lat="43.9576936" lon="12.4353622"><ele>400.00000000000006</ele><time>2026-03-29T09:18:27.137Z</time></trkpt><trkpt lat="43.9576334" lon="12.4353978"><ele>400.0</ele><time>2026-03-29T09:18:28.125Z</time></trkpt><trkpt lat="43.9575719" lon="12.4354363"><ele>400.0</ele><time>2026-03-29T09:18:29.147Z</time></trkpt><trkpt lat="43.9575154" lon="12.4354849"><ele>400.0</ele><time>2026-03-29T09:18:30.14Z</time></trkpt><trkpt lat="43.9574639" lon="12.4355416"><ele>400.0</ele><time>2026-03-29T09:18:31.13Z</time></trkpt><trkpt lat="43.9574142" lon="12.4356034"><ele>400.00000000000006</ele><time>2026-03-29T09:18:32.141Z</time></trkpt><trkpt lat="43.95738" lon="12.4356857"><ele>400.0</ele><time>2026-03-29T09:18:33.132Z</time></trkpt><trkpt lat="43.9573658" lon="12.435788"><ele>400.00000000000006</ele><time>2026-03-29T09:18:34.134Z</time></trkpt><trkpt lat="43.957362" lon="12.4358928"><ele>400.0</ele><time>2026-03-29T09:18:35.129Z</time></trkpt><trkpt lat="43.9573508" lon="12.4360078"><ele>400.0</ele><time>2026-03-29T09:18:36.139Z</time></trkpt><trkpt lat="43.9573436" lon="12.4361278"><ele>400.0</ele><time>2026-03-29T09:18:37.144Z</time></trkpt><trkpt lat="43.9573275" lon="12.4362602"><ele>400.00000000000006</ele><time>2026-03-29T09:18:38.155Z</time></trkpt><trkpt lat="43.9573121" lon="12.4363886"><ele>400.0</ele><time>2026-03-29T09:18:39.149Z</time></trkpt><trkpt lat="43.9572943" lon="12.4365162"><ele>398.50000000000006</ele><time>2026-03-29T09:18:40.148Z</time></trkpt><trkpt lat="43.9572658" lon="12.4366371"><ele>397.0</ele><time>2026-03-29T09:18:41.118Z</time></trkpt><trkpt lat="43.957236" lon="12.4367492"><ele>395.5</ele><time>2026-03-29T09:18:42.128Z</time></trkpt><trkpt lat="43.9572053" lon="12.4368359"><ele>394.0</ele><time>2026-03-29T09:18:43.132Z</time></trkpt><trkpt lat="43.9571477" lon="12.4369674"><ele>392.50000000000006</ele><time>2026-03-29T09:18:45.117Z</time></trkpt><trkpt lat="43.9571418" lon="12.4370621"><ele>391.0</ele><time>2026-03-29T09:18:49.131Z</time></trkpt><trkpt lat="43.9572196" lon="12.4370031"><ele>391.0</ele><time>2026-03-29T09:18:52.12Z</time></trkpt><trkpt lat="43.9572509" lon="12.4369103"><ele>391.0</ele><time>2026-03-29T09:18:54.141Z</time></trkpt><trkpt lat="43.9572941" lon="12.4368062"><ele>391.0</ele><time>2026-03-29T09:18:56.132Z</time></trkpt><trkpt lat="43.9573499" lon="12.4366938"><ele>391.0</ele><time>2026-03-29T09:18:58.101Z</time></trkpt><trkpt lat="43.9574123" lon="12.4365966"><ele>391.0</ele><time>2026-03-29T09:19:00.089Z</time></trkpt><trkpt lat="43.957516" lon="12.4364523"><ele>391.33333333333337</ele><time>2026-03-29T09:19:03.123Z</time></trkpt><trkpt lat="43.9576015" lon="12.4363672"><ele>391.6666666666667</ele><time>2026-03-29T09:19:05.104Z</time></trkpt><trkpt lat="43.9577117" lon="12.4362891"><ele>392.0</ele><time>2026-03-29T09:19:07.137Z</time></trkpt><trkpt lat="43.9577768" lon="12.4362649"><ele>392.33333333333337</ele><time>2026-03-29T09:19:08.148Z</time></trkpt><trkpt lat="43.9578488" lon="12.4362487"><ele>392.6666666666667</ele><time>2026-03-29T09:19:09.143Z</time></trkpt><trkpt lat="43.9579202" lon="12.4362393"><ele>393.0</ele><time>2026-03-29T09:19:10.145Z</time></trkpt><trkpt lat="43.9579934" lon="12.4362343"><ele>393.0</ele><time>2026-03-29T09:19:11.134Z</time></trkpt><trkpt lat="43.9580737" lon="12.4362359"><ele>393.0</ele><time>2026-03-29T09:19:12.118Z</time></trkpt><trkpt lat="43.9581504" lon="12.4362342"><ele>393.0</ele><time>2026-03-29T09:19:13.148Z</time></trkpt><trkpt lat="43.9582387" lon="12.4362354"><ele>393.0</ele><time>2026-03-29T09:19:14.121Z</time></trkpt><trkpt lat="43.9583125" lon="12.4362221"><ele>393.0</ele><time>2026-03-29T09:19:15.138Z</time></trkpt><trkpt lat="43.958393" lon="12.4362057"><ele>393.0</ele><time>2026-03-29T09:19:16.137Z</time></trkpt><trkpt lat="43.9584801" lon="12.4361755"><ele>390.79999999999995</ele><time>2026-03-29T09:19:17.096Z</time></trkpt><trkpt lat="43.9585637" lon="12.4361237"><ele>388.6</ele><time>2026-03-29T09:19:18.143Z</time></trkpt><trkpt lat="43.9586425" lon="12.4360678"><ele>386.4</ele><time>2026-03-29T09:19:19.124Z</time></trkpt><trkpt lat="43.9587176" lon="12.4360061"><ele>384.20000000000005</ele><time>2026-03-29T09:19:20.079Z</time></trkpt><trkpt lat="43.9587963" lon="12.4359385"><ele>382.0</ele><time>2026-03-29T09:19:21.119Z</time></trkpt><trkpt lat="43.9588819" lon="12.4358702"><ele>382.0</ele><time>2026-03-29T09:19:22.127Z</time></trkpt><trkpt lat="43.9589647" lon="12.4358226"><ele>382.0</ele><time>2026-03-29T09:19:23.121Z</time></trkpt><trkpt lat="43.9590443" lon="12.4358255"><ele>382.0</ele><time>2026-03-29T09:19:24.131Z</time></trkpt><trkpt lat="43.9591074" lon="12.4358898"><ele>382.0</ele><time>2026-03-29T09:19:25.129Z</time></trkpt><trkpt lat="43.9591446" lon="12.4360261"><ele>382.0</ele><time>2026-03-29T09:19:26.127Z</time></trkpt><trkpt lat="43.9591521" lon="12.4361711"><ele>380.0</ele><time>2026-03-29T09:19:27.139Z</time></trkpt><trkpt lat="43.959147" lon="12.4363082"><ele>378.0</ele><time>2026-03-29T09:19:28.105Z</time></trkpt><trkpt lat="43.9591061" lon="12.4364478"><ele>376.0</ele><time>2026-03-29T09:19:29.128Z</time></trkpt><trkpt lat="43.9590608" lon="12.436579"><ele>374.0</ele><time>2026-03-29T09:19:30.132Z</time></trkpt><trkpt lat="43.9590144" lon="12.4367038"><ele>372.0</ele><time>2026-03-29T09:19:31.137Z</time></trkpt><trkpt lat="43.9589683" lon="12.4368233"><ele>372.0</ele><time>2026-03-29T09:19:32.09Z</time></trkpt><trkpt lat="43.9589226" lon="12.4369583"><ele>372.0</ele><time>2026-03-29T09:19:33.14Z</time></trkpt><trkpt lat="43.9588885" lon="12.4371069"><ele>372.0</ele><time>2026-03-29T09:19:34.124Z</time></trkpt><trkpt lat="43.9588739" lon="12.4372647"><ele>372.0</ele><time>2026-03-29T09:19:35.13Z</time></trkpt><trkpt lat="43.9588867" lon="12.4374433"><ele>369.75</ele><time>2026-03-29T09:19:36.133Z</time></trkpt><trkpt lat="43.9589277" lon="12.4376148"><ele>367.5</ele><time>2026-03-29T09:19:37.133Z</time></trkpt><trkpt lat="43.9590004" lon="12.4377554"><ele>365.25</ele><time>2026-03-29T09:19:38.151Z</time></trkpt><trkpt lat="43.9590933" lon="12.4378929"><ele>363.0</ele><time>2026-03-29T09:19:39.107Z</time></trkpt><trkpt lat="43.9592025" lon="12.4380106"><ele>359.75</ele><time>2026-03-29T09:19:40.135Z</time></trkpt><trkpt lat="43.9593131" lon="12.4381251"><ele>356.5</ele><time>2026-03-29T09:19:41.131Z</time></trkpt><trkpt lat="43.9594267" lon="12.4382391"><ele>353.25</ele><time>2026-03-29T09:19:42.149Z</time></trkpt><trkpt lat="43.9595468" lon="12.438353"><ele>350.0</ele><time>2026-03-29T09:19:43.139Z</time></trkpt><trkpt lat="43.9596745" lon="12.4384536"><ele>350.0</ele><time>2026-03-29T09:19:44.144Z</time></trkpt><trkpt lat="43.9598124" lon="12.4385441"><ele>350.0</ele><time>2026-03-29T09:19:45.146Z</time></trkpt><trkpt lat="43.9599567" lon="12.4386238"><ele>350.0</ele><time>2026-03-29T09:19:46.138Z</time></trkpt><trkpt lat="43.960103" lon="12.438699"><ele>347.0</ele><time>2026-03-29T09:19:47.142Z</time></trkpt><trkpt lat="43.9602469" lon="12.4387578"><ele>344.0</ele><time>2026-03-29T09:19:48.063Z</time></trkpt><trkpt lat="43.960387" lon="12.4388228"><ele>341.0</ele><time>2026-03-29T09:19:49.082Z</time></trkpt><trkpt lat="43.9605211" lon="12.4389005"><ele>338.0</ele><time>2026-03-29T09:19:50.064Z</time></trkpt><trkpt lat="43.9606587" lon="12.4389992"><ele>336.0</ele><time>2026-03-29T09:19:51.065Z</time></trkpt><trkpt lat="43.9608005" lon="12.4391002"><ele>334.0</ele><time>2026-03-29T09:19:52.077Z</time></trkpt><trkpt lat="43.9609448" lon="12.4391946"><ele>332.0</ele><time>2026-03-29T09:19:53.079Z</time></trkpt><trkpt lat="43.9610984" lon="12.4392761"><ele>326.33333333333337</ele><time>2026-03-29T09:19:54.064Z</time></trkpt><trkpt lat="43.961252" lon="12.4393448"><ele>320.6666666666667</ele><time>2026-03-29T09:19:55.112Z</time></trkpt><trkpt lat="43.9614042" lon="12.4394166"><ele>315.0</ele><time>2026-03-29T09:19:56.102Z</time></trkpt><trkpt lat="43.9615474" lon="12.4395058"><ele>315.0</ele><time>2026-03-29T09:19:57.133Z</time></trkpt><trkpt lat="43.961685" lon="12.4396014"><ele>315.0</ele><time>2026-03-29T09:19:58.098Z</time></trkpt><trkpt lat="43.9618154" lon="12.4396943"><ele>315.0</ele><time>2026-03-29T09:19:59.1Z</time></trkpt><trkpt lat="43.9619475" lon="12.4397941"><ele>314.0</ele><time>2026-03-29T09:20:00.114Z</time></trkpt><trkpt lat="43.9620755" lon="12.4399002"><ele>313.0</ele><time>2026-03-29T09:20:01.113Z</time></trkpt><trkpt lat="43.9621971" lon="12.4399965"><ele>312.0</ele><time>2026-03-29T09:20:02.104Z</time></trkpt><trkpt lat="43.9623182" lon="12.4400912"><ele>311.0</ele><time>2026-03-29T09:20:03.135Z</time></trkpt><trkpt lat="43.9624346" lon="12.4401747"><ele>311.25</ele><time>2026-03-29T09:20:04.091Z</time></trkpt><trkpt lat="43.9625518" lon="12.4402537"><ele>311.5</ele><time>2026-03-29T09:20:05.114Z</time></trkpt><trkpt lat="43.9626735" lon="12.4403034"><ele>311.75</ele><time>2026-03-29T09:20:06.142Z</time></trkpt><trkpt lat="43.9628008" lon="12.4402914"><ele>312.0</ele><time>2026-03-29T09:20:07.15Z</time></trkpt><trkpt lat="43.962915" lon="12.4402458"><ele>312.0</ele><time>2026-03-29T09:20:08.143Z</time></trkpt><trkpt lat="43.9630236" lon="12.4401972"><ele>312.0</ele><time>2026-03-29T09:20:09.141Z</time></trkpt><trkpt lat="43.9631326" lon="12.4401593"><ele>312.0</ele><time>2026-03-29T09:20:10.142Z</time></trkpt><trkpt lat="43.9632383" lon="12.4401422"><ele>312.0</ele><time>2026-03-29T09:20:11.122Z</time></trkpt><trkpt lat="43.9633394" lon="12.440138"><ele>312.0</ele><time>2026-03-29T09:20:12.126Z</time></trkpt><trkpt lat="43.9634501" lon="12.4401335"><ele>310.6</ele><time>2026-03-29T09:20:13.13Z</time></trkpt><trkpt lat="43.9635596" lon="12.4401195"><ele>309.2</ele><time>2026-03-29T09:20:14.108Z</time></trkpt><trkpt lat="43.9636673" lon="12.4400945"><ele>307.8</ele><time>2026-03-29T09:20:15.087Z</time></trkpt><trkpt lat="43.9637777" lon="12.4400604"><ele>306.4</ele><time>2026-03-29T09:20:16.123Z</time></trkpt><trkpt lat="43.9638846" lon="12.440038"><ele>305.0</ele><time>2026-03-29T09:20:17.138Z</time></trkpt><trkpt lat="43.963994" lon="12.440033"><ele>305.0</ele><time>2026-03-29T09:20:18.122Z</time></trkpt><trkpt lat="43.9641053" lon="12.4400503"><ele>305.0</ele><time>2026-03-29T09:20:19.141Z</time></trkpt><trkpt lat="43.9642153" lon="12.440087"><ele>305.0</ele><time>2026-03-29T09:20:20.127Z</time></trkpt><trkpt lat="43.9643206" lon="12.4401316"><ele>305.0</ele><time>2026-03-29T09:20:21.135Z</time></trkpt><trkpt lat="43.9644387" lon="12.4401829"><ele>303.5</ele><time>2026-03-29T09:20:22.12Z</time></trkpt><trkpt lat="43.9645467" lon="12.4402295"><ele>302.0</ele><time>2026-03-29T09:20:23.137Z</time></trkpt><trkpt lat="43.9646594" lon="12.4402723"><ele>300.5</ele><time>2026-03-29T09:20:24.128Z</time></trkpt><trkpt lat="43.9647749" lon="12.4403129"><ele>299.0</ele><time>2026-03-29T09:20:25.135Z</time></trkpt><trkpt lat="43.9648871" lon="12.4403566"><ele>299.0</ele><time>2026-03-29T09:20:26.124Z</time></trkpt><trkpt lat="43.9650017" lon="12.4404001"><ele>299.0</ele><time>2026-03-29T09:20:27.11Z</time></trkpt><trkpt lat="43.9651177" lon="12.4404432"><ele>299.0</ele><time>2026-03-29T09:20:28.129Z</time></trkpt><trkpt lat="43.965235" lon="12.440489"><ele>299.0</ele><time>2026-03-29T09:20:29.142Z</time></trkpt><trkpt lat="43.9653488" lon="12.4405473"><ele>299.0</ele><time>2026-03-29T09:20:30.117Z</time></trkpt><trkpt lat="43.9654597" lon="12.4406174"><ele>299.0</ele><time>2026-03-29T09:20:31.119Z</time></trkpt><trkpt lat="43.9655521" lon="12.4407108"><ele>299.0</ele><time>2026-03-29T09:20:32.087Z</time></trkpt><trkpt lat="43.9656418" lon="12.4408157"><ele>299.0</ele><time>2026-03-29T09:20:33.136Z</time></trkpt><trkpt lat="43.9657351" lon="12.4409287"><ele>299.0</ele><time>2026-03-29T09:20:34.151Z</time></trkpt><trkpt lat="43.9658212" lon="12.4410382"><ele>299.0</ele><time>2026-03-29T09:20:35.147Z</time></trkpt><trkpt lat="43.9659057" lon="12.4411472"><ele>299.0</ele><time>2026-03-29T09:20:36.145Z</time></trkpt><trkpt lat="43.9659914" lon="12.4412568"><ele>299.0</ele><time>2026-03-29T09:20:37.137Z</time></trkpt><trkpt lat="43.9660567" lon="12.4413704"><ele>298.5</ele><time>2026-03-29T09:20:38.151Z</time></trkpt><trkpt lat="43.966081" lon="12.441482"><ele>298.0</ele><time>2026-03-29T09:20:39.134Z</time></trkpt><trkpt lat="43.9660567" lon="12.4415901"><ele>297.5</ele><time>2026-03-29T09:20:40.098Z</time></trkpt><trkpt lat="43.9659788" lon="12.4416594"><ele>297.0</ele><time>2026-03-29T09:20:41.14Z</time></trkpt><trkpt lat="43.9658885" lon="12.4416707"><ele>296.5</ele><time>2026-03-29T09:20:42.155Z</time></trkpt><trkpt lat="43.9658026" lon="12.4416222"><ele>296.0</ele><time>2026-03-29T09:20:43.146Z</time></trkpt><trkpt lat="43.9657157" lon="12.4415642"><ele>294.83333333333337</ele><time>2026-03-29T09:20:44.144Z</time></trkpt><trkpt lat="43.9656317" lon="12.4415038"><ele>293.6666666666667</ele><time>2026-03-29T09:20:45.139Z</time></trkpt><trkpt lat="43.9655472" lon="12.4414392"><ele>292.5</ele><time>2026-03-29T09:20:46.152Z</time></trkpt><trkpt lat="43.9654637" lon="12.441409"><ele>291.3333333333333</ele><time>2026-03-29T09:20:47.145Z</time></trkpt><trkpt lat="43.9653753" lon="12.4414103"><ele>290.16666666666663</ele><time>2026-03-29T09:20:48.101Z</time></trkpt><trkpt lat="43.9653079" lon="12.4414576"><ele>289.0</ele><time>2026-03-29T09:20:49.137Z</time></trkpt><trkpt lat="43.9652743" lon="12.4415699"><ele>289.0</ele><time>2026-03-29T09:20:50.141Z</time></trkpt><trkpt lat="43.9653143" lon="12.4417073"><ele>289.0</ele><time>2026-03-29T09:20:51.129Z</time></trkpt><trkpt lat="43.9653697" lon="12.4418169"><ele>289.0</ele><time>2026-03-29T09:20:52.12Z</time></trkpt><trkpt lat="43.9654393" lon="12.4419065"><ele>289.0</ele><time>2026-03-29T09:20:53.101Z</time></trkpt><trkpt lat="43.9655139" lon="12.4419821"><ele>289.0</ele><time>2026-03-29T09:20:54.116Z</time></trkpt><trkpt lat="43.9655877" lon="12.4420666"><ele>288.0</ele><time>2026-03-29T09:20:55.093Z</time></trkpt><trkpt lat="43.965658" lon="12.4421534"><ele>287.0</ele><time>2026-03-29T09:20:56.126Z</time></trkpt><trkpt lat="43.9657285" lon="12.4422484"><ele>286.0</ele><time>2026-03-29T09:20:57.12Z</time></trkpt><trkpt lat="43.9657982" lon="12.4423429"><ele>285.0</ele><time>2026-03-29T09:20:58.137Z</time></trkpt><trkpt lat="43.9658738" lon="12.4424427"><ele>284.0</ele><time>2026-03-29T09:20:59.078Z</time></trkpt><trkpt lat="43.9659479" lon="12.4425417"><ele>284.0</ele><time>2026-03-29T09:21:00.125Z</time></trkpt><trkpt lat="43.9660313" lon="12.4426507"><ele>284.0</ele><time>2026-03-29T09:21:01.133Z</time></trkpt><trkpt lat="43.966116" lon="12.4427568"><ele>284.0</ele><time>2026-03-29T09:21:02.125Z</time></trkpt><trkpt lat="43.9662025" lon="12.4428614"><ele>284.0</ele><time>2026-03-29T09:21:03.107Z</time></trkpt><trkpt lat="43.9662916" lon="12.4429707"><ele>281.75</ele><time>2026-03-29T09:21:04.109Z</time></trkpt><trkpt lat="43.9663781" lon="12.4430853"><ele>279.5</ele><time>2026-03-29T09:21:05.082Z</time></trkpt><trkpt lat="43.966462" lon="12.4432016"><ele>277.25</ele><time>2026-03-29T09:21:06.078Z</time></trkpt><trkpt lat="43.9665426" lon="12.4433223"><ele>275.0</ele><time>2026-03-29T09:21:07.115Z</time></trkpt><trkpt lat="43.9666115" lon="12.4434544"><ele>275.0</ele><time>2026-03-29T09:21:08.125Z</time></trkpt><trkpt lat="43.9666694" lon="12.4436062"><ele>275.0</ele><time>2026-03-29T09:21:09.075Z</time></trkpt><trkpt lat="43.9667017" lon="12.4437779"><ele>275.0</ele><time>2026-03-29T09:21:10.094Z</time></trkpt><trkpt lat="43.966715" lon="12.4439563"><ele>275.0</ele><time>2026-03-29T09:21:11.121Z</time></trkpt><trkpt lat="43.9667009" lon="12.4441411"><ele>273.0</ele><time>2026-03-29T09:21:12.113Z</time></trkpt><trkpt lat="43.9666789" lon="12.444312"><ele>271.0</ele><time>2026-03-29T09:21:13.118Z</time></trkpt><trkpt lat="43.9666446" lon="12.4444859"><ele>269.0</ele><time>2026-03-29T09:21:14.112Z</time></trkpt><trkpt lat="43.9666133" lon="12.4446638"><ele>267.0</ele><time>2026-03-29T09:21:15.124Z</time></trkpt><trkpt lat="43.9665888" lon="12.4448391"><ele>266.5</ele><time>2026-03-29T09:21:16.106Z</time></trkpt><trkpt lat="43.9665629" lon="12.4450136"><ele>266.0</ele><time>2026-03-29T09:21:17.128Z</time></trkpt><trkpt lat="43.9665369" lon="12.4451898"><ele>265.5</ele><time>2026-03-29T09:21:18.12Z</time></trkpt><trkpt lat="43.9665174" lon="12.4453674"><ele>265.0</ele><time>2026-03-29T09:21:19.129Z</time></trkpt><trkpt lat="43.9664919" lon="12.4455423"><ele>263.75</ele><time>2026-03-29T09:21:20.121Z</time></trkpt><trkpt lat="43.9664734" lon="12.4457113"><ele>262.5</ele><time>2026-03-29T09:21:21.133Z</time></trkpt><trkpt lat="43.9664571" lon="12.4458785"><ele>261.25</ele><time>2026-03-29T09:21:22.125Z</time></trkpt><trkpt lat="43.9664411" lon="12.4460432"><ele>260.0</ele><time>2026-03-29T09:21:23.123Z</time></trkpt><trkpt lat="43.9664327" lon="12.4462111"><ele>258.5</ele><time>2026-03-29T09:21:24.093Z</time></trkpt><trkpt lat="43.9664324" lon="12.4463742"><ele>257.0</ele><time>2026-03-29T09:21:25.111Z</time></trkpt><trkpt lat="43.96643" lon="12.446538"><ele>255.5</ele><time>2026-03-29T09:21:26.12Z</time></trkpt><trkpt lat="43.9664274" lon="12.4467008"><ele>254.0</ele><time>2026-03-29T09:21:27.094Z</time></trkpt><trkpt lat="43.9664274" lon="12.4468652"><ele>254.0</ele><time>2026-03-29T09:21:28.109Z</time></trkpt><trkpt lat="43.9664287" lon="12.4470249"><ele>253.99999999999997</ele><time>2026-03-29T09:21:29.136Z</time></trkpt><trkpt lat="43.9664362" lon="12.4471717"><ele>253.99999999999997</ele><time>2026-03-29T09:21:30.127Z</time></trkpt><trkpt lat="43.9664428" lon="12.4473197"><ele>254.0</ele><time>2026-03-29T09:21:31.124Z</time></trkpt><trkpt lat="43.9664424" lon="12.4474601"><ele>254.0</ele><time>2026-03-29T09:21:32.107Z</time></trkpt><trkpt lat="43.966419" lon="12.4475793"><ele>253.66666666666669</ele><time>2026-03-29T09:21:33.133Z</time></trkpt><trkpt lat="43.9663645" lon="12.4476862"><ele>253.33333333333334</ele><time>2026-03-29T09:21:34.137Z</time></trkpt><trkpt lat="43.9663083" lon="12.4477839"><ele>253.0</ele><time>2026-03-29T09:21:35.137Z</time></trkpt><trkpt lat="43.9662552" lon="12.4478807"><ele>252.66666666666669</ele><time>2026-03-29T09:21:36.138Z</time></trkpt><trkpt lat="43.9662082" lon="12.4479769"><ele>252.33333333333334</ele><time>2026-03-29T09:21:37.139Z</time></trkpt><trkpt lat="43.9661695" lon="12.4480753"><ele>252.0</ele><time>2026-03-29T09:21:38.148Z</time></trkpt><trkpt lat="43.9661356" lon="12.4481708"><ele>252.0</ele><time>2026-03-29T09:21:39.127Z</time></trkpt><trkpt lat="43.9661111" lon="12.4482736"><ele>252.0</ele><time>2026-03-29T09:21:40.144Z</time></trkpt><trkpt lat="43.9660914" lon="12.4483677"><ele>252.0</ele><time>2026-03-29T09:21:41.14Z</time></trkpt><trkpt lat="43.9660725" lon="12.4484735"><ele>252.0</ele><time>2026-03-29T09:21:42.109Z</time></trkpt><trkpt lat="43.9660488" lon="12.4485723"><ele>252.0</ele><time>2026-03-29T09:21:43.141Z</time></trkpt><trkpt lat="43.9660092" lon="12.4486785"><ele>252.0</ele><time>2026-03-29T09:21:44.114Z</time></trkpt><trkpt lat="43.9659589" lon="12.448781"><ele>252.0</ele><time>2026-03-29T09:21:45.167Z</time></trkpt><trkpt lat="43.965892" lon="12.4488898"><ele>252.0</ele><time>2026-03-29T09:21:46.12Z</time></trkpt><trkpt lat="43.9658187" lon="12.4490001"><ele>252.0</ele><time>2026-03-29T09:21:47.133Z</time></trkpt><trkpt lat="43.9657387" lon="12.4491255"><ele>252.0</ele><time>2026-03-29T09:21:48.116Z</time></trkpt><trkpt lat="43.9656508" lon="12.449257"><ele>249.5</ele><time>2026-03-29T09:21:49.134Z</time></trkpt><trkpt lat="43.9655628" lon="12.4493935"><ele>247.0</ele><time>2026-03-29T09:21:50.12Z</time></trkpt><trkpt lat="43.9654718" lon="12.4495312"><ele>244.5</ele><time>2026-03-29T09:21:51.143Z</time></trkpt><trkpt lat="43.965392" lon="12.4496605"><ele>242.0</ele><time>2026-03-29T09:21:52.142Z</time></trkpt><trkpt lat="43.9653303" lon="12.4498032"><ele>241.0</ele><time>2026-03-29T09:21:53.136Z</time></trkpt><trkpt lat="43.965294" lon="12.4499637"><ele>240.0</ele><time>2026-03-29T09:21:54.145Z</time></trkpt><trkpt lat="43.9652724" lon="12.4501404"><ele>239.0</ele><time>2026-03-29T09:21:55.073Z</time></trkpt><trkpt lat="43.9652425" lon="12.4503197"><ele>238.0</ele><time>2026-03-29T09:21:56.137Z</time></trkpt><trkpt lat="43.9652111" lon="12.4504867"><ele>236.16666666666666</ele><time>2026-03-29T09:21:57.135Z</time></trkpt><trkpt lat="43.9651664" lon="12.4506223"><ele>234.33333333333331</ele><time>2026-03-29T09:21:58.136Z</time></trkpt><trkpt lat="43.9651124" lon="12.45074"><ele>232.5</ele><time>2026-03-29T09:21:59.129Z</time></trkpt><trkpt lat="43.9650705" lon="12.4508546"><ele>230.66666666666669</ele><time>2026-03-29T09:22:00.086Z</time></trkpt><trkpt lat="43.9650271" lon="12.4509442"><ele>228.83333333333334</ele><time>2026-03-29T09:22:01.136Z</time></trkpt><trkpt lat="43.9649842" lon="12.4510149"><ele>227.0</ele><time>2026-03-29T09:22:02.147Z</time></trkpt><trkpt lat="43.9648545" lon="12.4510035"><ele>225.16666666666669</ele><time>2026-03-29T09:22:04.136Z</time></trkpt><trkpt lat="43.9647828" lon="12.4509332"><ele>223.33333333333334</ele><time>2026-03-29T09:22:05.129Z</time></trkpt><trkpt lat="43.964732" lon="12.4508517"><ele>221.5</ele><time>2026-03-29T09:22:06.14Z</time></trkpt><trkpt lat="43.9646788" lon="12.4507729"><ele>219.66666666666669</ele><time>2026-03-29T09:22:07.125Z</time></trkpt><trkpt lat="43.9646158" lon="12.4506934"><ele>217.83333333333334</ele><time>2026-03-29T09:22:08.137Z</time></trkpt><trkpt lat="43.9645586" lon="12.4506156"><ele>216.0</ele><time>2026-03-29T09:22:09.129Z</time></trkpt><trkpt lat="43.9644942" lon="12.4505515"><ele>216.0</ele><time>2026-03-29T09:22:10.105Z</time></trkpt><trkpt lat="43.9644123" lon="12.450522"><ele>216.0</ele><time>2026-03-29T09:22:11.132Z</time></trkpt><trkpt lat="43.9643271" lon="12.4505394"><ele>216.0</ele><time>2026-03-29T09:22:12.135Z</time></trkpt><trkpt lat="43.9642597" lon="12.4506146"><ele>216.0</ele><time>2026-03-29T09:22:13.128Z</time></trkpt><trkpt lat="43.9641855" lon="12.4506994"><ele>216.0</ele><time>2026-03-29T09:22:14.135Z</time></trkpt><trkpt lat="43.9641086" lon="12.450778"><ele>216.0</ele><time>2026-03-29T09:22:15.138Z</time></trkpt><trkpt lat="43.9640294" lon="12.4508721"><ele>213.0</ele><time>2026-03-29T09:22:16.135Z</time></trkpt><trkpt lat="43.9639294" lon="12.4509505"><ele>210.00000000000003</ele><time>2026-03-29T09:22:17.085Z</time></trkpt><trkpt lat="43.9638228" lon="12.4509846"><ele>207.0</ele><time>2026-03-29T09:22:18.122Z</time></trkpt><trkpt lat="43.9637084" lon="12.450974"><ele>204.0</ele><time>2026-03-29T09:22:19.122Z</time></trkpt><trkpt lat="43.9636089" lon="12.4509546"><ele>201.0</ele><time>2026-03-29T09:22:20.123Z</time></trkpt><trkpt lat="43.963518" lon="12.4509758"><ele>201.0</ele><time>2026-03-29T09:22:21.123Z</time></trkpt><trkpt lat="43.9634324" lon="12.4510177"><ele>201.0</ele><time>2026-03-29T09:22:22.14Z</time></trkpt><trkpt lat="43.9633526" lon="12.4510962"><ele>201.0</ele><time>2026-03-29T09:22:23.132Z</time></trkpt><trkpt lat="43.9632788" lon="12.4511582"><ele>201.0</ele><time>2026-03-29T09:22:24.134Z</time></trkpt><trkpt lat="43.9631952" lon="12.4511315"><ele>201.0</ele><time>2026-03-29T09:22:25.15Z</time></trkpt><trkpt lat="43.9631305" lon="12.4510675"><ele>201.0</ele><time>2026-03-29T09:22:26.129Z</time></trkpt><trkpt lat="43.9630911" lon="12.4509888"><ele>199.0</ele><time>2026-03-29T09:22:27.106Z</time></trkpt><trkpt lat="43.9630718" lon="12.4508354"><ele>197.0</ele><time>2026-03-29T09:22:29.124Z</time></trkpt><trkpt lat="43.9630764" lon="12.450704"><ele>195.0</ele><time>2026-03-29T09:22:31.133Z</time></trkpt><trkpt lat="43.9630761" lon="12.4505719"><ele>193.0</ele><time>2026-03-29T09:22:33.128Z</time></trkpt><trkpt lat="43.9630853" lon="12.4504402"><ele>191.0</ele><time>2026-03-29T09:22:35.121Z</time></trkpt><trkpt lat="43.9630942" lon="12.4503264"><ele>191.0</ele><time>2026-03-29T09:22:37.137Z</time></trkpt><trkpt lat="43.9631007" lon="12.4502147"><ele>191.0</ele><time>2026-03-29T09:22:39.131Z</time></trkpt><trkpt lat="43.9631041" lon="12.4501039"><ele>191.0</ele><time>2026-03-29T09:22:41.141Z</time></trkpt><trkpt lat="43.9630865" lon="12.449973"><ele>191.0</ele><time>2026-03-29T09:22:43.145Z</time></trkpt><trkpt lat="43.9630533" lon="12.4498471"><ele>191.0</ele><time>2026-03-29T09:22:45.13Z</time></trkpt><trkpt lat="43.9629891" lon="12.4497507"><ele>191.0</ele><time>2026-03-29T09:22:47.15Z</time></trkpt><trkpt lat="43.9629005" lon="12.4496867"><ele>191.0</ele><time>2026-03-29T09:22:49.134Z</time></trkpt><trkpt lat="43.9628045" lon="12.4496501"><ele>191.0</ele><time>2026-03-29T09:22:51.133Z</time></trkpt><trkpt lat="43.9627191" lon="12.4496004"><ele>191.0</ele><time>2026-03-29T09:22:53.127Z</time></trkpt><trkpt lat="43.9626639" lon="12.4495285"><ele>191.0</ele><time>2026-03-29T09:22:55.11Z</time></trkpt><trkpt lat="43.9626235" lon="12.4494595"><ele>191.0</ele><time>2026-03-29T09:22:57.127Z</time></trkpt><trkpt lat="43.9625915" lon="12.4493597"><ele>191.0</ele><time>2026-03-29T09:23:00.14Z</time></trkpt><trkpt lat="43.9625759" lon="12.4492523"><ele>191.2857142857143</ele><time>2026-03-29T09:23:04.089Z</time></trkpt><trkpt lat="43.9625551" lon="12.449165"><ele>191.57142857142856</ele><time>2026-03-29T09:23:07.126Z</time></trkpt><trkpt lat="43.9625179" lon="12.449074"><ele>191.85714285714286</ele><time>2026-03-29T09:23:10.134Z</time></trkpt><trkpt lat="43.9624792" lon="12.4490044"><ele>192.14285714285717</ele><time>2026-03-29T09:23:13.116Z</time></trkpt><trkpt lat="43.9624307" lon="12.4489312"><ele>192.42857142857144</ele><time>2026-03-29T09:23:16.114Z</time></trkpt><trkpt lat="43.9623785" lon="12.4488756"><ele>192.71428571428572</ele><time>2026-03-29T09:23:19.125Z</time></trkpt><trkpt lat="43.9623083" lon="12.4488199"><ele>193.0</ele><time>2026-03-29T09:23:22.159Z</time></trkpt><trkpt lat="43.9622389" lon="12.4487594"><ele>194.14285714285717</ele><time>2026-03-29T09:23:25.135Z</time></trkpt><trkpt lat="43.9621664" lon="12.448706"><ele>195.28571428571428</ele><time>2026-03-29T09:23:28.126Z</time></trkpt><trkpt lat="43.9620976" lon="12.4486547"><ele>196.42857142857144</ele><time>2026-03-29T09:23:32.122Z</time></trkpt><trkpt lat="43.9620266" lon="12.4486205"><ele>197.57142857142858</ele><time>2026-03-29T09:23:36.132Z</time></trkpt><trkpt lat="43.9619656" lon="12.4485822"><ele>198.71428571428572</ele><time>2026-03-29T09:23:40.126Z</time></trkpt><trkpt lat="43.9619003" lon="12.4485377"><ele>199.85714285714286</ele><time>2026-03-29T09:23:45.132Z</time></trkpt><trkpt lat="43.9618395" lon="12.4485104"><ele>201.0</ele><time>2026-03-29T09:23:50.14Z</time></trkpt><trkpt lat="43.9617667" lon="12.4485002"><ele>201.0</ele><time>2026-03-29T09:23:56.144Z</time></trkpt><trkpt lat="43.9616992" lon="12.4484934"><ele>201.0</ele><time>2026-03-29T09:24:02.111Z</time></trkpt><trkpt lat="43.9616355" lon="12.448489"><ele>201.0</ele><time>2026-03-29T09:24:09.134Z</time></trkpt><trkpt lat="43.9615667" lon="12.448492"><ele>201.0</ele><time>2026-03-29T09:24:14.146Z</time></trkpt><trkpt lat="43.9614974" lon="12.4485003"><ele>201.0</ele><time>2026-03-29T09:24:20.128Z</time></trkpt><trkpt lat="43.9614312" lon="12.4485266"><ele>201.0</ele><time>2026-03-29T09:24:26.137Z</time></trkpt><trkpt lat="43.9613558" lon="12.4485355"><ele>201.0</ele><time>2026-03-29T09:24:32.13Z</time></trkpt><trkpt lat="43.96129" lon="12.4485676"><ele>201.42857142857142</ele><time>2026-03-29T09:24:38.133Z</time></trkpt><trkpt lat="43.9612226" lon="12.4485879"><ele>201.85714285714286</ele><time>2026-03-29T09:24:45.116Z</time></trkpt><trkpt lat="43.9611573" lon="12.4485979"><ele>202.28571428571428</ele><time>2026-03-29T09:24:50.111Z</time></trkpt><trkpt lat="43.961088" lon="12.4486267"><ele>202.71428571428572</ele><time>2026-03-29T09:24:56.125Z</time></trkpt><trkpt lat="43.9610244" lon="12.4486807"><ele>203.14285714285717</ele><time>2026-03-29T09:25:02.123Z</time></trkpt><trkpt lat="43.9609664" lon="12.4487516"><ele>203.57142857142858</ele><time>2026-03-29T09:25:08.126Z</time></trkpt><trkpt lat="43.960923" lon="12.4488266"><ele>204.0</ele><time>2026-03-29T09:25:13.084Z</time></trkpt><trkpt lat="43.9608795" lon="12.4489183"><ele>207.0</ele><time>2026-03-29T09:25:18.1Z</time></trkpt><trkpt lat="43.9608384" lon="12.4489996"><ele>210.0</ele><time>2026-03-29T09:25:22.134Z</time></trkpt><trkpt lat="43.9608044" lon="12.4490906"><ele>213.0</ele><time>2026-03-29T09:25:26.123Z</time></trkpt><trkpt lat="43.9607687" lon="12.4491763"><ele>216.0</ele><time>2026-03-29T09:25:30.126Z</time></trkpt><trkpt lat="43.9607266" lon="12.4492522"><ele>219.0</ele><time>2026-03-29T09:25:34.131Z</time></trkpt><trkpt lat="43.9606795" lon="12.4493108"><ele>222.00000000000003</ele><time>2026-03-29T09:25:38.139Z</time></trkpt><trkpt lat="43.9606299" lon="12.4493792"><ele>225.00000000000003</ele><time>2026-03-29T09:25:44.135Z</time></trkpt><trkpt lat="43.9605877" lon="12.4494515"><ele>225.00000000000003</ele><time>2026-03-29T09:25:49.139Z</time></trkpt><trkpt lat="43.9605504" lon="12.4495259"><ele>225.0</ele><time>2026-03-29T09:25:55.132Z</time></trkpt><trkpt lat="43.960531" lon="12.4496271"><ele>225.00000000000003</ele><time>2026-03-29T09:26:02.138Z</time></trkpt><trkpt lat="43.9605098" lon="12.4497135"><ele>225.00000000000003</ele><time>2026-03-29T09:26:08.127Z</time></trkpt><trkpt lat="43.9604947" lon="12.4498086"><ele>225.0</ele><time>2026-03-29T09:26:13.126Z</time></trkpt><trkpt lat="43.9604846" lon="12.4498974"><ele>225.00000000000003</ele><time>2026-03-29T09:26:17.131Z</time></trkpt><trkpt lat="43.9604759" lon="12.4499858"><ele>225.00000000000003</ele><time>2026-03-29T09:26:21.104Z</time></trkpt><trkpt lat="43.9604624" lon="12.4500739"><ele>225.0</ele><time>2026-03-29T09:26:26.138Z</time></trkpt><trkpt lat="43.9604352" lon="12.4501793"><ele>225.0</ele><time>2026-03-29T09:26:31.115Z</time></trkpt><trkpt lat="43.9604094" lon="12.4502854"><ele>225.0</ele><time>2026-03-29T09:26:35.108Z</time></trkpt><trkpt lat="43.9603716" lon="12.45041"><ele>225.0</ele><time>2026-03-29T09:26:38.149Z</time></trkpt><trkpt lat="43.9603185" lon="12.4505216"><ele>225.0</ele><time>2026-03-29T09:26:40.138Z</time></trkpt><trkpt lat="43.9602353" lon="12.450637"><ele>225.0</ele><time>2026-03-29T09:26:42.107Z</time></trkpt><trkpt lat="43.9601301" lon="12.4506951"><ele>225.0</ele><time>2026-03-29T09:26:44.075Z</time></trkpt><trkpt lat="43.9600401" lon="12.4507036"><ele>225.0</ele><time>2026-03-29T09:26:46.139Z</time></trkpt><trkpt lat="43.9599662" lon="12.4507257"><ele>225.0</ele><time>2026-03-29T09:26:49.131Z</time></trkpt><trkpt lat="43.9598924" lon="12.4507426"><ele>225.0</ele><time>2026-03-29T09:26:53.131Z</time></trkpt><trkpt lat="43.9598268" lon="12.4507587"><ele>225.0</ele><time>2026-03-29T09:26:57.136Z</time></trkpt><trkpt lat="43.9597638" lon="12.4507791"><ele>226.5714285714286</ele><time>2026-03-29T09:27:01.134Z</time></trkpt><trkpt lat="43.9596865" lon="12.4507966"><ele>228.14285714285717</ele><time>2026-03-29T09:27:06.072Z</time></trkpt><trkpt lat="43.9596116" lon="12.4508146"><ele>229.71428571428572</ele><time>2026-03-29T09:27:11.131Z</time></trkpt><trkpt lat="43.9595372" lon="12.4508435"><ele>231.2857142857143</ele><time>2026-03-29T09:27:16.128Z</time></trkpt><trkpt lat="43.9594679" lon="12.4508558"><ele>232.8571428571429</ele><time>2026-03-29T09:27:21.125Z</time></trkpt><trkpt lat="43.9594032" lon="12.4508726"><ele>234.42857142857142</ele><time>2026-03-29T09:27:26.137Z</time></trkpt><trkpt lat="43.9593379" lon="12.4508956"><ele>236.0</ele><time>2026-03-29T09:27:31.122Z</time></trkpt><trkpt lat="43.959272" lon="12.4509244"><ele>236.00000000000003</ele><time>2026-03-29T09:27:35.123Z</time></trkpt><trkpt lat="43.9592087" lon="12.4509753"><ele>236.0</ele><time>2026-03-29T09:27:40.141Z</time></trkpt><trkpt lat="43.9591408" lon="12.4510111"><ele>236.0</ele><time>2026-03-29T09:27:46.139Z</time></trkpt><trkpt lat="43.9590709" lon="12.4510468"><ele>236.0</ele><time>2026-03-29T09:27:50.136Z</time></trkpt><trkpt lat="43.9590042" lon="12.4510668"><ele>236.00000000000003</ele><time>2026-03-29T09:27:53.149Z</time></trkpt><trkpt lat="43.958929" lon="12.4510922"><ele>236.0</ele><time>2026-03-29T09:27:55.148Z</time></trkpt><trkpt lat="43.9588304" lon="12.4511609"><ele>236.60000000000002</ele><time>2026-03-29T09:27:57.126Z</time></trkpt><trkpt lat="43.9587717" lon="12.4512439"><ele>237.20000000000002</ele><time>2026-03-29T09:27:58.097Z</time></trkpt><trkpt lat="43.9587153" lon="12.4513477"><ele>237.79999999999998</ele><time>2026-03-29T09:27:59.13Z</time></trkpt><trkpt lat="43.9586507" lon="12.4514501"><ele>238.39999999999998</ele><time>2026-03-29T09:28:00.125Z</time></trkpt><trkpt lat="43.9585838" lon="12.4515576"><ele>239.0</ele><time>2026-03-29T09:28:01.119Z</time></trkpt><trkpt lat="43.9585185" lon="12.4516601"><ele>239.0</ele><time>2026-03-29T09:28:02.123Z</time></trkpt><trkpt lat="43.9584483" lon="12.451756"><ele>238.99999999999997</ele><time>2026-03-29T09:28:03.126Z</time></trkpt><trkpt lat="43.958379" lon="12.4518521"><ele>238.99999999999997</ele><time>2026-03-29T09:28:04.124Z</time></trkpt><trkpt lat="43.9583136" lon="12.4519483"><ele>239.0</ele><time>2026-03-29T09:28:05.123Z</time></trkpt><trkpt lat="43.9582555" lon="12.4520434"><ele>239.0</ele><time>2026-03-29T09:28:06.097Z</time></trkpt><trkpt lat="43.9582019" lon="12.4521177"><ele>236.0</ele><time>2026-03-29T09:28:07.131Z</time></trkpt><trkpt lat="43.9581551" lon="12.4521927"><ele>232.99999999999997</ele><time>2026-03-29T09:28:08.081Z</time></trkpt><trkpt lat="43.9581216" lon="12.4523206"><ele>229.99999999999997</ele><time>2026-03-29T09:28:10.12Z</time></trkpt><trkpt lat="43.9581479" lon="12.452452"><ele>227.0</ele><time>2026-03-29T09:28:12.135Z</time></trkpt><trkpt lat="43.958206" lon="12.4525815"><ele>224.0</ele><time>2026-03-29T09:28:14.113Z</time></trkpt><trkpt lat="43.958254" lon="12.4527288"><ele>224.0</ele><time>2026-03-29T09:28:16.138Z</time></trkpt><trkpt lat="43.9583057" lon="12.452872"><ele>224.0</ele><time>2026-03-29T09:28:18.125Z</time></trkpt><trkpt lat="43.9583701" lon="12.4530076"><ele>224.0</ele><time>2026-03-29T09:28:20.126Z</time></trkpt><trkpt lat="43.9584517" lon="12.4531196"><ele>224.0</ele><time>2026-03-29T09:28:22.124Z</time></trkpt><trkpt lat="43.9585404" lon="12.4532353"><ele>222.6</ele><time>2026-03-29T09:28:24.144Z</time></trkpt><trkpt lat="43.9586325" lon="12.4533221"><ele>221.2</ele><time>2026-03-29T09:28:26.124Z</time></trkpt><trkpt lat="43.9587333" lon="12.4533752"><ele>219.79999999999998</ele><time>2026-03-29T09:28:28.148Z</time></trkpt><trkpt lat="43.9587963" lon="12.4533955"><ele>218.39999999999998</ele><time>2026-03-29T09:28:29.12Z</time></trkpt><trkpt lat="43.9589152" lon="12.4534283"><ele>217.0</ele><time>2026-03-29T09:28:31.139Z</time></trkpt><trkpt lat="43.9590377" lon="12.4534501"><ele>216.99999999999997</ele><time>2026-03-29T09:28:33.135Z</time></trkpt><trkpt lat="43.9591145" lon="12.4534651"><ele>217.0</ele><time>2026-03-29T09:28:34.16Z</time></trkpt><trkpt lat="43.9591931" lon="12.4534799"><ele>217.0</ele><time>2026-03-29T09:28:35.106Z</time></trkpt><trkpt lat="43.9592681" lon="12.4534977"><ele>217.0</ele><time>2026-03-29T09:28:36.133Z</time></trkpt><trkpt lat="43.9593532" lon="12.4535208"><ele>216.99999999999997</ele><time>2026-03-29T09:28:37.138Z</time></trkpt><trkpt lat="43.959427" lon="12.4535466"><ele>217.0</ele><time>2026-03-29T09:28:38.135Z</time></trkpt><trkpt lat="43.9595009" lon="12.4535727"><ele>217.33333333333331</ele><time>2026-03-29T09:28:39.13Z</time></trkpt><trkpt lat="43.9595732" lon="12.4536022"><ele>217.66666666666666</ele><time>2026-03-29T09:28:40.13Z</time></trkpt><trkpt lat="43.9596451" lon="12.4536464"><ele>218.0</ele><time>2026-03-29T09:28:41.125Z</time></trkpt><trkpt lat="43.9597108" lon="12.4537025"><ele>218.33333333333331</ele><time>2026-03-29T09:28:42.122Z</time></trkpt><trkpt lat="43.9597694" lon="12.4537616"><ele>218.66666666666666</ele><time>2026-03-29T09:28:43.127Z</time></trkpt><trkpt lat="43.9598282" lon="12.4538281"><ele>219.0</ele><time>2026-03-29T09:28:44.132Z</time></trkpt><trkpt lat="43.9598894" lon="12.4538998"><ele>218.0</ele><time>2026-03-29T09:28:45.123Z</time></trkpt><trkpt lat="43.959949" lon="12.4539674"><ele>217.0</ele><time>2026-03-29T09:28:46.116Z</time></trkpt><trkpt lat="43.9600119" lon="12.4540271"><ele>216.0</ele><time>2026-03-29T09:28:47.121Z</time></trkpt><trkpt lat="43.9600763" lon="12.454075"><ele>215.0</ele><time>2026-03-29T09:28:48.135Z</time></trkpt><trkpt lat="43.9601499" lon="12.4541017"><ele>214.0</ele><time>2026-03-29T09:28:49.138Z</time></trkpt><trkpt lat="43.9602244" lon="12.4540931"><ele>213.0</ele><time>2026-03-29T09:28:50.136Z</time></trkpt><trkpt lat="43.9602941" lon="12.4540653"><ele>212.0</ele><time>2026-03-29T09:28:51.134Z</time></trkpt><trkpt lat="43.9603646" lon="12.4540208"><ele>210.33333333333334</ele><time>2026-03-29T09:28:52.114Z</time></trkpt><trkpt lat="43.960424" lon="12.4539809"><ele>208.66666666666669</ele><time>2026-03-29T09:28:53.114Z</time></trkpt><trkpt lat="43.9604855" lon="12.4539447"><ele>207.0</ele><time>2026-03-29T09:28:54.133Z</time></trkpt><trkpt lat="43.9606004" lon="12.4539187"><ele>205.33333333333331</ele><time>2026-03-29T09:28:56.127Z</time></trkpt><trkpt lat="43.9606727" lon="12.453957"><ele>203.66666666666666</ele><time>2026-03-29T09:28:57.111Z</time></trkpt><trkpt lat="43.9607513" lon="12.4540269"><ele>202.0</ele><time>2026-03-29T09:28:58.135Z</time></trkpt><trkpt lat="43.9608306" lon="12.4541146"><ele>198.75</ele><time>2026-03-29T09:28:59.141Z</time></trkpt><trkpt lat="43.9608969" lon="12.454235"><ele>195.5</ele><time>2026-03-29T09:29:00.136Z</time></trkpt><trkpt lat="43.9609561" lon="12.4543699"><ele>192.25</ele><time>2026-03-29T09:29:01.162Z</time></trkpt><trkpt lat="43.9610098" lon="12.4545134"><ele>189.0</ele><time>2026-03-29T09:29:02.132Z</time></trkpt><trkpt lat="43.9610673" lon="12.4546575"><ele>188.5</ele><time>2026-03-29T09:29:03.144Z</time></trkpt><trkpt lat="43.9611301" lon="12.4548129"><ele>188.0</ele><time>2026-03-29T09:29:04.132Z</time></trkpt><trkpt lat="43.9611957" lon="12.4549774"><ele>187.5</ele><time>2026-03-29T09:29:05.13Z</time></trkpt><trkpt lat="43.9612571" lon="12.4551371"><ele>187.0</ele><time>2026-03-29T09:29:06.12Z</time></trkpt><trkpt lat="43.961318" lon="12.4552958"><ele>187.0</ele><time>2026-03-29T09:29:07.115Z</time></trkpt><trkpt lat="43.9613746" lon="12.4554496"><ele>187.0</ele><time>2026-03-29T09:29:08.141Z</time></trkpt><trkpt lat="43.9614345" lon="12.4555949"><ele>187.0</ele><time>2026-03-29T09:29:09.124Z</time></trkpt><trkpt lat="43.9614915" lon="12.455743"><ele>187.0</ele><time>2026-03-29T09:29:10.121Z</time></trkpt><trkpt lat="43.9615509" lon="12.4558902"><ele>187.0</ele><time>2026-03-29T09:29:11.136Z</time></trkpt><trkpt lat="43.9616104" lon="12.4560368"><ele>187.0</ele><time>2026-03-29T09:29:12.131Z</time></trkpt><trkpt lat="43.9616749" lon="12.4561786"><ele>187.0</ele><time>2026-03-29T09:29:13.128Z</time></trkpt><trkpt lat="43.9617345" lon="12.4563195"><ele>187.0</ele><time>2026-03-29T09:29:14.143Z</time></trkpt><trkpt lat="43.9617866" lon="12.4564635"><ele>184.39999999999998</ele><time>2026-03-29T09:29:15.114Z</time></trkpt><trkpt lat="43.9618376" lon="12.4565886"><ele>181.79999999999998</ele><time>2026-03-29T09:29:16.106Z</time></trkpt><trkpt lat="43.9618992" lon="12.4566972"><ele>179.2</ele><time>2026-03-29T09:29:17.136Z</time></trkpt><trkpt lat="43.9619705" lon="12.4568008"><ele>176.6</ele><time>2026-03-29T09:29:18.129Z</time></trkpt><trkpt lat="43.9620473" lon="12.4568993"><ele>174.0</ele><time>2026-03-29T09:29:19.122Z</time></trkpt><trkpt lat="43.9621227" lon="12.4569797"><ele>174.0</ele><time>2026-03-29T09:29:20.127Z</time></trkpt><trkpt lat="43.962215" lon="12.4570401"><ele>174.0</ele><time>2026-03-29T09:29:21.09Z</time></trkpt><trkpt lat="43.9623217" lon="12.4570753"><ele>174.0</ele><time>2026-03-29T09:29:22.06Z</time></trkpt><trkpt lat="43.9624338" lon="12.4571094"><ele>174.0</ele><time>2026-03-29T09:29:23.133Z</time></trkpt><trkpt lat="43.9625448" lon="12.457144"><ele>174.0</ele><time>2026-03-29T09:29:24.112Z</time></trkpt><trkpt lat="43.9626472" lon="12.4571885"><ele>171.0</ele><time>2026-03-29T09:29:25.128Z</time></trkpt><trkpt lat="43.9627351" lon="12.457228"><ele>168.0</ele><time>2026-03-29T09:29:26.12Z</time></trkpt><trkpt lat="43.96281" lon="12.4572798"><ele>165.0</ele><time>2026-03-29T09:29:27.123Z</time></trkpt><trkpt lat="43.9628764" lon="12.4573168"><ele>162.0</ele><time>2026-03-29T09:29:28.127Z</time></trkpt><trkpt lat="43.9629594" lon="12.4573997"><ele>159.0</ele><time>2026-03-29T09:29:30.132Z</time></trkpt><trkpt lat="43.9629314" lon="12.4574924"><ele>156.0</ele><time>2026-03-29T09:29:33.119Z</time></trkpt><trkpt lat="43.9628589" lon="12.4575248"><ele>156.0</ele><time>2026-03-29T09:29:36.115Z</time></trkpt><trkpt lat="43.9627888" lon="12.4575839"><ele>156.0</ele><time>2026-03-29T09:29:39.135Z</time></trkpt><trkpt lat="43.9627503" lon="12.4576567"><ele>156.0</ele><time>2026-03-29T09:29:41.117Z</time></trkpt><trkpt lat="43.9627529" lon="12.457747"><ele>156.0</ele><time>2026-03-29T09:29:43.086Z</time></trkpt><trkpt lat="43.9627814" lon="12.4578321"><ele>156.0</ele><time>2026-03-29T09:29:45.128Z</time></trkpt><trkpt lat="43.9628256" lon="12.4579053"><ele>156.0</ele><time>2026-03-29T09:29:47.097Z</time></trkpt><trkpt lat="43.9628813" lon="12.4579525"><ele>156.0</ele><time>2026-03-29T09:29:50.093Z</time></trkpt><trkpt lat="43.9629583" lon="12.4579813"><ele>157.42857142857144</ele><time>2026-03-29T09:29:55.102Z</time></trkpt><trkpt lat="43.9630223" lon="12.4580273"><ele>158.85714285714283</ele><time>2026-03-29T09:30:00.125Z</time></trkpt><trkpt lat="43.9630889" lon="12.4580488"><ele>160.28571428571428</ele><time>2026-03-29T09:30:06.105Z</time></trkpt><trkpt lat="43.9631515" lon="12.4580372"><ele>161.71428571428572</ele><time>2026-03-29T09:30:12.092Z</time></trkpt><trkpt lat="43.9632257" lon="12.4580539"><ele>163.14285714285717</ele><time>2026-03-29T09:30:18.147Z</time></trkpt><trkpt lat="43.9632961" lon="12.4580972"><ele>164.57142857142856</ele><time>2026-03-29T09:30:23.115Z</time></trkpt><trkpt lat="43.9633217" lon="12.4581814"><ele>166.0</ele><time>2026-03-29T09:30:30.136Z</time></trkpt><trkpt lat="43.9632625" lon="12.4582193"><ele>166.0</ele><time>2026-03-29T09:30:35.113Z</time></trkpt><trkpt lat="43.9631996" lon="12.458246"><ele>166.0</ele><time>2026-03-29T09:30:39.119Z</time></trkpt><trkpt lat="43.9631304" lon="12.4582808"><ele>166.0</ele><time>2026-03-29T09:30:44.124Z</time></trkpt><trkpt lat="43.9630616" lon="12.4583232"><ele>166.0</ele><time>2026-03-29T09:30:49.066Z</time></trkpt><trkpt lat="43.9630023" lon="12.4583794"><ele>166.0</ele><time>2026-03-29T09:30:54.141Z</time></trkpt><trkpt lat="43.9629441" lon="12.4584417"><ele>166.0</ele><time>2026-03-29T09:30:59.127Z</time></trkpt><trkpt lat="43.9628898" lon="12.4585269"><ele>166.0</ele><time>2026-03-29T09:31:04.128Z</time></trkpt><trkpt lat="43.9628501" lon="12.4586139"><ele>166.0</ele><time>2026-03-29T09:31:08.138Z</time></trkpt><trkpt lat="43.9628155" lon="12.458699"><ele>166.0</ele><time>2026-03-29T09:31:12.137Z</time></trkpt><trkpt lat="43.962761" lon="12.4587813"><ele>166.0</ele><time>2026-03-29T09:31:17.134Z</time></trkpt><trkpt lat="43.9627187" lon="12.4588579"><ele>166.0</ele><time>2026-03-29T09:31:21.14Z</time></trkpt><trkpt lat="43.9626829" lon="12.4589354"><ele>166.0</ele><time>2026-03-29T09:31:26.143Z</time></trkpt><trkpt lat="43.9626397" lon="12.4590128"><ele>166.0</ele><time>2026-03-29T09:31:31.105Z</time></trkpt><trkpt lat="43.9626131" lon="12.4591063"><ele>166.0</ele><time>2026-03-29T09:31:36.118Z</time></trkpt><trkpt lat="43.962578" lon="12.4592012"><ele>167.28571428571428</ele><time>2026-03-29T09:31:41.142Z</time></trkpt><trkpt lat="43.9625516" lon="12.4593027"><ele>168.57142857142858</ele><time>2026-03-29T09:31:46.11Z</time></trkpt><trkpt lat="43.9625303" lon="12.4593903"><ele>169.85714285714286</ele><time>2026-03-29T09:31:50.102Z</time></trkpt><trkpt lat="43.9625119" lon="12.4594896"><ele>171.14285714285714</ele><time>2026-03-29T09:31:55.118Z</time></trkpt><trkpt lat="43.962486" lon="12.4595807"><ele>172.42857142857144</ele><time>2026-03-29T09:32:00.149Z</time></trkpt><trkpt lat="43.9624627" lon="12.4596708"><ele>173.71428571428572</ele><time>2026-03-29T09:32:05.124Z</time></trkpt><trkpt lat="43.9624416" lon="12.4597567"><ele>175.0</ele><time>2026-03-29T09:32:09.107Z</time></trkpt><trkpt lat="43.9624112" lon="12.4598484"><ele>177.42857142857142</ele><time>2026-03-29T09:32:15.101Z</time></trkpt><trkpt lat="43.9623822" lon="12.4599504"><ele>179.85714285714286</ele><time>2026-03-29T09:32:20.112Z</time></trkpt><trkpt lat="43.9623465" lon="12.4600424"><ele>182.28571428571428</ele><time>2026-03-29T09:32:26.121Z</time></trkpt><trkpt lat="43.9623097" lon="12.4601208"><ele>184.71428571428572</ele><time>2026-03-29T09:32:32.113Z</time></trkpt><trkpt lat="43.9622711" lon="12.4601975"><ele>187.14285714285714</ele><time>2026-03-29T09:32:37.135Z</time></trkpt><trkpt lat="43.9622286" lon="12.4602766"><ele>189.57142857142856</ele><time>2026-03-29T09:32:42.13Z</time></trkpt><trkpt lat="43.9621973" lon="12.4603539"><ele>192.0</ele><time>2026-03-29T09:32:46.091Z</time></trkpt><trkpt lat="43.962152" lon="12.4604304"><ele>192.66666666666666</ele><time>2026-03-29T09:32:51.125Z</time></trkpt><trkpt lat="43.962112" lon="12.4605057"><ele>193.33333333333331</ele><time>2026-03-29T09:32:56.128Z</time></trkpt><trkpt lat="43.9620795" lon="12.4605933"><ele>194.0</ele><time>2026-03-29T09:33:01.121Z</time></trkpt><trkpt lat="43.9620871" lon="12.4606974"><ele>194.66666666666666</ele><time>2026-03-29T09:33:06.122Z</time></trkpt><trkpt lat="43.9621107" lon="12.4607887"><ele>195.33333333333331</ele><time>2026-03-29T09:33:10.128Z</time></trkpt><trkpt lat="43.9621619" lon="12.4608799"><ele>196.0</ele><time>2026-03-29T09:33:14.123Z</time></trkpt><trkpt lat="43.9622387" lon="12.4609615"><ele>195.99999999999997</ele><time>2026-03-29T09:33:16.12Z</time></trkpt><trkpt lat="43.9623304" lon="12.4610342"><ele>196.0</ele><time>2026-03-29T09:33:18.113Z</time></trkpt><trkpt lat="43.9623788" lon="12.4610931"><ele>196.0</ele><time>2026-03-29T09:33:19.119Z</time></trkpt><trkpt lat="43.962435" lon="12.4611647"><ele>196.0</ele><time>2026-03-29T09:33:20.129Z</time></trkpt><trkpt lat="43.9625034" lon="12.4612423"><ele>195.99999999999997</ele><time>2026-03-29T09:33:21.123Z</time></trkpt><trkpt lat="43.9625902" lon="12.4613141"><ele>196.0</ele><time>2026-03-29T09:33:22.132Z</time></trkpt><trkpt lat="43.9626781" lon="12.4613728"><ele>193.4</ele><time>2026-03-29T09:33:23.117Z</time></trkpt><trkpt lat="43.9627737" lon="12.4614222"><ele>190.8</ele><time>2026-03-29T09:33:24.109Z</time></trkpt><trkpt lat="43.9628671" lon="12.4614456"><ele>188.20000000000002</ele><time>2026-03-29T09:33:25.115Z</time></trkpt><trkpt lat="43.9629648" lon="12.4614669"><ele>185.60000000000002</ele><time>2026-03-29T09:33:26.12Z</time></trkpt><trkpt lat="43.9630579" lon="12.4615046"><ele>183.0</ele><time>2026-03-29T09:33:27.077Z</time></trkpt><trkpt lat="43.9631434" lon="12.4615451"><ele>183.0</ele><time>2026-03-29T09:33:28.104Z</time></trkpt><trkpt lat="43.9632232" lon="12.4616158"><ele>183.0</ele><time>2026-03-29T09:33:29.128Z</time></trkpt><trkpt lat="43.9632898" lon="12.4617145"><ele>183.0</ele><time>2026-03-29T09:33:30.108Z</time></trkpt><trkpt lat="43.9633535" lon="12.4618332"><ele>183.0</ele><time>2026-03-29T09:33:31.118Z</time></trkpt><trkpt lat="43.9634241" lon="12.4619575"><ele>183.0</ele><time>2026-03-29T09:33:32.126Z</time></trkpt><trkpt lat="43.9634985" lon="12.4620727"><ele>180.25</ele><time>2026-03-29T09:33:33.115Z</time></trkpt><trkpt lat="43.9635757" lon="12.4621877"><ele>177.5</ele><time>2026-03-29T09:33:34.134Z</time></trkpt><trkpt lat="43.9636528" lon="12.4623047"><ele>174.75</ele><time>2026-03-29T09:33:35.119Z</time></trkpt><trkpt lat="43.9637294" lon="12.4624152"><ele>172.0</ele><time>2026-03-29T09:33:36.114Z</time></trkpt><trkpt lat="43.9638181" lon="12.4625132"><ele>172.0</ele><time>2026-03-29T09:33:37.124Z</time></trkpt><trkpt lat="43.9639114" lon="12.4625964"><ele>172.0</ele><time>2026-03-29T09:33:38.101Z</time></trkpt><trkpt lat="43.9640093" lon="12.462679"><ele>172.0</ele><time>2026-03-29T09:33:39.115Z</time></trkpt><trkpt lat="43.9641164" lon="12.4627513"><ele>172.0</ele><time>2026-03-29T09:33:40.133Z</time></trkpt><trkpt lat="43.9642265" lon="12.462828"><ele>169.4</ele><time>2026-03-29T09:33:41.129Z</time></trkpt><trkpt lat="43.9643325" lon="12.4629187"><ele>166.79999999999998</ele><time>2026-03-29T09:33:42.135Z</time></trkpt><trkpt lat="43.9644228" lon="12.4630176"><ele>164.2</ele><time>2026-03-29T09:33:43.116Z</time></trkpt><trkpt lat="43.9645087" lon="12.4630947"><ele>161.6</ele><time>2026-03-29T09:33:44.119Z</time></trkpt><trkpt lat="43.964587" lon="12.4631351"><ele>159.0</ele><time>2026-03-29T09:33:45.134Z</time></trkpt><trkpt lat="43.9646767" lon="12.4631534"><ele>159.0</ele><time>2026-03-29T09:33:46.13Z</time></trkpt><trkpt lat="43.964766" lon="12.4631515"><ele>159.0</ele><time>2026-03-29T09:33:47.142Z</time></trkpt><trkpt lat="43.964858" lon="12.4631369"><ele>159.0</ele><time>2026-03-29T09:33:48.083Z</time></trkpt><trkpt lat="43.9649521" lon="12.4631232"><ele>159.0</ele><time>2026-03-29T09:33:49.126Z</time></trkpt><trkpt lat="43.9650399" lon="12.4631272"><ele>159.0</ele><time>2026-03-29T09:33:50.122Z</time></trkpt><trkpt lat="43.9651155" lon="12.4631726"><ele>159.0</ele><time>2026-03-29T09:33:51.138Z</time></trkpt><trkpt lat="43.965175" lon="12.4632423"><ele>157.14285714285714</ele><time>2026-03-29T09:33:52.132Z</time></trkpt><trkpt lat="43.9652203" lon="12.4633354"><ele>155.2857142857143</ele><time>2026-03-29T09:33:53.106Z</time></trkpt><trkpt lat="43.9652576" lon="12.4634268"><ele>153.42857142857144</ele><time>2026-03-29T09:33:54.086Z</time></trkpt><trkpt lat="43.9652914" lon="12.4635032"><ele>151.57142857142856</ele><time>2026-03-29T09:33:55.11Z</time></trkpt><trkpt lat="43.9653194" lon="12.4635841"><ele>149.71428571428572</ele><time>2026-03-29T09:33:57.097Z</time></trkpt><trkpt lat="43.9653429" lon="12.4636733"><ele>147.85714285714286</ele><time>2026-03-29T09:34:00.145Z</time></trkpt><trkpt lat="43.9653821" lon="12.4637761"><ele>146.0</ele><time>2026-03-29T09:34:02.085Z</time></trkpt><trkpt lat="43.9654687" lon="12.4638571"><ele>145.4</ele><time>2026-03-29T09:34:04.146Z</time></trkpt><trkpt lat="43.9655474" lon="12.4638969"><ele>144.8</ele><time>2026-03-29T09:34:07.122Z</time></trkpt><trkpt lat="43.965637" lon="12.4639457"><ele>144.20000000000002</ele><time>2026-03-29T09:34:09.137Z</time></trkpt><trkpt lat="43.9657451" lon="12.4639924"><ele>143.6</ele><time>2026-03-29T09:34:11.128Z</time></trkpt><trkpt lat="43.9658366" lon="12.4640405"><ele>143.0</ele><time>2026-03-29T09:34:13.12Z</time></trkpt><trkpt lat="43.9659154" lon="12.4641036"><ele>141.33333333333331</ele><time>2026-03-29T09:34:15.113Z</time></trkpt><trkpt lat="43.9659688" lon="12.4641524"><ele>139.66666666666666</ele><time>2026-03-29T09:34:17.113Z</time></trkpt><trkpt lat="43.9660383" lon="12.464243"><ele>138.0</ele><time>2026-03-29T09:34:21.129Z</time></trkpt><trkpt lat="43.9660929" lon="12.4643032"><ele>136.33333333333334</ele><time>2026-03-29T09:34:23.128Z</time></trkpt><trkpt lat="43.9661638" lon="12.4643308"><ele>134.66666666666669</ele><time>2026-03-29T09:34:25.082Z</time></trkpt><trkpt lat="43.9662606" lon="12.4643228"><ele>133.0</ele><time>2026-03-29T09:34:27.147Z</time></trkpt><trkpt lat="43.9663843" lon="12.464306"><ele>133.0</ele><time>2026-03-29T09:34:29.124Z</time></trkpt><trkpt lat="43.9664515" lon="12.4642928"><ele>133.0</ele><time>2026-03-29T09:34:30.131Z</time></trkpt><trkpt lat="43.9665357" lon="12.4642814"><ele>133.0</ele><time>2026-03-29T09:34:31.129Z</time></trkpt><trkpt lat="43.9666282" lon="12.4642668"><ele>133.0</ele><time>2026-03-29T09:34:32.144Z</time></trkpt><trkpt lat="43.9667295" lon="12.4642566"><ele>133.0</ele><time>2026-03-29T09:34:33.109Z</time></trkpt><trkpt lat="43.9668319" lon="12.4642509"><ele>130.25</ele><time>2026-03-29T09:34:34.14Z</time></trkpt><trkpt lat="43.9669353" lon="12.4642501"><ele>127.5</ele><time>2026-03-29T09:34:35.106Z</time></trkpt><trkpt lat="43.9670403" lon="12.464254"><ele>124.75</ele><time>2026-03-29T09:34:36.136Z</time></trkpt><trkpt lat="43.967158" lon="12.4642804"><ele>122.0</ele><time>2026-03-29T09:34:37.083Z</time></trkpt><trkpt lat="43.9672784" lon="12.4643222"><ele>122.0</ele><time>2026-03-29T09:34:38.139Z</time></trkpt><trkpt lat="43.967397" lon="12.4643767"><ele>122.0</ele><time>2026-03-29T09:34:39.133Z</time></trkpt><trkpt lat="43.9675077" lon="12.4644068"><ele>122.0</ele><time>2026-03-29T09:34:40.125Z</time></trkpt><trkpt lat="43.9676234" lon="12.4644299"><ele>122.0</ele><time>2026-03-29T09:34:41.131Z</time></trkpt><trkpt lat="43.9677566" lon="12.4644415"><ele>120.75</ele><time>2026-03-29T09:34:42.098Z</time></trkpt><trkpt lat="43.9678905" lon="12.4644236"><ele>119.5</ele><time>2026-03-29T09:34:43.121Z</time></trkpt><trkpt lat="43.9680192" lon="12.4643983"><ele>118.25</ele><time>2026-03-29T09:34:44.131Z</time></trkpt><trkpt lat="43.9681459" lon="12.4643652"><ele>117.0</ele><time>2026-03-29T09:34:45.123Z</time></trkpt><trkpt lat="43.9682637" lon="12.4643343"><ele>118.19999999999999</ele><time>2026-03-29T09:34:46.129Z</time></trkpt><trkpt lat="43.9683673" lon="12.4642986"><ele>119.39999999999999</ele><time>2026-03-29T09:34:47.125Z</time></trkpt><trkpt lat="43.9684431" lon="12.4642648"><ele>120.60000000000001</ele><time>2026-03-29T09:34:48.125Z</time></trkpt><trkpt lat="43.9685424" lon="12.4642881"><ele>121.80000000000001</ele><time>2026-03-29T09:34:50.114Z</time></trkpt><trkpt lat="43.9685893" lon="12.4643547"><ele>123.0</ele><time>2026-03-29T09:34:51.087Z</time></trkpt><trkpt lat="43.9686741" lon="12.4644949"><ele>123.0</ele><time>2026-03-29T09:34:53.088Z</time></trkpt><trkpt lat="43.9687132" lon="12.4645643"><ele>123.0</ele><time>2026-03-29T09:34:54.135Z</time></trkpt><trkpt lat="43.9687575" lon="12.4646329"><ele>123.0</ele><time>2026-03-29T09:34:55.125Z</time></trkpt><trkpt lat="43.9688131" lon="12.4647956"><ele>123.0</ele><time>2026-03-29T09:34:57.138Z</time></trkpt><trkpt lat="43.9688229" lon="12.4648967"><ele>123.0</ele><time>2026-03-29T09:34:58.12Z</time></trkpt><trkpt lat="43.9688247" lon="12.4649965"><ele>123.0</ele><time>2026-03-29T09:34:59.118Z</time></trkpt><trkpt lat="43.9688131" lon="12.4651022"><ele>122.0</ele><time>2026-03-29T09:35:00.12Z</time></trkpt><trkpt lat="43.9687895" lon="12.465194"><ele>121.0</ele><time>2026-03-29T09:35:01.089Z</time></trkpt><trkpt lat="43.9687688" lon="12.4652908"><ele>120.0</ele><time>2026-03-29T09:35:02.121Z</time></trkpt><trkpt lat="43.9687509" lon="12.4653755"><ele>119.0</ele><time>2026-03-29T09:35:03.118Z</time></trkpt><trkpt lat="43.9687217" lon="12.465534"><ele>118.0</ele><time>2026-03-29T09:35:05.101Z</time></trkpt><trkpt lat="43.9686952" lon="12.4656956"><ele>117.0</ele><time>2026-03-29T09:35:07.097Z</time></trkpt><trkpt lat="43.968684" lon="12.4657901"><ele>117.0</ele><time>2026-03-29T09:35:08.108Z</time></trkpt><trkpt lat="43.9686741" lon="12.4658786"><ele>116.99999999999999</ele><time>2026-03-29T09:35:09.128Z</time></trkpt><trkpt lat="43.9686546" lon="12.4660394"><ele>116.99999999999999</ele><time>2026-03-29T09:35:11.11Z</time></trkpt><trkpt lat="43.9686328" lon="12.4662117"><ele>117.0</ele><time>2026-03-29T09:35:13.117Z</time></trkpt><trkpt lat="43.9686196" lon="12.4662978"><ele>117.0</ele><time>2026-03-29T09:35:14.128Z</time></trkpt><trkpt lat="43.9685962" lon="12.4664615"><ele>116.16666666666667</ele><time>2026-03-29T09:35:16.137Z</time></trkpt><trkpt lat="43.9685753" lon="12.4665465"><ele>115.33333333333334</ele><time>2026-03-29T09:35:17.11Z</time></trkpt><trkpt lat="43.9685358" lon="12.4667227"><ele>114.5</ele><time>2026-03-29T09:35:19.121Z</time></trkpt><trkpt lat="43.9685125" lon="12.4668145"><ele>113.66666666666667</ele><time>2026-03-29T09:35:20.115Z</time></trkpt><trkpt lat="43.9684876" lon="12.4669047"><ele>112.83333333333334</ele><time>2026-03-29T09:35:21.115Z</time></trkpt><trkpt lat="43.9684628" lon="12.4669879"><ele>112.0</ele><time>2026-03-29T09:35:22.082Z</time></trkpt><trkpt lat="43.968438" lon="12.4670684"><ele>111.42857142857143</ele><time>2026-03-29T09:35:23.108Z</time></trkpt><trkpt lat="43.9684157" lon="12.4671597"><ele>110.85714285714286</ele><time>2026-03-29T09:35:24.12Z</time></trkpt><trkpt lat="43.9683976" lon="12.4672531"><ele>110.28571428571428</ele><time>2026-03-29T09:35:25.126Z</time></trkpt><trkpt lat="43.9683809" lon="12.4673436"><ele>109.71428571428572</ele><time>2026-03-29T09:35:26.15Z</time></trkpt><trkpt lat="43.9683645" lon="12.467445"><ele>109.14285714285714</ele><time>2026-03-29T09:35:27.136Z</time></trkpt><trkpt lat="43.96835" lon="12.4675399"><ele>108.57142857142857</ele><time>2026-03-29T09:35:28.131Z</time></trkpt><trkpt lat="43.9683365" lon="12.4676387"><ele>108.0</ele><time>2026-03-29T09:35:29.136Z</time></trkpt><trkpt lat="43.9683237" lon="12.4677427"><ele>108.0</ele><time>2026-03-29T09:35:30.124Z</time></trkpt><trkpt lat="43.9683142" lon="12.4678552"><ele>108.0</ele><time>2026-03-29T09:35:31.134Z</time></trkpt><trkpt lat="43.9683095" lon="12.4679664"><ele>108.0</ele><time>2026-03-29T09:35:32.14Z</time></trkpt><trkpt lat="43.9683155" lon="12.4680693"><ele>108.0</ele><time>2026-03-29T09:35:33.124Z</time></trkpt><trkpt lat="43.9683279" lon="12.4681732"><ele>108.0</ele><time>2026-03-29T09:35:34.117Z</time></trkpt><trkpt lat="43.9683424" lon="12.4682692"><ele>108.0</ele><time>2026-03-29T09:35:35.119Z</time></trkpt><trkpt lat="43.9683588" lon="12.4683653"><ele>108.0</ele><time>2026-03-29T09:35:36.134Z</time></trkpt><trkpt lat="43.9683743" lon="12.4684609"><ele>108.0</ele><time>2026-03-29T09:35:37.138Z</time></trkpt><trkpt lat="43.9683822" lon="12.4685482"><ele>108.0</ele><time>2026-03-29T09:35:38.148Z</time></trkpt><trkpt lat="43.9683875" lon="12.4686487"><ele>108.0</ele><time>2026-03-29T09:35:39.119Z</time></trkpt><trkpt lat="43.9683895" lon="12.4687407"><ele>108.0</ele><time>2026-03-29T09:35:40.139Z</time></trkpt><trkpt lat="43.968395" lon="12.4689098"><ele>108.0</ele><time>2026-03-29T09:35:42.11Z</time></trkpt><trkpt lat="43.9683939" lon="12.4690005"><ele>108.16666666666667</ele><time>2026-03-29T09:35:43.122Z</time></trkpt><trkpt lat="43.9683904" lon="12.4690989"><ele>108.33333333333334</ele><time>2026-03-29T09:35:44.126Z</time></trkpt><trkpt lat="43.9683808" lon="12.4691969"><ele>108.5</ele><time>2026-03-29T09:35:45.115Z</time></trkpt><trkpt lat="43.9683801" lon="12.4692854"><ele>108.66666666666667</ele><time>2026-03-29T09:35:46.138Z</time></trkpt><trkpt lat="43.9683706" lon="12.4693759"><ele>108.83333333333334</ele><time>2026-03-29T09:35:47.131Z</time></trkpt><trkpt lat="43.9683687" lon="12.4694719"><ele>109.0</ele><time>2026-03-29T09:35:48.132Z</time></trkpt><trkpt lat="43.9683728" lon="12.4696582"><ele>109.42857142857143</ele><time>2026-03-29T09:35:50.164Z</time></trkpt><trkpt lat="43.9683737" lon="12.4697603"><ele>109.85714285714286</ele><time>2026-03-29T09:35:51.137Z</time></trkpt><trkpt lat="43.9683744" lon="12.4698553"><ele>110.28571428571428</ele><time>2026-03-29T09:35:52.134Z</time></trkpt><trkpt lat="43.9683803" lon="12.4699563"><ele>110.71428571428572</ele><time>2026-03-29T09:35:53.133Z</time></trkpt><trkpt lat="43.968396" lon="12.4700483"><ele>111.14285714285714</ele><time>2026-03-29T09:35:54.128Z</time></trkpt><trkpt lat="43.968418" lon="12.4701347"><ele>111.57142857142857</ele><time>2026-03-29T09:35:55.137Z</time></trkpt><trkpt lat="43.9684369" lon="12.4702208"><ele>112.0</ele><time>2026-03-29T09:35:56.118Z</time></trkpt><trkpt lat="43.9684673" lon="12.4703734"><ele>111.83333333333334</ele><time>2026-03-29T09:35:58.109Z</time></trkpt><trkpt lat="43.9684942" lon="12.4705081"><ele>111.66666666666667</ele><time>2026-03-29T09:36:00.106Z</time></trkpt><trkpt lat="43.9685174" lon="12.470624"><ele>111.5</ele><time>2026-03-29T09:36:02.131Z</time></trkpt><trkpt lat="43.9685353" lon="12.4707193"><ele>111.33333333333334</ele><time>2026-03-29T09:36:04.135Z</time></trkpt><trkpt lat="43.9685573" lon="12.4708042"><ele>111.16666666666667</ele><time>2026-03-29T09:36:06.123Z</time></trkpt><trkpt lat="43.9685857" lon="12.4708927"><ele>111.0</ele><time>2026-03-29T09:36:08.129Z</time></trkpt><trkpt lat="43.968624" lon="12.4709688"><ele>111.0</ele><time>2026-03-29T09:36:10.112Z</time></trkpt><trkpt lat="43.9686835" lon="12.4710617"><ele>111.0</ele><time>2026-03-29T09:36:13.072Z</time></trkpt><trkpt lat="43.9687503" lon="12.4711378"><ele>111.0</ele><time>2026-03-29T09:36:16.121Z</time></trkpt><trkpt lat="43.9688137" lon="12.4712114"><ele>111.0</ele><time>2026-03-29T09:36:19.133Z</time></trkpt><trkpt lat="43.9688799" lon="12.4712694"><ele>111.0</ele><time>2026-03-29T09:36:22.123Z</time></trkpt><trkpt lat="43.9689504" lon="12.4713182"><ele>111.0</ele><time>2026-03-29T09:36:25.091Z</time></trkpt><trkpt lat="43.9690227" lon="12.4713513"><ele>110.0</ele><time>2026-03-29T09:36:29.095Z</time></trkpt><trkpt lat="43.9690907" lon="12.4713414"><ele>109.0</ele><time>2026-03-29T09:36:34.129Z</time></trkpt><trkpt lat="43.9691464" lon="12.4712966"><ele>108.0</ele><time>2026-03-29T09:36:38.153Z</time></trkpt><trkpt lat="43.9692016" lon="12.4712519"><ele>107.0</ele><time>2026-03-29T09:36:42.09Z</time></trkpt><trkpt lat="43.9692565" lon="12.4711777"><ele>106.0</ele><time>2026-03-29T09:36:47.132Z</time></trkpt><trkpt lat="43.9693027" lon="12.4711093"><ele>105.0</ele><time>2026-03-29T09:36:51.142Z</time></trkpt><trkpt lat="43.9693565" lon="12.4710292"><ele>104.0</ele><time>2026-03-29T09:36:56.113Z</time></trkpt><trkpt lat="43.9694166" lon="12.4709457"><ele>106.71428571428571</ele><time>2026-03-29T09:37:01.124Z</time></trkpt><trkpt lat="43.9694533" lon="12.470864"><ele>109.42857142857144</ele><time>2026-03-29T09:37:06.116Z</time></trkpt><trkpt lat="43.969503" lon="12.4707882"><ele>112.14285714285715</ele><time>2026-03-29T09:37:12.103Z</time></trkpt><trkpt lat="43.9695451" lon="12.4707177"><ele>114.85714285714286</ele><time>2026-03-29T09:37:18.109Z</time></trkpt><trkpt lat="43.969588" lon="12.4706428"><ele>117.57142857142858</ele><time>2026-03-29T09:37:24.135Z</time></trkpt><trkpt lat="43.9696248" lon="12.4705646"><ele>120.2857142857143</ele><time>2026-03-29T09:37:29.119Z</time></trkpt><trkpt lat="43.9696644" lon="12.4704805"><ele>123.00000000000001</ele><time>2026-03-29T09:37:35.116Z</time></trkpt><trkpt lat="43.9696959" lon="12.4703826"><ele>124.00000000000001</ele><time>2026-03-29T09:37:42.101Z</time></trkpt><trkpt lat="43.9697282" lon="12.470297"><ele>125.0</ele><time>2026-03-29T09:37:48.121Z</time></trkpt><trkpt lat="43.9697583" lon="12.4702051"><ele>126.00000000000001</ele><time>2026-03-29T09:37:54.134Z</time></trkpt><trkpt lat="43.9697863" lon="12.4701148"><ele>127.00000000000001</ele><time>2026-03-29T09:37:59.119Z</time></trkpt><trkpt lat="43.9698424" lon="12.4700598"><ele>128.0</ele><time>2026-03-29T09:38:04.131Z</time></trkpt><trkpt lat="43.9699134" lon="12.4700484"><ele>129.00000000000003</ele><time>2026-03-29T09:38:09.122Z</time></trkpt><trkpt lat="43.969962" lon="12.4701114"><ele>130.0</ele><time>2026-03-29T09:38:14.135Z</time></trkpt><trkpt lat="43.9700101" lon="12.4701767"><ele>131.71428571428572</ele><time>2026-03-29T09:38:19.104Z</time></trkpt><trkpt lat="43.9700593" lon="12.4702477"><ele>133.42857142857144</ele><time>2026-03-29T09:38:24.078Z</time></trkpt><trkpt lat="43.9701056" lon="12.4703084"><ele>135.14285714285714</ele><time>2026-03-29T09:38:29.119Z</time></trkpt><trkpt lat="43.9701661" lon="12.4703455"><ele>136.85714285714286</ele><time>2026-03-29T09:38:34.144Z</time></trkpt><trkpt lat="43.9702367" lon="12.4703465"><ele>138.57142857142856</ele><time>2026-03-29T09:38:39.127Z</time></trkpt><trkpt lat="43.9703044" lon="12.470326"><ele>140.28571428571428</ele><time>2026-03-29T09:38:44.119Z</time></trkpt><trkpt lat="43.970358" lon="12.4702586"><ele>142.0</ele><time>2026-03-29T09:38:49.101Z</time></trkpt><trkpt lat="43.9704025" lon="12.470181"><ele>142.0</ele><time>2026-03-29T09:38:54.132Z</time></trkpt><trkpt lat="43.9704431" lon="12.4700977"><ele>142.0</ele><time>2026-03-29T09:38:59.134Z</time></trkpt><trkpt lat="43.9704851" lon="12.4700169"><ele>142.0</ele><time>2026-03-29T09:39:04.128Z</time></trkpt><trkpt lat="43.9705215" lon="12.4699428"><ele>142.0</ele><time>2026-03-29T09:39:09.092Z</time></trkpt><trkpt lat="43.9705669" lon="12.4698672"><ele>142.0</ele><time>2026-03-29T09:39:14.121Z</time></trkpt><trkpt lat="43.9706158" lon="12.4697963"><ele>142.0</ele><time>2026-03-29T09:39:19.124Z</time></trkpt><trkpt lat="43.970653" lon="12.4697252"><ele>142.0</ele><time>2026-03-29T09:39:23.125Z</time></trkpt><trkpt lat="43.970695" lon="12.469643"><ele>142.85714285714286</ele><time>2026-03-29T09:39:28.13Z</time></trkpt><trkpt lat="43.9707431" lon="12.4695746"><ele>143.7142857142857</ele><time>2026-03-29T09:39:33.107Z</time></trkpt><trkpt lat="43.970783" lon="12.4695051"><ele>144.57142857142856</ele><time>2026-03-29T09:39:37.13Z</time></trkpt><trkpt lat="43.9708238" lon="12.4694242"><ele>145.42857142857142</ele><time>2026-03-29T09:39:41.147Z</time></trkpt><trkpt lat="43.9708653" lon="12.4693504"><ele>146.28571428571428</ele><time>2026-03-29T09:39:45.109Z</time></trkpt><trkpt lat="43.9709107" lon="12.4692808"><ele>147.14285714285714</ele><time>2026-03-29T09:39:49.126Z</time></trkpt><trkpt lat="43.9709571" lon="12.469189"><ele>148.0</ele><time>2026-03-29T09:39:54.109Z</time></trkpt><trkpt lat="43.9709927" lon="12.4691078"><ele>149.0</ele><time>2026-03-29T09:39:58.122Z</time></trkpt><trkpt lat="43.9710368" lon="12.4690238"><ele>150.0</ele><time>2026-03-29T09:40:03.113Z</time></trkpt><trkpt lat="43.971071" lon="12.4689446"><ele>151.0</ele><time>2026-03-29T09:40:07.115Z</time></trkpt><trkpt lat="43.9710889" lon="12.4688527"><ele>152.0</ele><time>2026-03-29T09:40:11.114Z</time></trkpt><trkpt lat="43.9710772" lon="12.4687491"><ele>153.0</ele><time>2026-03-29T09:40:15.118Z</time></trkpt><trkpt lat="43.9710709" lon="12.4686457"><ele>154.0</ele><time>2026-03-29T09:40:19.12Z</time></trkpt><trkpt lat="43.9710574" lon="12.4685491"><ele>155.0</ele><time>2026-03-29T09:40:23.101Z</time></trkpt><trkpt lat="43.9710415" lon="12.4684619"><ele>156.42857142857144</ele><time>2026-03-29T09:40:27.135Z</time></trkpt><trkpt lat="43.9710299" lon="12.4683754"><ele>157.85714285714286</ele><time>2026-03-29T09:40:31.125Z</time></trkpt><trkpt lat="43.971021" lon="12.4682784"><ele>159.28571428571428</ele><time>2026-03-29T09:40:35.132Z</time></trkpt><trkpt lat="43.9710183" lon="12.4681883"><ele>160.71428571428572</ele><time>2026-03-29T09:40:39.123Z</time></trkpt><trkpt lat="43.9710014" lon="12.4680849"><ele>162.14285714285714</ele><time>2026-03-29T09:40:43.146Z</time></trkpt><trkpt lat="43.9710019" lon="12.4679826"><ele>163.57142857142858</ele><time>2026-03-29T09:40:47.122Z</time></trkpt><trkpt lat="43.9710309" lon="12.4678853"><ele>165.0</ele><time>2026-03-29T09:40:51.13Z</time></trkpt><trkpt lat="43.971082" lon="12.4678254"><ele>165.57142857142858</ele><time>2026-03-29T09:40:55.136Z</time></trkpt><trkpt lat="43.9711318" lon="12.467766"><ele>166.14285714285714</ele><time>2026-03-29T09:40:59.122Z</time></trkpt><trkpt lat="43.9711849" lon="12.4677116"><ele>166.71428571428572</ele><time>2026-03-29T09:41:03.113Z</time></trkpt><trkpt lat="43.971241" lon="12.4676509"><ele>167.28571428571428</ele><time>2026-03-29T09:41:07.124Z</time></trkpt><trkpt lat="43.9713068" lon="12.4675898"><ele>167.85714285714286</ele><time>2026-03-29T09:41:11.123Z</time></trkpt><trkpt lat="43.9713721" lon="12.4675307"><ele>168.42857142857144</ele><time>2026-03-29T09:41:16.106Z</time></trkpt><trkpt lat="43.9714215" lon="12.4674746"><ele>169.0</ele><time>2026-03-29T09:41:20.087Z</time></trkpt><trkpt lat="43.9714831" lon="12.4674154"><ele>169.0</ele><time>2026-03-29T09:41:24.082Z</time></trkpt><trkpt lat="43.9715372" lon="12.4673664"><ele>169.0</ele><time>2026-03-29T09:41:28.127Z</time></trkpt><trkpt lat="43.9715888" lon="12.4673125"><ele>169.0</ele><time>2026-03-29T09:41:33.134Z</time></trkpt><trkpt lat="43.9716509" lon="12.4672715"><ele>169.0</ele><time>2026-03-29T09:41:38.123Z</time></trkpt><trkpt lat="43.9717081" lon="12.4672063"><ele>169.0</ele><time>2026-03-29T09:41:43.132Z</time></trkpt><trkpt lat="43.9717582" lon="12.4671533"><ele>169.0</ele><time>2026-03-29T09:41:47.121Z</time></trkpt><trkpt lat="43.9718172" lon="12.4671012"><ele>169.0</ele><time>2026-03-29T09:41:52.132Z</time></trkpt><trkpt lat="43.9718949" lon="12.4670773"><ele>170.42857142857144</ele><time>2026-03-29T09:41:57.116Z</time></trkpt><trkpt lat="43.971969" lon="12.4670913"><ele>171.85714285714286</ele><time>2026-03-29T09:42:02.121Z</time></trkpt><trkpt lat="43.9720339" lon="12.467105"><ele>173.28571428571428</ele><time>2026-03-29T09:42:06.129Z</time></trkpt><trkpt lat="43.9721102" lon="12.4671214"><ele>174.71428571428572</ele><time>2026-03-29T09:42:11.146Z</time></trkpt><trkpt lat="43.9721827" lon="12.4671303"><ele>176.14285714285714</ele><time>2026-03-29T09:42:16.071Z</time></trkpt><trkpt lat="43.9722457" lon="12.4671401"><ele>177.57142857142858</ele><time>2026-03-29T09:42:20.071Z</time></trkpt><trkpt lat="43.9723106" lon="12.4671544"><ele>179.0</ele><time>2026-03-29T09:42:24.131Z</time></trkpt><trkpt lat="43.9723801" lon="12.467169"><ele>179.00000000000003</ele><time>2026-03-29T09:42:29.127Z</time></trkpt><trkpt lat="43.9724435" lon="12.4671814"><ele>179.0</ele><time>2026-03-29T09:42:33.123Z</time></trkpt><trkpt lat="43.9725133" lon="12.4671821"><ele>179.0</ele><time>2026-03-29T09:42:37.12Z</time></trkpt><trkpt lat="43.9725948" lon="12.4671942"><ele>179.0</ele><time>2026-03-29T09:42:41.115Z</time></trkpt><trkpt lat="43.9726614" lon="12.4671711"><ele>179.0</ele><time>2026-03-29T09:42:44.085Z</time></trkpt><trkpt lat="43.972733" lon="12.4671372"><ele>179.00000000000003</ele><time>2026-03-29T09:42:48.131Z</time></trkpt><trkpt lat="43.9728011" lon="12.4670824"><ele>179.0</ele><time>2026-03-29T09:42:53.118Z</time></trkpt><trkpt lat="43.9728634" lon="12.4670306"><ele>182.14285714285717</ele><time>2026-03-29T09:42:58.134Z</time></trkpt><trkpt lat="43.9729133" lon="12.4669579"><ele>185.28571428571428</ele><time>2026-03-29T09:43:03.127Z</time></trkpt><trkpt lat="43.9729627" lon="12.4668959"><ele>188.42857142857144</ele><time>2026-03-29T09:43:09.083Z</time></trkpt><trkpt lat="43.9729943" lon="12.4668161"><ele>191.57142857142858</ele><time>2026-03-29T09:43:14.106Z</time></trkpt><trkpt lat="43.9730139" lon="12.4667289"><ele>194.71428571428572</ele><time>2026-03-29T09:43:19.137Z</time></trkpt><trkpt lat="43.9730373" lon="12.4666448"><ele>197.85714285714286</ele><time>2026-03-29T09:43:25.114Z</time></trkpt><trkpt lat="43.9730638" lon="12.4665565"><ele>201.0</ele><time>2026-03-29T09:43:31.121Z</time></trkpt><trkpt lat="43.9731002" lon="12.4664644"><ele>201.0</ele><time>2026-03-29T09:43:37.107Z</time></trkpt><trkpt lat="43.973134" lon="12.4663795"><ele>201.0</ele><time>2026-03-29T09:43:43.112Z</time></trkpt><trkpt lat="43.9731749" lon="12.4663075"><ele>201.0</ele><time>2026-03-29T09:43:49.1Z</time></trkpt><trkpt lat="43.9732174" lon="12.4662258"><ele>201.0</ele><time>2026-03-29T09:43:55.11Z</time></trkpt><trkpt lat="43.9732694" lon="12.4661505"><ele>201.0</ele><time>2026-03-29T09:44:01.137Z</time></trkpt><trkpt lat="43.973331" lon="12.4661074"><ele>201.0</ele><time>2026-03-29T09:44:08.117Z</time></trkpt><trkpt lat="43.97339" lon="12.4660731"><ele>201.0</ele><time>2026-03-29T09:44:14.113Z</time></trkpt><trkpt lat="43.9734373" lon="12.4660053"><ele>203.28571428571428</ele><time>2026-03-29T09:44:20.11Z</time></trkpt><trkpt lat="43.9734854" lon="12.465943"><ele>205.57142857142858</ele><time>2026-03-29T09:44:25.092Z</time></trkpt><trkpt lat="43.973534" lon="12.4658713"><ele>207.85714285714286</ele><time>2026-03-29T09:44:31.134Z</time></trkpt><trkpt lat="43.9735819" lon="12.4657957"><ele>210.14285714285714</ele><time>2026-03-29T09:44:37.132Z</time></trkpt><trkpt lat="43.9736258" lon="12.4657182"><ele>212.42857142857144</ele><time>2026-03-29T09:44:43.098Z</time></trkpt><trkpt lat="43.9736744" lon="12.4656426"><ele>214.71428571428572</ele><time>2026-03-29T09:44:49.125Z</time></trkpt><trkpt lat="43.97371" lon="12.4655651"><ele>217.0</ele><time>2026-03-29T09:44:55.138Z</time></trkpt><trkpt lat="43.9737641" lon="12.4655153"><ele>217.0</ele><time>2026-03-29T09:45:02.114Z</time></trkpt><trkpt lat="43.9738142" lon="12.4654532"><ele>217.0</ele><time>2026-03-29T09:45:08.127Z</time></trkpt><trkpt lat="43.973867" lon="12.4653938"><ele>217.0</ele><time>2026-03-29T09:45:14.124Z</time></trkpt><trkpt lat="43.9739187" lon="12.4653338"><ele>217.0</ele><time>2026-03-29T09:45:20.13Z</time></trkpt><trkpt lat="43.9739716" lon="12.4652751"><ele>217.0</ele><time>2026-03-29T09:45:28.14Z</time></trkpt><trkpt lat="43.9740281" lon="12.465231"><ele>217.0</ele><time>2026-03-29T09:45:35.116Z</time></trkpt><trkpt lat="43.9740842" lon="12.4651722"><ele>217.0</ele><time>2026-03-29T09:45:41.124Z</time></trkpt><trkpt lat="43.9741426" lon="12.4652373"><ele>217.0</ele><time>2026-03-29T09:45:48.076Z</time></trkpt><trkpt lat="43.9741608" lon="12.4653482"><ele>217.0</ele><time>2026-03-29T09:45:50.12Z</time></trkpt><trkpt lat="43.9741625" lon="12.4655073"><ele>217.0</ele><time>2026-03-29T09:45:52.125Z</time></trkpt><trkpt lat="43.9741658" lon="12.465688"><ele>217.0</ele><time>2026-03-29T09:45:54.128Z</time></trkpt><trkpt lat="43.9741737" lon="12.4657971"><ele>217.0</ele><time>2026-03-29T09:45:55.093Z</time></trkpt><trkpt lat="43.9741759" lon="12.4659075"><ele>217.0</ele><time>2026-03-29T09:45:56.133Z</time></trkpt><trkpt lat="43.9741829" lon="12.4660311"><ele>217.0</ele><time>2026-03-29T09:45:57.131Z</time></trkpt><trkpt lat="43.9741864" lon="12.4661638"><ele>217.0</ele><time>2026-03-29T09:45:58.123Z</time></trkpt><trkpt lat="43.9741887" lon="12.4662957"><ele>217.0</ele><time>2026-03-29T09:45:59.137Z</time></trkpt><trkpt lat="43.9741936" lon="12.4664322"><ele>217.0</ele><time>2026-03-29T09:46:00.114Z</time></trkpt><trkpt lat="43.9742023" lon="12.4665705"><ele>216.39999999999998</ele><time>2026-03-29T09:46:01.106Z</time></trkpt><trkpt lat="43.9742065" lon="12.4667125"><ele>215.79999999999998</ele><time>2026-03-29T09:46:02.119Z</time></trkpt><trkpt lat="43.9742137" lon="12.4668619"><ele>215.2</ele><time>2026-03-29T09:46:03.064Z</time></trkpt><trkpt lat="43.9742182" lon="12.4670141"><ele>214.6</ele><time>2026-03-29T09:46:04.122Z</time></trkpt><trkpt lat="43.9742288" lon="12.4671656"><ele>214.0</ele><time>2026-03-29T09:46:05.123Z</time></trkpt><trkpt lat="43.9742353" lon="12.4673247"><ele>212.0</ele><time>2026-03-29T09:46:06.129Z</time></trkpt><trkpt lat="43.9742432" lon="12.4674811"><ele>209.99999999999997</ele><time>2026-03-29T09:46:07.123Z</time></trkpt><trkpt lat="43.9742487" lon="12.4676377"><ele>208.0</ele><time>2026-03-29T09:46:08.143Z</time></trkpt><trkpt lat="43.9742577" lon="12.4677925"><ele>206.0</ele><time>2026-03-29T09:46:09.131Z</time></trkpt><trkpt lat="43.9742672" lon="12.4679429"><ele>204.0</ele><time>2026-03-29T09:46:10.141Z</time></trkpt><trkpt lat="43.9742757" lon="12.4680903"><ele>203.2</ele><time>2026-03-29T09:46:11.13Z</time></trkpt><trkpt lat="43.9742763" lon="12.4682457"><ele>202.39999999999998</ele><time>2026-03-29T09:46:12.126Z</time></trkpt><trkpt lat="43.9742925" lon="12.4683908"><ele>201.6</ele><time>2026-03-29T09:46:13.108Z</time></trkpt><trkpt lat="43.9743045" lon="12.4685395"><ele>200.8</ele><time>2026-03-29T09:46:14.108Z</time></trkpt><trkpt lat="43.9743169" lon="12.4686898"><ele>200.0</ele><time>2026-03-29T09:46:15.125Z</time></trkpt><trkpt lat="43.9743268" lon="12.4688398"><ele>199.0</ele><time>2026-03-29T09:46:16.112Z</time></trkpt><trkpt lat="43.974333" lon="12.4689873"><ele>198.0</ele><time>2026-03-29T09:46:17.129Z</time></trkpt><trkpt lat="43.9743354" lon="12.4691433"><ele>197.0</ele><time>2026-03-29T09:46:18.137Z</time></trkpt><trkpt lat="43.9743443" lon="12.4693036"><ele>196.0</ele><time>2026-03-29T09:46:19.122Z</time></trkpt><trkpt lat="43.9743552" lon="12.4694612"><ele>195.0</ele><time>2026-03-29T09:46:20.121Z</time></trkpt><trkpt lat="43.9743646" lon="12.4696095"><ele>194.4</ele><time>2026-03-29T09:46:21.119Z</time></trkpt><trkpt lat="43.9743775" lon="12.4697598"><ele>193.8</ele><time>2026-03-29T09:46:22.122Z</time></trkpt><trkpt lat="43.9743871" lon="12.4699054"><ele>193.2</ele><time>2026-03-29T09:46:23.12Z</time></trkpt><trkpt lat="43.9743934" lon="12.4700604"><ele>192.6</ele><time>2026-03-29T09:46:24.129Z</time></trkpt><trkpt lat="43.9744044" lon="12.4702202"><ele>192.0</ele><time>2026-03-29T09:46:25.106Z</time></trkpt><trkpt lat="43.9744125" lon="12.4703638"><ele>192.0</ele><time>2026-03-29T09:46:26.145Z</time></trkpt><trkpt lat="43.9744269" lon="12.4705077"><ele>192.0</ele><time>2026-03-29T09:46:27.137Z</time></trkpt><trkpt lat="43.9744357" lon="12.4706562"><ele>192.0</ele><time>2026-03-29T09:46:28.131Z</time></trkpt><trkpt lat="43.9744426" lon="12.4708113"><ele>192.0</ele><time>2026-03-29T09:46:29.115Z</time></trkpt><trkpt lat="43.9744482" lon="12.4709616"><ele>192.0</ele><time>2026-03-29T09:46:30.118Z</time></trkpt><trkpt lat="43.9744522" lon="12.4711108"><ele>192.0</ele><time>2026-03-29T09:46:31.153Z</time></trkpt><trkpt lat="43.9744652" lon="12.471261"><ele>192.0</ele><time>2026-03-29T09:46:32.136Z</time></trkpt><trkpt lat="43.9744789" lon="12.4714052"><ele>192.0</ele><time>2026-03-29T09:46:33.149Z</time></trkpt><trkpt lat="43.9745012" lon="12.4715506"><ele>192.0</ele><time>2026-03-29T09:46:34.132Z</time></trkpt><trkpt lat="43.9745309" lon="12.47169"><ele>192.0</ele><time>2026-03-29T09:46:35.135Z</time></trkpt><trkpt lat="43.9745645" lon="12.4718233"><ele>191.8</ele><time>2026-03-29T09:46:36.104Z</time></trkpt><trkpt lat="43.9746082" lon="12.4719521"><ele>191.6</ele><time>2026-03-29T09:46:37.129Z</time></trkpt><trkpt lat="43.9746514" lon="12.4720727"><ele>191.4</ele><time>2026-03-29T09:46:38.123Z</time></trkpt><trkpt lat="43.9747092" lon="12.4721899"><ele>191.20000000000002</ele><time>2026-03-29T09:46:39.122Z</time></trkpt><trkpt lat="43.9747727" lon="12.4723027"><ele>191.0</ele><time>2026-03-29T09:46:40.138Z</time></trkpt><trkpt lat="43.9748432" lon="12.4724102"><ele>190.0</ele><time>2026-03-29T09:46:41.102Z</time></trkpt><trkpt lat="43.9749132" lon="12.4725039"><ele>189.0</ele><time>2026-03-29T09:46:42.151Z</time></trkpt><trkpt lat="43.9749915" lon="12.4725928"><ele>188.0</ele><time>2026-03-29T09:46:43.132Z</time></trkpt><trkpt lat="43.9750724" lon="12.4726808"><ele>187.0</ele><time>2026-03-29T09:46:44.121Z</time></trkpt><trkpt lat="43.9751549" lon="12.4727773"><ele>186.0</ele><time>2026-03-29T09:46:45.11Z</time></trkpt><trkpt lat="43.9752312" lon="12.4728705"><ele>185.4</ele><time>2026-03-29T09:46:46.121Z</time></trkpt><trkpt lat="43.9753114" lon="12.4729549"><ele>184.8</ele><time>2026-03-29T09:46:47.118Z</time></trkpt><trkpt lat="43.9753964" lon="12.4730364"><ele>184.20000000000002</ele><time>2026-03-29T09:46:48.113Z</time></trkpt><trkpt lat="43.975484" lon="12.4731273"><ele>183.60000000000002</ele><time>2026-03-29T09:46:49.141Z</time></trkpt><trkpt lat="43.9755677" lon="12.4732155"><ele>183.0</ele><time>2026-03-29T09:46:50.105Z</time></trkpt><trkpt lat="43.9756535" lon="12.4733066"><ele>183.0</ele><time>2026-03-29T09:46:51.097Z</time></trkpt><trkpt lat="43.9757358" lon="12.4733966"><ele>183.0</ele><time>2026-03-29T09:46:52.109Z</time></trkpt><trkpt lat="43.9758153" lon="12.4734908"><ele>183.0</ele><time>2026-03-29T09:46:53.132Z</time></trkpt><trkpt lat="43.975895" lon="12.4735885"><ele>183.0</ele><time>2026-03-29T09:46:54.144Z</time></trkpt><trkpt lat="43.9759738" lon="12.4736945"><ele>183.0</ele><time>2026-03-29T09:46:55.119Z</time></trkpt><trkpt lat="43.9760585" lon="12.4738083"><ele>179.25</ele><time>2026-03-29T09:46:56.13Z</time></trkpt><trkpt lat="43.9761397" lon="12.4739299"><ele>175.5</ele><time>2026-03-29T09:46:57.145Z</time></trkpt><trkpt lat="43.9762253" lon="12.4740485"><ele>171.75</ele><time>2026-03-29T09:46:58.113Z</time></trkpt><trkpt lat="43.976313" lon="12.474169"><ele>168.0</ele><time>2026-03-29T09:46:59.109Z</time></trkpt><trkpt lat="43.9764073" lon="12.4742912"><ele>168.0</ele><time>2026-03-29T09:47:00.127Z</time></trkpt><trkpt lat="43.976501" lon="12.4744135"><ele>168.0</ele><time>2026-03-29T09:47:01.116Z</time></trkpt><trkpt lat="43.9765954" lon="12.4745363"><ele>168.0</ele><time>2026-03-29T09:47:02.141Z</time></trkpt><trkpt lat="43.9766902" lon="12.4746598"><ele>168.0</ele><time>2026-03-29T09:47:03.118Z</time></trkpt><trkpt lat="43.9767886" lon="12.4747845"><ele>165.0</ele><time>2026-03-29T09:47:04.124Z</time></trkpt><trkpt lat="43.9768875" lon="12.4749198"><ele>162.0</ele><time>2026-03-29T09:47:05.127Z</time></trkpt><trkpt lat="43.9769893" lon="12.47505"><ele>159.0</ele><time>2026-03-29T09:47:06.135Z</time></trkpt><trkpt lat="43.9770871" lon="12.4751737"><ele>156.0</ele><time>2026-03-29T09:47:07.134Z</time></trkpt><trkpt lat="43.9771875" lon="12.475297"><ele>156.0</ele><time>2026-03-29T09:47:08.136Z</time></trkpt><trkpt lat="43.9772846" lon="12.4754287"><ele>156.0</ele><time>2026-03-29T09:47:09.119Z</time></trkpt><trkpt lat="43.977381" lon="12.4755609"><ele>156.0</ele><time>2026-03-29T09:47:10.144Z</time></trkpt><trkpt lat="43.977466" lon="12.4757104"><ele>156.0</ele><time>2026-03-29T09:47:11.13Z</time></trkpt><trkpt lat="43.9775373" lon="12.4758711"><ele>152.75</ele><time>2026-03-29T09:47:12.128Z</time></trkpt><trkpt lat="43.9775944" lon="12.4760363"><ele>149.5</ele><time>2026-03-29T09:47:13.068Z</time></trkpt><trkpt lat="43.9776336" lon="12.4762049"><ele>146.25</ele><time>2026-03-29T09:47:14.065Z</time></trkpt><trkpt lat="43.977662" lon="12.4763871"><ele>143.0</ele><time>2026-03-29T09:47:15.068Z</time></trkpt><trkpt lat="43.9776885" lon="12.476569"><ele>142.5</ele><time>2026-03-29T09:47:16.127Z</time></trkpt><trkpt lat="43.9777134" lon="12.476749"><ele>142.0</ele><time>2026-03-29T09:47:17.073Z</time></trkpt><trkpt lat="43.9777383" lon="12.4769226"><ele>141.5</ele><time>2026-03-29T09:47:18.116Z</time></trkpt><trkpt lat="43.9777587" lon="12.4770853"><ele>141.0</ele><time>2026-03-29T09:47:19.082Z</time></trkpt><trkpt lat="43.9777777" lon="12.4772392"><ele>140.6</ele><time>2026-03-29T09:47:20.126Z</time></trkpt><trkpt lat="43.9777712" lon="12.4773938"><ele>140.2</ele><time>2026-03-29T09:47:21.126Z</time></trkpt><trkpt lat="43.9777519" lon="12.4775365"><ele>139.8</ele><time>2026-03-29T09:47:22.117Z</time></trkpt><trkpt lat="43.9777298" lon="12.4776716"><ele>139.4</ele><time>2026-03-29T09:47:23.136Z</time></trkpt><trkpt lat="43.9777317" lon="12.4777965"><ele>139.0</ele><time>2026-03-29T09:47:24.114Z</time></trkpt><trkpt lat="43.9777692" lon="12.4778952"><ele>139.0</ele><time>2026-03-29T09:47:25.129Z</time></trkpt><trkpt lat="43.9778357" lon="12.4779641"><ele>139.0</ele><time>2026-03-29T09:47:26.13Z</time></trkpt><trkpt lat="43.9779046" lon="12.4780297"><ele>139.0</ele><time>2026-03-29T09:47:27.126Z</time></trkpt><trkpt lat="43.9779523" lon="12.4781419"><ele>139.0</ele><time>2026-03-29T09:47:28.133Z</time></trkpt><trkpt lat="43.9779628" lon="12.4782774"><ele>139.0</ele><time>2026-03-29T09:47:29.123Z</time></trkpt><trkpt lat="43.9779737" lon="12.4784185"><ele>139.0</ele><time>2026-03-29T09:47:30.133Z</time></trkpt><trkpt lat="43.9779769" lon="12.4785635"><ele>139.0</ele><time>2026-03-29T09:47:31.117Z</time></trkpt><trkpt lat="43.9779914" lon="12.4787108"><ele>139.0</ele><time>2026-03-29T09:47:32.129Z</time></trkpt><trkpt lat="43.978006" lon="12.478861"><ele>139.0</ele><time>2026-03-29T09:47:33.111Z</time></trkpt><trkpt lat="43.9780291" lon="12.4790179"><ele>139.0</ele><time>2026-03-29T09:47:34.124Z</time></trkpt><trkpt lat="43.9780472" lon="12.4791787"><ele>137.5</ele><time>2026-03-29T09:47:35.136Z</time></trkpt><trkpt lat="43.9780696" lon="12.479335"><ele>136.0</ele><time>2026-03-29T09:47:36.119Z</time></trkpt><trkpt lat="43.9780906" lon="12.4794933"><ele>134.5</ele><time>2026-03-29T09:47:37.126Z</time></trkpt><trkpt lat="43.9781138" lon="12.4796483"><ele>133.0</ele><time>2026-03-29T09:47:38.123Z</time></trkpt><trkpt lat="43.9781391" lon="12.4797964"><ele>132.0</ele><time>2026-03-29T09:47:39.095Z</time></trkpt><trkpt lat="43.9781612" lon="12.4799511"><ele>131.0</ele><time>2026-03-29T09:47:40.101Z</time></trkpt><trkpt lat="43.97818" lon="12.4800856"><ele>130.0</ele><time>2026-03-29T09:47:41.112Z</time></trkpt><trkpt lat="43.9782056" lon="12.4802194"><ele>129.0</ele><time>2026-03-29T09:47:42.126Z</time></trkpt><trkpt lat="43.9782118" lon="12.4803221"><ele>128.0</ele><time>2026-03-29T09:47:43.119Z</time></trkpt><trkpt lat="43.9781763" lon="12.4804019"><ele>128.0</ele><time>2026-03-29T09:47:44.111Z</time></trkpt><trkpt lat="43.9781248" lon="12.4804571"><ele>128.0</ele><time>2026-03-29T09:47:45.12Z</time></trkpt><trkpt lat="43.9780165" lon="12.4805311"><ele>128.0</ele><time>2026-03-29T09:47:47.123Z</time></trkpt><trkpt lat="43.9779094" lon="12.4806071"><ele>128.0</ele><time>2026-03-29T09:47:49.122Z</time></trkpt><trkpt lat="43.9778138" lon="12.4806979"><ele>128.0</ele><time>2026-03-29T09:47:51.073Z</time></trkpt><trkpt lat="43.9777587" lon="12.4807435"><ele>127.99999999999999</ele><time>2026-03-29T09:47:52.113Z</time></trkpt><trkpt lat="43.9776951" lon="12.4807882"><ele>128.0</ele><time>2026-03-29T09:47:53.137Z</time></trkpt><trkpt lat="43.9776287" lon="12.480841"><ele>128.0</ele><time>2026-03-29T09:47:54.075Z</time></trkpt><trkpt lat="43.9775663" lon="12.4808951"><ele>128.0</ele><time>2026-03-29T09:47:55.112Z</time></trkpt><trkpt lat="43.9774967" lon="12.4809498"><ele>127.99999999999999</ele><time>2026-03-29T09:47:56.123Z</time></trkpt><trkpt lat="43.9774237" lon="12.4810075"><ele>128.0</ele><time>2026-03-29T09:47:57.101Z</time></trkpt><trkpt lat="43.9773526" lon="12.4810707"><ele>127.60000000000001</ele><time>2026-03-29T09:47:58.12Z</time></trkpt><trkpt lat="43.9772739" lon="12.4811268"><ele>127.20000000000002</ele><time>2026-03-29T09:47:59.127Z</time></trkpt><trkpt lat="43.9771921" lon="12.4811735"><ele>126.8</ele><time>2026-03-29T09:48:00.125Z</time></trkpt><trkpt lat="43.9771004" lon="12.4811847"><ele>126.4</ele><time>2026-03-29T09:48:01.133Z</time></trkpt><trkpt lat="43.977002" lon="12.4811636"><ele>126.0</ele><time>2026-03-29T09:48:02.128Z</time></trkpt><trkpt lat="43.9769041" lon="12.481147"><ele>126.0</ele><time>2026-03-29T09:48:03.124Z</time></trkpt><trkpt lat="43.9767981" lon="12.4811292"><ele>126.0</ele><time>2026-03-29T09:48:04.123Z</time></trkpt><trkpt lat="43.9766842" lon="12.4811148"><ele>126.0</ele><time>2026-03-29T09:48:05.128Z</time></trkpt><trkpt lat="43.9765739" lon="12.4811294"><ele>126.0</ele><time>2026-03-29T09:48:06.107Z</time></trkpt><trkpt lat="43.9764651" lon="12.4811376"><ele>126.0</ele><time>2026-03-29T09:48:07.101Z</time></trkpt><trkpt lat="43.9763746" lon="12.4811514"><ele>125.14285714285714</ele><time>2026-03-29T09:48:08.134Z</time></trkpt><trkpt lat="43.9762884" lon="12.48117"><ele>124.28571428571428</ele><time>2026-03-29T09:48:10.079Z</time></trkpt><trkpt lat="43.9762664" lon="12.4810595"><ele>123.42857142857143</ele><time>2026-03-29T09:48:13.115Z</time></trkpt><trkpt lat="43.9762991" lon="12.4809709"><ele>122.57142857142857</ele><time>2026-03-29T09:48:16.144Z</time></trkpt><trkpt lat="43.9763638" lon="12.4809495"><ele>121.71428571428571</ele><time>2026-03-29T09:48:19.12Z</time></trkpt><trkpt lat="43.9764379" lon="12.4809437"><ele>120.85714285714286</ele><time>2026-03-29T09:48:24.131Z</time></trkpt><trkpt lat="43.9764236" lon="12.4810309"><ele>120.0</ele><time>2026-03-29T09:48:36.115Z</time></trkpt><trkpt lat="43.9763542" lon="12.4810308"><ele>120.0</ele><time>2026-03-29T09:48:41.123Z</time></trkpt><trkpt lat="43.9762983" lon="12.4810808"><ele>120.0</ele><time>2026-03-29T09:48:45.116Z</time></trkpt><trkpt lat="43.9762917" lon="12.4811899"><ele>120.0</ele><time>2026-03-29T09:48:50.134Z</time></trkpt><trkpt lat="43.976313" lon="12.4812889"><ele>120.0</ele><time>2026-03-29T09:48:53.112Z</time></trkpt><trkpt lat="43.9763333" lon="12.4813751"><ele>120.0</ele><time>2026-03-29T09:48:55.128Z</time></trkpt><trkpt lat="43.9763851" lon="12.4814814"><ele>120.0</ele><time>2026-03-29T09:48:58.066Z</time></trkpt><trkpt lat="43.9764317" lon="12.4815545"><ele>120.0</ele><time>2026-03-29T09:49:01.124Z</time></trkpt><trkpt lat="43.9764838" lon="12.4816078"><ele>116.0</ele><time>2026-03-29T09:50:01.117Z</time></trkpt><trkpt lat="43.9764861" lon="12.4816996"><ele>116.0</ele><time>2026-03-29T09:50:16.066Z</time></trkpt><trkpt lat="43.9764861" lon="12.4816996"><ele>116.0</ele><time>2026-03-29T09:50:16.066Z</time></trkpt></trkseg></trk></gpx>